<?xml version="1.0" encoding="UTF-8"?>
<gpx
  version="1.0"
  creator="GPSBabel - http://www.gpsbabel.org"
  xmlns:xsi="http://www.w3.org/2001/XMLSchema-instance"
  xmlns="http://www.topografix.com/GPX/1/0"
  xsi:schemaLocation="http://www.topografix.com/GPX/1/0 http://www.topografix.com/GPX/1/0/gpx.xsd">
<time>2011-09-02T11:21:00Z</time>
<bounds minlat="32.855682373" minlon="35.233531952" maxlat="32.871833801" maxlon="35.260032654"/>
<trk>
  <name>Holux2011/09/02_07:06</name>
<trkseg>
<trkpt lat="32.860782623" lon="35.258113861">
  <ele>314.635254</ele>
  <time>2011-09-02T04:06:47Z</time>
  <speed>0.050000</speed>
</trkpt>
<trkpt lat="32.860774994" lon="35.258102417">
  <ele>311.072754</ele>
  <time>2011-09-02T04:06:49Z</time>
  <speed>0.130000</speed>
</trkpt>
<trkpt lat="32.860771179" lon="35.258079529">
  <ele>308.830566</ele>
  <time>2011-09-02T04:06:50Z</time>
  <speed>0.470000</speed>
</trkpt>
<trkpt lat="32.860778809" lon="35.258052826">
  <ele>306.674316</ele>
  <time>2011-09-02T04:06:51Z</time>
  <speed>0.570000</speed>
</trkpt>
<trkpt lat="32.860786438" lon="35.258037567">
  <ele>304.033691</ele>
  <time>2011-09-02T04:06:53Z</time>
  <speed>0.190000</speed>
</trkpt>
<trkpt lat="32.860778809" lon="35.258003235">
  <ele>303.455566</ele>
  <time>2011-09-02T04:07:01Z</time>
  <speed>0.740000</speed>
</trkpt>
<trkpt lat="32.860786438" lon="35.257968903">
  <ele>303.150879</ele>
  <time>2011-09-02T04:07:03Z</time>
  <speed>1.910000</speed>
</trkpt>
<trkpt lat="32.860805511" lon="35.257926941">
  <ele>302.705566</ele>
  <time>2011-09-02T04:07:05Z</time>
  <speed>1.960000</speed>
</trkpt>
<trkpt lat="32.860828400" lon="35.257888794">
  <ele>302.111816</ele>
  <time>2011-09-02T04:07:07Z</time>
  <speed>1.650000</speed>
</trkpt>
<trkpt lat="32.860843658" lon="35.257846832">
  <ele>302.150879</ele>
  <time>2011-09-02T04:07:09Z</time>
  <speed>1.210000</speed>
</trkpt>
<trkpt lat="32.860866547" lon="35.257808685">
  <ele>302.385254</ele>
  <time>2011-09-02T04:07:12Z</time>
  <speed>1.400000</speed>
</trkpt>
<trkpt lat="32.860881805" lon="35.257774353">
  <ele>303.221191</ele>
  <time>2011-09-02T04:07:14Z</time>
  <speed>1.310000</speed>
</trkpt>
<trkpt lat="32.860862732" lon="35.257747650">
  <ele>302.564941</ele>
  <time>2011-09-02T04:07:17Z</time>
  <speed>1.800000</speed>
</trkpt>
<trkpt lat="32.860824585" lon="35.257766724">
  <ele>301.143066</ele>
  <time>2011-09-02T04:07:19Z</time>
  <speed>1.620000</speed>
</trkpt>
<trkpt lat="32.860797882" lon="35.257820129">
  <ele>300.408691</ele>
  <time>2011-09-02T04:07:21Z</time>
  <speed>2.620000</speed>
</trkpt>
<trkpt lat="32.860790253" lon="35.257854462">
  <ele>300.447754</ele>
  <time>2011-09-02T04:07:22Z</time>
  <speed>2.950000</speed>
</trkpt>
<trkpt lat="32.860782623" lon="35.257896423">
  <ele>300.486816</ele>
  <time>2011-09-02T04:07:23Z</time>
  <speed>3.230000</speed>
</trkpt>
<trkpt lat="32.860778809" lon="35.257930756">
  <ele>300.244629</ele>
  <time>2011-09-02T04:07:24Z</time>
  <speed>2.740000</speed>
</trkpt>
<trkpt lat="32.860771179" lon="35.257984161">
  <ele>301.096191</ele>
  <time>2011-09-02T04:07:26Z</time>
  <speed>1.560000</speed>
</trkpt>
<trkpt lat="32.860790253" lon="35.258026123">
  <ele>301.244629</ele>
  <time>2011-09-02T04:07:30Z</time>
  <speed>0.450000</speed>
</trkpt>
<trkpt lat="32.860816956" lon="35.258022308">
  <ele>302.314941</ele>
  <time>2011-09-02T04:09:01Z</time>
</trkpt>
<trkpt lat="32.860851288" lon="35.257999420">
  <ele>302.275879</ele>
  <time>2011-09-02T04:10:13Z</time>
  <speed>1.090000</speed>
</trkpt>
<trkpt lat="32.860885620" lon="35.257984161">
  <ele>302.127441</ele>
  <time>2011-09-02T04:10:15Z</time>
  <speed>1.640000</speed>
</trkpt>
<trkpt lat="32.860923767" lon="35.257965088">
  <ele>301.783691</ele>
  <time>2011-09-02T04:10:17Z</time>
  <speed>1.840000</speed>
</trkpt>
<trkpt lat="32.860958099" lon="35.257953644">
  <ele>301.400879</ele>
  <time>2011-09-02T04:10:19Z</time>
  <speed>1.890000</speed>
</trkpt>
<trkpt lat="32.860992432" lon="35.257923126">
  <ele>300.752441</ele>
  <time>2011-09-02T04:10:21Z</time>
  <speed>1.820000</speed>
</trkpt>
<trkpt lat="32.861022949" lon="35.257888794">
  <ele>300.447754</ele>
  <time>2011-09-02T04:10:23Z</time>
  <speed>2.010000</speed>
</trkpt>
<trkpt lat="32.861057281" lon="35.257869720">
  <ele>299.916504</ele>
  <time>2011-09-02T04:10:25Z</time>
  <speed>2.190000</speed>
</trkpt>
<trkpt lat="32.861087799" lon="35.257843018">
  <ele>300.143066</ele>
  <time>2011-09-02T04:10:27Z</time>
  <speed>2.250000</speed>
</trkpt>
<trkpt lat="32.861122131" lon="35.257816315">
  <ele>299.791504</ele>
  <time>2011-09-02T04:10:29Z</time>
  <speed>2.380000</speed>
</trkpt>
<trkpt lat="32.861156464" lon="35.257785797">
  <ele>299.385254</ele>
  <time>2011-09-02T04:10:31Z</time>
  <speed>2.410000</speed>
</trkpt>
<trkpt lat="32.861186981" lon="35.257755280">
  <ele>299.486816</ele>
  <time>2011-09-02T04:10:33Z</time>
  <speed>1.870000</speed>
</trkpt>
<trkpt lat="32.861202240" lon="35.257709503">
  <ele>299.979004</ele>
  <time>2011-09-02T04:10:35Z</time>
  <speed>2.270000</speed>
</trkpt>
<trkpt lat="32.861217499" lon="35.257667542">
  <ele>300.229004</ele>
  <time>2011-09-02T04:10:37Z</time>
  <speed>2.030000</speed>
</trkpt>
<trkpt lat="32.861213684" lon="35.257629395">
  <ele>300.041504</ele>
  <time>2011-09-02T04:10:39Z</time>
  <speed>2.110000</speed>
</trkpt>
<trkpt lat="32.861198425" lon="35.257575989">
  <ele>300.158691</ele>
  <time>2011-09-02T04:10:41Z</time>
  <speed>2.250000</speed>
</trkpt>
<trkpt lat="32.861190796" lon="35.257537842">
  <ele>300.439941</ele>
  <time>2011-09-02T04:10:42Z</time>
  <speed>2.260000</speed>
</trkpt>
<trkpt lat="32.861186981" lon="35.257484436">
  <ele>301.596191</ele>
  <time>2011-09-02T04:10:44Z</time>
  <speed>2.320000</speed>
</trkpt>
<trkpt lat="32.861175537" lon="35.257446289">
  <ele>301.377441</ele>
  <time>2011-09-02T04:10:46Z</time>
  <speed>1.970000</speed>
</trkpt>
<trkpt lat="32.861145020" lon="35.257408142">
  <ele>299.596191</ele>
  <time>2011-09-02T04:10:48Z</time>
  <speed>1.940000</speed>
</trkpt>
<trkpt lat="32.861118317" lon="35.257392883">
  <ele>298.525879</ele>
  <time>2011-09-02T04:10:49Z</time>
  <speed>2.040000</speed>
</trkpt>
<trkpt lat="32.861087799" lon="35.257366180">
  <ele>297.822754</ele>
  <time>2011-09-02T04:10:51Z</time>
  <speed>2.420000</speed>
</trkpt>
<trkpt lat="32.861061096" lon="35.257328033">
  <ele>297.510254</ele>
  <time>2011-09-02T04:10:53Z</time>
  <speed>2.210000</speed>
</trkpt>
<trkpt lat="32.861030579" lon="35.257289886">
  <ele>296.939941</ele>
  <time>2011-09-02T04:10:55Z</time>
  <speed>2.050000</speed>
</trkpt>
<trkpt lat="32.860996246" lon="35.257255554">
  <ele>296.377441</ele>
  <time>2011-09-02T04:10:57Z</time>
  <speed>1.890000</speed>
</trkpt>
<trkpt lat="32.860961914" lon="35.257232666">
  <ele>295.783691</ele>
  <time>2011-09-02T04:10:59Z</time>
  <speed>1.970000</speed>
</trkpt>
<trkpt lat="32.860927582" lon="35.257228851">
  <ele>295.510254</ele>
  <time>2011-09-02T04:11:01Z</time>
  <speed>2.480000</speed>
</trkpt>
<trkpt lat="32.860897064" lon="35.257255554">
  <ele>296.010254</ele>
  <time>2011-09-02T04:11:03Z</time>
  <speed>2.290000</speed>
</trkpt>
<trkpt lat="32.860843658" lon="35.257259369">
  <ele>295.307129</ele>
  <time>2011-09-02T04:11:05Z</time>
  <speed>2.960000</speed>
</trkpt>
<trkpt lat="32.860813141" lon="35.257259369">
  <ele>295.299316</ele>
  <time>2011-09-02T04:11:06Z</time>
  <speed>3.300000</speed>
</trkpt>
<trkpt lat="32.860778809" lon="35.257263184">
  <ele>296.010254</ele>
  <time>2011-09-02T04:11:07Z</time>
  <speed>3.330000</speed>
</trkpt>
<trkpt lat="32.860740662" lon="35.257259369">
  <ele>296.361816</ele>
  <time>2011-09-02T04:11:08Z</time>
  <speed>3.790000</speed>
</trkpt>
<trkpt lat="32.860702515" lon="35.257255554">
  <ele>296.369629</ele>
  <time>2011-09-02T04:11:09Z</time>
  <speed>4.560000</speed>
</trkpt>
<trkpt lat="32.860660553" lon="35.257244110">
  <ele>296.127441</ele>
  <time>2011-09-02T04:11:10Z</time>
  <speed>4.890000</speed>
</trkpt>
<trkpt lat="32.860614777" lon="35.257236481">
  <ele>295.807129</ele>
  <time>2011-09-02T04:11:11Z</time>
  <speed>5.160000</speed>
</trkpt>
<trkpt lat="32.860561371" lon="35.257228851">
  <ele>296.604004</ele>
  <time>2011-09-02T04:11:12Z</time>
  <speed>5.480000</speed>
</trkpt>
<trkpt lat="32.860500336" lon="35.257240295">
  <ele>298.658691</ele>
  <time>2011-09-02T04:11:13Z</time>
  <speed>5.530000</speed>
</trkpt>
<trkpt lat="32.860450745" lon="35.257228851">
  <ele>299.057129</ele>
  <time>2011-09-02T04:11:14Z</time>
  <speed>5.790000</speed>
</trkpt>
<trkpt lat="32.860401154" lon="35.257213593">
  <ele>299.275879</ele>
  <time>2011-09-02T04:11:15Z</time>
  <speed>6.070000</speed>
</trkpt>
<trkpt lat="32.860351563" lon="35.257194519">
  <ele>298.807129</ele>
  <time>2011-09-02T04:11:16Z</time>
  <speed>4.930000</speed>
</trkpt>
<trkpt lat="32.860313416" lon="35.257167816">
  <ele>298.979004</ele>
  <time>2011-09-02T04:11:17Z</time>
  <speed>4.510000</speed>
</trkpt>
<trkpt lat="32.860282898" lon="35.257152557">
  <ele>299.111816</ele>
  <time>2011-09-02T04:11:18Z</time>
  <speed>4.190000</speed>
</trkpt>
<trkpt lat="32.860248566" lon="35.257148743">
  <ele>299.314941</ele>
  <time>2011-09-02T04:11:19Z</time>
  <speed>3.900000</speed>
</trkpt>
<trkpt lat="32.860214233" lon="35.257164001">
  <ele>299.549316</ele>
  <time>2011-09-02T04:11:20Z</time>
  <speed>4.350000</speed>
</trkpt>
<trkpt lat="32.860179901" lon="35.257190704">
  <ele>299.447754</ele>
  <time>2011-09-02T04:11:21Z</time>
  <speed>4.730000</speed>
</trkpt>
<trkpt lat="32.860141754" lon="35.257209778">
  <ele>299.205566</ele>
  <time>2011-09-02T04:11:22Z</time>
  <speed>4.610000</speed>
</trkpt>
<trkpt lat="32.860103607" lon="35.257228851">
  <ele>299.236816</ele>
  <time>2011-09-02T04:11:23Z</time>
  <speed>4.690000</speed>
</trkpt>
<trkpt lat="32.860061646" lon="35.257251740">
  <ele>299.041504</ele>
  <time>2011-09-02T04:11:24Z</time>
  <speed>5.360000</speed>
</trkpt>
<trkpt lat="32.860015869" lon="35.257274628">
  <ele>299.182129</ele>
  <time>2011-09-02T04:11:25Z</time>
  <speed>5.450000</speed>
</trkpt>
<trkpt lat="32.859966278" lon="35.257297516">
  <ele>298.838379</ele>
  <time>2011-09-02T04:11:26Z</time>
  <speed>5.480000</speed>
</trkpt>
<trkpt lat="32.859920502" lon="35.257312775">
  <ele>298.275879</ele>
  <time>2011-09-02T04:11:27Z</time>
  <speed>5.310000</speed>
</trkpt>
<trkpt lat="32.859874725" lon="35.257328033">
  <ele>297.986816</ele>
  <time>2011-09-02T04:11:28Z</time>
  <speed>5.090000</speed>
</trkpt>
<trkpt lat="32.859828949" lon="35.257335663">
  <ele>297.838379</ele>
  <time>2011-09-02T04:11:29Z</time>
  <speed>4.910000</speed>
</trkpt>
<trkpt lat="32.859783173" lon="35.257339478">
  <ele>297.643066</ele>
  <time>2011-09-02T04:11:30Z</time>
  <speed>5.110000</speed>
</trkpt>
<trkpt lat="32.859741211" lon="35.257339478">
  <ele>297.197754</ele>
  <time>2011-09-02T04:11:31Z</time>
  <speed>4.890000</speed>
</trkpt>
<trkpt lat="32.859699249" lon="35.257350922">
  <ele>297.174316</ele>
  <time>2011-09-02T04:11:32Z</time>
  <speed>4.720000</speed>
</trkpt>
<trkpt lat="32.859657288" lon="35.257366180">
  <ele>297.510254</ele>
  <time>2011-09-02T04:11:33Z</time>
  <speed>4.540000</speed>
</trkpt>
<trkpt lat="32.859615326" lon="35.257369995">
  <ele>297.150879</ele>
  <time>2011-09-02T04:11:34Z</time>
  <speed>4.060000</speed>
</trkpt>
<trkpt lat="32.859580994" lon="35.257369995">
  <ele>296.713379</ele>
  <time>2011-09-02T04:11:35Z</time>
  <speed>3.540000</speed>
</trkpt>
<trkpt lat="32.859546661" lon="35.257366180">
  <ele>296.549316</ele>
  <time>2011-09-02T04:11:36Z</time>
  <speed>3.360000</speed>
</trkpt>
<trkpt lat="32.859516144" lon="35.257373810">
  <ele>296.314941</ele>
  <time>2011-09-02T04:11:37Z</time>
  <speed>3.520000</speed>
</trkpt>
<trkpt lat="32.859485626" lon="35.257373810">
  <ele>296.400879</ele>
  <time>2011-09-02T04:11:38Z</time>
  <speed>3.420000</speed>
</trkpt>
<trkpt lat="32.859458923" lon="35.257373810">
  <ele>296.744629</ele>
  <time>2011-09-02T04:11:39Z</time>
  <speed>3.420000</speed>
</trkpt>
<trkpt lat="32.859424591" lon="35.257377625">
  <ele>296.588379</ele>
  <time>2011-09-02T04:11:40Z</time>
  <speed>3.630000</speed>
</trkpt>
<trkpt lat="32.859390259" lon="35.257396698">
  <ele>296.385254</ele>
  <time>2011-09-02T04:11:41Z</time>
  <speed>3.600000</speed>
</trkpt>
<trkpt lat="32.859355927" lon="35.257400513">
  <ele>296.479004</ele>
  <time>2011-09-02T04:11:42Z</time>
  <speed>3.590000</speed>
</trkpt>
<trkpt lat="32.859321594" lon="35.257408142">
  <ele>296.268066</ele>
  <time>2011-09-02T04:11:43Z</time>
  <speed>3.560000</speed>
</trkpt>
<trkpt lat="32.859294891" lon="35.257415771">
  <ele>296.479004</ele>
  <time>2011-09-02T04:11:44Z</time>
  <speed>3.510000</speed>
</trkpt>
<trkpt lat="32.859260559" lon="35.257423401">
  <ele>296.424316</ele>
  <time>2011-09-02T04:11:45Z</time>
  <speed>3.480000</speed>
</trkpt>
<trkpt lat="32.859230042" lon="35.257423401">
  <ele>296.260254</ele>
  <time>2011-09-02T04:11:46Z</time>
  <speed>3.570000</speed>
</trkpt>
<trkpt lat="32.859199524" lon="35.257419586">
  <ele>296.111816</ele>
  <time>2011-09-02T04:11:47Z</time>
  <speed>3.280000</speed>
</trkpt>
<trkpt lat="32.859169006" lon="35.257415771">
  <ele>295.877441</ele>
  <time>2011-09-02T04:11:48Z</time>
  <speed>3.400000</speed>
</trkpt>
<trkpt lat="32.859134674" lon="35.257419586">
  <ele>295.861816</ele>
  <time>2011-09-02T04:11:49Z</time>
  <speed>3.360000</speed>
</trkpt>
<trkpt lat="32.859104156" lon="35.257423401">
  <ele>296.244629</ele>
  <time>2011-09-02T04:11:50Z</time>
  <speed>3.360000</speed>
</trkpt>
<trkpt lat="32.859077454" lon="35.257419586">
  <ele>296.369629</ele>
  <time>2011-09-02T04:11:51Z</time>
  <speed>2.780000</speed>
</trkpt>
<trkpt lat="32.859050751" lon="35.257419586">
  <ele>296.463379</ele>
  <time>2011-09-02T04:11:52Z</time>
  <speed>3.040000</speed>
</trkpt>
<trkpt lat="32.859020233" lon="35.257419586">
  <ele>296.643066</ele>
  <time>2011-09-02T04:11:53Z</time>
  <speed>2.850000</speed>
</trkpt>
<trkpt lat="32.858985901" lon="35.257404327">
  <ele>296.189941</ele>
  <time>2011-09-02T04:11:54Z</time>
  <speed>3.120000</speed>
</trkpt>
<trkpt lat="32.858955383" lon="35.257404327">
  <ele>296.174316</ele>
  <time>2011-09-02T04:11:55Z</time>
  <speed>2.950000</speed>
</trkpt>
<trkpt lat="32.858928680" lon="35.257411957">
  <ele>296.268066</ele>
  <time>2011-09-02T04:11:56Z</time>
  <speed>2.810000</speed>
</trkpt>
<trkpt lat="32.858886719" lon="35.257434845">
  <ele>296.447754</ele>
  <time>2011-09-02T04:11:57Z</time>
  <speed>3.420000</speed>
</trkpt>
<trkpt lat="32.858860016" lon="35.257431030">
  <ele>296.658691</ele>
  <time>2011-09-02T04:11:58Z</time>
  <speed>3.230000</speed>
</trkpt>
<trkpt lat="32.858802795" lon="35.257431030">
  <ele>297.174316</ele>
  <time>2011-09-02T04:12:00Z</time>
  <speed>3.020000</speed>
</trkpt>
<trkpt lat="32.858749390" lon="35.257431030">
  <ele>297.111816</ele>
  <time>2011-09-02T04:12:02Z</time>
  <speed>3.320000</speed>
</trkpt>
<trkpt lat="32.858711243" lon="35.257438660">
  <ele>297.721191</ele>
  <time>2011-09-02T04:12:03Z</time>
  <speed>3.390000</speed>
</trkpt>
<trkpt lat="32.858680725" lon="35.257434845">
  <ele>297.799316</ele>
  <time>2011-09-02T04:12:04Z</time>
  <speed>3.210000</speed>
</trkpt>
<trkpt lat="32.858650208" lon="35.257431030">
  <ele>298.252441</ele>
  <time>2011-09-02T04:12:05Z</time>
  <speed>3.210000</speed>
</trkpt>
<trkpt lat="32.858619690" lon="35.257423401">
  <ele>298.721191</ele>
  <time>2011-09-02T04:12:06Z</time>
  <speed>3.200000</speed>
</trkpt>
<trkpt lat="32.858592987" lon="35.257419586">
  <ele>299.986816</ele>
  <time>2011-09-02T04:12:07Z</time>
  <speed>3.130000</speed>
</trkpt>
<trkpt lat="32.858566284" lon="35.257400513">
  <ele>300.861816</ele>
  <time>2011-09-02T04:12:08Z</time>
  <speed>3.150000</speed>
</trkpt>
<trkpt lat="32.858535767" lon="35.257396698">
  <ele>303.916504</ele>
  <time>2011-09-02T04:12:09Z</time>
  <speed>3.220000</speed>
</trkpt>
<trkpt lat="32.858509064" lon="35.257381439">
  <ele>304.838379</ele>
  <time>2011-09-02T04:12:10Z</time>
  <speed>3.260000</speed>
</trkpt>
<trkpt lat="32.858482361" lon="35.257373810">
  <ele>306.010254</ele>
  <time>2011-09-02T04:12:11Z</time>
  <speed>3.410000</speed>
</trkpt>
<trkpt lat="32.858455658" lon="35.257354736">
  <ele>307.400879</ele>
  <time>2011-09-02T04:12:12Z</time>
  <speed>2.960000</speed>
</trkpt>
<trkpt lat="32.858402252" lon="35.257347107">
  <ele>307.924316</ele>
  <time>2011-09-02T04:12:14Z</time>
  <speed>3.150000</speed>
</trkpt>
<trkpt lat="32.858371735" lon="35.257339478">
  <ele>307.010254</ele>
  <time>2011-09-02T04:12:15Z</time>
  <speed>3.420000</speed>
</trkpt>
<trkpt lat="32.858345032" lon="35.257331848">
  <ele>307.408691</ele>
  <time>2011-09-02T04:12:16Z</time>
  <speed>3.310000</speed>
</trkpt>
<trkpt lat="32.858314514" lon="35.257328033">
  <ele>307.479004</ele>
  <time>2011-09-02T04:12:17Z</time>
  <speed>3.610000</speed>
</trkpt>
<trkpt lat="32.858287811" lon="35.257312775">
  <ele>308.104004</ele>
  <time>2011-09-02T04:12:18Z</time>
  <speed>3.620000</speed>
</trkpt>
<trkpt lat="32.858257294" lon="35.257305145">
  <ele>308.127441</ele>
  <time>2011-09-02T04:12:19Z</time>
  <speed>3.490000</speed>
</trkpt>
<trkpt lat="32.858226776" lon="35.257297516">
  <ele>308.010254</ele>
  <time>2011-09-02T04:12:20Z</time>
  <speed>3.140000</speed>
</trkpt>
<trkpt lat="32.858177185" lon="35.257293701">
  <ele>308.127441</ele>
  <time>2011-09-02T04:12:22Z</time>
  <speed>2.950000</speed>
</trkpt>
<trkpt lat="32.858146667" lon="35.257289886">
  <ele>308.229004</ele>
  <time>2011-09-02T04:12:23Z</time>
  <speed>3.300000</speed>
</trkpt>
<trkpt lat="32.858116150" lon="35.257278442">
  <ele>308.064941</ele>
  <time>2011-09-02T04:12:24Z</time>
  <speed>3.360000</speed>
</trkpt>
<trkpt lat="32.858085632" lon="35.257278442">
  <ele>308.041504</ele>
  <time>2011-09-02T04:12:25Z</time>
  <speed>3.320000</speed>
</trkpt>
<trkpt lat="32.858051300" lon="35.257270813">
  <ele>308.002441</ele>
  <time>2011-09-02T04:12:26Z</time>
  <speed>3.330000</speed>
</trkpt>
<trkpt lat="32.858020782" lon="35.257263184">
  <ele>308.057129</ele>
  <time>2011-09-02T04:12:27Z</time>
  <speed>3.290000</speed>
</trkpt>
<trkpt lat="32.857994080" lon="35.257263184">
  <ele>308.572754</ele>
  <time>2011-09-02T04:12:28Z</time>
  <speed>3.280000</speed>
</trkpt>
<trkpt lat="32.857959747" lon="35.257259369">
  <ele>307.744629</ele>
  <time>2011-09-02T04:12:29Z</time>
  <speed>3.170000</speed>
</trkpt>
<trkpt lat="32.857906342" lon="35.257244110">
  <ele>308.088379</ele>
  <time>2011-09-02T04:12:31Z</time>
  <speed>3.060000</speed>
</trkpt>
<trkpt lat="32.857875824" lon="35.257240295">
  <ele>307.994629</ele>
  <time>2011-09-02T04:12:32Z</time>
  <speed>3.000000</speed>
</trkpt>
<trkpt lat="32.857849121" lon="35.257232666">
  <ele>308.299316</ele>
  <time>2011-09-02T04:12:33Z</time>
  <speed>3.020000</speed>
</trkpt>
<trkpt lat="32.857818604" lon="35.257225037">
  <ele>307.643066</ele>
  <time>2011-09-02T04:12:34Z</time>
  <speed>3.080000</speed>
</trkpt>
<trkpt lat="32.857791901" lon="35.257225037">
  <ele>307.080566</ele>
  <time>2011-09-02T04:12:35Z</time>
  <speed>2.850000</speed>
</trkpt>
<trkpt lat="32.857746124" lon="35.257213593">
  <ele>306.814941</ele>
  <time>2011-09-02T04:12:37Z</time>
  <speed>2.640000</speed>
</trkpt>
<trkpt lat="32.857700348" lon="35.257209778">
  <ele>307.150879</ele>
  <time>2011-09-02T04:12:39Z</time>
  <speed>2.510000</speed>
</trkpt>
<trkpt lat="32.857650757" lon="35.257205963">
  <ele>306.393066</ele>
  <time>2011-09-02T04:12:41Z</time>
  <speed>3.050000</speed>
</trkpt>
<trkpt lat="32.857620239" lon="35.257209778">
  <ele>306.557129</ele>
  <time>2011-09-02T04:12:42Z</time>
  <speed>3.050000</speed>
</trkpt>
<trkpt lat="32.857574463" lon="35.257205963">
  <ele>307.205566</ele>
  <time>2011-09-02T04:12:44Z</time>
  <speed>2.510000</speed>
</trkpt>
<trkpt lat="32.857524872" lon="35.257213593">
  <ele>307.588379</ele>
  <time>2011-09-02T04:12:46Z</time>
  <speed>2.770000</speed>
</trkpt>
<trkpt lat="32.857482910" lon="35.257225037">
  <ele>307.682129</ele>
  <time>2011-09-02T04:12:48Z</time>
  <speed>2.560000</speed>
</trkpt>
<trkpt lat="32.857433319" lon="35.257228851">
  <ele>308.799316</ele>
  <time>2011-09-02T04:12:50Z</time>
  <speed>2.610000</speed>
</trkpt>
<trkpt lat="32.857387543" lon="35.257251740">
  <ele>309.432129</ele>
  <time>2011-09-02T04:12:52Z</time>
  <speed>2.720000</speed>
</trkpt>
<trkpt lat="32.857360840" lon="35.257266998">
  <ele>309.510254</ele>
  <time>2011-09-02T04:12:53Z</time>
  <speed>3.150000</speed>
</trkpt>
<trkpt lat="32.857334137" lon="35.257286072">
  <ele>309.260254</ele>
  <time>2011-09-02T04:12:54Z</time>
  <speed>3.150000</speed>
</trkpt>
<trkpt lat="32.857303619" lon="35.257293701">
  <ele>309.416504</ele>
  <time>2011-09-02T04:12:55Z</time>
  <speed>2.600000</speed>
</trkpt>
<trkpt lat="32.857276917" lon="35.257308960">
  <ele>309.924316</ele>
  <time>2011-09-02T04:12:56Z</time>
  <speed>2.730000</speed>
</trkpt>
<trkpt lat="32.857250214" lon="35.257328033">
  <ele>311.166504</ele>
  <time>2011-09-02T04:12:57Z</time>
  <speed>2.890000</speed>
</trkpt>
<trkpt lat="32.857223511" lon="35.257347107">
  <ele>311.447754</ele>
  <time>2011-09-02T04:12:58Z</time>
  <speed>3.020000</speed>
</trkpt>
<trkpt lat="32.857196808" lon="35.257366180">
  <ele>311.611816</ele>
  <time>2011-09-02T04:12:59Z</time>
  <speed>2.970000</speed>
</trkpt>
<trkpt lat="32.857170105" lon="35.257385254">
  <ele>311.072754</ele>
  <time>2011-09-02T04:13:00Z</time>
  <speed>3.100000</speed>
</trkpt>
<trkpt lat="32.857139587" lon="35.257404327">
  <ele>311.252441</ele>
  <time>2011-09-02T04:13:01Z</time>
  <speed>3.130000</speed>
</trkpt>
<trkpt lat="32.857116699" lon="35.257431030">
  <ele>311.479004</ele>
  <time>2011-09-02T04:13:02Z</time>
  <speed>3.140000</speed>
</trkpt>
<trkpt lat="32.857070923" lon="35.257461548">
  <ele>311.627441</ele>
  <time>2011-09-02T04:13:04Z</time>
  <speed>3.110000</speed>
</trkpt>
<trkpt lat="32.857048035" lon="35.257476807">
  <ele>312.033691</ele>
  <time>2011-09-02T04:13:05Z</time>
  <speed>3.220000</speed>
</trkpt>
<trkpt lat="32.857021332" lon="35.257495880">
  <ele>312.697754</ele>
  <time>2011-09-02T04:13:06Z</time>
  <speed>3.260000</speed>
</trkpt>
<trkpt lat="32.856994629" lon="35.257514954">
  <ele>313.205566</ele>
  <time>2011-09-02T04:13:07Z</time>
  <speed>3.260000</speed>
</trkpt>
<trkpt lat="32.856971741" lon="35.257537842">
  <ele>313.400879</ele>
  <time>2011-09-02T04:13:08Z</time>
  <speed>3.170000</speed>
</trkpt>
<trkpt lat="32.856948853" lon="35.257564545">
  <ele>312.627441</ele>
  <time>2011-09-02T04:13:09Z</time>
  <speed>3.200000</speed>
</trkpt>
<trkpt lat="32.856922150" lon="35.257587433">
  <ele>312.064941</ele>
  <time>2011-09-02T04:13:10Z</time>
  <speed>3.080000</speed>
</trkpt>
<trkpt lat="32.856906891" lon="35.257614136">
  <ele>313.182129</ele>
  <time>2011-09-02T04:13:11Z</time>
  <speed>2.970000</speed>
</trkpt>
<trkpt lat="32.856868744" lon="35.257663727">
  <ele>314.471191</ele>
  <time>2011-09-02T04:13:13Z</time>
  <speed>2.750000</speed>
</trkpt>
<trkpt lat="32.856830597" lon="35.257705688">
  <ele>314.580566</ele>
  <time>2011-09-02T04:13:15Z</time>
  <speed>3.000000</speed>
</trkpt>
<trkpt lat="32.856807709" lon="35.257732391">
  <ele>314.807129</ele>
  <time>2011-09-02T04:13:16Z</time>
  <speed>2.990000</speed>
</trkpt>
<trkpt lat="32.856788635" lon="35.257759094">
  <ele>315.275879</ele>
  <time>2011-09-02T04:13:17Z</time>
  <speed>2.890000</speed>
</trkpt>
<trkpt lat="32.856761932" lon="35.257812500">
  <ele>316.729004</ele>
  <time>2011-09-02T04:13:19Z</time>
  <speed>3.040000</speed>
</trkpt>
<trkpt lat="32.856742859" lon="35.257839203">
  <ele>316.822754</ele>
  <time>2011-09-02T04:13:20Z</time>
  <speed>2.810000</speed>
</trkpt>
<trkpt lat="32.856712341" lon="35.257884979">
  <ele>316.713379</ele>
  <time>2011-09-02T04:13:22Z</time>
  <speed>2.880000</speed>
</trkpt>
<trkpt lat="32.856681824" lon="35.257930756">
  <ele>316.283691</ele>
  <time>2011-09-02T04:13:24Z</time>
  <speed>2.590000</speed>
</trkpt>
<trkpt lat="32.856647491" lon="35.257968903">
  <ele>315.885254</ele>
  <time>2011-09-02T04:13:26Z</time>
  <speed>2.640000</speed>
</trkpt>
<trkpt lat="32.856624603" lon="35.258018494">
  <ele>316.236816</ele>
  <time>2011-09-02T04:13:28Z</time>
  <speed>2.640000</speed>
</trkpt>
<trkpt lat="32.856601715" lon="35.258068085">
  <ele>316.174316</ele>
  <time>2011-09-02T04:13:30Z</time>
  <speed>2.600000</speed>
</trkpt>
<trkpt lat="32.856575012" lon="35.258106232">
  <ele>315.838379</ele>
  <time>2011-09-02T04:13:32Z</time>
  <speed>2.570000</speed>
</trkpt>
<trkpt lat="32.856563568" lon="35.258148193">
  <ele>314.924316</ele>
  <time>2011-09-02T04:13:34Z</time>
  <speed>2.930000</speed>
</trkpt>
<trkpt lat="32.856555939" lon="35.258209229">
  <ele>315.564941</ele>
  <time>2011-09-02T04:13:36Z</time>
  <speed>3.260000</speed>
</trkpt>
<trkpt lat="32.856555939" lon="35.258247375">
  <ele>316.455566</ele>
  <time>2011-09-02T04:13:37Z</time>
  <speed>2.670000</speed>
</trkpt>
<trkpt lat="32.856559753" lon="35.258300781">
  <ele>317.729004</ele>
  <time>2011-09-02T04:13:39Z</time>
  <speed>1.990000</speed>
</trkpt>
<trkpt lat="32.856555939" lon="35.258346558">
  <ele>319.611816</ele>
  <time>2011-09-02T04:13:41Z</time>
  <speed>1.710000</speed>
</trkpt>
<trkpt lat="32.856563568" lon="35.258384705">
  <ele>320.557129</ele>
  <time>2011-09-02T04:13:43Z</time>
  <speed>2.100000</speed>
</trkpt>
<trkpt lat="32.856559753" lon="35.258426666">
  <ele>321.494629</ele>
  <time>2011-09-02T04:13:45Z</time>
  <speed>1.920000</speed>
</trkpt>
<trkpt lat="32.856555939" lon="35.258468628">
  <ele>321.158691</ele>
  <time>2011-09-02T04:13:47Z</time>
  <speed>2.180000</speed>
</trkpt>
<trkpt lat="32.856552124" lon="35.258522034">
  <ele>320.666504</ele>
  <time>2011-09-02T04:13:49Z</time>
  <speed>2.370000</speed>
</trkpt>
<trkpt lat="32.856544495" lon="35.258563995">
  <ele>320.674316</ele>
  <time>2011-09-02T04:13:51Z</time>
  <speed>2.280000</speed>
</trkpt>
<trkpt lat="32.856540680" lon="35.258621216">
  <ele>321.564941</ele>
  <time>2011-09-02T04:13:53Z</time>
  <speed>2.520000</speed>
</trkpt>
<trkpt lat="32.856529236" lon="35.258666992">
  <ele>322.229004</ele>
  <time>2011-09-02T04:13:55Z</time>
  <speed>2.230000</speed>
</trkpt>
<trkpt lat="32.856521606" lon="35.258716583">
  <ele>323.869629</ele>
  <time>2011-09-02T04:13:57Z</time>
  <speed>2.360000</speed>
</trkpt>
<trkpt lat="32.856506348" lon="35.258743286">
  <ele>325.111816</ele>
  <time>2011-09-02T04:13:58Z</time>
  <speed>2.420000</speed>
</trkpt>
<trkpt lat="32.856502533" lon="35.258785248">
  <ele>325.518066</ele>
  <time>2011-09-02T04:14:00Z</time>
  <speed>1.950000</speed>
</trkpt>
<trkpt lat="32.856506348" lon="35.258823395">
  <ele>325.775879</ele>
  <time>2011-09-02T04:14:02Z</time>
  <speed>1.250000</speed>
</trkpt>
<trkpt lat="32.856472015" lon="35.258831024">
  <ele>326.697754</ele>
  <time>2011-09-02T04:14:04Z</time>
  <speed>2.150000</speed>
</trkpt>
<trkpt lat="32.856430054" lon="35.258834839">
  <ele>327.572754</ele>
  <time>2011-09-02T04:14:06Z</time>
  <speed>1.540000</speed>
</trkpt>
<trkpt lat="32.856391907" lon="35.258834839">
  <ele>327.611816</ele>
  <time>2011-09-02T04:14:08Z</time>
  <speed>2.290000</speed>
</trkpt>
<trkpt lat="32.856365204" lon="35.258842468">
  <ele>328.455566</ele>
  <time>2011-09-02T04:14:09Z</time>
  <speed>2.420000</speed>
</trkpt>
<trkpt lat="32.856319427" lon="35.258850098">
  <ele>328.525879</ele>
  <time>2011-09-02T04:14:11Z</time>
  <speed>2.280000</speed>
</trkpt>
<trkpt lat="32.856285095" lon="35.258880615">
  <ele>328.643066</ele>
  <time>2011-09-02T04:14:13Z</time>
  <speed>2.540000</speed>
</trkpt>
<trkpt lat="32.856258392" lon="35.258914948">
  <ele>329.010254</ele>
  <time>2011-09-02T04:14:15Z</time>
  <speed>2.000000</speed>
</trkpt>
<trkpt lat="32.856246948" lon="35.258945465">
  <ele>328.799316</ele>
  <time>2011-09-02T04:14:18Z</time>
  <speed>0.530000</speed>
</trkpt>
<trkpt lat="32.856239319" lon="35.258975983">
  <ele>328.205566</ele>
  <time>2011-09-02T04:14:41Z</time>
  <speed>2.830000</speed>
</trkpt>
<trkpt lat="32.856224060" lon="35.259010315">
  <ele>327.900879</ele>
  <time>2011-09-02T04:14:42Z</time>
  <speed>3.890000</speed>
</trkpt>
<trkpt lat="32.856201172" lon="35.259048462">
  <ele>327.604004</ele>
  <time>2011-09-02T04:14:43Z</time>
  <speed>4.440000</speed>
</trkpt>
<trkpt lat="32.856178284" lon="35.259098053">
  <ele>326.791504</ele>
  <time>2011-09-02T04:14:44Z</time>
  <speed>4.690000</speed>
</trkpt>
<trkpt lat="32.856155396" lon="35.259140015">
  <ele>326.166504</ele>
  <time>2011-09-02T04:14:45Z</time>
  <speed>4.490000</speed>
</trkpt>
<trkpt lat="32.856132507" lon="35.259185791">
  <ele>325.291504</ele>
  <time>2011-09-02T04:14:46Z</time>
  <speed>4.730000</speed>
</trkpt>
<trkpt lat="32.856113434" lon="35.259227753">
  <ele>324.643066</ele>
  <time>2011-09-02T04:14:47Z</time>
  <speed>4.000000</speed>
</trkpt>
<trkpt lat="32.856098175" lon="35.259269714">
  <ele>324.018066</ele>
  <time>2011-09-02T04:14:48Z</time>
  <speed>3.940000</speed>
</trkpt>
<trkpt lat="32.856082916" lon="35.259307861">
  <ele>323.088379</ele>
  <time>2011-09-02T04:14:49Z</time>
  <speed>4.100000</speed>
</trkpt>
<trkpt lat="32.856075287" lon="35.259353638">
  <ele>321.479004</ele>
  <time>2011-09-02T04:14:50Z</time>
  <speed>4.500000</speed>
</trkpt>
<trkpt lat="32.856067657" lon="35.259395599">
  <ele>320.861816</ele>
  <time>2011-09-02T04:14:51Z</time>
  <speed>2.950000</speed>
</trkpt>
<trkpt lat="32.856071472" lon="35.259429932">
  <ele>319.900879</ele>
  <time>2011-09-02T04:14:52Z</time>
  <speed>3.000000</speed>
</trkpt>
<trkpt lat="32.856063843" lon="35.259494781">
  <ele>318.494629</ele>
  <time>2011-09-02T04:14:54Z</time>
  <speed>3.580000</speed>
</trkpt>
<trkpt lat="32.856056213" lon="35.259532928">
  <ele>317.252441</ele>
  <time>2011-09-02T04:14:55Z</time>
  <speed>4.090000</speed>
</trkpt>
<trkpt lat="32.856040955" lon="35.259571075">
  <ele>316.135254</ele>
  <time>2011-09-02T04:14:56Z</time>
  <speed>3.650000</speed>
</trkpt>
<trkpt lat="32.856040955" lon="35.259616852">
  <ele>314.557129</ele>
  <time>2011-09-02T04:14:57Z</time>
  <speed>3.520000</speed>
</trkpt>
<trkpt lat="32.856033325" lon="35.259651184">
  <ele>313.713379</ele>
  <time>2011-09-02T04:14:58Z</time>
  <speed>3.160000</speed>
</trkpt>
<trkpt lat="32.856025696" lon="35.259681702">
  <ele>312.494629</ele>
  <time>2011-09-02T04:14:59Z</time>
  <speed>3.120000</speed>
</trkpt>
<trkpt lat="32.856018066" lon="35.259716034">
  <ele>311.744629</ele>
  <time>2011-09-02T04:15:00Z</time>
  <speed>3.140000</speed>
</trkpt>
<trkpt lat="32.856014252" lon="35.259757996">
  <ele>312.588379</ele>
  <time>2011-09-02T04:15:01Z</time>
  <speed>3.260000</speed>
</trkpt>
<trkpt lat="32.856014252" lon="35.259796143">
  <ele>312.900879</ele>
  <time>2011-09-02T04:15:02Z</time>
  <speed>3.220000</speed>
</trkpt>
<trkpt lat="32.856018066" lon="35.259830475">
  <ele>312.377441</ele>
  <time>2011-09-02T04:15:03Z</time>
  <speed>3.840000</speed>
</trkpt>
<trkpt lat="32.856018066" lon="35.259872437">
  <ele>311.838379</ele>
  <time>2011-09-02T04:15:04Z</time>
  <speed>3.720000</speed>
</trkpt>
<trkpt lat="32.856014252" lon="35.259914398">
  <ele>311.338379</ele>
  <time>2011-09-02T04:15:05Z</time>
  <speed>4.280000</speed>
</trkpt>
<trkpt lat="32.856002808" lon="35.259963989">
  <ele>310.549316</ele>
  <time>2011-09-02T04:15:06Z</time>
  <speed>4.510000</speed>
</trkpt>
<trkpt lat="32.855983734" lon="35.260005951">
  <ele>309.510254</ele>
  <time>2011-09-02T04:15:07Z</time>
  <speed>4.220000</speed>
</trkpt>
<trkpt lat="32.855949402" lon="35.260032654">
  <ele>307.408691</ele>
  <time>2011-09-02T04:15:09Z</time>
  <speed>2.520000</speed>
</trkpt>
<trkpt lat="32.855892181" lon="35.260013580">
  <ele>305.650879</ele>
  <time>2011-09-02T04:15:11Z</time>
  <speed>3.780000</speed>
</trkpt>
<trkpt lat="32.855854034" lon="35.259994507">
  <ele>305.064941</ele>
  <time>2011-09-02T04:15:12Z</time>
  <speed>4.330000</speed>
</trkpt>
<trkpt lat="32.855819702" lon="35.259960175">
  <ele>304.205566</ele>
  <time>2011-09-02T04:15:13Z</time>
  <speed>4.260000</speed>
</trkpt>
<trkpt lat="32.855808258" lon="35.259910583">
  <ele>302.393066</ele>
  <time>2011-09-02T04:15:14Z</time>
  <speed>3.740000</speed>
</trkpt>
<trkpt lat="32.855796814" lon="35.259860992">
  <ele>301.994629</ele>
  <time>2011-09-02T04:15:15Z</time>
  <speed>3.450000</speed>
</trkpt>
<trkpt lat="32.855785370" lon="35.259819031">
  <ele>301.299316</ele>
  <time>2011-09-02T04:15:16Z</time>
  <speed>3.560000</speed>
</trkpt>
<trkpt lat="32.855781555" lon="35.259769440">
  <ele>301.182129</ele>
  <time>2011-09-02T04:15:17Z</time>
  <speed>3.650000</speed>
</trkpt>
<trkpt lat="32.855773926" lon="35.259727478">
  <ele>301.244629</ele>
  <time>2011-09-02T04:15:18Z</time>
  <speed>3.610000</speed>
</trkpt>
<trkpt lat="32.855766296" lon="35.259685516">
  <ele>300.643066</ele>
  <time>2011-09-02T04:15:19Z</time>
  <speed>3.810000</speed>
</trkpt>
<trkpt lat="32.855754852" lon="35.259643555">
  <ele>300.213379</ele>
  <time>2011-09-02T04:15:20Z</time>
  <speed>3.860000</speed>
</trkpt>
<trkpt lat="32.855743408" lon="35.259582520">
  <ele>299.807129</ele>
  <time>2011-09-02T04:15:21Z</time>
  <speed>3.560000</speed>
</trkpt>
<trkpt lat="32.855735779" lon="35.259540558">
  <ele>299.455566</ele>
  <time>2011-09-02T04:15:22Z</time>
  <speed>3.410000</speed>
</trkpt>
<trkpt lat="32.855731964" lon="35.259498596">
  <ele>299.400879</ele>
  <time>2011-09-02T04:15:23Z</time>
  <speed>3.260000</speed>
</trkpt>
<trkpt lat="32.855728149" lon="35.259464264">
  <ele>299.080566</ele>
  <time>2011-09-02T04:15:24Z</time>
  <speed>3.040000</speed>
</trkpt>
<trkpt lat="32.855724335" lon="35.259399414">
  <ele>299.025879</ele>
  <time>2011-09-02T04:15:26Z</time>
  <speed>3.020000</speed>
</trkpt>
<trkpt lat="32.855716705" lon="35.259361267">
  <ele>298.330566</ele>
  <time>2011-09-02T04:15:27Z</time>
  <speed>3.530000</speed>
</trkpt>
<trkpt lat="32.855705261" lon="35.259323120">
  <ele>298.611816</ele>
  <time>2011-09-02T04:15:28Z</time>
  <speed>3.530000</speed>
</trkpt>
<trkpt lat="32.855701447" lon="35.259277344">
  <ele>298.463379</ele>
  <time>2011-09-02T04:15:29Z</time>
  <speed>3.550000</speed>
</trkpt>
<trkpt lat="32.855693817" lon="35.259243011">
  <ele>296.689941</ele>
  <time>2011-09-02T04:15:30Z</time>
  <speed>3.700000</speed>
</trkpt>
<trkpt lat="32.855690002" lon="35.259204865">
  <ele>296.322754</ele>
  <time>2011-09-02T04:15:31Z</time>
  <speed>3.470000</speed>
</trkpt>
<trkpt lat="32.855682373" lon="35.259170532">
  <ele>295.713379</ele>
  <time>2011-09-02T04:15:32Z</time>
  <speed>3.260000</speed>
</trkpt>
<trkpt lat="32.855686188" lon="35.259136200">
  <ele>296.713379</ele>
  <time>2011-09-02T04:15:33Z</time>
  <speed>3.240000</speed>
</trkpt>
<trkpt lat="32.855682373" lon="35.259098053">
  <ele>296.705566</ele>
  <time>2011-09-02T04:15:34Z</time>
  <speed>3.690000</speed>
</trkpt>
<trkpt lat="32.855686188" lon="35.259052277">
  <ele>296.283691</ele>
  <time>2011-09-02T04:15:35Z</time>
  <speed>3.960000</speed>
</trkpt>
<trkpt lat="32.855686188" lon="35.259006500">
  <ele>295.307129</ele>
  <time>2011-09-02T04:15:36Z</time>
  <speed>4.260000</speed>
</trkpt>
<trkpt lat="32.855690002" lon="35.258960724">
  <ele>294.807129</ele>
  <time>2011-09-02T04:15:37Z</time>
  <speed>4.400000</speed>
</trkpt>
<trkpt lat="32.855697632" lon="35.258914948">
  <ele>294.635254</ele>
  <time>2011-09-02T04:15:38Z</time>
  <speed>4.320000</speed>
</trkpt>
<trkpt lat="32.855709076" lon="35.258869171">
  <ele>294.783691</ele>
  <time>2011-09-02T04:15:39Z</time>
  <speed>4.730000</speed>
</trkpt>
<trkpt lat="32.855720520" lon="35.258819580">
  <ele>294.893066</ele>
  <time>2011-09-02T04:15:40Z</time>
  <speed>4.700000</speed>
</trkpt>
<trkpt lat="32.855724335" lon="35.258769989">
  <ele>294.885254</ele>
  <time>2011-09-02T04:15:41Z</time>
  <speed>4.800000</speed>
</trkpt>
<trkpt lat="32.855739594" lon="35.258720398">
  <ele>294.955566</ele>
  <time>2011-09-02T04:15:42Z</time>
  <speed>5.460000</speed>
</trkpt>
<trkpt lat="32.855758667" lon="35.258663177">
  <ele>294.564941</ele>
  <time>2011-09-02T04:15:43Z</time>
  <speed>5.820000</speed>
</trkpt>
<trkpt lat="32.855777740" lon="35.258602142">
  <ele>294.275879</ele>
  <time>2011-09-02T04:15:44Z</time>
  <speed>6.290000</speed>
</trkpt>
<trkpt lat="32.855812073" lon="35.258544922">
  <ele>294.486816</ele>
  <time>2011-09-02T04:15:45Z</time>
  <speed>6.220000</speed>
</trkpt>
<trkpt lat="32.855834961" lon="35.258483887">
  <ele>293.596191</ele>
  <time>2011-09-02T04:15:46Z</time>
  <speed>6.250000</speed>
</trkpt>
<trkpt lat="32.855865479" lon="35.258426666">
  <ele>293.432129</ele>
  <time>2011-09-02T04:15:47Z</time>
  <speed>6.160000</speed>
</trkpt>
<trkpt lat="32.855884552" lon="35.258373260">
  <ele>293.260254</ele>
  <time>2011-09-02T04:15:48Z</time>
  <speed>5.880000</speed>
</trkpt>
<trkpt lat="32.855911255" lon="35.258316040">
  <ele>292.947754</ele>
  <time>2011-09-02T04:15:49Z</time>
  <speed>5.890000</speed>
</trkpt>
<trkpt lat="32.855937958" lon="35.258258820">
  <ele>292.752441</ele>
  <time>2011-09-02T04:15:50Z</time>
  <speed>5.840000</speed>
</trkpt>
<trkpt lat="32.855968475" lon="35.258205414">
  <ele>292.596191</ele>
  <time>2011-09-02T04:15:51Z</time>
  <speed>5.830000</speed>
</trkpt>
<trkpt lat="32.855995178" lon="35.258152008">
  <ele>292.346191</ele>
  <time>2011-09-02T04:15:52Z</time>
  <speed>6.020000</speed>
</trkpt>
<trkpt lat="32.856025696" lon="35.258098602">
  <ele>292.658691</ele>
  <time>2011-09-02T04:15:53Z</time>
  <speed>6.120000</speed>
</trkpt>
<trkpt lat="32.856056213" lon="35.258045197">
  <ele>292.900879</ele>
  <time>2011-09-02T04:15:54Z</time>
  <speed>6.370000</speed>
</trkpt>
<trkpt lat="32.856079102" lon="35.257984161">
  <ele>292.650879</ele>
  <time>2011-09-02T04:15:55Z</time>
  <speed>6.390000</speed>
</trkpt>
<trkpt lat="32.856105804" lon="35.257930756">
  <ele>292.541504</ele>
  <time>2011-09-02T04:15:56Z</time>
  <speed>5.920000</speed>
</trkpt>
<trkpt lat="32.856140137" lon="35.257873535">
  <ele>292.416504</ele>
  <time>2011-09-02T04:15:57Z</time>
  <speed>6.710000</speed>
</trkpt>
<trkpt lat="32.856174469" lon="35.257816315">
  <ele>292.369629</ele>
  <time>2011-09-02T04:15:58Z</time>
  <speed>6.430000</speed>
</trkpt>
<trkpt lat="32.856208801" lon="35.257759094">
  <ele>292.166504</ele>
  <time>2011-09-02T04:15:59Z</time>
  <speed>6.530000</speed>
</trkpt>
<trkpt lat="32.856239319" lon="35.257694244">
  <ele>291.525879</ele>
  <time>2011-09-02T04:16:00Z</time>
  <speed>7.200000</speed>
</trkpt>
<trkpt lat="32.856277466" lon="35.257629395">
  <ele>291.650879</ele>
  <time>2011-09-02T04:16:01Z</time>
  <speed>7.270000</speed>
</trkpt>
<trkpt lat="32.856315613" lon="35.257568359">
  <ele>291.447754</ele>
  <time>2011-09-02T04:16:02Z</time>
  <speed>7.410000</speed>
</trkpt>
<trkpt lat="32.856353760" lon="35.257503510">
  <ele>291.033691</ele>
  <time>2011-09-02T04:16:03Z</time>
  <speed>7.440000</speed>
</trkpt>
<trkpt lat="32.856395721" lon="35.257442474">
  <ele>290.385254</ele>
  <time>2011-09-02T04:16:04Z</time>
  <speed>7.490000</speed>
</trkpt>
<trkpt lat="32.856445313" lon="35.257385254">
  <ele>290.463379</ele>
  <time>2011-09-02T04:16:05Z</time>
  <speed>7.290000</speed>
</trkpt>
<trkpt lat="32.856491089" lon="35.257328033">
  <ele>290.236816</ele>
  <time>2011-09-02T04:16:06Z</time>
  <speed>7.100000</speed>
</trkpt>
<trkpt lat="32.856536865" lon="35.257278442">
  <ele>290.369629</ele>
  <time>2011-09-02T04:16:07Z</time>
  <speed>6.860000</speed>
</trkpt>
<trkpt lat="32.856582642" lon="35.257232666">
  <ele>290.197754</ele>
  <time>2011-09-02T04:16:08Z</time>
  <speed>6.590000</speed>
</trkpt>
<trkpt lat="32.856620789" lon="35.257175446">
  <ele>290.135254</ele>
  <time>2011-09-02T04:16:09Z</time>
  <speed>6.210000</speed>
</trkpt>
<trkpt lat="32.856662750" lon="35.257125854">
  <ele>289.768066</ele>
  <time>2011-09-02T04:16:10Z</time>
  <speed>6.400000</speed>
</trkpt>
<trkpt lat="32.856708527" lon="35.257080078">
  <ele>289.775879</ele>
  <time>2011-09-02T04:16:11Z</time>
  <speed>6.310000</speed>
</trkpt>
<trkpt lat="32.856746674" lon="35.257034302">
  <ele>289.658691</ele>
  <time>2011-09-02T04:16:12Z</time>
  <speed>6.240000</speed>
</trkpt>
<trkpt lat="32.856784821" lon="35.256984711">
  <ele>289.252441</ele>
  <time>2011-09-02T04:16:13Z</time>
  <speed>6.000000</speed>
</trkpt>
<trkpt lat="32.856822968" lon="35.256946564">
  <ele>289.377441</ele>
  <time>2011-09-02T04:16:14Z</time>
  <speed>5.610000</speed>
</trkpt>
<trkpt lat="32.856861115" lon="35.256908417">
  <ele>289.533691</ele>
  <time>2011-09-02T04:16:15Z</time>
  <speed>5.630000</speed>
</trkpt>
<trkpt lat="32.856899261" lon="35.256862640">
  <ele>289.549316</ele>
  <time>2011-09-02T04:16:16Z</time>
  <speed>5.620000</speed>
</trkpt>
<trkpt lat="32.856933594" lon="35.256824493">
  <ele>289.354004</ele>
  <time>2011-09-02T04:16:17Z</time>
  <speed>5.230000</speed>
</trkpt>
<trkpt lat="32.856971741" lon="35.256790161">
  <ele>289.260254</ele>
  <time>2011-09-02T04:16:18Z</time>
  <speed>5.100000</speed>
</trkpt>
<trkpt lat="32.857002258" lon="35.256755829">
  <ele>289.244629</ele>
  <time>2011-09-02T04:16:19Z</time>
  <speed>5.070000</speed>
</trkpt>
<trkpt lat="32.857040405" lon="35.256717682">
  <ele>289.424316</ele>
  <time>2011-09-02T04:16:20Z</time>
  <speed>5.070000</speed>
</trkpt>
<trkpt lat="32.857074738" lon="35.256675720">
  <ele>289.510254</ele>
  <time>2011-09-02T04:16:21Z</time>
  <speed>5.650000</speed>
</trkpt>
<trkpt lat="32.857116699" lon="35.256637573">
  <ele>289.518066</ele>
  <time>2011-09-02T04:16:22Z</time>
  <speed>5.960000</speed>
</trkpt>
<trkpt lat="32.857166290" lon="35.256618500">
  <ele>288.908691</ele>
  <time>2011-09-02T04:16:23Z</time>
  <speed>5.760000</speed>
</trkpt>
<trkpt lat="32.857208252" lon="35.256603241">
  <ele>288.018066</ele>
  <time>2011-09-02T04:16:24Z</time>
  <speed>5.480000</speed>
</trkpt>
<trkpt lat="32.857250214" lon="35.256587982">
  <ele>287.689941</ele>
  <time>2011-09-02T04:16:25Z</time>
  <speed>4.340000</speed>
</trkpt>
<trkpt lat="32.857280731" lon="35.256584167">
  <ele>288.057129</ele>
  <time>2011-09-02T04:16:26Z</time>
  <speed>3.750000</speed>
</trkpt>
<trkpt lat="32.857307434" lon="35.256595612">
  <ele>287.244629</ele>
  <time>2011-09-02T04:16:27Z</time>
  <speed>2.380000</speed>
</trkpt>
<trkpt lat="32.857345581" lon="35.256618500">
  <ele>286.689941</ele>
  <time>2011-09-02T04:16:29Z</time>
  <speed>2.340000</speed>
</trkpt>
<trkpt lat="32.857379913" lon="35.256641388">
  <ele>285.439941</ele>
  <time>2011-09-02T04:16:31Z</time>
  <speed>1.510000</speed>
</trkpt>
<trkpt lat="32.857406616" lon="35.256607056">
  <ele>284.619629</ele>
  <time>2011-09-02T04:16:35Z</time>
  <speed>2.090000</speed>
</trkpt>
<trkpt lat="32.857444763" lon="35.256568909">
  <ele>283.752441</ele>
  <time>2011-09-02T04:16:37Z</time>
  <speed>2.880000</speed>
</trkpt>
<trkpt lat="32.857479095" lon="35.256576538">
  <ele>283.814941</ele>
  <time>2011-09-02T04:16:39Z</time>
  <speed>1.660000</speed>
</trkpt>
<trkpt lat="32.857490540" lon="35.256610870">
  <ele>283.299316</ele>
  <time>2011-09-02T04:16:41Z</time>
  <speed>1.570000</speed>
</trkpt>
<trkpt lat="32.857517242" lon="35.256660461">
  <ele>283.189941</ele>
  <time>2011-09-02T04:16:43Z</time>
  <speed>2.900000</speed>
</trkpt>
<trkpt lat="32.857536316" lon="35.256690979">
  <ele>282.877441</ele>
  <time>2011-09-02T04:16:44Z</time>
  <speed>3.220000</speed>
</trkpt>
<trkpt lat="32.857559204" lon="35.256717682">
  <ele>282.416504</ele>
  <time>2011-09-02T04:16:45Z</time>
  <speed>3.270000</speed>
</trkpt>
<trkpt lat="32.857608795" lon="35.256721497">
  <ele>281.432129</ele>
  <time>2011-09-02T04:16:46Z</time>
  <speed>4.240000</speed>
</trkpt>
<trkpt lat="32.857662201" lon="35.256713867">
  <ele>280.674316</ele>
  <time>2011-09-02T04:16:47Z</time>
  <speed>5.070000</speed>
</trkpt>
<trkpt lat="32.857707977" lon="35.256710052">
  <ele>280.150879</ele>
  <time>2011-09-02T04:16:48Z</time>
  <speed>4.790000</speed>
</trkpt>
<trkpt lat="32.857742310" lon="35.256694794">
  <ele>279.650879</ele>
  <time>2011-09-02T04:16:49Z</time>
  <speed>3.900000</speed>
</trkpt>
<trkpt lat="32.857776642" lon="35.256679535">
  <ele>279.119629</ele>
  <time>2011-09-02T04:16:50Z</time>
  <speed>2.910000</speed>
</trkpt>
<trkpt lat="32.857826233" lon="35.256668091">
  <ele>278.299316</ele>
  <time>2011-09-02T04:16:53Z</time>
  <speed>2.930000</speed>
</trkpt>
<trkpt lat="32.857868195" lon="35.256652832">
  <ele>277.088379</ele>
  <time>2011-09-02T04:16:55Z</time>
  <speed>2.350000</speed>
</trkpt>
<trkpt lat="32.857913971" lon="35.256614685">
  <ele>275.994629</ele>
  <time>2011-09-02T04:16:56Z</time>
  <speed>3.500000</speed>
</trkpt>
<trkpt lat="32.857936859" lon="35.256568909">
  <ele>275.361816</ele>
  <time>2011-09-02T04:16:57Z</time>
  <speed>3.270000</speed>
</trkpt>
<trkpt lat="32.857955933" lon="35.256530762">
  <ele>274.525879</ele>
  <time>2011-09-02T04:16:58Z</time>
  <speed>3.100000</speed>
</trkpt>
<trkpt lat="32.857963562" lon="35.256492615">
  <ele>273.900879</ele>
  <time>2011-09-02T04:16:59Z</time>
  <speed>3.390000</speed>
</trkpt>
<trkpt lat="32.857978821" lon="35.256450653">
  <ele>273.268066</ele>
  <time>2011-09-02T04:17:00Z</time>
  <speed>3.780000</speed>
</trkpt>
<trkpt lat="32.858005524" lon="35.256397247">
  <ele>273.057129</ele>
  <time>2011-09-02T04:17:01Z</time>
  <speed>4.670000</speed>
</trkpt>
<trkpt lat="32.858028412" lon="35.256343842">
  <ele>272.846191</ele>
  <time>2011-09-02T04:17:02Z</time>
  <speed>4.850000</speed>
</trkpt>
<trkpt lat="32.858055115" lon="35.256301880">
  <ele>272.096191</ele>
  <time>2011-09-02T04:17:03Z</time>
  <speed>3.580000</speed>
</trkpt>
<trkpt lat="32.858066559" lon="35.256248474">
  <ele>271.197754</ele>
  <time>2011-09-02T04:17:04Z</time>
  <speed>4.060000</speed>
</trkpt>
<trkpt lat="32.858081818" lon="35.256198883">
  <ele>270.354004</ele>
  <time>2011-09-02T04:17:05Z</time>
  <speed>3.800000</speed>
</trkpt>
<trkpt lat="32.858093262" lon="35.256141663">
  <ele>270.158691</ele>
  <time>2011-09-02T04:17:06Z</time>
  <speed>3.160000</speed>
</trkpt>
<trkpt lat="32.858116150" lon="35.256107330">
  <ele>269.283691</ele>
  <time>2011-09-02T04:17:07Z</time>
  <speed>2.550000</speed>
</trkpt>
<trkpt lat="32.858127594" lon="35.256069183">
  <ele>268.666504</ele>
  <time>2011-09-02T04:17:08Z</time>
  <speed>3.200000</speed>
</trkpt>
<trkpt lat="32.858135223" lon="35.256011963">
  <ele>268.510254</ele>
  <time>2011-09-02T04:17:09Z</time>
  <speed>3.840000</speed>
</trkpt>
<trkpt lat="32.858146667" lon="35.255981445">
  <ele>267.799316</ele>
  <time>2011-09-02T04:17:10Z</time>
  <speed>2.650000</speed>
</trkpt>
<trkpt lat="32.858150482" lon="35.255939484">
  <ele>266.963379</ele>
  <time>2011-09-02T04:17:11Z</time>
  <speed>2.640000</speed>
</trkpt>
<trkpt lat="32.858161926" lon="35.255897522">
  <ele>265.424316</ele>
  <time>2011-09-02T04:17:13Z</time>
  <speed>1.240000</speed>
</trkpt>
<trkpt lat="32.858139038" lon="35.255855560">
  <ele>264.994629</ele>
  <time>2011-09-02T04:17:14Z</time>
  <speed>2.140000</speed>
</trkpt>
<trkpt lat="32.858127594" lon="35.255809784">
  <ele>263.830566</ele>
  <time>2011-09-02T04:17:15Z</time>
  <speed>3.320000</speed>
</trkpt>
<trkpt lat="32.858116150" lon="35.255779266">
  <ele>263.033691</ele>
  <time>2011-09-02T04:17:16Z</time>
  <speed>2.870000</speed>
</trkpt>
<trkpt lat="32.858100891" lon="35.255744934">
  <ele>262.650879</ele>
  <time>2011-09-02T04:17:17Z</time>
  <speed>3.970000</speed>
</trkpt>
<trkpt lat="32.858085632" lon="35.255691528">
  <ele>262.361816</ele>
  <time>2011-09-02T04:17:18Z</time>
  <speed>5.000000</speed>
</trkpt>
<trkpt lat="32.858100891" lon="35.255634308">
  <ele>261.666504</ele>
  <time>2011-09-02T04:17:19Z</time>
  <speed>4.780000</speed>
</trkpt>
<trkpt lat="32.858112335" lon="35.255580902">
  <ele>261.041504</ele>
  <time>2011-09-02T04:17:20Z</time>
  <speed>4.910000</speed>
</trkpt>
<trkpt lat="32.858139038" lon="35.255538940">
  <ele>260.268066</ele>
  <time>2011-09-02T04:17:21Z</time>
  <speed>4.030000</speed>
</trkpt>
<trkpt lat="32.858154297" lon="35.255504608">
  <ele>259.822754</ele>
  <time>2011-09-02T04:17:22Z</time>
  <speed>3.360000</speed>
</trkpt>
<trkpt lat="32.858154297" lon="35.255432129">
  <ele>258.479004</ele>
  <time>2011-09-02T04:17:23Z</time>
  <speed>3.400000</speed>
</trkpt>
<trkpt lat="32.858165741" lon="35.255378723">
  <ele>257.361816</ele>
  <time>2011-09-02T04:17:24Z</time>
  <speed>3.010000</speed>
</trkpt>
<trkpt lat="32.858181000" lon="35.255344391">
  <ele>256.768066</ele>
  <time>2011-09-02T04:17:25Z</time>
  <speed>3.040000</speed>
</trkpt>
<trkpt lat="32.858196259" lon="35.255298615">
  <ele>256.549316</ele>
  <time>2011-09-02T04:17:26Z</time>
  <speed>3.100000</speed>
</trkpt>
<trkpt lat="32.858219147" lon="35.255264282">
  <ele>256.314941</ele>
  <time>2011-09-02T04:17:27Z</time>
  <speed>3.500000</speed>
</trkpt>
<trkpt lat="32.858234406" lon="35.255226135">
  <ele>255.712158</ele>
  <time>2011-09-02T04:17:28Z</time>
  <speed>3.730000</speed>
</trkpt>
<trkpt lat="32.858249664" lon="35.255180359">
  <ele>256.236816</ele>
  <time>2011-09-02T04:17:29Z</time>
  <speed>3.730000</speed>
</trkpt>
<trkpt lat="32.858276367" lon="35.255142212">
  <ele>256.182129</ele>
  <time>2011-09-02T04:17:30Z</time>
  <speed>4.280000</speed>
</trkpt>
<trkpt lat="32.858303070" lon="35.255077362">
  <ele>256.650879</ele>
  <time>2011-09-02T04:17:31Z</time>
  <speed>4.850000</speed>
</trkpt>
<trkpt lat="32.858318329" lon="35.255012512">
  <ele>256.596191</ele>
  <time>2011-09-02T04:17:32Z</time>
  <speed>4.440000</speed>
</trkpt>
<trkpt lat="32.858345032" lon="35.254966736">
  <ele>256.330566</ele>
  <time>2011-09-02T04:17:33Z</time>
  <speed>4.230000</speed>
</trkpt>
<trkpt lat="32.858371735" lon="35.254932404">
  <ele>255.770752</ele>
  <time>2011-09-02T04:17:34Z</time>
  <speed>4.330000</speed>
</trkpt>
<trkpt lat="32.858390808" lon="35.254894257">
  <ele>256.018066</ele>
  <time>2011-09-02T04:17:35Z</time>
  <speed>4.210000</speed>
</trkpt>
<trkpt lat="32.858398438" lon="35.254856110">
  <ele>256.244629</ele>
  <time>2011-09-02T04:17:36Z</time>
  <speed>3.080000</speed>
</trkpt>
<trkpt lat="32.858448029" lon="35.254837036">
  <ele>257.439941</ele>
  <time>2011-09-02T04:17:39Z</time>
  <speed>3.020000</speed>
</trkpt>
<trkpt lat="32.858474731" lon="35.254829407">
  <ele>257.861816</ele>
  <time>2011-09-02T04:17:40Z</time>
  <speed>3.050000</speed>
</trkpt>
<trkpt lat="32.858524323" lon="35.254837036">
  <ele>258.346191</ele>
  <time>2011-09-02T04:17:42Z</time>
  <speed>2.860000</speed>
</trkpt>
<trkpt lat="32.858566284" lon="35.254859924">
  <ele>258.518066</ele>
  <time>2011-09-02T04:17:44Z</time>
  <speed>2.690000</speed>
</trkpt>
<trkpt lat="32.858596802" lon="35.254878998">
  <ele>258.479004</ele>
  <time>2011-09-02T04:17:46Z</time>
  <speed>1.570000</speed>
</trkpt>
<trkpt lat="32.858634949" lon="35.254882813">
  <ele>258.877441</ele>
  <time>2011-09-02T04:17:49Z</time>
  <speed>1.810000</speed>
</trkpt>
<trkpt lat="32.858680725" lon="35.254863739">
  <ele>259.025879</ele>
  <time>2011-09-02T04:17:50Z</time>
  <speed>2.510000</speed>
</trkpt>
<trkpt lat="32.858741760" lon="35.254829407">
  <ele>259.166504</ele>
  <time>2011-09-02T04:17:51Z</time>
  <speed>3.130000</speed>
</trkpt>
<trkpt lat="32.858783722" lon="35.254806519">
  <ele>260.057129</ele>
  <time>2011-09-02T04:17:52Z</time>
  <speed>2.970000</speed>
</trkpt>
<trkpt lat="32.858814240" lon="35.254795074">
  <ele>259.908691</ele>
  <time>2011-09-02T04:17:53Z</time>
  <speed>2.340000</speed>
</trkpt>
<trkpt lat="32.858856201" lon="35.254791260">
  <ele>261.143066</ele>
  <time>2011-09-02T04:17:55Z</time>
  <speed>2.110000</speed>
</trkpt>
<trkpt lat="32.858886719" lon="35.254817963">
  <ele>261.854004</ele>
  <time>2011-09-02T04:17:57Z</time>
  <speed>1.940000</speed>
</trkpt>
<trkpt lat="32.858913422" lon="35.254814148">
  <ele>262.705566</ele>
  <time>2011-09-02T04:17:59Z</time>
  <speed>1.210000</speed>
</trkpt>
<trkpt lat="32.858951569" lon="35.254810333">
  <ele>263.939941</ele>
  <time>2011-09-02T04:18:02Z</time>
  <speed>1.220000</speed>
</trkpt>
<trkpt lat="32.858982086" lon="35.254814148">
  <ele>265.658691</ele>
  <time>2011-09-02T04:18:04Z</time>
  <speed>0.990000</speed>
</trkpt>
<trkpt lat="32.858993530" lon="35.254844666">
  <ele>268.166504</ele>
  <time>2011-09-02T04:18:08Z</time>
  <speed>0.650000</speed>
</trkpt>
<trkpt lat="32.859035492" lon="35.254840851">
  <ele>269.072754</ele>
  <time>2011-09-02T04:18:12Z</time>
  <speed>1.900000</speed>
</trkpt>
<trkpt lat="32.859073639" lon="35.254817963">
  <ele>270.314941</ele>
  <time>2011-09-02T04:18:14Z</time>
  <speed>2.340000</speed>
</trkpt>
<trkpt lat="32.859123230" lon="35.254810333">
  <ele>272.135254</ele>
  <time>2011-09-02T04:18:16Z</time>
  <speed>2.420000</speed>
</trkpt>
<trkpt lat="32.859172821" lon="35.254795074">
  <ele>274.018066</ele>
  <time>2011-09-02T04:18:18Z</time>
  <speed>2.600000</speed>
</trkpt>
<trkpt lat="32.859199524" lon="35.254791260">
  <ele>274.893066</ele>
  <time>2011-09-02T04:18:19Z</time>
  <speed>2.580000</speed>
</trkpt>
<trkpt lat="32.859245300" lon="35.254787445">
  <ele>276.572754</ele>
  <time>2011-09-02T04:18:21Z</time>
  <speed>2.340000</speed>
</trkpt>
<trkpt lat="32.859291077" lon="35.254779816">
  <ele>278.697754</ele>
  <time>2011-09-02T04:18:23Z</time>
  <speed>2.330000</speed>
</trkpt>
<trkpt lat="32.859333038" lon="35.254779816">
  <ele>279.994629</ele>
  <time>2011-09-02T04:18:25Z</time>
  <speed>2.250000</speed>
</trkpt>
<trkpt lat="32.859375000" lon="35.254772186">
  <ele>280.947754</ele>
  <time>2011-09-02T04:18:27Z</time>
  <speed>2.410000</speed>
</trkpt>
<trkpt lat="32.859424591" lon="35.254764557">
  <ele>281.471191</ele>
  <time>2011-09-02T04:18:29Z</time>
  <speed>2.890000</speed>
</trkpt>
<trkpt lat="32.859451294" lon="35.254764557">
  <ele>281.361816</ele>
  <time>2011-09-02T04:18:30Z</time>
  <speed>3.060000</speed>
</trkpt>
<trkpt lat="32.859481812" lon="35.254760742">
  <ele>281.713379</ele>
  <time>2011-09-02T04:18:31Z</time>
  <speed>3.280000</speed>
</trkpt>
<trkpt lat="32.859512329" lon="35.254760742">
  <ele>281.939941</ele>
  <time>2011-09-02T04:18:32Z</time>
  <speed>3.420000</speed>
</trkpt>
<trkpt lat="32.859542847" lon="35.254760742">
  <ele>282.322754</ele>
  <time>2011-09-02T04:18:33Z</time>
  <speed>3.510000</speed>
</trkpt>
<trkpt lat="32.859569550" lon="35.254768372">
  <ele>282.127441</ele>
  <time>2011-09-02T04:18:34Z</time>
  <speed>3.410000</speed>
</trkpt>
<trkpt lat="32.859600067" lon="35.254772186">
  <ele>282.721191</ele>
  <time>2011-09-02T04:18:35Z</time>
  <speed>3.460000</speed>
</trkpt>
<trkpt lat="32.859645844" lon="35.254791260">
  <ele>282.322754</ele>
  <time>2011-09-02T04:18:37Z</time>
  <speed>2.440000</speed>
</trkpt>
<trkpt lat="32.859687805" lon="35.254814148">
  <ele>282.775879</ele>
  <time>2011-09-02T04:18:39Z</time>
  <speed>2.450000</speed>
</trkpt>
<trkpt lat="32.859718323" lon="35.254856110">
  <ele>282.479004</ele>
  <time>2011-09-02T04:18:41Z</time>
  <speed>2.490000</speed>
</trkpt>
<trkpt lat="32.859748840" lon="35.254886627">
  <ele>283.713379</ele>
  <time>2011-09-02T04:18:43Z</time>
  <speed>2.180000</speed>
</trkpt>
<trkpt lat="32.859767914" lon="35.254920959">
  <ele>284.963379</ele>
  <time>2011-09-02T04:18:45Z</time>
  <speed>1.770000</speed>
</trkpt>
<trkpt lat="32.859779358" lon="35.254951477">
  <ele>288.088379</ele>
  <time>2011-09-02T04:18:47Z</time>
  <speed>1.780000</speed>
</trkpt>
<trkpt lat="32.859790802" lon="35.254985809">
  <ele>290.018066</ele>
  <time>2011-09-02T04:18:49Z</time>
  <speed>1.640000</speed>
</trkpt>
<trkpt lat="32.859802246" lon="35.255016327">
  <ele>291.479004</ele>
  <time>2011-09-02T04:18:51Z</time>
  <speed>1.700000</speed>
</trkpt>
<trkpt lat="32.859817505" lon="35.255043030">
  <ele>291.924316</ele>
  <time>2011-09-02T04:18:53Z</time>
  <speed>1.650000</speed>
</trkpt>
<trkpt lat="32.859844208" lon="35.255069733">
  <ele>291.744629</ele>
  <time>2011-09-02T04:18:55Z</time>
  <speed>1.280000</speed>
</trkpt>
<trkpt lat="32.859882355" lon="35.255065918">
  <ele>291.596191</ele>
  <time>2011-09-02T04:18:58Z</time>
  <speed>1.630000</speed>
</trkpt>
<trkpt lat="32.859905243" lon="35.255039215">
  <ele>291.322754</ele>
  <time>2011-09-02T04:19:00Z</time>
  <speed>1.830000</speed>
</trkpt>
<trkpt lat="32.859920502" lon="35.255008698">
  <ele>291.291504</ele>
  <time>2011-09-02T04:19:02Z</time>
  <speed>1.620000</speed>
</trkpt>
<trkpt lat="32.859943390" lon="35.254966736">
  <ele>290.924316</ele>
  <time>2011-09-02T04:19:05Z</time>
  <speed>1.400000</speed>
</trkpt>
<trkpt lat="32.859966278" lon="35.254947662">
  <ele>290.721191</ele>
  <time>2011-09-02T04:19:07Z</time>
  <speed>1.270000</speed>
</trkpt>
<trkpt lat="32.859989166" lon="35.254905701">
  <ele>290.299316</ele>
  <time>2011-09-02T04:19:10Z</time>
  <speed>1.570000</speed>
</trkpt>
<trkpt lat="32.860008240" lon="35.254882813">
  <ele>289.010254</ele>
  <time>2011-09-02T04:19:14Z</time>
  <speed>0.080000</speed>
</trkpt>
<trkpt lat="32.860015869" lon="35.254878998">
  <ele>291.932129</ele>
  <time>2011-09-02T04:21:30Z</time>
  <speed>0.040000</speed>
</trkpt>
<trkpt lat="32.860023499" lon="35.254871368">
  <ele>294.869629</ele>
  <time>2011-09-02T04:21:44Z</time>
  <speed>0.060000</speed>
</trkpt>
<trkpt lat="32.860027313" lon="35.254863739">
  <ele>297.893066</ele>
  <time>2011-09-02T04:21:56Z</time>
  <speed>0.070000</speed>
</trkpt>
<trkpt lat="32.860042572" lon="35.254848480">
  <ele>300.252441</ele>
  <time>2011-09-02T04:22:05Z</time>
  <speed>1.210000</speed>
</trkpt>
<trkpt lat="32.860054016" lon="35.254806519">
  <ele>301.244629</ele>
  <time>2011-09-02T04:22:08Z</time>
  <speed>1.220000</speed>
</trkpt>
<trkpt lat="32.860050201" lon="35.254768372">
  <ele>302.424316</ele>
  <time>2011-09-02T04:22:11Z</time>
  <speed>1.100000</speed>
</trkpt>
<trkpt lat="32.860057831" lon="35.254734039">
  <ele>302.572754</ele>
  <time>2011-09-02T04:22:13Z</time>
  <speed>2.200000</speed>
</trkpt>
<trkpt lat="32.860065460" lon="35.254703522">
  <ele>302.510254</ele>
  <time>2011-09-02T04:22:14Z</time>
  <speed>2.850000</speed>
</trkpt>
<trkpt lat="32.860073090" lon="35.254657745">
  <ele>301.455566</ele>
  <time>2011-09-02T04:22:15Z</time>
  <speed>3.320000</speed>
</trkpt>
<trkpt lat="32.860076904" lon="35.254611969">
  <ele>300.385254</ele>
  <time>2011-09-02T04:22:16Z</time>
  <speed>3.070000</speed>
</trkpt>
<trkpt lat="32.860088348" lon="35.254577637">
  <ele>300.377441</ele>
  <time>2011-09-02T04:22:17Z</time>
  <speed>3.290000</speed>
</trkpt>
<trkpt lat="32.860103607" lon="35.254547119">
  <ele>300.252441</ele>
  <time>2011-09-02T04:22:18Z</time>
  <speed>3.020000</speed>
</trkpt>
<trkpt lat="32.860122681" lon="35.254520416">
  <ele>300.049316</ele>
  <time>2011-09-02T04:22:19Z</time>
  <speed>2.980000</speed>
</trkpt>
<trkpt lat="32.860137939" lon="35.254486084">
  <ele>300.072754</ele>
  <time>2011-09-02T04:22:20Z</time>
  <speed>3.410000</speed>
</trkpt>
<trkpt lat="32.860153198" lon="35.254447937">
  <ele>300.213379</ele>
  <time>2011-09-02T04:22:21Z</time>
  <speed>3.430000</speed>
</trkpt>
<trkpt lat="32.860164642" lon="35.254402161">
  <ele>299.549316</ele>
  <time>2011-09-02T04:22:22Z</time>
  <speed>3.890000</speed>
</trkpt>
<trkpt lat="32.860183716" lon="35.254356384">
  <ele>298.908691</ele>
  <time>2011-09-02T04:22:23Z</time>
  <speed>4.000000</speed>
</trkpt>
<trkpt lat="32.860202789" lon="35.254314423">
  <ele>298.846191</ele>
  <time>2011-09-02T04:22:24Z</time>
  <speed>4.460000</speed>
</trkpt>
<trkpt lat="32.860218048" lon="35.254276276">
  <ele>298.854004</ele>
  <time>2011-09-02T04:22:25Z</time>
  <speed>3.780000</speed>
</trkpt>
<trkpt lat="32.860237122" lon="35.254226685">
  <ele>298.557129</ele>
  <time>2011-09-02T04:22:26Z</time>
  <speed>3.990000</speed>
</trkpt>
<trkpt lat="32.860248566" lon="35.254184723">
  <ele>298.650879</ele>
  <time>2011-09-02T04:22:27Z</time>
  <speed>3.360000</speed>
</trkpt>
<trkpt lat="32.860260010" lon="35.254150391">
  <ele>298.611816</ele>
  <time>2011-09-02T04:22:28Z</time>
  <speed>2.890000</speed>
</trkpt>
<trkpt lat="32.860271454" lon="35.254116058">
  <ele>298.791504</ele>
  <time>2011-09-02T04:22:29Z</time>
  <speed>3.190000</speed>
</trkpt>
<trkpt lat="32.860298157" lon="35.254070282">
  <ele>299.330566</ele>
  <time>2011-09-02T04:22:30Z</time>
  <speed>3.650000</speed>
</trkpt>
<trkpt lat="32.860317230" lon="35.254032135">
  <ele>299.143066</ele>
  <time>2011-09-02T04:22:31Z</time>
  <speed>4.170000</speed>
</trkpt>
<trkpt lat="32.860332489" lon="35.253997803">
  <ele>298.885254</ele>
  <time>2011-09-02T04:22:32Z</time>
  <speed>3.230000</speed>
</trkpt>
<trkpt lat="32.860351563" lon="35.253955841">
  <ele>298.650879</ele>
  <time>2011-09-02T04:22:33Z</time>
  <speed>4.320000</speed>
</trkpt>
<trkpt lat="32.860370636" lon="35.253894806">
  <ele>298.916504</ele>
  <time>2011-09-02T04:22:34Z</time>
  <speed>4.640000</speed>
</trkpt>
<trkpt lat="32.860385895" lon="35.253845215">
  <ele>298.783691</ele>
  <time>2011-09-02T04:22:35Z</time>
  <speed>4.690000</speed>
</trkpt>
<trkpt lat="32.860412598" lon="35.253810883">
  <ele>298.330566</ele>
  <time>2011-09-02T04:22:36Z</time>
  <speed>4.300000</speed>
</trkpt>
<trkpt lat="32.860439301" lon="35.253749847">
  <ele>297.572754</ele>
  <time>2011-09-02T04:22:37Z</time>
  <speed>5.220000</speed>
</trkpt>
<trkpt lat="32.860454559" lon="35.253700256">
  <ele>297.525879</ele>
  <time>2011-09-02T04:22:38Z</time>
  <speed>4.450000</speed>
</trkpt>
<trkpt lat="32.860458374" lon="35.253639221">
  <ele>296.260254</ele>
  <time>2011-09-02T04:22:39Z</time>
  <speed>3.560000</speed>
</trkpt>
<trkpt lat="32.860462189" lon="35.253597260">
  <ele>295.611816</ele>
  <time>2011-09-02T04:22:40Z</time>
  <speed>2.410000</speed>
</trkpt>
<trkpt lat="32.860496521" lon="35.253566742">
  <ele>295.361816</ele>
  <time>2011-09-02T04:22:42Z</time>
  <speed>2.170000</speed>
</trkpt>
<trkpt lat="32.860519409" lon="35.253547668">
  <ele>294.322754</ele>
  <time>2011-09-02T04:22:43Z</time>
  <speed>3.550000</speed>
</trkpt>
<trkpt lat="32.860546112" lon="35.253532410">
  <ele>293.893066</ele>
  <time>2011-09-02T04:22:44Z</time>
  <speed>3.220000</speed>
</trkpt>
<trkpt lat="32.860580444" lon="35.253520966">
  <ele>293.072754</ele>
  <time>2011-09-02T04:22:45Z</time>
  <speed>3.510000</speed>
</trkpt>
<trkpt lat="32.860622406" lon="35.253498077">
  <ele>293.049316</ele>
  <time>2011-09-02T04:22:46Z</time>
  <speed>3.910000</speed>
</trkpt>
<trkpt lat="32.860652924" lon="35.253471375">
  <ele>292.346191</ele>
  <time>2011-09-02T04:22:47Z</time>
  <speed>3.920000</speed>
</trkpt>
<trkpt lat="32.860687256" lon="35.253452301">
  <ele>291.799316</ele>
  <time>2011-09-02T04:22:48Z</time>
  <speed>4.020000</speed>
</trkpt>
<trkpt lat="32.860721588" lon="35.253414154">
  <ele>290.533691</ele>
  <time>2011-09-02T04:22:49Z</time>
  <speed>4.140000</speed>
</trkpt>
<trkpt lat="32.860763550" lon="35.253387451">
  <ele>289.268066</ele>
  <time>2011-09-02T04:22:50Z</time>
  <speed>5.340000</speed>
</trkpt>
<trkpt lat="32.860801697" lon="35.253356934">
  <ele>288.604004</ele>
  <time>2011-09-02T04:22:51Z</time>
  <speed>5.140000</speed>
</trkpt>
<trkpt lat="32.860839844" lon="35.253326416">
  <ele>287.916504</ele>
  <time>2011-09-02T04:22:52Z</time>
  <speed>4.550000</speed>
</trkpt>
<trkpt lat="32.860877991" lon="35.253303528">
  <ele>286.939941</ele>
  <time>2011-09-02T04:22:53Z</time>
  <speed>4.500000</speed>
</trkpt>
<trkpt lat="32.860908508" lon="35.253265381">
  <ele>287.025879</ele>
  <time>2011-09-02T04:22:54Z</time>
  <speed>3.660000</speed>
</trkpt>
<trkpt lat="32.860942841" lon="35.253238678">
  <ele>286.010254</ele>
  <time>2011-09-02T04:22:55Z</time>
  <speed>4.070000</speed>
</trkpt>
<trkpt lat="32.860973358" lon="35.253223419">
  <ele>285.174316</ele>
  <time>2011-09-02T04:22:56Z</time>
  <speed>3.670000</speed>
</trkpt>
<trkpt lat="32.861019135" lon="35.253208160">
  <ele>284.510254</ele>
  <time>2011-09-02T04:22:57Z</time>
  <speed>3.940000</speed>
</trkpt>
<trkpt lat="32.861042023" lon="35.253185272">
  <ele>283.650879</ele>
  <time>2011-09-02T04:22:58Z</time>
  <speed>3.270000</speed>
</trkpt>
<trkpt lat="32.861083984" lon="35.253162384">
  <ele>283.275879</ele>
  <time>2011-09-02T04:22:59Z</time>
  <speed>3.860000</speed>
</trkpt>
<trkpt lat="32.861148834" lon="35.253116608">
  <ele>283.283691</ele>
  <time>2011-09-02T04:23:00Z</time>
  <speed>4.330000</speed>
</trkpt>
<trkpt lat="32.861175537" lon="35.253097534">
  <ele>282.986816</ele>
  <time>2011-09-02T04:23:01Z</time>
  <speed>3.780000</speed>
</trkpt>
<trkpt lat="32.861202240" lon="35.253059387">
  <ele>282.947754</ele>
  <time>2011-09-02T04:23:02Z</time>
  <speed>3.730000</speed>
</trkpt>
<trkpt lat="32.861236572" lon="35.253025055">
  <ele>282.666504</ele>
  <time>2011-09-02T04:23:03Z</time>
  <speed>4.180000</speed>
</trkpt>
<trkpt lat="32.861270905" lon="35.252990723">
  <ele>282.275879</ele>
  <time>2011-09-02T04:23:04Z</time>
  <speed>4.150000</speed>
</trkpt>
<trkpt lat="32.861305237" lon="35.252964020">
  <ele>281.322754</ele>
  <time>2011-09-02T04:23:05Z</time>
  <speed>3.850000</speed>
</trkpt>
<trkpt lat="32.861339569" lon="35.252929688">
  <ele>281.104004</ele>
  <time>2011-09-02T04:23:06Z</time>
  <speed>4.190000</speed>
</trkpt>
<trkpt lat="32.861385345" lon="35.252895355">
  <ele>281.275879</ele>
  <time>2011-09-02T04:23:07Z</time>
  <speed>4.190000</speed>
</trkpt>
<trkpt lat="32.861415863" lon="35.252864838">
  <ele>280.697754</ele>
  <time>2011-09-02T04:23:08Z</time>
  <speed>4.160000</speed>
</trkpt>
<trkpt lat="32.861442566" lon="35.252834320">
  <ele>280.064941</ele>
  <time>2011-09-02T04:23:09Z</time>
  <speed>4.080000</speed>
</trkpt>
<trkpt lat="32.861473083" lon="35.252815247">
  <ele>279.650879</ele>
  <time>2011-09-02T04:23:10Z</time>
  <speed>3.870000</speed>
</trkpt>
<trkpt lat="32.861507416" lon="35.252803802">
  <ele>279.049316</ele>
  <time>2011-09-02T04:23:11Z</time>
  <speed>3.870000</speed>
</trkpt>
<trkpt lat="32.861545563" lon="35.252784729">
  <ele>279.072754</ele>
  <time>2011-09-02T04:23:12Z</time>
  <speed>4.040000</speed>
</trkpt>
<trkpt lat="32.861614227" lon="35.252761841">
  <ele>279.588379</ele>
  <time>2011-09-02T04:23:13Z</time>
  <speed>3.780000</speed>
</trkpt>
<trkpt lat="32.861633301" lon="35.252738953">
  <ele>279.033691</ele>
  <time>2011-09-02T04:23:14Z</time>
  <speed>2.240000</speed>
</trkpt>
<trkpt lat="32.861660004" lon="35.252693176">
  <ele>279.189941</ele>
  <time>2011-09-02T04:23:16Z</time>
  <speed>1.700000</speed>
</trkpt>
<trkpt lat="32.861660004" lon="35.252643585">
  <ele>279.893066</ele>
  <time>2011-09-02T04:23:19Z</time>
  <speed>1.860000</speed>
</trkpt>
<trkpt lat="32.861640930" lon="35.252605438">
  <ele>279.400879</ele>
  <time>2011-09-02T04:23:21Z</time>
  <speed>2.330000</speed>
</trkpt>
<trkpt lat="32.861621857" lon="35.252582550">
  <ele>280.893066</ele>
  <time>2011-09-02T04:23:22Z</time>
  <speed>2.190000</speed>
</trkpt>
<trkpt lat="32.861598969" lon="35.252559662">
  <ele>280.736816</ele>
  <time>2011-09-02T04:23:24Z</time>
  <speed>1.170000</speed>
</trkpt>
<trkpt lat="32.861576080" lon="35.252544403">
  <ele>281.893066</ele>
  <time>2011-09-02T04:23:26Z</time>
  <speed>0.410000</speed>
</trkpt>
<trkpt lat="32.861595154" lon="35.252513885">
  <ele>282.838379</ele>
  <time>2011-09-02T04:23:31Z</time>
  <speed>1.000000</speed>
</trkpt>
<trkpt lat="32.861621857" lon="35.252490997">
  <ele>283.697754</ele>
  <time>2011-09-02T04:23:33Z</time>
  <speed>0.910000</speed>
</trkpt>
<trkpt lat="32.861637115" lon="35.252468109">
  <ele>284.572754</ele>
  <time>2011-09-02T04:23:35Z</time>
  <speed>1.330000</speed>
</trkpt>
<trkpt lat="32.861663818" lon="35.252437592">
  <ele>284.689941</ele>
  <time>2011-09-02T04:23:38Z</time>
  <speed>1.170000</speed>
</trkpt>
<trkpt lat="32.861690521" lon="35.252414703">
  <ele>285.549316</ele>
  <time>2011-09-02T04:23:41Z</time>
  <speed>1.420000</speed>
</trkpt>
<trkpt lat="32.861713409" lon="35.252388000">
  <ele>285.525879</ele>
  <time>2011-09-02T04:23:43Z</time>
  <speed>1.060000</speed>
</trkpt>
<trkpt lat="32.861728668" lon="35.252357483">
  <ele>286.174316</ele>
  <time>2011-09-02T04:23:46Z</time>
  <speed>0.570000</speed>
</trkpt>
<trkpt lat="32.861747742" lon="35.252334595">
  <ele>287.400879</ele>
  <time>2011-09-02T04:23:48Z</time>
  <speed>0.620000</speed>
</trkpt>
<trkpt lat="32.861740112" lon="35.252311707">
  <ele>289.166504</ele>
  <time>2011-09-02T04:23:53Z</time>
  <speed>0.320000</speed>
</trkpt>
<trkpt lat="32.861717224" lon="35.252281189">
  <ele>289.377441</ele>
  <time>2011-09-02T04:23:56Z</time>
  <speed>1.140000</speed>
</trkpt>
<trkpt lat="32.861675262" lon="35.252269745">
  <ele>289.213379</ele>
  <time>2011-09-02T04:23:59Z</time>
  <speed>1.470000</speed>
</trkpt>
<trkpt lat="32.861637115" lon="35.252273560">
  <ele>288.979004</ele>
  <time>2011-09-02T04:24:02Z</time>
  <speed>1.380000</speed>
</trkpt>
<trkpt lat="32.861598969" lon="35.252269745">
  <ele>288.830566</ele>
  <time>2011-09-02T04:24:04Z</time>
  <speed>1.750000</speed>
</trkpt>
<trkpt lat="32.861553192" lon="35.252254486">
  <ele>288.689941</ele>
  <time>2011-09-02T04:24:06Z</time>
  <speed>2.780000</speed>
</trkpt>
<trkpt lat="32.861511230" lon="35.252246857">
  <ele>288.494629</ele>
  <time>2011-09-02T04:24:08Z</time>
  <speed>2.340000</speed>
</trkpt>
<trkpt lat="32.861465454" lon="35.252246857">
  <ele>288.252441</ele>
  <time>2011-09-02T04:24:10Z</time>
  <speed>2.320000</speed>
</trkpt>
<trkpt lat="32.861415863" lon="35.252235413">
  <ele>287.971191</ele>
  <time>2011-09-02T04:24:12Z</time>
  <speed>2.950000</speed>
</trkpt>
<trkpt lat="32.861385345" lon="35.252231598">
  <ele>287.838379</ele>
  <time>2011-09-02T04:24:13Z</time>
  <speed>3.150000</speed>
</trkpt>
<trkpt lat="32.861320496" lon="35.252216339">
  <ele>288.713379</ele>
  <time>2011-09-02T04:24:14Z</time>
  <speed>3.420000</speed>
</trkpt>
<trkpt lat="32.861228943" lon="35.252220154">
  <ele>288.494629</ele>
  <time>2011-09-02T04:24:15Z</time>
  <speed>4.050000</speed>
</trkpt>
<trkpt lat="32.861141205" lon="35.252216339">
  <ele>288.361816</ele>
  <time>2011-09-02T04:24:16Z</time>
  <speed>3.880000</speed>
</trkpt>
<trkpt lat="32.861026764" lon="35.252113342">
  <ele>289.783691</ele>
  <time>2011-09-02T04:24:17Z</time>
  <speed>2.480000</speed>
</trkpt>
<trkpt lat="32.861083984" lon="35.252136230">
  <ele>289.643066</ele>
  <time>2011-09-02T04:24:18Z</time>
  <speed>2.240000</speed>
</trkpt>
<trkpt lat="32.861057281" lon="35.252155304">
  <ele>289.174316</ele>
  <time>2011-09-02T04:24:20Z</time>
  <speed>3.300000</speed>
</trkpt>
<trkpt lat="32.860969543" lon="35.252193451">
  <ele>289.025879</ele>
  <time>2011-09-02T04:24:21Z</time>
  <speed>3.670000</speed>
</trkpt>
<trkpt lat="32.860816956" lon="35.252101898">
  <ele>287.307129</ele>
  <time>2011-09-02T04:24:22Z</time>
  <speed>3.800000</speed>
</trkpt>
<trkpt lat="32.860782623" lon="35.252105713">
  <ele>287.049316</ele>
  <time>2011-09-02T04:24:23Z</time>
  <speed>3.170000</speed>
</trkpt>
<trkpt lat="32.860691071" lon="35.252159119">
  <ele>286.541504</ele>
  <time>2011-09-02T04:24:25Z</time>
  <speed>3.200000</speed>
</trkpt>
<trkpt lat="32.860664368" lon="35.252151489">
  <ele>286.135254</ele>
  <time>2011-09-02T04:24:26Z</time>
  <speed>2.910000</speed>
</trkpt>
<trkpt lat="32.860599518" lon="35.252105713">
  <ele>286.330566</ele>
  <time>2011-09-02T04:24:28Z</time>
  <speed>4.270000</speed>
</trkpt>
<trkpt lat="32.860569000" lon="35.252086639">
  <ele>286.252441</ele>
  <time>2011-09-02T04:24:29Z</time>
  <speed>3.570000</speed>
</trkpt>
<trkpt lat="32.860542297" lon="35.252056122">
  <ele>287.189941</ele>
  <time>2011-09-02T04:24:30Z</time>
  <speed>3.160000</speed>
</trkpt>
<trkpt lat="32.860507965" lon="35.252048492">
  <ele>287.775879</ele>
  <time>2011-09-02T04:24:31Z</time>
  <speed>3.210000</speed>
</trkpt>
<trkpt lat="32.860469818" lon="35.252048492">
  <ele>287.424316</ele>
  <time>2011-09-02T04:24:32Z</time>
  <speed>3.400000</speed>
</trkpt>
<trkpt lat="32.860416412" lon="35.252048492">
  <ele>286.854004</ele>
  <time>2011-09-02T04:24:33Z</time>
  <speed>3.800000</speed>
</trkpt>
<trkpt lat="32.860374451" lon="35.252033234">
  <ele>287.221191</ele>
  <time>2011-09-02T04:24:34Z</time>
  <speed>3.990000</speed>
</trkpt>
<trkpt lat="32.860340118" lon="35.252021790">
  <ele>287.955566</ele>
  <time>2011-09-02T04:24:35Z</time>
  <speed>3.360000</speed>
</trkpt>
<trkpt lat="32.860301971" lon="35.252010345">
  <ele>287.650879</ele>
  <time>2011-09-02T04:24:36Z</time>
  <speed>3.960000</speed>
</trkpt>
<trkpt lat="32.860263824" lon="35.251998901">
  <ele>286.658691</ele>
  <time>2011-09-02T04:24:37Z</time>
  <speed>3.200000</speed>
</trkpt>
<trkpt lat="32.860237122" lon="35.251987457">
  <ele>286.541504</ele>
  <time>2011-09-02T04:24:38Z</time>
  <speed>2.390000</speed>
</trkpt>
<trkpt lat="32.860202789" lon="35.251960754">
  <ele>285.861816</ele>
  <time>2011-09-02T04:24:40Z</time>
  <speed>2.510000</speed>
</trkpt>
<trkpt lat="32.860153198" lon="35.251930237">
  <ele>285.439941</ele>
  <time>2011-09-02T04:24:41Z</time>
  <speed>3.440000</speed>
</trkpt>
<trkpt lat="32.860111237" lon="35.251918793">
  <ele>285.416504</ele>
  <time>2011-09-02T04:24:42Z</time>
  <speed>3.660000</speed>
</trkpt>
<trkpt lat="32.860076904" lon="35.251907349">
  <ele>285.346191</ele>
  <time>2011-09-02T04:24:43Z</time>
  <speed>3.890000</speed>
</trkpt>
<trkpt lat="32.860042572" lon="35.251873016">
  <ele>286.846191</ele>
  <time>2011-09-02T04:24:44Z</time>
  <speed>4.060000</speed>
</trkpt>
<trkpt lat="32.860008240" lon="35.251857758">
  <ele>286.596191</ele>
  <time>2011-09-02T04:24:45Z</time>
  <speed>4.060000</speed>
</trkpt>
<trkpt lat="32.859985352" lon="35.251819611">
  <ele>287.643066</ele>
  <time>2011-09-02T04:24:46Z</time>
  <speed>3.980000</speed>
</trkpt>
<trkpt lat="32.859970093" lon="35.251785278">
  <ele>287.588379</ele>
  <time>2011-09-02T04:24:47Z</time>
  <speed>3.960000</speed>
</trkpt>
<trkpt lat="32.859954834" lon="35.251747131">
  <ele>287.705566</ele>
  <time>2011-09-02T04:24:48Z</time>
  <speed>3.580000</speed>
</trkpt>
<trkpt lat="32.859935760" lon="35.251720428">
  <ele>288.041504</ele>
  <time>2011-09-02T04:24:49Z</time>
  <speed>3.120000</speed>
</trkpt>
<trkpt lat="32.859920502" lon="35.251693726">
  <ele>288.166504</ele>
  <time>2011-09-02T04:24:50Z</time>
  <speed>3.150000</speed>
</trkpt>
<trkpt lat="32.859901428" lon="35.251663208">
  <ele>288.486816</ele>
  <time>2011-09-02T04:24:51Z</time>
  <speed>3.080000</speed>
</trkpt>
<trkpt lat="32.859889984" lon="35.251621246">
  <ele>288.760254</ele>
  <time>2011-09-02T04:24:53Z</time>
  <speed>1.890000</speed>
</trkpt>
<trkpt lat="32.859897614" lon="35.251575470">
  <ele>289.150879</ele>
  <time>2011-09-02T04:24:55Z</time>
  <speed>1.030000</speed>
</trkpt>
<trkpt lat="32.859893799" lon="35.251525879">
  <ele>289.174316</ele>
  <time>2011-09-02T04:24:57Z</time>
  <speed>1.190000</speed>
</trkpt>
<trkpt lat="32.859870911" lon="35.251495361">
  <ele>289.143066</ele>
  <time>2011-09-02T04:25:00Z</time>
  <speed>1.540000</speed>
</trkpt>
<trkpt lat="32.859836578" lon="35.251480103">
  <ele>289.705566</ele>
  <time>2011-09-02T04:25:03Z</time>
  <speed>1.320000</speed>
</trkpt>
<trkpt lat="32.859813690" lon="35.251445770">
  <ele>288.658691</ele>
  <time>2011-09-02T04:25:06Z</time>
  <speed>1.140000</speed>
</trkpt>
<trkpt lat="32.859821320" lon="35.251403809">
  <ele>288.182129</ele>
  <time>2011-09-02T04:25:08Z</time>
  <speed>1.380000</speed>
</trkpt>
<trkpt lat="32.859825134" lon="35.251369476">
  <ele>288.752441</ele>
  <time>2011-09-02T04:25:11Z</time>
  <speed>1.160000</speed>
</trkpt>
<trkpt lat="32.859848022" lon="35.251323700">
  <ele>288.064941</ele>
  <time>2011-09-02T04:25:13Z</time>
  <speed>1.610000</speed>
</trkpt>
<trkpt lat="32.859870911" lon="35.251296997">
  <ele>287.346191</ele>
  <time>2011-09-02T04:25:15Z</time>
  <speed>1.580000</speed>
</trkpt>
<trkpt lat="32.859905243" lon="35.251281738">
  <ele>286.229004</ele>
  <time>2011-09-02T04:25:18Z</time>
  <speed>1.570000</speed>
</trkpt>
<trkpt lat="32.859935760" lon="35.251270294">
  <ele>285.916504</ele>
  <time>2011-09-02T04:25:20Z</time>
  <speed>1.680000</speed>
</trkpt>
<trkpt lat="32.859973907" lon="35.251251221">
  <ele>285.893066</ele>
  <time>2011-09-02T04:25:22Z</time>
  <speed>1.670000</speed>
</trkpt>
<trkpt lat="32.859992981" lon="35.251224518">
  <ele>285.760254</ele>
  <time>2011-09-02T04:25:24Z</time>
  <speed>0.870000</speed>
</trkpt>
<trkpt lat="32.860015869" lon="35.251205444">
  <ele>287.393066</ele>
  <time>2011-09-02T04:25:26Z</time>
  <speed>1.640000</speed>
</trkpt>
<trkpt lat="32.860034943" lon="35.251186371">
  <ele>289.104004</ele>
  <time>2011-09-02T04:25:27Z</time>
  <speed>1.790000</speed>
</trkpt>
<trkpt lat="32.860095978" lon="35.251167297">
  <ele>289.416504</ele>
  <time>2011-09-02T04:25:29Z</time>
  <speed>1.650000</speed>
</trkpt>
<trkpt lat="32.860126495" lon="35.251159668">
  <ele>290.697754</ele>
  <time>2011-09-02T04:25:31Z</time>
  <speed>1.470000</speed>
</trkpt>
<trkpt lat="32.860153198" lon="35.251140594">
  <ele>291.721191</ele>
  <time>2011-09-02T04:25:33Z</time>
  <speed>1.420000</speed>
</trkpt>
<trkpt lat="32.860195160" lon="35.251125336">
  <ele>292.314941</ele>
  <time>2011-09-02T04:25:35Z</time>
  <speed>1.540000</speed>
</trkpt>
<trkpt lat="32.860221863" lon="35.251106262">
  <ele>293.533691</ele>
  <time>2011-09-02T04:25:37Z</time>
  <speed>1.700000</speed>
</trkpt>
<trkpt lat="32.860252380" lon="35.251110077">
  <ele>294.643066</ele>
  <time>2011-09-02T04:25:40Z</time>
  <speed>0.960000</speed>
</trkpt>
<trkpt lat="32.860279083" lon="35.251106262">
  <ele>297.596191</ele>
  <time>2011-09-02T04:25:42Z</time>
  <speed>1.460000</speed>
</trkpt>
<trkpt lat="32.860343933" lon="35.251102448">
  <ele>298.518066</ele>
  <time>2011-09-02T04:25:44Z</time>
  <speed>1.460000</speed>
</trkpt>
<trkpt lat="32.860378265" lon="35.251087189">
  <ele>299.533691</ele>
  <time>2011-09-02T04:25:46Z</time>
  <speed>1.000000</speed>
</trkpt>
<trkpt lat="32.860397339" lon="35.251064301">
  <ele>300.994629</ele>
  <time>2011-09-02T04:25:49Z</time>
  <speed>0.950000</speed>
</trkpt>
<trkpt lat="32.860416412" lon="35.251037598">
  <ele>300.900879</ele>
  <time>2011-09-02T04:25:51Z</time>
  <speed>0.670000</speed>
</trkpt>
<trkpt lat="32.860420227" lon="35.250991821">
  <ele>302.025879</ele>
  <time>2011-09-02T04:25:55Z</time>
  <speed>1.230000</speed>
</trkpt>
<trkpt lat="32.860431671" lon="35.250949860">
  <ele>303.205566</ele>
  <time>2011-09-02T04:25:59Z</time>
  <speed>1.190000</speed>
</trkpt>
<trkpt lat="32.860443115" lon="35.250911713">
  <ele>302.783691</ele>
  <time>2011-09-02T04:26:00Z</time>
  <speed>2.040000</speed>
</trkpt>
<trkpt lat="32.860454559" lon="35.250873566">
  <ele>302.510254</ele>
  <time>2011-09-02T04:26:01Z</time>
  <speed>3.360000</speed>
</trkpt>
<trkpt lat="32.860458374" lon="35.250827789">
  <ele>302.799316</ele>
  <time>2011-09-02T04:26:02Z</time>
  <speed>3.220000</speed>
</trkpt>
<trkpt lat="32.860466003" lon="35.250778198">
  <ele>302.814941</ele>
  <time>2011-09-02T04:26:03Z</time>
  <speed>3.490000</speed>
</trkpt>
<trkpt lat="32.860469818" lon="35.250740051">
  <ele>302.955566</ele>
  <time>2011-09-02T04:26:04Z</time>
  <speed>2.710000</speed>
</trkpt>
<trkpt lat="32.860477448" lon="35.250682831">
  <ele>302.916504</ele>
  <time>2011-09-02T04:26:06Z</time>
  <speed>2.290000</speed>
</trkpt>
<trkpt lat="32.860469818" lon="35.250617981">
  <ele>302.947754</ele>
  <time>2011-09-02T04:26:08Z</time>
  <speed>3.260000</speed>
</trkpt>
<trkpt lat="32.860458374" lon="35.250572205">
  <ele>303.127441</ele>
  <time>2011-09-02T04:26:09Z</time>
  <speed>2.550000</speed>
</trkpt>
<trkpt lat="32.860424042" lon="35.250534058">
  <ele>302.525879</ele>
  <time>2011-09-02T04:26:11Z</time>
  <speed>2.540000</speed>
</trkpt>
<trkpt lat="32.860378265" lon="35.250492096">
  <ele>302.033691</ele>
  <time>2011-09-02T04:26:13Z</time>
  <speed>3.270000</speed>
</trkpt>
<trkpt lat="32.860332489" lon="35.250431061">
  <ele>300.908691</ele>
  <time>2011-09-02T04:26:14Z</time>
  <speed>4.010000</speed>
</trkpt>
<trkpt lat="32.860290527" lon="35.250385284">
  <ele>300.674316</ele>
  <time>2011-09-02T04:26:15Z</time>
  <speed>5.000000</speed>
</trkpt>
<trkpt lat="32.860256195" lon="35.250343323">
  <ele>300.447754</ele>
  <time>2011-09-02T04:26:16Z</time>
  <speed>3.640000</speed>
</trkpt>
<trkpt lat="32.860218048" lon="35.250312805">
  <ele>299.955566</ele>
  <time>2011-09-02T04:26:17Z</time>
  <speed>4.020000</speed>
</trkpt>
<trkpt lat="32.860164642" lon="35.250263214">
  <ele>299.432129</ele>
  <time>2011-09-02T04:26:18Z</time>
  <speed>5.900000</speed>
</trkpt>
<trkpt lat="32.860111237" lon="35.250232697">
  <ele>299.088379</ele>
  <time>2011-09-02T04:26:19Z</time>
  <speed>6.240000</speed>
</trkpt>
<trkpt lat="32.860054016" lon="35.250202179">
  <ele>298.549316</ele>
  <time>2011-09-02T04:26:20Z</time>
  <speed>6.470000</speed>
</trkpt>
<trkpt lat="32.860000610" lon="35.250164032">
  <ele>298.666504</ele>
  <time>2011-09-02T04:26:21Z</time>
  <speed>6.470000</speed>
</trkpt>
<trkpt lat="32.859943390" lon="35.250114441">
  <ele>298.564941</ele>
  <time>2011-09-02T04:26:22Z</time>
  <speed>5.970000</speed>
</trkpt>
<trkpt lat="32.859889984" lon="35.250072479">
  <ele>298.354004</ele>
  <time>2011-09-02T04:26:23Z</time>
  <speed>6.010000</speed>
</trkpt>
<trkpt lat="32.859832764" lon="35.250019073">
  <ele>298.041504</ele>
  <time>2011-09-02T04:26:24Z</time>
  <speed>6.040000</speed>
</trkpt>
<trkpt lat="32.859783173" lon="35.249969482">
  <ele>298.072754</ele>
  <time>2011-09-02T04:26:25Z</time>
  <speed>5.410000</speed>
</trkpt>
<trkpt lat="32.859725952" lon="35.249958038">
  <ele>297.666504</ele>
  <time>2011-09-02T04:26:26Z</time>
  <speed>4.420000</speed>
</trkpt>
<trkpt lat="32.859680176" lon="35.249927521">
  <ele>297.385254</ele>
  <time>2011-09-02T04:26:27Z</time>
  <speed>4.710000</speed>
</trkpt>
<trkpt lat="32.859642029" lon="35.249893188">
  <ele>296.846191</ele>
  <time>2011-09-02T04:26:28Z</time>
  <speed>4.650000</speed>
</trkpt>
<trkpt lat="32.859603882" lon="35.249858856">
  <ele>297.096191</ele>
  <time>2011-09-02T04:26:29Z</time>
  <speed>3.830000</speed>
</trkpt>
<trkpt lat="32.859569550" lon="35.249809265">
  <ele>297.424316</ele>
  <time>2011-09-02T04:26:30Z</time>
  <speed>3.670000</speed>
</trkpt>
<trkpt lat="32.859535217" lon="35.249767303">
  <ele>297.588379</ele>
  <time>2011-09-02T04:26:31Z</time>
  <speed>2.200000</speed>
</trkpt>
<trkpt lat="32.859512329" lon="35.249710083">
  <ele>298.557129</ele>
  <time>2011-09-02T04:26:32Z</time>
  <speed>1.840000</speed>
</trkpt>
<trkpt lat="32.859497070" lon="35.249668121">
  <ele>297.416504</ele>
  <time>2011-09-02T04:26:33Z</time>
  <speed>1.650000</speed>
</trkpt>
<trkpt lat="32.859493256" lon="35.249633789">
  <ele>297.283691</ele>
  <time>2011-09-02T04:26:35Z</time>
  <speed>1.010000</speed>
</trkpt>
<trkpt lat="32.859512329" lon="35.249584198">
  <ele>297.893066</ele>
  <time>2011-09-02T04:26:37Z</time>
  <speed>0.570000</speed>
</trkpt>
<trkpt lat="32.859546661" lon="35.249580383">
  <ele>297.471191</ele>
  <time>2011-09-02T04:26:40Z</time>
  <speed>0.640000</speed>
</trkpt>
<trkpt lat="32.859569550" lon="35.249553680">
  <ele>296.221191</ele>
  <time>2011-09-02T04:26:45Z</time>
  <speed>1.150000</speed>
</trkpt>
<trkpt lat="32.859596252" lon="35.249530792">
  <ele>295.979004</ele>
  <time>2011-09-02T04:26:46Z</time>
  <speed>1.240000</speed>
</trkpt>
<trkpt lat="32.859611511" lon="35.249488831">
  <ele>295.729004</ele>
  <time>2011-09-02T04:26:48Z</time>
  <speed>0.700000</speed>
</trkpt>
<trkpt lat="32.859634399" lon="35.249458313">
  <ele>296.197754</ele>
  <time>2011-09-02T04:26:51Z</time>
  <speed>1.040000</speed>
</trkpt>
<trkpt lat="32.859649658" lon="35.249420166">
  <ele>294.947754</ele>
  <time>2011-09-02T04:26:55Z</time>
  <speed>0.970000</speed>
</trkpt>
<trkpt lat="32.859664917" lon="35.249393463">
  <ele>294.955566</ele>
  <time>2011-09-02T04:26:59Z</time>
  <speed>0.900000</speed>
</trkpt>
<trkpt lat="32.859668732" lon="35.249359131">
  <ele>294.971191</ele>
  <time>2011-09-02T04:27:01Z</time>
  <speed>2.530000</speed>
</trkpt>
<trkpt lat="32.859680176" lon="35.249317169">
  <ele>294.869629</ele>
  <time>2011-09-02T04:27:02Z</time>
  <speed>2.860000</speed>
</trkpt>
<trkpt lat="32.859672546" lon="35.249256134">
  <ele>294.557129</ele>
  <time>2011-09-02T04:27:04Z</time>
  <speed>2.670000</speed>
</trkpt>
<trkpt lat="32.859676361" lon="35.249206543">
  <ele>295.096191</ele>
  <time>2011-09-02T04:27:06Z</time>
  <speed>1.990000</speed>
</trkpt>
<trkpt lat="32.859664917" lon="35.249149323">
  <ele>295.916504</ele>
  <time>2011-09-02T04:27:08Z</time>
  <speed>2.990000</speed>
</trkpt>
<trkpt lat="32.859661102" lon="35.249088287">
  <ele>296.002441</ele>
  <time>2011-09-02T04:27:10Z</time>
  <speed>2.550000</speed>
</trkpt>
<trkpt lat="32.859661102" lon="35.249057770">
  <ele>295.947754</ele>
  <time>2011-09-02T04:27:11Z</time>
  <speed>2.770000</speed>
</trkpt>
<trkpt lat="32.859668732" lon="35.249019623">
  <ele>295.682129</ele>
  <time>2011-09-02T04:27:12Z</time>
  <speed>3.530000</speed>
</trkpt>
<trkpt lat="32.859672546" lon="35.248962402">
  <ele>295.838379</ele>
  <time>2011-09-02T04:27:13Z</time>
  <speed>4.690000</speed>
</trkpt>
<trkpt lat="32.859661102" lon="35.248893738">
  <ele>296.244629</ele>
  <time>2011-09-02T04:27:14Z</time>
  <speed>4.920000</speed>
</trkpt>
<trkpt lat="32.859668732" lon="35.248832703">
  <ele>296.416504</ele>
  <time>2011-09-02T04:27:15Z</time>
  <speed>4.420000</speed>
</trkpt>
<trkpt lat="32.859687805" lon="35.248783112">
  <ele>296.135254</ele>
  <time>2011-09-02T04:27:16Z</time>
  <speed>4.280000</speed>
</trkpt>
<trkpt lat="32.859706879" lon="35.248737335">
  <ele>296.221191</ele>
  <time>2011-09-02T04:27:17Z</time>
  <speed>4.040000</speed>
</trkpt>
<trkpt lat="32.859718323" lon="35.248703003">
  <ele>296.072754</ele>
  <time>2011-09-02T04:27:18Z</time>
  <speed>3.400000</speed>
</trkpt>
<trkpt lat="32.859729767" lon="35.248664856">
  <ele>295.994629</ele>
  <time>2011-09-02T04:27:19Z</time>
  <speed>2.890000</speed>
</trkpt>
<trkpt lat="32.859741211" lon="35.248622894">
  <ele>294.846191</ele>
  <time>2011-09-02T04:27:21Z</time>
  <speed>1.790000</speed>
</trkpt>
<trkpt lat="32.859771729" lon="35.248645782">
  <ele>295.174316</ele>
  <time>2011-09-02T04:27:22Z</time>
  <speed>3.370000</speed>
</trkpt>
<trkpt lat="32.859809875" lon="35.248653412">
  <ele>295.143066</ele>
  <time>2011-09-02T04:27:23Z</time>
  <speed>3.260000</speed>
</trkpt>
<trkpt lat="32.859840393" lon="35.248661041">
  <ele>294.369629</ele>
  <time>2011-09-02T04:27:24Z</time>
  <speed>3.410000</speed>
</trkpt>
<trkpt lat="32.859886169" lon="35.248653412">
  <ele>293.549316</ele>
  <time>2011-09-02T04:27:25Z</time>
  <speed>4.140000</speed>
</trkpt>
<trkpt lat="32.859931946" lon="35.248645782">
  <ele>293.143066</ele>
  <time>2011-09-02T04:27:26Z</time>
  <speed>4.840000</speed>
</trkpt>
<trkpt lat="32.859977722" lon="35.248645782">
  <ele>292.869629</ele>
  <time>2011-09-02T04:27:27Z</time>
  <speed>4.730000</speed>
</trkpt>
<trkpt lat="32.860008240" lon="35.248661041">
  <ele>291.510254</ele>
  <time>2011-09-02T04:27:28Z</time>
  <speed>4.120000</speed>
</trkpt>
<trkpt lat="32.860046387" lon="35.248695374">
  <ele>291.955566</ele>
  <time>2011-09-02T04:27:30Z</time>
  <speed>2.710000</speed>
</trkpt>
<trkpt lat="32.860080719" lon="35.248695374">
  <ele>292.650879</ele>
  <time>2011-09-02T04:27:31Z</time>
  <speed>3.290000</speed>
</trkpt>
<trkpt lat="32.860118866" lon="35.248710632">
  <ele>292.713379</ele>
  <time>2011-09-02T04:27:32Z</time>
  <speed>3.440000</speed>
</trkpt>
<trkpt lat="32.860164642" lon="35.248725891">
  <ele>292.119629</ele>
  <time>2011-09-02T04:27:33Z</time>
  <speed>3.950000</speed>
</trkpt>
<trkpt lat="32.860202789" lon="35.248737335">
  <ele>292.119629</ele>
  <time>2011-09-02T04:27:34Z</time>
  <speed>3.660000</speed>
</trkpt>
<trkpt lat="32.860240936" lon="35.248760223">
  <ele>291.361816</ele>
  <time>2011-09-02T04:27:35Z</time>
  <speed>4.260000</speed>
</trkpt>
<trkpt lat="32.860279083" lon="35.248783112">
  <ele>291.275879</ele>
  <time>2011-09-02T04:27:36Z</time>
  <speed>4.240000</speed>
</trkpt>
<trkpt lat="32.860332489" lon="35.248817444">
  <ele>290.705566</ele>
  <time>2011-09-02T04:27:37Z</time>
  <speed>5.010000</speed>
</trkpt>
<trkpt lat="32.860374451" lon="35.248844147">
  <ele>290.658691</ele>
  <time>2011-09-02T04:27:38Z</time>
  <speed>5.450000</speed>
</trkpt>
<trkpt lat="32.860404968" lon="35.248878479">
  <ele>290.525879</ele>
  <time>2011-09-02T04:27:39Z</time>
  <speed>4.120000</speed>
</trkpt>
<trkpt lat="32.860435486" lon="35.248905182">
  <ele>290.916504</ele>
  <time>2011-09-02T04:27:40Z</time>
  <speed>3.990000</speed>
</trkpt>
<trkpt lat="32.860466003" lon="35.248935699">
  <ele>291.322754</ele>
  <time>2011-09-02T04:27:41Z</time>
  <speed>3.640000</speed>
</trkpt>
<trkpt lat="32.860504150" lon="35.248970032">
  <ele>291.236816</ele>
  <time>2011-09-02T04:27:42Z</time>
  <speed>3.950000</speed>
</trkpt>
<trkpt lat="32.860527039" lon="35.249004364">
  <ele>291.361816</ele>
  <time>2011-09-02T04:27:43Z</time>
  <speed>3.980000</speed>
</trkpt>
<trkpt lat="32.860549927" lon="35.249046326">
  <ele>291.619629</ele>
  <time>2011-09-02T04:27:44Z</time>
  <speed>3.760000</speed>
</trkpt>
<trkpt lat="32.860641479" lon="35.249084473">
  <ele>290.939941</ele>
  <time>2011-09-02T04:27:45Z</time>
  <speed>4.570000</speed>
</trkpt>
<trkpt lat="32.860660553" lon="35.249118805">
  <ele>290.799316</ele>
  <time>2011-09-02T04:27:46Z</time>
  <speed>4.220000</speed>
</trkpt>
<trkpt lat="32.860679626" lon="35.249160767">
  <ele>290.400879</ele>
  <time>2011-09-02T04:27:47Z</time>
  <speed>3.950000</speed>
</trkpt>
<trkpt lat="32.860694885" lon="35.249202728">
  <ele>290.479004</ele>
  <time>2011-09-02T04:27:48Z</time>
  <speed>3.820000</speed>
</trkpt>
<trkpt lat="32.860710144" lon="35.249237061">
  <ele>290.791504</ele>
  <time>2011-09-02T04:27:49Z</time>
  <speed>3.130000</speed>
</trkpt>
<trkpt lat="32.860729218" lon="35.249267578">
  <ele>290.939941</ele>
  <time>2011-09-02T04:27:50Z</time>
  <speed>2.430000</speed>
</trkpt>
<trkpt lat="32.860759735" lon="35.249305725">
  <ele>290.721191</ele>
  <time>2011-09-02T04:27:52Z</time>
  <speed>2.550000</speed>
</trkpt>
<trkpt lat="32.860797882" lon="35.249347687">
  <ele>291.197754</ele>
  <time>2011-09-02T04:27:54Z</time>
  <speed>3.470000</speed>
</trkpt>
<trkpt lat="32.860843658" lon="35.249374390">
  <ele>290.963379</ele>
  <time>2011-09-02T04:27:56Z</time>
  <speed>2.940000</speed>
</trkpt>
<trkpt lat="32.860874176" lon="35.249359131">
  <ele>291.697754</ele>
  <time>2011-09-02T04:27:57Z</time>
  <speed>2.510000</speed>
</trkpt>
<trkpt lat="32.860897064" lon="35.249343872">
  <ele>291.697754</ele>
  <time>2011-09-02T04:27:58Z</time>
  <speed>2.900000</speed>
</trkpt>
<trkpt lat="32.860946655" lon="35.249301910">
  <ele>291.268066</ele>
  <time>2011-09-02T04:27:59Z</time>
  <speed>4.810000</speed>
</trkpt>
<trkpt lat="32.860969543" lon="35.249248505">
  <ele>291.088379</ele>
  <time>2011-09-02T04:28:00Z</time>
  <speed>5.150000</speed>
</trkpt>
<trkpt lat="32.860977173" lon="35.249206543">
  <ele>291.127441</ele>
  <time>2011-09-02T04:28:01Z</time>
  <speed>3.930000</speed>
</trkpt>
<trkpt lat="32.860980988" lon="35.249160767">
  <ele>291.010254</ele>
  <time>2011-09-02T04:28:02Z</time>
  <speed>4.120000</speed>
</trkpt>
<trkpt lat="32.860969543" lon="35.249118805">
  <ele>291.111816</ele>
  <time>2011-09-02T04:28:03Z</time>
  <speed>4.080000</speed>
</trkpt>
<trkpt lat="32.860980988" lon="35.249069214">
  <ele>291.604004</ele>
  <time>2011-09-02T04:28:04Z</time>
  <speed>4.000000</speed>
</trkpt>
<trkpt lat="32.860977173" lon="35.249027252">
  <ele>291.525879</ele>
  <time>2011-09-02T04:28:05Z</time>
  <speed>4.120000</speed>
</trkpt>
<trkpt lat="32.860980988" lon="35.248985291">
  <ele>291.361816</ele>
  <time>2011-09-02T04:28:06Z</time>
  <speed>3.430000</speed>
</trkpt>
<trkpt lat="32.860977173" lon="35.248950958">
  <ele>291.268066</ele>
  <time>2011-09-02T04:28:07Z</time>
  <speed>3.050000</speed>
</trkpt>
<trkpt lat="32.860969543" lon="35.248905182">
  <ele>291.111816</ele>
  <time>2011-09-02T04:28:08Z</time>
  <speed>3.130000</speed>
</trkpt>
<trkpt lat="32.860954285" lon="35.248836517">
  <ele>289.510254</ele>
  <time>2011-09-02T04:28:09Z</time>
  <speed>2.720000</speed>
</trkpt>
<trkpt lat="32.860942841" lon="35.248794556">
  <ele>289.049316</ele>
  <time>2011-09-02T04:28:10Z</time>
  <speed>2.430000</speed>
</trkpt>
<trkpt lat="32.860973358" lon="35.248779297">
  <ele>288.268066</ele>
  <time>2011-09-02T04:28:12Z</time>
  <speed>2.190000</speed>
</trkpt>
<trkpt lat="32.860996246" lon="35.248794556">
  <ele>287.244629</ele>
  <time>2011-09-02T04:28:13Z</time>
  <speed>2.920000</speed>
</trkpt>
<trkpt lat="32.861038208" lon="35.248794556">
  <ele>286.846191</ele>
  <time>2011-09-02T04:28:14Z</time>
  <speed>3.960000</speed>
</trkpt>
<trkpt lat="32.861095428" lon="35.248798370">
  <ele>285.986816</ele>
  <time>2011-09-02T04:28:15Z</time>
  <speed>4.930000</speed>
</trkpt>
<trkpt lat="32.861137390" lon="35.248821259">
  <ele>286.510254</ele>
  <time>2011-09-02T04:28:16Z</time>
  <speed>4.710000</speed>
</trkpt>
<trkpt lat="32.861164093" lon="35.248844147">
  <ele>286.729004</ele>
  <time>2011-09-02T04:28:17Z</time>
  <speed>4.040000</speed>
</trkpt>
<trkpt lat="32.861190796" lon="35.248882294">
  <ele>286.986816</ele>
  <time>2011-09-02T04:28:18Z</time>
  <speed>3.640000</speed>
</trkpt>
<trkpt lat="32.861209869" lon="35.248912811">
  <ele>287.064941</ele>
  <time>2011-09-02T04:28:19Z</time>
  <speed>3.320000</speed>
</trkpt>
<trkpt lat="32.861236572" lon="35.248947144">
  <ele>286.971191</ele>
  <time>2011-09-02T04:28:20Z</time>
  <speed>4.050000</speed>
</trkpt>
<trkpt lat="32.861267090" lon="35.248992920">
  <ele>286.893066</ele>
  <time>2011-09-02T04:28:21Z</time>
  <speed>5.190000</speed>
</trkpt>
<trkpt lat="32.861293793" lon="35.249042511">
  <ele>286.916504</ele>
  <time>2011-09-02T04:28:22Z</time>
  <speed>5.440000</speed>
</trkpt>
<trkpt lat="32.861320496" lon="35.249092102">
  <ele>286.838379</ele>
  <time>2011-09-02T04:28:23Z</time>
  <speed>5.190000</speed>
</trkpt>
<trkpt lat="32.861354828" lon="35.249149323">
  <ele>286.479004</ele>
  <time>2011-09-02T04:28:24Z</time>
  <speed>5.700000</speed>
</trkpt>
<trkpt lat="32.861392975" lon="35.249198914">
  <ele>286.127441</ele>
  <time>2011-09-02T04:28:25Z</time>
  <speed>5.890000</speed>
</trkpt>
<trkpt lat="32.861434937" lon="35.249248505">
  <ele>285.869629</ele>
  <time>2011-09-02T04:28:26Z</time>
  <speed>5.770000</speed>
</trkpt>
<trkpt lat="32.861473083" lon="35.249301910">
  <ele>285.205566</ele>
  <time>2011-09-02T04:28:27Z</time>
  <speed>5.770000</speed>
</trkpt>
<trkpt lat="32.861518860" lon="35.249332428">
  <ele>284.893066</ele>
  <time>2011-09-02T04:28:28Z</time>
  <speed>4.860000</speed>
</trkpt>
<trkpt lat="32.861557007" lon="35.249343872">
  <ele>284.518066</ele>
  <time>2011-09-02T04:28:29Z</time>
  <speed>3.400000</speed>
</trkpt>
<trkpt lat="32.861618042" lon="35.249340057">
  <ele>284.111816</ele>
  <time>2011-09-02T04:28:30Z</time>
  <speed>3.010000</speed>
</trkpt>
<trkpt lat="32.861663818" lon="35.249317169">
  <ele>284.080566</ele>
  <time>2011-09-02T04:28:31Z</time>
  <speed>2.990000</speed>
</trkpt>
<trkpt lat="32.861701965" lon="35.249275208">
  <ele>283.697754</ele>
  <time>2011-09-02T04:28:32Z</time>
  <speed>3.080000</speed>
</trkpt>
<trkpt lat="32.861743927" lon="35.249244690">
  <ele>284.447754</ele>
  <time>2011-09-02T04:28:33Z</time>
  <speed>2.450000</speed>
</trkpt>
<trkpt lat="32.861743927" lon="35.249202728">
  <ele>283.447754</ele>
  <time>2011-09-02T04:28:34Z</time>
  <speed>3.580000</speed>
</trkpt>
<trkpt lat="32.861736298" lon="35.249164581">
  <ele>282.643066</ele>
  <time>2011-09-02T04:28:35Z</time>
  <speed>3.210000</speed>
</trkpt>
<trkpt lat="32.861732483" lon="35.249126434">
  <ele>282.322754</ele>
  <time>2011-09-02T04:28:36Z</time>
  <speed>3.460000</speed>
</trkpt>
<trkpt lat="32.861743927" lon="35.249088287">
  <ele>281.979004</ele>
  <time>2011-09-02T04:28:37Z</time>
  <speed>3.580000</speed>
</trkpt>
<trkpt lat="32.861732483" lon="35.249027252">
  <ele>281.736816</ele>
  <time>2011-09-02T04:28:38Z</time>
  <speed>4.770000</speed>
</trkpt>
<trkpt lat="32.861728668" lon="35.248958588">
  <ele>281.455566</ele>
  <time>2011-09-02T04:28:39Z</time>
  <speed>4.160000</speed>
</trkpt>
<trkpt lat="32.861717224" lon="35.248920441">
  <ele>280.814941</ele>
  <time>2011-09-02T04:28:40Z</time>
  <speed>3.080000</speed>
</trkpt>
<trkpt lat="32.861679077" lon="35.248867035">
  <ele>280.002441</ele>
  <time>2011-09-02T04:28:42Z</time>
  <speed>2.830000</speed>
</trkpt>
<trkpt lat="32.861640930" lon="35.248828888">
  <ele>280.049316</ele>
  <time>2011-09-02T04:28:43Z</time>
  <speed>2.930000</speed>
</trkpt>
<trkpt lat="32.861621857" lon="35.248798370">
  <ele>280.064941</ele>
  <time>2011-09-02T04:28:44Z</time>
  <speed>2.370000</speed>
</trkpt>
<trkpt lat="32.861598969" lon="35.248729706">
  <ele>278.791504</ele>
  <time>2011-09-02T04:28:46Z</time>
  <speed>3.100000</speed>
</trkpt>
<trkpt lat="32.861576080" lon="35.248691559">
  <ele>278.369629</ele>
  <time>2011-09-02T04:28:47Z</time>
  <speed>2.970000</speed>
</trkpt>
<trkpt lat="32.861568451" lon="35.248657227">
  <ele>277.658691</ele>
  <time>2011-09-02T04:28:48Z</time>
  <speed>2.810000</speed>
</trkpt>
<trkpt lat="32.861541748" lon="35.248611450">
  <ele>277.963379</ele>
  <time>2011-09-02T04:28:49Z</time>
  <speed>2.300000</speed>
</trkpt>
<trkpt lat="32.861545563" lon="35.248561859">
  <ele>277.205566</ele>
  <time>2011-09-02T04:28:50Z</time>
  <speed>2.120000</speed>
</trkpt>
<trkpt lat="32.861534119" lon="35.248497009">
  <ele>275.760254</ele>
  <time>2011-09-02T04:28:51Z</time>
  <speed>2.610000</speed>
</trkpt>
<trkpt lat="32.861553192" lon="35.248462677">
  <ele>275.229004</ele>
  <time>2011-09-02T04:28:52Z</time>
  <speed>2.820000</speed>
</trkpt>
<trkpt lat="32.861579895" lon="35.248439789">
  <ele>274.455566</ele>
  <time>2011-09-02T04:28:53Z</time>
  <speed>3.300000</speed>
</trkpt>
<trkpt lat="32.861602783" lon="35.248382568">
  <ele>273.299316</ele>
  <time>2011-09-02T04:28:54Z</time>
  <speed>4.140000</speed>
</trkpt>
<trkpt lat="32.861621857" lon="35.248313904">
  <ele>271.400879</ele>
  <time>2011-09-02T04:28:55Z</time>
  <speed>3.730000</speed>
</trkpt>
<trkpt lat="32.861652374" lon="35.248291016">
  <ele>270.104004</ele>
  <time>2011-09-02T04:28:56Z</time>
  <speed>3.440000</speed>
</trkpt>
<trkpt lat="32.861698151" lon="35.248271942">
  <ele>268.744629</ele>
  <time>2011-09-02T04:28:57Z</time>
  <speed>6.040000</speed>
</trkpt>
<trkpt lat="32.861747742" lon="35.248233795">
  <ele>267.275879</ele>
  <time>2011-09-02T04:28:58Z</time>
  <speed>7.420000</speed>
</trkpt>
<trkpt lat="32.861801147" lon="35.248176575">
  <ele>266.127441</ele>
  <time>2011-09-02T04:28:59Z</time>
  <speed>6.590000</speed>
</trkpt>
<trkpt lat="32.861839294" lon="35.248130798">
  <ele>265.627441</ele>
  <time>2011-09-02T04:29:00Z</time>
  <speed>4.760000</speed>
</trkpt>
<trkpt lat="32.861869812" lon="35.248100281">
  <ele>264.768066</ele>
  <time>2011-09-02T04:29:01Z</time>
  <speed>2.990000</speed>
</trkpt>
<trkpt lat="32.861873627" lon="35.248065948">
  <ele>261.955566</ele>
  <time>2011-09-02T04:29:03Z</time>
  <speed>0.750000</speed>
</trkpt>
<trkpt lat="32.861888885" lon="35.248043060">
  <ele>260.275879</ele>
  <time>2011-09-02T04:29:38Z</time>
  <speed>0.260000</speed>
</trkpt>
<trkpt lat="32.861888885" lon="35.248001099">
  <ele>260.354004</ele>
  <time>2011-09-02T04:30:15Z</time>
  <speed>2.230000</speed>
</trkpt>
<trkpt lat="32.861911774" lon="35.247928619">
  <ele>260.400879</ele>
  <time>2011-09-02T04:30:17Z</time>
  <speed>4.040000</speed>
</trkpt>
<trkpt lat="32.861915588" lon="35.247875214">
  <ele>260.502441</ele>
  <time>2011-09-02T04:30:18Z</time>
  <speed>5.110000</speed>
</trkpt>
<trkpt lat="32.861919403" lon="35.247817993">
  <ele>260.627441</ele>
  <time>2011-09-02T04:30:19Z</time>
  <speed>5.170000</speed>
</trkpt>
<trkpt lat="32.861923218" lon="35.247772217">
  <ele>259.979004</ele>
  <time>2011-09-02T04:30:20Z</time>
  <speed>4.590000</speed>
</trkpt>
<trkpt lat="32.861938477" lon="35.247718811">
  <ele>259.822754</ele>
  <time>2011-09-02T04:30:21Z</time>
  <speed>4.400000</speed>
</trkpt>
<trkpt lat="32.861961365" lon="35.247669220">
  <ele>259.533691</ele>
  <time>2011-09-02T04:30:22Z</time>
  <speed>4.490000</speed>
</trkpt>
<trkpt lat="32.861980438" lon="35.247627258">
  <ele>259.408691</ele>
  <time>2011-09-02T04:30:23Z</time>
  <speed>4.490000</speed>
</trkpt>
<trkpt lat="32.861991882" lon="35.247570038">
  <ele>258.830566</ele>
  <time>2011-09-02T04:30:24Z</time>
  <speed>4.580000</speed>
</trkpt>
<trkpt lat="32.862010956" lon="35.247524261">
  <ele>258.979004</ele>
  <time>2011-09-02T04:30:25Z</time>
  <speed>4.570000</speed>
</trkpt>
<trkpt lat="32.862030029" lon="35.247470856">
  <ele>258.971191</ele>
  <time>2011-09-02T04:30:26Z</time>
  <speed>4.600000</speed>
</trkpt>
<trkpt lat="32.862041473" lon="35.247425079">
  <ele>258.775879</ele>
  <time>2011-09-02T04:30:27Z</time>
  <speed>4.530000</speed>
</trkpt>
<trkpt lat="32.862056732" lon="35.247383118">
  <ele>258.924316</ele>
  <time>2011-09-02T04:30:28Z</time>
  <speed>4.330000</speed>
</trkpt>
<trkpt lat="32.862079620" lon="35.247344971">
  <ele>258.299316</ele>
  <time>2011-09-02T04:30:29Z</time>
  <speed>3.960000</speed>
</trkpt>
<trkpt lat="32.862094879" lon="35.247306824">
  <ele>258.229004</ele>
  <time>2011-09-02T04:30:30Z</time>
  <speed>3.830000</speed>
</trkpt>
<trkpt lat="32.862117767" lon="35.247268677">
  <ele>257.752441</ele>
  <time>2011-09-02T04:30:31Z</time>
  <speed>3.930000</speed>
</trkpt>
<trkpt lat="32.862144470" lon="35.247241974">
  <ele>257.252441</ele>
  <time>2011-09-02T04:30:32Z</time>
  <speed>3.950000</speed>
</trkpt>
<trkpt lat="32.862171173" lon="35.247203827">
  <ele>256.979004</ele>
  <time>2011-09-02T04:30:33Z</time>
  <speed>4.320000</speed>
</trkpt>
<trkpt lat="32.862194061" lon="35.247173309">
  <ele>256.744629</ele>
  <time>2011-09-02T04:30:34Z</time>
  <speed>4.090000</speed>
</trkpt>
<trkpt lat="32.862216949" lon="35.247138977">
  <ele>256.596191</ele>
  <time>2011-09-02T04:30:35Z</time>
  <speed>4.410000</speed>
</trkpt>
<trkpt lat="32.862247467" lon="35.247108459">
  <ele>256.104004</ele>
  <time>2011-09-02T04:30:36Z</time>
  <speed>4.540000</speed>
</trkpt>
<trkpt lat="32.862274170" lon="35.247081757">
  <ele>255.223877</ele>
  <time>2011-09-02T04:30:37Z</time>
  <speed>4.520000</speed>
</trkpt>
<trkpt lat="32.862304688" lon="35.247055054">
  <ele>254.981689</ele>
  <time>2011-09-02T04:30:38Z</time>
  <speed>4.440000</speed>
</trkpt>
<trkpt lat="32.862339020" lon="35.247024536">
  <ele>254.423096</ele>
  <time>2011-09-02T04:30:39Z</time>
  <speed>4.900000</speed>
</trkpt>
<trkpt lat="32.862373352" lon="35.246997833">
  <ele>253.880127</ele>
  <time>2011-09-02T04:30:40Z</time>
  <speed>4.880000</speed>
</trkpt>
<trkpt lat="32.862403870" lon="35.246971130">
  <ele>253.524658</ele>
  <time>2011-09-02T04:30:41Z</time>
  <speed>4.770000</speed>
</trkpt>
<trkpt lat="32.862434387" lon="35.246944427">
  <ele>252.723877</ele>
  <time>2011-09-02T04:30:42Z</time>
  <speed>3.950000</speed>
</trkpt>
<trkpt lat="32.862461090" lon="35.246917725">
  <ele>251.950439</ele>
  <time>2011-09-02T04:30:43Z</time>
  <speed>3.440000</speed>
</trkpt>
<trkpt lat="32.862483978" lon="35.246898651">
  <ele>251.399658</ele>
  <time>2011-09-02T04:30:44Z</time>
  <speed>2.350000</speed>
</trkpt>
<trkpt lat="32.862518311" lon="35.246875763">
  <ele>250.739502</ele>
  <time>2011-09-02T04:30:46Z</time>
  <speed>1.850000</speed>
</trkpt>
<trkpt lat="32.862533569" lon="35.246849060">
  <ele>249.196533</ele>
  <time>2011-09-02T04:30:49Z</time>
  <speed>0.900000</speed>
</trkpt>
<trkpt lat="32.862522125" lon="35.246818542">
  <ele>248.770752</ele>
  <time>2011-09-02T04:30:51Z</time>
  <speed>2.250000</speed>
</trkpt>
<trkpt lat="32.862499237" lon="35.246799469">
  <ele>248.317627</ele>
  <time>2011-09-02T04:30:52Z</time>
  <speed>3.180000</speed>
</trkpt>
<trkpt lat="32.862472534" lon="35.246788025">
  <ele>248.298096</ele>
  <time>2011-09-02T04:30:53Z</time>
  <speed>2.730000</speed>
</trkpt>
<trkpt lat="32.862449646" lon="35.246772766">
  <ele>247.759033</ele>
  <time>2011-09-02T04:30:54Z</time>
  <speed>2.710000</speed>
</trkpt>
<trkpt lat="32.862422943" lon="35.246749878">
  <ele>247.259033</ele>
  <time>2011-09-02T04:30:55Z</time>
  <speed>3.090000</speed>
</trkpt>
<trkpt lat="32.862392426" lon="35.246726990">
  <ele>246.739502</ele>
  <time>2011-09-02T04:30:56Z</time>
  <speed>3.880000</speed>
</trkpt>
<trkpt lat="32.862361908" lon="35.246696472">
  <ele>246.184814</ele>
  <time>2011-09-02T04:30:57Z</time>
  <speed>4.200000</speed>
</trkpt>
<trkpt lat="32.862327576" lon="35.246658325">
  <ele>245.614502</ele>
  <time>2011-09-02T04:30:58Z</time>
  <speed>4.880000</speed>
</trkpt>
<trkpt lat="32.862281799" lon="35.246608734">
  <ele>244.618408</ele>
  <time>2011-09-02T04:30:59Z</time>
  <speed>5.740000</speed>
</trkpt>
<trkpt lat="32.862236023" lon="35.246566772">
  <ele>243.610596</ele>
  <time>2011-09-02T04:31:00Z</time>
  <speed>5.800000</speed>
</trkpt>
<trkpt lat="32.862201691" lon="35.246532440">
  <ele>242.934814</ele>
  <time>2011-09-02T04:31:01Z</time>
  <speed>4.750000</speed>
</trkpt>
<trkpt lat="32.862171173" lon="35.246505737">
  <ele>242.177002</ele>
  <time>2011-09-02T04:31:02Z</time>
  <speed>3.370000</speed>
</trkpt>
<trkpt lat="32.862133026" lon="35.246501923">
  <ele>240.735596</ele>
  <time>2011-09-02T04:31:04Z</time>
  <speed>1.530000</speed>
</trkpt>
<trkpt lat="32.862091064" lon="35.246459961">
  <ele>239.387939</ele>
  <time>2011-09-02T04:31:06Z</time>
  <speed>3.260000</speed>
</trkpt>
<trkpt lat="32.862064362" lon="35.246437073">
  <ele>238.657471</ele>
  <time>2011-09-02T04:31:07Z</time>
  <speed>3.620000</speed>
</trkpt>
<trkpt lat="32.862026215" lon="35.246387482">
  <ele>237.829346</ele>
  <time>2011-09-02T04:31:08Z</time>
  <speed>5.160000</speed>
</trkpt>
<trkpt lat="32.861968994" lon="35.246391296">
  <ele>236.876221</ele>
  <time>2011-09-02T04:31:09Z</time>
  <speed>4.800000</speed>
</trkpt>
<trkpt lat="32.861930847" lon="35.246349335">
  <ele>236.286377</ele>
  <time>2011-09-02T04:31:10Z</time>
  <speed>4.370000</speed>
</trkpt>
<trkpt lat="32.861907959" lon="35.246284485">
  <ele>235.587158</ele>
  <time>2011-09-02T04:31:11Z</time>
  <speed>5.670000</speed>
</trkpt>
<trkpt lat="32.861892700" lon="35.246208191">
  <ele>235.005127</ele>
  <time>2011-09-02T04:31:12Z</time>
  <speed>5.780000</speed>
</trkpt>
<trkpt lat="32.861885071" lon="35.246128082">
  <ele>235.024658</ele>
  <time>2011-09-02T04:31:13Z</time>
  <speed>6.220000</speed>
</trkpt>
<trkpt lat="32.861892700" lon="35.246051788">
  <ele>233.716064</ele>
  <time>2011-09-02T04:31:14Z</time>
  <speed>5.710000</speed>
</trkpt>
<trkpt lat="32.861885071" lon="35.245979309">
  <ele>232.669189</ele>
  <time>2011-09-02T04:31:15Z</time>
  <speed>5.440000</speed>
</trkpt>
<trkpt lat="32.861873627" lon="35.245922089">
  <ele>231.907471</ele>
  <time>2011-09-02T04:31:16Z</time>
  <speed>5.150000</speed>
</trkpt>
<trkpt lat="32.861839294" lon="35.245853424">
  <ele>231.204346</ele>
  <time>2011-09-02T04:31:17Z</time>
  <speed>6.050000</speed>
</trkpt>
<trkpt lat="32.861816406" lon="35.245796204">
  <ele>230.423096</ele>
  <time>2011-09-02T04:31:18Z</time>
  <speed>4.960000</speed>
</trkpt>
<trkpt lat="32.861785889" lon="35.245750427">
  <ele>229.450439</ele>
  <time>2011-09-02T04:31:19Z</time>
  <speed>4.150000</speed>
</trkpt>
<trkpt lat="32.861755371" lon="35.245723724">
  <ele>228.442627</ele>
  <time>2011-09-02T04:31:20Z</time>
  <speed>3.270000</speed>
</trkpt>
<trkpt lat="32.861713409" lon="35.245685577">
  <ele>227.477783</ele>
  <time>2011-09-02T04:31:21Z</time>
  <speed>3.830000</speed>
</trkpt>
<trkpt lat="32.861679077" lon="35.245658875">
  <ele>226.680908</ele>
  <time>2011-09-02T04:31:22Z</time>
  <speed>4.150000</speed>
</trkpt>
<trkpt lat="32.861618042" lon="35.245643616">
  <ele>225.102783</ele>
  <time>2011-09-02T04:31:23Z</time>
  <speed>5.060000</speed>
</trkpt>
<trkpt lat="32.861557007" lon="35.245613098">
  <ele>223.813721</ele>
  <time>2011-09-02T04:31:24Z</time>
  <speed>4.970000</speed>
</trkpt>
<trkpt lat="32.861511230" lon="35.245590210">
  <ele>222.805908</ele>
  <time>2011-09-02T04:31:25Z</time>
  <speed>4.260000</speed>
</trkpt>
<trkpt lat="32.861480713" lon="35.245563507">
  <ele>222.032471</ele>
  <time>2011-09-02T04:31:26Z</time>
  <speed>3.150000</speed>
</trkpt>
<trkpt lat="32.861396790" lon="35.245597839">
  <ele>222.122314</ele>
  <time>2011-09-02T04:31:27Z</time>
  <speed>2.760000</speed>
</trkpt>
<trkpt lat="32.861385345" lon="35.245567322">
  <ele>220.977783</ele>
  <time>2011-09-02T04:31:28Z</time>
  <speed>2.720000</speed>
</trkpt>
<trkpt lat="32.861385345" lon="35.245525360">
  <ele>220.567627</ele>
  <time>2011-09-02T04:31:29Z</time>
  <speed>3.470000</speed>
</trkpt>
<trkpt lat="32.861392975" lon="35.245479584">
  <ele>219.692627</ele>
  <time>2011-09-02T04:31:30Z</time>
  <speed>4.050000</speed>
</trkpt>
<trkpt lat="32.861392975" lon="35.245429993">
  <ele>218.348877</ele>
  <time>2011-09-02T04:31:31Z</time>
  <speed>3.250000</speed>
</trkpt>
<trkpt lat="32.861381531" lon="35.245376587">
  <ele>217.305908</ele>
  <time>2011-09-02T04:31:32Z</time>
  <speed>3.390000</speed>
</trkpt>
<trkpt lat="32.861366272" lon="35.245330811">
  <ele>217.602783</ele>
  <time>2011-09-02T04:31:33Z</time>
  <speed>3.390000</speed>
</trkpt>
<trkpt lat="32.861347198" lon="35.245288849">
  <ele>216.860596</ele>
  <time>2011-09-02T04:31:34Z</time>
  <speed>3.760000</speed>
</trkpt>
<trkpt lat="32.861335754" lon="35.245250702">
  <ele>216.106689</ele>
  <time>2011-09-02T04:31:35Z</time>
  <speed>3.890000</speed>
</trkpt>
<trkpt lat="32.861335754" lon="35.245182037">
  <ele>215.028564</ele>
  <time>2011-09-02T04:31:36Z</time>
  <speed>5.060000</speed>
</trkpt>
<trkpt lat="32.861335754" lon="35.245105743">
  <ele>214.313721</ele>
  <time>2011-09-02T04:31:37Z</time>
  <speed>6.200000</speed>
</trkpt>
<trkpt lat="32.861343384" lon="35.245033264">
  <ele>213.376221</ele>
  <time>2011-09-02T04:31:38Z</time>
  <speed>5.910000</speed>
</trkpt>
<trkpt lat="32.861351013" lon="35.244945526">
  <ele>211.860596</ele>
  <time>2011-09-02T04:31:39Z</time>
  <speed>5.910000</speed>
</trkpt>
<trkpt lat="32.861392975" lon="35.244880676">
  <ele>211.762939</ele>
  <time>2011-09-02T04:31:40Z</time>
  <speed>6.180000</speed>
</trkpt>
<trkpt lat="32.861415863" lon="35.244815826">
  <ele>211.856689</ele>
  <time>2011-09-02T04:31:41Z</time>
  <speed>5.820000</speed>
</trkpt>
<trkpt lat="32.861450195" lon="35.244747162">
  <ele>211.794189</ele>
  <time>2011-09-02T04:31:42Z</time>
  <speed>6.080000</speed>
</trkpt>
<trkpt lat="32.861469269" lon="35.244689941">
  <ele>211.364502</ele>
  <time>2011-09-02T04:31:43Z</time>
  <speed>5.470000</speed>
</trkpt>
<trkpt lat="32.861484528" lon="35.244636536">
  <ele>211.270752</ele>
  <time>2011-09-02T04:31:44Z</time>
  <speed>4.810000</speed>
</trkpt>
<trkpt lat="32.861492157" lon="35.244583130">
  <ele>211.063721</ele>
  <time>2011-09-02T04:31:45Z</time>
  <speed>4.610000</speed>
</trkpt>
<trkpt lat="32.861499786" lon="35.244537354">
  <ele>210.317627</ele>
  <time>2011-09-02T04:31:46Z</time>
  <speed>3.890000</speed>
</trkpt>
<trkpt lat="32.861503601" lon="35.244499207">
  <ele>209.719971</ele>
  <time>2011-09-02T04:31:47Z</time>
  <speed>3.260000</speed>
</trkpt>
<trkpt lat="32.861492157" lon="35.244453430">
  <ele>208.805908</ele>
  <time>2011-09-02T04:31:49Z</time>
  <speed>2.210000</speed>
</trkpt>
<trkpt lat="32.861480713" lon="35.244396210">
  <ele>209.481689</ele>
  <time>2011-09-02T04:31:51Z</time>
  <speed>2.430000</speed>
</trkpt>
<trkpt lat="32.861503601" lon="35.244346619">
  <ele>208.895752</ele>
  <time>2011-09-02T04:31:53Z</time>
  <speed>3.100000</speed>
</trkpt>
<trkpt lat="32.861518860" lon="35.244297028">
  <ele>208.134033</ele>
  <time>2011-09-02T04:31:55Z</time>
  <speed>2.460000</speed>
</trkpt>
<trkpt lat="32.861480713" lon="35.244251251">
  <ele>206.282471</ele>
  <time>2011-09-02T04:31:57Z</time>
  <speed>4.100000</speed>
</trkpt>
<trkpt lat="32.861446381" lon="35.244243622">
  <ele>205.751221</ele>
  <time>2011-09-02T04:31:58Z</time>
  <speed>3.810000</speed>
</trkpt>
<trkpt lat="32.861412048" lon="35.244228363">
  <ele>205.493408</ele>
  <time>2011-09-02T04:31:59Z</time>
  <speed>4.220000</speed>
</trkpt>
<trkpt lat="32.861370087" lon="35.244209290">
  <ele>205.813721</ele>
  <time>2011-09-02T04:32:00Z</time>
  <speed>5.070000</speed>
</trkpt>
<trkpt lat="32.861320496" lon="35.244197845">
  <ele>205.364502</ele>
  <time>2011-09-02T04:32:01Z</time>
  <speed>5.270000</speed>
</trkpt>
<trkpt lat="32.861274719" lon="35.244186401">
  <ele>204.844971</ele>
  <time>2011-09-02T04:32:02Z</time>
  <speed>5.550000</speed>
</trkpt>
<trkpt lat="32.861225128" lon="35.244171143">
  <ele>204.680908</ele>
  <time>2011-09-02T04:32:03Z</time>
  <speed>5.260000</speed>
</trkpt>
<trkpt lat="32.861175537" lon="35.244178772">
  <ele>203.247314</ele>
  <time>2011-09-02T04:32:04Z</time>
  <speed>5.040000</speed>
</trkpt>
<trkpt lat="32.861137390" lon="35.244167328">
  <ele>202.677002</ele>
  <time>2011-09-02T04:32:05Z</time>
  <speed>4.120000</speed>
</trkpt>
<trkpt lat="32.861106873" lon="35.244148254">
  <ele>202.692627</ele>
  <time>2011-09-02T04:32:06Z</time>
  <speed>3.450000</speed>
</trkpt>
<trkpt lat="32.861106873" lon="35.244113922">
  <ele>201.575439</ele>
  <time>2011-09-02T04:32:07Z</time>
  <speed>2.980000</speed>
</trkpt>
<trkpt lat="32.861114502" lon="35.244079590">
  <ele>200.821533</ele>
  <time>2011-09-02T04:32:08Z</time>
  <speed>3.240000</speed>
</trkpt>
<trkpt lat="32.861137390" lon="35.244045258">
  <ele>200.360596</ele>
  <time>2011-09-02T04:32:09Z</time>
  <speed>3.750000</speed>
</trkpt>
<trkpt lat="32.861148834" lon="35.243999481">
  <ele>199.962158</ele>
  <time>2011-09-02T04:32:10Z</time>
  <speed>4.990000</speed>
</trkpt>
<trkpt lat="32.861171722" lon="35.243946075">
  <ele>199.934814</ele>
  <time>2011-09-02T04:32:11Z</time>
  <speed>5.430000</speed>
</trkpt>
<trkpt lat="32.861194611" lon="35.243888855">
  <ele>198.989502</ele>
  <time>2011-09-02T04:32:12Z</time>
  <speed>6.260000</speed>
</trkpt>
<trkpt lat="32.861232758" lon="35.243827820">
  <ele>198.766846</ele>
  <time>2011-09-02T04:32:13Z</time>
  <speed>6.120000</speed>
</trkpt>
<trkpt lat="32.861263275" lon="35.243770599">
  <ele>198.731689</ele>
  <time>2011-09-02T04:32:14Z</time>
  <speed>5.620000</speed>
</trkpt>
<trkpt lat="32.861282349" lon="35.243701935">
  <ele>198.864502</ele>
  <time>2011-09-02T04:32:15Z</time>
  <speed>6.050000</speed>
</trkpt>
<trkpt lat="32.861286163" lon="35.243629456">
  <ele>199.223877</ele>
  <time>2011-09-02T04:32:16Z</time>
  <speed>5.960000</speed>
</trkpt>
<trkpt lat="32.861286163" lon="35.243564606">
  <ele>199.251221</ele>
  <time>2011-09-02T04:32:17Z</time>
  <speed>5.970000</speed>
</trkpt>
<trkpt lat="32.861282349" lon="35.243499756">
  <ele>199.063721</ele>
  <time>2011-09-02T04:32:18Z</time>
  <speed>5.840000</speed>
</trkpt>
<trkpt lat="32.861274719" lon="35.243442535">
  <ele>198.942627</ele>
  <time>2011-09-02T04:32:19Z</time>
  <speed>4.670000</speed>
</trkpt>
<trkpt lat="32.861248016" lon="35.243396759">
  <ele>198.516846</ele>
  <time>2011-09-02T04:32:20Z</time>
  <speed>4.350000</speed>
</trkpt>
<trkpt lat="32.861221313" lon="35.243358612">
  <ele>198.321533</ele>
  <time>2011-09-02T04:32:21Z</time>
  <speed>4.440000</speed>
</trkpt>
<trkpt lat="32.861186981" lon="35.243312836">
  <ele>198.352783</ele>
  <time>2011-09-02T04:32:22Z</time>
  <speed>4.810000</speed>
</trkpt>
<trkpt lat="32.861164093" lon="35.243282318">
  <ele>197.696533</ele>
  <time>2011-09-02T04:32:23Z</time>
  <speed>4.510000</speed>
</trkpt>
<trkpt lat="32.861145020" lon="35.243251801">
  <ele>198.001221</ele>
  <time>2011-09-02T04:32:24Z</time>
  <speed>4.100000</speed>
</trkpt>
<trkpt lat="32.861122131" lon="35.243209839">
  <ele>198.200439</ele>
  <time>2011-09-02T04:32:25Z</time>
  <speed>4.350000</speed>
</trkpt>
<trkpt lat="32.861114502" lon="35.243183136">
  <ele>197.126221</ele>
  <time>2011-09-02T04:32:26Z</time>
  <speed>3.130000</speed>
</trkpt>
<trkpt lat="32.861110687" lon="35.243129730">
  <ele>196.321533</ele>
  <time>2011-09-02T04:32:28Z</time>
  <speed>1.870000</speed>
</trkpt>
<trkpt lat="32.861106873" lon="35.243095398">
  <ele>195.395752</ele>
  <time>2011-09-02T04:32:31Z</time>
  <speed>0.510000</speed>
</trkpt>
<trkpt lat="32.861099243" lon="35.243057251">
  <ele>193.817627</ele>
  <time>2011-09-02T04:33:28Z</time>
  <speed>1.420000</speed>
</trkpt>
<trkpt lat="32.861091614" lon="35.243011475">
  <ele>194.606689</ele>
  <time>2011-09-02T04:33:30Z</time>
  <speed>2.220000</speed>
</trkpt>
<trkpt lat="32.861083984" lon="35.242958069">
  <ele>195.071533</ele>
  <time>2011-09-02T04:33:32Z</time>
  <speed>2.420000</speed>
</trkpt>
<trkpt lat="32.861072540" lon="35.242904663">
  <ele>195.844971</ele>
  <time>2011-09-02T04:33:34Z</time>
  <speed>2.330000</speed>
</trkpt>
<trkpt lat="32.861064911" lon="35.242847443">
  <ele>195.911377</ele>
  <time>2011-09-02T04:33:36Z</time>
  <speed>2.700000</speed>
</trkpt>
<trkpt lat="32.861038208" lon="35.242797852">
  <ele>195.895752</ele>
  <time>2011-09-02T04:33:38Z</time>
  <speed>2.800000</speed>
</trkpt>
<trkpt lat="32.861022949" lon="35.242771149">
  <ele>196.153564</ele>
  <time>2011-09-02T04:33:39Z</time>
  <speed>2.850000</speed>
</trkpt>
<trkpt lat="32.860996246" lon="35.242717743">
  <ele>196.528564</ele>
  <time>2011-09-02T04:33:41Z</time>
  <speed>2.540000</speed>
</trkpt>
<trkpt lat="32.860965729" lon="35.242668152">
  <ele>196.477783</ele>
  <time>2011-09-02T04:33:43Z</time>
  <speed>2.610000</speed>
</trkpt>
<trkpt lat="32.860942841" lon="35.242614746">
  <ele>196.860596</ele>
  <time>2011-09-02T04:33:45Z</time>
  <speed>2.310000</speed>
</trkpt>
<trkpt lat="32.860900879" lon="35.242572784">
  <ele>197.442627</ele>
  <time>2011-09-02T04:33:47Z</time>
  <speed>2.510000</speed>
</trkpt>
<trkpt lat="32.860870361" lon="35.242538452">
  <ele>197.216064</ele>
  <time>2011-09-02T04:33:49Z</time>
  <speed>2.220000</speed>
</trkpt>
<trkpt lat="32.860847473" lon="35.242500305">
  <ele>197.251221</ele>
  <time>2011-09-02T04:33:51Z</time>
  <speed>2.490000</speed>
</trkpt>
<trkpt lat="32.860813141" lon="35.242462158">
  <ele>197.239502</ele>
  <time>2011-09-02T04:33:53Z</time>
  <speed>2.720000</speed>
</trkpt>
<trkpt lat="32.860790253" lon="35.242443085">
  <ele>197.091064</ele>
  <time>2011-09-02T04:33:54Z</time>
  <speed>2.410000</speed>
</trkpt>
<trkpt lat="32.860752106" lon="35.242408752">
  <ele>198.512939</ele>
  <time>2011-09-02T04:33:56Z</time>
  <speed>2.460000</speed>
</trkpt>
<trkpt lat="32.860733032" lon="35.242355347">
  <ele>199.001221</ele>
  <time>2011-09-02T04:33:58Z</time>
  <speed>2.570000</speed>
</trkpt>
<trkpt lat="32.860721588" lon="35.242324829">
  <ele>199.309814</ele>
  <time>2011-09-02T04:33:59Z</time>
  <speed>2.960000</speed>
</trkpt>
<trkpt lat="32.860706329" lon="35.242294312">
  <ele>200.477783</ele>
  <time>2011-09-02T04:34:00Z</time>
  <speed>2.680000</speed>
</trkpt>
<trkpt lat="32.860687256" lon="35.242237091">
  <ele>201.048096</ele>
  <time>2011-09-02T04:34:02Z</time>
  <speed>2.920000</speed>
</trkpt>
<trkpt lat="32.860675812" lon="35.242179871">
  <ele>201.677002</ele>
  <time>2011-09-02T04:34:04Z</time>
  <speed>2.840000</speed>
</trkpt>
<trkpt lat="32.860664368" lon="35.242126465">
  <ele>202.036377</ele>
  <time>2011-09-02T04:34:06Z</time>
  <speed>2.620000</speed>
</trkpt>
<trkpt lat="32.860649109" lon="35.242073059">
  <ele>202.216064</ele>
  <time>2011-09-02T04:34:08Z</time>
  <speed>2.770000</speed>
</trkpt>
<trkpt lat="32.860637665" lon="35.242015839">
  <ele>202.442627</ele>
  <time>2011-09-02T04:34:10Z</time>
  <speed>2.740000</speed>
</trkpt>
<trkpt lat="32.860630035" lon="35.241950989">
  <ele>202.942627</ele>
  <time>2011-09-02T04:34:12Z</time>
  <speed>2.770000</speed>
</trkpt>
<trkpt lat="32.860614777" lon="35.241889954">
  <ele>203.329346</ele>
  <time>2011-09-02T04:34:14Z</time>
  <speed>2.850000</speed>
</trkpt>
<trkpt lat="32.860614777" lon="35.241828918">
  <ele>203.677002</ele>
  <time>2011-09-02T04:34:16Z</time>
  <speed>2.930000</speed>
</trkpt>
<trkpt lat="32.860618591" lon="35.241794586">
  <ele>203.903564</ele>
  <time>2011-09-02T04:34:17Z</time>
  <speed>2.660000</speed>
</trkpt>
<trkpt lat="32.860610962" lon="35.241764069">
  <ele>203.942627</ele>
  <time>2011-09-02T04:34:18Z</time>
  <speed>2.800000</speed>
</trkpt>
<trkpt lat="32.860607147" lon="35.241703033">
  <ele>203.841064</ele>
  <time>2011-09-02T04:34:20Z</time>
  <speed>2.510000</speed>
</trkpt>
<trkpt lat="32.860610962" lon="35.241653442">
  <ele>204.540283</ele>
  <time>2011-09-02T04:34:22Z</time>
  <speed>2.450000</speed>
</trkpt>
<trkpt lat="32.860626221" lon="35.241607666">
  <ele>204.598877</ele>
  <time>2011-09-02T04:34:24Z</time>
  <speed>2.340000</speed>
</trkpt>
<trkpt lat="32.860641479" lon="35.241558075">
  <ele>204.200439</ele>
  <time>2011-09-02T04:34:26Z</time>
  <speed>2.310000</speed>
</trkpt>
<trkpt lat="32.860660553" lon="35.241508484">
  <ele>203.239502</ele>
  <time>2011-09-02T04:34:28Z</time>
  <speed>2.170000</speed>
</trkpt>
<trkpt lat="32.860679626" lon="35.241466522">
  <ele>201.911377</ele>
  <time>2011-09-02T04:34:30Z</time>
  <speed>2.390000</speed>
</trkpt>
<trkpt lat="32.860702515" lon="35.241420746">
  <ele>202.376221</ele>
  <time>2011-09-02T04:34:32Z</time>
  <speed>2.110000</speed>
</trkpt>
<trkpt lat="32.860721588" lon="35.241371155">
  <ele>203.411377</ele>
  <time>2011-09-02T04:34:34Z</time>
  <speed>2.350000</speed>
</trkpt>
<trkpt lat="32.860744476" lon="35.241325378">
  <ele>203.657471</ele>
  <time>2011-09-02T04:34:36Z</time>
  <speed>2.370000</speed>
</trkpt>
<trkpt lat="32.860763550" lon="35.241279602">
  <ele>204.055908</ele>
  <time>2011-09-02T04:34:38Z</time>
  <speed>2.300000</speed>
</trkpt>
<trkpt lat="32.860797882" lon="35.241252899">
  <ele>204.239502</ele>
  <time>2011-09-02T04:34:40Z</time>
  <speed>2.220000</speed>
</trkpt>
<trkpt lat="32.860820770" lon="35.241214752">
  <ele>205.180908</ele>
  <time>2011-09-02T04:34:42Z</time>
  <speed>2.110000</speed>
</trkpt>
<trkpt lat="32.860847473" lon="35.241180420">
  <ele>205.481689</ele>
  <time>2011-09-02T04:34:44Z</time>
  <speed>2.140000</speed>
</trkpt>
<trkpt lat="32.860877991" lon="35.241149902">
  <ele>206.341064</ele>
  <time>2011-09-02T04:34:46Z</time>
  <speed>2.340000</speed>
</trkpt>
<trkpt lat="32.860919952" lon="35.241111755">
  <ele>207.466064</ele>
  <time>2011-09-02T04:34:48Z</time>
  <speed>2.570000</speed>
</trkpt>
<trkpt lat="32.860958099" lon="35.241073608">
  <ele>208.024658</ele>
  <time>2011-09-02T04:34:50Z</time>
  <speed>2.630000</speed>
</trkpt>
<trkpt lat="32.860992432" lon="35.241035461">
  <ele>208.520752</ele>
  <time>2011-09-02T04:34:52Z</time>
  <speed>2.890000</speed>
</trkpt>
<trkpt lat="32.861026764" lon="35.240989685">
  <ele>208.778564</ele>
  <time>2011-09-02T04:34:54Z</time>
  <speed>2.850000</speed>
</trkpt>
<trkpt lat="32.861061096" lon="35.240943909">
  <ele>208.946533</ele>
  <time>2011-09-02T04:34:56Z</time>
  <speed>2.840000</speed>
</trkpt>
<trkpt lat="32.861083984" lon="35.240921021">
  <ele>209.255127</ele>
  <time>2011-09-02T04:34:57Z</time>
  <speed>2.780000</speed>
</trkpt>
<trkpt lat="32.861106873" lon="35.240898132">
  <ele>209.622314</ele>
  <time>2011-09-02T04:34:58Z</time>
  <speed>3.080000</speed>
</trkpt>
<trkpt lat="32.861145020" lon="35.240859985">
  <ele>210.477783</ele>
  <time>2011-09-02T04:35:00Z</time>
  <speed>2.750000</speed>
</trkpt>
<trkpt lat="32.861186981" lon="35.240833282">
  <ele>211.173096</ele>
  <time>2011-09-02T04:35:02Z</time>
  <speed>2.840000</speed>
</trkpt>
<trkpt lat="32.861236572" lon="35.240818024">
  <ele>211.325439</ele>
  <time>2011-09-02T04:35:04Z</time>
  <speed>2.700000</speed>
</trkpt>
<trkpt lat="32.861282349" lon="35.240795135">
  <ele>212.384033</ele>
  <time>2011-09-02T04:35:06Z</time>
  <speed>2.850000</speed>
</trkpt>
<trkpt lat="32.861335754" lon="35.240768433">
  <ele>213.044189</ele>
  <time>2011-09-02T04:35:08Z</time>
  <speed>3.420000</speed>
</trkpt>
<trkpt lat="32.861366272" lon="35.240749359">
  <ele>213.247314</ele>
  <time>2011-09-02T04:35:09Z</time>
  <speed>3.720000</speed>
</trkpt>
<trkpt lat="32.861392975" lon="35.240726471">
  <ele>213.477783</ele>
  <time>2011-09-02T04:35:10Z</time>
  <speed>3.860000</speed>
</trkpt>
<trkpt lat="32.861423492" lon="35.240707397">
  <ele>212.852783</ele>
  <time>2011-09-02T04:35:11Z</time>
  <speed>3.810000</speed>
</trkpt>
<trkpt lat="32.861454010" lon="35.240707397">
  <ele>211.852783</ele>
  <time>2011-09-02T04:35:12Z</time>
  <speed>3.120000</speed>
</trkpt>
<trkpt lat="32.861480713" lon="35.240692139">
  <ele>211.934814</ele>
  <time>2011-09-02T04:35:13Z</time>
  <speed>3.680000</speed>
</trkpt>
<trkpt lat="32.861511230" lon="35.240673065">
  <ele>212.247314</ele>
  <time>2011-09-02T04:35:14Z</time>
  <speed>3.840000</speed>
</trkpt>
<trkpt lat="32.861549377" lon="35.240657806">
  <ele>211.938721</ele>
  <time>2011-09-02T04:35:15Z</time>
  <speed>3.560000</speed>
</trkpt>
<trkpt lat="32.861576080" lon="35.240642548">
  <ele>211.884033</ele>
  <time>2011-09-02T04:35:16Z</time>
  <speed>3.840000</speed>
</trkpt>
<trkpt lat="32.861598969" lon="35.240608215">
  <ele>211.212158</ele>
  <time>2011-09-02T04:35:17Z</time>
  <speed>3.830000</speed>
</trkpt>
<trkpt lat="32.861618042" lon="35.240581512">
  <ele>211.669189</ele>
  <time>2011-09-02T04:35:18Z</time>
  <speed>2.950000</speed>
</trkpt>
<trkpt lat="32.861633301" lon="35.240550995">
  <ele>211.700439</ele>
  <time>2011-09-02T04:35:19Z</time>
  <speed>3.340000</speed>
</trkpt>
<trkpt lat="32.861648560" lon="35.240520477">
  <ele>211.762939</ele>
  <time>2011-09-02T04:35:20Z</time>
  <speed>3.050000</speed>
</trkpt>
<trkpt lat="32.861656189" lon="35.240486145">
  <ele>211.841064</ele>
  <time>2011-09-02T04:35:21Z</time>
  <speed>2.560000</speed>
</trkpt>
<trkpt lat="32.861663818" lon="35.240447998">
  <ele>211.809814</ele>
  <time>2011-09-02T04:35:22Z</time>
  <speed>2.970000</speed>
</trkpt>
<trkpt lat="32.861671448" lon="35.240417480">
  <ele>211.813721</ele>
  <time>2011-09-02T04:35:23Z</time>
  <speed>2.850000</speed>
</trkpt>
<trkpt lat="32.861675262" lon="35.240379333">
  <ele>211.790283</ele>
  <time>2011-09-02T04:35:24Z</time>
  <speed>3.450000</speed>
</trkpt>
<trkpt lat="32.861686707" lon="35.240322113">
  <ele>211.036377</ele>
  <time>2011-09-02T04:35:25Z</time>
  <speed>3.890000</speed>
</trkpt>
<trkpt lat="32.861690521" lon="35.240280151">
  <ele>211.106689</ele>
  <time>2011-09-02T04:35:26Z</time>
  <speed>3.540000</speed>
</trkpt>
<trkpt lat="32.861694336" lon="35.240234375">
  <ele>210.794189</ele>
  <time>2011-09-02T04:35:27Z</time>
  <speed>3.580000</speed>
</trkpt>
<trkpt lat="32.861694336" lon="35.240188599">
  <ele>210.993408</ele>
  <time>2011-09-02T04:35:28Z</time>
  <speed>3.550000</speed>
</trkpt>
<trkpt lat="32.861705780" lon="35.240150452">
  <ele>211.012939</ele>
  <time>2011-09-02T04:35:29Z</time>
  <speed>3.100000</speed>
</trkpt>
<trkpt lat="32.861743927" lon="35.240127563">
  <ele>210.641846</ele>
  <time>2011-09-02T04:35:31Z</time>
  <speed>2.970000</speed>
</trkpt>
<trkpt lat="32.861778259" lon="35.240150452">
  <ele>210.305908</ele>
  <time>2011-09-02T04:35:33Z</time>
  <speed>3.360000</speed>
</trkpt>
<trkpt lat="32.861824036" lon="35.240154266">
  <ele>210.825439</ele>
  <time>2011-09-02T04:35:35Z</time>
  <speed>2.480000</speed>
</trkpt>
<trkpt lat="32.861873627" lon="35.240139008">
  <ele>209.911377</ele>
  <time>2011-09-02T04:35:37Z</time>
  <speed>3.320000</speed>
</trkpt>
<trkpt lat="32.861904144" lon="35.240127563">
  <ele>209.704346</ele>
  <time>2011-09-02T04:35:38Z</time>
  <speed>3.440000</speed>
</trkpt>
<trkpt lat="32.861934662" lon="35.240119934">
  <ele>209.618408</ele>
  <time>2011-09-02T04:35:39Z</time>
  <speed>3.640000</speed>
</trkpt>
<trkpt lat="32.861968994" lon="35.240127563">
  <ele>209.610596</ele>
  <time>2011-09-02T04:35:40Z</time>
  <speed>3.390000</speed>
</trkpt>
<trkpt lat="32.862010956" lon="35.240142822">
  <ele>210.856689</ele>
  <time>2011-09-02T04:35:42Z</time>
  <speed>3.160000</speed>
</trkpt>
<trkpt lat="32.862075806" lon="35.240150452">
  <ele>211.259033</ele>
  <time>2011-09-02T04:35:44Z</time>
  <speed>3.120000</speed>
</trkpt>
<trkpt lat="32.862106323" lon="35.240158081">
  <ele>211.610596</ele>
  <time>2011-09-02T04:35:45Z</time>
  <speed>3.150000</speed>
</trkpt>
<trkpt lat="32.862136841" lon="35.240165710">
  <ele>211.829346</ele>
  <time>2011-09-02T04:35:46Z</time>
  <speed>3.460000</speed>
</trkpt>
<trkpt lat="32.862167358" lon="35.240161896">
  <ele>212.450439</ele>
  <time>2011-09-02T04:35:47Z</time>
  <speed>2.920000</speed>
</trkpt>
<trkpt lat="32.862201691" lon="35.240165710">
  <ele>212.630127</ele>
  <time>2011-09-02T04:35:48Z</time>
  <speed>3.340000</speed>
</trkpt>
<trkpt lat="32.862236023" lon="35.240169525">
  <ele>212.790283</ele>
  <time>2011-09-02T04:35:49Z</time>
  <speed>3.310000</speed>
</trkpt>
<trkpt lat="32.862277985" lon="35.240180969">
  <ele>212.653564</ele>
  <time>2011-09-02T04:35:50Z</time>
  <speed>3.770000</speed>
</trkpt>
<trkpt lat="32.862316132" lon="35.240184784">
  <ele>213.735596</ele>
  <time>2011-09-02T04:35:51Z</time>
  <speed>3.780000</speed>
</trkpt>
<trkpt lat="32.862354279" lon="35.240207672">
  <ele>211.536377</ele>
  <time>2011-09-02T04:35:52Z</time>
  <speed>2.990000</speed>
</trkpt>
<trkpt lat="32.862380981" lon="35.240215302">
  <ele>211.294189</ele>
  <time>2011-09-02T04:35:53Z</time>
  <speed>3.410000</speed>
</trkpt>
<trkpt lat="32.862415314" lon="35.240219116">
  <ele>212.059814</ele>
  <time>2011-09-02T04:35:54Z</time>
  <speed>3.100000</speed>
</trkpt>
<trkpt lat="32.862449646" lon="35.240219116">
  <ele>212.094971</ele>
  <time>2011-09-02T04:35:55Z</time>
  <speed>3.190000</speed>
</trkpt>
<trkpt lat="32.862476349" lon="35.240230560">
  <ele>208.938721</ele>
  <time>2011-09-02T04:35:56Z</time>
  <speed>2.970000</speed>
</trkpt>
<trkpt lat="32.862522125" lon="35.240222931">
  <ele>208.255127</ele>
  <time>2011-09-02T04:35:57Z</time>
  <speed>3.430000</speed>
</trkpt>
<trkpt lat="32.862556458" lon="35.240215302">
  <ele>207.145752</ele>
  <time>2011-09-02T04:35:58Z</time>
  <speed>3.910000</speed>
</trkpt>
<trkpt lat="32.862598419" lon="35.240203857">
  <ele>206.692627</ele>
  <time>2011-09-02T04:35:59Z</time>
  <speed>4.620000</speed>
</trkpt>
<trkpt lat="32.862644196" lon="35.240215302">
  <ele>204.747314</ele>
  <time>2011-09-02T04:36:00Z</time>
  <speed>4.540000</speed>
</trkpt>
<trkpt lat="32.862697601" lon="35.240200043">
  <ele>205.497314</ele>
  <time>2011-09-02T04:36:01Z</time>
  <speed>5.460000</speed>
</trkpt>
<trkpt lat="32.862751007" lon="35.240188599">
  <ele>205.282471</ele>
  <time>2011-09-02T04:36:02Z</time>
  <speed>5.160000</speed>
</trkpt>
<trkpt lat="32.862785339" lon="35.240165710">
  <ele>204.962158</ele>
  <time>2011-09-02T04:36:03Z</time>
  <speed>4.000000</speed>
</trkpt>
<trkpt lat="32.862819672" lon="35.240131378">
  <ele>204.755127</ele>
  <time>2011-09-02T04:36:04Z</time>
  <speed>3.940000</speed>
</trkpt>
<trkpt lat="32.862865448" lon="35.240077972">
  <ele>207.637939</ele>
  <time>2011-09-02T04:36:05Z</time>
  <speed>3.660000</speed>
</trkpt>
<trkpt lat="32.862876892" lon="35.240043640">
  <ele>206.497314</ele>
  <time>2011-09-02T04:36:06Z</time>
  <speed>2.340000</speed>
</trkpt>
<trkpt lat="32.862899780" lon="35.240024567">
  <ele>207.341064</ele>
  <time>2011-09-02T04:36:07Z</time>
  <speed>1.880000</speed>
</trkpt>
<trkpt lat="32.862953186" lon="35.240009308">
  <ele>207.587158</ele>
  <time>2011-09-02T04:36:09Z</time>
  <speed>3.370000</speed>
</trkpt>
<trkpt lat="32.862976074" lon="35.239986420">
  <ele>206.954346</ele>
  <time>2011-09-02T04:36:10Z</time>
  <speed>3.630000</speed>
</trkpt>
<trkpt lat="32.863010406" lon="35.239952087">
  <ele>206.219971</ele>
  <time>2011-09-02T04:36:11Z</time>
  <speed>4.840000</speed>
</trkpt>
<trkpt lat="32.863048553" lon="35.239913940">
  <ele>205.348877</ele>
  <time>2011-09-02T04:36:12Z</time>
  <speed>5.500000</speed>
</trkpt>
<trkpt lat="32.863090515" lon="35.239879608">
  <ele>204.532471</ele>
  <time>2011-09-02T04:36:13Z</time>
  <speed>4.850000</speed>
</trkpt>
<trkpt lat="32.863124847" lon="35.239837646">
  <ele>204.145752</ele>
  <time>2011-09-02T04:36:14Z</time>
  <speed>4.560000</speed>
</trkpt>
<trkpt lat="32.863143921" lon="35.239799500">
  <ele>204.274658</ele>
  <time>2011-09-02T04:36:15Z</time>
  <speed>3.410000</speed>
</trkpt>
<trkpt lat="32.863136292" lon="35.239757538">
  <ele>204.716064</ele>
  <time>2011-09-02T04:36:16Z</time>
  <speed>3.920000</speed>
</trkpt>
<trkpt lat="32.863124847" lon="35.239719391">
  <ele>204.872314</ele>
  <time>2011-09-02T04:36:17Z</time>
  <speed>3.820000</speed>
</trkpt>
<trkpt lat="32.863105774" lon="35.239681244">
  <ele>204.895752</ele>
  <time>2011-09-02T04:36:18Z</time>
  <speed>3.980000</speed>
</trkpt>
<trkpt lat="32.863094330" lon="35.239631653">
  <ele>206.520752</ele>
  <time>2011-09-02T04:36:19Z</time>
  <speed>4.920000</speed>
</trkpt>
<trkpt lat="32.863090515" lon="35.239578247">
  <ele>205.981689</ele>
  <time>2011-09-02T04:36:20Z</time>
  <speed>4.200000</speed>
</trkpt>
<trkpt lat="32.863090515" lon="35.239532471">
  <ele>205.302002</ele>
  <time>2011-09-02T04:36:21Z</time>
  <speed>4.230000</speed>
</trkpt>
<trkpt lat="32.863109589" lon="35.239494324">
  <ele>204.372314</ele>
  <time>2011-09-02T04:36:22Z</time>
  <speed>3.820000</speed>
</trkpt>
<trkpt lat="32.863132477" lon="35.239463806">
  <ele>204.012939</ele>
  <time>2011-09-02T04:36:23Z</time>
  <speed>3.410000</speed>
</trkpt>
<trkpt lat="32.863147736" lon="35.239429474">
  <ele>203.942627</ele>
  <time>2011-09-02T04:36:24Z</time>
  <speed>3.280000</speed>
</trkpt>
<trkpt lat="32.863166809" lon="35.239395142">
  <ele>203.700439</ele>
  <time>2011-09-02T04:36:25Z</time>
  <speed>3.720000</speed>
</trkpt>
<trkpt lat="32.863193512" lon="35.239356995">
  <ele>202.743408</ele>
  <time>2011-09-02T04:36:26Z</time>
  <speed>4.430000</speed>
</trkpt>
<trkpt lat="32.863212585" lon="35.239311218">
  <ele>201.841064</ele>
  <time>2011-09-02T04:36:27Z</time>
  <speed>3.670000</speed>
</trkpt>
<trkpt lat="32.863220215" lon="35.239269257">
  <ele>201.192627</ele>
  <time>2011-09-02T04:36:28Z</time>
  <speed>3.530000</speed>
</trkpt>
<trkpt lat="32.863216400" lon="35.239223480">
  <ele>200.501221</ele>
  <time>2011-09-02T04:36:29Z</time>
  <speed>4.260000</speed>
</trkpt>
<trkpt lat="32.863204956" lon="35.239154816">
  <ele>200.016846</ele>
  <time>2011-09-02T04:36:30Z</time>
  <speed>4.170000</speed>
</trkpt>
<trkpt lat="32.863216400" lon="35.239105225">
  <ele>199.669189</ele>
  <time>2011-09-02T04:36:31Z</time>
  <speed>4.150000</speed>
</trkpt>
<trkpt lat="32.863235474" lon="35.239059448">
  <ele>199.048096</ele>
  <time>2011-09-02T04:36:32Z</time>
  <speed>4.380000</speed>
</trkpt>
<trkpt lat="32.863254547" lon="35.239021301">
  <ele>198.497314</ele>
  <time>2011-09-02T04:36:33Z</time>
  <speed>3.670000</speed>
</trkpt>
<trkpt lat="32.863269806" lon="35.238994598">
  <ele>198.032471</ele>
  <time>2011-09-02T04:36:34Z</time>
  <speed>3.040000</speed>
</trkpt>
<trkpt lat="32.863281250" lon="35.238945007">
  <ele>196.626221</ele>
  <time>2011-09-02T04:36:35Z</time>
  <speed>3.300000</speed>
</trkpt>
<trkpt lat="32.863300323" lon="35.238906860">
  <ele>195.927002</ele>
  <time>2011-09-02T04:36:36Z</time>
  <speed>3.680000</speed>
</trkpt>
<trkpt lat="32.863334656" lon="35.238887787">
  <ele>195.454346</ele>
  <time>2011-09-02T04:36:37Z</time>
  <speed>3.850000</speed>
</trkpt>
<trkpt lat="32.863361359" lon="35.238876343">
  <ele>194.657471</ele>
  <time>2011-09-02T04:36:38Z</time>
  <speed>3.890000</speed>
</trkpt>
<trkpt lat="32.863395691" lon="35.238864899">
  <ele>194.208252</ele>
  <time>2011-09-02T04:36:39Z</time>
  <speed>3.550000</speed>
</trkpt>
<trkpt lat="32.863430023" lon="35.238842010">
  <ele>193.458252</ele>
  <time>2011-09-02T04:36:40Z</time>
  <speed>4.250000</speed>
</trkpt>
<trkpt lat="32.863468170" lon="35.238819122">
  <ele>193.165283</ele>
  <time>2011-09-02T04:36:41Z</time>
  <speed>3.860000</speed>
</trkpt>
<trkpt lat="32.863494873" lon="35.238792419">
  <ele>192.223877</ele>
  <time>2011-09-02T04:36:42Z</time>
  <speed>3.370000</speed>
</trkpt>
<trkpt lat="32.863506317" lon="35.238739014">
  <ele>191.512939</ele>
  <time>2011-09-02T04:36:44Z</time>
  <speed>2.950000</speed>
</trkpt>
<trkpt lat="32.863513947" lon="35.238670349">
  <ele>190.212158</ele>
  <time>2011-09-02T04:36:46Z</time>
  <speed>4.170000</speed>
</trkpt>
<trkpt lat="32.863517761" lon="35.238628387">
  <ele>190.700439</ele>
  <time>2011-09-02T04:36:47Z</time>
  <speed>4.270000</speed>
</trkpt>
<trkpt lat="32.863525391" lon="35.238586426">
  <ele>190.368408</ele>
  <time>2011-09-02T04:36:48Z</time>
  <speed>3.880000</speed>
</trkpt>
<trkpt lat="32.863533020" lon="35.238533020">
  <ele>189.829346</ele>
  <time>2011-09-02T04:36:49Z</time>
  <speed>4.330000</speed>
</trkpt>
<trkpt lat="32.863548279" lon="35.238483429">
  <ele>189.231689</ele>
  <time>2011-09-02T04:36:50Z</time>
  <speed>5.350000</speed>
</trkpt>
<trkpt lat="32.863574982" lon="35.238433838">
  <ele>188.325439</ele>
  <time>2011-09-02T04:36:51Z</time>
  <speed>5.090000</speed>
</trkpt>
<trkpt lat="32.863601685" lon="35.238384247">
  <ele>189.161377</ele>
  <time>2011-09-02T04:36:52Z</time>
  <speed>5.360000</speed>
</trkpt>
<trkpt lat="32.863632202" lon="35.238330841">
  <ele>188.899658</ele>
  <time>2011-09-02T04:36:53Z</time>
  <speed>4.700000</speed>
</trkpt>
<trkpt lat="32.863655090" lon="35.238285065">
  <ele>188.481689</ele>
  <time>2011-09-02T04:36:54Z</time>
  <speed>4.670000</speed>
</trkpt>
<trkpt lat="32.863674164" lon="35.238243103">
  <ele>188.723877</ele>
  <time>2011-09-02T04:36:55Z</time>
  <speed>4.460000</speed>
</trkpt>
<trkpt lat="32.863704681" lon="35.238197327">
  <ele>189.481689</ele>
  <time>2011-09-02T04:36:56Z</time>
  <speed>4.950000</speed>
</trkpt>
<trkpt lat="32.863731384" lon="35.238147736">
  <ele>189.813721</ele>
  <time>2011-09-02T04:36:57Z</time>
  <speed>5.170000</speed>
</trkpt>
<trkpt lat="32.863758087" lon="35.238098145">
  <ele>190.622314</ele>
  <time>2011-09-02T04:36:58Z</time>
  <speed>5.170000</speed>
</trkpt>
<trkpt lat="32.863788605" lon="35.238052368">
  <ele>190.536377</ele>
  <time>2011-09-02T04:36:59Z</time>
  <speed>4.980000</speed>
</trkpt>
<trkpt lat="32.863815308" lon="35.238021851">
  <ele>189.274658</ele>
  <time>2011-09-02T04:37:00Z</time>
  <speed>4.580000</speed>
</trkpt>
<trkpt lat="32.863845825" lon="35.237983704">
  <ele>189.610596</ele>
  <time>2011-09-02T04:37:01Z</time>
  <speed>4.620000</speed>
</trkpt>
<trkpt lat="32.863861084" lon="35.237937927">
  <ele>189.649658</ele>
  <time>2011-09-02T04:37:02Z</time>
  <speed>4.410000</speed>
</trkpt>
<trkpt lat="32.863883972" lon="35.237903595">
  <ele>189.899658</ele>
  <time>2011-09-02T04:37:03Z</time>
  <speed>4.140000</speed>
</trkpt>
<trkpt lat="32.863906860" lon="35.237861633">
  <ele>190.427002</ele>
  <time>2011-09-02T04:37:04Z</time>
  <speed>4.490000</speed>
</trkpt>
<trkpt lat="32.863929749" lon="35.237819672">
  <ele>189.903564</ele>
  <time>2011-09-02T04:37:05Z</time>
  <speed>4.410000</speed>
</trkpt>
<trkpt lat="32.863948822" lon="35.237777710">
  <ele>189.567627</ele>
  <time>2011-09-02T04:37:06Z</time>
  <speed>4.500000</speed>
</trkpt>
<trkpt lat="32.863975525" lon="35.237728119">
  <ele>189.626221</ele>
  <time>2011-09-02T04:37:07Z</time>
  <speed>5.070000</speed>
</trkpt>
<trkpt lat="32.863998413" lon="35.237686157">
  <ele>188.919189</ele>
  <time>2011-09-02T04:37:08Z</time>
  <speed>4.810000</speed>
</trkpt>
<trkpt lat="32.864025116" lon="35.237636566">
  <ele>189.817627</ele>
  <time>2011-09-02T04:37:09Z</time>
  <speed>4.740000</speed>
</trkpt>
<trkpt lat="32.864051819" lon="35.237594604">
  <ele>189.755127</ele>
  <time>2011-09-02T04:37:10Z</time>
  <speed>4.770000</speed>
</trkpt>
<trkpt lat="32.864074707" lon="35.237548828">
  <ele>190.161377</ele>
  <time>2011-09-02T04:37:11Z</time>
  <speed>5.140000</speed>
</trkpt>
<trkpt lat="32.864101410" lon="35.237506866">
  <ele>189.911377</ele>
  <time>2011-09-02T04:37:12Z</time>
  <speed>5.210000</speed>
</trkpt>
<trkpt lat="32.864128113" lon="35.237461090">
  <ele>190.083252</ele>
  <time>2011-09-02T04:37:13Z</time>
  <speed>4.660000</speed>
</trkpt>
<trkpt lat="32.864154816" lon="35.237407684">
  <ele>190.680908</ele>
  <time>2011-09-02T04:37:14Z</time>
  <speed>5.500000</speed>
</trkpt>
<trkpt lat="32.864181519" lon="35.237358093">
  <ele>190.618408</ele>
  <time>2011-09-02T04:37:15Z</time>
  <speed>5.250000</speed>
</trkpt>
<trkpt lat="32.864208221" lon="35.237308502">
  <ele>190.876221</ele>
  <time>2011-09-02T04:37:16Z</time>
  <speed>5.450000</speed>
</trkpt>
<trkpt lat="32.864234924" lon="35.237251282">
  <ele>191.024658</ele>
  <time>2011-09-02T04:37:17Z</time>
  <speed>5.800000</speed>
</trkpt>
<trkpt lat="32.864261627" lon="35.237194061">
  <ele>191.106689</ele>
  <time>2011-09-02T04:37:18Z</time>
  <speed>6.120000</speed>
</trkpt>
<trkpt lat="32.864284515" lon="35.237140656">
  <ele>190.977783</ele>
  <time>2011-09-02T04:37:19Z</time>
  <speed>5.540000</speed>
</trkpt>
<trkpt lat="32.864307404" lon="35.237091064">
  <ele>191.259033</ele>
  <time>2011-09-02T04:37:20Z</time>
  <speed>5.520000</speed>
</trkpt>
<trkpt lat="32.864334106" lon="35.237041473">
  <ele>191.364502</ele>
  <time>2011-09-02T04:37:21Z</time>
  <speed>5.170000</speed>
</trkpt>
<trkpt lat="32.864364624" lon="35.236995697">
  <ele>191.356689</ele>
  <time>2011-09-02T04:37:22Z</time>
  <speed>5.040000</speed>
</trkpt>
<trkpt lat="32.864395142" lon="35.236953735">
  <ele>191.473877</ele>
  <time>2011-09-02T04:37:23Z</time>
  <speed>5.090000</speed>
</trkpt>
<trkpt lat="32.864425659" lon="35.236904144">
  <ele>192.020752</ele>
  <time>2011-09-02T04:37:24Z</time>
  <speed>5.200000</speed>
</trkpt>
<trkpt lat="32.864459991" lon="35.236865997">
  <ele>192.204346</ele>
  <time>2011-09-02T04:37:25Z</time>
  <speed>4.920000</speed>
</trkpt>
<trkpt lat="32.864482880" lon="35.236820221">
  <ele>193.005127</ele>
  <time>2011-09-02T04:37:26Z</time>
  <speed>4.660000</speed>
</trkpt>
<trkpt lat="32.864505768" lon="35.236778259">
  <ele>193.184814</ele>
  <time>2011-09-02T04:37:27Z</time>
  <speed>4.410000</speed>
</trkpt>
<trkpt lat="32.864521027" lon="35.236740112">
  <ele>193.481689</ele>
  <time>2011-09-02T04:37:28Z</time>
  <speed>4.570000</speed>
</trkpt>
<trkpt lat="32.864540100" lon="35.236686707">
  <ele>193.501221</ele>
  <time>2011-09-02T04:37:29Z</time>
  <speed>5.310000</speed>
</trkpt>
<trkpt lat="32.864566803" lon="35.236637115">
  <ele>193.903564</ele>
  <time>2011-09-02T04:37:30Z</time>
  <speed>5.560000</speed>
</trkpt>
<trkpt lat="32.864585876" lon="35.236579895">
  <ele>193.903564</ele>
  <time>2011-09-02T04:37:31Z</time>
  <speed>5.850000</speed>
</trkpt>
<trkpt lat="32.864601135" lon="35.236518860">
  <ele>194.005127</ele>
  <time>2011-09-02T04:37:32Z</time>
  <speed>6.010000</speed>
</trkpt>
<trkpt lat="32.864612579" lon="35.236465454">
  <ele>193.833252</ele>
  <time>2011-09-02T04:37:33Z</time>
  <speed>5.390000</speed>
</trkpt>
<trkpt lat="32.864624023" lon="35.236408234">
  <ele>193.805908</ele>
  <time>2011-09-02T04:37:34Z</time>
  <speed>5.540000</speed>
</trkpt>
<trkpt lat="32.864635468" lon="35.236362457">
  <ele>193.477783</ele>
  <time>2011-09-02T04:37:35Z</time>
  <speed>4.900000</speed>
</trkpt>
<trkpt lat="32.864654541" lon="35.236331940">
  <ele>192.134033</ele>
  <time>2011-09-02T04:37:36Z</time>
  <speed>3.820000</speed>
</trkpt>
<trkpt lat="32.864665985" lon="35.236301422">
  <ele>191.450439</ele>
  <time>2011-09-02T04:37:37Z</time>
  <speed>3.110000</speed>
</trkpt>
<trkpt lat="32.864673615" lon="35.236270905">
  <ele>190.907471</ele>
  <time>2011-09-02T04:37:38Z</time>
  <speed>3.720000</speed>
</trkpt>
<trkpt lat="32.864681244" lon="35.236228943">
  <ele>190.364502</ele>
  <time>2011-09-02T04:37:39Z</time>
  <speed>3.580000</speed>
</trkpt>
<trkpt lat="32.864688873" lon="35.236186981">
  <ele>190.141846</ele>
  <time>2011-09-02T04:37:40Z</time>
  <speed>4.020000</speed>
</trkpt>
<trkpt lat="32.864696503" lon="35.236152649">
  <ele>189.770752</ele>
  <time>2011-09-02T04:37:41Z</time>
  <speed>2.210000</speed>
</trkpt>
<trkpt lat="32.864700317" lon="35.236106873">
  <ele>190.114502</ele>
  <time>2011-09-02T04:37:43Z</time>
  <speed>2.760000</speed>
</trkpt>
<trkpt lat="32.864704132" lon="35.236072540">
  <ele>189.821533</ele>
  <time>2011-09-02T04:37:44Z</time>
  <speed>4.000000</speed>
</trkpt>
<trkpt lat="32.864707947" lon="35.236022949">
  <ele>189.372314</ele>
  <time>2011-09-02T04:37:45Z</time>
  <speed>5.110000</speed>
</trkpt>
<trkpt lat="32.864707947" lon="35.235961914">
  <ele>188.661377</ele>
  <time>2011-09-02T04:37:46Z</time>
  <speed>6.020000</speed>
</trkpt>
<trkpt lat="32.864715576" lon="35.235897064">
  <ele>188.704346</ele>
  <time>2011-09-02T04:37:47Z</time>
  <speed>6.340000</speed>
</trkpt>
<trkpt lat="32.864727020" lon="35.235828400">
  <ele>188.641846</ele>
  <time>2011-09-02T04:37:48Z</time>
  <speed>6.770000</speed>
</trkpt>
<trkpt lat="32.864738464" lon="35.235759735">
  <ele>187.915283</ele>
  <time>2011-09-02T04:37:49Z</time>
  <speed>6.270000</speed>
</trkpt>
<trkpt lat="32.864749908" lon="35.235698700">
  <ele>187.680908</ele>
  <time>2011-09-02T04:37:50Z</time>
  <speed>5.690000</speed>
</trkpt>
<trkpt lat="32.864753723" lon="35.235633850">
  <ele>187.634033</ele>
  <time>2011-09-02T04:37:51Z</time>
  <speed>6.000000</speed>
</trkpt>
<trkpt lat="32.864757538" lon="35.235569000">
  <ele>187.333252</ele>
  <time>2011-09-02T04:37:52Z</time>
  <speed>6.470000</speed>
</trkpt>
<trkpt lat="32.864765167" lon="35.235500336">
  <ele>187.270752</ele>
  <time>2011-09-02T04:37:53Z</time>
  <speed>6.070000</speed>
</trkpt>
<trkpt lat="32.864776611" lon="35.235435486">
  <ele>186.989502</ele>
  <time>2011-09-02T04:37:54Z</time>
  <speed>6.540000</speed>
</trkpt>
<trkpt lat="32.864788055" lon="35.235363007">
  <ele>186.727783</ele>
  <time>2011-09-02T04:37:55Z</time>
  <speed>7.100000</speed>
</trkpt>
<trkpt lat="32.864795685" lon="35.235286713">
  <ele>185.708252</ele>
  <time>2011-09-02T04:37:56Z</time>
  <speed>6.840000</speed>
</trkpt>
<trkpt lat="32.864807129" lon="35.235229492">
  <ele>185.430908</ele>
  <time>2011-09-02T04:37:57Z</time>
  <speed>5.730000</speed>
</trkpt>
<trkpt lat="32.864818573" lon="35.235164642">
  <ele>184.391846</ele>
  <time>2011-09-02T04:37:58Z</time>
  <speed>6.310000</speed>
</trkpt>
<trkpt lat="32.864830017" lon="35.235095978">
  <ele>183.950439</ele>
  <time>2011-09-02T04:37:59Z</time>
  <speed>7.260000</speed>
</trkpt>
<trkpt lat="32.864845276" lon="35.235023499">
  <ele>183.005127</ele>
  <time>2011-09-02T04:38:00Z</time>
  <speed>6.550000</speed>
</trkpt>
<trkpt lat="32.864860535" lon="35.234958649">
  <ele>181.755127</ele>
  <time>2011-09-02T04:38:01Z</time>
  <speed>6.120000</speed>
</trkpt>
<trkpt lat="32.864883423" lon="35.234901428">
  <ele>181.020752</ele>
  <time>2011-09-02T04:38:02Z</time>
  <speed>6.350000</speed>
</trkpt>
<trkpt lat="32.864906311" lon="35.234836578">
  <ele>180.700439</ele>
  <time>2011-09-02T04:38:03Z</time>
  <speed>6.280000</speed>
</trkpt>
<trkpt lat="32.864929199" lon="35.234783173">
  <ele>180.177002</ele>
  <time>2011-09-02T04:38:04Z</time>
  <speed>5.660000</speed>
</trkpt>
<trkpt lat="32.864955902" lon="35.234725952">
  <ele>179.770752</ele>
  <time>2011-09-02T04:38:05Z</time>
  <speed>5.330000</speed>
</trkpt>
<trkpt lat="32.864982605" lon="35.234676361">
  <ele>179.137939</ele>
  <time>2011-09-02T04:38:06Z</time>
  <speed>5.680000</speed>
</trkpt>
<trkpt lat="32.865013123" lon="35.234634399">
  <ele>178.477783</ele>
  <time>2011-09-02T04:38:07Z</time>
  <speed>5.530000</speed>
</trkpt>
<trkpt lat="32.865051270" lon="35.234592438">
  <ele>177.993408</ele>
  <time>2011-09-02T04:38:08Z</time>
  <speed>5.070000</speed>
</trkpt>
<trkpt lat="32.865081787" lon="35.234565735">
  <ele>177.427002</ele>
  <time>2011-09-02T04:38:09Z</time>
  <speed>4.430000</speed>
</trkpt>
<trkpt lat="32.865116119" lon="35.234535217">
  <ele>176.841064</ele>
  <time>2011-09-02T04:38:10Z</time>
  <speed>4.370000</speed>
</trkpt>
<trkpt lat="32.865142822" lon="35.234493256">
  <ele>176.653564</ele>
  <time>2011-09-02T04:38:11Z</time>
  <speed>4.660000</speed>
</trkpt>
<trkpt lat="32.865165710" lon="35.234458923">
  <ele>176.333252</ele>
  <time>2011-09-02T04:38:12Z</time>
  <speed>3.530000</speed>
</trkpt>
<trkpt lat="32.865188599" lon="35.234436035">
  <ele>176.235596</ele>
  <time>2011-09-02T04:38:13Z</time>
  <speed>3.120000</speed>
</trkpt>
<trkpt lat="32.865226746" lon="35.234394073">
  <ele>175.489502</ele>
  <time>2011-09-02T04:38:15Z</time>
  <speed>2.990000</speed>
</trkpt>
<trkpt lat="32.865280151" lon="35.234367371">
  <ele>174.813721</ele>
  <time>2011-09-02T04:38:17Z</time>
  <speed>3.400000</speed>
</trkpt>
<trkpt lat="32.865306854" lon="35.234348297">
  <ele>174.966064</ele>
  <time>2011-09-02T04:38:18Z</time>
  <speed>3.560000</speed>
</trkpt>
<trkpt lat="32.865337372" lon="35.234340668">
  <ele>174.618408</ele>
  <time>2011-09-02T04:38:19Z</time>
  <speed>3.850000</speed>
</trkpt>
<trkpt lat="32.865375519" lon="35.234344482">
  <ele>174.489502</ele>
  <time>2011-09-02T04:38:20Z</time>
  <speed>3.660000</speed>
</trkpt>
<trkpt lat="32.865402222" lon="35.234336853">
  <ele>174.391846</ele>
  <time>2011-09-02T04:38:21Z</time>
  <speed>3.170000</speed>
</trkpt>
<trkpt lat="32.865428925" lon="35.234340668">
  <ele>173.626221</ele>
  <time>2011-09-02T04:38:22Z</time>
  <speed>3.020000</speed>
</trkpt>
<trkpt lat="32.865459442" lon="35.234333038">
  <ele>173.821533</ele>
  <time>2011-09-02T04:38:23Z</time>
  <speed>2.980000</speed>
</trkpt>
<trkpt lat="32.865505219" lon="35.234321594">
  <ele>173.677002</ele>
  <time>2011-09-02T04:38:25Z</time>
  <speed>2.330000</speed>
</trkpt>
<trkpt lat="32.865550995" lon="35.234310150">
  <ele>174.583252</ele>
  <time>2011-09-02T04:38:27Z</time>
  <speed>2.490000</speed>
</trkpt>
<trkpt lat="32.865600586" lon="35.234302521">
  <ele>176.462158</ele>
  <time>2011-09-02T04:38:29Z</time>
  <speed>2.480000</speed>
</trkpt>
<trkpt lat="32.865638733" lon="35.234294891">
  <ele>177.028564</ele>
  <time>2011-09-02T04:38:31Z</time>
  <speed>2.520000</speed>
</trkpt>
<trkpt lat="32.865680695" lon="35.234306335">
  <ele>176.864502</ele>
  <time>2011-09-02T04:38:33Z</time>
  <speed>2.540000</speed>
</trkpt>
<trkpt lat="32.865722656" lon="35.234306335">
  <ele>177.458252</ele>
  <time>2011-09-02T04:38:35Z</time>
  <speed>2.140000</speed>
</trkpt>
<trkpt lat="32.865772247" lon="35.234302521">
  <ele>177.579346</ele>
  <time>2011-09-02T04:38:37Z</time>
  <speed>2.390000</speed>
</trkpt>
<trkpt lat="32.865798950" lon="35.234294891">
  <ele>178.571533</ele>
  <time>2011-09-02T04:38:38Z</time>
  <speed>2.460000</speed>
</trkpt>
<trkpt lat="32.865840912" lon="35.234294891">
  <ele>178.747314</ele>
  <time>2011-09-02T04:38:40Z</time>
  <speed>2.360000</speed>
</trkpt>
<trkpt lat="32.865882874" lon="35.234298706">
  <ele>178.911377</ele>
  <time>2011-09-02T04:38:42Z</time>
  <speed>2.620000</speed>
</trkpt>
<trkpt lat="32.865928650" lon="35.234302521">
  <ele>178.231689</ele>
  <time>2011-09-02T04:38:44Z</time>
  <speed>2.000000</speed>
</trkpt>
<trkpt lat="32.865970612" lon="35.234302521">
  <ele>177.798096</ele>
  <time>2011-09-02T04:38:46Z</time>
  <speed>2.330000</speed>
</trkpt>
<trkpt lat="32.866016388" lon="35.234283447">
  <ele>178.552002</ele>
  <time>2011-09-02T04:38:48Z</time>
  <speed>3.000000</speed>
</trkpt>
<trkpt lat="32.866043091" lon="35.234279633">
  <ele>177.028564</ele>
  <time>2011-09-02T04:38:49Z</time>
  <speed>3.100000</speed>
</trkpt>
<trkpt lat="32.866073608" lon="35.234264374">
  <ele>176.395752</ele>
  <time>2011-09-02T04:38:50Z</time>
  <speed>4.030000</speed>
</trkpt>
<trkpt lat="32.866104126" lon="35.234241486">
  <ele>176.536377</ele>
  <time>2011-09-02T04:38:51Z</time>
  <speed>3.610000</speed>
</trkpt>
<trkpt lat="32.866130829" lon="35.234226227">
  <ele>175.661377</ele>
  <time>2011-09-02T04:38:52Z</time>
  <speed>3.150000</speed>
</trkpt>
<trkpt lat="32.866184235" lon="35.234191895">
  <ele>174.708252</ele>
  <time>2011-09-02T04:38:54Z</time>
  <speed>4.070000</speed>
</trkpt>
<trkpt lat="32.866214752" lon="35.234169006">
  <ele>174.247314</ele>
  <time>2011-09-02T04:38:55Z</time>
  <speed>4.050000</speed>
</trkpt>
<trkpt lat="32.866245270" lon="35.234134674">
  <ele>173.786377</ele>
  <time>2011-09-02T04:38:56Z</time>
  <speed>4.770000</speed>
</trkpt>
<trkpt lat="32.866279602" lon="35.234100342">
  <ele>173.278564</ele>
  <time>2011-09-02T04:38:57Z</time>
  <speed>4.540000</speed>
</trkpt>
<trkpt lat="32.866313934" lon="35.234069824">
  <ele>172.880127</ele>
  <time>2011-09-02T04:38:58Z</time>
  <speed>4.600000</speed>
</trkpt>
<trkpt lat="32.866348267" lon="35.234024048">
  <ele>172.719971</ele>
  <time>2011-09-02T04:38:59Z</time>
  <speed>5.180000</speed>
</trkpt>
<trkpt lat="32.866378784" lon="35.233974457">
  <ele>172.184814</ele>
  <time>2011-09-02T04:39:00Z</time>
  <speed>5.360000</speed>
</trkpt>
<trkpt lat="32.866416931" lon="35.233924866">
  <ele>171.512939</ele>
  <time>2011-09-02T04:39:01Z</time>
  <speed>5.860000</speed>
</trkpt>
<trkpt lat="32.866455078" lon="35.233879089">
  <ele>170.969971</ele>
  <time>2011-09-02T04:39:02Z</time>
  <speed>6.390000</speed>
</trkpt>
<trkpt lat="32.866497040" lon="35.233829498">
  <ele>171.294189</ele>
  <time>2011-09-02T04:39:03Z</time>
  <speed>6.290000</speed>
</trkpt>
<trkpt lat="32.866535187" lon="35.233776093">
  <ele>170.825439</ele>
  <time>2011-09-02T04:39:04Z</time>
  <speed>5.670000</speed>
</trkpt>
<trkpt lat="32.866573334" lon="35.233718872">
  <ele>171.552002</ele>
  <time>2011-09-02T04:39:05Z</time>
  <speed>6.720000</speed>
</trkpt>
<trkpt lat="32.866607666" lon="35.233665466">
  <ele>170.895752</ele>
  <time>2011-09-02T04:39:06Z</time>
  <speed>5.920000</speed>
</trkpt>
<trkpt lat="32.866641998" lon="35.233612061">
  <ele>170.657471</ele>
  <time>2011-09-02T04:39:07Z</time>
  <speed>5.320000</speed>
</trkpt>
<trkpt lat="32.866672516" lon="35.233596802">
  <ele>169.946533</ele>
  <time>2011-09-02T04:39:08Z</time>
  <speed>3.940000</speed>
</trkpt>
<trkpt lat="32.866706848" lon="35.233585358">
  <ele>169.958252</ele>
  <time>2011-09-02T04:39:09Z</time>
  <speed>4.130000</speed>
</trkpt>
<trkpt lat="32.866744995" lon="35.233581543">
  <ele>169.313721</ele>
  <time>2011-09-02T04:39:10Z</time>
  <speed>4.300000</speed>
</trkpt>
<trkpt lat="32.866783142" lon="35.233570099">
  <ele>168.419189</ele>
  <time>2011-09-02T04:39:11Z</time>
  <speed>4.650000</speed>
</trkpt>
<trkpt lat="32.866825104" lon="35.233554840">
  <ele>167.848877</ele>
  <time>2011-09-02T04:39:12Z</time>
  <speed>5.550000</speed>
</trkpt>
<trkpt lat="32.866874695" lon="35.233539581">
  <ele>166.634033</ele>
  <time>2011-09-02T04:39:13Z</time>
  <speed>5.800000</speed>
</trkpt>
<trkpt lat="32.866928101" lon="35.233535767">
  <ele>165.446533</ele>
  <time>2011-09-02T04:39:14Z</time>
  <speed>5.450000</speed>
</trkpt>
<trkpt lat="32.866973877" lon="35.233531952">
  <ele>165.598877</ele>
  <time>2011-09-02T04:39:15Z</time>
  <speed>5.140000</speed>
</trkpt>
<trkpt lat="32.867012024" lon="35.233551025">
  <ele>164.344971</ele>
  <time>2011-09-02T04:39:16Z</time>
  <speed>4.340000</speed>
</trkpt>
<trkpt lat="32.867046356" lon="35.233577728">
  <ele>162.817627</ele>
  <time>2011-09-02T04:39:17Z</time>
  <speed>4.010000</speed>
</trkpt>
<trkpt lat="32.867076874" lon="35.233600616">
  <ele>161.977783</ele>
  <time>2011-09-02T04:39:18Z</time>
  <speed>3.600000</speed>
</trkpt>
<trkpt lat="32.867107391" lon="35.233619690">
  <ele>161.770752</ele>
  <time>2011-09-02T04:39:19Z</time>
  <speed>3.680000</speed>
</trkpt>
<trkpt lat="32.867137909" lon="35.233634949">
  <ele>161.227783</ele>
  <time>2011-09-02T04:39:20Z</time>
  <speed>3.950000</speed>
</trkpt>
<trkpt lat="32.867164612" lon="35.233657837">
  <ele>161.173096</ele>
  <time>2011-09-02T04:39:21Z</time>
  <speed>3.610000</speed>
</trkpt>
<trkpt lat="32.867195129" lon="35.233680725">
  <ele>160.501221</ele>
  <time>2011-09-02T04:39:22Z</time>
  <speed>3.200000</speed>
</trkpt>
<trkpt lat="32.867237091" lon="35.233718872">
  <ele>160.618408</ele>
  <time>2011-09-02T04:39:24Z</time>
  <speed>3.400000</speed>
</trkpt>
<trkpt lat="32.867259979" lon="35.233741760">
  <ele>160.489502</ele>
  <time>2011-09-02T04:39:25Z</time>
  <speed>3.060000</speed>
</trkpt>
<trkpt lat="32.867305756" lon="35.233772278">
  <ele>158.759033</ele>
  <time>2011-09-02T04:39:27Z</time>
  <speed>3.480000</speed>
</trkpt>
<trkpt lat="32.867340088" lon="35.233779907">
  <ele>159.231689</ele>
  <time>2011-09-02T04:39:28Z</time>
  <speed>3.770000</speed>
</trkpt>
<trkpt lat="32.867366791" lon="35.233795166">
  <ele>158.989502</ele>
  <time>2011-09-02T04:39:29Z</time>
  <speed>3.440000</speed>
</trkpt>
<trkpt lat="32.867393494" lon="35.233814240">
  <ele>158.626221</ele>
  <time>2011-09-02T04:39:30Z</time>
  <speed>3.270000</speed>
</trkpt>
<trkpt lat="32.867412567" lon="35.233840942">
  <ele>157.950439</ele>
  <time>2011-09-02T04:39:31Z</time>
  <speed>3.240000</speed>
</trkpt>
<trkpt lat="32.867435455" lon="35.233863831">
  <ele>157.981689</ele>
  <time>2011-09-02T04:39:32Z</time>
  <speed>3.380000</speed>
</trkpt>
<trkpt lat="32.867462158" lon="35.233882904">
  <ele>158.126221</ele>
  <time>2011-09-02T04:39:33Z</time>
  <speed>3.240000</speed>
</trkpt>
<trkpt lat="32.867519379" lon="35.233898163">
  <ele>157.841064</ele>
  <time>2011-09-02T04:39:35Z</time>
  <speed>3.930000</speed>
</trkpt>
<trkpt lat="32.867553711" lon="35.233909607">
  <ele>158.094971</ele>
  <time>2011-09-02T04:39:36Z</time>
  <speed>3.790000</speed>
</trkpt>
<trkpt lat="32.867591858" lon="35.233905792">
  <ele>157.802002</ele>
  <time>2011-09-02T04:39:37Z</time>
  <speed>4.410000</speed>
</trkpt>
<trkpt lat="32.867633820" lon="35.233905792">
  <ele>157.829346</ele>
  <time>2011-09-02T04:39:38Z</time>
  <speed>4.400000</speed>
</trkpt>
<trkpt lat="32.867679596" lon="35.233905792">
  <ele>157.907471</ele>
  <time>2011-09-02T04:39:39Z</time>
  <speed>4.450000</speed>
</trkpt>
<trkpt lat="32.867717743" lon="35.233901978">
  <ele>156.938721</ele>
  <time>2011-09-02T04:39:40Z</time>
  <speed>4.260000</speed>
</trkpt>
<trkpt lat="32.867759705" lon="35.233890533">
  <ele>157.528564</ele>
  <time>2011-09-02T04:39:41Z</time>
  <speed>4.400000</speed>
</trkpt>
<trkpt lat="32.867797852" lon="35.233886719">
  <ele>157.110596</ele>
  <time>2011-09-02T04:39:42Z</time>
  <speed>4.590000</speed>
</trkpt>
<trkpt lat="32.867835999" lon="35.233890533">
  <ele>156.680908</ele>
  <time>2011-09-02T04:39:43Z</time>
  <speed>4.300000</speed>
</trkpt>
<trkpt lat="32.867874146" lon="35.233898163">
  <ele>157.536377</ele>
  <time>2011-09-02T04:39:44Z</time>
  <speed>3.550000</speed>
</trkpt>
<trkpt lat="32.867900848" lon="35.233901978">
  <ele>157.700439</ele>
  <time>2011-09-02T04:39:45Z</time>
  <speed>3.130000</speed>
</trkpt>
<trkpt lat="32.867935181" lon="35.233898163">
  <ele>157.704346</ele>
  <time>2011-09-02T04:39:46Z</time>
  <speed>2.940000</speed>
</trkpt>
<trkpt lat="32.867980957" lon="35.233913422">
  <ele>157.266846</ele>
  <time>2011-09-02T04:39:48Z</time>
  <speed>2.740000</speed>
</trkpt>
<trkpt lat="32.868030548" lon="35.233924866">
  <ele>157.559814</ele>
  <time>2011-09-02T04:39:50Z</time>
  <speed>2.890000</speed>
</trkpt>
<trkpt lat="32.868076324" lon="35.233943939">
  <ele>157.938721</ele>
  <time>2011-09-02T04:39:52Z</time>
  <speed>2.430000</speed>
</trkpt>
<trkpt lat="32.868114471" lon="35.233955383">
  <ele>158.868408</ele>
  <time>2011-09-02T04:39:54Z</time>
  <speed>2.040000</speed>
</trkpt>
<trkpt lat="32.868137360" lon="35.233989716">
  <ele>158.762939</ele>
  <time>2011-09-02T04:39:56Z</time>
  <speed>1.630000</speed>
</trkpt>
<trkpt lat="32.868164063" lon="35.234004974">
  <ele>159.868408</ele>
  <time>2011-09-02T04:40:23Z</time>
  <speed>0.960000</speed>
</trkpt>
<trkpt lat="32.868209839" lon="35.233997345">
  <ele>159.950439</ele>
  <time>2011-09-02T04:40:25Z</time>
  <speed>3.510000</speed>
</trkpt>
<trkpt lat="32.868255615" lon="35.234004974">
  <ele>160.884033</ele>
  <time>2011-09-02T04:40:26Z</time>
  <speed>3.670000</speed>
</trkpt>
<trkpt lat="32.868289948" lon="35.234004974">
  <ele>160.907471</ele>
  <time>2011-09-02T04:40:27Z</time>
  <speed>3.540000</speed>
</trkpt>
<trkpt lat="32.868324280" lon="35.234004974">
  <ele>160.790283</ele>
  <time>2011-09-02T04:40:28Z</time>
  <speed>3.420000</speed>
</trkpt>
<trkpt lat="32.868358612" lon="35.234001160">
  <ele>160.411377</ele>
  <time>2011-09-02T04:40:29Z</time>
  <speed>4.260000</speed>
</trkpt>
<trkpt lat="32.868404388" lon="35.234016418">
  <ele>159.083252</ele>
  <time>2011-09-02T04:40:30Z</time>
  <speed>5.280000</speed>
</trkpt>
<trkpt lat="32.868450165" lon="35.234039307">
  <ele>156.782471</ele>
  <time>2011-09-02T04:40:31Z</time>
  <speed>5.590000</speed>
</trkpt>
<trkpt lat="32.868495941" lon="35.234058380">
  <ele>155.430908</ele>
  <time>2011-09-02T04:40:32Z</time>
  <speed>5.500000</speed>
</trkpt>
<trkpt lat="32.868545532" lon="35.234081268">
  <ele>154.747314</ele>
  <time>2011-09-02T04:40:33Z</time>
  <speed>5.500000</speed>
</trkpt>
<trkpt lat="32.868587494" lon="35.234115601">
  <ele>153.954346</ele>
  <time>2011-09-02T04:40:34Z</time>
  <speed>5.440000</speed>
</trkpt>
<trkpt lat="32.868621826" lon="35.234157562">
  <ele>153.528564</ele>
  <time>2011-09-02T04:40:35Z</time>
  <speed>4.890000</speed>
</trkpt>
<trkpt lat="32.868648529" lon="35.234191895">
  <ele>154.524658</ele>
  <time>2011-09-02T04:40:36Z</time>
  <speed>4.390000</speed>
</trkpt>
<trkpt lat="32.868679047" lon="35.234230042">
  <ele>154.966064</ele>
  <time>2011-09-02T04:40:37Z</time>
  <speed>4.770000</speed>
</trkpt>
<trkpt lat="32.868701935" lon="35.234264374">
  <ele>154.661377</ele>
  <time>2011-09-02T04:40:38Z</time>
  <speed>4.480000</speed>
</trkpt>
<trkpt lat="32.868721008" lon="35.234298706">
  <ele>154.942627</ele>
  <time>2011-09-02T04:40:39Z</time>
  <speed>3.040000</speed>
</trkpt>
<trkpt lat="32.868740082" lon="35.234333038">
  <ele>155.759033</ele>
  <time>2011-09-02T04:40:40Z</time>
  <speed>3.100000</speed>
</trkpt>
<trkpt lat="32.868751526" lon="35.234371185">
  <ele>155.196533</ele>
  <time>2011-09-02T04:40:41Z</time>
  <speed>3.390000</speed>
</trkpt>
<trkpt lat="32.868762970" lon="35.234409332">
  <ele>154.735596</ele>
  <time>2011-09-02T04:40:42Z</time>
  <speed>3.910000</speed>
</trkpt>
<trkpt lat="32.868789673" lon="35.234455109">
  <ele>154.657471</ele>
  <time>2011-09-02T04:40:43Z</time>
  <speed>4.260000</speed>
</trkpt>
<trkpt lat="32.868793488" lon="35.234497070">
  <ele>154.430908</ele>
  <time>2011-09-02T04:40:44Z</time>
  <speed>3.780000</speed>
</trkpt>
<trkpt lat="32.868808746" lon="35.234535217">
  <ele>154.520752</ele>
  <time>2011-09-02T04:40:45Z</time>
  <speed>3.060000</speed>
</trkpt>
<trkpt lat="32.868831635" lon="35.234596252">
  <ele>154.634033</ele>
  <time>2011-09-02T04:40:47Z</time>
  <speed>3.330000</speed>
</trkpt>
<trkpt lat="32.868846893" lon="35.234626770">
  <ele>155.094971</ele>
  <time>2011-09-02T04:40:48Z</time>
  <speed>3.590000</speed>
</trkpt>
<trkpt lat="32.868869781" lon="35.234664917">
  <ele>155.067627</ele>
  <time>2011-09-02T04:40:49Z</time>
  <speed>4.330000</speed>
</trkpt>
<trkpt lat="32.868896484" lon="35.234710693">
  <ele>154.880127</ele>
  <time>2011-09-02T04:40:50Z</time>
  <speed>5.290000</speed>
</trkpt>
<trkpt lat="32.868927002" lon="35.234760284">
  <ele>154.587158</ele>
  <time>2011-09-02T04:40:51Z</time>
  <speed>5.710000</speed>
</trkpt>
<trkpt lat="32.868953705" lon="35.234817505">
  <ele>154.255127</ele>
  <time>2011-09-02T04:40:52Z</time>
  <speed>6.090000</speed>
</trkpt>
<trkpt lat="32.868984222" lon="35.234886169">
  <ele>154.239502</ele>
  <time>2011-09-02T04:40:53Z</time>
  <speed>6.460000</speed>
</trkpt>
<trkpt lat="32.869014740" lon="35.234951019">
  <ele>153.161377</ele>
  <time>2011-09-02T04:40:54Z</time>
  <speed>6.300000</speed>
</trkpt>
<trkpt lat="32.869041443" lon="35.235008240">
  <ele>152.571533</ele>
  <time>2011-09-02T04:40:55Z</time>
  <speed>5.860000</speed>
</trkpt>
<trkpt lat="32.869060516" lon="35.235065460">
  <ele>152.313721</ele>
  <time>2011-09-02T04:40:56Z</time>
  <speed>5.530000</speed>
</trkpt>
<trkpt lat="32.869075775" lon="35.235118866">
  <ele>151.899658</ele>
  <time>2011-09-02T04:40:57Z</time>
  <speed>5.150000</speed>
</trkpt>
<trkpt lat="32.869091034" lon="35.235168457">
  <ele>151.266846</ele>
  <time>2011-09-02T04:40:58Z</time>
  <speed>4.710000</speed>
</trkpt>
<trkpt lat="32.869106293" lon="35.235221863">
  <ele>151.223877</ele>
  <time>2011-09-02T04:40:59Z</time>
  <speed>3.750000</speed>
</trkpt>
<trkpt lat="32.869117737" lon="35.235256195">
  <ele>151.239502</ele>
  <time>2011-09-02T04:41:00Z</time>
  <speed>3.010000</speed>
</trkpt>
<trkpt lat="32.869117737" lon="35.235290527">
  <ele>150.833252</ele>
  <time>2011-09-02T04:41:01Z</time>
  <speed>3.290000</speed>
</trkpt>
<trkpt lat="32.869132996" lon="35.235324860">
  <ele>150.270752</ele>
  <time>2011-09-02T04:41:02Z</time>
  <speed>3.260000</speed>
</trkpt>
<trkpt lat="32.869148254" lon="35.235355377">
  <ele>149.907471</ele>
  <time>2011-09-02T04:41:03Z</time>
  <speed>3.150000</speed>
</trkpt>
<trkpt lat="32.869167328" lon="35.235401154">
  <ele>149.622314</ele>
  <time>2011-09-02T04:41:04Z</time>
  <speed>3.240000</speed>
</trkpt>
<trkpt lat="32.869136810" lon="35.235466003">
  <ele>150.087158</ele>
  <time>2011-09-02T04:41:05Z</time>
  <speed>2.660000</speed>
</trkpt>
<trkpt lat="32.869148254" lon="35.235527039">
  <ele>148.997314</ele>
  <time>2011-09-02T04:41:07Z</time>
  <speed>2.850000</speed>
</trkpt>
<trkpt lat="32.869159698" lon="35.235561371">
  <ele>148.290283</ele>
  <time>2011-09-02T04:41:08Z</time>
  <speed>2.900000</speed>
</trkpt>
<trkpt lat="32.869155884" lon="35.235595703">
  <ele>147.762939</ele>
  <time>2011-09-02T04:41:09Z</time>
  <speed>2.910000</speed>
</trkpt>
<trkpt lat="32.869132996" lon="35.235664368">
  <ele>146.915283</ele>
  <time>2011-09-02T04:41:11Z</time>
  <speed>2.930000</speed>
</trkpt>
<trkpt lat="32.869129181" lon="35.235691071">
  <ele>148.286377</ele>
  <time>2011-09-02T04:41:12Z</time>
  <speed>2.990000</speed>
</trkpt>
<trkpt lat="32.869106293" lon="35.235763550">
  <ele>148.790283</ele>
  <time>2011-09-02T04:41:14Z</time>
  <speed>3.210000</speed>
</trkpt>
<trkpt lat="32.869106293" lon="35.235824585">
  <ele>148.208252</ele>
  <time>2011-09-02T04:41:16Z</time>
  <speed>2.400000</speed>
</trkpt>
<trkpt lat="32.869091034" lon="35.235866547">
  <ele>148.887939</ele>
  <time>2011-09-02T04:41:17Z</time>
  <speed>3.310000</speed>
</trkpt>
<trkpt lat="32.869087219" lon="35.235904694">
  <ele>149.407471</ele>
  <time>2011-09-02T04:41:18Z</time>
  <speed>3.790000</speed>
</trkpt>
<trkpt lat="32.869091034" lon="35.235942841">
  <ele>148.778564</ele>
  <time>2011-09-02T04:41:19Z</time>
  <speed>3.060000</speed>
</trkpt>
<trkpt lat="32.869091034" lon="35.235980988">
  <ele>148.856689</ele>
  <time>2011-09-02T04:41:20Z</time>
  <speed>3.650000</speed>
</trkpt>
<trkpt lat="32.869071960" lon="35.236030579">
  <ele>148.899658</ele>
  <time>2011-09-02T04:41:21Z</time>
  <speed>3.640000</speed>
</trkpt>
<trkpt lat="32.869071960" lon="35.236064911">
  <ele>148.188721</ele>
  <time>2011-09-02T04:41:22Z</time>
  <speed>3.720000</speed>
</trkpt>
<trkpt lat="32.869071960" lon="35.236099243">
  <ele>147.927002</ele>
  <time>2011-09-02T04:41:23Z</time>
  <speed>2.600000</speed>
</trkpt>
<trkpt lat="32.869060516" lon="35.236156464">
  <ele>148.122314</ele>
  <time>2011-09-02T04:41:24Z</time>
  <speed>2.380000</speed>
</trkpt>
<trkpt lat="32.869075775" lon="35.236206055">
  <ele>147.485596</ele>
  <time>2011-09-02T04:41:26Z</time>
  <speed>2.170000</speed>
</trkpt>
<trkpt lat="32.869087219" lon="35.236244202">
  <ele>147.548096</ele>
  <time>2011-09-02T04:41:27Z</time>
  <speed>2.650000</speed>
</trkpt>
<trkpt lat="32.869110107" lon="35.236301422">
  <ele>147.157471</ele>
  <time>2011-09-02T04:41:29Z</time>
  <speed>2.930000</speed>
</trkpt>
<trkpt lat="32.869110107" lon="35.236343384">
  <ele>146.677002</ele>
  <time>2011-09-02T04:41:30Z</time>
  <speed>3.480000</speed>
</trkpt>
<trkpt lat="32.869121552" lon="35.236373901">
  <ele>146.895752</ele>
  <time>2011-09-02T04:41:31Z</time>
  <speed>3.190000</speed>
</trkpt>
<trkpt lat="32.869117737" lon="35.236419678">
  <ele>146.731689</ele>
  <time>2011-09-02T04:41:32Z</time>
  <speed>3.630000</speed>
</trkpt>
<trkpt lat="32.869117737" lon="35.236461639">
  <ele>146.743408</ele>
  <time>2011-09-02T04:41:33Z</time>
  <speed>3.610000</speed>
</trkpt>
<trkpt lat="32.869121552" lon="35.236495972">
  <ele>147.040283</ele>
  <time>2011-09-02T04:41:34Z</time>
  <speed>3.740000</speed>
</trkpt>
<trkpt lat="32.869117737" lon="35.236545563">
  <ele>147.153564</ele>
  <time>2011-09-02T04:41:35Z</time>
  <speed>3.750000</speed>
</trkpt>
<trkpt lat="32.869113922" lon="35.236587524">
  <ele>146.751221</ele>
  <time>2011-09-02T04:41:36Z</time>
  <speed>3.320000</speed>
</trkpt>
<trkpt lat="32.869117737" lon="35.236625671">
  <ele>146.333252</ele>
  <time>2011-09-02T04:41:37Z</time>
  <speed>3.020000</speed>
</trkpt>
<trkpt lat="32.869132996" lon="35.236663818">
  <ele>146.188721</ele>
  <time>2011-09-02T04:41:38Z</time>
  <speed>2.780000</speed>
</trkpt>
<trkpt lat="32.869132996" lon="35.236701965">
  <ele>146.040283</ele>
  <time>2011-09-02T04:41:39Z</time>
  <speed>2.930000</speed>
</trkpt>
<trkpt lat="32.869125366" lon="35.236774445">
  <ele>146.262939</ele>
  <time>2011-09-02T04:41:41Z</time>
  <speed>2.920000</speed>
</trkpt>
<trkpt lat="32.869121552" lon="35.236835480">
  <ele>146.704346</ele>
  <time>2011-09-02T04:41:43Z</time>
  <speed>2.850000</speed>
</trkpt>
<trkpt lat="32.869129181" lon="35.236896515">
  <ele>146.430908</ele>
  <time>2011-09-02T04:41:45Z</time>
  <speed>2.340000</speed>
</trkpt>
<trkpt lat="32.869129181" lon="35.236930847">
  <ele>147.360596</ele>
  <time>2011-09-02T04:41:47Z</time>
  <speed>1.940000</speed>
</trkpt>
<trkpt lat="32.869113922" lon="35.236968994">
  <ele>148.364502</ele>
  <time>2011-09-02T04:41:48Z</time>
  <speed>1.210000</speed>
</trkpt>
<trkpt lat="32.869140625" lon="35.236995697">
  <ele>149.411377</ele>
  <time>2011-09-02T04:41:50Z</time>
  <speed>1.220000</speed>
</trkpt>
<trkpt lat="32.869140625" lon="35.237033844">
  <ele>150.294189</ele>
  <time>2011-09-02T04:41:52Z</time>
  <speed>0.720000</speed>
</trkpt>
<trkpt lat="32.869125366" lon="35.237075806">
  <ele>149.716064</ele>
  <time>2011-09-02T04:41:55Z</time>
  <speed>1.370000</speed>
</trkpt>
<trkpt lat="32.869113922" lon="35.237113953">
  <ele>150.719971</ele>
  <time>2011-09-02T04:41:58Z</time>
  <speed>1.500000</speed>
</trkpt>
<trkpt lat="32.869163513" lon="35.237152100">
  <ele>152.391846</ele>
  <time>2011-09-02T04:42:00Z</time>
  <speed>0.580000</speed>
</trkpt>
<trkpt lat="32.869152069" lon="35.237190247">
  <ele>152.477783</ele>
  <time>2011-09-02T04:42:03Z</time>
  <speed>0.960000</speed>
</trkpt>
<trkpt lat="32.869136810" lon="35.237243652">
  <ele>153.325439</ele>
  <time>2011-09-02T04:42:07Z</time>
  <speed>1.030000</speed>
</trkpt>
<trkpt lat="32.869110107" lon="35.237304688">
  <ele>153.762939</ele>
  <time>2011-09-02T04:42:09Z</time>
  <speed>1.630000</speed>
</trkpt>
<trkpt lat="32.869094849" lon="35.237339020">
  <ele>154.106689</ele>
  <time>2011-09-02T04:42:10Z</time>
  <speed>1.700000</speed>
</trkpt>
<trkpt lat="32.869079590" lon="35.237369537">
  <ele>154.028564</ele>
  <time>2011-09-02T04:42:12Z</time>
  <speed>1.510000</speed>
</trkpt>
<trkpt lat="32.869060516" lon="35.237426758">
  <ele>153.614502</ele>
  <time>2011-09-02T04:42:15Z</time>
  <speed>0.950000</speed>
</trkpt>
<trkpt lat="32.869060516" lon="35.237461090">
  <ele>154.680908</ele>
  <time>2011-09-02T04:42:16Z</time>
  <speed>1.020000</speed>
</trkpt>
<trkpt lat="32.869091034" lon="35.237495422">
  <ele>155.805908</ele>
  <time>2011-09-02T04:42:18Z</time>
  <speed>0.960000</speed>
</trkpt>
<trkpt lat="32.869083405" lon="35.237522125">
  <ele>157.059814</ele>
  <time>2011-09-02T04:42:21Z</time>
  <speed>1.020000</speed>
</trkpt>
<trkpt lat="32.869091034" lon="35.237567902">
  <ele>157.950439</ele>
  <time>2011-09-02T04:42:23Z</time>
  <speed>1.220000</speed>
</trkpt>
<trkpt lat="32.869110107" lon="35.237586975">
  <ele>158.856689</ele>
  <time>2011-09-02T04:42:25Z</time>
  <speed>1.370000</speed>
</trkpt>
<trkpt lat="32.869121552" lon="35.237628937">
  <ele>159.923096</ele>
  <time>2011-09-02T04:42:27Z</time>
  <speed>1.150000</speed>
</trkpt>
<trkpt lat="32.869132996" lon="35.237667084">
  <ele>160.630127</ele>
  <time>2011-09-02T04:42:30Z</time>
  <speed>1.220000</speed>
</trkpt>
<trkpt lat="32.869140625" lon="35.237697601">
  <ele>161.583252</ele>
  <time>2011-09-02T04:42:32Z</time>
  <speed>1.370000</speed>
</trkpt>
<trkpt lat="32.869167328" lon="35.237724304">
  <ele>163.223877</ele>
  <time>2011-09-02T04:42:34Z</time>
  <speed>1.820000</speed>
</trkpt>
<trkpt lat="32.869182587" lon="35.237770081">
  <ele>163.766846</ele>
  <time>2011-09-02T04:42:36Z</time>
  <speed>1.670000</speed>
</trkpt>
<trkpt lat="32.869201660" lon="35.237804413">
  <ele>163.641846</ele>
  <time>2011-09-02T04:42:38Z</time>
  <speed>1.840000</speed>
</trkpt>
<trkpt lat="32.869205475" lon="35.237846375">
  <ele>165.403564</ele>
  <time>2011-09-02T04:42:40Z</time>
  <speed>1.900000</speed>
</trkpt>
<trkpt lat="32.869213104" lon="35.237907410">
  <ele>166.774658</ele>
  <time>2011-09-02T04:42:42Z</time>
  <speed>2.920000</speed>
</trkpt>
<trkpt lat="32.869224548" lon="35.237941742">
  <ele>168.309814</ele>
  <time>2011-09-02T04:42:43Z</time>
  <speed>3.190000</speed>
</trkpt>
<trkpt lat="32.869235992" lon="35.237979889">
  <ele>169.294189</ele>
  <time>2011-09-02T04:42:44Z</time>
  <speed>3.470000</speed>
</trkpt>
<trkpt lat="32.869243622" lon="35.238010406">
  <ele>169.969971</ele>
  <time>2011-09-02T04:42:45Z</time>
  <speed>2.630000</speed>
</trkpt>
<trkpt lat="32.869266510" lon="35.238040924">
  <ele>170.259033</ele>
  <time>2011-09-02T04:42:46Z</time>
  <speed>2.530000</speed>
</trkpt>
<trkpt lat="32.869277954" lon="35.238094330">
  <ele>171.536377</ele>
  <time>2011-09-02T04:42:48Z</time>
  <speed>1.940000</speed>
</trkpt>
<trkpt lat="32.869289398" lon="35.238151550">
  <ele>172.130127</ele>
  <time>2011-09-02T04:42:50Z</time>
  <speed>2.120000</speed>
</trkpt>
<trkpt lat="32.869285583" lon="35.238182068">
  <ele>172.583252</ele>
  <time>2011-09-02T04:42:51Z</time>
  <speed>2.800000</speed>
</trkpt>
<trkpt lat="32.869277954" lon="35.238216400">
  <ele>172.376221</ele>
  <time>2011-09-02T04:42:52Z</time>
  <speed>3.310000</speed>
</trkpt>
<trkpt lat="32.869270325" lon="35.238250732">
  <ele>172.567627</ele>
  <time>2011-09-02T04:42:53Z</time>
  <speed>3.570000</speed>
</trkpt>
<trkpt lat="32.869262695" lon="35.238288879">
  <ele>172.204346</ele>
  <time>2011-09-02T04:42:54Z</time>
  <speed>3.350000</speed>
</trkpt>
<trkpt lat="32.869255066" lon="35.238323212">
  <ele>172.067627</ele>
  <time>2011-09-02T04:42:55Z</time>
  <speed>2.560000</speed>
</trkpt>
<trkpt lat="32.869258881" lon="35.238365173">
  <ele>172.884033</ele>
  <time>2011-09-02T04:42:57Z</time>
  <speed>1.690000</speed>
</trkpt>
<trkpt lat="32.869239807" lon="35.238414764">
  <ele>172.184814</ele>
  <time>2011-09-02T04:42:59Z</time>
  <speed>2.090000</speed>
</trkpt>
<trkpt lat="32.869224548" lon="35.238456726">
  <ele>172.266846</ele>
  <time>2011-09-02T04:43:01Z</time>
  <speed>2.060000</speed>
</trkpt>
<trkpt lat="32.869209290" lon="35.238494873">
  <ele>172.247314</ele>
  <time>2011-09-02T04:43:03Z</time>
  <speed>1.640000</speed>
</trkpt>
<trkpt lat="32.869190216" lon="35.238536835">
  <ele>170.610596</ele>
  <time>2011-09-02T04:43:05Z</time>
  <speed>1.960000</speed>
</trkpt>
<trkpt lat="32.869174957" lon="35.238563538">
  <ele>170.618408</ele>
  <time>2011-09-02T04:43:06Z</time>
  <speed>2.060000</speed>
</trkpt>
<trkpt lat="32.869152069" lon="35.238605499">
  <ele>171.192627</ele>
  <time>2011-09-02T04:43:07Z</time>
  <speed>2.030000</speed>
</trkpt>
<trkpt lat="32.869148254" lon="35.238651276">
  <ele>171.719971</ele>
  <time>2011-09-02T04:43:09Z</time>
  <speed>2.390000</speed>
</trkpt>
<trkpt lat="32.869132996" lon="35.238693237">
  <ele>171.141846</ele>
  <time>2011-09-02T04:43:10Z</time>
  <speed>3.570000</speed>
</trkpt>
<trkpt lat="32.869121552" lon="35.238727570">
  <ele>171.384033</ele>
  <time>2011-09-02T04:43:11Z</time>
  <speed>3.800000</speed>
</trkpt>
<trkpt lat="32.869125366" lon="35.238765717">
  <ele>171.313721</ele>
  <time>2011-09-02T04:43:12Z</time>
  <speed>3.440000</speed>
</trkpt>
<trkpt lat="32.869117737" lon="35.238830566">
  <ele>171.411377</ele>
  <time>2011-09-02T04:43:14Z</time>
  <speed>3.600000</speed>
</trkpt>
<trkpt lat="32.869102478" lon="35.238864899">
  <ele>171.536377</ele>
  <time>2011-09-02T04:43:15Z</time>
  <speed>3.140000</speed>
</trkpt>
<trkpt lat="32.869079590" lon="35.238906860">
  <ele>172.423096</ele>
  <time>2011-09-02T04:43:16Z</time>
  <speed>3.600000</speed>
</trkpt>
<trkpt lat="32.869068146" lon="35.238937378">
  <ele>172.719971</ele>
  <time>2011-09-02T04:43:17Z</time>
  <speed>3.170000</speed>
</trkpt>
<trkpt lat="32.869052887" lon="35.238971710">
  <ele>172.555908</ele>
  <time>2011-09-02T04:43:18Z</time>
  <speed>3.210000</speed>
</trkpt>
<trkpt lat="32.869041443" lon="35.239009857">
  <ele>172.360596</ele>
  <time>2011-09-02T04:43:19Z</time>
  <speed>3.480000</speed>
</trkpt>
<trkpt lat="32.869037628" lon="35.239044189">
  <ele>171.559814</ele>
  <time>2011-09-02T04:43:20Z</time>
  <speed>3.530000</speed>
</trkpt>
<trkpt lat="32.869029999" lon="35.239082336">
  <ele>171.462158</ele>
  <time>2011-09-02T04:43:21Z</time>
  <speed>3.650000</speed>
</trkpt>
<trkpt lat="32.869029999" lon="35.239124298">
  <ele>171.618408</ele>
  <time>2011-09-02T04:43:22Z</time>
  <speed>3.840000</speed>
</trkpt>
<trkpt lat="32.869029999" lon="35.239173889">
  <ele>171.028564</ele>
  <time>2011-09-02T04:43:23Z</time>
  <speed>4.580000</speed>
</trkpt>
<trkpt lat="32.869064331" lon="35.239234924">
  <ele>170.337158</ele>
  <time>2011-09-02T04:43:24Z</time>
  <speed>6.080000</speed>
</trkpt>
<trkpt lat="32.869060516" lon="35.239295959">
  <ele>169.919189</ele>
  <time>2011-09-02T04:43:25Z</time>
  <speed>4.870000</speed>
</trkpt>
<trkpt lat="32.869045258" lon="35.239349365">
  <ele>170.532471</ele>
  <time>2011-09-02T04:43:26Z</time>
  <speed>3.120000</speed>
</trkpt>
<trkpt lat="32.869026184" lon="35.239383698">
  <ele>169.626221</ele>
  <time>2011-09-02T04:43:27Z</time>
  <speed>3.180000</speed>
</trkpt>
<trkpt lat="32.869041443" lon="35.239429474">
  <ele>169.036377</ele>
  <time>2011-09-02T04:43:28Z</time>
  <speed>3.010000</speed>
</trkpt>
<trkpt lat="32.869018555" lon="35.239509583">
  <ele>168.173096</ele>
  <time>2011-09-02T04:43:30Z</time>
  <speed>4.000000</speed>
</trkpt>
<trkpt lat="32.869010925" lon="35.239543915">
  <ele>167.856689</ele>
  <time>2011-09-02T04:43:31Z</time>
  <speed>3.200000</speed>
</trkpt>
<trkpt lat="32.868991852" lon="35.239582062">
  <ele>167.872314</ele>
  <time>2011-09-02T04:43:32Z</time>
  <speed>2.910000</speed>
</trkpt>
<trkpt lat="32.868976593" lon="35.239612579">
  <ele>166.688721</ele>
  <time>2011-09-02T04:43:34Z</time>
  <speed>1.110000</speed>
</trkpt>
<trkpt lat="32.868938446" lon="35.239658356">
  <ele>166.052002</ele>
  <time>2011-09-02T04:43:37Z</time>
  <speed>2.240000</speed>
</trkpt>
<trkpt lat="32.868900299" lon="35.239704132">
  <ele>164.930908</ele>
  <time>2011-09-02T04:43:39Z</time>
  <speed>2.740000</speed>
</trkpt>
<trkpt lat="32.868877411" lon="35.239730835">
  <ele>164.927002</ele>
  <time>2011-09-02T04:43:41Z</time>
  <speed>1.910000</speed>
</trkpt>
<trkpt lat="32.868839264" lon="35.239788055">
  <ele>165.227783</ele>
  <time>2011-09-02T04:43:43Z</time>
  <speed>2.300000</speed>
</trkpt>
<trkpt lat="32.868827820" lon="35.239818573">
  <ele>164.848877</ele>
  <time>2011-09-02T04:43:44Z</time>
  <speed>2.190000</speed>
</trkpt>
<trkpt lat="32.868804932" lon="35.239871979">
  <ele>165.130127</ele>
  <time>2011-09-02T04:43:46Z</time>
  <speed>2.520000</speed>
</trkpt>
<trkpt lat="32.868793488" lon="35.239921570">
  <ele>165.016846</ele>
  <time>2011-09-02T04:43:48Z</time>
  <speed>2.220000</speed>
</trkpt>
<trkpt lat="32.868770599" lon="35.239967346">
  <ele>164.700439</ele>
  <time>2011-09-02T04:43:50Z</time>
  <speed>2.080000</speed>
</trkpt>
<trkpt lat="32.868762970" lon="35.239997864">
  <ele>165.212158</ele>
  <time>2011-09-02T04:43:51Z</time>
  <speed>1.590000</speed>
</trkpt>
<trkpt lat="32.868740082" lon="35.240047455">
  <ele>166.298096</ele>
  <time>2011-09-02T04:43:53Z</time>
  <speed>1.510000</speed>
</trkpt>
<trkpt lat="32.868732452" lon="35.240097046">
  <ele>168.005127</ele>
  <time>2011-09-02T04:43:55Z</time>
  <speed>1.940000</speed>
</trkpt>
<trkpt lat="32.868747711" lon="35.240127563">
  <ele>169.266846</ele>
  <time>2011-09-02T04:43:56Z</time>
  <speed>1.900000</speed>
</trkpt>
<trkpt lat="32.868728638" lon="35.240154266">
  <ele>169.766846</ele>
  <time>2011-09-02T04:43:57Z</time>
  <speed>1.600000</speed>
</trkpt>
<trkpt lat="32.868717194" lon="35.240180969">
  <ele>169.923096</ele>
  <time>2011-09-02T04:43:58Z</time>
  <speed>1.710000</speed>
</trkpt>
<trkpt lat="32.868694305" lon="35.240226746">
  <ele>171.118408</ele>
  <time>2011-09-02T04:44:00Z</time>
  <speed>1.430000</speed>
</trkpt>
<trkpt lat="32.868690491" lon="35.240264893">
  <ele>171.489502</ele>
  <time>2011-09-02T04:44:02Z</time>
  <speed>2.100000</speed>
</trkpt>
<trkpt lat="32.868679047" lon="35.240299225">
  <ele>171.774658</ele>
  <time>2011-09-02T04:44:04Z</time>
  <speed>2.190000</speed>
</trkpt>
<trkpt lat="32.868667603" lon="35.240329742">
  <ele>171.985596</ele>
  <time>2011-09-02T04:44:05Z</time>
  <speed>2.810000</speed>
</trkpt>
<trkpt lat="32.868667603" lon="35.240360260">
  <ele>171.798096</ele>
  <time>2011-09-02T04:44:06Z</time>
  <speed>2.590000</speed>
</trkpt>
<trkpt lat="32.868671417" lon="35.240428925">
  <ele>171.399658</ele>
  <time>2011-09-02T04:44:08Z</time>
  <speed>3.760000</speed>
</trkpt>
<trkpt lat="32.868663788" lon="35.240467072">
  <ele>171.196533</ele>
  <time>2011-09-02T04:44:09Z</time>
  <speed>4.330000</speed>
</trkpt>
<trkpt lat="32.868648529" lon="35.240516663">
  <ele>170.989502</ele>
  <time>2011-09-02T04:44:10Z</time>
  <speed>4.780000</speed>
</trkpt>
<trkpt lat="32.868633270" lon="35.240558624">
  <ele>171.509033</ele>
  <time>2011-09-02T04:44:11Z</time>
  <speed>3.620000</speed>
</trkpt>
<trkpt lat="32.868621826" lon="35.240589142">
  <ele>171.606689</ele>
  <time>2011-09-02T04:44:12Z</time>
  <speed>2.920000</speed>
</trkpt>
<trkpt lat="32.868595123" lon="35.240638733">
  <ele>171.360596</ele>
  <time>2011-09-02T04:44:14Z</time>
  <speed>2.450000</speed>
</trkpt>
<trkpt lat="32.868583679" lon="35.240673065">
  <ele>171.087158</ele>
  <time>2011-09-02T04:44:16Z</time>
  <speed>1.550000</speed>
</trkpt>
<trkpt lat="32.868583679" lon="35.240707397">
  <ele>171.919189</ele>
  <time>2011-09-02T04:44:18Z</time>
  <speed>2.300000</speed>
</trkpt>
<trkpt lat="32.868572235" lon="35.240756989">
  <ele>171.415283</ele>
  <time>2011-09-02T04:44:20Z</time>
  <speed>2.350000</speed>
</trkpt>
<trkpt lat="32.868553162" lon="35.240810394">
  <ele>171.184814</ele>
  <time>2011-09-02T04:44:22Z</time>
  <speed>1.580000</speed>
</trkpt>
<trkpt lat="32.868545532" lon="35.240852356">
  <ele>171.563721</ele>
  <time>2011-09-02T04:44:24Z</time>
  <speed>1.810000</speed>
</trkpt>
<trkpt lat="32.868534088" lon="35.240890503">
  <ele>172.122314</ele>
  <time>2011-09-02T04:44:26Z</time>
  <speed>1.410000</speed>
</trkpt>
<trkpt lat="32.868515015" lon="35.240936279">
  <ele>172.048096</ele>
  <time>2011-09-02T04:44:28Z</time>
  <speed>2.080000</speed>
</trkpt>
<trkpt lat="32.868507385" lon="35.240978241">
  <ele>171.735596</ele>
  <time>2011-09-02T04:44:31Z</time>
  <speed>1.770000</speed>
</trkpt>
<trkpt lat="32.868499756" lon="35.241012573">
  <ele>172.059814</ele>
  <time>2011-09-02T04:44:33Z</time>
  <speed>1.460000</speed>
</trkpt>
<trkpt lat="32.868484497" lon="35.241046906">
  <ele>172.059814</ele>
  <time>2011-09-02T04:44:35Z</time>
  <speed>1.460000</speed>
</trkpt>
<trkpt lat="32.868476868" lon="35.241088867">
  <ele>173.052002</ele>
  <time>2011-09-02T04:44:37Z</time>
  <speed>1.180000</speed>
</trkpt>
<trkpt lat="32.868492126" lon="35.241134644">
  <ele>173.059814</ele>
  <time>2011-09-02T04:44:39Z</time>
  <speed>2.150000</speed>
</trkpt>
<trkpt lat="32.868511200" lon="35.241184235">
  <ele>172.895752</ele>
  <time>2011-09-02T04:44:41Z</time>
  <speed>2.700000</speed>
</trkpt>
<trkpt lat="32.868518829" lon="35.241218567">
  <ele>172.868408</ele>
  <time>2011-09-02T04:44:42Z</time>
  <speed>3.030000</speed>
</trkpt>
<trkpt lat="32.868522644" lon="35.241275787">
  <ele>172.848877</ele>
  <time>2011-09-02T04:44:44Z</time>
  <speed>2.830000</speed>
</trkpt>
<trkpt lat="32.868507385" lon="35.241329193">
  <ele>173.192627</ele>
  <time>2011-09-02T04:44:46Z</time>
  <speed>1.660000</speed>
</trkpt>
<trkpt lat="32.868507385" lon="35.241374969">
  <ele>173.884033</ele>
  <time>2011-09-02T04:44:48Z</time>
  <speed>1.240000</speed>
</trkpt>
<trkpt lat="32.868495941" lon="35.241409302">
  <ele>173.141846</ele>
  <time>2011-09-02T04:44:51Z</time>
  <speed>1.260000</speed>
</trkpt>
<trkpt lat="32.868484497" lon="35.241378784">
  <ele>172.364502</ele>
  <time>2011-09-02T04:44:53Z</time>
  <speed>1.140000</speed>
</trkpt>
<trkpt lat="32.868480682" lon="35.241333008">
  <ele>173.173096</ele>
  <time>2011-09-02T04:44:55Z</time>
  <speed>1.700000</speed>
</trkpt>
<trkpt lat="32.868488312" lon="35.241298676">
  <ele>173.575439</ele>
  <time>2011-09-02T04:44:56Z</time>
  <speed>1.830000</speed>
</trkpt>
<trkpt lat="32.868492126" lon="35.241268158">
  <ele>174.083252</ele>
  <time>2011-09-02T04:44:57Z</time>
  <speed>1.380000</speed>
</trkpt>
<trkpt lat="32.868484497" lon="35.241226196">
  <ele>173.973877</ele>
  <time>2011-09-02T04:44:59Z</time>
  <speed>1.340000</speed>
</trkpt>
<trkpt lat="32.868476868" lon="35.241172791">
  <ele>174.950439</ele>
  <time>2011-09-02T04:45:02Z</time>
  <speed>1.070000</speed>
</trkpt>
<trkpt lat="32.868476868" lon="35.241138458">
  <ele>175.059814</ele>
  <time>2011-09-02T04:45:04Z</time>
  <speed>0.820000</speed>
</trkpt>
<trkpt lat="32.868465424" lon="35.241107941">
  <ele>175.118408</ele>
  <time>2011-09-02T04:45:07Z</time>
  <speed>0.780000</speed>
</trkpt>
<trkpt lat="32.868457794" lon="35.241073608">
  <ele>175.239502</ele>
  <time>2011-09-02T04:45:10Z</time>
  <speed>0.970000</speed>
</trkpt>
<trkpt lat="32.868473053" lon="35.241024017">
  <ele>175.567627</ele>
  <time>2011-09-02T04:45:12Z</time>
  <speed>1.770000</speed>
</trkpt>
<trkpt lat="32.868480682" lon="35.240989685">
  <ele>176.075439</ele>
  <time>2011-09-02T04:45:13Z</time>
  <speed>1.270000</speed>
</trkpt>
<trkpt lat="32.868480682" lon="35.240955353">
  <ele>176.134033</ele>
  <time>2011-09-02T04:45:15Z</time>
  <speed>1.340000</speed>
</trkpt>
<trkpt lat="32.868469238" lon="35.240921021">
  <ele>175.915283</ele>
  <time>2011-09-02T04:45:18Z</time>
  <speed>1.160000</speed>
</trkpt>
<trkpt lat="32.868484497" lon="35.240894318">
  <ele>177.305908</ele>
  <time>2011-09-02T04:45:20Z</time>
  <speed>1.140000</speed>
</trkpt>
<trkpt lat="32.868476868" lon="35.240844727">
  <ele>177.602783</ele>
  <time>2011-09-02T04:45:23Z</time>
  <speed>1.110000</speed>
</trkpt>
<trkpt lat="32.868473053" lon="35.240810394">
  <ele>177.759033</ele>
  <time>2011-09-02T04:45:25Z</time>
  <speed>1.300000</speed>
</trkpt>
<trkpt lat="32.868473053" lon="35.240772247">
  <ele>177.989502</ele>
  <time>2011-09-02T04:45:28Z</time>
  <speed>0.830000</speed>
</trkpt>
<trkpt lat="32.868469238" lon="35.240730286">
  <ele>178.071533</ele>
  <time>2011-09-02T04:45:31Z</time>
  <speed>0.750000</speed>
</trkpt>
<trkpt lat="32.868453979" lon="35.240695953">
  <ele>178.403564</ele>
  <time>2011-09-02T04:45:33Z</time>
  <speed>1.110000</speed>
</trkpt>
<trkpt lat="32.868446350" lon="35.240653992">
  <ele>178.380127</ele>
  <time>2011-09-02T04:45:36Z</time>
  <speed>1.290000</speed>
</trkpt>
<trkpt lat="32.868457794" lon="35.240619659">
  <ele>179.239502</ele>
  <time>2011-09-02T04:45:39Z</time>
  <speed>0.770000</speed>
</trkpt>
<trkpt lat="32.868450165" lon="35.240589142">
  <ele>178.825439</ele>
  <time>2011-09-02T04:45:43Z</time>
  <speed>0.810000</speed>
</trkpt>
<trkpt lat="32.868438721" lon="35.240550995">
  <ele>178.563721</ele>
  <time>2011-09-02T04:45:47Z</time>
  <speed>0.530000</speed>
</trkpt>
<trkpt lat="32.868427277" lon="35.240516663">
  <ele>178.688721</ele>
  <time>2011-09-02T04:45:48Z</time>
  <speed>0.850000</speed>
</trkpt>
<trkpt lat="32.868415833" lon="35.240467072">
  <ele>179.016846</ele>
  <time>2011-09-02T04:45:49Z</time>
  <speed>1.110000</speed>
</trkpt>
<trkpt lat="32.868415833" lon="35.240425110">
  <ele>178.594971</ele>
  <time>2011-09-02T04:45:51Z</time>
  <speed>0.890000</speed>
</trkpt>
<trkpt lat="32.868404388" lon="35.240394592">
  <ele>178.309814</ele>
  <time>2011-09-02T04:45:53Z</time>
  <speed>0.920000</speed>
</trkpt>
<trkpt lat="32.868400574" lon="35.240348816">
  <ele>177.981689</ele>
  <time>2011-09-02T04:45:56Z</time>
  <speed>0.850000</speed>
</trkpt>
<trkpt lat="32.868434906" lon="35.240325928">
  <ele>178.118408</ele>
  <time>2011-09-02T04:45:59Z</time>
  <speed>0.650000</speed>
</trkpt>
<trkpt lat="32.868419647" lon="35.240348816">
  <ele>177.587158</ele>
  <time>2011-09-02T04:46:12Z</time>
  <speed>0.080000</speed>
</trkpt>
<trkpt lat="32.868400574" lon="35.240371704">
  <ele>179.020752</ele>
  <time>2011-09-02T04:48:05Z</time>
  <speed>0.060000</speed>
</trkpt>
<trkpt lat="32.868377686" lon="35.240390778">
  <ele>179.173096</ele>
  <time>2011-09-02T04:48:23Z</time>
  <speed>0.210000</speed>
</trkpt>
<trkpt lat="32.868350983" lon="35.240402222">
  <ele>179.282471</ele>
  <time>2011-09-02T04:48:35Z</time>
  <speed>0.260000</speed>
</trkpt>
<trkpt lat="32.868328094" lon="35.240413666">
  <ele>180.360596</ele>
  <time>2011-09-02T04:48:52Z</time>
  <speed>0.060000</speed>
</trkpt>
<trkpt lat="32.868328094" lon="35.240421295">
  <ele>183.391846</ele>
  <time>2011-09-02T04:49:11Z</time>
  <speed>0.110000</speed>
</trkpt>
<trkpt lat="32.868316650" lon="35.240432739">
  <ele>185.923096</ele>
  <time>2011-09-02T04:49:36Z</time>
  <speed>0.140000</speed>
</trkpt>
<trkpt lat="32.868305206" lon="35.240432739">
  <ele>188.614502</ele>
  <time>2011-09-02T04:50:00Z</time>
  <speed>0.130000</speed>
</trkpt>
<trkpt lat="32.868328094" lon="35.240390778">
  <ele>190.333252</ele>
  <time>2011-09-02T04:50:09Z</time>
  <speed>0.520000</speed>
</trkpt>
<trkpt lat="32.868343353" lon="35.240360260">
  <ele>190.466064</ele>
  <time>2011-09-02T04:50:10Z</time>
  <speed>0.880000</speed>
</trkpt>
<trkpt lat="32.868354797" lon="35.240333557">
  <ele>190.634033</ele>
  <time>2011-09-02T04:50:11Z</time>
  <speed>0.820000</speed>
</trkpt>
<trkpt lat="32.868370056" lon="35.240291595">
  <ele>191.067627</ele>
  <time>2011-09-02T04:50:13Z</time>
  <speed>1.050000</speed>
</trkpt>
<trkpt lat="32.868373871" lon="35.240245819">
  <ele>191.891846</ele>
  <time>2011-09-02T04:50:15Z</time>
  <speed>0.730000</speed>
</trkpt>
<trkpt lat="32.868377686" lon="35.240200043">
  <ele>192.571533</ele>
  <time>2011-09-02T04:50:18Z</time>
  <speed>0.750000</speed>
</trkpt>
<trkpt lat="32.868385315" lon="35.240154266">
  <ele>192.434814</ele>
  <time>2011-09-02T04:50:21Z</time>
  <speed>0.910000</speed>
</trkpt>
<trkpt lat="32.868377686" lon="35.240119934">
  <ele>192.798096</ele>
  <time>2011-09-02T04:50:25Z</time>
  <speed>0.690000</speed>
</trkpt>
<trkpt lat="32.868370056" lon="35.240081787">
  <ele>193.380127</ele>
  <time>2011-09-02T04:50:29Z</time>
  <speed>0.490000</speed>
</trkpt>
<trkpt lat="32.868377686" lon="35.240043640">
  <ele>194.028564</ele>
  <time>2011-09-02T04:50:32Z</time>
  <speed>0.840000</speed>
</trkpt>
<trkpt lat="32.868373871" lon="35.240005493">
  <ele>193.802002</ele>
  <time>2011-09-02T04:50:38Z</time>
  <speed>0.130000</speed>
</trkpt>
<trkpt lat="32.868343353" lon="35.240013123">
  <ele>195.102783</ele>
  <time>2011-09-02T04:52:02Z</time>
  <speed>0.110000</speed>
</trkpt>
<trkpt lat="32.868354797" lon="35.240028381">
  <ele>197.555908</ele>
  <time>2011-09-02T04:52:11Z</time>
  <speed>0.060000</speed>
</trkpt>
<trkpt lat="32.868385315" lon="35.240032196">
  <ele>197.446533</ele>
  <time>2011-09-02T04:52:14Z</time>
  <speed>0.100000</speed>
</trkpt>
<trkpt lat="32.868419647" lon="35.240020752">
  <ele>196.950439</ele>
  <time>2011-09-02T04:52:16Z</time>
  <speed>0.180000</speed>
</trkpt>
<trkpt lat="32.868453979" lon="35.240028381">
  <ele>196.243408</ele>
  <time>2011-09-02T04:52:18Z</time>
  <speed>0.150000</speed>
</trkpt>
<trkpt lat="32.868484497" lon="35.240051270">
  <ele>195.356689</ele>
  <time>2011-09-02T04:52:21Z</time>
  <speed>0.140000</speed>
</trkpt>
<trkpt lat="32.868438721" lon="35.240043640">
  <ele>195.817627</ele>
  <time>2011-09-02T04:52:24Z</time>
  <speed>0.150000</speed>
</trkpt>
<trkpt lat="32.868412018" lon="35.240039825">
  <ele>196.098877</ele>
  <time>2011-09-02T04:52:25Z</time>
  <speed>0.260000</speed>
</trkpt>
<trkpt lat="32.868354797" lon="35.240028381">
  <ele>196.677002</ele>
  <time>2011-09-02T04:52:26Z</time>
  <speed>0.400000</speed>
</trkpt>
<trkpt lat="32.868309021" lon="35.240016937">
  <ele>197.212158</ele>
  <time>2011-09-02T04:52:27Z</time>
  <speed>0.410000</speed>
</trkpt>
<trkpt lat="32.868247986" lon="35.240009308">
  <ele>197.778564</ele>
  <time>2011-09-02T04:52:30Z</time>
  <speed>0.220000</speed>
</trkpt>
<trkpt lat="32.868217468" lon="35.240005493">
  <ele>198.364502</ele>
  <time>2011-09-02T04:52:34Z</time>
  <speed>0.060000</speed>
</trkpt>
<trkpt lat="32.868183136" lon="35.239994049">
  <ele>198.712158</ele>
  <time>2011-09-02T04:52:36Z</time>
  <speed>0.080000</speed>
</trkpt>
<trkpt lat="32.868152618" lon="35.239990234">
  <ele>198.958252</ele>
  <time>2011-09-02T04:52:38Z</time>
  <speed>0.120000</speed>
</trkpt>
<trkpt lat="32.868118286" lon="35.239978790">
  <ele>199.239502</ele>
  <time>2011-09-02T04:52:40Z</time>
  <speed>0.080000</speed>
</trkpt>
<trkpt lat="32.868141174" lon="35.239952087">
  <ele>199.329346</ele>
  <time>2011-09-02T04:53:27Z</time>
  <speed>0.290000</speed>
</trkpt>
<trkpt lat="32.868213654" lon="35.239913940">
  <ele>199.270752</ele>
  <time>2011-09-02T04:53:29Z</time>
  <speed>0.260000</speed>
</trkpt>
<trkpt lat="32.868247986" lon="35.239891052">
  <ele>199.302002</ele>
  <time>2011-09-02T04:53:30Z</time>
  <speed>0.350000</speed>
</trkpt>
<trkpt lat="32.868297577" lon="35.239898682">
  <ele>199.688721</ele>
  <time>2011-09-02T04:53:31Z</time>
  <speed>0.710000</speed>
</trkpt>
<trkpt lat="32.868297577" lon="35.239868164">
  <ele>199.759033</ele>
  <time>2011-09-02T04:53:32Z</time>
  <speed>0.780000</speed>
</trkpt>
<trkpt lat="32.868320465" lon="35.239826202">
  <ele>199.610596</ele>
  <time>2011-09-02T04:53:35Z</time>
  <speed>0.810000</speed>
</trkpt>
<trkpt lat="32.868335724" lon="35.239799500">
  <ele>199.641846</ele>
  <time>2011-09-02T04:53:37Z</time>
  <speed>0.790000</speed>
</trkpt>
<trkpt lat="32.868362427" lon="35.239761353">
  <ele>199.532471</ele>
  <time>2011-09-02T04:53:39Z</time>
  <speed>2.170000</speed>
</trkpt>
<trkpt lat="32.868392944" lon="35.239715576">
  <ele>199.114502</ele>
  <time>2011-09-02T04:53:41Z</time>
  <speed>2.620000</speed>
</trkpt>
<trkpt lat="32.868412018" lon="35.239692688">
  <ele>198.969971</ele>
  <time>2011-09-02T04:53:42Z</time>
  <speed>3.040000</speed>
</trkpt>
<trkpt lat="32.868438721" lon="35.239669800">
  <ele>198.524658</ele>
  <time>2011-09-02T04:53:43Z</time>
  <speed>3.310000</speed>
</trkpt>
<trkpt lat="32.868465424" lon="35.239643097">
  <ele>198.384033</ele>
  <time>2011-09-02T04:53:44Z</time>
  <speed>4.140000</speed>
</trkpt>
<trkpt lat="32.868495941" lon="35.239616394">
  <ele>197.950439</ele>
  <time>2011-09-02T04:53:45Z</time>
  <speed>4.620000</speed>
</trkpt>
<trkpt lat="32.868530273" lon="35.239585876">
  <ele>197.591064</ele>
  <time>2011-09-02T04:53:46Z</time>
  <speed>4.600000</speed>
</trkpt>
<trkpt lat="32.868568420" lon="35.239559174">
  <ele>197.141846</ele>
  <time>2011-09-02T04:53:47Z</time>
  <speed>4.880000</speed>
</trkpt>
<trkpt lat="32.868606567" lon="35.239532471">
  <ele>196.723877</ele>
  <time>2011-09-02T04:53:48Z</time>
  <speed>5.230000</speed>
</trkpt>
<trkpt lat="32.868648529" lon="35.239505768">
  <ele>196.266846</ele>
  <time>2011-09-02T04:53:49Z</time>
  <speed>5.090000</speed>
</trkpt>
<trkpt lat="32.868679047" lon="35.239471436">
  <ele>195.669189</ele>
  <time>2011-09-02T04:53:50Z</time>
  <speed>4.800000</speed>
</trkpt>
<trkpt lat="32.868713379" lon="35.239433289">
  <ele>194.911377</ele>
  <time>2011-09-02T04:53:51Z</time>
  <speed>4.520000</speed>
</trkpt>
<trkpt lat="32.868740082" lon="35.239391327">
  <ele>194.196533</ele>
  <time>2011-09-02T04:53:52Z</time>
  <speed>4.230000</speed>
</trkpt>
<trkpt lat="32.868759155" lon="35.239345551">
  <ele>193.594971</ele>
  <time>2011-09-02T04:53:53Z</time>
  <speed>4.200000</speed>
</trkpt>
<trkpt lat="32.868785858" lon="35.239299774">
  <ele>192.641846</ele>
  <time>2011-09-02T04:53:54Z</time>
  <speed>3.800000</speed>
</trkpt>
<trkpt lat="32.868804932" lon="35.239261627">
  <ele>191.778564</ele>
  <time>2011-09-02T04:53:55Z</time>
  <speed>2.980000</speed>
</trkpt>
<trkpt lat="32.868816376" lon="35.239231110">
  <ele>191.059814</ele>
  <time>2011-09-02T04:53:56Z</time>
  <speed>2.270000</speed>
</trkpt>
<trkpt lat="32.868827820" lon="35.239200592">
  <ele>190.247314</ele>
  <time>2011-09-02T04:53:57Z</time>
  <speed>2.550000</speed>
</trkpt>
<trkpt lat="32.868846893" lon="35.239143372">
  <ele>188.563721</ele>
  <time>2011-09-02T04:53:59Z</time>
  <speed>2.520000</speed>
</trkpt>
<trkpt lat="32.868862152" lon="35.239086151">
  <ele>187.036377</ele>
  <time>2011-09-02T04:54:01Z</time>
  <speed>2.610000</speed>
</trkpt>
<trkpt lat="32.868858337" lon="35.239025116">
  <ele>185.149658</ele>
  <time>2011-09-02T04:54:03Z</time>
  <speed>3.850000</speed>
</trkpt>
<trkpt lat="32.868858337" lon="35.238986969">
  <ele>184.329346</ele>
  <time>2011-09-02T04:54:04Z</time>
  <speed>3.380000</speed>
</trkpt>
<trkpt lat="32.868854523" lon="35.238922119">
  <ele>183.005127</ele>
  <time>2011-09-02T04:54:06Z</time>
  <speed>2.930000</speed>
</trkpt>
<trkpt lat="32.868843079" lon="35.238891602">
  <ele>182.052002</ele>
  <time>2011-09-02T04:54:07Z</time>
  <speed>2.570000</speed>
</trkpt>
<trkpt lat="32.868831635" lon="35.238838196">
  <ele>180.247314</ele>
  <time>2011-09-02T04:54:09Z</time>
  <speed>2.560000</speed>
</trkpt>
<trkpt lat="32.868827820" lon="35.238784790">
  <ele>178.630127</ele>
  <time>2011-09-02T04:54:11Z</time>
  <speed>2.170000</speed>
</trkpt>
<trkpt lat="32.868824005" lon="35.238731384">
  <ele>176.919189</ele>
  <time>2011-09-02T04:54:13Z</time>
  <speed>2.020000</speed>
</trkpt>
<trkpt lat="32.868816376" lon="35.238681793">
  <ele>174.911377</ele>
  <time>2011-09-02T04:54:15Z</time>
  <speed>2.180000</speed>
</trkpt>
<trkpt lat="32.868824005" lon="35.238624573">
  <ele>174.661377</ele>
  <time>2011-09-02T04:54:17Z</time>
  <speed>1.680000</speed>
</trkpt>
<trkpt lat="32.868816376" lon="35.238574982">
  <ele>174.196533</ele>
  <time>2011-09-02T04:54:19Z</time>
  <speed>1.400000</speed>
</trkpt>
<trkpt lat="32.868808746" lon="35.238525391">
  <ele>173.395752</ele>
  <time>2011-09-02T04:54:21Z</time>
  <speed>1.910000</speed>
</trkpt>
<trkpt lat="32.868797302" lon="35.238479614">
  <ele>172.200439</ele>
  <time>2011-09-02T04:54:23Z</time>
  <speed>1.990000</speed>
</trkpt>
<trkpt lat="32.868785858" lon="35.238422394">
  <ele>171.665283</ele>
  <time>2011-09-02T04:54:25Z</time>
  <speed>2.060000</speed>
</trkpt>
<trkpt lat="32.868770599" lon="35.238376617">
  <ele>170.555908</ele>
  <time>2011-09-02T04:54:27Z</time>
  <speed>2.180000</speed>
</trkpt>
<trkpt lat="32.868755341" lon="35.238323212">
  <ele>170.384033</ele>
  <time>2011-09-02T04:54:29Z</time>
  <speed>1.900000</speed>
</trkpt>
<trkpt lat="32.868747711" lon="35.238277435">
  <ele>169.450439</ele>
  <time>2011-09-02T04:54:31Z</time>
  <speed>1.920000</speed>
</trkpt>
<trkpt lat="32.868728638" lon="35.238227844">
  <ele>168.544189</ele>
  <time>2011-09-02T04:54:33Z</time>
  <speed>1.990000</speed>
</trkpt>
<trkpt lat="32.868713379" lon="35.238170624">
  <ele>167.962158</ele>
  <time>2011-09-02T04:54:35Z</time>
  <speed>2.290000</speed>
</trkpt>
<trkpt lat="32.868701935" lon="35.238128662">
  <ele>167.716064</ele>
  <time>2011-09-02T04:54:36Z</time>
  <speed>2.820000</speed>
</trkpt>
<trkpt lat="32.868682861" lon="35.238098145">
  <ele>167.665283</ele>
  <time>2011-09-02T04:54:37Z</time>
  <speed>2.400000</speed>
</trkpt>
<trkpt lat="32.868671417" lon="35.238044739">
  <ele>167.188721</ele>
  <time>2011-09-02T04:54:39Z</time>
  <speed>2.550000</speed>
</trkpt>
<trkpt lat="32.868663788" lon="35.237991333">
  <ele>166.005127</ele>
  <time>2011-09-02T04:54:41Z</time>
  <speed>2.780000</speed>
</trkpt>
<trkpt lat="32.868652344" lon="35.237949371">
  <ele>165.809814</ele>
  <time>2011-09-02T04:54:42Z</time>
  <speed>2.610000</speed>
</trkpt>
<trkpt lat="32.868644714" lon="35.237903595">
  <ele>165.719971</ele>
  <time>2011-09-02T04:54:43Z</time>
  <speed>2.840000</speed>
</trkpt>
<trkpt lat="32.868644714" lon="35.237869263">
  <ele>165.348877</ele>
  <time>2011-09-02T04:54:44Z</time>
  <speed>2.690000</speed>
</trkpt>
<trkpt lat="32.868629456" lon="35.237834930">
  <ele>165.173096</ele>
  <time>2011-09-02T04:54:45Z</time>
  <speed>2.840000</speed>
</trkpt>
<trkpt lat="32.868621826" lon="35.237800598">
  <ele>164.751221</ele>
  <time>2011-09-02T04:54:46Z</time>
  <speed>2.970000</speed>
</trkpt>
<trkpt lat="32.868602753" lon="35.237770081">
  <ele>164.427002</ele>
  <time>2011-09-02T04:54:47Z</time>
  <speed>3.210000</speed>
</trkpt>
<trkpt lat="32.868583679" lon="35.237735748">
  <ele>164.219971</ele>
  <time>2011-09-02T04:54:48Z</time>
  <speed>2.890000</speed>
</trkpt>
<trkpt lat="32.868560791" lon="35.237701416">
  <ele>163.977783</ele>
  <time>2011-09-02T04:54:49Z</time>
  <speed>2.680000</speed>
</trkpt>
<trkpt lat="32.868541718" lon="35.237655640">
  <ele>163.024658</ele>
  <time>2011-09-02T04:54:51Z</time>
  <speed>1.560000</speed>
</trkpt>
<trkpt lat="32.868537903" lon="35.237613678">
  <ele>161.606689</ele>
  <time>2011-09-02T04:54:53Z</time>
  <speed>2.180000</speed>
</trkpt>
<trkpt lat="32.868522644" lon="35.237560272">
  <ele>160.450439</ele>
  <time>2011-09-02T04:54:55Z</time>
  <speed>2.190000</speed>
</trkpt>
<trkpt lat="32.868518829" lon="35.237525940">
  <ele>159.860596</ele>
  <time>2011-09-02T04:54:56Z</time>
  <speed>2.450000</speed>
</trkpt>
<trkpt lat="32.868515015" lon="35.237464905">
  <ele>159.509033</ele>
  <time>2011-09-02T04:54:58Z</time>
  <speed>2.190000</speed>
</trkpt>
<trkpt lat="32.868518829" lon="35.237400055">
  <ele>158.594971</ele>
  <time>2011-09-02T04:55:00Z</time>
  <speed>2.540000</speed>
</trkpt>
<trkpt lat="32.868515015" lon="35.237361908">
  <ele>158.399658</ele>
  <time>2011-09-02T04:55:01Z</time>
  <speed>2.210000</speed>
</trkpt>
<trkpt lat="32.868515015" lon="35.237297058">
  <ele>157.653564</ele>
  <time>2011-09-02T04:55:03Z</time>
  <speed>2.310000</speed>
</trkpt>
<trkpt lat="32.868511200" lon="35.237262726">
  <ele>157.376221</ele>
  <time>2011-09-02T04:55:04Z</time>
  <speed>2.250000</speed>
</trkpt>
<trkpt lat="32.868511200" lon="35.237220764">
  <ele>157.528564</ele>
  <time>2011-09-02T04:55:05Z</time>
  <speed>2.400000</speed>
</trkpt>
<trkpt lat="32.868511200" lon="35.237171173">
  <ele>157.762939</ele>
  <time>2011-09-02T04:55:06Z</time>
  <speed>2.580000</speed>
</trkpt>
<trkpt lat="32.868511200" lon="35.237136841">
  <ele>158.528564</ele>
  <time>2011-09-02T04:55:07Z</time>
  <speed>2.760000</speed>
</trkpt>
<trkpt lat="32.868530273" lon="35.237056732">
  <ele>159.719971</ele>
  <time>2011-09-02T04:55:09Z</time>
  <speed>2.060000</speed>
</trkpt>
<trkpt lat="32.868541718" lon="35.237018585">
  <ele>160.364502</ele>
  <time>2011-09-02T04:55:10Z</time>
  <speed>2.690000</speed>
</trkpt>
<trkpt lat="32.868537903" lon="35.236984253">
  <ele>160.032471</ele>
  <time>2011-09-02T04:55:11Z</time>
  <speed>2.450000</speed>
</trkpt>
<trkpt lat="32.868526459" lon="35.236946106">
  <ele>159.665283</ele>
  <time>2011-09-02T04:55:12Z</time>
  <speed>2.850000</speed>
</trkpt>
<trkpt lat="32.868522644" lon="35.236911774">
  <ele>159.321533</ele>
  <time>2011-09-02T04:55:13Z</time>
  <speed>2.740000</speed>
</trkpt>
<trkpt lat="32.868530273" lon="35.236877441">
  <ele>159.161377</ele>
  <time>2011-09-02T04:55:14Z</time>
  <speed>2.790000</speed>
</trkpt>
<trkpt lat="32.868530273" lon="35.236835480">
  <ele>159.450439</ele>
  <time>2011-09-02T04:55:15Z</time>
  <speed>2.710000</speed>
</trkpt>
<trkpt lat="32.868526459" lon="35.236804962">
  <ele>160.696533</ele>
  <time>2011-09-02T04:55:16Z</time>
  <speed>2.560000</speed>
</trkpt>
<trkpt lat="32.868518829" lon="35.236774445">
  <ele>161.735596</ele>
  <time>2011-09-02T04:55:17Z</time>
  <speed>2.130000</speed>
</trkpt>
<trkpt lat="32.868492126" lon="35.236724854">
  <ele>163.700439</ele>
  <time>2011-09-02T04:55:19Z</time>
  <speed>2.380000</speed>
</trkpt>
<trkpt lat="32.868476868" lon="35.236694336">
  <ele>163.583252</ele>
  <time>2011-09-02T04:55:20Z</time>
  <speed>2.470000</speed>
</trkpt>
<trkpt lat="32.868465424" lon="35.236633301">
  <ele>164.927002</ele>
  <time>2011-09-02T04:55:22Z</time>
  <speed>2.870000</speed>
</trkpt>
<trkpt lat="32.868453979" lon="35.236595154">
  <ele>165.512939</ele>
  <time>2011-09-02T04:55:23Z</time>
  <speed>2.650000</speed>
</trkpt>
<trkpt lat="32.868450165" lon="35.236557007">
  <ele>166.266846</ele>
  <time>2011-09-02T04:55:24Z</time>
  <speed>3.060000</speed>
</trkpt>
<trkpt lat="32.868438721" lon="35.236522675">
  <ele>166.665283</ele>
  <time>2011-09-02T04:55:25Z</time>
  <speed>3.110000</speed>
</trkpt>
<trkpt lat="32.868434906" lon="35.236484528">
  <ele>166.860596</ele>
  <time>2011-09-02T04:55:26Z</time>
  <speed>3.490000</speed>
</trkpt>
<trkpt lat="32.868427277" lon="35.236446381">
  <ele>167.020752</ele>
  <time>2011-09-02T04:55:27Z</time>
  <speed>3.530000</speed>
</trkpt>
<trkpt lat="32.868415833" lon="35.236404419">
  <ele>166.958252</ele>
  <time>2011-09-02T04:55:28Z</time>
  <speed>3.750000</speed>
</trkpt>
<trkpt lat="32.868400574" lon="35.236366272">
  <ele>168.052002</ele>
  <time>2011-09-02T04:55:29Z</time>
  <speed>3.640000</speed>
</trkpt>
<trkpt lat="32.868385315" lon="35.236328125">
  <ele>169.067627</ele>
  <time>2011-09-02T04:55:30Z</time>
  <speed>3.470000</speed>
</trkpt>
<trkpt lat="32.868370056" lon="35.236289978">
  <ele>169.337158</ele>
  <time>2011-09-02T04:55:31Z</time>
  <speed>3.330000</speed>
</trkpt>
<trkpt lat="32.868354797" lon="35.236251831">
  <ele>170.223877</ele>
  <time>2011-09-02T04:55:32Z</time>
  <speed>3.140000</speed>
</trkpt>
<trkpt lat="32.868339539" lon="35.236213684">
  <ele>171.399658</ele>
  <time>2011-09-02T04:55:33Z</time>
  <speed>2.910000</speed>
</trkpt>
<trkpt lat="32.868320465" lon="35.236179352">
  <ele>172.055908</ele>
  <time>2011-09-02T04:55:34Z</time>
  <speed>2.820000</speed>
</trkpt>
<trkpt lat="32.868312836" lon="35.236145020">
  <ele>173.130127</ele>
  <time>2011-09-02T04:55:35Z</time>
  <speed>2.600000</speed>
</trkpt>
<trkpt lat="32.868297577" lon="35.236106873">
  <ele>174.223877</ele>
  <time>2011-09-02T04:55:36Z</time>
  <speed>3.060000</speed>
</trkpt>
<trkpt lat="32.868274689" lon="35.236064911">
  <ele>175.091064</ele>
  <time>2011-09-02T04:55:37Z</time>
  <speed>3.390000</speed>
</trkpt>
<trkpt lat="32.868259430" lon="35.236030579">
  <ele>176.442627</ele>
  <time>2011-09-02T04:55:38Z</time>
  <speed>2.980000</speed>
</trkpt>
<trkpt lat="32.868247986" lon="35.235996246">
  <ele>176.966064</ele>
  <time>2011-09-02T04:55:39Z</time>
  <speed>3.150000</speed>
</trkpt>
<trkpt lat="32.868236542" lon="35.235965729">
  <ele>177.946533</ele>
  <time>2011-09-02T04:55:40Z</time>
  <speed>2.990000</speed>
</trkpt>
<trkpt lat="32.868225098" lon="35.235935211">
  <ele>178.403564</ele>
  <time>2011-09-02T04:55:41Z</time>
  <speed>3.130000</speed>
</trkpt>
<trkpt lat="32.868209839" lon="35.235904694">
  <ele>179.274658</ele>
  <time>2011-09-02T04:55:42Z</time>
  <speed>3.120000</speed>
</trkpt>
<trkpt lat="32.868198395" lon="35.235870361">
  <ele>180.481689</ele>
  <time>2011-09-02T04:55:43Z</time>
  <speed>3.190000</speed>
</trkpt>
<trkpt lat="32.868179321" lon="35.235828400">
  <ele>182.251221</ele>
  <time>2011-09-02T04:55:44Z</time>
  <speed>3.120000</speed>
</trkpt>
<trkpt lat="32.868156433" lon="35.235786438">
  <ele>183.485596</ele>
  <time>2011-09-02T04:55:45Z</time>
  <speed>3.190000</speed>
</trkpt>
<trkpt lat="32.868141174" lon="35.235752106">
  <ele>184.247314</ele>
  <time>2011-09-02T04:55:46Z</time>
  <speed>2.970000</speed>
</trkpt>
<trkpt lat="32.868118286" lon="35.235721588">
  <ele>184.911377</ele>
  <time>2011-09-02T04:55:47Z</time>
  <speed>3.080000</speed>
</trkpt>
<trkpt lat="32.868095398" lon="35.235687256">
  <ele>186.571533</ele>
  <time>2011-09-02T04:55:48Z</time>
  <speed>3.120000</speed>
</trkpt>
<trkpt lat="32.868049622" lon="35.235652924">
  <ele>187.493408</ele>
  <time>2011-09-02T04:55:50Z</time>
  <speed>3.160000</speed>
</trkpt>
<trkpt lat="32.868019104" lon="35.235626221">
  <ele>188.653564</ele>
  <time>2011-09-02T04:55:51Z</time>
  <speed>3.240000</speed>
</trkpt>
<trkpt lat="32.867992401" lon="35.235618591">
  <ele>189.317627</ele>
  <time>2011-09-02T04:55:52Z</time>
  <speed>3.290000</speed>
</trkpt>
<trkpt lat="32.867954254" lon="35.235607147">
  <ele>190.337158</ele>
  <time>2011-09-02T04:55:53Z</time>
  <speed>3.550000</speed>
</trkpt>
<trkpt lat="32.867927551" lon="35.235591888">
  <ele>190.848877</ele>
  <time>2011-09-02T04:55:54Z</time>
  <speed>3.340000</speed>
</trkpt>
<trkpt lat="32.867900848" lon="35.235572815">
  <ele>191.677002</ele>
  <time>2011-09-02T04:55:55Z</time>
  <speed>3.150000</speed>
</trkpt>
<trkpt lat="32.867870331" lon="35.235553741">
  <ele>192.298096</ele>
  <time>2011-09-02T04:55:56Z</time>
  <speed>3.350000</speed>
</trkpt>
<trkpt lat="32.867843628" lon="35.235538483">
  <ele>192.665283</ele>
  <time>2011-09-02T04:55:57Z</time>
  <speed>3.360000</speed>
</trkpt>
<trkpt lat="32.867816925" lon="35.235523224">
  <ele>192.727783</ele>
  <time>2011-09-02T04:55:58Z</time>
  <speed>2.970000</speed>
</trkpt>
<trkpt lat="32.867759705" lon="35.235496521">
  <ele>193.071533</ele>
  <time>2011-09-02T04:56:00Z</time>
  <speed>3.170000</speed>
</trkpt>
<trkpt lat="32.867729187" lon="35.235488892">
  <ele>193.911377</ele>
  <time>2011-09-02T04:56:01Z</time>
  <speed>3.180000</speed>
</trkpt>
<trkpt lat="32.867702484" lon="35.235485077">
  <ele>194.438721</ele>
  <time>2011-09-02T04:56:02Z</time>
  <speed>3.270000</speed>
</trkpt>
<trkpt lat="32.867675781" lon="35.235477448">
  <ele>194.091064</ele>
  <time>2011-09-02T04:56:03Z</time>
  <speed>3.310000</speed>
</trkpt>
<trkpt lat="32.867641449" lon="35.235469818">
  <ele>194.645752</ele>
  <time>2011-09-02T04:56:04Z</time>
  <speed>3.200000</speed>
</trkpt>
<trkpt lat="32.867618561" lon="35.235469818">
  <ele>195.536377</ele>
  <time>2011-09-02T04:56:05Z</time>
  <speed>3.150000</speed>
</trkpt>
<trkpt lat="32.867588043" lon="35.235458374">
  <ele>196.067627</ele>
  <time>2011-09-02T04:56:06Z</time>
  <speed>3.220000</speed>
</trkpt>
<trkpt lat="32.867561340" lon="35.235450745">
  <ele>196.372314</ele>
  <time>2011-09-02T04:56:07Z</time>
  <speed>3.150000</speed>
</trkpt>
<trkpt lat="32.867530823" lon="35.235446930">
  <ele>197.079346</ele>
  <time>2011-09-02T04:56:08Z</time>
  <speed>3.150000</speed>
</trkpt>
<trkpt lat="32.867504120" lon="35.235431671">
  <ele>196.809814</ele>
  <time>2011-09-02T04:56:09Z</time>
  <speed>3.310000</speed>
</trkpt>
<trkpt lat="32.867477417" lon="35.235416412">
  <ele>197.387939</ele>
  <time>2011-09-02T04:56:10Z</time>
  <speed>3.150000</speed>
</trkpt>
<trkpt lat="32.867446899" lon="35.235404968">
  <ele>197.684814</ele>
  <time>2011-09-02T04:56:11Z</time>
  <speed>3.150000</speed>
</trkpt>
<trkpt lat="32.867424011" lon="35.235382080">
  <ele>197.360596</ele>
  <time>2011-09-02T04:56:12Z</time>
  <speed>3.130000</speed>
</trkpt>
<trkpt lat="32.867401123" lon="35.235359192">
  <ele>197.473877</ele>
  <time>2011-09-02T04:56:13Z</time>
  <speed>3.220000</speed>
</trkpt>
<trkpt lat="32.867378235" lon="35.235332489">
  <ele>197.376221</ele>
  <time>2011-09-02T04:56:14Z</time>
  <speed>3.260000</speed>
</trkpt>
<trkpt lat="32.867355347" lon="35.235305786">
  <ele>197.907471</ele>
  <time>2011-09-02T04:56:15Z</time>
  <speed>3.290000</speed>
</trkpt>
<trkpt lat="32.867332458" lon="35.235279083">
  <ele>198.368408</ele>
  <time>2011-09-02T04:56:16Z</time>
  <speed>3.320000</speed>
</trkpt>
<trkpt lat="32.867317200" lon="35.235244751">
  <ele>198.282471</ele>
  <time>2011-09-02T04:56:17Z</time>
  <speed>3.320000</speed>
</trkpt>
<trkpt lat="32.867298126" lon="35.235214233">
  <ele>198.571533</ele>
  <time>2011-09-02T04:56:18Z</time>
  <speed>3.000000</speed>
</trkpt>
<trkpt lat="32.867263794" lon="35.235164642">
  <ele>198.247314</ele>
  <time>2011-09-02T04:56:20Z</time>
  <speed>2.960000</speed>
</trkpt>
<trkpt lat="32.867244720" lon="35.235141754">
  <ele>198.614502</ele>
  <time>2011-09-02T04:56:21Z</time>
  <speed>3.070000</speed>
</trkpt>
<trkpt lat="32.867206573" lon="35.235095978">
  <ele>198.907471</ele>
  <time>2011-09-02T04:56:23Z</time>
  <speed>2.680000</speed>
</trkpt>
<trkpt lat="32.867168427" lon="35.235061646">
  <ele>199.192627</ele>
  <time>2011-09-02T04:56:25Z</time>
  <speed>2.970000</speed>
</trkpt>
<trkpt lat="32.867145538" lon="35.235042572">
  <ele>199.302002</ele>
  <time>2011-09-02T04:56:26Z</time>
  <speed>3.010000</speed>
</trkpt>
<trkpt lat="32.867122650" lon="35.235023499">
  <ele>199.770752</ele>
  <time>2011-09-02T04:56:27Z</time>
  <speed>3.080000</speed>
</trkpt>
<trkpt lat="32.867099762" lon="35.235004425">
  <ele>199.719971</ele>
  <time>2011-09-02T04:56:28Z</time>
  <speed>2.830000</speed>
</trkpt>
<trkpt lat="32.867073059" lon="35.234989166">
  <ele>199.454346</ele>
  <time>2011-09-02T04:56:29Z</time>
  <speed>2.990000</speed>
</trkpt>
<trkpt lat="32.867046356" lon="35.234981537">
  <ele>199.696533</ele>
  <time>2011-09-02T04:56:30Z</time>
  <speed>3.130000</speed>
</trkpt>
<trkpt lat="32.867019653" lon="35.234981537">
  <ele>199.692627</ele>
  <time>2011-09-02T04:56:31Z</time>
  <speed>3.040000</speed>
</trkpt>
<trkpt lat="32.866989136" lon="35.234977722">
  <ele>199.657471</ele>
  <time>2011-09-02T04:56:32Z</time>
  <speed>3.290000</speed>
</trkpt>
<trkpt lat="32.866958618" lon="35.234981537">
  <ele>199.512939</ele>
  <time>2011-09-02T04:56:33Z</time>
  <speed>3.190000</speed>
</trkpt>
<trkpt lat="32.866928101" lon="35.234981537">
  <ele>199.528564</ele>
  <time>2011-09-02T04:56:34Z</time>
  <speed>3.410000</speed>
</trkpt>
<trkpt lat="32.866897583" lon="35.234989166">
  <ele>199.469971</ele>
  <time>2011-09-02T04:56:35Z</time>
  <speed>3.070000</speed>
</trkpt>
<trkpt lat="32.866867065" lon="35.234989166">
  <ele>199.505127</ele>
  <time>2011-09-02T04:56:36Z</time>
  <speed>3.060000</speed>
</trkpt>
<trkpt lat="32.866832733" lon="35.234992981">
  <ele>199.407471</ele>
  <time>2011-09-02T04:56:37Z</time>
  <speed>3.250000</speed>
</trkpt>
<trkpt lat="32.866802216" lon="35.234996796">
  <ele>199.325439</ele>
  <time>2011-09-02T04:56:38Z</time>
  <speed>3.040000</speed>
</trkpt>
<trkpt lat="32.866771698" lon="35.235012054">
  <ele>199.786377</ele>
  <time>2011-09-02T04:56:39Z</time>
  <speed>3.290000</speed>
</trkpt>
<trkpt lat="32.866741180" lon="35.235015869">
  <ele>199.841064</ele>
  <time>2011-09-02T04:56:40Z</time>
  <speed>3.060000</speed>
</trkpt>
<trkpt lat="32.866714478" lon="35.235023499">
  <ele>199.356689</ele>
  <time>2011-09-02T04:56:41Z</time>
  <speed>3.210000</speed>
</trkpt>
<trkpt lat="32.866683960" lon="35.235027313">
  <ele>199.446533</ele>
  <time>2011-09-02T04:56:42Z</time>
  <speed>2.990000</speed>
</trkpt>
<trkpt lat="32.866653442" lon="35.235031128">
  <ele>198.762939</ele>
  <time>2011-09-02T04:56:43Z</time>
  <speed>3.330000</speed>
</trkpt>
<trkpt lat="32.866622925" lon="35.235042572">
  <ele>198.028564</ele>
  <time>2011-09-02T04:56:44Z</time>
  <speed>3.430000</speed>
</trkpt>
<trkpt lat="32.866592407" lon="35.235050201">
  <ele>198.165283</ele>
  <time>2011-09-02T04:56:45Z</time>
  <speed>3.290000</speed>
</trkpt>
<trkpt lat="32.866561890" lon="35.235065460">
  <ele>198.505127</ele>
  <time>2011-09-02T04:56:46Z</time>
  <speed>3.030000</speed>
</trkpt>
<trkpt lat="32.866512299" lon="35.235076904">
  <ele>198.528564</ele>
  <time>2011-09-02T04:56:48Z</time>
  <speed>2.780000</speed>
</trkpt>
<trkpt lat="32.866477966" lon="35.235092163">
  <ele>199.098877</ele>
  <time>2011-09-02T04:56:49Z</time>
  <speed>3.260000</speed>
</trkpt>
<trkpt lat="32.866439819" lon="35.235103607">
  <ele>199.169189</ele>
  <time>2011-09-02T04:56:50Z</time>
  <speed>3.380000</speed>
</trkpt>
<trkpt lat="32.866413116" lon="35.235111237">
  <ele>199.114502</ele>
  <time>2011-09-02T04:56:51Z</time>
  <speed>2.860000</speed>
</trkpt>
<trkpt lat="32.866386414" lon="35.235126495">
  <ele>199.005127</ele>
  <time>2011-09-02T04:56:52Z</time>
  <speed>2.840000</speed>
</trkpt>
<trkpt lat="32.866359711" lon="35.235134125">
  <ele>199.282471</ele>
  <time>2011-09-02T04:56:53Z</time>
  <speed>2.700000</speed>
</trkpt>
<trkpt lat="32.866333008" lon="35.235137939">
  <ele>199.997314</ele>
  <time>2011-09-02T04:56:54Z</time>
  <speed>3.320000</speed>
</trkpt>
<trkpt lat="32.866306305" lon="35.235141754">
  <ele>200.270752</ele>
  <time>2011-09-02T04:56:55Z</time>
  <speed>2.920000</speed>
</trkpt>
<trkpt lat="32.866275787" lon="35.235149384">
  <ele>200.880127</ele>
  <time>2011-09-02T04:56:56Z</time>
  <speed>3.070000</speed>
</trkpt>
<trkpt lat="32.866245270" lon="35.235157013">
  <ele>201.575439</ele>
  <time>2011-09-02T04:56:57Z</time>
  <speed>2.990000</speed>
</trkpt>
<trkpt lat="32.866195679" lon="35.235168457">
  <ele>201.360596</ele>
  <time>2011-09-02T04:56:59Z</time>
  <speed>3.270000</speed>
</trkpt>
<trkpt lat="32.866165161" lon="35.235172272">
  <ele>201.196533</ele>
  <time>2011-09-02T04:57:00Z</time>
  <speed>3.110000</speed>
</trkpt>
<trkpt lat="32.866138458" lon="35.235179901">
  <ele>201.075439</ele>
  <time>2011-09-02T04:57:01Z</time>
  <speed>3.020000</speed>
</trkpt>
<trkpt lat="32.866107941" lon="35.235191345">
  <ele>201.251221</ele>
  <time>2011-09-02T04:57:02Z</time>
  <speed>3.320000</speed>
</trkpt>
<trkpt lat="32.866058350" lon="35.235206604">
  <ele>201.770752</ele>
  <time>2011-09-02T04:57:04Z</time>
  <speed>2.790000</speed>
</trkpt>
<trkpt lat="32.866012573" lon="35.235218048">
  <ele>202.165283</ele>
  <time>2011-09-02T04:57:06Z</time>
  <speed>2.390000</speed>
</trkpt>
<trkpt lat="32.865978241" lon="35.235237122">
  <ele>202.614502</ele>
  <time>2011-09-02T04:57:08Z</time>
  <speed>2.460000</speed>
</trkpt>
<trkpt lat="32.865928650" lon="35.235267639">
  <ele>202.747314</ele>
  <time>2011-09-02T04:57:10Z</time>
  <speed>2.530000</speed>
</trkpt>
<trkpt lat="32.865886688" lon="35.235290527">
  <ele>202.958252</ele>
  <time>2011-09-02T04:57:12Z</time>
  <speed>2.570000</speed>
</trkpt>
<trkpt lat="32.865859985" lon="35.235309601">
  <ele>202.864502</ele>
  <time>2011-09-02T04:57:13Z</time>
  <speed>2.610000</speed>
</trkpt>
<trkpt lat="32.865825653" lon="35.235336304">
  <ele>203.137939</ele>
  <time>2011-09-02T04:57:15Z</time>
  <speed>2.510000</speed>
</trkpt>
<trkpt lat="32.865787506" lon="35.235363007">
  <ele>203.106689</ele>
  <time>2011-09-02T04:57:17Z</time>
  <speed>2.690000</speed>
</trkpt>
<trkpt lat="32.865768433" lon="35.235389709">
  <ele>203.016846</ele>
  <time>2011-09-02T04:57:18Z</time>
  <speed>2.680000</speed>
</trkpt>
<trkpt lat="32.865734100" lon="35.235424042">
  <ele>202.938721</ele>
  <time>2011-09-02T04:57:20Z</time>
  <speed>2.750000</speed>
</trkpt>
<trkpt lat="32.865695953" lon="35.235462189">
  <ele>203.161377</ele>
  <time>2011-09-02T04:57:22Z</time>
  <speed>3.020000</speed>
</trkpt>
<trkpt lat="32.865665436" lon="35.235496521">
  <ele>203.110596</ele>
  <time>2011-09-02T04:57:24Z</time>
  <speed>2.710000</speed>
</trkpt>
<trkpt lat="32.865646362" lon="35.235523224">
  <ele>202.110596</ele>
  <time>2011-09-02T04:57:26Z</time>
  <speed>2.700000</speed>
</trkpt>
<trkpt lat="32.865619659" lon="35.235588074">
  <ele>201.516846</ele>
  <time>2011-09-02T04:57:28Z</time>
  <speed>2.780000</speed>
</trkpt>
<trkpt lat="32.865600586" lon="35.235633850">
  <ele>201.262939</ele>
  <time>2011-09-02T04:57:30Z</time>
  <speed>2.630000</speed>
</trkpt>
<trkpt lat="32.865581512" lon="35.235679626">
  <ele>201.505127</ele>
  <time>2011-09-02T04:57:32Z</time>
  <speed>2.840000</speed>
</trkpt>
<trkpt lat="32.865581512" lon="35.235740662">
  <ele>202.020752</ele>
  <time>2011-09-02T04:57:34Z</time>
  <speed>2.990000</speed>
</trkpt>
<trkpt lat="32.865577698" lon="35.235786438">
  <ele>202.192627</ele>
  <time>2011-09-02T04:57:36Z</time>
  <speed>2.750000</speed>
</trkpt>
<trkpt lat="32.865562439" lon="35.235832214">
  <ele>202.044189</ele>
  <time>2011-09-02T04:57:38Z</time>
  <speed>2.680000</speed>
</trkpt>
<trkpt lat="32.865547180" lon="35.235881805">
  <ele>201.540283</ele>
  <time>2011-09-02T04:57:40Z</time>
  <speed>2.800000</speed>
</trkpt>
<trkpt lat="32.865539551" lon="35.235946655">
  <ele>201.684814</ele>
  <time>2011-09-02T04:57:42Z</time>
  <speed>2.810000</speed>
</trkpt>
<trkpt lat="32.865531921" lon="35.236000061">
  <ele>202.005127</ele>
  <time>2011-09-02T04:57:44Z</time>
  <speed>2.880000</speed>
</trkpt>
<trkpt lat="32.865524292" lon="35.236030579">
  <ele>202.684814</ele>
  <time>2011-09-02T04:57:45Z</time>
  <speed>2.840000</speed>
</trkpt>
<trkpt lat="32.865520477" lon="35.236087799">
  <ele>202.876221</ele>
  <time>2011-09-02T04:57:47Z</time>
  <speed>2.850000</speed>
</trkpt>
<trkpt lat="32.865512848" lon="35.236122131">
  <ele>202.591064</ele>
  <time>2011-09-02T04:57:48Z</time>
  <speed>2.890000</speed>
</trkpt>
<trkpt lat="32.865497589" lon="35.236175537">
  <ele>202.727783</ele>
  <time>2011-09-02T04:57:50Z</time>
  <speed>2.920000</speed>
</trkpt>
<trkpt lat="32.865478516" lon="35.236232758">
  <ele>202.880127</ele>
  <time>2011-09-02T04:57:52Z</time>
  <speed>3.120000</speed>
</trkpt>
<trkpt lat="32.865474701" lon="35.236301422">
  <ele>202.403564</ele>
  <time>2011-09-02T04:57:54Z</time>
  <speed>3.170000</speed>
</trkpt>
<trkpt lat="32.865470886" lon="35.236339569">
  <ele>202.798096</ele>
  <time>2011-09-02T04:57:55Z</time>
  <speed>3.140000</speed>
</trkpt>
<trkpt lat="32.865463257" lon="35.236370087">
  <ele>202.524658</ele>
  <time>2011-09-02T04:57:56Z</time>
  <speed>3.170000</speed>
</trkpt>
<trkpt lat="32.865444183" lon="35.236431122">
  <ele>202.423096</ele>
  <time>2011-09-02T04:57:58Z</time>
  <speed>3.470000</speed>
</trkpt>
<trkpt lat="32.865432739" lon="35.236465454">
  <ele>202.075439</ele>
  <time>2011-09-02T04:57:59Z</time>
  <speed>3.240000</speed>
</trkpt>
<trkpt lat="32.865428925" lon="35.236503601">
  <ele>202.020752</ele>
  <time>2011-09-02T04:58:00Z</time>
  <speed>3.560000</speed>
</trkpt>
<trkpt lat="32.865428925" lon="35.236541748">
  <ele>201.762939</ele>
  <time>2011-09-02T04:58:01Z</time>
  <speed>3.190000</speed>
</trkpt>
<trkpt lat="32.865425110" lon="35.236576080">
  <ele>201.813721</ele>
  <time>2011-09-02T04:58:02Z</time>
  <speed>3.120000</speed>
</trkpt>
<trkpt lat="32.865417480" lon="35.236610413">
  <ele>201.786377</ele>
  <time>2011-09-02T04:58:03Z</time>
  <speed>3.110000</speed>
</trkpt>
<trkpt lat="32.865406036" lon="35.236667633">
  <ele>201.958252</ele>
  <time>2011-09-02T04:58:05Z</time>
  <speed>2.740000</speed>
</trkpt>
<trkpt lat="32.865390778" lon="35.236736298">
  <ele>202.141846</ele>
  <time>2011-09-02T04:58:07Z</time>
  <speed>3.170000</speed>
</trkpt>
<trkpt lat="32.865383148" lon="35.236770630">
  <ele>202.235596</ele>
  <time>2011-09-02T04:58:08Z</time>
  <speed>3.250000</speed>
</trkpt>
<trkpt lat="32.865371704" lon="35.236804962">
  <ele>202.368408</ele>
  <time>2011-09-02T04:58:09Z</time>
  <speed>3.240000</speed>
</trkpt>
<trkpt lat="32.865364075" lon="35.236835480">
  <ele>202.466064</ele>
  <time>2011-09-02T04:58:10Z</time>
  <speed>3.230000</speed>
</trkpt>
<trkpt lat="32.865360260" lon="35.236869812">
  <ele>202.587158</ele>
  <time>2011-09-02T04:58:11Z</time>
  <speed>3.110000</speed>
</trkpt>
<trkpt lat="32.865348816" lon="35.236900330">
  <ele>202.973877</ele>
  <time>2011-09-02T04:58:12Z</time>
  <speed>3.220000</speed>
</trkpt>
<trkpt lat="32.865337372" lon="35.236934662">
  <ele>203.216064</ele>
  <time>2011-09-02T04:58:13Z</time>
  <speed>3.310000</speed>
</trkpt>
<trkpt lat="32.865329742" lon="35.236965179">
  <ele>203.177002</ele>
  <time>2011-09-02T04:58:14Z</time>
  <speed>3.390000</speed>
</trkpt>
<trkpt lat="32.865314484" lon="35.236995697">
  <ele>203.352783</ele>
  <time>2011-09-02T04:58:15Z</time>
  <speed>3.090000</speed>
</trkpt>
<trkpt lat="32.865295410" lon="35.237022400">
  <ele>203.559814</ele>
  <time>2011-09-02T04:58:16Z</time>
  <speed>3.320000</speed>
</trkpt>
<trkpt lat="32.865283966" lon="35.237052917">
  <ele>204.001221</ele>
  <time>2011-09-02T04:58:17Z</time>
  <speed>3.080000</speed>
</trkpt>
<trkpt lat="32.865268707" lon="35.237079620">
  <ele>204.161377</ele>
  <time>2011-09-02T04:58:18Z</time>
  <speed>2.870000</speed>
</trkpt>
<trkpt lat="32.865238190" lon="35.237133026">
  <ele>204.122314</ele>
  <time>2011-09-02T04:58:20Z</time>
  <speed>2.750000</speed>
</trkpt>
<trkpt lat="32.865215302" lon="35.237178802">
  <ele>204.352783</ele>
  <time>2011-09-02T04:58:22Z</time>
  <speed>2.600000</speed>
</trkpt>
<trkpt lat="32.865177155" lon="35.237232208">
  <ele>204.575439</ele>
  <time>2011-09-02T04:58:24Z</time>
  <speed>3.550000</speed>
</trkpt>
<trkpt lat="32.865154266" lon="35.237262726">
  <ele>204.266846</ele>
  <time>2011-09-02T04:58:25Z</time>
  <speed>3.300000</speed>
</trkpt>
<trkpt lat="32.865135193" lon="35.237289429">
  <ele>204.520752</ele>
  <time>2011-09-02T04:58:26Z</time>
  <speed>3.340000</speed>
</trkpt>
<trkpt lat="32.865116119" lon="35.237316132">
  <ele>204.704346</ele>
  <time>2011-09-02T04:58:27Z</time>
  <speed>3.060000</speed>
</trkpt>
<trkpt lat="32.865097046" lon="35.237342834">
  <ele>204.887939</ele>
  <time>2011-09-02T04:58:28Z</time>
  <speed>3.460000</speed>
</trkpt>
<trkpt lat="32.865074158" lon="35.237361908">
  <ele>204.864502</ele>
  <time>2011-09-02T04:58:29Z</time>
  <speed>3.090000</speed>
</trkpt>
<trkpt lat="32.865058899" lon="35.237392426">
  <ele>205.036377</ele>
  <time>2011-09-02T04:58:30Z</time>
  <speed>3.310000</speed>
</trkpt>
<trkpt lat="32.865028381" lon="35.237434387">
  <ele>206.884033</ele>
  <time>2011-09-02T04:58:31Z</time>
  <speed>3.090000</speed>
</trkpt>
<trkpt lat="32.864990234" lon="35.237476349">
  <ele>207.270752</ele>
  <time>2011-09-02T04:58:33Z</time>
  <speed>3.190000</speed>
</trkpt>
<trkpt lat="32.864974976" lon="35.237506866">
  <ele>207.540283</ele>
  <time>2011-09-02T04:58:34Z</time>
  <speed>3.030000</speed>
</trkpt>
<trkpt lat="32.864959717" lon="35.237533569">
  <ele>207.692627</ele>
  <time>2011-09-02T04:58:35Z</time>
  <speed>2.900000</speed>
</trkpt>
<trkpt lat="32.864940643" lon="35.237564087">
  <ele>207.493408</ele>
  <time>2011-09-02T04:58:36Z</time>
  <speed>3.060000</speed>
</trkpt>
<trkpt lat="32.864929199" lon="35.237594604">
  <ele>207.610596</ele>
  <time>2011-09-02T04:58:37Z</time>
  <speed>3.170000</speed>
</trkpt>
<trkpt lat="32.864894867" lon="35.237644196">
  <ele>207.575439</ele>
  <time>2011-09-02T04:58:39Z</time>
  <speed>3.000000</speed>
</trkpt>
<trkpt lat="32.864875793" lon="35.237667084">
  <ele>207.251221</ele>
  <time>2011-09-02T04:58:40Z</time>
  <speed>2.810000</speed>
</trkpt>
<trkpt lat="32.864849091" lon="35.237716675">
  <ele>206.966064</ele>
  <time>2011-09-02T04:58:42Z</time>
  <speed>2.880000</speed>
</trkpt>
<trkpt lat="32.864833832" lon="35.237743378">
  <ele>207.563721</ele>
  <time>2011-09-02T04:58:43Z</time>
  <speed>3.150000</speed>
</trkpt>
<trkpt lat="32.864814758" lon="35.237773895">
  <ele>207.841064</ele>
  <time>2011-09-02T04:58:44Z</time>
  <speed>3.200000</speed>
</trkpt>
<trkpt lat="32.864799500" lon="35.237796783">
  <ele>208.411377</ele>
  <time>2011-09-02T04:58:45Z</time>
  <speed>3.060000</speed>
</trkpt>
<trkpt lat="32.864768982" lon="35.237846375">
  <ele>208.344971</ele>
  <time>2011-09-02T04:58:47Z</time>
  <speed>3.270000</speed>
</trkpt>
<trkpt lat="32.864742279" lon="35.237899780">
  <ele>207.958252</ele>
  <time>2011-09-02T04:58:49Z</time>
  <speed>3.160000</speed>
</trkpt>
<trkpt lat="32.864711761" lon="35.237960815">
  <ele>208.618408</ele>
  <time>2011-09-02T04:58:51Z</time>
  <speed>3.270000</speed>
</trkpt>
<trkpt lat="32.864696503" lon="35.237995148">
  <ele>208.735596</ele>
  <time>2011-09-02T04:58:52Z</time>
  <speed>3.130000</speed>
</trkpt>
<trkpt lat="32.864681244" lon="35.238025665">
  <ele>209.036377</ele>
  <time>2011-09-02T04:58:53Z</time>
  <speed>3.140000</speed>
</trkpt>
<trkpt lat="32.864669800" lon="35.238056183">
  <ele>209.809814</ele>
  <time>2011-09-02T04:58:54Z</time>
  <speed>2.820000</speed>
</trkpt>
<trkpt lat="32.864654541" lon="35.238124847">
  <ele>209.762939</ele>
  <time>2011-09-02T04:58:56Z</time>
  <speed>3.140000</speed>
</trkpt>
<trkpt lat="32.864646912" lon="35.238155365">
  <ele>209.759033</ele>
  <time>2011-09-02T04:58:57Z</time>
  <speed>3.180000</speed>
</trkpt>
<trkpt lat="32.864624023" lon="35.238208771">
  <ele>210.262939</ele>
  <time>2011-09-02T04:58:59Z</time>
  <speed>2.610000</speed>
</trkpt>
<trkpt lat="32.864612579" lon="35.238265991">
  <ele>210.571533</ele>
  <time>2011-09-02T04:59:01Z</time>
  <speed>3.000000</speed>
</trkpt>
<trkpt lat="32.864604950" lon="35.238304138">
  <ele>210.614502</ele>
  <time>2011-09-02T04:59:02Z</time>
  <speed>3.130000</speed>
</trkpt>
<trkpt lat="32.864589691" lon="35.238342285">
  <ele>211.462158</ele>
  <time>2011-09-02T04:59:03Z</time>
  <speed>3.120000</speed>
</trkpt>
<trkpt lat="32.864582062" lon="35.238380432">
  <ele>211.677002</ele>
  <time>2011-09-02T04:59:04Z</time>
  <speed>3.010000</speed>
</trkpt>
<trkpt lat="32.864578247" lon="35.238414764">
  <ele>211.669189</ele>
  <time>2011-09-02T04:59:05Z</time>
  <speed>3.070000</speed>
</trkpt>
<trkpt lat="32.864570618" lon="35.238445282">
  <ele>211.977783</ele>
  <time>2011-09-02T04:59:06Z</time>
  <speed>2.800000</speed>
</trkpt>
<trkpt lat="32.864551544" lon="35.238502502">
  <ele>211.825439</ele>
  <time>2011-09-02T04:59:08Z</time>
  <speed>3.050000</speed>
</trkpt>
<trkpt lat="32.864543915" lon="35.238536835">
  <ele>212.739502</ele>
  <time>2011-09-02T04:59:09Z</time>
  <speed>2.870000</speed>
</trkpt>
<trkpt lat="32.864547729" lon="35.238571167">
  <ele>212.755127</ele>
  <time>2011-09-02T04:59:10Z</time>
  <speed>2.890000</speed>
</trkpt>
<trkpt lat="32.864547729" lon="35.238624573">
  <ele>212.040283</ele>
  <time>2011-09-02T04:59:12Z</time>
  <speed>2.880000</speed>
</trkpt>
<trkpt lat="32.864543915" lon="35.238689423">
  <ele>212.380127</ele>
  <time>2011-09-02T04:59:14Z</time>
  <speed>2.910000</speed>
</trkpt>
<trkpt lat="32.864543915" lon="35.238742828">
  <ele>212.844971</ele>
  <time>2011-09-02T04:59:16Z</time>
  <speed>2.530000</speed>
</trkpt>
<trkpt lat="32.864543915" lon="35.238796234">
  <ele>213.376221</ele>
  <time>2011-09-02T04:59:18Z</time>
  <speed>2.580000</speed>
</trkpt>
<trkpt lat="32.864543915" lon="35.238834381">
  <ele>213.036377</ele>
  <time>2011-09-02T04:59:19Z</time>
  <speed>2.760000</speed>
</trkpt>
<trkpt lat="32.864540100" lon="35.238887787">
  <ele>213.391846</ele>
  <time>2011-09-02T04:59:21Z</time>
  <speed>2.530000</speed>
</trkpt>
<trkpt lat="32.864540100" lon="35.238945007">
  <ele>213.122314</ele>
  <time>2011-09-02T04:59:23Z</time>
  <speed>2.590000</speed>
</trkpt>
<trkpt lat="32.864543915" lon="35.238979340">
  <ele>213.177002</ele>
  <time>2011-09-02T04:59:24Z</time>
  <speed>2.650000</speed>
</trkpt>
<trkpt lat="32.864547729" lon="35.239028931">
  <ele>213.399658</ele>
  <time>2011-09-02T04:59:26Z</time>
  <speed>2.470000</speed>
</trkpt>
<trkpt lat="32.864562988" lon="35.239082336">
  <ele>212.821533</ele>
  <time>2011-09-02T04:59:28Z</time>
  <speed>2.350000</speed>
</trkpt>
<trkpt lat="32.864562988" lon="35.239135742">
  <ele>213.356689</ele>
  <time>2011-09-02T04:59:30Z</time>
  <speed>2.250000</speed>
</trkpt>
<trkpt lat="32.864566803" lon="35.239192963">
  <ele>213.852783</ele>
  <time>2011-09-02T04:59:32Z</time>
  <speed>2.710000</speed>
</trkpt>
<trkpt lat="32.864570618" lon="35.239250183">
  <ele>214.512939</ele>
  <time>2011-09-02T04:59:34Z</time>
  <speed>2.770000</speed>
</trkpt>
<trkpt lat="32.864582062" lon="35.239311218">
  <ele>213.719971</ele>
  <time>2011-09-02T04:59:36Z</time>
  <speed>2.650000</speed>
</trkpt>
<trkpt lat="32.864582062" lon="35.239368439">
  <ele>214.032471</ele>
  <time>2011-09-02T04:59:38Z</time>
  <speed>2.940000</speed>
</trkpt>
<trkpt lat="32.864578247" lon="35.239429474">
  <ele>213.821533</ele>
  <time>2011-09-02T04:59:40Z</time>
  <speed>2.950000</speed>
</trkpt>
<trkpt lat="32.864562988" lon="35.239490509">
  <ele>214.122314</ele>
  <time>2011-09-02T04:59:42Z</time>
  <speed>3.020000</speed>
</trkpt>
<trkpt lat="32.864551544" lon="35.239524841">
  <ele>214.895752</ele>
  <time>2011-09-02T04:59:43Z</time>
  <speed>2.890000</speed>
</trkpt>
<trkpt lat="32.864536285" lon="35.239555359">
  <ele>215.012939</ele>
  <time>2011-09-02T04:59:44Z</time>
  <speed>3.150000</speed>
</trkpt>
<trkpt lat="32.864524841" lon="35.239585876">
  <ele>215.657471</ele>
  <time>2011-09-02T04:59:45Z</time>
  <speed>2.960000</speed>
</trkpt>
<trkpt lat="32.864501953" lon="35.239635468">
  <ele>215.227783</ele>
  <time>2011-09-02T04:59:47Z</time>
  <speed>3.050000</speed>
</trkpt>
<trkpt lat="32.864475250" lon="35.239688873">
  <ele>215.598877</ele>
  <time>2011-09-02T04:59:49Z</time>
  <speed>3.030000</speed>
</trkpt>
<trkpt lat="32.864467621" lon="35.239719391">
  <ele>215.411377</ele>
  <time>2011-09-02T04:59:50Z</time>
  <speed>3.070000</speed>
</trkpt>
<trkpt lat="32.864459991" lon="35.239753723">
  <ele>215.329346</ele>
  <time>2011-09-02T04:59:51Z</time>
  <speed>3.020000</speed>
</trkpt>
<trkpt lat="32.864444733" lon="35.239780426">
  <ele>215.657471</ele>
  <time>2011-09-02T04:59:52Z</time>
  <speed>3.120000</speed>
</trkpt>
<trkpt lat="32.864433289" lon="35.239810944">
  <ele>215.731689</ele>
  <time>2011-09-02T04:59:53Z</time>
  <speed>3.210000</speed>
</trkpt>
<trkpt lat="32.864421844" lon="35.239841461">
  <ele>216.305908</ele>
  <time>2011-09-02T04:59:54Z</time>
  <speed>3.280000</speed>
</trkpt>
<trkpt lat="32.864406586" lon="35.239871979">
  <ele>216.149658</ele>
  <time>2011-09-02T04:59:55Z</time>
  <speed>3.190000</speed>
</trkpt>
<trkpt lat="32.864395142" lon="35.239902496">
  <ele>216.731689</ele>
  <time>2011-09-02T04:59:56Z</time>
  <speed>3.360000</speed>
</trkpt>
<trkpt lat="32.864383698" lon="35.239933014">
  <ele>217.290283</ele>
  <time>2011-09-02T04:59:57Z</time>
  <speed>3.360000</speed>
</trkpt>
<trkpt lat="32.864372253" lon="35.239967346">
  <ele>217.469971</ele>
  <time>2011-09-02T04:59:58Z</time>
  <speed>3.150000</speed>
</trkpt>
<trkpt lat="32.864364624" lon="35.239997864">
  <ele>217.649658</ele>
  <time>2011-09-02T04:59:59Z</time>
  <speed>3.170000</speed>
</trkpt>
<trkpt lat="32.864345551" lon="35.240058899">
  <ele>217.950439</ele>
  <time>2011-09-02T05:00:01Z</time>
  <speed>3.380000</speed>
</trkpt>
<trkpt lat="32.864337921" lon="35.240093231">
  <ele>217.829346</ele>
  <time>2011-09-02T05:00:02Z</time>
  <speed>3.370000</speed>
</trkpt>
<trkpt lat="32.864326477" lon="35.240127563">
  <ele>217.977783</ele>
  <time>2011-09-02T05:00:03Z</time>
  <speed>3.130000</speed>
</trkpt>
<trkpt lat="32.864322662" lon="35.240161896">
  <ele>217.555908</ele>
  <time>2011-09-02T05:00:04Z</time>
  <speed>3.000000</speed>
</trkpt>
<trkpt lat="32.864299774" lon="35.240219116">
  <ele>218.118408</ele>
  <time>2011-09-02T05:00:06Z</time>
  <speed>2.890000</speed>
</trkpt>
<trkpt lat="32.864288330" lon="35.240249634">
  <ele>218.239502</ele>
  <time>2011-09-02T05:00:07Z</time>
  <speed>3.340000</speed>
</trkpt>
<trkpt lat="32.864276886" lon="35.240280151">
  <ele>218.481689</ele>
  <time>2011-09-02T05:00:08Z</time>
  <speed>3.200000</speed>
</trkpt>
<trkpt lat="32.864269257" lon="35.240318298">
  <ele>217.696533</ele>
  <time>2011-09-02T05:00:09Z</time>
  <speed>3.220000</speed>
</trkpt>
<trkpt lat="32.864257813" lon="35.240348816">
  <ele>218.079346</ele>
  <time>2011-09-02T05:00:10Z</time>
  <speed>2.970000</speed>
</trkpt>
<trkpt lat="32.864250183" lon="35.240383148">
  <ele>218.411377</ele>
  <time>2011-09-02T05:00:11Z</time>
  <speed>2.960000</speed>
</trkpt>
<trkpt lat="32.864250183" lon="35.240413666">
  <ele>218.165283</ele>
  <time>2011-09-02T05:00:12Z</time>
  <speed>2.840000</speed>
</trkpt>
<trkpt lat="32.864238739" lon="35.240470886">
  <ele>217.809814</ele>
  <time>2011-09-02T05:00:14Z</time>
  <speed>3.330000</speed>
</trkpt>
<trkpt lat="32.864231110" lon="35.240505219">
  <ele>217.598877</ele>
  <time>2011-09-02T05:00:15Z</time>
  <speed>3.690000</speed>
</trkpt>
<trkpt lat="32.864223480" lon="35.240539551">
  <ele>217.313721</ele>
  <time>2011-09-02T05:00:16Z</time>
  <speed>3.330000</speed>
</trkpt>
<trkpt lat="32.864212036" lon="35.240573883">
  <ele>217.052002</ele>
  <time>2011-09-02T05:00:17Z</time>
  <speed>3.600000</speed>
</trkpt>
<trkpt lat="32.864208221" lon="35.240619659">
  <ele>216.860596</ele>
  <time>2011-09-02T05:00:18Z</time>
  <speed>3.730000</speed>
</trkpt>
<trkpt lat="32.864200592" lon="35.240665436">
  <ele>216.716064</ele>
  <time>2011-09-02T05:00:19Z</time>
  <speed>3.690000</speed>
</trkpt>
<trkpt lat="32.864189148" lon="35.240695953">
  <ele>216.770752</ele>
  <time>2011-09-02T05:00:20Z</time>
  <speed>3.370000</speed>
</trkpt>
<trkpt lat="32.864170074" lon="35.240753174">
  <ele>216.677002</ele>
  <time>2011-09-02T05:00:22Z</time>
  <speed>2.820000</speed>
</trkpt>
<trkpt lat="32.864154816" lon="35.240783691">
  <ele>216.907471</ele>
  <time>2011-09-02T05:00:23Z</time>
  <speed>2.370000</speed>
</trkpt>
<trkpt lat="32.864151001" lon="35.240829468">
  <ele>216.641846</ele>
  <time>2011-09-02T05:00:25Z</time>
  <speed>1.800000</speed>
</trkpt>
<trkpt lat="32.864131927" lon="35.240859985">
  <ele>216.110596</ele>
  <time>2011-09-02T05:00:27Z</time>
  <speed>1.650000</speed>
</trkpt>
<trkpt lat="32.864139557" lon="35.240901947">
  <ele>215.942627</ele>
  <time>2011-09-02T05:00:30Z</time>
  <speed>1.450000</speed>
</trkpt>
<trkpt lat="32.864170074" lon="35.240924835">
  <ele>215.977783</ele>
  <time>2011-09-02T05:00:32Z</time>
  <speed>1.610000</speed>
</trkpt>
<trkpt lat="32.864204407" lon="35.240905762">
  <ele>215.969971</ele>
  <time>2011-09-02T05:00:34Z</time>
  <speed>2.060000</speed>
</trkpt>
<trkpt lat="32.864234924" lon="35.240875244">
  <ele>217.305908</ele>
  <time>2011-09-02T05:00:36Z</time>
  <speed>2.140000</speed>
</trkpt>
<trkpt lat="32.864265442" lon="35.240848541">
  <ele>218.309814</ele>
  <time>2011-09-02T05:00:38Z</time>
  <speed>2.270000</speed>
</trkpt>
<trkpt lat="32.864280701" lon="35.240818024">
  <ele>218.844971</ele>
  <time>2011-09-02T05:00:39Z</time>
  <speed>2.040000</speed>
</trkpt>
<trkpt lat="32.864303589" lon="35.240768433">
  <ele>218.895752</ele>
  <time>2011-09-02T05:00:41Z</time>
  <speed>2.290000</speed>
</trkpt>
<trkpt lat="32.864334106" lon="35.240718842">
  <ele>219.778564</ele>
  <time>2011-09-02T05:00:43Z</time>
  <speed>2.410000</speed>
</trkpt>
<trkpt lat="32.864356995" lon="35.240665436">
  <ele>219.485596</ele>
  <time>2011-09-02T05:00:45Z</time>
  <speed>2.420000</speed>
</trkpt>
<trkpt lat="32.864376068" lon="35.240619659">
  <ele>219.719971</ele>
  <time>2011-09-02T05:00:47Z</time>
  <speed>2.230000</speed>
</trkpt>
<trkpt lat="32.864395142" lon="35.240570068">
  <ele>219.962158</ele>
  <time>2011-09-02T05:00:49Z</time>
  <speed>2.150000</speed>
</trkpt>
<trkpt lat="32.864406586" lon="35.240531921">
  <ele>220.137939</ele>
  <time>2011-09-02T05:00:51Z</time>
  <speed>1.970000</speed>
</trkpt>
<trkpt lat="32.864425659" lon="35.240493774">
  <ele>220.645752</ele>
  <time>2011-09-02T05:00:53Z</time>
  <speed>2.280000</speed>
</trkpt>
<trkpt lat="32.864433289" lon="35.240463257">
  <ele>222.016846</ele>
  <time>2011-09-02T05:00:54Z</time>
  <speed>2.290000</speed>
</trkpt>
<trkpt lat="32.864456177" lon="35.240413666">
  <ele>224.657471</ele>
  <time>2011-09-02T05:00:56Z</time>
  <speed>2.320000</speed>
</trkpt>
<trkpt lat="32.864471436" lon="35.240375519">
  <ele>224.509033</ele>
  <time>2011-09-02T05:00:58Z</time>
  <speed>2.160000</speed>
</trkpt>
<trkpt lat="32.864482880" lon="35.240337372">
  <ele>224.626221</ele>
  <time>2011-09-02T05:01:00Z</time>
  <speed>2.220000</speed>
</trkpt>
<trkpt lat="32.864501953" lon="35.240295410">
  <ele>225.583252</ele>
  <time>2011-09-02T05:01:02Z</time>
  <speed>2.030000</speed>
</trkpt>
<trkpt lat="32.864524841" lon="35.240253448">
  <ele>226.071533</ele>
  <time>2011-09-02T05:01:04Z</time>
  <speed>2.250000</speed>
</trkpt>
<trkpt lat="32.864547729" lon="35.240211487">
  <ele>225.962158</ele>
  <time>2011-09-02T05:01:06Z</time>
  <speed>2.240000</speed>
</trkpt>
<trkpt lat="32.864570618" lon="35.240169525">
  <ele>225.684814</ele>
  <time>2011-09-02T05:01:08Z</time>
  <speed>2.170000</speed>
</trkpt>
<trkpt lat="32.864589691" lon="35.240135193">
  <ele>225.469971</ele>
  <time>2011-09-02T05:01:10Z</time>
  <speed>2.090000</speed>
</trkpt>
<trkpt lat="32.864616394" lon="35.240093231">
  <ele>225.481689</ele>
  <time>2011-09-02T05:01:12Z</time>
  <speed>2.270000</speed>
</trkpt>
<trkpt lat="32.864635468" lon="35.240039825">
  <ele>225.501221</ele>
  <time>2011-09-02T05:01:14Z</time>
  <speed>2.850000</speed>
</trkpt>
<trkpt lat="32.864665985" lon="35.239994049">
  <ele>226.016846</ele>
  <time>2011-09-02T05:01:16Z</time>
  <speed>3.060000</speed>
</trkpt>
<trkpt lat="32.864677429" lon="35.239963531">
  <ele>227.235596</ele>
  <time>2011-09-02T05:01:17Z</time>
  <speed>3.240000</speed>
</trkpt>
<trkpt lat="32.864715576" lon="35.239913940">
  <ele>227.442627</ele>
  <time>2011-09-02T05:01:19Z</time>
  <speed>2.690000</speed>
</trkpt>
<trkpt lat="32.864746094" lon="35.239875793">
  <ele>227.227783</ele>
  <time>2011-09-02T05:01:21Z</time>
  <speed>2.580000</speed>
</trkpt>
<trkpt lat="32.864772797" lon="35.239833832">
  <ele>228.020752</ele>
  <time>2011-09-02T05:01:23Z</time>
  <speed>2.600000</speed>
</trkpt>
<trkpt lat="32.864803314" lon="35.239791870">
  <ele>227.954346</ele>
  <time>2011-09-02T05:01:25Z</time>
  <speed>2.480000</speed>
</trkpt>
<trkpt lat="32.864837646" lon="35.239753723">
  <ele>228.130127</ele>
  <time>2011-09-02T05:01:27Z</time>
  <speed>2.600000</speed>
</trkpt>
<trkpt lat="32.864868164" lon="35.239723206">
  <ele>228.751221</ele>
  <time>2011-09-02T05:01:29Z</time>
  <speed>2.660000</speed>
</trkpt>
<trkpt lat="32.864891052" lon="35.239696503">
  <ele>229.059814</ele>
  <time>2011-09-02T05:01:30Z</time>
  <speed>2.700000</speed>
</trkpt>
<trkpt lat="32.864921570" lon="35.239650726">
  <ele>228.930908</ele>
  <time>2011-09-02T05:01:32Z</time>
  <speed>3.050000</speed>
</trkpt>
<trkpt lat="32.864959717" lon="35.239608765">
  <ele>229.114502</ele>
  <time>2011-09-02T05:01:34Z</time>
  <speed>3.020000</speed>
</trkpt>
<trkpt lat="32.864978790" lon="35.239585876">
  <ele>228.669189</ele>
  <time>2011-09-02T05:01:35Z</time>
  <speed>2.720000</speed>
</trkpt>
<trkpt lat="32.865016937" lon="35.239543915">
  <ele>228.911377</ele>
  <time>2011-09-02T05:01:37Z</time>
  <speed>2.970000</speed>
</trkpt>
<trkpt lat="32.865047455" lon="35.239498138">
  <ele>229.333252</ele>
  <time>2011-09-02T05:01:39Z</time>
  <speed>2.500000</speed>
</trkpt>
<trkpt lat="32.865081787" lon="35.239459991">
  <ele>230.294189</ele>
  <time>2011-09-02T05:01:41Z</time>
  <speed>2.640000</speed>
</trkpt>
<trkpt lat="32.865116119" lon="35.239425659">
  <ele>231.446533</ele>
  <time>2011-09-02T05:01:43Z</time>
  <speed>2.560000</speed>
</trkpt>
<trkpt lat="32.865154266" lon="35.239391327">
  <ele>232.266846</ele>
  <time>2011-09-02T05:01:45Z</time>
  <speed>2.490000</speed>
</trkpt>
<trkpt lat="32.865188599" lon="35.239368439">
  <ele>232.509033</ele>
  <time>2011-09-02T05:01:47Z</time>
  <speed>2.490000</speed>
</trkpt>
<trkpt lat="32.865226746" lon="35.239341736">
  <ele>232.141846</ele>
  <time>2011-09-02T05:01:49Z</time>
  <speed>2.430000</speed>
</trkpt>
<trkpt lat="32.865261078" lon="35.239318848">
  <ele>233.134033</ele>
  <time>2011-09-02T05:01:51Z</time>
  <speed>2.280000</speed>
</trkpt>
<trkpt lat="32.865303040" lon="35.239307404">
  <ele>233.360596</ele>
  <time>2011-09-02T05:01:53Z</time>
  <speed>2.370000</speed>
</trkpt>
<trkpt lat="32.865345001" lon="35.239303589">
  <ele>234.540283</ele>
  <time>2011-09-02T05:01:55Z</time>
  <speed>2.120000</speed>
</trkpt>
<trkpt lat="32.865383148" lon="35.239299774">
  <ele>235.059814</ele>
  <time>2011-09-02T05:01:57Z</time>
  <speed>2.230000</speed>
</trkpt>
<trkpt lat="32.865421295" lon="35.239307404">
  <ele>236.169189</ele>
  <time>2011-09-02T05:01:59Z</time>
  <speed>2.300000</speed>
</trkpt>
<trkpt lat="32.865459442" lon="35.239318848">
  <ele>236.727783</ele>
  <time>2011-09-02T05:02:01Z</time>
  <speed>2.200000</speed>
</trkpt>
<trkpt lat="32.865493774" lon="35.239337921">
  <ele>237.032471</ele>
  <time>2011-09-02T05:02:03Z</time>
  <speed>2.380000</speed>
</trkpt>
<trkpt lat="32.865528107" lon="35.239364624">
  <ele>237.825439</ele>
  <time>2011-09-02T05:02:05Z</time>
  <speed>2.260000</speed>
</trkpt>
<trkpt lat="32.865562439" lon="35.239395142">
  <ele>238.782471</ele>
  <time>2011-09-02T05:02:07Z</time>
  <speed>2.400000</speed>
</trkpt>
<trkpt lat="32.865596771" lon="35.239418030">
  <ele>238.973877</ele>
  <time>2011-09-02T05:02:09Z</time>
  <speed>2.070000</speed>
</trkpt>
<trkpt lat="32.865634918" lon="35.239437103">
  <ele>238.352783</ele>
  <time>2011-09-02T05:02:11Z</time>
  <speed>2.510000</speed>
</trkpt>
<trkpt lat="32.865669250" lon="35.239459991">
  <ele>236.743408</ele>
  <time>2011-09-02T05:02:13Z</time>
  <speed>2.100000</speed>
</trkpt>
<trkpt lat="32.865707397" lon="35.239490509">
  <ele>236.762939</ele>
  <time>2011-09-02T05:02:15Z</time>
  <speed>2.410000</speed>
</trkpt>
<trkpt lat="32.865734100" lon="35.239517212">
  <ele>237.739502</ele>
  <time>2011-09-02T05:02:17Z</time>
  <speed>2.180000</speed>
</trkpt>
<trkpt lat="32.865764618" lon="35.239536285">
  <ele>238.552002</ele>
  <time>2011-09-02T05:02:19Z</time>
  <speed>2.250000</speed>
</trkpt>
<trkpt lat="32.865791321" lon="35.239574432">
  <ele>238.524658</ele>
  <time>2011-09-02T05:02:21Z</time>
  <speed>2.640000</speed>
</trkpt>
<trkpt lat="32.865837097" lon="35.239608765">
  <ele>238.552002</ele>
  <time>2011-09-02T05:02:23Z</time>
  <speed>2.540000</speed>
</trkpt>
<trkpt lat="32.865886688" lon="35.239646912">
  <ele>240.309814</ele>
  <time>2011-09-02T05:02:25Z</time>
  <speed>2.260000</speed>
</trkpt>
<trkpt lat="32.865909576" lon="35.239681244">
  <ele>240.536377</ele>
  <time>2011-09-02T05:02:27Z</time>
  <speed>2.430000</speed>
</trkpt>
<trkpt lat="32.865924835" lon="35.239730835">
  <ele>241.762939</ele>
  <time>2011-09-02T05:02:29Z</time>
  <speed>2.450000</speed>
</trkpt>
<trkpt lat="32.865924835" lon="35.239780426">
  <ele>242.153564</ele>
  <time>2011-09-02T05:02:31Z</time>
  <speed>2.310000</speed>
</trkpt>
<trkpt lat="32.865898132" lon="35.239822388">
  <ele>241.177002</ele>
  <time>2011-09-02T05:02:33Z</time>
  <speed>2.400000</speed>
</trkpt>
<trkpt lat="32.865875244" lon="35.239860535">
  <ele>241.677002</ele>
  <time>2011-09-02T05:02:35Z</time>
  <speed>2.210000</speed>
</trkpt>
<trkpt lat="32.865859985" lon="35.239906311">
  <ele>241.548096</ele>
  <time>2011-09-02T05:02:37Z</time>
  <speed>2.430000</speed>
</trkpt>
<trkpt lat="32.865840912" lon="35.239948273">
  <ele>241.278564</ele>
  <time>2011-09-02T05:02:39Z</time>
  <speed>2.430000</speed>
</trkpt>
<trkpt lat="32.865833282" lon="35.239978790">
  <ele>241.708252</ele>
  <time>2011-09-02T05:02:40Z</time>
  <speed>2.550000</speed>
</trkpt>
<trkpt lat="32.865814209" lon="35.240032196">
  <ele>242.177002</ele>
  <time>2011-09-02T05:02:42Z</time>
  <speed>2.670000</speed>
</trkpt>
<trkpt lat="32.865802765" lon="35.240081787">
  <ele>242.227783</ele>
  <time>2011-09-02T05:02:44Z</time>
  <speed>2.280000</speed>
</trkpt>
<trkpt lat="32.865783691" lon="35.240123749">
  <ele>242.716064</ele>
  <time>2011-09-02T05:02:46Z</time>
  <speed>2.460000</speed>
</trkpt>
<trkpt lat="32.865764618" lon="35.240165710">
  <ele>243.747314</ele>
  <time>2011-09-02T05:02:48Z</time>
  <speed>2.240000</speed>
</trkpt>
<trkpt lat="32.865756989" lon="35.240219116">
  <ele>243.860596</ele>
  <time>2011-09-02T05:02:50Z</time>
  <speed>2.180000</speed>
</trkpt>
<trkpt lat="32.865741730" lon="35.240264893">
  <ele>243.739502</ele>
  <time>2011-09-02T05:02:52Z</time>
  <speed>2.420000</speed>
</trkpt>
<trkpt lat="32.865737915" lon="35.240310669">
  <ele>244.028564</ele>
  <time>2011-09-02T05:02:54Z</time>
  <speed>2.010000</speed>
</trkpt>
<trkpt lat="32.865718842" lon="35.240348816">
  <ele>243.759033</ele>
  <time>2011-09-02T05:02:56Z</time>
  <speed>2.060000</speed>
</trkpt>
<trkpt lat="32.865711212" lon="35.240390778">
  <ele>244.387939</ele>
  <time>2011-09-02T05:02:58Z</time>
  <speed>2.110000</speed>
</trkpt>
<trkpt lat="32.865699768" lon="35.240428925">
  <ele>244.559814</ele>
  <time>2011-09-02T05:03:00Z</time>
  <speed>2.160000</speed>
</trkpt>
<trkpt lat="32.865688324" lon="35.240474701">
  <ele>245.454346</ele>
  <time>2011-09-02T05:03:02Z</time>
  <speed>2.120000</speed>
</trkpt>
<trkpt lat="32.865665436" lon="35.240512848">
  <ele>246.028564</ele>
  <time>2011-09-02T05:03:04Z</time>
  <speed>2.200000</speed>
</trkpt>
<trkpt lat="32.865665436" lon="35.240558624">
  <ele>246.602783</ele>
  <time>2011-09-02T05:03:06Z</time>
  <speed>2.270000</speed>
</trkpt>
<trkpt lat="32.865650177" lon="35.240604401">
  <ele>247.962158</ele>
  <time>2011-09-02T05:03:08Z</time>
  <speed>2.240000</speed>
</trkpt>
<trkpt lat="32.865634918" lon="35.240646362">
  <ele>249.407471</ele>
  <time>2011-09-02T05:03:10Z</time>
  <speed>2.100000</speed>
</trkpt>
<trkpt lat="32.865623474" lon="35.240692139">
  <ele>250.512939</ele>
  <time>2011-09-02T05:03:12Z</time>
  <speed>2.080000</speed>
</trkpt>
<trkpt lat="32.865612030" lon="35.240734100">
  <ele>251.321533</ele>
  <time>2011-09-02T05:03:14Z</time>
  <speed>2.110000</speed>
</trkpt>
<trkpt lat="32.865604401" lon="35.240783691">
  <ele>250.641846</ele>
  <time>2011-09-02T05:03:16Z</time>
  <speed>2.250000</speed>
</trkpt>
<trkpt lat="32.865596771" lon="35.240821838">
  <ele>249.169189</ele>
  <time>2011-09-02T05:03:18Z</time>
  <speed>1.820000</speed>
</trkpt>
<trkpt lat="32.865585327" lon="35.240863800">
  <ele>249.372314</ele>
  <time>2011-09-02T05:03:20Z</time>
  <speed>2.090000</speed>
</trkpt>
<trkpt lat="32.865570068" lon="35.240909576">
  <ele>248.294189</ele>
  <time>2011-09-02T05:03:22Z</time>
  <speed>2.320000</speed>
</trkpt>
<trkpt lat="32.865554810" lon="35.240962982">
  <ele>248.473877</ele>
  <time>2011-09-02T05:03:24Z</time>
  <speed>2.360000</speed>
</trkpt>
<trkpt lat="32.865528107" lon="35.241008759">
  <ele>248.489502</ele>
  <time>2011-09-02T05:03:26Z</time>
  <speed>2.370000</speed>
</trkpt>
<trkpt lat="32.865512848" lon="35.241050720">
  <ele>248.731689</ele>
  <time>2011-09-02T05:03:28Z</time>
  <speed>2.180000</speed>
</trkpt>
<trkpt lat="32.865493774" lon="35.241092682">
  <ele>248.536377</ele>
  <time>2011-09-02T05:03:30Z</time>
  <speed>2.310000</speed>
</trkpt>
<trkpt lat="32.865474701" lon="35.241142273">
  <ele>248.188721</ele>
  <time>2011-09-02T05:03:32Z</time>
  <speed>2.290000</speed>
</trkpt>
<trkpt lat="32.865459442" lon="35.241188049">
  <ele>247.493408</ele>
  <time>2011-09-02T05:03:34Z</time>
  <speed>2.170000</speed>
</trkpt>
<trkpt lat="32.865440369" lon="35.241237640">
  <ele>247.794189</ele>
  <time>2011-09-02T05:03:36Z</time>
  <speed>2.570000</speed>
</trkpt>
<trkpt lat="32.865421295" lon="35.241291046">
  <ele>247.528564</ele>
  <time>2011-09-02T05:03:38Z</time>
  <speed>2.650000</speed>
</trkpt>
<trkpt lat="32.865398407" lon="35.241336823">
  <ele>248.009033</ele>
  <time>2011-09-02T05:03:40Z</time>
  <speed>2.580000</speed>
</trkpt>
<trkpt lat="32.865379333" lon="35.241386414">
  <ele>247.907471</ele>
  <time>2011-09-02T05:03:42Z</time>
  <speed>2.230000</speed>
</trkpt>
<trkpt lat="32.865360260" lon="35.241428375">
  <ele>247.606689</ele>
  <time>2011-09-02T05:03:44Z</time>
  <speed>2.350000</speed>
</trkpt>
<trkpt lat="32.865337372" lon="35.241477966">
  <ele>247.196533</ele>
  <time>2011-09-02T05:03:46Z</time>
  <speed>2.490000</speed>
</trkpt>
<trkpt lat="32.865322113" lon="35.241523743">
  <ele>245.223877</ele>
  <time>2011-09-02T05:03:48Z</time>
  <speed>2.410000</speed>
</trkpt>
<trkpt lat="32.865314484" lon="35.241573334">
  <ele>244.762939</ele>
  <time>2011-09-02T05:03:50Z</time>
  <speed>2.290000</speed>
</trkpt>
<trkpt lat="32.865291595" lon="35.241611481">
  <ele>245.356689</ele>
  <time>2011-09-02T05:03:52Z</time>
  <speed>2.470000</speed>
</trkpt>
<trkpt lat="32.865272522" lon="35.241657257">
  <ele>246.177002</ele>
  <time>2011-09-02T05:03:54Z</time>
  <speed>2.290000</speed>
</trkpt>
<trkpt lat="32.865253448" lon="35.241703033">
  <ele>248.677002</ele>
  <time>2011-09-02T05:03:56Z</time>
  <speed>2.620000</speed>
</trkpt>
<trkpt lat="32.865238190" lon="35.241752625">
  <ele>249.927002</ele>
  <time>2011-09-02T05:03:58Z</time>
  <speed>2.500000</speed>
</trkpt>
<trkpt lat="32.865222931" lon="35.241790771">
  <ele>250.469971</ele>
  <time>2011-09-02T05:04:00Z</time>
  <speed>2.070000</speed>
</trkpt>
<trkpt lat="32.865215302" lon="35.241840363">
  <ele>250.817627</ele>
  <time>2011-09-02T05:04:02Z</time>
  <speed>2.010000</speed>
</trkpt>
<trkpt lat="32.865203857" lon="35.241878510">
  <ele>251.497314</ele>
  <time>2011-09-02T05:04:04Z</time>
  <speed>2.180000</speed>
</trkpt>
<trkpt lat="32.865192413" lon="35.241905212">
  <ele>253.458252</ele>
  <time>2011-09-02T05:04:05Z</time>
  <speed>2.270000</speed>
</trkpt>
<trkpt lat="32.865180969" lon="35.241939545">
  <ele>253.700439</ele>
  <time>2011-09-02T05:04:07Z</time>
  <speed>1.830000</speed>
</trkpt>
<trkpt lat="32.865180969" lon="35.241989136">
  <ele>253.075439</ele>
  <time>2011-09-02T05:04:09Z</time>
  <speed>2.200000</speed>
</trkpt>
<trkpt lat="32.865165710" lon="35.242034912">
  <ele>254.325439</ele>
  <time>2011-09-02T05:04:11Z</time>
  <speed>1.960000</speed>
</trkpt>
<trkpt lat="32.865150452" lon="35.242092133">
  <ele>253.716064</ele>
  <time>2011-09-02T05:04:13Z</time>
  <speed>2.190000</speed>
</trkpt>
<trkpt lat="32.865135193" lon="35.242137909">
  <ele>253.852783</ele>
  <time>2011-09-02T05:04:15Z</time>
  <speed>2.010000</speed>
</trkpt>
<trkpt lat="32.865127563" lon="35.242179871">
  <ele>253.938721</ele>
  <time>2011-09-02T05:04:17Z</time>
  <speed>2.210000</speed>
</trkpt>
<trkpt lat="32.865116119" lon="35.242225647">
  <ele>254.473877</ele>
  <time>2011-09-02T05:04:19Z</time>
  <speed>1.980000</speed>
</trkpt>
<trkpt lat="32.865112305" lon="35.242271423">
  <ele>254.540283</ele>
  <time>2011-09-02T05:04:21Z</time>
  <speed>1.900000</speed>
</trkpt>
<trkpt lat="32.865108490" lon="35.242317200">
  <ele>254.864502</ele>
  <time>2011-09-02T05:04:23Z</time>
  <speed>2.020000</speed>
</trkpt>
<trkpt lat="32.865100861" lon="35.242359161">
  <ele>255.126221</ele>
  <time>2011-09-02T05:04:25Z</time>
  <speed>1.810000</speed>
</trkpt>
<trkpt lat="32.865104675" lon="35.242389679">
  <ele>256.705566</ele>
  <time>2011-09-02T05:04:27Z</time>
  <speed>2.000000</speed>
</trkpt>
<trkpt lat="32.865108490" lon="35.242435455">
  <ele>257.994629</ele>
  <time>2011-09-02T05:04:29Z</time>
  <speed>1.920000</speed>
</trkpt>
<trkpt lat="32.865116119" lon="35.242473602">
  <ele>257.955566</ele>
  <time>2011-09-02T05:04:31Z</time>
  <speed>1.780000</speed>
</trkpt>
<trkpt lat="32.865139008" lon="35.242519379">
  <ele>257.479004</ele>
  <time>2011-09-02T05:04:33Z</time>
  <speed>1.880000</speed>
</trkpt>
<trkpt lat="32.865158081" lon="35.242561340">
  <ele>257.643066</ele>
  <time>2011-09-02T05:04:35Z</time>
  <speed>1.930000</speed>
</trkpt>
<trkpt lat="32.865169525" lon="35.242603302">
  <ele>258.088379</ele>
  <time>2011-09-02T05:04:37Z</time>
  <speed>2.000000</speed>
</trkpt>
<trkpt lat="32.865177155" lon="35.242641449">
  <ele>258.736816</ele>
  <time>2011-09-02T05:04:39Z</time>
  <speed>1.950000</speed>
</trkpt>
<trkpt lat="32.865180969" lon="35.242687225">
  <ele>258.799316</ele>
  <time>2011-09-02T05:04:41Z</time>
  <speed>1.700000</speed>
</trkpt>
<trkpt lat="32.865180969" lon="35.242721558">
  <ele>258.471191</ele>
  <time>2011-09-02T05:04:43Z</time>
  <speed>1.860000</speed>
</trkpt>
<trkpt lat="32.865211487" lon="35.242767334">
  <ele>258.502441</ele>
  <time>2011-09-02T05:04:45Z</time>
  <speed>1.890000</speed>
</trkpt>
<trkpt lat="32.865222931" lon="35.242809296">
  <ele>258.018066</ele>
  <time>2011-09-02T05:04:47Z</time>
  <speed>1.920000</speed>
</trkpt>
<trkpt lat="32.865230560" lon="35.242847443">
  <ele>258.322754</ele>
  <time>2011-09-02T05:04:49Z</time>
  <speed>1.990000</speed>
</trkpt>
<trkpt lat="32.865242004" lon="35.242885590">
  <ele>259.111816</ele>
  <time>2011-09-02T05:04:51Z</time>
  <speed>1.930000</speed>
</trkpt>
<trkpt lat="32.865245819" lon="35.242923737">
  <ele>259.932129</ele>
  <time>2011-09-02T05:04:53Z</time>
  <speed>1.810000</speed>
</trkpt>
<trkpt lat="32.865272522" lon="35.242965698">
  <ele>259.963379</ele>
  <time>2011-09-02T05:04:55Z</time>
  <speed>1.720000</speed>
</trkpt>
<trkpt lat="32.865283966" lon="35.243000031">
  <ele>260.689941</ele>
  <time>2011-09-02T05:04:57Z</time>
  <speed>1.820000</speed>
</trkpt>
<trkpt lat="32.865291595" lon="35.243049622">
  <ele>261.096191</ele>
  <time>2011-09-02T05:04:59Z</time>
  <speed>1.900000</speed>
</trkpt>
<trkpt lat="32.865306854" lon="35.243083954">
  <ele>261.760254</ele>
  <time>2011-09-02T05:05:01Z</time>
  <speed>1.970000</speed>
</trkpt>
<trkpt lat="32.865325928" lon="35.243118286">
  <ele>262.549316</ele>
  <time>2011-09-02T05:05:03Z</time>
  <speed>2.290000</speed>
</trkpt>
<trkpt lat="32.865352631" lon="35.243160248">
  <ele>263.018066</ele>
  <time>2011-09-02T05:05:05Z</time>
  <speed>2.350000</speed>
</trkpt>
<trkpt lat="32.865371704" lon="35.243186951">
  <ele>263.088379</ele>
  <time>2011-09-02T05:05:06Z</time>
  <speed>2.770000</speed>
</trkpt>
<trkpt lat="32.865379333" lon="35.243217468">
  <ele>262.736816</ele>
  <time>2011-09-02T05:05:07Z</time>
  <speed>3.010000</speed>
</trkpt>
<trkpt lat="32.865406036" lon="35.243270874">
  <ele>261.783691</ele>
  <time>2011-09-02T05:05:09Z</time>
  <speed>2.780000</speed>
</trkpt>
<trkpt lat="32.865421295" lon="35.243328094">
  <ele>261.135254</ele>
  <time>2011-09-02T05:05:11Z</time>
  <speed>2.700000</speed>
</trkpt>
<trkpt lat="32.865432739" lon="35.243381500">
  <ele>261.072754</ele>
  <time>2011-09-02T05:05:13Z</time>
  <speed>2.510000</speed>
</trkpt>
<trkpt lat="32.865451813" lon="35.243438721">
  <ele>260.119629</ele>
  <time>2011-09-02T05:05:15Z</time>
  <speed>2.770000</speed>
</trkpt>
<trkpt lat="32.865463257" lon="35.243495941">
  <ele>259.518066</ele>
  <time>2011-09-02T05:05:17Z</time>
  <speed>3.080000</speed>
</trkpt>
<trkpt lat="32.865463257" lon="35.243534088">
  <ele>259.088379</ele>
  <time>2011-09-02T05:05:18Z</time>
  <speed>3.420000</speed>
</trkpt>
<trkpt lat="32.865467072" lon="35.243568420">
  <ele>258.799316</ele>
  <time>2011-09-02T05:05:19Z</time>
  <speed>3.480000</speed>
</trkpt>
<trkpt lat="32.865470886" lon="35.243606567">
  <ele>258.494629</ele>
  <time>2011-09-02T05:05:20Z</time>
  <speed>3.430000</speed>
</trkpt>
<trkpt lat="32.865482330" lon="35.243644714">
  <ele>258.166504</ele>
  <time>2011-09-02T05:05:21Z</time>
  <speed>3.500000</speed>
</trkpt>
<trkpt lat="32.865486145" lon="35.243679047">
  <ele>257.822754</ele>
  <time>2011-09-02T05:05:22Z</time>
  <speed>3.270000</speed>
</trkpt>
<trkpt lat="32.865478516" lon="35.243751526">
  <ele>257.439941</ele>
  <time>2011-09-02T05:05:24Z</time>
  <speed>3.440000</speed>
</trkpt>
<trkpt lat="32.865478516" lon="35.243793488">
  <ele>256.986816</ele>
  <time>2011-09-02T05:05:25Z</time>
  <speed>2.860000</speed>
</trkpt>
<trkpt lat="32.865478516" lon="35.243831635">
  <ele>256.861816</ele>
  <time>2011-09-02T05:05:26Z</time>
  <speed>2.550000</speed>
</trkpt>
<trkpt lat="32.865478516" lon="35.243888855">
  <ele>255.755127</ele>
  <time>2011-09-02T05:05:28Z</time>
  <speed>2.280000</speed>
</trkpt>
<trkpt lat="32.865493774" lon="35.243938446">
  <ele>255.251221</ele>
  <time>2011-09-02T05:05:30Z</time>
  <speed>1.480000</speed>
</trkpt>
<trkpt lat="32.865486145" lon="35.243984222">
  <ele>256.049316</ele>
  <time>2011-09-02T05:05:32Z</time>
  <speed>2.000000</speed>
</trkpt>
<trkpt lat="32.865463257" lon="35.244041443">
  <ele>256.354004</ele>
  <time>2011-09-02T05:05:34Z</time>
  <speed>2.090000</speed>
</trkpt>
<trkpt lat="32.865444183" lon="35.244094849">
  <ele>256.244629</ele>
  <time>2011-09-02T05:05:36Z</time>
  <speed>1.980000</speed>
</trkpt>
<trkpt lat="32.865428925" lon="35.244129181">
  <ele>257.025879</ele>
  <time>2011-09-02T05:05:37Z</time>
  <speed>2.630000</speed>
</trkpt>
<trkpt lat="32.865421295" lon="35.244159698">
  <ele>256.885254</ele>
  <time>2011-09-02T05:05:38Z</time>
  <speed>2.340000</speed>
</trkpt>
<trkpt lat="32.865402222" lon="35.244201660">
  <ele>257.229004</ele>
  <time>2011-09-02T05:05:39Z</time>
  <speed>2.850000</speed>
</trkpt>
<trkpt lat="32.865390778" lon="35.244243622">
  <ele>257.283691</ele>
  <time>2011-09-02T05:05:40Z</time>
  <speed>3.170000</speed>
</trkpt>
<trkpt lat="32.865386963" lon="35.244281769">
  <ele>257.900879</ele>
  <time>2011-09-02T05:05:41Z</time>
  <speed>3.360000</speed>
</trkpt>
<trkpt lat="32.865383148" lon="35.244319916">
  <ele>258.213379</ele>
  <time>2011-09-02T05:05:42Z</time>
  <speed>3.310000</speed>
</trkpt>
<trkpt lat="32.865375519" lon="35.244361877">
  <ele>258.471191</ele>
  <time>2011-09-02T05:05:43Z</time>
  <speed>3.510000</speed>
</trkpt>
<trkpt lat="32.865371704" lon="35.244396210">
  <ele>257.869629</ele>
  <time>2011-09-02T05:05:44Z</time>
  <speed>3.440000</speed>
</trkpt>
<trkpt lat="32.865364075" lon="35.244434357">
  <ele>257.674316</ele>
  <time>2011-09-02T05:05:45Z</time>
  <speed>3.620000</speed>
</trkpt>
<trkpt lat="32.865360260" lon="35.244472504">
  <ele>257.744629</ele>
  <time>2011-09-02T05:05:46Z</time>
  <speed>3.810000</speed>
</trkpt>
<trkpt lat="32.865371704" lon="35.244525909">
  <ele>257.861816</ele>
  <time>2011-09-02T05:05:47Z</time>
  <speed>4.620000</speed>
</trkpt>
<trkpt lat="32.865375519" lon="35.244579315">
  <ele>257.729004</ele>
  <time>2011-09-02T05:05:48Z</time>
  <speed>4.560000</speed>
</trkpt>
<trkpt lat="32.865383148" lon="35.244632721">
  <ele>258.299316</ele>
  <time>2011-09-02T05:05:49Z</time>
  <speed>4.530000</speed>
</trkpt>
<trkpt lat="32.865394592" lon="35.244674683">
  <ele>258.588379</ele>
  <time>2011-09-02T05:05:50Z</time>
  <speed>3.970000</speed>
</trkpt>
<trkpt lat="32.865413666" lon="35.244720459">
  <ele>257.877441</ele>
  <time>2011-09-02T05:05:51Z</time>
  <speed>3.610000</speed>
</trkpt>
<trkpt lat="32.865428925" lon="35.244754791">
  <ele>257.979004</ele>
  <time>2011-09-02T05:05:52Z</time>
  <speed>3.070000</speed>
</trkpt>
<trkpt lat="32.865463257" lon="35.244781494">
  <ele>258.463379</ele>
  <time>2011-09-02T05:05:53Z</time>
  <speed>3.070000</speed>
</trkpt>
<trkpt lat="32.865482330" lon="35.244812012">
  <ele>258.564941</ele>
  <time>2011-09-02T05:05:54Z</time>
  <speed>3.540000</speed>
</trkpt>
<trkpt lat="32.865509033" lon="35.244838715">
  <ele>258.861816</ele>
  <time>2011-09-02T05:05:55Z</time>
  <speed>3.400000</speed>
</trkpt>
<trkpt lat="32.865547180" lon="35.244861603">
  <ele>259.525879</ele>
  <time>2011-09-02T05:05:56Z</time>
  <speed>3.560000</speed>
</trkpt>
<trkpt lat="32.865566254" lon="35.244892120">
  <ele>260.447754</ele>
  <time>2011-09-02T05:05:57Z</time>
  <speed>3.770000</speed>
</trkpt>
<trkpt lat="32.865592957" lon="35.244922638">
  <ele>260.330566</ele>
  <time>2011-09-02T05:05:58Z</time>
  <speed>3.730000</speed>
</trkpt>
<trkpt lat="32.865619659" lon="35.244949341">
  <ele>260.877441</ele>
  <time>2011-09-02T05:05:59Z</time>
  <speed>3.690000</speed>
</trkpt>
<trkpt lat="32.865653992" lon="35.244956970">
  <ele>259.705566</ele>
  <time>2011-09-02T05:06:00Z</time>
  <speed>3.970000</speed>
</trkpt>
<trkpt lat="32.865688324" lon="35.244968414">
  <ele>259.518066</ele>
  <time>2011-09-02T05:06:01Z</time>
  <speed>3.760000</speed>
</trkpt>
<trkpt lat="32.865730286" lon="35.244976044">
  <ele>259.143066</ele>
  <time>2011-09-02T05:06:02Z</time>
  <speed>4.560000</speed>
</trkpt>
<trkpt lat="32.865772247" lon="35.244983673">
  <ele>258.994629</ele>
  <time>2011-09-02T05:06:03Z</time>
  <speed>4.930000</speed>
</trkpt>
<trkpt lat="32.865818024" lon="35.244995117">
  <ele>258.400879</ele>
  <time>2011-09-02T05:06:04Z</time>
  <speed>5.300000</speed>
</trkpt>
<trkpt lat="32.865867615" lon="35.245006561">
  <ele>257.986816</ele>
  <time>2011-09-02T05:06:05Z</time>
  <speed>5.250000</speed>
</trkpt>
<trkpt lat="32.865917206" lon="35.245029449">
  <ele>257.119629</ele>
  <time>2011-09-02T05:06:06Z</time>
  <speed>6.200000</speed>
</trkpt>
<trkpt lat="32.865962982" lon="35.245059967">
  <ele>256.518066</ele>
  <time>2011-09-02T05:06:07Z</time>
  <speed>5.350000</speed>
</trkpt>
<trkpt lat="32.866001129" lon="35.245094299">
  <ele>256.705566</ele>
  <time>2011-09-02T05:06:08Z</time>
  <speed>4.310000</speed>
</trkpt>
<trkpt lat="32.866020203" lon="35.245132446">
  <ele>256.752441</ele>
  <time>2011-09-02T05:06:09Z</time>
  <speed>3.480000</speed>
</trkpt>
<trkpt lat="32.866027832" lon="35.245166779">
  <ele>257.244629</ele>
  <time>2011-09-02T05:06:10Z</time>
  <speed>2.820000</speed>
</trkpt>
<trkpt lat="32.866031647" lon="35.245197296">
  <ele>256.400879</ele>
  <time>2011-09-02T05:06:11Z</time>
  <speed>2.710000</speed>
</trkpt>
<trkpt lat="32.866035461" lon="35.245246887">
  <ele>255.985596</ele>
  <time>2011-09-02T05:06:13Z</time>
  <speed>1.730000</speed>
</trkpt>
<trkpt lat="32.866043091" lon="35.245292664">
  <ele>256.088379</ele>
  <time>2011-09-02T05:06:16Z</time>
  <speed>1.510000</speed>
</trkpt>
<trkpt lat="32.866069794" lon="35.245319366">
  <ele>257.080566</ele>
  <time>2011-09-02T05:06:18Z</time>
  <speed>1.530000</speed>
</trkpt>
<trkpt lat="32.866069794" lon="35.245361328">
  <ele>257.627441</ele>
  <time>2011-09-02T05:06:20Z</time>
  <speed>1.390000</speed>
</trkpt>
<trkpt lat="32.866081238" lon="35.245391846">
  <ele>258.033691</ele>
  <time>2011-09-02T05:06:22Z</time>
  <speed>1.490000</speed>
</trkpt>
<trkpt lat="32.866100311" lon="35.245433807">
  <ele>258.447754</ele>
  <time>2011-09-02T05:06:24Z</time>
  <speed>1.750000</speed>
</trkpt>
<trkpt lat="32.866123199" lon="35.245456696">
  <ele>259.486816</ele>
  <time>2011-09-02T05:06:26Z</time>
  <speed>1.530000</speed>
</trkpt>
<trkpt lat="32.866134644" lon="35.245502472">
  <ele>260.760254</ele>
  <time>2011-09-02T05:06:29Z</time>
  <speed>1.960000</speed>
</trkpt>
<trkpt lat="32.866149902" lon="35.245540619">
  <ele>260.791504</ele>
  <time>2011-09-02T05:06:31Z</time>
  <speed>2.090000</speed>
</trkpt>
<trkpt lat="32.866168976" lon="35.245578766">
  <ele>261.619629</ele>
  <time>2011-09-02T05:06:33Z</time>
  <speed>1.780000</speed>
</trkpt>
<trkpt lat="32.866180420" lon="35.245613098">
  <ele>262.150879</ele>
  <time>2011-09-02T05:06:36Z</time>
  <speed>1.440000</speed>
</trkpt>
<trkpt lat="32.866188049" lon="35.245662689">
  <ele>262.713379</ele>
  <time>2011-09-02T05:06:39Z</time>
  <speed>1.530000</speed>
</trkpt>
<trkpt lat="32.866195679" lon="35.245697021">
  <ele>263.119629</ele>
  <time>2011-09-02T05:06:41Z</time>
  <speed>1.350000</speed>
</trkpt>
<trkpt lat="32.866218567" lon="35.245735168">
  <ele>263.604004</ele>
  <time>2011-09-02T05:06:44Z</time>
  <speed>1.100000</speed>
</trkpt>
<trkpt lat="32.866241455" lon="35.245758057">
  <ele>263.744629</ele>
  <time>2011-09-02T05:06:47Z</time>
  <speed>1.250000</speed>
</trkpt>
<trkpt lat="32.866264343" lon="35.245792389">
  <ele>264.791504</ele>
  <time>2011-09-02T05:06:50Z</time>
  <speed>1.430000</speed>
</trkpt>
<trkpt lat="32.866283417" lon="35.245819092">
  <ele>265.080566</ele>
  <time>2011-09-02T05:06:53Z</time>
  <speed>1.280000</speed>
</trkpt>
<trkpt lat="32.866298676" lon="35.245849609">
  <ele>265.135254</ele>
  <time>2011-09-02T05:06:56Z</time>
  <speed>1.100000</speed>
</trkpt>
<trkpt lat="32.866313934" lon="35.245891571">
  <ele>265.361816</ele>
  <time>2011-09-02T05:06:59Z</time>
  <speed>1.190000</speed>
</trkpt>
<trkpt lat="32.866340637" lon="35.245914459">
  <ele>265.236816</ele>
  <time>2011-09-02T05:07:02Z</time>
  <speed>1.250000</speed>
</trkpt>
<trkpt lat="32.866355896" lon="35.245941162">
  <ele>265.455566</ele>
  <time>2011-09-02T05:07:05Z</time>
  <speed>0.600000</speed>
</trkpt>
<trkpt lat="32.866371155" lon="35.245971680">
  <ele>266.760254</ele>
  <time>2011-09-02T05:07:08Z</time>
  <speed>1.000000</speed>
</trkpt>
<trkpt lat="32.866378784" lon="35.246013641">
  <ele>267.971191</ele>
  <time>2011-09-02T05:07:11Z</time>
  <speed>1.190000</speed>
</trkpt>
<trkpt lat="32.866394043" lon="35.246047974">
  <ele>268.064941</ele>
  <time>2011-09-02T05:07:14Z</time>
  <speed>0.720000</speed>
</trkpt>
<trkpt lat="32.866420746" lon="35.246067047">
  <ele>268.205566</ele>
  <time>2011-09-02T05:07:17Z</time>
  <speed>1.370000</speed>
</trkpt>
<trkpt lat="32.866432190" lon="35.246097565">
  <ele>268.502441</ele>
  <time>2011-09-02T05:07:19Z</time>
  <speed>1.310000</speed>
</trkpt>
<trkpt lat="32.866455078" lon="35.246131897">
  <ele>269.033691</ele>
  <time>2011-09-02T05:07:22Z</time>
  <speed>1.410000</speed>
</trkpt>
<trkpt lat="32.866466522" lon="35.246166229">
  <ele>268.932129</ele>
  <time>2011-09-02T05:07:24Z</time>
  <speed>1.480000</speed>
</trkpt>
<trkpt lat="32.866481781" lon="35.246189117">
  <ele>269.580566</ele>
  <time>2011-09-02T05:07:26Z</time>
  <speed>1.410000</speed>
</trkpt>
<trkpt lat="32.866497040" lon="35.246227264">
  <ele>268.471191</ele>
  <time>2011-09-02T05:07:29Z</time>
  <speed>1.430000</speed>
</trkpt>
<trkpt lat="32.866516113" lon="35.246253967">
  <ele>269.111816</ele>
  <time>2011-09-02T05:07:32Z</time>
  <speed>1.260000</speed>
</trkpt>
<trkpt lat="32.866539001" lon="35.246292114">
  <ele>270.111816</ele>
  <time>2011-09-02T05:07:35Z</time>
  <speed>1.710000</speed>
</trkpt>
<trkpt lat="32.866588593" lon="35.246299744">
  <ele>270.439941</ele>
  <time>2011-09-02T05:07:37Z</time>
  <speed>1.100000</speed>
</trkpt>
<trkpt lat="32.866603851" lon="35.246330261">
  <ele>271.768066</ele>
  <time>2011-09-02T05:07:40Z</time>
  <speed>1.190000</speed>
</trkpt>
<trkpt lat="32.866622925" lon="35.246360779">
  <ele>271.939941</ele>
  <time>2011-09-02T05:07:43Z</time>
  <speed>1.290000</speed>
</trkpt>
<trkpt lat="32.866611481" lon="35.246406555">
  <ele>274.041504</ele>
  <time>2011-09-02T05:07:46Z</time>
  <speed>2.060000</speed>
</trkpt>
<trkpt lat="32.866596222" lon="35.246433258">
  <ele>274.518066</ele>
  <time>2011-09-02T05:07:48Z</time>
  <speed>1.360000</speed>
</trkpt>
<trkpt lat="32.866580963" lon="35.246463776">
  <ele>274.658691</ele>
  <time>2011-09-02T05:07:50Z</time>
  <speed>2.050000</speed>
</trkpt>
<trkpt lat="32.866558075" lon="35.246509552">
  <ele>275.299316</ele>
  <time>2011-09-02T05:07:52Z</time>
  <speed>2.010000</speed>
</trkpt>
<trkpt lat="32.866554260" lon="35.246551514">
  <ele>275.143066</ele>
  <time>2011-09-02T05:07:55Z</time>
  <speed>1.370000</speed>
</trkpt>
<trkpt lat="32.866561890" lon="35.246585846">
  <ele>275.416504</ele>
  <time>2011-09-02T05:07:57Z</time>
  <speed>1.240000</speed>
</trkpt>
<trkpt lat="32.866569519" lon="35.246616364">
  <ele>275.783691</ele>
  <time>2011-09-02T05:07:59Z</time>
  <speed>1.340000</speed>
</trkpt>
<trkpt lat="32.866565704" lon="35.246665955">
  <ele>276.369629</ele>
  <time>2011-09-02T05:08:02Z</time>
  <speed>1.150000</speed>
</trkpt>
<trkpt lat="32.866565704" lon="35.246719360">
  <ele>276.158691</ele>
  <time>2011-09-02T05:08:05Z</time>
  <speed>1.460000</speed>
</trkpt>
<trkpt lat="32.866573334" lon="35.246765137">
  <ele>276.971191</ele>
  <time>2011-09-02T05:08:08Z</time>
  <speed>1.300000</speed>
</trkpt>
<trkpt lat="32.866569519" lon="35.246799469">
  <ele>276.799316</ele>
  <time>2011-09-02T05:08:11Z</time>
  <speed>1.550000</speed>
</trkpt>
<trkpt lat="32.866577148" lon="35.246833801">
  <ele>276.932129</ele>
  <time>2011-09-02T05:08:13Z</time>
  <speed>1.210000</speed>
</trkpt>
<trkpt lat="32.866588593" lon="35.246871948">
  <ele>277.236816</ele>
  <time>2011-09-02T05:08:15Z</time>
  <speed>1.650000</speed>
</trkpt>
<trkpt lat="32.866611481" lon="35.246902466">
  <ele>277.244629</ele>
  <time>2011-09-02T05:08:17Z</time>
  <speed>1.270000</speed>
</trkpt>
<trkpt lat="32.866649628" lon="35.246932983">
  <ele>277.135254</ele>
  <time>2011-09-02T05:08:20Z</time>
  <speed>1.610000</speed>
</trkpt>
<trkpt lat="32.866680145" lon="35.246948242">
  <ele>276.768066</ele>
  <time>2011-09-02T05:08:22Z</time>
  <speed>1.430000</speed>
</trkpt>
<trkpt lat="32.866706848" lon="35.246974945">
  <ele>276.291504</ele>
  <time>2011-09-02T05:08:25Z</time>
  <speed>1.260000</speed>
</trkpt>
<trkpt lat="32.866725922" lon="35.246997833">
  <ele>275.971191</ele>
  <time>2011-09-02T05:08:27Z</time>
  <speed>1.270000</speed>
</trkpt>
<trkpt lat="32.866748810" lon="35.247028351">
  <ele>276.307129</ele>
  <time>2011-09-02T05:08:30Z</time>
  <speed>1.670000</speed>
</trkpt>
<trkpt lat="32.866767883" lon="35.247074127">
  <ele>276.150879</ele>
  <time>2011-09-02T05:08:33Z</time>
  <speed>1.320000</speed>
</trkpt>
<trkpt lat="32.866771698" lon="35.247108459">
  <ele>275.963379</ele>
  <time>2011-09-02T05:08:35Z</time>
  <speed>1.510000</speed>
</trkpt>
<trkpt lat="32.866786957" lon="35.247154236">
  <ele>277.494629</ele>
  <time>2011-09-02T05:08:37Z</time>
  <speed>2.160000</speed>
</trkpt>
<trkpt lat="32.866775513" lon="35.247184753">
  <ele>278.416504</ele>
  <time>2011-09-02T05:08:39Z</time>
  <speed>1.620000</speed>
</trkpt>
<trkpt lat="32.866756439" lon="35.247215271">
  <ele>278.861816</ele>
  <time>2011-09-02T05:08:41Z</time>
  <speed>1.350000</speed>
</trkpt>
<trkpt lat="32.866748810" lon="35.247245789">
  <ele>278.971191</ele>
  <time>2011-09-02T05:08:43Z</time>
  <speed>1.360000</speed>
</trkpt>
<trkpt lat="32.866737366" lon="35.247283936">
  <ele>279.596191</ele>
  <time>2011-09-02T05:08:46Z</time>
  <speed>1.200000</speed>
</trkpt>
<trkpt lat="32.866722107" lon="35.247329712">
  <ele>279.768066</ele>
  <time>2011-09-02T05:08:49Z</time>
  <speed>1.540000</speed>
</trkpt>
<trkpt lat="32.866710663" lon="35.247360229">
  <ele>280.369629</ele>
  <time>2011-09-02T05:08:51Z</time>
  <speed>1.680000</speed>
</trkpt>
<trkpt lat="32.866714478" lon="35.247398376">
  <ele>281.416504</ele>
  <time>2011-09-02T05:08:53Z</time>
  <speed>1.030000</speed>
</trkpt>
<trkpt lat="32.866718292" lon="35.247447968">
  <ele>282.721191</ele>
  <time>2011-09-02T05:08:56Z</time>
  <speed>1.620000</speed>
</trkpt>
<trkpt lat="32.866710663" lon="35.247489929">
  <ele>284.408691</ele>
  <time>2011-09-02T05:08:58Z</time>
  <speed>1.620000</speed>
</trkpt>
<trkpt lat="32.866722107" lon="35.247524261">
  <ele>285.916504</ele>
  <time>2011-09-02T05:09:00Z</time>
  <speed>1.340000</speed>
</trkpt>
<trkpt lat="32.866714478" lon="35.247554779">
  <ele>286.502441</ele>
  <time>2011-09-02T05:09:02Z</time>
  <speed>1.370000</speed>
</trkpt>
<trkpt lat="32.866703033" lon="35.247589111">
  <ele>287.283691</ele>
  <time>2011-09-02T05:09:04Z</time>
  <speed>1.370000</speed>
</trkpt>
<trkpt lat="32.866687775" lon="35.247623444">
  <ele>288.150879</ele>
  <time>2011-09-02T05:09:07Z</time>
  <speed>1.560000</speed>
</trkpt>
<trkpt lat="32.866687775" lon="35.247661591">
  <ele>288.791504</ele>
  <time>2011-09-02T05:09:10Z</time>
  <speed>1.360000</speed>
</trkpt>
<trkpt lat="32.866676331" lon="35.247692108">
  <ele>288.291504</ele>
  <time>2011-09-02T05:09:12Z</time>
  <speed>1.350000</speed>
</trkpt>
<trkpt lat="32.866664886" lon="35.247726440">
  <ele>288.619629</ele>
  <time>2011-09-02T05:09:14Z</time>
  <speed>1.530000</speed>
</trkpt>
<trkpt lat="32.866664886" lon="35.247760773">
  <ele>288.947754</ele>
  <time>2011-09-02T05:09:16Z</time>
  <speed>1.280000</speed>
</trkpt>
<trkpt lat="32.866653442" lon="35.247798920">
  <ele>289.674316</ele>
  <time>2011-09-02T05:09:18Z</time>
  <speed>1.420000</speed>
</trkpt>
<trkpt lat="32.866649628" lon="35.247840881">
  <ele>290.072754</ele>
  <time>2011-09-02T05:09:21Z</time>
  <speed>1.720000</speed>
</trkpt>
<trkpt lat="32.866638184" lon="35.247879028">
  <ele>290.939941</ele>
  <time>2011-09-02T05:09:23Z</time>
  <speed>1.650000</speed>
</trkpt>
<trkpt lat="32.866630554" lon="35.247924805">
  <ele>292.439941</ele>
  <time>2011-09-02T05:09:26Z</time>
  <speed>1.800000</speed>
</trkpt>
<trkpt lat="32.866619110" lon="35.247951508">
  <ele>295.088379</ele>
  <time>2011-09-02T05:09:28Z</time>
  <speed>1.350000</speed>
</trkpt>
<trkpt lat="32.866596222" lon="35.247970581">
  <ele>296.135254</ele>
  <time>2011-09-02T05:09:30Z</time>
  <speed>1.310000</speed>
</trkpt>
<trkpt lat="32.866584778" lon="35.248016357">
  <ele>298.018066</ele>
  <time>2011-09-02T05:09:33Z</time>
  <speed>1.410000</speed>
</trkpt>
<trkpt lat="32.866580963" lon="35.248050690">
  <ele>298.760254</ele>
  <time>2011-09-02T05:09:35Z</time>
  <speed>1.440000</speed>
</trkpt>
<trkpt lat="32.866554260" lon="35.248081207">
  <ele>299.760254</ele>
  <time>2011-09-02T05:09:38Z</time>
  <speed>1.010000</speed>
</trkpt>
<trkpt lat="32.866519928" lon="35.248107910">
  <ele>300.463379</ele>
  <time>2011-09-02T05:09:41Z</time>
  <speed>1.680000</speed>
</trkpt>
<trkpt lat="32.866500854" lon="35.248134613">
  <ele>300.783691</ele>
  <time>2011-09-02T05:09:43Z</time>
  <speed>1.380000</speed>
</trkpt>
<trkpt lat="32.866470337" lon="35.248157501">
  <ele>301.018066</ele>
  <time>2011-09-02T05:09:45Z</time>
  <speed>1.580000</speed>
</trkpt>
<trkpt lat="32.866439819" lon="35.248180389">
  <ele>300.893066</ele>
  <time>2011-09-02T05:09:47Z</time>
  <speed>1.820000</speed>
</trkpt>
<trkpt lat="32.866409302" lon="35.248207092">
  <ele>301.025879</ele>
  <time>2011-09-02T05:09:49Z</time>
  <speed>2.010000</speed>
</trkpt>
<trkpt lat="32.866359711" lon="35.248233795">
  <ele>300.627441</ele>
  <time>2011-09-02T05:09:51Z</time>
  <speed>2.690000</speed>
</trkpt>
<trkpt lat="32.866336823" lon="35.248245239">
  <ele>300.729004</ele>
  <time>2011-09-02T05:09:52Z</time>
  <speed>2.950000</speed>
</trkpt>
<trkpt lat="32.866306305" lon="35.248264313">
  <ele>300.830566</ele>
  <time>2011-09-02T05:09:53Z</time>
  <speed>3.390000</speed>
</trkpt>
<trkpt lat="32.866275787" lon="35.248275757">
  <ele>300.510254</ele>
  <time>2011-09-02T05:09:54Z</time>
  <speed>3.530000</speed>
</trkpt>
<trkpt lat="32.866245270" lon="35.248294830">
  <ele>300.049316</ele>
  <time>2011-09-02T05:09:55Z</time>
  <speed>3.450000</speed>
</trkpt>
<trkpt lat="32.866214752" lon="35.248317719">
  <ele>299.439941</ele>
  <time>2011-09-02T05:09:56Z</time>
  <speed>3.640000</speed>
</trkpt>
<trkpt lat="32.866184235" lon="35.248340607">
  <ele>298.971191</ele>
  <time>2011-09-02T05:09:57Z</time>
  <speed>3.890000</speed>
</trkpt>
<trkpt lat="32.866153717" lon="35.248352051">
  <ele>298.369629</ele>
  <time>2011-09-02T05:09:58Z</time>
  <speed>3.270000</speed>
</trkpt>
<trkpt lat="32.866123199" lon="35.248363495">
  <ele>298.049316</ele>
  <time>2011-09-02T05:09:59Z</time>
  <speed>3.210000</speed>
</trkpt>
<trkpt lat="32.866100311" lon="35.248382568">
  <ele>297.572754</ele>
  <time>2011-09-02T05:10:00Z</time>
  <speed>2.770000</speed>
</trkpt>
<trkpt lat="32.866069794" lon="35.248405457">
  <ele>297.447754</ele>
  <time>2011-09-02T05:10:02Z</time>
  <speed>1.000000</speed>
</trkpt>
<trkpt lat="32.866058350" lon="35.248432159">
  <ele>297.947754</ele>
  <time>2011-09-02T05:10:03Z</time>
  <speed>1.360000</speed>
</trkpt>
<trkpt lat="32.866054535" lon="35.248466492">
  <ele>298.166504</ele>
  <time>2011-09-02T05:10:05Z</time>
  <speed>1.740000</speed>
</trkpt>
<trkpt lat="32.866054535" lon="35.248500824">
  <ele>297.143066</ele>
  <time>2011-09-02T05:10:07Z</time>
  <speed>1.570000</speed>
</trkpt>
<trkpt lat="32.866073608" lon="35.248523712">
  <ele>298.064941</ele>
  <time>2011-09-02T05:10:11Z</time>
  <speed>0.470000</speed>
</trkpt>
<trkpt lat="32.866065979" lon="35.248558044">
  <ele>297.846191</ele>
  <time>2011-09-02T05:10:17Z</time>
  <speed>0.770000</speed>
</trkpt>
<trkpt lat="32.866062164" lon="35.248588562">
  <ele>297.744629</ele>
  <time>2011-09-02T05:10:21Z</time>
  <speed>0.890000</speed>
</trkpt>
<trkpt lat="32.866035461" lon="35.248619080">
  <ele>297.697754</ele>
  <time>2011-09-02T05:10:26Z</time>
  <speed>0.850000</speed>
</trkpt>
<trkpt lat="32.866020203" lon="35.248661041">
  <ele>297.486816</ele>
  <time>2011-09-02T05:10:30Z</time>
  <speed>0.530000</speed>
</trkpt>
<trkpt lat="32.865985870" lon="35.248687744">
  <ele>297.893066</ele>
  <time>2011-09-02T05:10:33Z</time>
  <speed>1.000000</speed>
</trkpt>
<trkpt lat="32.865959167" lon="35.248714447">
  <ele>298.533691</ele>
  <time>2011-09-02T05:10:36Z</time>
  <speed>1.610000</speed>
</trkpt>
<trkpt lat="32.865932465" lon="35.248725891">
  <ele>298.947754</ele>
  <time>2011-09-02T05:10:38Z</time>
  <speed>1.570000</speed>
</trkpt>
<trkpt lat="32.865905762" lon="35.248744965">
  <ele>298.916504</ele>
  <time>2011-09-02T05:10:40Z</time>
  <speed>1.340000</speed>
</trkpt>
<trkpt lat="32.865871429" lon="35.248764038">
  <ele>299.400879</ele>
  <time>2011-09-02T05:10:42Z</time>
  <speed>1.480000</speed>
</trkpt>
<trkpt lat="32.865848541" lon="35.248771667">
  <ele>299.463379</ele>
  <time>2011-09-02T05:10:44Z</time>
  <speed>1.400000</speed>
</trkpt>
<trkpt lat="32.865818024" lon="35.248771667">
  <ele>299.939941</ele>
  <time>2011-09-02T05:10:46Z</time>
  <speed>1.230000</speed>
</trkpt>
<trkpt lat="32.865783691" lon="35.248775482">
  <ele>300.877441</ele>
  <time>2011-09-02T05:10:48Z</time>
  <speed>1.420000</speed>
</trkpt>
<trkpt lat="32.865756989" lon="35.248756409">
  <ele>301.010254</ele>
  <time>2011-09-02T05:10:50Z</time>
  <speed>1.210000</speed>
</trkpt>
<trkpt lat="32.865726471" lon="35.248771667">
  <ele>300.760254</ele>
  <time>2011-09-02T05:10:53Z</time>
  <speed>1.110000</speed>
</trkpt>
<trkpt lat="32.865695953" lon="35.248783112">
  <ele>301.275879</ele>
  <time>2011-09-02T05:10:55Z</time>
  <speed>1.180000</speed>
</trkpt>
<trkpt lat="32.865665436" lon="35.248786926">
  <ele>300.260254</ele>
  <time>2011-09-02T05:10:57Z</time>
  <speed>1.340000</speed>
</trkpt>
<trkpt lat="32.865638733" lon="35.248802185">
  <ele>300.252441</ele>
  <time>2011-09-02T05:10:59Z</time>
  <speed>1.340000</speed>
</trkpt>
<trkpt lat="32.865600586" lon="35.248806000">
  <ele>301.283691</ele>
  <time>2011-09-02T05:11:02Z</time>
  <speed>1.340000</speed>
</trkpt>
<trkpt lat="32.865573883" lon="35.248821259">
  <ele>300.877441</ele>
  <time>2011-09-02T05:11:05Z</time>
  <speed>1.410000</speed>
</trkpt>
<trkpt lat="32.865543365" lon="35.248832703">
  <ele>300.627441</ele>
  <time>2011-09-02T05:11:07Z</time>
  <speed>1.620000</speed>
</trkpt>
<trkpt lat="32.865516663" lon="35.248844147">
  <ele>300.510254</ele>
  <time>2011-09-02T05:11:09Z</time>
  <speed>1.370000</speed>
</trkpt>
<trkpt lat="32.865486145" lon="35.248863220">
  <ele>299.822754</ele>
  <time>2011-09-02T05:11:12Z</time>
  <speed>1.390000</speed>
</trkpt>
<trkpt lat="32.865451813" lon="35.248863220">
  <ele>299.635254</ele>
  <time>2011-09-02T05:11:15Z</time>
  <speed>1.220000</speed>
</trkpt>
<trkpt lat="32.865417480" lon="35.248874664">
  <ele>300.283691</ele>
  <time>2011-09-02T05:11:18Z</time>
  <speed>1.230000</speed>
</trkpt>
<trkpt lat="32.865394592" lon="35.248889923">
  <ele>301.104004</ele>
  <time>2011-09-02T05:11:20Z</time>
  <speed>1.320000</speed>
</trkpt>
<trkpt lat="32.865356445" lon="35.248882294">
  <ele>302.041504</ele>
  <time>2011-09-02T05:11:23Z</time>
  <speed>1.170000</speed>
</trkpt>
<trkpt lat="32.865318298" lon="35.248882294">
  <ele>306.330566</ele>
  <time>2011-09-02T05:11:25Z</time>
  <speed>1.200000</speed>
</trkpt>
<trkpt lat="32.865287781" lon="35.248882294">
  <ele>307.572754</ele>
  <time>2011-09-02T05:11:27Z</time>
  <speed>1.620000</speed>
</trkpt>
<trkpt lat="32.865249634" lon="35.248886108">
  <ele>308.393066</ele>
  <time>2011-09-02T05:11:30Z</time>
  <speed>1.330000</speed>
</trkpt>
<trkpt lat="32.865215302" lon="35.248882294">
  <ele>309.479004</ele>
  <time>2011-09-02T05:11:33Z</time>
  <speed>1.490000</speed>
</trkpt>
<trkpt lat="32.865184784" lon="35.248867035">
  <ele>310.893066</ele>
  <time>2011-09-02T05:11:36Z</time>
  <speed>1.160000</speed>
</trkpt>
<trkpt lat="32.865161896" lon="35.248840332">
  <ele>312.018066</ele>
  <time>2011-09-02T05:11:38Z</time>
  <speed>1.340000</speed>
</trkpt>
<trkpt lat="32.865131378" lon="35.248859406">
  <ele>313.330566</ele>
  <time>2011-09-02T05:11:40Z</time>
  <speed>1.110000</speed>
</trkpt>
<trkpt lat="32.865093231" lon="35.248863220">
  <ele>313.244629</ele>
  <time>2011-09-02T05:11:43Z</time>
  <speed>1.480000</speed>
</trkpt>
<trkpt lat="32.865062714" lon="35.248867035">
  <ele>314.244629</ele>
  <time>2011-09-02T05:11:45Z</time>
  <speed>1.180000</speed>
</trkpt>
<trkpt lat="32.865028381" lon="35.248847961">
  <ele>314.463379</ele>
  <time>2011-09-02T05:11:48Z</time>
  <speed>1.190000</speed>
</trkpt>
<trkpt lat="32.864990234" lon="35.248851776">
  <ele>314.510254</ele>
  <time>2011-09-02T05:11:51Z</time>
  <speed>1.080000</speed>
</trkpt>
<trkpt lat="32.864959717" lon="35.248851776">
  <ele>315.322754</ele>
  <time>2011-09-02T05:11:54Z</time>
  <speed>1.250000</speed>
</trkpt>
<trkpt lat="32.864933014" lon="35.248874664">
  <ele>314.900879</ele>
  <time>2011-09-02T05:11:56Z</time>
  <speed>1.280000</speed>
</trkpt>
<trkpt lat="32.864894867" lon="35.248886108">
  <ele>314.268066</ele>
  <time>2011-09-02T05:11:59Z</time>
  <speed>1.100000</speed>
</trkpt>
<trkpt lat="32.864871979" lon="35.248908997">
  <ele>313.861816</ele>
  <time>2011-09-02T05:12:01Z</time>
  <speed>1.350000</speed>
</trkpt>
<trkpt lat="32.864852905" lon="35.248939514">
  <ele>313.385254</ele>
  <time>2011-09-02T05:12:03Z</time>
  <speed>1.420000</speed>
</trkpt>
<trkpt lat="32.864810944" lon="35.248943329">
  <ele>313.650879</ele>
  <time>2011-09-02T05:12:06Z</time>
  <speed>1.220000</speed>
</trkpt>
<trkpt lat="32.864780426" lon="35.248947144">
  <ele>313.744629</ele>
  <time>2011-09-02T05:12:08Z</time>
  <speed>1.520000</speed>
</trkpt>
<trkpt lat="32.864746094" lon="35.248962402">
  <ele>313.400879</ele>
  <time>2011-09-02T05:12:11Z</time>
  <speed>1.130000</speed>
</trkpt>
<trkpt lat="32.864707947" lon="35.248977661">
  <ele>313.580566</ele>
  <time>2011-09-02T05:12:14Z</time>
  <speed>1.510000</speed>
</trkpt>
<trkpt lat="32.864673615" lon="35.248992920">
  <ele>313.775879</ele>
  <time>2011-09-02T05:12:16Z</time>
  <speed>1.610000</speed>
</trkpt>
<trkpt lat="32.864643097" lon="35.248996735">
  <ele>313.916504</ele>
  <time>2011-09-02T05:12:18Z</time>
  <speed>1.550000</speed>
</trkpt>
<trkpt lat="32.864612579" lon="35.249004364">
  <ele>314.369629</ele>
  <time>2011-09-02T05:12:20Z</time>
  <speed>1.680000</speed>
</trkpt>
<trkpt lat="32.864585876" lon="35.249011993">
  <ele>314.244629</ele>
  <time>2011-09-02T05:12:22Z</time>
  <speed>1.420000</speed>
</trkpt>
<trkpt lat="32.864555359" lon="35.249019623">
  <ele>314.104004</ele>
  <time>2011-09-02T05:12:24Z</time>
  <speed>1.560000</speed>
</trkpt>
<trkpt lat="32.864524841" lon="35.249031067">
  <ele>313.854004</ele>
  <time>2011-09-02T05:12:26Z</time>
  <speed>2.220000</speed>
</trkpt>
<trkpt lat="32.864479065" lon="35.249046326">
  <ele>313.627441</ele>
  <time>2011-09-02T05:12:28Z</time>
  <speed>2.350000</speed>
</trkpt>
<trkpt lat="32.864433289" lon="35.249065399">
  <ele>314.338379</ele>
  <time>2011-09-02T05:12:30Z</time>
  <speed>2.370000</speed>
</trkpt>
<trkpt lat="32.864383698" lon="35.249065399">
  <ele>314.783691</ele>
  <time>2011-09-02T05:12:32Z</time>
  <speed>2.460000</speed>
</trkpt>
<trkpt lat="32.864334106" lon="35.249073029">
  <ele>314.924316</ele>
  <time>2011-09-02T05:12:34Z</time>
  <speed>2.300000</speed>
</trkpt>
<trkpt lat="32.864292145" lon="35.249076843">
  <ele>314.814941</ele>
  <time>2011-09-02T05:12:36Z</time>
  <speed>2.190000</speed>
</trkpt>
<trkpt lat="32.864253998" lon="35.249092102">
  <ele>314.666504</ele>
  <time>2011-09-02T05:12:38Z</time>
  <speed>1.110000</speed>
</trkpt>
<trkpt lat="32.864292145" lon="35.249099731">
  <ele>312.354004</ele>
  <time>2011-09-02T05:12:41Z</time>
  <speed>1.280000</speed>
</trkpt>
<trkpt lat="32.864318848" lon="35.249095917">
  <ele>311.182129</ele>
  <time>2011-09-02T05:12:43Z</time>
  <speed>0.610000</speed>
</trkpt>
<trkpt lat="32.864349365" lon="35.249080658">
  <ele>309.721191</ele>
  <time>2011-09-02T05:12:48Z</time>
  <speed>0.250000</speed>
</trkpt>
<trkpt lat="32.864360809" lon="35.249050140">
  <ele>310.072754</ele>
  <time>2011-09-02T05:15:01Z</time>
</trkpt>
<trkpt lat="32.864387512" lon="35.249008179">
  <ele>311.893066</ele>
  <time>2011-09-02T05:18:49Z</time>
  <speed>3.710000</speed>
</trkpt>
<trkpt lat="32.864410400" lon="35.248966217">
  <ele>312.119629</ele>
  <time>2011-09-02T05:18:50Z</time>
  <speed>3.710000</speed>
</trkpt>
<trkpt lat="32.864437103" lon="35.248924255">
  <ele>312.010254</ele>
  <time>2011-09-02T05:18:51Z</time>
  <speed>4.450000</speed>
</trkpt>
<trkpt lat="32.864467621" lon="35.248897552">
  <ele>311.486816</ele>
  <time>2011-09-02T05:18:52Z</time>
  <speed>4.080000</speed>
</trkpt>
<trkpt lat="32.864498138" lon="35.248863220">
  <ele>310.963379</ele>
  <time>2011-09-02T05:18:53Z</time>
  <speed>4.100000</speed>
</trkpt>
<trkpt lat="32.864517212" lon="35.248821259">
  <ele>310.369629</ele>
  <time>2011-09-02T05:18:54Z</time>
  <speed>4.170000</speed>
</trkpt>
<trkpt lat="32.864536285" lon="35.248786926">
  <ele>310.338379</ele>
  <time>2011-09-02T05:18:55Z</time>
  <speed>3.760000</speed>
</trkpt>
<trkpt lat="32.864559174" lon="35.248752594">
  <ele>309.783691</ele>
  <time>2011-09-02T05:18:56Z</time>
  <speed>3.600000</speed>
</trkpt>
<trkpt lat="32.864597321" lon="35.248737335">
  <ele>309.439941</ele>
  <time>2011-09-02T05:18:58Z</time>
  <speed>1.280000</speed>
</trkpt>
<trkpt lat="32.864635468" lon="35.248718262">
  <ele>308.791504</ele>
  <time>2011-09-02T05:19:00Z</time>
  <speed>2.480000</speed>
</trkpt>
<trkpt lat="32.864681244" lon="35.248691559">
  <ele>307.932129</ele>
  <time>2011-09-02T05:19:02Z</time>
  <speed>2.790000</speed>
</trkpt>
<trkpt lat="32.864711761" lon="35.248661041">
  <ele>307.338379</ele>
  <time>2011-09-02T05:19:04Z</time>
  <speed>1.570000</speed>
</trkpt>
<trkpt lat="32.864669800" lon="35.248626709">
  <ele>306.596191</ele>
  <time>2011-09-02T05:19:06Z</time>
  <speed>3.060000</speed>
</trkpt>
<trkpt lat="32.864639282" lon="35.248607635">
  <ele>306.025879</ele>
  <time>2011-09-02T05:19:07Z</time>
  <speed>2.570000</speed>
</trkpt>
<trkpt lat="32.864593506" lon="35.248607635">
  <ele>304.916504</ele>
  <time>2011-09-02T05:19:09Z</time>
  <speed>2.140000</speed>
</trkpt>
<trkpt lat="32.864540100" lon="35.248622894">
  <ele>303.869629</ele>
  <time>2011-09-02T05:19:11Z</time>
  <speed>3.210000</speed>
</trkpt>
<trkpt lat="32.864501953" lon="35.248626709">
  <ele>303.822754</ele>
  <time>2011-09-02T05:19:12Z</time>
  <speed>3.160000</speed>
</trkpt>
<trkpt lat="32.864467621" lon="35.248619080">
  <ele>304.424316</ele>
  <time>2011-09-02T05:19:13Z</time>
  <speed>2.630000</speed>
</trkpt>
<trkpt lat="32.864448547" lon="35.248592377">
  <ele>302.963379</ele>
  <time>2011-09-02T05:19:15Z</time>
  <speed>2.250000</speed>
</trkpt>
<trkpt lat="32.864494324" lon="35.248542786">
  <ele>302.580566</ele>
  <time>2011-09-02T05:19:17Z</time>
  <speed>4.080000</speed>
</trkpt>
<trkpt lat="32.864528656" lon="35.248523712">
  <ele>301.783691</ele>
  <time>2011-09-02T05:19:18Z</time>
  <speed>4.170000</speed>
</trkpt>
<trkpt lat="32.864570618" lon="35.248500824">
  <ele>302.111816</ele>
  <time>2011-09-02T05:19:19Z</time>
  <speed>5.020000</speed>
</trkpt>
<trkpt lat="32.864620209" lon="35.248485565">
  <ele>301.830566</ele>
  <time>2011-09-02T05:19:20Z</time>
  <speed>5.000000</speed>
</trkpt>
<trkpt lat="32.864665985" lon="35.248477936">
  <ele>301.275879</ele>
  <time>2011-09-02T05:19:21Z</time>
  <speed>5.010000</speed>
</trkpt>
<trkpt lat="32.864711761" lon="35.248474121">
  <ele>300.502441</ele>
  <time>2011-09-02T05:19:22Z</time>
  <speed>4.310000</speed>
</trkpt>
<trkpt lat="32.864746094" lon="35.248477936">
  <ele>299.369629</ele>
  <time>2011-09-02T05:19:23Z</time>
  <speed>3.310000</speed>
</trkpt>
<trkpt lat="32.864772797" lon="35.248455048">
  <ele>299.338379</ele>
  <time>2011-09-02T05:19:24Z</time>
  <speed>2.830000</speed>
</trkpt>
<trkpt lat="32.864788055" lon="35.248424530">
  <ele>299.744629</ele>
  <time>2011-09-02T05:19:25Z</time>
  <speed>2.600000</speed>
</trkpt>
<trkpt lat="32.864768982" lon="35.248367310">
  <ele>298.775879</ele>
  <time>2011-09-02T05:19:27Z</time>
  <speed>3.280000</speed>
</trkpt>
<trkpt lat="32.864757538" lon="35.248325348">
  <ele>298.658691</ele>
  <time>2011-09-02T05:19:28Z</time>
  <speed>3.670000</speed>
</trkpt>
<trkpt lat="32.864746094" lon="35.248291016">
  <ele>298.346191</ele>
  <time>2011-09-02T05:19:29Z</time>
  <speed>3.170000</speed>
</trkpt>
<trkpt lat="32.864734650" lon="35.248252869">
  <ele>298.010254</ele>
  <time>2011-09-02T05:19:30Z</time>
  <speed>3.730000</speed>
</trkpt>
<trkpt lat="32.864719391" lon="35.248214722">
  <ele>297.385254</ele>
  <time>2011-09-02T05:19:31Z</time>
  <speed>3.640000</speed>
</trkpt>
<trkpt lat="32.864707947" lon="35.248176575">
  <ele>297.041504</ele>
  <time>2011-09-02T05:19:32Z</time>
  <speed>3.220000</speed>
</trkpt>
<trkpt lat="32.864704132" lon="35.248130798">
  <ele>295.885254</ele>
  <time>2011-09-02T05:19:33Z</time>
  <speed>3.300000</speed>
</trkpt>
<trkpt lat="32.864707947" lon="35.248104095">
  <ele>293.775879</ele>
  <time>2011-09-02T05:19:34Z</time>
  <speed>1.970000</speed>
</trkpt>
<trkpt lat="32.864749908" lon="35.248062134">
  <ele>292.127441</ele>
  <time>2011-09-02T05:19:36Z</time>
  <speed>4.050000</speed>
</trkpt>
<trkpt lat="32.864788055" lon="35.248062134">
  <ele>291.611816</ele>
  <time>2011-09-02T05:19:37Z</time>
  <speed>4.010000</speed>
</trkpt>
<trkpt lat="32.864814758" lon="35.248065948">
  <ele>291.885254</ele>
  <time>2011-09-02T05:19:38Z</time>
  <speed>3.550000</speed>
</trkpt>
<trkpt lat="32.864845276" lon="35.248065948">
  <ele>291.525879</ele>
  <time>2011-09-02T05:19:39Z</time>
  <speed>3.590000</speed>
</trkpt>
<trkpt lat="32.864883423" lon="35.248062134">
  <ele>291.010254</ele>
  <time>2011-09-02T05:19:40Z</time>
  <speed>4.670000</speed>
</trkpt>
<trkpt lat="32.864925385" lon="35.248065948">
  <ele>290.479004</ele>
  <time>2011-09-02T05:19:41Z</time>
  <speed>4.530000</speed>
</trkpt>
<trkpt lat="32.864955902" lon="35.248062134">
  <ele>291.424316</ele>
  <time>2011-09-02T05:19:42Z</time>
  <speed>3.700000</speed>
</trkpt>
<trkpt lat="32.864990234" lon="35.248073578">
  <ele>290.588379</ele>
  <time>2011-09-02T05:19:43Z</time>
  <speed>3.490000</speed>
</trkpt>
<trkpt lat="32.865024567" lon="35.248077393">
  <ele>290.447754</ele>
  <time>2011-09-02T05:19:44Z</time>
  <speed>3.270000</speed>
</trkpt>
<trkpt lat="32.865055084" lon="35.248073578">
  <ele>291.658691</ele>
  <time>2011-09-02T05:19:45Z</time>
  <speed>3.580000</speed>
</trkpt>
<trkpt lat="32.865093231" lon="35.248069763">
  <ele>291.291504</ele>
  <time>2011-09-02T05:19:46Z</time>
  <speed>3.610000</speed>
</trkpt>
<trkpt lat="32.865127563" lon="35.248073578">
  <ele>291.322754</ele>
  <time>2011-09-02T05:19:47Z</time>
  <speed>3.890000</speed>
</trkpt>
<trkpt lat="32.865173340" lon="35.248069763">
  <ele>292.674316</ele>
  <time>2011-09-02T05:19:48Z</time>
  <speed>3.690000</speed>
</trkpt>
<trkpt lat="32.865211487" lon="35.248050690">
  <ele>292.643066</ele>
  <time>2011-09-02T05:19:49Z</time>
  <speed>4.200000</speed>
</trkpt>
<trkpt lat="32.865253448" lon="35.248027802">
  <ele>292.580566</ele>
  <time>2011-09-02T05:19:50Z</time>
  <speed>4.990000</speed>
</trkpt>
<trkpt lat="32.865299225" lon="35.248001099">
  <ele>291.010254</ele>
  <time>2011-09-02T05:19:51Z</time>
  <speed>5.240000</speed>
</trkpt>
<trkpt lat="32.865348816" lon="35.247970581">
  <ele>289.830566</ele>
  <time>2011-09-02T05:19:52Z</time>
  <speed>4.790000</speed>
</trkpt>
<trkpt lat="32.865386963" lon="35.247951508">
  <ele>289.830566</ele>
  <time>2011-09-02T05:19:53Z</time>
  <speed>4.250000</speed>
</trkpt>
<trkpt lat="32.865421295" lon="35.247936249">
  <ele>289.650879</ele>
  <time>2011-09-02T05:19:54Z</time>
  <speed>2.850000</speed>
</trkpt>
<trkpt lat="32.865455627" lon="35.247917175">
  <ele>290.361816</ele>
  <time>2011-09-02T05:19:55Z</time>
  <speed>3.100000</speed>
</trkpt>
<trkpt lat="32.865489960" lon="35.247901917">
  <ele>289.229004</ele>
  <time>2011-09-02T05:19:56Z</time>
  <speed>4.260000</speed>
</trkpt>
<trkpt lat="32.865535736" lon="35.247882843">
  <ele>288.049316</ele>
  <time>2011-09-02T05:19:57Z</time>
  <speed>6.200000</speed>
</trkpt>
<trkpt lat="32.865581512" lon="35.247856140">
  <ele>287.213379</ele>
  <time>2011-09-02T05:19:58Z</time>
  <speed>5.200000</speed>
</trkpt>
<trkpt lat="32.865631104" lon="35.247833252">
  <ele>286.932129</ele>
  <time>2011-09-02T05:19:59Z</time>
  <speed>4.710000</speed>
</trkpt>
<trkpt lat="32.865661621" lon="35.247791290">
  <ele>287.291504</ele>
  <time>2011-09-02T05:20:00Z</time>
  <speed>3.420000</speed>
</trkpt>
<trkpt lat="32.865695953" lon="35.247798920">
  <ele>286.799316</ele>
  <time>2011-09-02T05:20:01Z</time>
  <speed>4.000000</speed>
</trkpt>
<trkpt lat="32.865737915" lon="35.247806549">
  <ele>285.744629</ele>
  <time>2011-09-02T05:20:02Z</time>
  <speed>3.990000</speed>
</trkpt>
<trkpt lat="32.865779877" lon="35.247810364">
  <ele>285.135254</ele>
  <time>2011-09-02T05:20:03Z</time>
  <speed>3.780000</speed>
</trkpt>
<trkpt lat="32.865825653" lon="35.247798920">
  <ele>285.424316</ele>
  <time>2011-09-02T05:20:04Z</time>
  <speed>4.340000</speed>
</trkpt>
<trkpt lat="32.865863800" lon="35.247791290">
  <ele>285.307129</ele>
  <time>2011-09-02T05:20:05Z</time>
  <speed>3.730000</speed>
</trkpt>
<trkpt lat="32.865886688" lon="35.247772217">
  <ele>285.619629</ele>
  <time>2011-09-02T05:20:06Z</time>
  <speed>2.210000</speed>
</trkpt>
<trkpt lat="32.865921021" lon="35.247734070">
  <ele>285.619629</ele>
  <time>2011-09-02T05:20:08Z</time>
  <speed>2.620000</speed>
</trkpt>
<trkpt lat="32.865947723" lon="35.247699738">
  <ele>284.729004</ele>
  <time>2011-09-02T05:20:09Z</time>
  <speed>3.060000</speed>
</trkpt>
<trkpt lat="32.865970612" lon="35.247638702">
  <ele>283.533691</ele>
  <time>2011-09-02T05:20:10Z</time>
  <speed>4.460000</speed>
</trkpt>
<trkpt lat="32.865978241" lon="35.247570038">
  <ele>282.893066</ele>
  <time>2011-09-02T05:20:11Z</time>
  <speed>5.500000</speed>
</trkpt>
<trkpt lat="32.865985870" lon="35.247505188">
  <ele>281.494629</ele>
  <time>2011-09-02T05:20:12Z</time>
  <speed>6.040000</speed>
</trkpt>
<trkpt lat="32.865993500" lon="35.247440338">
  <ele>281.072754</ele>
  <time>2011-09-02T05:20:13Z</time>
  <speed>6.370000</speed>
</trkpt>
<trkpt lat="32.866008759" lon="35.247367859">
  <ele>280.643066</ele>
  <time>2011-09-02T05:20:14Z</time>
  <speed>6.030000</speed>
</trkpt>
<trkpt lat="32.866024017" lon="35.247303009">
  <ele>280.385254</ele>
  <time>2011-09-02T05:20:15Z</time>
  <speed>5.490000</speed>
</trkpt>
<trkpt lat="32.866027832" lon="35.247234344">
  <ele>281.580566</ele>
  <time>2011-09-02T05:20:16Z</time>
  <speed>5.390000</speed>
</trkpt>
<trkpt lat="32.866027832" lon="35.247177124">
  <ele>282.268066</ele>
  <time>2011-09-02T05:20:17Z</time>
  <speed>4.930000</speed>
</trkpt>
<trkpt lat="32.866016388" lon="35.247127533">
  <ele>281.588379</ele>
  <time>2011-09-02T05:20:18Z</time>
  <speed>5.440000</speed>
</trkpt>
<trkpt lat="32.866004944" lon="35.247062683">
  <ele>280.885254</ele>
  <time>2011-09-02T05:20:19Z</time>
  <speed>5.670000</speed>
</trkpt>
<trkpt lat="32.866004944" lon="35.247005463">
  <ele>279.783691</ele>
  <time>2011-09-02T05:20:20Z</time>
  <speed>4.890000</speed>
</trkpt>
<trkpt lat="32.866008759" lon="35.246955872">
  <ele>279.033691</ele>
  <time>2011-09-02T05:20:21Z</time>
  <speed>4.380000</speed>
</trkpt>
<trkpt lat="32.866016388" lon="35.246910095">
  <ele>278.916504</ele>
  <time>2011-09-02T05:20:22Z</time>
  <speed>4.260000</speed>
</trkpt>
<trkpt lat="32.866016388" lon="35.246860504">
  <ele>278.596191</ele>
  <time>2011-09-02T05:20:23Z</time>
  <speed>3.820000</speed>
</trkpt>
<trkpt lat="32.866012573" lon="35.246822357">
  <ele>278.416504</ele>
  <time>2011-09-02T05:20:24Z</time>
  <speed>3.780000</speed>
</trkpt>
<trkpt lat="32.865989685" lon="35.246780396">
  <ele>277.916504</ele>
  <time>2011-09-02T05:20:25Z</time>
  <speed>5.130000</speed>
</trkpt>
<trkpt lat="32.865962982" lon="35.246734619">
  <ele>277.525879</ele>
  <time>2011-09-02T05:20:26Z</time>
  <speed>4.940000</speed>
</trkpt>
<trkpt lat="32.865928650" lon="35.246673584">
  <ele>276.455566</ele>
  <time>2011-09-02T05:20:27Z</time>
  <speed>6.000000</speed>
</trkpt>
<trkpt lat="32.865894318" lon="35.246623993">
  <ele>276.104004</ele>
  <time>2011-09-02T05:20:28Z</time>
  <speed>5.830000</speed>
</trkpt>
<trkpt lat="32.865856171" lon="35.246578217">
  <ele>275.604004</ele>
  <time>2011-09-02T05:20:29Z</time>
  <speed>5.550000</speed>
</trkpt>
<trkpt lat="32.865821838" lon="35.246540070">
  <ele>275.268066</ele>
  <time>2011-09-02T05:20:30Z</time>
  <speed>5.150000</speed>
</trkpt>
<trkpt lat="32.865791321" lon="35.246498108">
  <ele>274.893066</ele>
  <time>2011-09-02T05:20:31Z</time>
  <speed>5.030000</speed>
</trkpt>
<trkpt lat="32.865776062" lon="35.246456146">
  <ele>274.143066</ele>
  <time>2011-09-02T05:20:32Z</time>
  <speed>4.170000</speed>
</trkpt>
<trkpt lat="32.865783691" lon="35.246406555">
  <ele>274.111816</ele>
  <time>2011-09-02T05:20:33Z</time>
  <speed>4.930000</speed>
</trkpt>
<trkpt lat="32.865798950" lon="35.246364594">
  <ele>273.963379</ele>
  <time>2011-09-02T05:20:34Z</time>
  <speed>4.470000</speed>
</trkpt>
<trkpt lat="32.865814209" lon="35.246307373">
  <ele>274.010254</ele>
  <time>2011-09-02T05:20:35Z</time>
  <speed>4.750000</speed>
</trkpt>
<trkpt lat="32.865829468" lon="35.246265411">
  <ele>274.158691</ele>
  <time>2011-09-02T05:20:36Z</time>
  <speed>3.290000</speed>
</trkpt>
<trkpt lat="32.865848541" lon="35.246234894">
  <ele>274.791504</ele>
  <time>2011-09-02T05:20:37Z</time>
  <speed>3.720000</speed>
</trkpt>
<trkpt lat="32.865875244" lon="35.246212006">
  <ele>274.533691</ele>
  <time>2011-09-02T05:20:38Z</time>
  <speed>3.840000</speed>
</trkpt>
<trkpt lat="32.865901947" lon="35.246185303">
  <ele>274.775879</ele>
  <time>2011-09-02T05:20:39Z</time>
  <speed>3.620000</speed>
</trkpt>
<trkpt lat="32.865936279" lon="35.246162415">
  <ele>275.057129</ele>
  <time>2011-09-02T05:20:40Z</time>
  <speed>3.530000</speed>
</trkpt>
<trkpt lat="32.865966797" lon="35.246158600">
  <ele>275.221191</ele>
  <time>2011-09-02T05:20:41Z</time>
  <speed>3.170000</speed>
</trkpt>
<trkpt lat="32.866008759" lon="35.246139526">
  <ele>276.830566</ele>
  <time>2011-09-02T05:20:43Z</time>
  <speed>2.640000</speed>
</trkpt>
<trkpt lat="32.866046906" lon="35.246112823">
  <ele>278.986816</ele>
  <time>2011-09-02T05:20:45Z</time>
  <speed>2.370000</speed>
</trkpt>
<trkpt lat="32.866065979" lon="35.246086121">
  <ele>279.424316</ele>
  <time>2011-09-02T05:20:46Z</time>
  <speed>2.610000</speed>
</trkpt>
<trkpt lat="32.866085052" lon="35.246063232">
  <ele>280.189941</ele>
  <time>2011-09-02T05:20:47Z</time>
  <speed>2.810000</speed>
</trkpt>
<trkpt lat="32.866111755" lon="35.246047974">
  <ele>280.541504</ele>
  <time>2011-09-02T05:20:48Z</time>
  <speed>2.730000</speed>
</trkpt>
<trkpt lat="32.866149902" lon="35.246040344">
  <ele>279.994629</ele>
  <time>2011-09-02T05:20:50Z</time>
  <speed>1.460000</speed>
</trkpt>
<trkpt lat="32.866184235" lon="35.246028900">
  <ele>280.869629</ele>
  <time>2011-09-02T05:20:52Z</time>
  <speed>1.350000</speed>
</trkpt>
<trkpt lat="32.866207123" lon="35.246047974">
  <ele>279.197754</ele>
  <time>2011-09-02T05:20:53Z</time>
  <speed>1.360000</speed>
</trkpt>
<trkpt lat="32.866237640" lon="35.246032715">
  <ele>277.205566</ele>
  <time>2011-09-02T05:20:55Z</time>
  <speed>1.330000</speed>
</trkpt>
<trkpt lat="32.866271973" lon="35.246009827">
  <ele>276.291504</ele>
  <time>2011-09-02T05:20:57Z</time>
  <speed>1.180000</speed>
</trkpt>
<trkpt lat="32.866283417" lon="35.245975494">
  <ele>276.033691</ele>
  <time>2011-09-02T05:20:59Z</time>
  <speed>0.800000</speed>
</trkpt>
<trkpt lat="32.866310120" lon="35.245925903">
  <ele>277.010254</ele>
  <time>2011-09-02T05:21:22Z</time>
  <speed>3.010000</speed>
</trkpt>
<trkpt lat="32.866333008" lon="35.245895386">
  <ele>276.439941</ele>
  <time>2011-09-02T05:21:23Z</time>
  <speed>3.280000</speed>
</trkpt>
<trkpt lat="32.866355896" lon="35.245868683">
  <ele>276.096191</ele>
  <time>2011-09-02T05:21:24Z</time>
  <speed>3.900000</speed>
</trkpt>
<trkpt lat="32.866382599" lon="35.245815277">
  <ele>275.525879</ele>
  <time>2011-09-02T05:21:25Z</time>
  <speed>4.980000</speed>
</trkpt>
<trkpt lat="32.866409302" lon="35.245773315">
  <ele>274.814941</ele>
  <time>2011-09-02T05:21:26Z</time>
  <speed>4.070000</speed>
</trkpt>
<trkpt lat="32.866428375" lon="35.245719910">
  <ele>273.518066</ele>
  <time>2011-09-02T05:21:27Z</time>
  <speed>4.330000</speed>
</trkpt>
<trkpt lat="32.866447449" lon="35.245662689">
  <ele>272.572754</ele>
  <time>2011-09-02T05:21:28Z</time>
  <speed>4.780000</speed>
</trkpt>
<trkpt lat="32.866470337" lon="35.245620728">
  <ele>271.900879</ele>
  <time>2011-09-02T05:21:29Z</time>
  <speed>4.540000</speed>
</trkpt>
<trkpt lat="32.866489410" lon="35.245563507">
  <ele>271.010254</ele>
  <time>2011-09-02T05:21:30Z</time>
  <speed>4.580000</speed>
</trkpt>
<trkpt lat="32.866519928" lon="35.245513916">
  <ele>270.471191</ele>
  <time>2011-09-02T05:21:31Z</time>
  <speed>4.950000</speed>
</trkpt>
<trkpt lat="32.866546631" lon="35.245468140">
  <ele>270.033691</ele>
  <time>2011-09-02T05:21:32Z</time>
  <speed>5.240000</speed>
</trkpt>
<trkpt lat="32.866577148" lon="35.245418549">
  <ele>269.275879</ele>
  <time>2011-09-02T05:21:33Z</time>
  <speed>5.270000</speed>
</trkpt>
<trkpt lat="32.866619110" lon="35.245380402">
  <ele>268.400879</ele>
  <time>2011-09-02T05:21:34Z</time>
  <speed>5.410000</speed>
</trkpt>
<trkpt lat="32.866661072" lon="35.245342255">
  <ele>267.572754</ele>
  <time>2011-09-02T05:21:35Z</time>
  <speed>6.110000</speed>
</trkpt>
<trkpt lat="32.866703033" lon="35.245285034">
  <ele>266.385254</ele>
  <time>2011-09-02T05:21:36Z</time>
  <speed>5.270000</speed>
</trkpt>
<trkpt lat="32.866741180" lon="35.245262146">
  <ele>265.244629</ele>
  <time>2011-09-02T05:21:37Z</time>
  <speed>4.510000</speed>
</trkpt>
<trkpt lat="32.866783142" lon="35.245246887">
  <ele>264.244629</ele>
  <time>2011-09-02T05:21:38Z</time>
  <speed>4.350000</speed>
</trkpt>
<trkpt lat="32.866825104" lon="35.245231628">
  <ele>263.596191</ele>
  <time>2011-09-02T05:21:39Z</time>
  <speed>3.490000</speed>
</trkpt>
<trkpt lat="32.866844177" lon="35.245197296">
  <ele>262.400879</ele>
  <time>2011-09-02T05:21:40Z</time>
  <speed>4.110000</speed>
</trkpt>
<trkpt lat="32.866847992" lon="35.245147705">
  <ele>261.674316</ele>
  <time>2011-09-02T05:21:41Z</time>
  <speed>4.910000</speed>
</trkpt>
<trkpt lat="32.866836548" lon="35.245086670">
  <ele>260.346191</ele>
  <time>2011-09-02T05:21:42Z</time>
  <speed>5.620000</speed>
</trkpt>
<trkpt lat="32.866828918" lon="35.245029449">
  <ele>258.275879</ele>
  <time>2011-09-02T05:21:43Z</time>
  <speed>5.290000</speed>
</trkpt>
<trkpt lat="32.866847992" lon="35.244953156">
  <ele>257.736816</ele>
  <time>2011-09-02T05:21:44Z</time>
  <speed>7.560000</speed>
</trkpt>
<trkpt lat="32.866874695" lon="35.244876862">
  <ele>257.213379</ele>
  <time>2011-09-02T05:21:45Z</time>
  <speed>7.390000</speed>
</trkpt>
<trkpt lat="32.866882324" lon="35.244800568">
  <ele>256.322754</ele>
  <time>2011-09-02T05:21:46Z</time>
  <speed>6.450000</speed>
</trkpt>
<trkpt lat="32.866882324" lon="35.244724274">
  <ele>255.423096</ele>
  <time>2011-09-02T05:21:47Z</time>
  <speed>7.620000</speed>
</trkpt>
<trkpt lat="32.866855621" lon="35.244655609">
  <ele>254.860596</ele>
  <time>2011-09-02T05:21:48Z</time>
  <speed>7.050000</speed>
</trkpt>
<trkpt lat="32.866809845" lon="35.244590759">
  <ele>254.423096</ele>
  <time>2011-09-02T05:21:49Z</time>
  <speed>7.750000</speed>
</trkpt>
<trkpt lat="32.866748810" lon="35.244541168">
  <ele>254.919189</ele>
  <time>2011-09-02T05:21:50Z</time>
  <speed>7.210000</speed>
</trkpt>
<trkpt lat="32.866691589" lon="35.244499207">
  <ele>254.450439</ele>
  <time>2011-09-02T05:21:51Z</time>
  <speed>7.150000</speed>
</trkpt>
<trkpt lat="32.866626740" lon="35.244461060">
  <ele>255.094971</ele>
  <time>2011-09-02T05:21:52Z</time>
  <speed>7.680000</speed>
</trkpt>
<trkpt lat="32.866561890" lon="35.244434357">
  <ele>254.844971</ele>
  <time>2011-09-02T05:21:53Z</time>
  <speed>7.020000</speed>
</trkpt>
<trkpt lat="32.866497040" lon="35.244419098">
  <ele>254.594971</ele>
  <time>2011-09-02T05:21:54Z</time>
  <speed>6.720000</speed>
</trkpt>
<trkpt lat="32.866436005" lon="35.244415283">
  <ele>254.555908</ele>
  <time>2011-09-02T05:21:55Z</time>
  <speed>6.720000</speed>
</trkpt>
<trkpt lat="32.866382599" lon="35.244422913">
  <ele>254.134033</ele>
  <time>2011-09-02T05:21:56Z</time>
  <speed>6.020000</speed>
</trkpt>
<trkpt lat="32.866329193" lon="35.244419098">
  <ele>254.255127</ele>
  <time>2011-09-02T05:21:57Z</time>
  <speed>5.530000</speed>
</trkpt>
<trkpt lat="32.866287231" lon="35.244396210">
  <ele>253.790283</ele>
  <time>2011-09-02T05:21:58Z</time>
  <speed>5.060000</speed>
</trkpt>
<trkpt lat="32.866252899" lon="35.244377136">
  <ele>253.770752</ele>
  <time>2011-09-02T05:21:59Z</time>
  <speed>3.510000</speed>
</trkpt>
<trkpt lat="32.866241455" lon="35.244338989">
  <ele>253.032471</ele>
  <time>2011-09-02T05:22:00Z</time>
  <speed>4.350000</speed>
</trkpt>
<trkpt lat="32.866260529" lon="35.244293213">
  <ele>252.052002</ele>
  <time>2011-09-02T05:22:01Z</time>
  <speed>4.390000</speed>
</trkpt>
<trkpt lat="32.866287231" lon="35.244262695">
  <ele>251.387939</ele>
  <time>2011-09-02T05:22:02Z</time>
  <speed>4.410000</speed>
</trkpt>
<trkpt lat="32.866321564" lon="35.244228363">
  <ele>250.399658</ele>
  <time>2011-09-02T05:22:03Z</time>
  <speed>4.430000</speed>
</trkpt>
<trkpt lat="32.866348267" lon="35.244194031">
  <ele>249.669189</ele>
  <time>2011-09-02T05:22:04Z</time>
  <speed>4.050000</speed>
</trkpt>
<trkpt lat="32.866371155" lon="35.244159698">
  <ele>249.227783</ele>
  <time>2011-09-02T05:22:05Z</time>
  <speed>3.890000</speed>
</trkpt>
<trkpt lat="32.866386414" lon="35.244113922">
  <ele>248.716064</ele>
  <time>2011-09-02T05:22:06Z</time>
  <speed>3.880000</speed>
</trkpt>
<trkpt lat="32.866390228" lon="35.244056702">
  <ele>247.727783</ele>
  <time>2011-09-02T05:22:07Z</time>
  <speed>4.430000</speed>
</trkpt>
<trkpt lat="32.866367340" lon="35.243984222">
  <ele>246.794189</ele>
  <time>2011-09-02T05:22:08Z</time>
  <speed>6.490000</speed>
</trkpt>
<trkpt lat="32.866352081" lon="35.243896484">
  <ele>245.927002</ele>
  <time>2011-09-02T05:22:09Z</time>
  <speed>6.580000</speed>
</trkpt>
<trkpt lat="32.866340637" lon="35.243816376">
  <ele>244.395752</ele>
  <time>2011-09-02T05:22:10Z</time>
  <speed>5.100000</speed>
</trkpt>
<trkpt lat="32.866352081" lon="35.243755341">
  <ele>243.333252</ele>
  <time>2011-09-02T05:22:11Z</time>
  <speed>4.640000</speed>
</trkpt>
<trkpt lat="32.866382599" lon="35.243698120">
  <ele>242.731689</ele>
  <time>2011-09-02T05:22:12Z</time>
  <speed>4.990000</speed>
</trkpt>
<trkpt lat="32.866416931" lon="35.243629456">
  <ele>241.149658</ele>
  <time>2011-09-02T05:22:13Z</time>
  <speed>5.470000</speed>
</trkpt>
<trkpt lat="32.866447449" lon="35.243568420">
  <ele>238.895752</ele>
  <time>2011-09-02T05:22:14Z</time>
  <speed>5.670000</speed>
</trkpt>
<trkpt lat="32.866477966" lon="35.243499756">
  <ele>237.173096</ele>
  <time>2011-09-02T05:22:15Z</time>
  <speed>6.400000</speed>
</trkpt>
<trkpt lat="32.866516113" lon="35.243408203">
  <ele>235.473877</ele>
  <time>2011-09-02T05:22:16Z</time>
  <speed>7.010000</speed>
</trkpt>
<trkpt lat="32.866550446" lon="35.243312836">
  <ele>233.552002</ele>
  <time>2011-09-02T05:22:17Z</time>
  <speed>6.810000</speed>
</trkpt>
<trkpt lat="32.866596222" lon="35.243232727">
  <ele>233.235596</ele>
  <time>2011-09-02T05:22:18Z</time>
  <speed>6.230000</speed>
</trkpt>
<trkpt lat="32.866645813" lon="35.243202209">
  <ele>232.005127</ele>
  <time>2011-09-02T05:22:19Z</time>
  <speed>5.930000</speed>
</trkpt>
<trkpt lat="32.866691589" lon="35.243175507">
  <ele>230.610596</ele>
  <time>2011-09-02T05:22:20Z</time>
  <speed>5.750000</speed>
</trkpt>
<trkpt lat="32.866737366" lon="35.243148804">
  <ele>229.329346</ele>
  <time>2011-09-02T05:22:21Z</time>
  <speed>5.400000</speed>
</trkpt>
<trkpt lat="32.866786957" lon="35.243095398">
  <ele>228.778564</ele>
  <time>2011-09-02T05:22:22Z</time>
  <speed>6.520000</speed>
</trkpt>
<trkpt lat="32.866828918" lon="35.243030548">
  <ele>227.919189</ele>
  <time>2011-09-02T05:22:23Z</time>
  <speed>6.550000</speed>
</trkpt>
<trkpt lat="32.866867065" lon="35.242973328">
  <ele>226.938721</ele>
  <time>2011-09-02T05:22:24Z</time>
  <speed>6.250000</speed>
</trkpt>
<trkpt lat="32.866905212" lon="35.242919922">
  <ele>225.985596</ele>
  <time>2011-09-02T05:22:25Z</time>
  <speed>5.730000</speed>
</trkpt>
<trkpt lat="32.866935730" lon="35.242870331">
  <ele>225.001221</ele>
  <time>2011-09-02T05:22:26Z</time>
  <speed>5.550000</speed>
</trkpt>
<trkpt lat="32.866966248" lon="35.242816925">
  <ele>224.364502</ele>
  <time>2011-09-02T05:22:27Z</time>
  <speed>4.860000</speed>
</trkpt>
<trkpt lat="32.866996765" lon="35.242748260">
  <ele>222.813721</ele>
  <time>2011-09-02T05:22:28Z</time>
  <speed>5.090000</speed>
</trkpt>
<trkpt lat="32.867034912" lon="35.242706299">
  <ele>221.614502</ele>
  <time>2011-09-02T05:22:29Z</time>
  <speed>6.060000</speed>
</trkpt>
<trkpt lat="32.867099762" lon="35.242649078">
  <ele>220.079346</ele>
  <time>2011-09-02T05:22:30Z</time>
  <speed>7.010000</speed>
</trkpt>
<trkpt lat="32.867149353" lon="35.242607117">
  <ele>219.141846</ele>
  <time>2011-09-02T05:22:31Z</time>
  <speed>6.890000</speed>
</trkpt>
<trkpt lat="32.867206573" lon="35.242546082">
  <ele>218.040283</ele>
  <time>2011-09-02T05:22:32Z</time>
  <speed>7.350000</speed>
</trkpt>
<trkpt lat="32.867256165" lon="35.242446899">
  <ele>217.688721</ele>
  <time>2011-09-02T05:22:33Z</time>
  <speed>7.400000</speed>
</trkpt>
<trkpt lat="32.867309570" lon="35.242404938">
  <ele>216.630127</ele>
  <time>2011-09-02T05:22:34Z</time>
  <speed>7.090000</speed>
</trkpt>
<trkpt lat="32.867362976" lon="35.242370605">
  <ele>215.919189</ele>
  <time>2011-09-02T05:22:35Z</time>
  <speed>6.660000</speed>
</trkpt>
<trkpt lat="32.867408752" lon="35.242336273">
  <ele>215.161377</ele>
  <time>2011-09-02T05:22:36Z</time>
  <speed>5.770000</speed>
</trkpt>
<trkpt lat="32.867465973" lon="35.242298126">
  <ele>214.212158</ele>
  <time>2011-09-02T05:22:37Z</time>
  <speed>6.120000</speed>
</trkpt>
<trkpt lat="32.867504120" lon="35.242263794">
  <ele>213.290283</ele>
  <time>2011-09-02T05:22:38Z</time>
  <speed>4.970000</speed>
</trkpt>
<trkpt lat="32.867534637" lon="35.242237091">
  <ele>212.509033</ele>
  <time>2011-09-02T05:22:39Z</time>
  <speed>2.790000</speed>
</trkpt>
<trkpt lat="32.867561340" lon="35.242221832">
  <ele>211.856689</ele>
  <time>2011-09-02T05:22:40Z</time>
  <speed>1.740000</speed>
</trkpt>
<trkpt lat="32.867572784" lon="35.242191315">
  <ele>211.376221</ele>
  <time>2011-09-02T05:22:41Z</time>
  <speed>1.620000</speed>
</trkpt>
<trkpt lat="32.867580414" lon="35.242134094">
  <ele>211.282471</ele>
  <time>2011-09-02T05:22:43Z</time>
  <speed>2.900000</speed>
</trkpt>
<trkpt lat="32.867591858" lon="35.242099762">
  <ele>211.055908</ele>
  <time>2011-09-02T05:22:44Z</time>
  <speed>2.570000</speed>
</trkpt>
<trkpt lat="32.867607117" lon="35.242069244">
  <ele>210.501221</ele>
  <time>2011-09-02T05:22:45Z</time>
  <speed>3.090000</speed>
</trkpt>
<trkpt lat="32.867645264" lon="35.242027283">
  <ele>210.294189</ele>
  <time>2011-09-02T05:22:46Z</time>
  <speed>3.880000</speed>
</trkpt>
<trkpt lat="32.867683411" lon="35.241985321">
  <ele>208.489502</ele>
  <time>2011-09-02T05:22:47Z</time>
  <speed>4.140000</speed>
</trkpt>
<trkpt lat="32.867706299" lon="35.241943359">
  <ele>207.212158</ele>
  <time>2011-09-02T05:22:48Z</time>
  <speed>3.420000</speed>
</trkpt>
<trkpt lat="32.867725372" lon="35.241909027">
  <ele>206.137939</ele>
  <time>2011-09-02T05:22:49Z</time>
  <speed>2.750000</speed>
</trkpt>
<trkpt lat="32.867736816" lon="35.241878510">
  <ele>205.391846</ele>
  <time>2011-09-02T05:22:50Z</time>
  <speed>2.500000</speed>
</trkpt>
<trkpt lat="32.867752075" lon="35.241840363">
  <ele>204.653564</ele>
  <time>2011-09-02T05:22:51Z</time>
  <speed>2.920000</speed>
</trkpt>
<trkpt lat="32.867771149" lon="35.241817474">
  <ele>204.001221</ele>
  <time>2011-09-02T05:22:52Z</time>
  <speed>3.410000</speed>
</trkpt>
<trkpt lat="32.867797852" lon="35.241771698">
  <ele>203.071533</ele>
  <time>2011-09-02T05:22:53Z</time>
  <speed>3.740000</speed>
</trkpt>
<trkpt lat="32.867824554" lon="35.241725922">
  <ele>202.415283</ele>
  <time>2011-09-02T05:22:54Z</time>
  <speed>3.770000</speed>
</trkpt>
<trkpt lat="32.867889404" lon="35.241641998">
  <ele>204.528564</ele>
  <time>2011-09-02T05:22:55Z</time>
  <speed>4.510000</speed>
</trkpt>
<trkpt lat="32.867912292" lon="35.241580963">
  <ele>203.567627</ele>
  <time>2011-09-02T05:22:56Z</time>
  <speed>4.260000</speed>
</trkpt>
<trkpt lat="32.867931366" lon="35.241527557">
  <ele>202.739502</ele>
  <time>2011-09-02T05:22:57Z</time>
  <speed>4.110000</speed>
</trkpt>
<trkpt lat="32.867938995" lon="35.241489410">
  <ele>202.005127</ele>
  <time>2011-09-02T05:22:58Z</time>
  <speed>3.840000</speed>
</trkpt>
<trkpt lat="32.867950439" lon="35.241436005">
  <ele>201.407471</ele>
  <time>2011-09-02T05:22:59Z</time>
  <speed>3.580000</speed>
</trkpt>
<trkpt lat="32.867965698" lon="35.241394043">
  <ele>200.395752</ele>
  <time>2011-09-02T05:23:00Z</time>
  <speed>3.330000</speed>
</trkpt>
<trkpt lat="32.867977142" lon="35.241344452">
  <ele>199.919189</ele>
  <time>2011-09-02T05:23:01Z</time>
  <speed>3.320000</speed>
</trkpt>
<trkpt lat="32.867996216" lon="35.241291046">
  <ele>199.223877</ele>
  <time>2011-09-02T05:23:02Z</time>
  <speed>3.850000</speed>
</trkpt>
<trkpt lat="32.868015289" lon="35.241245270">
  <ele>198.579346</ele>
  <time>2011-09-02T05:23:03Z</time>
  <speed>4.020000</speed>
</trkpt>
<trkpt lat="32.868030548" lon="35.241191864">
  <ele>198.067627</ele>
  <time>2011-09-02T05:23:04Z</time>
  <speed>4.250000</speed>
</trkpt>
<trkpt lat="32.868022919" lon="35.241092682">
  <ele>197.766846</ele>
  <time>2011-09-02T05:23:05Z</time>
  <speed>5.480000</speed>
</trkpt>
<trkpt lat="32.868034363" lon="35.241016388">
  <ele>196.430908</ele>
  <time>2011-09-02T05:23:06Z</time>
  <speed>5.130000</speed>
</trkpt>
<trkpt lat="32.868053436" lon="35.240940094">
  <ele>195.813721</ele>
  <time>2011-09-02T05:23:07Z</time>
  <speed>6.010000</speed>
</trkpt>
<trkpt lat="32.868080139" lon="35.240867615">
  <ele>194.954346</ele>
  <time>2011-09-02T05:23:08Z</time>
  <speed>6.160000</speed>
</trkpt>
<trkpt lat="32.868095398" lon="35.240806580">
  <ele>194.302002</ele>
  <time>2011-09-02T05:23:09Z</time>
  <speed>5.810000</speed>
</trkpt>
<trkpt lat="32.868076324" lon="35.240726471">
  <ele>194.282471</ele>
  <time>2011-09-02T05:23:10Z</time>
  <speed>5.750000</speed>
</trkpt>
<trkpt lat="32.868057251" lon="35.240657806">
  <ele>192.696533</ele>
  <time>2011-09-02T05:23:11Z</time>
  <speed>5.600000</speed>
</trkpt>
<trkpt lat="32.868057251" lon="35.240589142">
  <ele>191.364502</ele>
  <time>2011-09-02T05:23:12Z</time>
  <speed>5.560000</speed>
</trkpt>
<trkpt lat="32.868045807" lon="35.240524292">
  <ele>190.661377</ele>
  <time>2011-09-02T05:23:13Z</time>
  <speed>5.230000</speed>
</trkpt>
<trkpt lat="32.868030548" lon="35.240451813">
  <ele>190.376221</ele>
  <time>2011-09-02T05:23:14Z</time>
  <speed>5.540000</speed>
</trkpt>
<trkpt lat="32.868011475" lon="35.240375519">
  <ele>189.130127</ele>
  <time>2011-09-02T05:23:15Z</time>
  <speed>5.070000</speed>
</trkpt>
<trkpt lat="32.867996216" lon="35.240325928">
  <ele>188.505127</ele>
  <time>2011-09-02T05:23:16Z</time>
  <speed>3.960000</speed>
</trkpt>
<trkpt lat="32.868003845" lon="35.240283966">
  <ele>187.774658</ele>
  <time>2011-09-02T05:23:17Z</time>
  <speed>3.450000</speed>
</trkpt>
<trkpt lat="32.868022919" lon="35.240245819">
  <ele>187.329346</ele>
  <time>2011-09-02T05:23:18Z</time>
  <speed>3.450000</speed>
</trkpt>
<trkpt lat="32.868049622" lon="35.240219116">
  <ele>187.321533</ele>
  <time>2011-09-02T05:23:19Z</time>
  <speed>2.750000</speed>
</trkpt>
<trkpt lat="32.868080139" lon="35.240207672">
  <ele>186.325439</ele>
  <time>2011-09-02T05:23:20Z</time>
  <speed>3.280000</speed>
</trkpt>
<trkpt lat="32.868118286" lon="35.240207672">
  <ele>185.559814</ele>
  <time>2011-09-02T05:23:21Z</time>
  <speed>4.030000</speed>
</trkpt>
<trkpt lat="32.868156433" lon="35.240196228">
  <ele>185.145752</ele>
  <time>2011-09-02T05:23:22Z</time>
  <speed>4.350000</speed>
</trkpt>
<trkpt lat="32.868202209" lon="35.240200043">
  <ele>183.958252</ele>
  <time>2011-09-02T05:23:23Z</time>
  <speed>5.170000</speed>
</trkpt>
<trkpt lat="32.868236542" lon="35.240245819">
  <ele>182.298096</ele>
  <time>2011-09-02T05:23:24Z</time>
  <speed>4.470000</speed>
</trkpt>
<trkpt lat="32.868267059" lon="35.240268707">
  <ele>181.423096</ele>
  <time>2011-09-02T05:23:25Z</time>
  <speed>4.360000</speed>
</trkpt>
<trkpt lat="32.868301392" lon="35.240303040">
  <ele>180.618408</ele>
  <time>2011-09-02T05:23:26Z</time>
  <speed>4.100000</speed>
</trkpt>
<trkpt lat="32.868335724" lon="35.240318298">
  <ele>179.219971</ele>
  <time>2011-09-02T05:23:28Z</time>
  <speed>1.180000</speed>
</trkpt>
<trkpt lat="32.868373871" lon="35.240337372">
  <ele>179.313721</ele>
  <time>2011-09-02T05:23:29Z</time>
  <speed>0.700000</speed>
</trkpt>
<trkpt lat="32.868381500" lon="35.240348816">
  <ele>176.512939</ele>
  <time>2011-09-02T05:23:37Z</time>
  <speed>0.080000</speed>
</trkpt>
<trkpt lat="32.868396759" lon="35.240318298">
  <ele>176.360596</ele>
  <time>2011-09-02T05:24:19Z</time>
  <speed>0.680000</speed>
</trkpt>
<trkpt lat="32.868381500" lon="35.240287781">
  <ele>176.677002</ele>
  <time>2011-09-02T05:24:24Z</time>
  <speed>0.560000</speed>
</trkpt>
<trkpt lat="32.868389130" lon="35.240249634">
  <ele>176.493408</ele>
  <time>2011-09-02T05:24:27Z</time>
  <speed>0.410000</speed>
</trkpt>
<trkpt lat="32.868385315" lon="35.240215302">
  <ele>177.755127</ele>
  <time>2011-09-02T05:24:33Z</time>
  <speed>0.090000</speed>
</trkpt>
<trkpt lat="32.868366241" lon="35.240188599">
  <ele>178.493408</ele>
  <time>2011-09-02T05:24:41Z</time>
  <speed>0.300000</speed>
</trkpt>
<trkpt lat="32.868339539" lon="35.240173340">
  <ele>179.012939</ele>
  <time>2011-09-02T05:25:23Z</time>
  <speed>0.230000</speed>
</trkpt>
<trkpt lat="32.868305206" lon="35.240154266">
  <ele>179.376221</ele>
  <time>2011-09-02T05:25:26Z</time>
  <speed>0.070000</speed>
</trkpt>
<trkpt lat="32.868331909" lon="35.240131378">
  <ele>179.778564</ele>
  <time>2011-09-02T05:26:01Z</time>
  <speed>0.160000</speed>
</trkpt>
<trkpt lat="32.868354797" lon="35.240108490">
  <ele>179.958252</ele>
  <time>2011-09-02T05:26:04Z</time>
  <speed>0.150000</speed>
</trkpt>
<trkpt lat="32.868373871" lon="35.240077972">
  <ele>179.751221</ele>
  <time>2011-09-02T05:26:08Z</time>
  <speed>0.110000</speed>
</trkpt>
<trkpt lat="32.868370056" lon="35.240081787">
  <ele>183.598877</ele>
  <time>2011-09-02T05:26:15Z</time>
  <speed>0.020000</speed>
</trkpt>
<trkpt lat="32.868350983" lon="35.240100861">
  <ele>185.548096</ele>
  <time>2011-09-02T05:26:23Z</time>
  <speed>0.020000</speed>
</trkpt>
<trkpt lat="32.868347168" lon="35.240066528">
  <ele>186.430908</ele>
  <time>2011-09-02T05:26:32Z</time>
</trkpt>
<trkpt lat="32.868320465" lon="35.240074158">
  <ele>188.005127</ele>
  <time>2011-09-02T05:26:41Z</time>
</trkpt>
<trkpt lat="32.868312836" lon="35.240119934">
  <ele>188.126221</ele>
  <time>2011-09-02T05:27:46Z</time>
  <speed>1.630000</speed>
</trkpt>
<trkpt lat="32.868301392" lon="35.240158081">
  <ele>188.294189</ele>
  <time>2011-09-02T05:27:48Z</time>
  <speed>1.210000</speed>
</trkpt>
<trkpt lat="32.868339539" lon="35.240177155">
  <ele>188.305908</ele>
  <time>2011-09-02T05:27:49Z</time>
  <speed>2.680000</speed>
</trkpt>
<trkpt lat="32.868419647" lon="35.240180969">
  <ele>188.469971</ele>
  <time>2011-09-02T05:27:50Z</time>
  <speed>5.270000</speed>
</trkpt>
<trkpt lat="32.868469238" lon="35.240154266">
  <ele>187.719971</ele>
  <time>2011-09-02T05:27:51Z</time>
  <speed>5.420000</speed>
</trkpt>
<trkpt lat="32.868511200" lon="35.240119934">
  <ele>187.110596</ele>
  <time>2011-09-02T05:27:52Z</time>
  <speed>5.250000</speed>
</trkpt>
<trkpt lat="32.868587494" lon="35.240104675">
  <ele>186.770752</ele>
  <time>2011-09-02T05:27:53Z</time>
  <speed>5.530000</speed>
</trkpt>
<trkpt lat="32.868629456" lon="35.240081787">
  <ele>185.954346</ele>
  <time>2011-09-02T05:27:54Z</time>
  <speed>4.920000</speed>
</trkpt>
<trkpt lat="32.868675232" lon="35.240058899">
  <ele>185.122314</ele>
  <time>2011-09-02T05:27:55Z</time>
  <speed>4.750000</speed>
</trkpt>
<trkpt lat="32.868717194" lon="35.240036011">
  <ele>184.259033</ele>
  <time>2011-09-02T05:27:56Z</time>
  <speed>4.520000</speed>
</trkpt>
<trkpt lat="32.868755341" lon="35.240001678">
  <ele>183.891846</ele>
  <time>2011-09-02T05:27:57Z</time>
  <speed>4.900000</speed>
</trkpt>
<trkpt lat="32.868782043" lon="35.239959717">
  <ele>183.067627</ele>
  <time>2011-09-02T05:27:58Z</time>
  <speed>4.850000</speed>
</trkpt>
<trkpt lat="32.868804932" lon="35.239894867">
  <ele>182.110596</ele>
  <time>2011-09-02T05:27:59Z</time>
  <speed>5.980000</speed>
</trkpt>
<trkpt lat="32.868854523" lon="35.239833832">
  <ele>181.700439</ele>
  <time>2011-09-02T05:28:00Z</time>
  <speed>6.780000</speed>
</trkpt>
<trkpt lat="32.868892670" lon="35.239765167">
  <ele>181.020752</ele>
  <time>2011-09-02T05:28:01Z</time>
  <speed>6.810000</speed>
</trkpt>
<trkpt lat="32.868934631" lon="35.239715576">
  <ele>180.344971</ele>
  <time>2011-09-02T05:28:02Z</time>
  <speed>6.390000</speed>
</trkpt>
<trkpt lat="32.868984222" lon="35.239669800">
  <ele>179.618408</ele>
  <time>2011-09-02T05:28:03Z</time>
  <speed>6.730000</speed>
</trkpt>
<trkpt lat="32.869033813" lon="35.239624023">
  <ele>178.954346</ele>
  <time>2011-09-02T05:28:04Z</time>
  <speed>5.990000</speed>
</trkpt>
<trkpt lat="32.869056702" lon="35.239578247">
  <ele>178.208252</ele>
  <time>2011-09-02T05:28:05Z</time>
  <speed>4.620000</speed>
</trkpt>
<trkpt lat="32.869083405" lon="35.239524841">
  <ele>177.282471</ele>
  <time>2011-09-02T05:28:06Z</time>
  <speed>4.320000</speed>
</trkpt>
<trkpt lat="32.869094849" lon="35.239479065">
  <ele>176.411377</ele>
  <time>2011-09-02T05:28:07Z</time>
  <speed>3.690000</speed>
</trkpt>
<trkpt lat="32.869113922" lon="35.239448547">
  <ele>175.477783</ele>
  <time>2011-09-02T05:28:08Z</time>
  <speed>1.520000</speed>
</trkpt>
<trkpt lat="32.869113922" lon="35.239414215">
  <ele>175.380127</ele>
  <time>2011-09-02T05:28:09Z</time>
  <speed>1.590000</speed>
</trkpt>
<trkpt lat="32.869113922" lon="35.239356995">
  <ele>174.872314</ele>
  <time>2011-09-02T05:28:11Z</time>
  <speed>2.630000</speed>
</trkpt>
<trkpt lat="32.869121552" lon="35.239322662">
  <ele>174.114502</ele>
  <time>2011-09-02T05:28:12Z</time>
  <speed>2.660000</speed>
</trkpt>
<trkpt lat="32.869117737" lon="35.239292145">
  <ele>173.786377</ele>
  <time>2011-09-02T05:28:13Z</time>
  <speed>2.230000</speed>
</trkpt>
<trkpt lat="32.869125366" lon="35.239223480">
  <ele>173.712158</ele>
  <time>2011-09-02T05:28:15Z</time>
  <speed>2.010000</speed>
</trkpt>
<trkpt lat="32.869132996" lon="35.239189148">
  <ele>173.653564</ele>
  <time>2011-09-02T05:28:16Z</time>
  <speed>1.900000</speed>
</trkpt>
<trkpt lat="32.869129181" lon="35.239109039">
  <ele>172.684814</ele>
  <time>2011-09-02T05:28:18Z</time>
  <speed>1.830000</speed>
</trkpt>
<trkpt lat="32.869140625" lon="35.239051819">
  <ele>171.677002</ele>
  <time>2011-09-02T05:28:20Z</time>
  <speed>2.060000</speed>
</trkpt>
<trkpt lat="32.869152069" lon="35.239009857">
  <ele>171.833252</ele>
  <time>2011-09-02T05:28:21Z</time>
  <speed>2.530000</speed>
</trkpt>
<trkpt lat="32.869182587" lon="35.238983154">
  <ele>170.618408</ele>
  <time>2011-09-02T05:28:22Z</time>
  <speed>2.800000</speed>
</trkpt>
<trkpt lat="32.869194031" lon="35.238941193">
  <ele>170.067627</ele>
  <time>2011-09-02T05:28:23Z</time>
  <speed>3.310000</speed>
</trkpt>
<trkpt lat="32.869213104" lon="35.238891602">
  <ele>169.864502</ele>
  <time>2011-09-02T05:28:24Z</time>
  <speed>4.230000</speed>
</trkpt>
<trkpt lat="32.869224548" lon="35.238838196">
  <ele>169.309814</ele>
  <time>2011-09-02T05:28:25Z</time>
  <speed>3.820000</speed>
</trkpt>
<trkpt lat="32.869239807" lon="35.238780975">
  <ele>169.122314</ele>
  <time>2011-09-02T05:28:26Z</time>
  <speed>4.650000</speed>
</trkpt>
<trkpt lat="32.869251251" lon="35.238719940">
  <ele>168.704346</ele>
  <time>2011-09-02T05:28:27Z</time>
  <speed>4.640000</speed>
</trkpt>
<trkpt lat="32.869270325" lon="35.238670349">
  <ele>168.122314</ele>
  <time>2011-09-02T05:28:28Z</time>
  <speed>4.410000</speed>
</trkpt>
<trkpt lat="32.869285583" lon="35.238613129">
  <ele>167.825439</ele>
  <time>2011-09-02T05:28:29Z</time>
  <speed>4.450000</speed>
</trkpt>
<trkpt lat="32.869300842" lon="35.238552094">
  <ele>167.427002</ele>
  <time>2011-09-02T05:28:30Z</time>
  <speed>4.830000</speed>
</trkpt>
<trkpt lat="32.869327545" lon="35.238494873">
  <ele>166.634033</ele>
  <time>2011-09-02T05:28:31Z</time>
  <speed>5.670000</speed>
</trkpt>
<trkpt lat="32.869350433" lon="35.238426208">
  <ele>166.528564</ele>
  <time>2011-09-02T05:28:32Z</time>
  <speed>5.860000</speed>
</trkpt>
<trkpt lat="32.869365692" lon="35.238357544">
  <ele>166.485596</ele>
  <time>2011-09-02T05:28:33Z</time>
  <speed>6.100000</speed>
</trkpt>
<trkpt lat="32.869373322" lon="35.238292694">
  <ele>166.837158</ele>
  <time>2011-09-02T05:28:34Z</time>
  <speed>4.980000</speed>
</trkpt>
<trkpt lat="32.869365692" lon="35.238227844">
  <ele>166.427002</ele>
  <time>2011-09-02T05:28:35Z</time>
  <speed>4.720000</speed>
</trkpt>
<trkpt lat="32.869354248" lon="35.238170624">
  <ele>165.993408</ele>
  <time>2011-09-02T05:28:36Z</time>
  <speed>4.630000</speed>
</trkpt>
<trkpt lat="32.869342804" lon="35.238113403">
  <ele>165.696533</ele>
  <time>2011-09-02T05:28:37Z</time>
  <speed>4.950000</speed>
</trkpt>
<trkpt lat="32.869331360" lon="35.238052368">
  <ele>165.813721</ele>
  <time>2011-09-02T05:28:38Z</time>
  <speed>5.020000</speed>
</trkpt>
<trkpt lat="32.869327545" lon="35.237976074">
  <ele>166.333252</ele>
  <time>2011-09-02T05:28:39Z</time>
  <speed>4.870000</speed>
</trkpt>
<trkpt lat="32.869316101" lon="35.237918854">
  <ele>165.993408</ele>
  <time>2011-09-02T05:28:40Z</time>
  <speed>4.410000</speed>
</trkpt>
<trkpt lat="32.869304657" lon="35.237869263">
  <ele>165.727783</ele>
  <time>2011-09-02T05:28:41Z</time>
  <speed>3.590000</speed>
</trkpt>
<trkpt lat="32.869289398" lon="35.237827301">
  <ele>165.052002</ele>
  <time>2011-09-02T05:28:42Z</time>
  <speed>3.560000</speed>
</trkpt>
<trkpt lat="32.869274139" lon="35.237789154">
  <ele>164.684814</ele>
  <time>2011-09-02T05:28:43Z</time>
  <speed>3.790000</speed>
</trkpt>
<trkpt lat="32.869255066" lon="35.237739563">
  <ele>164.196533</ele>
  <time>2011-09-02T05:28:44Z</time>
  <speed>4.050000</speed>
</trkpt>
<trkpt lat="32.869232178" lon="35.237693787">
  <ele>163.770752</ele>
  <time>2011-09-02T05:28:45Z</time>
  <speed>4.630000</speed>
</trkpt>
<trkpt lat="32.869201660" lon="35.237640381">
  <ele>163.575439</ele>
  <time>2011-09-02T05:28:46Z</time>
  <speed>5.710000</speed>
</trkpt>
<trkpt lat="32.869171143" lon="35.237579346">
  <ele>163.630127</ele>
  <time>2011-09-02T05:28:47Z</time>
  <speed>5.340000</speed>
</trkpt>
<trkpt lat="32.869148254" lon="35.237518311">
  <ele>162.106689</ele>
  <time>2011-09-02T05:28:48Z</time>
  <speed>5.940000</speed>
</trkpt>
<trkpt lat="32.869140625" lon="35.237445831">
  <ele>161.235596</ele>
  <time>2011-09-02T05:28:49Z</time>
  <speed>6.890000</speed>
</trkpt>
<trkpt lat="32.869140625" lon="35.237361908">
  <ele>160.661377</ele>
  <time>2011-09-02T05:28:50Z</time>
  <speed>8.000000</speed>
</trkpt>
<trkpt lat="32.869159698" lon="35.237293243">
  <ele>160.255127</ele>
  <time>2011-09-02T05:28:51Z</time>
  <speed>6.340000</speed>
</trkpt>
<trkpt lat="32.869186401" lon="35.237216949">
  <ele>159.395752</ele>
  <time>2011-09-02T05:28:52Z</time>
  <speed>6.620000</speed>
</trkpt>
<trkpt lat="32.869186401" lon="35.237140656">
  <ele>158.680908</ele>
  <time>2011-09-02T05:28:53Z</time>
  <speed>5.960000</speed>
</trkpt>
<trkpt lat="32.869194031" lon="35.237068176">
  <ele>158.231689</ele>
  <time>2011-09-02T05:28:54Z</time>
  <speed>5.820000</speed>
</trkpt>
<trkpt lat="32.869209290" lon="35.236995697">
  <ele>157.352783</ele>
  <time>2011-09-02T05:28:55Z</time>
  <speed>6.170000</speed>
</trkpt>
<trkpt lat="32.869216919" lon="35.236923218">
  <ele>156.665283</ele>
  <time>2011-09-02T05:28:56Z</time>
  <speed>6.050000</speed>
</trkpt>
<trkpt lat="32.869216919" lon="35.236850739">
  <ele>156.012939</ele>
  <time>2011-09-02T05:28:57Z</time>
  <speed>6.190000</speed>
</trkpt>
<trkpt lat="32.869213104" lon="35.236778259">
  <ele>155.598877</ele>
  <time>2011-09-02T05:28:58Z</time>
  <speed>5.980000</speed>
</trkpt>
<trkpt lat="32.869205475" lon="35.236690521">
  <ele>154.798096</ele>
  <time>2011-09-02T05:28:59Z</time>
  <speed>6.760000</speed>
</trkpt>
<trkpt lat="32.869197845" lon="35.236610413">
  <ele>154.157471</ele>
  <time>2011-09-02T05:29:00Z</time>
  <speed>6.190000</speed>
</trkpt>
<trkpt lat="32.869197845" lon="35.236534119">
  <ele>153.231689</ele>
  <time>2011-09-02T05:29:01Z</time>
  <speed>5.700000</speed>
</trkpt>
<trkpt lat="32.869201660" lon="35.236457825">
  <ele>152.661377</ele>
  <time>2011-09-02T05:29:02Z</time>
  <speed>5.700000</speed>
</trkpt>
<trkpt lat="32.869197845" lon="35.236408234">
  <ele>151.864502</ele>
  <time>2011-09-02T05:29:03Z</time>
  <speed>4.800000</speed>
</trkpt>
<trkpt lat="32.869190216" lon="35.236343384">
  <ele>151.809814</ele>
  <time>2011-09-02T05:29:04Z</time>
  <speed>4.370000</speed>
</trkpt>
<trkpt lat="32.869178772" lon="35.236286163">
  <ele>151.528564</ele>
  <time>2011-09-02T05:29:05Z</time>
  <speed>4.680000</speed>
</trkpt>
<trkpt lat="32.869171143" lon="35.236232758">
  <ele>150.630127</ele>
  <time>2011-09-02T05:29:06Z</time>
  <speed>4.240000</speed>
</trkpt>
<trkpt lat="32.869171143" lon="35.236179352">
  <ele>150.161377</ele>
  <time>2011-09-02T05:29:07Z</time>
  <speed>3.490000</speed>
</trkpt>
<trkpt lat="32.869178772" lon="35.236087799">
  <ele>148.915283</ele>
  <time>2011-09-02T05:29:08Z</time>
  <speed>5.700000</speed>
</trkpt>
<trkpt lat="32.869205475" lon="35.236003876">
  <ele>149.235596</ele>
  <time>2011-09-02T05:29:09Z</time>
  <speed>5.820000</speed>
</trkpt>
<trkpt lat="32.869220734" lon="35.235961914">
  <ele>148.548096</ele>
  <time>2011-09-02T05:29:10Z</time>
  <speed>4.790000</speed>
</trkpt>
<trkpt lat="32.869247437" lon="35.235851288">
  <ele>150.344971</ele>
  <time>2011-09-02T05:29:11Z</time>
  <speed>4.440000</speed>
</trkpt>
<trkpt lat="32.869255066" lon="35.235797882">
  <ele>150.098877</ele>
  <time>2011-09-02T05:29:12Z</time>
  <speed>3.530000</speed>
</trkpt>
<trkpt lat="32.869258881" lon="35.235755920">
  <ele>150.141846</ele>
  <time>2011-09-02T05:29:13Z</time>
  <speed>2.930000</speed>
</trkpt>
<trkpt lat="32.869293213" lon="35.235683441">
  <ele>151.563721</ele>
  <time>2011-09-02T05:29:14Z</time>
  <speed>3.380000</speed>
</trkpt>
<trkpt lat="32.869300842" lon="35.235641479">
  <ele>150.942627</ele>
  <time>2011-09-02T05:29:15Z</time>
  <speed>3.760000</speed>
</trkpt>
<trkpt lat="32.869300842" lon="35.235576630">
  <ele>150.864502</ele>
  <time>2011-09-02T05:29:16Z</time>
  <speed>5.390000</speed>
</trkpt>
<trkpt lat="32.869293213" lon="35.235519409">
  <ele>150.747314</ele>
  <time>2011-09-02T05:29:17Z</time>
  <speed>4.930000</speed>
</trkpt>
<trkpt lat="32.869281769" lon="35.235450745">
  <ele>150.903564</ele>
  <time>2011-09-02T05:29:18Z</time>
  <speed>5.650000</speed>
</trkpt>
<trkpt lat="32.869258881" lon="35.235393524">
  <ele>150.223877</ele>
  <time>2011-09-02T05:29:19Z</time>
  <speed>4.780000</speed>
</trkpt>
<trkpt lat="32.869235992" lon="35.235347748">
  <ele>150.575439</ele>
  <time>2011-09-02T05:29:20Z</time>
  <speed>4.190000</speed>
</trkpt>
<trkpt lat="32.869228363" lon="35.235313416">
  <ele>148.923096</ele>
  <time>2011-09-02T05:29:21Z</time>
  <speed>3.300000</speed>
</trkpt>
<trkpt lat="32.869209290" lon="35.235263824">
  <ele>149.055908</ele>
  <time>2011-09-02T05:29:22Z</time>
  <speed>3.870000</speed>
</trkpt>
<trkpt lat="32.869205475" lon="35.235218048">
  <ele>148.637939</ele>
  <time>2011-09-02T05:29:23Z</time>
  <speed>4.110000</speed>
</trkpt>
<trkpt lat="32.869205475" lon="35.235137939">
  <ele>148.805908</ele>
  <time>2011-09-02T05:29:24Z</time>
  <speed>5.530000</speed>
</trkpt>
<trkpt lat="32.869216919" lon="35.235073090">
  <ele>147.950439</ele>
  <time>2011-09-02T05:29:25Z</time>
  <speed>6.010000</speed>
</trkpt>
<trkpt lat="32.869220734" lon="35.235004425">
  <ele>147.489502</ele>
  <time>2011-09-02T05:29:26Z</time>
  <speed>6.260000</speed>
</trkpt>
<trkpt lat="32.869235992" lon="35.234939575">
  <ele>146.587158</ele>
  <time>2011-09-02T05:29:27Z</time>
  <speed>6.150000</speed>
</trkpt>
<trkpt lat="32.869266510" lon="35.234870911">
  <ele>145.309814</ele>
  <time>2011-09-02T05:29:28Z</time>
  <speed>6.290000</speed>
</trkpt>
<trkpt lat="32.869297028" lon="35.234817505">
  <ele>144.329346</ele>
  <time>2011-09-02T05:29:29Z</time>
  <speed>5.450000</speed>
</trkpt>
<trkpt lat="32.869316101" lon="35.234760284">
  <ele>142.969971</ele>
  <time>2011-09-02T05:29:30Z</time>
  <speed>5.290000</speed>
</trkpt>
<trkpt lat="32.869323730" lon="35.234699249">
  <ele>141.786377</ele>
  <time>2011-09-02T05:29:31Z</time>
  <speed>5.150000</speed>
</trkpt>
<trkpt lat="32.869327545" lon="35.234630585">
  <ele>140.266846</ele>
  <time>2011-09-02T05:29:32Z</time>
  <speed>5.260000</speed>
</trkpt>
<trkpt lat="32.869331360" lon="35.234573364">
  <ele>139.048096</ele>
  <time>2011-09-02T05:29:33Z</time>
  <speed>2.170000</speed>
</trkpt>
<trkpt lat="32.869319916" lon="35.234542847">
  <ele>139.235596</ele>
  <time>2011-09-02T05:29:34Z</time>
  <speed>1.350000</speed>
</trkpt>
<trkpt lat="32.869297028" lon="35.234523773">
  <ele>138.969971</ele>
  <time>2011-09-02T05:29:36Z</time>
  <speed>0.380000</speed>
</trkpt>
<trkpt lat="32.869304657" lon="35.234504700">
  <ele>141.282471</ele>
  <time>2011-09-02T05:33:10Z</time>
</trkpt>
<trkpt lat="32.869338989" lon="35.234489441">
  <ele>141.505127</ele>
  <time>2011-09-02T05:34:31Z</time>
  <speed>3.260000</speed>
</trkpt>
<trkpt lat="32.869373322" lon="35.234474182">
  <ele>141.598877</ele>
  <time>2011-09-02T05:34:32Z</time>
  <speed>4.140000</speed>
</trkpt>
<trkpt lat="32.869411469" lon="35.234458923">
  <ele>141.497314</ele>
  <time>2011-09-02T05:34:33Z</time>
  <speed>3.850000</speed>
</trkpt>
<trkpt lat="32.869445801" lon="35.234447479">
  <ele>141.930908</ele>
  <time>2011-09-02T05:34:34Z</time>
  <speed>3.750000</speed>
</trkpt>
<trkpt lat="32.869487762" lon="35.234447479">
  <ele>142.290283</ele>
  <time>2011-09-02T05:34:35Z</time>
  <speed>3.620000</speed>
</trkpt>
<trkpt lat="32.869522095" lon="35.234447479">
  <ele>142.493408</ele>
  <time>2011-09-02T05:34:36Z</time>
  <speed>3.370000</speed>
</trkpt>
<trkpt lat="32.869556427" lon="35.234447479">
  <ele>142.434814</ele>
  <time>2011-09-02T05:34:37Z</time>
  <speed>3.540000</speed>
</trkpt>
<trkpt lat="32.869602203" lon="35.234451294">
  <ele>142.532471</ele>
  <time>2011-09-02T05:34:38Z</time>
  <speed>3.830000</speed>
</trkpt>
<trkpt lat="32.869636536" lon="35.234466553">
  <ele>141.399658</ele>
  <time>2011-09-02T05:34:39Z</time>
  <speed>3.940000</speed>
</trkpt>
<trkpt lat="32.869678497" lon="35.234474182">
  <ele>141.610596</ele>
  <time>2011-09-02T05:34:40Z</time>
  <speed>4.090000</speed>
</trkpt>
<trkpt lat="32.869712830" lon="35.234493256">
  <ele>141.098877</ele>
  <time>2011-09-02T05:34:41Z</time>
  <speed>3.460000</speed>
</trkpt>
<trkpt lat="32.869739532" lon="35.234508514">
  <ele>140.661377</ele>
  <time>2011-09-02T05:34:42Z</time>
  <speed>3.160000</speed>
</trkpt>
<trkpt lat="32.869762421" lon="35.234531403">
  <ele>139.969971</ele>
  <time>2011-09-02T05:34:43Z</time>
  <speed>2.880000</speed>
</trkpt>
<trkpt lat="32.869789124" lon="35.234580994">
  <ele>138.899658</ele>
  <time>2011-09-02T05:34:45Z</time>
  <speed>2.700000</speed>
</trkpt>
<trkpt lat="32.869812012" lon="35.234626770">
  <ele>137.727783</ele>
  <time>2011-09-02T05:34:47Z</time>
  <speed>2.530000</speed>
</trkpt>
<trkpt lat="32.869823456" lon="35.234657288">
  <ele>137.141846</ele>
  <time>2011-09-02T05:34:48Z</time>
  <speed>2.740000</speed>
</trkpt>
<trkpt lat="32.869857788" lon="35.234687805">
  <ele>136.161377</ele>
  <time>2011-09-02T05:34:49Z</time>
  <speed>3.140000</speed>
</trkpt>
<trkpt lat="32.869880676" lon="35.234718323">
  <ele>135.657471</ele>
  <time>2011-09-02T05:34:50Z</time>
  <speed>3.000000</speed>
</trkpt>
<trkpt lat="32.869903564" lon="35.234741211">
  <ele>135.282471</ele>
  <time>2011-09-02T05:34:51Z</time>
  <speed>3.280000</speed>
</trkpt>
<trkpt lat="32.869926453" lon="35.234767914">
  <ele>135.384033</ele>
  <time>2011-09-02T05:34:52Z</time>
  <speed>3.620000</speed>
</trkpt>
<trkpt lat="32.869968414" lon="35.234798431">
  <ele>134.321533</ele>
  <time>2011-09-02T05:34:53Z</time>
  <speed>3.390000</speed>
</trkpt>
<trkpt lat="32.869987488" lon="35.234821320">
  <ele>134.161377</ele>
  <time>2011-09-02T05:34:54Z</time>
  <speed>3.040000</speed>
</trkpt>
<trkpt lat="32.870010376" lon="35.234844208">
  <ele>133.809814</ele>
  <time>2011-09-02T05:34:55Z</time>
  <speed>2.800000</speed>
</trkpt>
<trkpt lat="32.870029449" lon="35.234867096">
  <ele>133.372314</ele>
  <time>2011-09-02T05:34:56Z</time>
  <speed>3.100000</speed>
</trkpt>
<trkpt lat="32.870052338" lon="35.234905243">
  <ele>133.036377</ele>
  <time>2011-09-02T05:34:57Z</time>
  <speed>3.310000</speed>
</trkpt>
<trkpt lat="32.870082855" lon="35.234951019">
  <ele>134.677002</ele>
  <time>2011-09-02T05:34:58Z</time>
  <speed>3.730000</speed>
</trkpt>
<trkpt lat="32.870109558" lon="35.234977722">
  <ele>135.802002</ele>
  <time>2011-09-02T05:34:59Z</time>
  <speed>3.260000</speed>
</trkpt>
<trkpt lat="32.870136261" lon="35.235008240">
  <ele>137.911377</ele>
  <time>2011-09-02T05:35:00Z</time>
  <speed>3.050000</speed>
</trkpt>
<trkpt lat="32.870159149" lon="35.235031128">
  <ele>138.657471</ele>
  <time>2011-09-02T05:35:01Z</time>
  <speed>2.850000</speed>
</trkpt>
<trkpt lat="32.870185852" lon="35.235054016">
  <ele>138.993408</ele>
  <time>2011-09-02T05:35:02Z</time>
  <speed>2.900000</speed>
</trkpt>
<trkpt lat="32.870227814" lon="35.235076904">
  <ele>139.118408</ele>
  <time>2011-09-02T05:35:03Z</time>
  <speed>3.040000</speed>
</trkpt>
<trkpt lat="32.870246887" lon="35.235099792">
  <ele>139.403564</ele>
  <time>2011-09-02T05:35:04Z</time>
  <speed>2.880000</speed>
</trkpt>
<trkpt lat="32.870262146" lon="35.235130310">
  <ele>139.438721</ele>
  <time>2011-09-02T05:35:05Z</time>
  <speed>2.800000</speed>
</trkpt>
<trkpt lat="32.870285034" lon="35.235183716">
  <ele>140.083252</ele>
  <time>2011-09-02T05:35:07Z</time>
  <speed>2.830000</speed>
</trkpt>
<trkpt lat="32.870292664" lon="35.235214233">
  <ele>140.735596</ele>
  <time>2011-09-02T05:35:08Z</time>
  <speed>2.920000</speed>
</trkpt>
<trkpt lat="32.870315552" lon="35.235248566">
  <ele>141.446533</ele>
  <time>2011-09-02T05:35:09Z</time>
  <speed>3.080000</speed>
</trkpt>
<trkpt lat="32.870315552" lon="35.235282898">
  <ele>142.173096</ele>
  <time>2011-09-02T05:35:10Z</time>
  <speed>2.870000</speed>
</trkpt>
<trkpt lat="32.870319366" lon="35.235313416">
  <ele>142.606689</ele>
  <time>2011-09-02T05:35:11Z</time>
  <speed>2.990000</speed>
</trkpt>
<trkpt lat="32.870315552" lon="35.235351563">
  <ele>143.075439</ele>
  <time>2011-09-02T05:35:12Z</time>
  <speed>2.950000</speed>
</trkpt>
<trkpt lat="32.870311737" lon="35.235382080">
  <ele>143.341064</ele>
  <time>2011-09-02T05:35:13Z</time>
  <speed>2.680000</speed>
</trkpt>
<trkpt lat="32.870300293" lon="35.235412598">
  <ele>144.106689</ele>
  <time>2011-09-02T05:35:14Z</time>
  <speed>3.030000</speed>
</trkpt>
<trkpt lat="32.870285034" lon="35.235454559">
  <ele>144.981689</ele>
  <time>2011-09-02T05:35:15Z</time>
  <speed>3.300000</speed>
</trkpt>
<trkpt lat="32.870269775" lon="35.235500336">
  <ele>146.887939</ele>
  <time>2011-09-02T05:35:16Z</time>
  <speed>3.250000</speed>
</trkpt>
<trkpt lat="32.870265961" lon="35.235538483">
  <ele>147.063721</ele>
  <time>2011-09-02T05:35:17Z</time>
  <speed>3.340000</speed>
</trkpt>
<trkpt lat="32.870254517" lon="35.235572815">
  <ele>147.149658</ele>
  <time>2011-09-02T05:35:18Z</time>
  <speed>3.250000</speed>
</trkpt>
<trkpt lat="32.870243073" lon="35.235610962">
  <ele>147.727783</ele>
  <time>2011-09-02T05:35:19Z</time>
  <speed>3.570000</speed>
</trkpt>
<trkpt lat="32.870231628" lon="35.235652924">
  <ele>147.782471</ele>
  <time>2011-09-02T05:35:20Z</time>
  <speed>3.300000</speed>
</trkpt>
<trkpt lat="32.870223999" lon="35.235687256">
  <ele>147.727783</ele>
  <time>2011-09-02T05:35:21Z</time>
  <speed>3.330000</speed>
</trkpt>
<trkpt lat="32.870208740" lon="35.235725403">
  <ele>148.134033</ele>
  <time>2011-09-02T05:35:22Z</time>
  <speed>3.410000</speed>
</trkpt>
<trkpt lat="32.870197296" lon="35.235763550">
  <ele>148.012939</ele>
  <time>2011-09-02T05:35:23Z</time>
  <speed>3.760000</speed>
</trkpt>
<trkpt lat="32.870193481" lon="35.235805511">
  <ele>148.219971</ele>
  <time>2011-09-02T05:35:24Z</time>
  <speed>3.410000</speed>
</trkpt>
<trkpt lat="32.870185852" lon="35.235847473">
  <ele>148.622314</ele>
  <time>2011-09-02T05:35:25Z</time>
  <speed>3.800000</speed>
</trkpt>
<trkpt lat="32.870174408" lon="35.235889435">
  <ele>148.704346</ele>
  <time>2011-09-02T05:35:26Z</time>
  <speed>3.570000</speed>
</trkpt>
<trkpt lat="32.870162964" lon="35.235931396">
  <ele>149.473877</ele>
  <time>2011-09-02T05:35:27Z</time>
  <speed>3.600000</speed>
</trkpt>
<trkpt lat="32.870159149" lon="35.235969543">
  <ele>149.555908</ele>
  <time>2011-09-02T05:35:28Z</time>
  <speed>3.300000</speed>
</trkpt>
<trkpt lat="32.870159149" lon="35.236011505">
  <ele>149.430908</ele>
  <time>2011-09-02T05:35:29Z</time>
  <speed>3.860000</speed>
</trkpt>
<trkpt lat="32.870162964" lon="35.236049652">
  <ele>149.372314</ele>
  <time>2011-09-02T05:35:30Z</time>
  <speed>3.440000</speed>
</trkpt>
<trkpt lat="32.870162964" lon="35.236087799">
  <ele>149.341064</ele>
  <time>2011-09-02T05:35:31Z</time>
  <speed>3.200000</speed>
</trkpt>
<trkpt lat="32.870166779" lon="35.236125946">
  <ele>149.145752</ele>
  <time>2011-09-02T05:35:32Z</time>
  <speed>3.290000</speed>
</trkpt>
<trkpt lat="32.870166779" lon="35.236164093">
  <ele>148.872314</ele>
  <time>2011-09-02T05:35:33Z</time>
  <speed>3.360000</speed>
</trkpt>
<trkpt lat="32.870166779" lon="35.236198425">
  <ele>149.059814</ele>
  <time>2011-09-02T05:35:34Z</time>
  <speed>3.390000</speed>
</trkpt>
<trkpt lat="32.870170593" lon="35.236240387">
  <ele>149.219971</ele>
  <time>2011-09-02T05:35:35Z</time>
  <speed>3.210000</speed>
</trkpt>
<trkpt lat="32.870174408" lon="35.236282349">
  <ele>149.645752</ele>
  <time>2011-09-02T05:35:36Z</time>
  <speed>3.460000</speed>
</trkpt>
<trkpt lat="32.870182037" lon="35.236320496">
  <ele>150.044189</ele>
  <time>2011-09-02T05:35:37Z</time>
  <speed>2.930000</speed>
</trkpt>
<trkpt lat="32.870204926" lon="35.236385345">
  <ele>150.563721</ele>
  <time>2011-09-02T05:35:39Z</time>
  <speed>3.170000</speed>
</trkpt>
<trkpt lat="32.870212555" lon="35.236431122">
  <ele>150.887939</ele>
  <time>2011-09-02T05:35:40Z</time>
  <speed>2.890000</speed>
</trkpt>
<trkpt lat="32.870227814" lon="35.236488342">
  <ele>150.227783</ele>
  <time>2011-09-02T05:35:42Z</time>
  <speed>2.730000</speed>
</trkpt>
<trkpt lat="32.870239258" lon="35.236541748">
  <ele>149.708252</ele>
  <time>2011-09-02T05:35:44Z</time>
  <speed>2.490000</speed>
</trkpt>
<trkpt lat="32.870243073" lon="35.236576080">
  <ele>149.024658</ele>
  <time>2011-09-02T05:35:45Z</time>
  <speed>2.850000</speed>
</trkpt>
<trkpt lat="32.870239258" lon="35.236644745">
  <ele>148.938721</ele>
  <time>2011-09-02T05:35:47Z</time>
  <speed>2.630000</speed>
</trkpt>
<trkpt lat="32.870243073" lon="35.236709595">
  <ele>148.591064</ele>
  <time>2011-09-02T05:35:49Z</time>
  <speed>3.200000</speed>
</trkpt>
<trkpt lat="32.870243073" lon="35.236751556">
  <ele>148.755127</ele>
  <time>2011-09-02T05:35:50Z</time>
  <speed>3.140000</speed>
</trkpt>
<trkpt lat="32.870239258" lon="35.236789703">
  <ele>148.563721</ele>
  <time>2011-09-02T05:35:51Z</time>
  <speed>3.370000</speed>
</trkpt>
<trkpt lat="32.870239258" lon="35.236827850">
  <ele>147.841064</ele>
  <time>2011-09-02T05:35:52Z</time>
  <speed>3.080000</speed>
</trkpt>
<trkpt lat="32.870239258" lon="35.236865997">
  <ele>148.110596</ele>
  <time>2011-09-02T05:35:53Z</time>
  <speed>3.010000</speed>
</trkpt>
<trkpt lat="32.870239258" lon="35.236900330">
  <ele>148.126221</ele>
  <time>2011-09-02T05:35:54Z</time>
  <speed>2.750000</speed>
</trkpt>
<trkpt lat="32.870246887" lon="35.236938477">
  <ele>148.149658</ele>
  <time>2011-09-02T05:35:55Z</time>
  <speed>3.090000</speed>
</trkpt>
<trkpt lat="32.870250702" lon="35.236980438">
  <ele>148.384033</ele>
  <time>2011-09-02T05:35:56Z</time>
  <speed>3.200000</speed>
</trkpt>
<trkpt lat="32.870254517" lon="35.237014771">
  <ele>148.016846</ele>
  <time>2011-09-02T05:35:57Z</time>
  <speed>3.040000</speed>
</trkpt>
<trkpt lat="32.870265961" lon="35.237052917">
  <ele>147.157471</ele>
  <time>2011-09-02T05:35:58Z</time>
  <speed>3.100000</speed>
</trkpt>
<trkpt lat="32.870292664" lon="35.237094879">
  <ele>148.837158</ele>
  <time>2011-09-02T05:35:59Z</time>
  <speed>2.560000</speed>
</trkpt>
<trkpt lat="32.870319366" lon="35.237133026">
  <ele>149.860596</ele>
  <time>2011-09-02T05:36:01Z</time>
  <speed>1.960000</speed>
</trkpt>
<trkpt lat="32.870353699" lon="35.237171173">
  <ele>150.880127</ele>
  <time>2011-09-02T05:36:03Z</time>
  <speed>1.530000</speed>
</trkpt>
<trkpt lat="32.870365143" lon="35.237197876">
  <ele>151.016846</ele>
  <time>2011-09-02T05:36:05Z</time>
  <speed>1.120000</speed>
</trkpt>
<trkpt lat="32.870376587" lon="35.237228394">
  <ele>151.387939</ele>
  <time>2011-09-02T05:36:07Z</time>
  <speed>0.960000</speed>
</trkpt>
<trkpt lat="32.870399475" lon="35.237258911">
  <ele>151.692627</ele>
  <time>2011-09-02T05:36:10Z</time>
  <speed>1.600000</speed>
</trkpt>
<trkpt lat="32.870441437" lon="35.237270355">
  <ele>151.919189</ele>
  <time>2011-09-02T05:36:12Z</time>
  <speed>2.770000</speed>
</trkpt>
<trkpt lat="32.870468140" lon="35.237289429">
  <ele>152.059814</ele>
  <time>2011-09-02T05:36:13Z</time>
  <speed>3.040000</speed>
</trkpt>
<trkpt lat="32.870491028" lon="35.237304688">
  <ele>151.786377</ele>
  <time>2011-09-02T05:36:14Z</time>
  <speed>2.770000</speed>
</trkpt>
<trkpt lat="32.870521545" lon="35.237316132">
  <ele>152.044189</ele>
  <time>2011-09-02T05:36:15Z</time>
  <speed>2.670000</speed>
</trkpt>
<trkpt lat="32.870548248" lon="35.237331390">
  <ele>152.352783</ele>
  <time>2011-09-02T05:36:16Z</time>
  <speed>2.320000</speed>
</trkpt>
<trkpt lat="32.870578766" lon="35.237339020">
  <ele>152.766846</ele>
  <time>2011-09-02T05:36:17Z</time>
  <speed>2.720000</speed>
</trkpt>
<trkpt lat="32.870605469" lon="35.237346649">
  <ele>152.774658</ele>
  <time>2011-09-02T05:36:18Z</time>
  <speed>2.710000</speed>
</trkpt>
<trkpt lat="32.870635986" lon="35.237358093">
  <ele>153.446533</ele>
  <time>2011-09-02T05:36:19Z</time>
  <speed>2.890000</speed>
</trkpt>
<trkpt lat="32.870662689" lon="35.237369537">
  <ele>154.055908</ele>
  <time>2011-09-02T05:36:20Z</time>
  <speed>2.850000</speed>
</trkpt>
<trkpt lat="32.870712280" lon="35.237392426">
  <ele>155.645752</ele>
  <time>2011-09-02T05:36:22Z</time>
  <speed>2.770000</speed>
</trkpt>
<trkpt lat="32.870738983" lon="35.237407684">
  <ele>155.821533</ele>
  <time>2011-09-02T05:36:23Z</time>
  <speed>2.720000</speed>
</trkpt>
<trkpt lat="32.870780945" lon="35.237422943">
  <ele>156.837158</ele>
  <time>2011-09-02T05:36:25Z</time>
  <speed>1.980000</speed>
</trkpt>
<trkpt lat="32.870826721" lon="35.237426758">
  <ele>157.512939</ele>
  <time>2011-09-02T05:36:27Z</time>
  <speed>2.420000</speed>
</trkpt>
<trkpt lat="32.870849609" lon="35.237434387">
  <ele>158.591064</ele>
  <time>2011-09-02T05:36:28Z</time>
  <speed>1.890000</speed>
</trkpt>
<trkpt lat="32.870880127" lon="35.237445831">
  <ele>160.387939</ele>
  <time>2011-09-02T05:36:30Z</time>
  <speed>1.750000</speed>
</trkpt>
<trkpt lat="32.870922089" lon="35.237461090">
  <ele>159.794189</ele>
  <time>2011-09-02T05:36:32Z</time>
  <speed>2.360000</speed>
</trkpt>
<trkpt lat="32.870948792" lon="35.237461090">
  <ele>160.141846</ele>
  <time>2011-09-02T05:36:33Z</time>
  <speed>2.120000</speed>
</trkpt>
<trkpt lat="32.871002197" lon="35.237453461">
  <ele>160.837158</ele>
  <time>2011-09-02T05:36:35Z</time>
  <speed>2.420000</speed>
</trkpt>
<trkpt lat="32.871051788" lon="35.237449646">
  <ele>160.942627</ele>
  <time>2011-09-02T05:36:37Z</time>
  <speed>2.110000</speed>
</trkpt>
<trkpt lat="32.871078491" lon="35.237442017">
  <ele>162.341064</ele>
  <time>2011-09-02T05:36:39Z</time>
  <speed>2.010000</speed>
</trkpt>
<trkpt lat="32.871131897" lon="35.237430573">
  <ele>161.770752</ele>
  <time>2011-09-02T05:36:41Z</time>
  <speed>2.280000</speed>
</trkpt>
<trkpt lat="32.871181488" lon="35.237430573">
  <ele>161.298096</ele>
  <time>2011-09-02T05:36:43Z</time>
  <speed>2.150000</speed>
</trkpt>
<trkpt lat="32.871219635" lon="35.237422943">
  <ele>161.591064</ele>
  <time>2011-09-02T05:36:45Z</time>
  <speed>2.060000</speed>
</trkpt>
<trkpt lat="32.871257782" lon="35.237411499">
  <ele>161.352783</ele>
  <time>2011-09-02T05:36:47Z</time>
  <speed>2.340000</speed>
</trkpt>
<trkpt lat="32.871303558" lon="35.237411499">
  <ele>160.516846</ele>
  <time>2011-09-02T05:36:49Z</time>
  <speed>2.330000</speed>
</trkpt>
<trkpt lat="32.871345520" lon="35.237388611">
  <ele>160.106689</ele>
  <time>2011-09-02T05:36:51Z</time>
  <speed>2.570000</speed>
</trkpt>
<trkpt lat="32.871379852" lon="35.237358093">
  <ele>160.567627</ele>
  <time>2011-09-02T05:36:53Z</time>
  <speed>2.030000</speed>
</trkpt>
<trkpt lat="32.871410370" lon="35.237331390">
  <ele>161.473877</ele>
  <time>2011-09-02T05:36:55Z</time>
  <speed>1.940000</speed>
</trkpt>
<trkpt lat="32.871433258" lon="35.237316132">
  <ele>162.958252</ele>
  <time>2011-09-02T05:36:57Z</time>
  <speed>1.670000</speed>
</trkpt>
<trkpt lat="32.871475220" lon="35.237300873">
  <ele>163.868408</ele>
  <time>2011-09-02T05:36:59Z</time>
  <speed>2.200000</speed>
</trkpt>
<trkpt lat="32.871513367" lon="35.237300873">
  <ele>163.958252</ele>
  <time>2011-09-02T05:37:01Z</time>
  <speed>2.060000</speed>
</trkpt>
<trkpt lat="32.871540070" lon="35.237304688">
  <ele>164.407471</ele>
  <time>2011-09-02T05:37:03Z</time>
  <speed>1.590000</speed>
</trkpt>
<trkpt lat="32.871578217" lon="35.237304688">
  <ele>164.993408</ele>
  <time>2011-09-02T05:37:05Z</time>
  <speed>1.890000</speed>
</trkpt>
<trkpt lat="32.871604919" lon="35.237319946">
  <ele>165.532471</ele>
  <time>2011-09-02T05:37:07Z</time>
  <speed>1.160000</speed>
</trkpt>
<trkpt lat="32.871639252" lon="35.237331390">
  <ele>166.891846</ele>
  <time>2011-09-02T05:37:09Z</time>
  <speed>2.000000</speed>
</trkpt>
<trkpt lat="32.871681213" lon="35.237327576">
  <ele>167.696533</ele>
  <time>2011-09-02T05:37:11Z</time>
  <speed>1.860000</speed>
</trkpt>
<trkpt lat="32.871707916" lon="35.237335205">
  <ele>168.423096</ele>
  <time>2011-09-02T05:37:13Z</time>
  <speed>1.150000</speed>
</trkpt>
<trkpt lat="32.871738434" lon="35.237361908">
  <ele>168.790283</ele>
  <time>2011-09-02T05:37:15Z</time>
  <speed>1.690000</speed>
</trkpt>
<trkpt lat="32.871765137" lon="35.237392426">
  <ele>168.653564</ele>
  <time>2011-09-02T05:37:17Z</time>
  <speed>1.830000</speed>
</trkpt>
<trkpt lat="32.871799469" lon="35.237415314">
  <ele>168.563721</ele>
  <time>2011-09-02T05:37:19Z</time>
  <speed>1.830000</speed>
</trkpt>
<trkpt lat="32.871826172" lon="35.237457275">
  <ele>167.477783</ele>
  <time>2011-09-02T05:37:21Z</time>
  <speed>2.030000</speed>
</trkpt>
<trkpt lat="32.871833801" lon="35.237506866">
  <ele>167.399658</ele>
  <time>2011-09-02T05:37:23Z</time>
  <speed>2.240000</speed>
</trkpt>
<trkpt lat="32.871829987" lon="35.237552643">
  <ele>167.962158</ele>
  <time>2011-09-02T05:37:25Z</time>
  <speed>2.420000</speed>
</trkpt>
<trkpt lat="32.871807098" lon="35.237602234">
  <ele>169.145752</ele>
  <time>2011-09-02T05:37:27Z</time>
  <speed>2.700000</speed>
</trkpt>
<trkpt lat="32.871776581" lon="35.237644196">
  <ele>169.891846</ele>
  <time>2011-09-02T05:37:29Z</time>
  <speed>2.670000</speed>
</trkpt>
<trkpt lat="32.871734619" lon="35.237670898">
  <ele>169.567627</ele>
  <time>2011-09-02T05:37:31Z</time>
  <speed>2.620000</speed>
</trkpt>
<trkpt lat="32.871707916" lon="35.237682343">
  <ele>169.645752</ele>
  <time>2011-09-02T05:37:32Z</time>
  <speed>2.670000</speed>
</trkpt>
<trkpt lat="32.871681213" lon="35.237701416">
  <ele>170.618408</ele>
  <time>2011-09-02T05:37:33Z</time>
  <speed>2.930000</speed>
</trkpt>
<trkpt lat="32.871654510" lon="35.237709045">
  <ele>170.407471</ele>
  <time>2011-09-02T05:37:34Z</time>
  <speed>3.410000</speed>
</trkpt>
<trkpt lat="32.871623993" lon="35.237712860">
  <ele>169.927002</ele>
  <time>2011-09-02T05:37:35Z</time>
  <speed>3.770000</speed>
</trkpt>
<trkpt lat="32.871589661" lon="35.237728119">
  <ele>169.606689</ele>
  <time>2011-09-02T05:37:36Z</time>
  <speed>4.140000</speed>
</trkpt>
<trkpt lat="32.871547699" lon="35.237739563">
  <ele>169.622314</ele>
  <time>2011-09-02T05:37:37Z</time>
  <speed>4.550000</speed>
</trkpt>
<trkpt lat="32.871505737" lon="35.237751007">
  <ele>168.844971</ele>
  <time>2011-09-02T05:37:38Z</time>
  <speed>4.650000</speed>
</trkpt>
<trkpt lat="32.871463776" lon="35.237762451">
  <ele>168.497314</ele>
  <time>2011-09-02T05:37:39Z</time>
  <speed>4.930000</speed>
</trkpt>
<trkpt lat="32.871417999" lon="35.237758636">
  <ele>168.469971</ele>
  <time>2011-09-02T05:37:40Z</time>
  <speed>4.930000</speed>
</trkpt>
<trkpt lat="32.871376038" lon="35.237766266">
  <ele>168.270752</ele>
  <time>2011-09-02T05:37:41Z</time>
  <speed>4.950000</speed>
</trkpt>
<trkpt lat="32.871330261" lon="35.237773895">
  <ele>167.614502</ele>
  <time>2011-09-02T05:37:42Z</time>
  <speed>5.000000</speed>
</trkpt>
<trkpt lat="32.871288300" lon="35.237781525">
  <ele>166.895752</ele>
  <time>2011-09-02T05:37:43Z</time>
  <speed>4.900000</speed>
</trkpt>
<trkpt lat="32.871246338" lon="35.237789154">
  <ele>166.415283</ele>
  <time>2011-09-02T05:37:44Z</time>
  <speed>4.210000</speed>
</trkpt>
<trkpt lat="32.871204376" lon="35.237792969">
  <ele>165.520752</ele>
  <time>2011-09-02T05:37:45Z</time>
  <speed>4.560000</speed>
</trkpt>
<trkpt lat="32.871166229" lon="35.237796783">
  <ele>165.032471</ele>
  <time>2011-09-02T05:37:46Z</time>
  <speed>4.510000</speed>
</trkpt>
<trkpt lat="32.871128082" lon="35.237815857">
  <ele>164.548096</ele>
  <time>2011-09-02T05:37:47Z</time>
  <speed>4.170000</speed>
</trkpt>
<trkpt lat="32.871086121" lon="35.237819672">
  <ele>164.337158</ele>
  <time>2011-09-02T05:37:48Z</time>
  <speed>4.100000</speed>
</trkpt>
<trkpt lat="32.871047974" lon="35.237831116">
  <ele>163.766846</ele>
  <time>2011-09-02T05:37:49Z</time>
  <speed>3.800000</speed>
</trkpt>
<trkpt lat="32.871013641" lon="35.237846375">
  <ele>163.606689</ele>
  <time>2011-09-02T05:37:50Z</time>
  <speed>3.620000</speed>
</trkpt>
<trkpt lat="32.870979309" lon="35.237861633">
  <ele>163.766846</ele>
  <time>2011-09-02T05:37:51Z</time>
  <speed>3.340000</speed>
</trkpt>
<trkpt lat="32.870948792" lon="35.237876892">
  <ele>163.622314</ele>
  <time>2011-09-02T05:37:52Z</time>
  <speed>3.400000</speed>
</trkpt>
<trkpt lat="32.870922089" lon="35.237907410">
  <ele>162.915283</ele>
  <time>2011-09-02T05:37:53Z</time>
  <speed>3.190000</speed>
</trkpt>
<trkpt lat="32.870895386" lon="35.237922668">
  <ele>162.688721</ele>
  <time>2011-09-02T05:37:54Z</time>
  <speed>3.310000</speed>
</trkpt>
<trkpt lat="32.870864868" lon="35.237937927">
  <ele>162.766846</ele>
  <time>2011-09-02T05:37:55Z</time>
  <speed>3.190000</speed>
</trkpt>
<trkpt lat="32.870834351" lon="35.237949371">
  <ele>162.446533</ele>
  <time>2011-09-02T05:37:56Z</time>
  <speed>3.390000</speed>
</trkpt>
<trkpt lat="32.870800018" lon="35.237964630">
  <ele>163.001221</ele>
  <time>2011-09-02T05:37:57Z</time>
  <speed>3.490000</speed>
</trkpt>
<trkpt lat="32.870769501" lon="35.237991333">
  <ele>162.309814</ele>
  <time>2011-09-02T05:37:58Z</time>
  <speed>3.530000</speed>
</trkpt>
<trkpt lat="32.870742798" lon="35.238010406">
  <ele>162.067627</ele>
  <time>2011-09-02T05:37:59Z</time>
  <speed>3.630000</speed>
</trkpt>
<trkpt lat="32.870716095" lon="35.238033295">
  <ele>161.848877</ele>
  <time>2011-09-02T05:38:00Z</time>
  <speed>3.430000</speed>
</trkpt>
<trkpt lat="32.870689392" lon="35.238056183">
  <ele>161.532471</ele>
  <time>2011-09-02T05:38:01Z</time>
  <speed>3.520000</speed>
</trkpt>
<trkpt lat="32.870658875" lon="35.238075256">
  <ele>162.430908</ele>
  <time>2011-09-02T05:38:02Z</time>
  <speed>3.590000</speed>
</trkpt>
<trkpt lat="32.870624542" lon="35.238086700">
  <ele>162.794189</ele>
  <time>2011-09-02T05:38:03Z</time>
  <speed>3.400000</speed>
</trkpt>
<trkpt lat="32.870597839" lon="35.238098145">
  <ele>162.973877</ele>
  <time>2011-09-02T05:38:04Z</time>
  <speed>3.290000</speed>
</trkpt>
<trkpt lat="32.870567322" lon="35.238113403">
  <ele>162.778564</ele>
  <time>2011-09-02T05:38:05Z</time>
  <speed>3.600000</speed>
</trkpt>
<trkpt lat="32.870540619" lon="35.238132477">
  <ele>162.704346</ele>
  <time>2011-09-02T05:38:06Z</time>
  <speed>3.530000</speed>
</trkpt>
<trkpt lat="32.870513916" lon="35.238159180">
  <ele>163.118408</ele>
  <time>2011-09-02T05:38:07Z</time>
  <speed>3.750000</speed>
</trkpt>
<trkpt lat="32.870487213" lon="35.238189697">
  <ele>163.848877</ele>
  <time>2011-09-02T05:38:08Z</time>
  <speed>3.890000</speed>
</trkpt>
<trkpt lat="32.870464325" lon="35.238220215">
  <ele>164.235596</ele>
  <time>2011-09-02T05:38:09Z</time>
  <speed>3.790000</speed>
</trkpt>
<trkpt lat="32.870441437" lon="35.238258362">
  <ele>164.872314</ele>
  <time>2011-09-02T05:38:10Z</time>
  <speed>3.850000</speed>
</trkpt>
<trkpt lat="32.870418549" lon="35.238300323">
  <ele>165.040283</ele>
  <time>2011-09-02T05:38:11Z</time>
  <speed>4.380000</speed>
</trkpt>
<trkpt lat="32.870399475" lon="35.238338470">
  <ele>164.880127</ele>
  <time>2011-09-02T05:38:12Z</time>
  <speed>4.440000</speed>
</trkpt>
<trkpt lat="32.870376587" lon="35.238384247">
  <ele>165.251221</ele>
  <time>2011-09-02T05:38:13Z</time>
  <speed>4.440000</speed>
</trkpt>
<trkpt lat="32.870353699" lon="35.238422394">
  <ele>166.157471</ele>
  <time>2011-09-02T05:38:14Z</time>
  <speed>4.470000</speed>
</trkpt>
<trkpt lat="32.870334625" lon="35.238464355">
  <ele>166.219971</ele>
  <time>2011-09-02T05:38:15Z</time>
  <speed>4.680000</speed>
</trkpt>
<trkpt lat="32.870319366" lon="35.238513947">
  <ele>166.106689</ele>
  <time>2011-09-02T05:38:16Z</time>
  <speed>4.700000</speed>
</trkpt>
<trkpt lat="32.870304108" lon="35.238571167">
  <ele>166.305908</ele>
  <time>2011-09-02T05:38:17Z</time>
  <speed>5.000000</speed>
</trkpt>
<trkpt lat="32.870292664" lon="35.238624573">
  <ele>165.700439</ele>
  <time>2011-09-02T05:38:18Z</time>
  <speed>5.060000</speed>
</trkpt>
<trkpt lat="32.870288849" lon="35.238681793">
  <ele>165.887939</ele>
  <time>2011-09-02T05:38:19Z</time>
  <speed>4.780000</speed>
</trkpt>
<trkpt lat="32.870277405" lon="35.238727570">
  <ele>166.067627</ele>
  <time>2011-09-02T05:38:20Z</time>
  <speed>4.620000</speed>
</trkpt>
<trkpt lat="32.870277405" lon="35.238780975">
  <ele>166.157471</ele>
  <time>2011-09-02T05:38:21Z</time>
  <speed>4.490000</speed>
</trkpt>
<trkpt lat="32.870285034" lon="35.238830566">
  <ele>166.430908</ele>
  <time>2011-09-02T05:38:22Z</time>
  <speed>4.570000</speed>
</trkpt>
<trkpt lat="32.870292664" lon="35.238883972">
  <ele>166.177002</ele>
  <time>2011-09-02T05:38:23Z</time>
  <speed>4.760000</speed>
</trkpt>
<trkpt lat="32.870307922" lon="35.238941193">
  <ele>165.887939</ele>
  <time>2011-09-02T05:38:24Z</time>
  <speed>4.870000</speed>
</trkpt>
<trkpt lat="32.870323181" lon="35.238994598">
  <ele>165.411377</ele>
  <time>2011-09-02T05:38:25Z</time>
  <speed>4.920000</speed>
</trkpt>
<trkpt lat="32.870338440" lon="35.239044189">
  <ele>164.684814</ele>
  <time>2011-09-02T05:38:26Z</time>
  <speed>4.930000</speed>
</trkpt>
<trkpt lat="32.870349884" lon="35.239097595">
  <ele>164.153564</ele>
  <time>2011-09-02T05:38:27Z</time>
  <speed>5.340000</speed>
</trkpt>
<trkpt lat="32.870368958" lon="35.239151001">
  <ele>162.786377</ele>
  <time>2011-09-02T05:38:28Z</time>
  <speed>5.510000</speed>
</trkpt>
<trkpt lat="32.870391846" lon="35.239212036">
  <ele>162.575439</ele>
  <time>2011-09-02T05:38:29Z</time>
  <speed>5.660000</speed>
</trkpt>
<trkpt lat="32.870403290" lon="35.239273071">
  <ele>162.989502</ele>
  <time>2011-09-02T05:38:30Z</time>
  <speed>5.640000</speed>
</trkpt>
<trkpt lat="32.870418549" lon="35.239334106">
  <ele>162.782471</ele>
  <time>2011-09-02T05:38:31Z</time>
  <speed>5.710000</speed>
</trkpt>
<trkpt lat="32.870433807" lon="35.239395142">
  <ele>162.290283</ele>
  <time>2011-09-02T05:38:32Z</time>
  <speed>5.580000</speed>
</trkpt>
<trkpt lat="32.870441437" lon="35.239456177">
  <ele>161.434814</ele>
  <time>2011-09-02T05:38:33Z</time>
  <speed>5.850000</speed>
</trkpt>
<trkpt lat="32.870460510" lon="35.239521027">
  <ele>162.169189</ele>
  <time>2011-09-02T05:38:34Z</time>
  <speed>5.830000</speed>
</trkpt>
<trkpt lat="32.870475769" lon="35.239578247">
  <ele>162.149658</ele>
  <time>2011-09-02T05:38:35Z</time>
  <speed>5.140000</speed>
</trkpt>
<trkpt lat="32.870494843" lon="35.239627838">
  <ele>162.501221</ele>
  <time>2011-09-02T05:38:36Z</time>
  <speed>4.700000</speed>
</trkpt>
<trkpt lat="32.870510101" lon="35.239673615">
  <ele>163.134033</ele>
  <time>2011-09-02T05:38:37Z</time>
  <speed>4.040000</speed>
</trkpt>
<trkpt lat="32.870532990" lon="35.239711761">
  <ele>162.665283</ele>
  <time>2011-09-02T05:38:38Z</time>
  <speed>3.520000</speed>
</trkpt>
<trkpt lat="32.870544434" lon="35.239749908">
  <ele>162.477783</ele>
  <time>2011-09-02T05:38:39Z</time>
  <speed>3.690000</speed>
</trkpt>
<trkpt lat="32.870540619" lon="35.239799500">
  <ele>162.688721</ele>
  <time>2011-09-02T05:38:40Z</time>
  <speed>4.440000</speed>
</trkpt>
<trkpt lat="32.870529175" lon="35.239852905">
  <ele>162.841064</ele>
  <time>2011-09-02T05:38:41Z</time>
  <speed>5.090000</speed>
</trkpt>
<trkpt lat="32.870513916" lon="35.239906311">
  <ele>162.536377</ele>
  <time>2011-09-02T05:38:42Z</time>
  <speed>5.140000</speed>
</trkpt>
<trkpt lat="32.870491028" lon="35.239955902">
  <ele>163.302002</ele>
  <time>2011-09-02T05:38:43Z</time>
  <speed>4.840000</speed>
</trkpt>
<trkpt lat="32.870464325" lon="35.240001678">
  <ele>163.919189</ele>
  <time>2011-09-02T05:38:44Z</time>
  <speed>4.610000</speed>
</trkpt>
<trkpt lat="32.870445251" lon="35.240047455">
  <ele>164.520752</ele>
  <time>2011-09-02T05:38:45Z</time>
  <speed>4.460000</speed>
</trkpt>
<trkpt lat="32.870418549" lon="35.240077972">
  <ele>164.716064</ele>
  <time>2011-09-02T05:38:46Z</time>
  <speed>4.400000</speed>
</trkpt>
<trkpt lat="32.870384216" lon="35.240104675">
  <ele>165.009033</ele>
  <time>2011-09-02T05:38:47Z</time>
  <speed>4.760000</speed>
</trkpt>
<trkpt lat="32.870338440" lon="35.240131378">
  <ele>164.337158</ele>
  <time>2011-09-02T05:38:48Z</time>
  <speed>4.860000</speed>
</trkpt>
<trkpt lat="32.870307922" lon="35.240158081">
  <ele>164.302002</ele>
  <time>2011-09-02T05:38:49Z</time>
  <speed>4.490000</speed>
</trkpt>
<trkpt lat="32.870273590" lon="35.240188599">
  <ele>164.309814</ele>
  <time>2011-09-02T05:38:50Z</time>
  <speed>4.430000</speed>
</trkpt>
<trkpt lat="32.870239258" lon="35.240215302">
  <ele>164.602783</ele>
  <time>2011-09-02T05:38:51Z</time>
  <speed>4.400000</speed>
</trkpt>
<trkpt lat="32.870197296" lon="35.240249634">
  <ele>164.516846</ele>
  <time>2011-09-02T05:38:52Z</time>
  <speed>4.460000</speed>
</trkpt>
<trkpt lat="32.870166779" lon="35.240276337">
  <ele>164.325439</ele>
  <time>2011-09-02T05:38:53Z</time>
  <speed>4.360000</speed>
</trkpt>
<trkpt lat="32.870136261" lon="35.240303040">
  <ele>164.419189</ele>
  <time>2011-09-02T05:38:54Z</time>
  <speed>4.260000</speed>
</trkpt>
<trkpt lat="32.870109558" lon="35.240329742">
  <ele>164.200439</ele>
  <time>2011-09-02T05:38:55Z</time>
  <speed>3.770000</speed>
</trkpt>
<trkpt lat="32.870079041" lon="35.240360260">
  <ele>164.688721</ele>
  <time>2011-09-02T05:38:56Z</time>
  <speed>3.910000</speed>
</trkpt>
<trkpt lat="32.870056152" lon="35.240390778">
  <ele>164.665283</ele>
  <time>2011-09-02T05:38:57Z</time>
  <speed>3.870000</speed>
</trkpt>
<trkpt lat="32.870029449" lon="35.240428925">
  <ele>165.598877</ele>
  <time>2011-09-02T05:38:58Z</time>
  <speed>3.690000</speed>
</trkpt>
<trkpt lat="32.870002747" lon="35.240463257">
  <ele>166.528564</ele>
  <time>2011-09-02T05:38:59Z</time>
  <speed>3.830000</speed>
</trkpt>
<trkpt lat="32.869976044" lon="35.240493774">
  <ele>166.735596</ele>
  <time>2011-09-02T05:39:00Z</time>
  <speed>3.440000</speed>
</trkpt>
<trkpt lat="32.869949341" lon="35.240516663">
  <ele>167.126221</ele>
  <time>2011-09-02T05:39:01Z</time>
  <speed>3.240000</speed>
</trkpt>
<trkpt lat="32.869922638" lon="35.240539551">
  <ele>167.512939</ele>
  <time>2011-09-02T05:39:02Z</time>
  <speed>3.180000</speed>
</trkpt>
<trkpt lat="32.869903564" lon="35.240562439">
  <ele>167.880127</ele>
  <time>2011-09-02T05:39:03Z</time>
  <speed>3.450000</speed>
</trkpt>
<trkpt lat="32.869876862" lon="35.240592957">
  <ele>167.884033</ele>
  <time>2011-09-02T05:39:04Z</time>
  <speed>3.600000</speed>
</trkpt>
<trkpt lat="32.869853973" lon="35.240623474">
  <ele>167.844971</ele>
  <time>2011-09-02T05:39:05Z</time>
  <speed>3.860000</speed>
</trkpt>
<trkpt lat="32.869827271" lon="35.240657806">
  <ele>168.005127</ele>
  <time>2011-09-02T05:39:06Z</time>
  <speed>3.590000</speed>
</trkpt>
<trkpt lat="32.869804382" lon="35.240684509">
  <ele>168.610596</ele>
  <time>2011-09-02T05:39:07Z</time>
  <speed>3.580000</speed>
</trkpt>
<trkpt lat="32.869781494" lon="35.240711212">
  <ele>169.071533</ele>
  <time>2011-09-02T05:39:08Z</time>
  <speed>3.560000</speed>
</trkpt>
<trkpt lat="32.869754791" lon="35.240734100">
  <ele>169.907471</ele>
  <time>2011-09-02T05:39:09Z</time>
  <speed>3.710000</speed>
</trkpt>
<trkpt lat="32.869728088" lon="35.240760803">
  <ele>170.759033</ele>
  <time>2011-09-02T05:39:10Z</time>
  <speed>3.920000</speed>
</trkpt>
<trkpt lat="32.869701385" lon="35.240791321">
  <ele>170.969971</ele>
  <time>2011-09-02T05:39:11Z</time>
  <speed>3.670000</speed>
</trkpt>
<trkpt lat="32.869678497" lon="35.240818024">
  <ele>170.809814</ele>
  <time>2011-09-02T05:39:12Z</time>
  <speed>3.540000</speed>
</trkpt>
<trkpt lat="32.869659424" lon="35.240848541">
  <ele>171.071533</ele>
  <time>2011-09-02T05:39:13Z</time>
  <speed>3.650000</speed>
</trkpt>
<trkpt lat="32.869636536" lon="35.240882874">
  <ele>171.352783</ele>
  <time>2011-09-02T05:39:14Z</time>
  <speed>3.890000</speed>
</trkpt>
<trkpt lat="32.869613647" lon="35.240913391">
  <ele>171.583252</ele>
  <time>2011-09-02T05:39:15Z</time>
  <speed>3.880000</speed>
</trkpt>
<trkpt lat="32.869586945" lon="35.240940094">
  <ele>171.376221</ele>
  <time>2011-09-02T05:39:16Z</time>
  <speed>3.990000</speed>
</trkpt>
<trkpt lat="32.869564056" lon="35.240974426">
  <ele>171.454346</ele>
  <time>2011-09-02T05:39:17Z</time>
  <speed>3.970000</speed>
</trkpt>
<trkpt lat="32.869537354" lon="35.241004944">
  <ele>171.497314</ele>
  <time>2011-09-02T05:39:18Z</time>
  <speed>3.840000</speed>
</trkpt>
<trkpt lat="32.869510651" lon="35.241031647">
  <ele>172.384033</ele>
  <time>2011-09-02T05:39:19Z</time>
  <speed>4.030000</speed>
</trkpt>
<trkpt lat="32.869483948" lon="35.241069794">
  <ele>172.637939</ele>
  <time>2011-09-02T05:39:20Z</time>
  <speed>3.750000</speed>
</trkpt>
<trkpt lat="32.869464874" lon="35.241092682">
  <ele>172.126221</ele>
  <time>2011-09-02T05:39:21Z</time>
  <speed>3.810000</speed>
</trkpt>
<trkpt lat="32.869438171" lon="35.241119385">
  <ele>172.872314</ele>
  <time>2011-09-02T05:39:22Z</time>
  <speed>3.780000</speed>
</trkpt>
<trkpt lat="32.869411469" lon="35.241146088">
  <ele>173.091064</ele>
  <time>2011-09-02T05:39:23Z</time>
  <speed>3.880000</speed>
</trkpt>
<trkpt lat="32.869388580" lon="35.241184235">
  <ele>173.485596</ele>
  <time>2011-09-02T05:39:24Z</time>
  <speed>3.870000</speed>
</trkpt>
<trkpt lat="32.869361877" lon="35.241222382">
  <ele>174.305908</ele>
  <time>2011-09-02T05:39:25Z</time>
  <speed>3.810000</speed>
</trkpt>
<trkpt lat="32.869338989" lon="35.241245270">
  <ele>174.825439</ele>
  <time>2011-09-02T05:39:26Z</time>
  <speed>3.890000</speed>
</trkpt>
<trkpt lat="32.869308472" lon="35.241268158">
  <ele>175.411377</ele>
  <time>2011-09-02T05:39:27Z</time>
  <speed>3.670000</speed>
</trkpt>
<trkpt lat="32.869281769" lon="35.241291046">
  <ele>175.356689</ele>
  <time>2011-09-02T05:39:28Z</time>
  <speed>3.590000</speed>
</trkpt>
<trkpt lat="32.869258881" lon="35.241317749">
  <ele>174.884033</ele>
  <time>2011-09-02T05:39:29Z</time>
  <speed>3.140000</speed>
</trkpt>
<trkpt lat="32.869232178" lon="35.241340637">
  <ele>175.134033</ele>
  <time>2011-09-02T05:39:30Z</time>
  <speed>3.110000</speed>
</trkpt>
<trkpt lat="32.869209290" lon="35.241363525">
  <ele>175.110596</ele>
  <time>2011-09-02T05:39:31Z</time>
  <speed>2.880000</speed>
</trkpt>
<trkpt lat="32.869190216" lon="35.241390228">
  <ele>174.981689</ele>
  <time>2011-09-02T05:39:32Z</time>
  <speed>2.970000</speed>
</trkpt>
<trkpt lat="32.869167328" lon="35.241409302">
  <ele>175.239502</ele>
  <time>2011-09-02T05:39:33Z</time>
  <speed>2.830000</speed>
</trkpt>
<trkpt lat="32.869144440" lon="35.241432190">
  <ele>175.657471</ele>
  <time>2011-09-02T05:39:34Z</time>
  <speed>2.820000</speed>
</trkpt>
<trkpt lat="32.869110107" lon="35.241474152">
  <ele>175.997314</ele>
  <time>2011-09-02T05:39:36Z</time>
  <speed>2.110000</speed>
</trkpt>
<trkpt lat="32.869079590" lon="35.241516113">
  <ele>176.356689</ele>
  <time>2011-09-02T05:39:38Z</time>
  <speed>2.470000</speed>
</trkpt>
<trkpt lat="32.869045258" lon="35.241554260">
  <ele>176.169189</ele>
  <time>2011-09-02T05:39:40Z</time>
  <speed>2.220000</speed>
</trkpt>
<trkpt lat="32.869014740" lon="35.241580963">
  <ele>175.532471</ele>
  <time>2011-09-02T05:39:42Z</time>
  <speed>2.390000</speed>
</trkpt>
<trkpt lat="32.868984222" lon="35.241622925">
  <ele>176.751221</ele>
  <time>2011-09-02T05:39:44Z</time>
  <speed>2.330000</speed>
</trkpt>
<trkpt lat="32.868957520" lon="35.241668701">
  <ele>177.509033</ele>
  <time>2011-09-02T05:39:46Z</time>
  <speed>2.390000</speed>
</trkpt>
<trkpt lat="32.868927002" lon="35.241695404">
  <ele>177.333252</ele>
  <time>2011-09-02T05:39:48Z</time>
  <speed>2.560000</speed>
</trkpt>
<trkpt lat="32.868885040" lon="35.241714478">
  <ele>177.891846</ele>
  <time>2011-09-02T05:39:50Z</time>
  <speed>2.590000</speed>
</trkpt>
<trkpt lat="32.868839264" lon="35.241744995">
  <ele>178.434814</ele>
  <time>2011-09-02T05:39:52Z</time>
  <speed>2.740000</speed>
</trkpt>
<trkpt lat="32.868820190" lon="35.241767883">
  <ele>179.630127</ele>
  <time>2011-09-02T05:39:53Z</time>
  <speed>2.790000</speed>
</trkpt>
<trkpt lat="32.868774414" lon="35.241790771">
  <ele>180.165283</ele>
  <time>2011-09-02T05:39:55Z</time>
  <speed>2.790000</speed>
</trkpt>
<trkpt lat="32.868747711" lon="35.241783142">
  <ele>180.223877</ele>
  <time>2011-09-02T05:39:56Z</time>
  <speed>2.770000</speed>
</trkpt>
<trkpt lat="32.868698120" lon="35.241775513">
  <ele>180.200439</ele>
  <time>2011-09-02T05:39:58Z</time>
  <speed>2.850000</speed>
</trkpt>
<trkpt lat="32.868648529" lon="35.241760254">
  <ele>180.634033</ele>
  <time>2011-09-02T05:40:00Z</time>
  <speed>2.180000</speed>
</trkpt>
<trkpt lat="32.868606567" lon="35.241729736">
  <ele>181.352783</ele>
  <time>2011-09-02T05:40:02Z</time>
  <speed>2.680000</speed>
</trkpt>
<trkpt lat="32.868583679" lon="35.241710663">
  <ele>182.067627</ele>
  <time>2011-09-02T05:40:04Z</time>
  <speed>2.650000</speed>
</trkpt>
<trkpt lat="32.868583679" lon="35.241676331">
  <ele>181.368408</ele>
  <time>2011-09-02T05:40:05Z</time>
  <speed>2.660000</speed>
</trkpt>
<trkpt lat="32.868560791" lon="35.241657257">
  <ele>181.989502</ele>
  <time>2011-09-02T05:40:06Z</time>
  <speed>2.750000</speed>
</trkpt>
<trkpt lat="32.868556976" lon="35.241600037">
  <ele>181.602783</ele>
  <time>2011-09-02T05:40:08Z</time>
  <speed>2.890000</speed>
</trkpt>
<trkpt lat="32.868560791" lon="35.241565704">
  <ele>180.509033</ele>
  <time>2011-09-02T05:40:09Z</time>
  <speed>2.410000</speed>
</trkpt>
<trkpt lat="32.868568420" lon="35.241535187">
  <ele>179.466064</ele>
  <time>2011-09-02T05:40:10Z</time>
  <speed>2.430000</speed>
</trkpt>
<trkpt lat="32.868572235" lon="35.241504669">
  <ele>178.294189</ele>
  <time>2011-09-02T05:40:11Z</time>
  <speed>2.560000</speed>
</trkpt>
<trkpt lat="32.868572235" lon="35.241470337">
  <ele>177.614502</ele>
  <time>2011-09-02T05:40:12Z</time>
  <speed>3.000000</speed>
</trkpt>
<trkpt lat="32.868576050" lon="35.241436005">
  <ele>177.009033</ele>
  <time>2011-09-02T05:40:13Z</time>
  <speed>2.870000</speed>
</trkpt>
<trkpt lat="32.868560791" lon="35.241348267">
  <ele>178.946533</ele>
  <time>2011-09-02T05:40:15Z</time>
  <speed>2.600000</speed>
</trkpt>
<trkpt lat="32.868556976" lon="35.241310120">
  <ele>178.848877</ele>
  <time>2011-09-02T05:40:16Z</time>
  <speed>2.720000</speed>
</trkpt>
<trkpt lat="32.868568420" lon="35.241271973">
  <ele>179.434814</ele>
  <time>2011-09-02T05:40:18Z</time>
  <speed>2.130000</speed>
</trkpt>
<trkpt lat="32.868572235" lon="35.241214752">
  <ele>178.872314</ele>
  <time>2011-09-02T05:40:20Z</time>
  <speed>2.390000</speed>
</trkpt>
<trkpt lat="32.868564606" lon="35.241161346">
  <ele>179.313721</ele>
  <time>2011-09-02T05:40:22Z</time>
  <speed>2.070000</speed>
</trkpt>
<trkpt lat="32.868541718" lon="35.241130829">
  <ele>178.989502</ele>
  <time>2011-09-02T05:40:23Z</time>
  <speed>2.530000</speed>
</trkpt>
<trkpt lat="32.868530273" lon="35.241077423">
  <ele>179.196533</ele>
  <time>2011-09-02T05:40:25Z</time>
  <speed>2.380000</speed>
</trkpt>
<trkpt lat="32.868518829" lon="35.241024017">
  <ele>178.876221</ele>
  <time>2011-09-02T05:40:27Z</time>
  <speed>2.390000</speed>
</trkpt>
<trkpt lat="32.868511200" lon="35.240970612">
  <ele>179.516846</ele>
  <time>2011-09-02T05:40:29Z</time>
  <speed>2.130000</speed>
</trkpt>
<trkpt lat="32.868511200" lon="35.240921021">
  <ele>179.294189</ele>
  <time>2011-09-02T05:40:31Z</time>
  <speed>2.010000</speed>
</trkpt>
<trkpt lat="32.868503571" lon="35.240871429">
  <ele>180.048096</ele>
  <time>2011-09-02T05:40:33Z</time>
  <speed>2.210000</speed>
</trkpt>
<trkpt lat="32.868495941" lon="35.240821838">
  <ele>180.356689</ele>
  <time>2011-09-02T05:40:35Z</time>
  <speed>2.700000</speed>
</trkpt>
<trkpt lat="32.868473053" lon="35.240779877">
  <ele>180.559814</ele>
  <time>2011-09-02T05:40:36Z</time>
  <speed>2.240000</speed>
</trkpt>
<trkpt lat="32.868465424" lon="35.240749359">
  <ele>181.294189</ele>
  <time>2011-09-02T05:40:37Z</time>
  <speed>2.280000</speed>
</trkpt>
<trkpt lat="32.868465424" lon="35.240695953">
  <ele>181.317627</ele>
  <time>2011-09-02T05:40:39Z</time>
  <speed>2.470000</speed>
</trkpt>
<trkpt lat="32.868453979" lon="35.240634918">
  <ele>181.317627</ele>
  <time>2011-09-02T05:40:41Z</time>
  <speed>2.170000</speed>
</trkpt>
<trkpt lat="32.868427277" lon="35.240585327">
  <ele>181.762939</ele>
  <time>2011-09-02T05:40:43Z</time>
  <speed>2.120000</speed>
</trkpt>
<trkpt lat="32.868419647" lon="35.240550995">
  <ele>181.868408</ele>
  <time>2011-09-02T05:40:45Z</time>
  <speed>1.520000</speed>
</trkpt>
<trkpt lat="32.868415833" lon="35.240512848">
  <ele>181.544189</ele>
  <time>2011-09-02T05:40:47Z</time>
  <speed>1.760000</speed>
</trkpt>
<trkpt lat="32.868408203" lon="35.240467072">
  <ele>181.630127</ele>
  <time>2011-09-02T05:40:49Z</time>
  <speed>1.950000</speed>
</trkpt>
<trkpt lat="32.868415833" lon="35.240440369">
  <ele>181.087158</ele>
  <time>2011-09-02T05:40:50Z</time>
  <speed>2.370000</speed>
</trkpt>
<trkpt lat="32.868412018" lon="35.240386963">
  <ele>181.083252</ele>
  <time>2011-09-02T05:40:52Z</time>
  <speed>2.150000</speed>
</trkpt>
<trkpt lat="32.868400574" lon="35.240337372">
  <ele>181.411377</ele>
  <time>2011-09-02T05:40:54Z</time>
  <speed>2.160000</speed>
</trkpt>
<trkpt lat="32.868392944" lon="35.240306854">
  <ele>180.747314</ele>
  <time>2011-09-02T05:40:55Z</time>
  <speed>2.150000</speed>
</trkpt>
<trkpt lat="32.868381500" lon="35.240261078">
  <ele>180.259033</ele>
  <time>2011-09-02T05:40:57Z</time>
  <speed>1.520000</speed>
</trkpt>
<trkpt lat="32.868377686" lon="35.240215302">
  <ele>180.290283</ele>
  <time>2011-09-02T05:40:59Z</time>
  <speed>1.130000</speed>
</trkpt>
<trkpt lat="32.868389130" lon="35.240165710">
  <ele>181.223877</ele>
  <time>2011-09-02T05:41:00Z</time>
  <speed>0.530000</speed>
</trkpt>
<trkpt lat="32.868385315" lon="35.240131378">
  <ele>180.766846</ele>
  <time>2011-09-02T05:41:29Z</time>
  <speed>0.170000</speed>
</trkpt>
<trkpt lat="32.868400574" lon="35.240112305">
  <ele>178.688721</ele>
  <time>2011-09-02T05:43:07Z</time>
  <speed>0.040000</speed>
</trkpt>
<trkpt lat="32.868404388" lon="35.240066528">
  <ele>178.262939</ele>
  <time>2011-09-02T05:43:13Z</time>
  <speed>2.060000</speed>
</trkpt>
<trkpt lat="32.868412018" lon="35.240016937">
  <ele>178.743408</ele>
  <time>2011-09-02T05:43:15Z</time>
  <speed>2.430000</speed>
</trkpt>
<trkpt lat="32.868415833" lon="35.239959717">
  <ele>177.899658</ele>
  <time>2011-09-02T05:43:17Z</time>
  <speed>2.250000</speed>
</trkpt>
<trkpt lat="32.868423462" lon="35.239898682">
  <ele>176.559814</ele>
  <time>2011-09-02T05:43:19Z</time>
  <speed>3.180000</speed>
</trkpt>
<trkpt lat="32.868438721" lon="35.239860535">
  <ele>176.204346</ele>
  <time>2011-09-02T05:43:20Z</time>
  <speed>3.320000</speed>
</trkpt>
<trkpt lat="32.868450165" lon="35.239826202">
  <ele>175.274658</ele>
  <time>2011-09-02T05:43:21Z</time>
  <speed>2.520000</speed>
</trkpt>
<trkpt lat="32.868457794" lon="35.239753723">
  <ele>174.762939</ele>
  <time>2011-09-02T05:43:23Z</time>
  <speed>2.490000</speed>
</trkpt>
<trkpt lat="32.868465424" lon="35.239707947">
  <ele>175.040283</ele>
  <time>2011-09-02T05:43:24Z</time>
  <speed>2.580000</speed>
</trkpt>
<trkpt lat="32.868492126" lon="35.239673615">
  <ele>175.321533</ele>
  <time>2011-09-02T05:43:25Z</time>
  <speed>3.230000</speed>
</trkpt>
<trkpt lat="32.868515015" lon="35.239646912">
  <ele>175.462158</ele>
  <time>2011-09-02T05:43:26Z</time>
  <speed>2.680000</speed>
</trkpt>
<trkpt lat="32.868553162" lon="35.239612579">
  <ele>174.391846</ele>
  <time>2011-09-02T05:43:28Z</time>
  <speed>3.040000</speed>
</trkpt>
<trkpt lat="32.868583679" lon="35.239589691">
  <ele>173.872314</ele>
  <time>2011-09-02T05:43:29Z</time>
  <speed>3.240000</speed>
</trkpt>
<trkpt lat="32.868610382" lon="35.239555359">
  <ele>174.059814</ele>
  <time>2011-09-02T05:43:30Z</time>
  <speed>3.610000</speed>
</trkpt>
<trkpt lat="32.868640900" lon="35.239528656">
  <ele>173.317627</ele>
  <time>2011-09-02T05:43:31Z</time>
  <speed>3.590000</speed>
</trkpt>
<trkpt lat="32.868679047" lon="35.239509583">
  <ele>173.110596</ele>
  <time>2011-09-02T05:43:32Z</time>
  <speed>3.810000</speed>
</trkpt>
<trkpt lat="32.868698120" lon="35.239482880">
  <ele>172.680908</ele>
  <time>2011-09-02T05:43:33Z</time>
  <speed>3.620000</speed>
</trkpt>
<trkpt lat="32.868743896" lon="35.239459991">
  <ele>173.036377</ele>
  <time>2011-09-02T05:43:34Z</time>
  <speed>3.140000</speed>
</trkpt>
<trkpt lat="32.868766785" lon="35.239410400">
  <ele>172.352783</ele>
  <time>2011-09-02T05:43:36Z</time>
  <speed>2.610000</speed>
</trkpt>
<trkpt lat="32.868785858" lon="35.239364624">
  <ele>172.063721</ele>
  <time>2011-09-02T05:43:38Z</time>
  <speed>2.120000</speed>
</trkpt>
<trkpt lat="32.868804932" lon="35.239303589">
  <ele>171.778564</ele>
  <time>2011-09-02T05:43:40Z</time>
  <speed>2.680000</speed>
</trkpt>
<trkpt lat="32.868812561" lon="35.239273071">
  <ele>171.407471</ele>
  <time>2011-09-02T05:43:41Z</time>
  <speed>2.480000</speed>
</trkpt>
<trkpt lat="32.868812561" lon="35.239212036">
  <ele>172.399658</ele>
  <time>2011-09-02T05:43:42Z</time>
  <speed>3.090000</speed>
</trkpt>
<trkpt lat="32.868824005" lon="35.239166260">
  <ele>173.102783</ele>
  <time>2011-09-02T05:43:43Z</time>
  <speed>3.070000</speed>
</trkpt>
<trkpt lat="32.868827820" lon="35.239120483">
  <ele>173.251221</ele>
  <time>2011-09-02T05:43:44Z</time>
  <speed>3.250000</speed>
</trkpt>
<trkpt lat="32.868824005" lon="35.239070892">
  <ele>173.098877</ele>
  <time>2011-09-02T05:43:45Z</time>
  <speed>3.370000</speed>
</trkpt>
<trkpt lat="32.868824005" lon="35.239028931">
  <ele>173.067627</ele>
  <time>2011-09-02T05:43:46Z</time>
  <speed>3.340000</speed>
</trkpt>
<trkpt lat="32.868812561" lon="35.238960266">
  <ele>172.384033</ele>
  <time>2011-09-02T05:43:48Z</time>
  <speed>3.170000</speed>
</trkpt>
<trkpt lat="32.868801117" lon="35.238925934">
  <ele>171.958252</ele>
  <time>2011-09-02T05:43:49Z</time>
  <speed>2.710000</speed>
</trkpt>
<trkpt lat="32.868793488" lon="35.238861084">
  <ele>171.747314</ele>
  <time>2011-09-02T05:43:51Z</time>
  <speed>2.970000</speed>
</trkpt>
<trkpt lat="32.868789673" lon="35.238819122">
  <ele>172.075439</ele>
  <time>2011-09-02T05:43:52Z</time>
  <speed>2.640000</speed>
</trkpt>
<trkpt lat="32.868785858" lon="35.238784790">
  <ele>172.497314</ele>
  <time>2011-09-02T05:43:53Z</time>
  <speed>2.800000</speed>
</trkpt>
<trkpt lat="32.868785858" lon="35.238750458">
  <ele>172.403564</ele>
  <time>2011-09-02T05:43:54Z</time>
  <speed>3.020000</speed>
</trkpt>
<trkpt lat="32.868782043" lon="35.238697052">
  <ele>173.091064</ele>
  <time>2011-09-02T05:43:56Z</time>
  <speed>2.560000</speed>
</trkpt>
<trkpt lat="32.868770599" lon="35.238624573">
  <ele>172.516846</ele>
  <time>2011-09-02T05:43:58Z</time>
  <speed>2.270000</speed>
</trkpt>
<trkpt lat="32.868766785" lon="35.238594055">
  <ele>172.622314</ele>
  <time>2011-09-02T05:43:59Z</time>
  <speed>2.210000</speed>
</trkpt>
<trkpt lat="32.868751526" lon="35.238540649">
  <ele>172.356689</ele>
  <time>2011-09-02T05:44:01Z</time>
  <speed>1.680000</speed>
</trkpt>
<trkpt lat="32.868747711" lon="35.238491058">
  <ele>172.466064</ele>
  <time>2011-09-02T05:44:03Z</time>
  <speed>2.220000</speed>
</trkpt>
<trkpt lat="32.868740082" lon="35.238426208">
  <ele>173.548096</ele>
  <time>2011-09-02T05:44:04Z</time>
  <speed>2.470000</speed>
</trkpt>
<trkpt lat="32.868743896" lon="35.238384247">
  <ele>174.134033</ele>
  <time>2011-09-02T05:44:05Z</time>
  <speed>2.450000</speed>
</trkpt>
<trkpt lat="32.868736267" lon="35.238349915">
  <ele>173.880127</ele>
  <time>2011-09-02T05:44:06Z</time>
  <speed>2.670000</speed>
</trkpt>
<trkpt lat="32.868717194" lon="35.238292694">
  <ele>173.942627</ele>
  <time>2011-09-02T05:44:08Z</time>
  <speed>2.600000</speed>
</trkpt>
<trkpt lat="32.868698120" lon="35.238269806">
  <ele>173.844971</ele>
  <time>2011-09-02T05:44:09Z</time>
  <speed>2.450000</speed>
</trkpt>
<trkpt lat="32.868682861" lon="35.238239288">
  <ele>173.458252</ele>
  <time>2011-09-02T05:44:10Z</time>
  <speed>2.760000</speed>
</trkpt>
<trkpt lat="32.868679047" lon="35.238201141">
  <ele>173.677002</ele>
  <time>2011-09-02T05:44:11Z</time>
  <speed>2.680000</speed>
</trkpt>
<trkpt lat="32.868663788" lon="35.238140106">
  <ele>173.626221</ele>
  <time>2011-09-02T05:44:13Z</time>
  <speed>2.790000</speed>
</trkpt>
<trkpt lat="32.868652344" lon="35.238105774">
  <ele>173.403564</ele>
  <time>2011-09-02T05:44:14Z</time>
  <speed>3.010000</speed>
</trkpt>
<trkpt lat="32.868640900" lon="35.238075256">
  <ele>173.188721</ele>
  <time>2011-09-02T05:44:15Z</time>
  <speed>2.770000</speed>
</trkpt>
<trkpt lat="32.868629456" lon="35.238033295">
  <ele>173.618408</ele>
  <time>2011-09-02T05:44:16Z</time>
  <speed>2.830000</speed>
</trkpt>
<trkpt lat="32.868614197" lon="35.237987518">
  <ele>172.958252</ele>
  <time>2011-09-02T05:44:18Z</time>
  <speed>1.490000</speed>
</trkpt>
<trkpt lat="32.868598938" lon="35.237953186">
  <ele>174.653564</ele>
  <time>2011-09-02T05:44:21Z</time>
  <speed>1.170000</speed>
</trkpt>
<trkpt lat="32.868579865" lon="35.237926483">
  <ele>176.302002</ele>
  <time>2011-09-02T05:44:23Z</time>
  <speed>1.490000</speed>
</trkpt>
<trkpt lat="32.868576050" lon="35.237873077">
  <ele>175.981689</ele>
  <time>2011-09-02T05:44:26Z</time>
  <speed>1.890000</speed>
</trkpt>
<trkpt lat="32.868560791" lon="35.237827301">
  <ele>176.071533</ele>
  <time>2011-09-02T05:44:28Z</time>
  <speed>1.910000</speed>
</trkpt>
<trkpt lat="32.868556976" lon="35.237789154">
  <ele>175.364502</ele>
  <time>2011-09-02T05:44:30Z</time>
  <speed>1.050000</speed>
</trkpt>
<trkpt lat="32.868545532" lon="35.237747192">
  <ele>175.145752</ele>
  <time>2011-09-02T05:44:32Z</time>
  <speed>1.610000</speed>
</trkpt>
<trkpt lat="32.868537903" lon="35.237712860">
  <ele>174.696533</ele>
  <time>2011-09-02T05:44:33Z</time>
  <speed>1.880000</speed>
</trkpt>
<trkpt lat="32.868526459" lon="35.237670898">
  <ele>173.821533</ele>
  <time>2011-09-02T05:44:35Z</time>
  <speed>1.530000</speed>
</trkpt>
<trkpt lat="32.868495941" lon="35.237617493">
  <ele>174.149658</ele>
  <time>2011-09-02T05:44:37Z</time>
  <speed>1.480000</speed>
</trkpt>
<trkpt lat="32.868503571" lon="35.237583160">
  <ele>173.969971</ele>
  <time>2011-09-02T05:44:39Z</time>
  <speed>0.870000</speed>
</trkpt>
<trkpt lat="32.868499756" lon="35.237525940">
  <ele>173.442627</ele>
  <time>2011-09-02T05:44:42Z</time>
  <speed>1.500000</speed>
</trkpt>
<trkpt lat="32.868488312" lon="35.237491608">
  <ele>173.755127</ele>
  <time>2011-09-02T05:44:44Z</time>
  <speed>1.540000</speed>
</trkpt>
<trkpt lat="32.868484497" lon="35.237453461">
  <ele>173.188721</ele>
  <time>2011-09-02T05:44:46Z</time>
  <speed>1.530000</speed>
</trkpt>
<trkpt lat="32.868484497" lon="35.237407684">
  <ele>172.860596</ele>
  <time>2011-09-02T05:44:48Z</time>
  <speed>1.570000</speed>
</trkpt>
<trkpt lat="32.868492126" lon="35.237365723">
  <ele>172.489502</ele>
  <time>2011-09-02T05:44:51Z</time>
  <speed>1.820000</speed>
</trkpt>
<trkpt lat="32.868495941" lon="35.237316132">
  <ele>174.477783</ele>
  <time>2011-09-02T05:44:52Z</time>
  <speed>1.690000</speed>
</trkpt>
<trkpt lat="32.868495941" lon="35.237281799">
  <ele>174.614502</ele>
  <time>2011-09-02T05:44:54Z</time>
  <speed>1.190000</speed>
</trkpt>
<trkpt lat="32.868499756" lon="35.237247467">
  <ele>174.911377</ele>
  <time>2011-09-02T05:44:56Z</time>
  <speed>1.670000</speed>
</trkpt>
<trkpt lat="32.868507385" lon="35.237194061">
  <ele>174.669189</ele>
  <time>2011-09-02T05:44:59Z</time>
  <speed>1.900000</speed>
</trkpt>
<trkpt lat="32.868507385" lon="35.237163544">
  <ele>174.407471</ele>
  <time>2011-09-02T05:45:01Z</time>
  <speed>1.550000</speed>
</trkpt>
<trkpt lat="32.868511200" lon="35.237098694">
  <ele>176.094971</ele>
  <time>2011-09-02T05:45:03Z</time>
  <speed>1.960000</speed>
</trkpt>
<trkpt lat="32.868511200" lon="35.237052917">
  <ele>177.001221</ele>
  <time>2011-09-02T05:45:04Z</time>
  <speed>2.380000</speed>
</trkpt>
<trkpt lat="32.868507385" lon="35.237022400">
  <ele>177.462158</ele>
  <time>2011-09-02T05:45:05Z</time>
  <speed>2.500000</speed>
</trkpt>
<trkpt lat="32.868503571" lon="35.236988068">
  <ele>178.180908</ele>
  <time>2011-09-02T05:45:06Z</time>
  <speed>2.670000</speed>
</trkpt>
<trkpt lat="32.868503571" lon="35.236953735">
  <ele>179.649658</ele>
  <time>2011-09-02T05:45:07Z</time>
  <speed>2.460000</speed>
</trkpt>
<trkpt lat="32.868492126" lon="35.236896515">
  <ele>180.282471</ele>
  <time>2011-09-02T05:45:09Z</time>
  <speed>2.920000</speed>
</trkpt>
<trkpt lat="32.868488312" lon="35.236862183">
  <ele>180.052002</ele>
  <time>2011-09-02T05:45:10Z</time>
  <speed>2.870000</speed>
</trkpt>
<trkpt lat="32.868476868" lon="35.236831665">
  <ele>180.231689</ele>
  <time>2011-09-02T05:45:11Z</time>
  <speed>2.710000</speed>
</trkpt>
<trkpt lat="32.868469238" lon="35.236797333">
  <ele>180.227783</ele>
  <time>2011-09-02T05:45:12Z</time>
  <speed>2.760000</speed>
</trkpt>
<trkpt lat="32.868457794" lon="35.236766815">
  <ele>180.571533</ele>
  <time>2011-09-02T05:45:13Z</time>
  <speed>2.820000</speed>
</trkpt>
<trkpt lat="32.868446350" lon="35.236736298">
  <ele>180.735596</ele>
  <time>2011-09-02T05:45:14Z</time>
  <speed>3.160000</speed>
</trkpt>
<trkpt lat="32.868434906" lon="35.236705780">
  <ele>180.778564</ele>
  <time>2011-09-02T05:45:15Z</time>
  <speed>2.780000</speed>
</trkpt>
<trkpt lat="32.868427277" lon="35.236675262">
  <ele>180.821533</ele>
  <time>2011-09-02T05:45:16Z</time>
  <speed>3.060000</speed>
</trkpt>
<trkpt lat="32.868419647" lon="35.236640930">
  <ele>180.837158</ele>
  <time>2011-09-02T05:45:17Z</time>
  <speed>3.070000</speed>
</trkpt>
<trkpt lat="32.868404388" lon="35.236606598">
  <ele>180.669189</ele>
  <time>2011-09-02T05:45:18Z</time>
  <speed>3.660000</speed>
</trkpt>
<trkpt lat="32.868396759" lon="35.236568451">
  <ele>180.786377</ele>
  <time>2011-09-02T05:45:19Z</time>
  <speed>3.520000</speed>
</trkpt>
<trkpt lat="32.868389130" lon="35.236530304">
  <ele>180.837158</ele>
  <time>2011-09-02T05:45:20Z</time>
  <speed>3.480000</speed>
</trkpt>
<trkpt lat="32.868377686" lon="35.236492157">
  <ele>180.719971</ele>
  <time>2011-09-02T05:45:21Z</time>
  <speed>3.530000</speed>
</trkpt>
<trkpt lat="32.868370056" lon="35.236454010">
  <ele>180.364502</ele>
  <time>2011-09-02T05:45:22Z</time>
  <speed>3.300000</speed>
</trkpt>
<trkpt lat="32.868354797" lon="35.236415863">
  <ele>180.344971</ele>
  <time>2011-09-02T05:45:23Z</time>
  <speed>3.370000</speed>
</trkpt>
<trkpt lat="32.868339539" lon="35.236381531">
  <ele>180.473877</ele>
  <time>2011-09-02T05:45:24Z</time>
  <speed>3.520000</speed>
</trkpt>
<trkpt lat="32.868324280" lon="35.236347198">
  <ele>180.739502</ele>
  <time>2011-09-02T05:45:25Z</time>
  <speed>3.630000</speed>
</trkpt>
<trkpt lat="32.868316650" lon="35.236309052">
  <ele>181.036377</ele>
  <time>2011-09-02T05:45:26Z</time>
  <speed>3.310000</speed>
</trkpt>
<trkpt lat="32.868301392" lon="35.236274719">
  <ele>181.438721</ele>
  <time>2011-09-02T05:45:27Z</time>
  <speed>3.310000</speed>
</trkpt>
<trkpt lat="32.868289948" lon="35.236240387">
  <ele>181.192627</ele>
  <time>2011-09-02T05:45:28Z</time>
  <speed>3.610000</speed>
</trkpt>
<trkpt lat="32.868289948" lon="35.236183167">
  <ele>181.219971</ele>
  <time>2011-09-02T05:45:29Z</time>
  <speed>3.270000</speed>
</trkpt>
<trkpt lat="32.868278503" lon="35.236137390">
  <ele>182.286377</ele>
  <time>2011-09-02T05:45:30Z</time>
  <speed>3.170000</speed>
</trkpt>
<trkpt lat="32.868259430" lon="35.236103058">
  <ele>183.020752</ele>
  <time>2011-09-02T05:45:31Z</time>
  <speed>3.150000</speed>
</trkpt>
<trkpt lat="32.868247986" lon="35.236068726">
  <ele>183.286377</ele>
  <time>2011-09-02T05:45:32Z</time>
  <speed>3.290000</speed>
</trkpt>
<trkpt lat="32.868240356" lon="35.236030579">
  <ele>183.977783</ele>
  <time>2011-09-02T05:45:33Z</time>
  <speed>3.370000</speed>
</trkpt>
<trkpt lat="32.868232727" lon="35.235992432">
  <ele>184.223877</ele>
  <time>2011-09-02T05:45:34Z</time>
  <speed>3.050000</speed>
</trkpt>
<trkpt lat="32.868221283" lon="35.235958099">
  <ele>184.192627</ele>
  <time>2011-09-02T05:45:35Z</time>
  <speed>3.300000</speed>
</trkpt>
<trkpt lat="32.868209839" lon="35.235923767">
  <ele>184.594971</ele>
  <time>2011-09-02T05:45:36Z</time>
  <speed>3.270000</speed>
</trkpt>
<trkpt lat="32.868194580" lon="35.235893250">
  <ele>184.325439</ele>
  <time>2011-09-02T05:45:37Z</time>
  <speed>3.270000</speed>
</trkpt>
<trkpt lat="32.868179321" lon="35.235866547">
  <ele>184.622314</ele>
  <time>2011-09-02T05:45:38Z</time>
  <speed>3.290000</speed>
</trkpt>
<trkpt lat="32.868167877" lon="35.235836029">
  <ele>184.571533</ele>
  <time>2011-09-02T05:45:39Z</time>
  <speed>3.420000</speed>
</trkpt>
<trkpt lat="32.868152618" lon="35.235801697">
  <ele>184.786377</ele>
  <time>2011-09-02T05:45:40Z</time>
  <speed>3.240000</speed>
</trkpt>
<trkpt lat="32.868141174" lon="35.235767365">
  <ele>184.860596</ele>
  <time>2011-09-02T05:45:41Z</time>
  <speed>3.320000</speed>
</trkpt>
<trkpt lat="32.868110657" lon="35.235717773">
  <ele>185.282471</ele>
  <time>2011-09-02T05:45:43Z</time>
  <speed>3.230000</speed>
</trkpt>
<trkpt lat="32.868087769" lon="35.235694885">
  <ele>186.094971</ele>
  <time>2011-09-02T05:45:44Z</time>
  <speed>3.390000</speed>
</trkpt>
<trkpt lat="32.868068695" lon="35.235671997">
  <ele>185.911377</ele>
  <time>2011-09-02T05:45:45Z</time>
  <speed>3.270000</speed>
</trkpt>
<trkpt lat="32.868038177" lon="35.235652924">
  <ele>185.622314</ele>
  <time>2011-09-02T05:45:46Z</time>
  <speed>3.200000</speed>
</trkpt>
<trkpt lat="32.867996216" lon="35.235626221">
  <ele>186.200439</ele>
  <time>2011-09-02T05:45:48Z</time>
  <speed>3.150000</speed>
</trkpt>
<trkpt lat="32.867969513" lon="35.235610962">
  <ele>186.376221</ele>
  <time>2011-09-02T05:45:49Z</time>
  <speed>3.260000</speed>
</trkpt>
<trkpt lat="32.867916107" lon="35.235588074">
  <ele>187.048096</ele>
  <time>2011-09-02T05:45:51Z</time>
  <speed>3.280000</speed>
</trkpt>
<trkpt lat="32.867889404" lon="35.235572815">
  <ele>187.821533</ele>
  <time>2011-09-02T05:45:52Z</time>
  <speed>3.300000</speed>
</trkpt>
<trkpt lat="32.867858887" lon="35.235557556">
  <ele>188.063721</ele>
  <time>2011-09-02T05:45:53Z</time>
  <speed>3.350000</speed>
</trkpt>
<trkpt lat="32.867828369" lon="35.235542297">
  <ele>188.368408</ele>
  <time>2011-09-02T05:45:54Z</time>
  <speed>3.250000</speed>
</trkpt>
<trkpt lat="32.867797852" lon="35.235530853">
  <ele>188.981689</ele>
  <time>2011-09-02T05:45:55Z</time>
  <speed>3.130000</speed>
</trkpt>
<trkpt lat="32.867767334" lon="35.235519409">
  <ele>189.677002</ele>
  <time>2011-09-02T05:45:56Z</time>
  <speed>3.240000</speed>
</trkpt>
<trkpt lat="32.867736816" lon="35.235511780">
  <ele>190.048096</ele>
  <time>2011-09-02T05:45:57Z</time>
  <speed>3.370000</speed>
</trkpt>
<trkpt lat="32.867710114" lon="35.235500336">
  <ele>190.235596</ele>
  <time>2011-09-02T05:45:58Z</time>
  <speed>3.150000</speed>
</trkpt>
<trkpt lat="32.867679596" lon="35.235485077">
  <ele>190.641846</ele>
  <time>2011-09-02T05:45:59Z</time>
  <speed>3.190000</speed>
</trkpt>
<trkpt lat="32.867652893" lon="35.235473633">
  <ele>190.712158</ele>
  <time>2011-09-02T05:46:00Z</time>
  <speed>3.190000</speed>
</trkpt>
<trkpt lat="32.867618561" lon="35.235466003">
  <ele>192.145752</ele>
  <time>2011-09-02T05:46:01Z</time>
  <speed>3.290000</speed>
</trkpt>
<trkpt lat="32.867588043" lon="35.235454559">
  <ele>192.567627</ele>
  <time>2011-09-02T05:46:02Z</time>
  <speed>3.250000</speed>
</trkpt>
<trkpt lat="32.867561340" lon="35.235435486">
  <ele>192.290283</ele>
  <time>2011-09-02T05:46:03Z</time>
  <speed>3.140000</speed>
</trkpt>
<trkpt lat="32.867534637" lon="35.235420227">
  <ele>192.653564</ele>
  <time>2011-09-02T05:46:04Z</time>
  <speed>3.270000</speed>
</trkpt>
<trkpt lat="32.867504120" lon="35.235404968">
  <ele>193.368408</ele>
  <time>2011-09-02T05:46:05Z</time>
  <speed>3.280000</speed>
</trkpt>
<trkpt lat="32.867477417" lon="35.235389709">
  <ele>193.817627</ele>
  <time>2011-09-02T05:46:06Z</time>
  <speed>3.290000</speed>
</trkpt>
<trkpt lat="32.867450714" lon="35.235366821">
  <ele>194.204346</ele>
  <time>2011-09-02T05:46:07Z</time>
  <speed>3.450000</speed>
</trkpt>
<trkpt lat="32.867427826" lon="35.235343933">
  <ele>194.059814</ele>
  <time>2011-09-02T05:46:08Z</time>
  <speed>3.470000</speed>
</trkpt>
<trkpt lat="32.867401123" lon="35.235324860">
  <ele>194.415283</ele>
  <time>2011-09-02T05:46:09Z</time>
  <speed>3.440000</speed>
</trkpt>
<trkpt lat="32.867378235" lon="35.235301971">
  <ele>194.302002</ele>
  <time>2011-09-02T05:46:10Z</time>
  <speed>3.290000</speed>
</trkpt>
<trkpt lat="32.867336273" lon="35.235260010">
  <ele>194.192627</ele>
  <time>2011-09-02T05:46:12Z</time>
  <speed>3.560000</speed>
</trkpt>
<trkpt lat="32.867313385" lon="35.235233307">
  <ele>194.555908</ele>
  <time>2011-09-02T05:46:13Z</time>
  <speed>3.270000</speed>
</trkpt>
<trkpt lat="32.867301941" lon="35.235202789">
  <ele>193.153564</ele>
  <time>2011-09-02T05:46:14Z</time>
  <speed>3.060000</speed>
</trkpt>
<trkpt lat="32.867279053" lon="35.235176086">
  <ele>193.399658</ele>
  <time>2011-09-02T05:46:15Z</time>
  <speed>3.380000</speed>
</trkpt>
<trkpt lat="32.867259979" lon="35.235153198">
  <ele>192.704346</ele>
  <time>2011-09-02T05:46:16Z</time>
  <speed>3.180000</speed>
</trkpt>
<trkpt lat="32.867218018" lon="35.235103607">
  <ele>193.114502</ele>
  <time>2011-09-02T05:46:18Z</time>
  <speed>3.290000</speed>
</trkpt>
<trkpt lat="32.867195129" lon="35.235076904">
  <ele>193.489502</ele>
  <time>2011-09-02T05:46:19Z</time>
  <speed>3.130000</speed>
</trkpt>
<trkpt lat="32.867176056" lon="35.235057831">
  <ele>193.997314</ele>
  <time>2011-09-02T05:46:20Z</time>
  <speed>3.170000</speed>
</trkpt>
<trkpt lat="32.867153168" lon="35.235042572">
  <ele>194.563721</ele>
  <time>2011-09-02T05:46:21Z</time>
  <speed>3.150000</speed>
</trkpt>
<trkpt lat="32.867130280" lon="35.235023499">
  <ele>195.196533</ele>
  <time>2011-09-02T05:46:22Z</time>
  <speed>3.070000</speed>
</trkpt>
<trkpt lat="32.867080688" lon="35.234992981">
  <ele>196.204346</ele>
  <time>2011-09-02T05:46:24Z</time>
  <speed>3.170000</speed>
</trkpt>
<trkpt lat="32.867053986" lon="35.234985352">
  <ele>197.302002</ele>
  <time>2011-09-02T05:46:25Z</time>
  <speed>3.160000</speed>
</trkpt>
<trkpt lat="32.866996765" lon="35.234973907">
  <ele>197.344971</ele>
  <time>2011-09-02T05:46:27Z</time>
  <speed>3.390000</speed>
</trkpt>
<trkpt lat="32.866958618" lon="35.234973907">
  <ele>199.243408</ele>
  <time>2011-09-02T05:46:28Z</time>
  <speed>3.230000</speed>
</trkpt>
<trkpt lat="32.866928101" lon="35.234970093">
  <ele>199.610596</ele>
  <time>2011-09-02T05:46:29Z</time>
  <speed>3.270000</speed>
</trkpt>
<trkpt lat="32.866897583" lon="35.234962463">
  <ele>200.079346</ele>
  <time>2011-09-02T05:46:30Z</time>
  <speed>3.260000</speed>
</trkpt>
<trkpt lat="32.866867065" lon="35.234958649">
  <ele>200.864502</ele>
  <time>2011-09-02T05:46:31Z</time>
  <speed>3.260000</speed>
</trkpt>
<trkpt lat="32.866836548" lon="35.234966278">
  <ele>200.915283</ele>
  <time>2011-09-02T05:46:32Z</time>
  <speed>3.130000</speed>
</trkpt>
<trkpt lat="32.866806030" lon="35.234966278">
  <ele>201.661377</ele>
  <time>2011-09-02T05:46:33Z</time>
  <speed>3.130000</speed>
</trkpt>
<trkpt lat="32.866779327" lon="35.234966278">
  <ele>202.442627</ele>
  <time>2011-09-02T05:46:34Z</time>
  <speed>3.200000</speed>
</trkpt>
<trkpt lat="32.866748810" lon="35.234973907">
  <ele>202.567627</ele>
  <time>2011-09-02T05:46:35Z</time>
  <speed>3.190000</speed>
</trkpt>
<trkpt lat="32.866722107" lon="35.234977722">
  <ele>203.091064</ele>
  <time>2011-09-02T05:46:36Z</time>
  <speed>3.010000</speed>
</trkpt>
<trkpt lat="32.866691589" lon="35.234985352">
  <ele>203.341064</ele>
  <time>2011-09-02T05:46:37Z</time>
  <speed>3.170000</speed>
</trkpt>
<trkpt lat="32.866638184" lon="35.235000610">
  <ele>203.602783</ele>
  <time>2011-09-02T05:46:39Z</time>
  <speed>3.240000</speed>
</trkpt>
<trkpt lat="32.866611481" lon="35.235008240">
  <ele>203.911377</ele>
  <time>2011-09-02T05:46:40Z</time>
  <speed>3.290000</speed>
</trkpt>
<trkpt lat="32.866577148" lon="35.235015869">
  <ele>204.696533</ele>
  <time>2011-09-02T05:46:41Z</time>
  <speed>3.360000</speed>
</trkpt>
<trkpt lat="32.866523743" lon="35.235019684">
  <ele>205.274658</ele>
  <time>2011-09-02T05:46:43Z</time>
  <speed>3.230000</speed>
</trkpt>
<trkpt lat="32.866493225" lon="35.235027313">
  <ele>205.161377</ele>
  <time>2011-09-02T05:46:44Z</time>
  <speed>3.330000</speed>
</trkpt>
<trkpt lat="32.866466522" lon="35.235027313">
  <ele>205.759033</ele>
  <time>2011-09-02T05:46:45Z</time>
  <speed>3.350000</speed>
</trkpt>
<trkpt lat="32.866439819" lon="35.235034943">
  <ele>206.024658</ele>
  <time>2011-09-02T05:46:46Z</time>
  <speed>3.060000</speed>
</trkpt>
<trkpt lat="32.866413116" lon="35.235050201">
  <ele>205.622314</ele>
  <time>2011-09-02T05:46:47Z</time>
  <speed>3.290000</speed>
</trkpt>
<trkpt lat="32.866386414" lon="35.235050201">
  <ele>206.262939</ele>
  <time>2011-09-02T05:46:48Z</time>
  <speed>3.300000</speed>
</trkpt>
<trkpt lat="32.866355896" lon="35.235057831">
  <ele>207.016846</ele>
  <time>2011-09-02T05:46:49Z</time>
  <speed>2.990000</speed>
</trkpt>
<trkpt lat="32.866325378" lon="35.235057831">
  <ele>207.274658</ele>
  <time>2011-09-02T05:46:50Z</time>
  <speed>3.040000</speed>
</trkpt>
<trkpt lat="32.866275787" lon="35.235073090">
  <ele>207.450439</ele>
  <time>2011-09-02T05:46:52Z</time>
  <speed>2.990000</speed>
</trkpt>
<trkpt lat="32.866226196" lon="35.235088348">
  <ele>208.559814</ele>
  <time>2011-09-02T05:46:54Z</time>
  <speed>2.770000</speed>
</trkpt>
<trkpt lat="32.866184235" lon="35.235092163">
  <ele>208.688721</ele>
  <time>2011-09-02T05:46:56Z</time>
  <speed>2.520000</speed>
</trkpt>
<trkpt lat="32.866130829" lon="35.235099792">
  <ele>208.708252</ele>
  <time>2011-09-02T05:46:58Z</time>
  <speed>3.050000</speed>
</trkpt>
<trkpt lat="32.866081238" lon="35.235103607">
  <ele>209.571533</ele>
  <time>2011-09-02T05:47:00Z</time>
  <speed>3.000000</speed>
</trkpt>
<trkpt lat="32.866031647" lon="35.235126495">
  <ele>209.387939</ele>
  <time>2011-09-02T05:47:02Z</time>
  <speed>2.790000</speed>
</trkpt>
<trkpt lat="32.865985870" lon="35.235153198">
  <ele>209.282471</ele>
  <time>2011-09-02T05:47:04Z</time>
  <speed>2.820000</speed>
</trkpt>
<trkpt lat="32.865959167" lon="35.235164642">
  <ele>209.692627</ele>
  <time>2011-09-02T05:47:05Z</time>
  <speed>3.050000</speed>
</trkpt>
<trkpt lat="32.865936279" lon="35.235183716">
  <ele>209.626221</ele>
  <time>2011-09-02T05:47:06Z</time>
  <speed>2.850000</speed>
</trkpt>
<trkpt lat="32.865909576" lon="35.235195160">
  <ele>209.688721</ele>
  <time>2011-09-02T05:47:07Z</time>
  <speed>2.810000</speed>
</trkpt>
<trkpt lat="32.865882874" lon="35.235210419">
  <ele>209.993408</ele>
  <time>2011-09-02T05:47:08Z</time>
  <speed>2.740000</speed>
</trkpt>
<trkpt lat="32.865856171" lon="35.235221863">
  <ele>210.309814</ele>
  <time>2011-09-02T05:47:09Z</time>
  <speed>2.930000</speed>
</trkpt>
<trkpt lat="32.865833282" lon="35.235237122">
  <ele>210.563721</ele>
  <time>2011-09-02T05:47:10Z</time>
  <speed>3.030000</speed>
</trkpt>
<trkpt lat="32.865810394" lon="35.235256195">
  <ele>210.770752</ele>
  <time>2011-09-02T05:47:11Z</time>
  <speed>2.900000</speed>
</trkpt>
<trkpt lat="32.865787506" lon="35.235282898">
  <ele>210.716064</ele>
  <time>2011-09-02T05:47:12Z</time>
  <speed>2.960000</speed>
</trkpt>
<trkpt lat="32.865764618" lon="35.235305786">
  <ele>211.274658</ele>
  <time>2011-09-02T05:47:13Z</time>
  <speed>2.890000</speed>
</trkpt>
<trkpt lat="32.865737915" lon="35.235324860">
  <ele>211.778564</ele>
  <time>2011-09-02T05:47:14Z</time>
  <speed>2.950000</speed>
</trkpt>
<trkpt lat="32.865715027" lon="35.235351563">
  <ele>211.794189</ele>
  <time>2011-09-02T05:47:15Z</time>
  <speed>3.040000</speed>
</trkpt>
<trkpt lat="32.865692139" lon="35.235370636">
  <ele>212.872314</ele>
  <time>2011-09-02T05:47:16Z</time>
  <speed>2.980000</speed>
</trkpt>
<trkpt lat="32.865673065" lon="35.235397339">
  <ele>213.575439</ele>
  <time>2011-09-02T05:47:17Z</time>
  <speed>3.070000</speed>
</trkpt>
<trkpt lat="32.865653992" lon="35.235431671">
  <ele>211.341064</ele>
  <time>2011-09-02T05:47:19Z</time>
  <speed>3.100000</speed>
</trkpt>
<trkpt lat="32.865634918" lon="35.235458374">
  <ele>211.399658</ele>
  <time>2011-09-02T05:47:20Z</time>
  <speed>3.020000</speed>
</trkpt>
<trkpt lat="32.865612030" lon="35.235488892">
  <ele>212.055908</ele>
  <time>2011-09-02T05:47:21Z</time>
  <speed>3.180000</speed>
</trkpt>
<trkpt lat="32.865596771" lon="35.235523224">
  <ele>212.548096</ele>
  <time>2011-09-02T05:47:22Z</time>
  <speed>3.010000</speed>
</trkpt>
<trkpt lat="32.865585327" lon="35.235553741">
  <ele>213.106689</ele>
  <time>2011-09-02T05:47:23Z</time>
  <speed>3.040000</speed>
</trkpt>
<trkpt lat="32.865573883" lon="35.235595703">
  <ele>211.614502</ele>
  <time>2011-09-02T05:47:24Z</time>
  <speed>3.280000</speed>
</trkpt>
<trkpt lat="32.865562439" lon="35.235630035">
  <ele>211.794189</ele>
  <time>2011-09-02T05:47:25Z</time>
  <speed>3.030000</speed>
</trkpt>
<trkpt lat="32.865554810" lon="35.235664368">
  <ele>211.708252</ele>
  <time>2011-09-02T05:47:26Z</time>
  <speed>3.190000</speed>
</trkpt>
<trkpt lat="32.865543365" lon="35.235702515">
  <ele>211.344971</ele>
  <time>2011-09-02T05:47:27Z</time>
  <speed>3.060000</speed>
</trkpt>
<trkpt lat="32.865539551" lon="35.235748291">
  <ele>211.188721</ele>
  <time>2011-09-02T05:47:28Z</time>
  <speed>3.010000</speed>
</trkpt>
<trkpt lat="32.865531921" lon="35.235786438">
  <ele>210.755127</ele>
  <time>2011-09-02T05:47:29Z</time>
  <speed>3.240000</speed>
</trkpt>
<trkpt lat="32.865520477" lon="35.235820770">
  <ele>210.774658</ele>
  <time>2011-09-02T05:47:30Z</time>
  <speed>3.210000</speed>
</trkpt>
<trkpt lat="32.865512848" lon="35.235851288">
  <ele>210.407471</ele>
  <time>2011-09-02T05:47:31Z</time>
  <speed>3.150000</speed>
</trkpt>
<trkpt lat="32.865501404" lon="35.235919952">
  <ele>211.555908</ele>
  <time>2011-09-02T05:47:33Z</time>
  <speed>3.140000</speed>
</trkpt>
<trkpt lat="32.865501404" lon="35.235954285">
  <ele>211.868408</ele>
  <time>2011-09-02T05:47:34Z</time>
  <speed>2.970000</speed>
</trkpt>
<trkpt lat="32.865501404" lon="35.235988617">
  <ele>212.036377</ele>
  <time>2011-09-02T05:47:35Z</time>
  <speed>3.130000</speed>
</trkpt>
<trkpt lat="32.865493774" lon="35.236022949">
  <ele>211.993408</ele>
  <time>2011-09-02T05:47:36Z</time>
  <speed>3.150000</speed>
</trkpt>
<trkpt lat="32.865486145" lon="35.236057281">
  <ele>212.134033</ele>
  <time>2011-09-02T05:47:37Z</time>
  <speed>3.220000</speed>
</trkpt>
<trkpt lat="32.865482330" lon="35.236099243">
  <ele>212.848877</ele>
  <time>2011-09-02T05:47:38Z</time>
  <speed>3.260000</speed>
</trkpt>
<trkpt lat="32.865478516" lon="35.236137390">
  <ele>212.649658</ele>
  <time>2011-09-02T05:47:39Z</time>
  <speed>3.320000</speed>
</trkpt>
<trkpt lat="32.865470886" lon="35.236167908">
  <ele>212.856689</ele>
  <time>2011-09-02T05:47:40Z</time>
  <speed>3.350000</speed>
</trkpt>
<trkpt lat="32.865459442" lon="35.236206055">
  <ele>213.239502</ele>
  <time>2011-09-02T05:47:41Z</time>
  <speed>3.330000</speed>
</trkpt>
<trkpt lat="32.865451813" lon="35.236236572">
  <ele>212.923096</ele>
  <time>2011-09-02T05:47:42Z</time>
  <speed>3.190000</speed>
</trkpt>
<trkpt lat="32.865444183" lon="35.236270905">
  <ele>213.559814</ele>
  <time>2011-09-02T05:47:43Z</time>
  <speed>3.430000</speed>
</trkpt>
<trkpt lat="32.865440369" lon="35.236309052">
  <ele>213.969971</ele>
  <time>2011-09-02T05:47:44Z</time>
  <speed>3.330000</speed>
</trkpt>
<trkpt lat="32.865436554" lon="35.236351013">
  <ele>214.688721</ele>
  <time>2011-09-02T05:47:45Z</time>
  <speed>3.390000</speed>
</trkpt>
<trkpt lat="32.865428925" lon="35.236385345">
  <ele>215.001221</ele>
  <time>2011-09-02T05:47:46Z</time>
  <speed>3.480000</speed>
</trkpt>
<trkpt lat="32.865421295" lon="35.236423492">
  <ele>215.348877</ele>
  <time>2011-09-02T05:47:47Z</time>
  <speed>3.340000</speed>
</trkpt>
<trkpt lat="32.865417480" lon="35.236461639">
  <ele>215.356689</ele>
  <time>2011-09-02T05:47:48Z</time>
  <speed>3.220000</speed>
</trkpt>
<trkpt lat="32.865409851" lon="35.236495972">
  <ele>215.012939</ele>
  <time>2011-09-02T05:47:49Z</time>
  <speed>3.210000</speed>
</trkpt>
<trkpt lat="32.865402222" lon="35.236530304">
  <ele>215.325439</ele>
  <time>2011-09-02T05:47:50Z</time>
  <speed>3.420000</speed>
</trkpt>
<trkpt lat="32.865398407" lon="35.236568451">
  <ele>215.677002</ele>
  <time>2011-09-02T05:47:51Z</time>
  <speed>3.520000</speed>
</trkpt>
<trkpt lat="32.865390778" lon="35.236614227">
  <ele>215.993408</ele>
  <time>2011-09-02T05:47:52Z</time>
  <speed>3.290000</speed>
</trkpt>
<trkpt lat="32.865379333" lon="35.236648560">
  <ele>216.700439</ele>
  <time>2011-09-02T05:47:53Z</time>
  <speed>3.460000</speed>
</trkpt>
<trkpt lat="32.865371704" lon="35.236682892">
  <ele>216.716064</ele>
  <time>2011-09-02T05:47:54Z</time>
  <speed>3.280000</speed>
</trkpt>
<trkpt lat="32.865352631" lon="35.236747742">
  <ele>216.344971</ele>
  <time>2011-09-02T05:47:56Z</time>
  <speed>3.260000</speed>
</trkpt>
<trkpt lat="32.865341187" lon="35.236782074">
  <ele>216.622314</ele>
  <time>2011-09-02T05:47:57Z</time>
  <speed>3.210000</speed>
</trkpt>
<trkpt lat="32.865322113" lon="35.236846924">
  <ele>216.977783</ele>
  <time>2011-09-02T05:47:59Z</time>
  <speed>3.390000</speed>
</trkpt>
<trkpt lat="32.865314484" lon="35.236877441">
  <ele>217.594971</ele>
  <time>2011-09-02T05:48:00Z</time>
  <speed>3.490000</speed>
</trkpt>
<trkpt lat="32.865303040" lon="35.236911774">
  <ele>217.868408</ele>
  <time>2011-09-02T05:48:01Z</time>
  <speed>3.570000</speed>
</trkpt>
<trkpt lat="32.865299225" lon="35.236953735">
  <ele>217.403564</ele>
  <time>2011-09-02T05:48:02Z</time>
  <speed>3.300000</speed>
</trkpt>
<trkpt lat="32.865280151" lon="35.236988068">
  <ele>217.782471</ele>
  <time>2011-09-02T05:48:03Z</time>
  <speed>3.140000</speed>
</trkpt>
<trkpt lat="32.865264893" lon="35.237018585">
  <ele>217.552002</ele>
  <time>2011-09-02T05:48:04Z</time>
  <speed>3.180000</speed>
</trkpt>
<trkpt lat="32.865242004" lon="35.237071991">
  <ele>216.841064</ele>
  <time>2011-09-02T05:48:06Z</time>
  <speed>3.070000</speed>
</trkpt>
<trkpt lat="32.865226746" lon="35.237102509">
  <ele>216.786377</ele>
  <time>2011-09-02T05:48:07Z</time>
  <speed>3.210000</speed>
</trkpt>
<trkpt lat="32.865207672" lon="35.237136841">
  <ele>216.848877</ele>
  <time>2011-09-02T05:48:08Z</time>
  <speed>3.180000</speed>
</trkpt>
<trkpt lat="32.865188599" lon="35.237163544">
  <ele>217.094971</ele>
  <time>2011-09-02T05:48:09Z</time>
  <speed>3.200000</speed>
</trkpt>
<trkpt lat="32.865169525" lon="35.237194061">
  <ele>217.106689</ele>
  <time>2011-09-02T05:48:10Z</time>
  <speed>3.070000</speed>
</trkpt>
<trkpt lat="32.865154266" lon="35.237220764">
  <ele>217.036377</ele>
  <time>2011-09-02T05:48:11Z</time>
  <speed>3.260000</speed>
</trkpt>
<trkpt lat="32.865135193" lon="35.237262726">
  <ele>217.509033</ele>
  <time>2011-09-02T05:48:12Z</time>
  <speed>3.320000</speed>
</trkpt>
<trkpt lat="32.865119934" lon="35.237293243">
  <ele>218.122314</ele>
  <time>2011-09-02T05:48:13Z</time>
  <speed>3.450000</speed>
</trkpt>
<trkpt lat="32.865104675" lon="35.237319946">
  <ele>218.477783</ele>
  <time>2011-09-02T05:48:14Z</time>
  <speed>3.130000</speed>
</trkpt>
<trkpt lat="32.865062714" lon="35.237350464">
  <ele>217.927002</ele>
  <time>2011-09-02T05:48:16Z</time>
  <speed>3.300000</speed>
</trkpt>
<trkpt lat="32.865036011" lon="35.237373352">
  <ele>218.372314</ele>
  <time>2011-09-02T05:48:17Z</time>
  <speed>3.070000</speed>
</trkpt>
<trkpt lat="32.865013123" lon="35.237396240">
  <ele>218.454346</ele>
  <time>2011-09-02T05:48:18Z</time>
  <speed>3.180000</speed>
</trkpt>
<trkpt lat="32.864990234" lon="35.237422943">
  <ele>218.505127</ele>
  <time>2011-09-02T05:48:19Z</time>
  <speed>3.230000</speed>
</trkpt>
<trkpt lat="32.864971161" lon="35.237449646">
  <ele>218.262939</ele>
  <time>2011-09-02T05:48:20Z</time>
  <speed>3.070000</speed>
</trkpt>
<trkpt lat="32.864952087" lon="35.237491608">
  <ele>218.969971</ele>
  <time>2011-09-02T05:48:21Z</time>
  <speed>3.050000</speed>
</trkpt>
<trkpt lat="32.864925385" lon="35.237514496">
  <ele>218.938721</ele>
  <time>2011-09-02T05:48:22Z</time>
  <speed>3.240000</speed>
</trkpt>
<trkpt lat="32.864910126" lon="35.237537384">
  <ele>218.341064</ele>
  <time>2011-09-02T05:48:23Z</time>
  <speed>3.320000</speed>
</trkpt>
<trkpt lat="32.864871979" lon="35.237586975">
  <ele>218.137939</ele>
  <time>2011-09-02T05:48:25Z</time>
  <speed>3.280000</speed>
</trkpt>
<trkpt lat="32.864856720" lon="35.237613678">
  <ele>219.114502</ele>
  <time>2011-09-02T05:48:26Z</time>
  <speed>3.130000</speed>
</trkpt>
<trkpt lat="32.864837646" lon="35.237640381">
  <ele>219.278564</ele>
  <time>2011-09-02T05:48:27Z</time>
  <speed>3.240000</speed>
</trkpt>
<trkpt lat="32.864822388" lon="35.237667084">
  <ele>219.669189</ele>
  <time>2011-09-02T05:48:28Z</time>
  <speed>3.190000</speed>
</trkpt>
<trkpt lat="32.864807129" lon="35.237693787">
  <ele>219.180908</ele>
  <time>2011-09-02T05:48:29Z</time>
  <speed>3.180000</speed>
</trkpt>
<trkpt lat="32.864780426" lon="35.237751007">
  <ele>218.243408</ele>
  <time>2011-09-02T05:48:31Z</time>
  <speed>3.290000</speed>
</trkpt>
<trkpt lat="32.864742279" lon="35.237796783">
  <ele>218.602783</ele>
  <time>2011-09-02T05:48:33Z</time>
  <speed>3.410000</speed>
</trkpt>
<trkpt lat="32.864727020" lon="35.237823486">
  <ele>218.157471</ele>
  <time>2011-09-02T05:48:34Z</time>
  <speed>3.340000</speed>
</trkpt>
<trkpt lat="32.864711761" lon="35.237854004">
  <ele>218.536377</ele>
  <time>2011-09-02T05:48:35Z</time>
  <speed>3.540000</speed>
</trkpt>
<trkpt lat="32.864692688" lon="35.237888336">
  <ele>219.044189</ele>
  <time>2011-09-02T05:48:36Z</time>
  <speed>3.580000</speed>
</trkpt>
<trkpt lat="32.864669800" lon="35.237922668">
  <ele>219.598877</ele>
  <time>2011-09-02T05:48:37Z</time>
  <speed>3.440000</speed>
</trkpt>
<trkpt lat="32.864650726" lon="35.237949371">
  <ele>219.927002</ele>
  <time>2011-09-02T05:48:38Z</time>
  <speed>3.140000</speed>
</trkpt>
<trkpt lat="32.864639282" lon="35.237983704">
  <ele>220.907471</ele>
  <time>2011-09-02T05:48:39Z</time>
  <speed>3.270000</speed>
</trkpt>
<trkpt lat="32.864627838" lon="35.238025665">
  <ele>221.743408</ele>
  <time>2011-09-02T05:48:40Z</time>
  <speed>3.210000</speed>
</trkpt>
<trkpt lat="32.864616394" lon="35.238067627">
  <ele>221.907471</ele>
  <time>2011-09-02T05:48:41Z</time>
  <speed>3.440000</speed>
</trkpt>
<trkpt lat="32.864608765" lon="35.238098145">
  <ele>221.887939</ele>
  <time>2011-09-02T05:48:42Z</time>
  <speed>3.520000</speed>
</trkpt>
<trkpt lat="32.864597321" lon="35.238143921">
  <ele>222.423096</ele>
  <time>2011-09-02T05:48:43Z</time>
  <speed>3.220000</speed>
</trkpt>
<trkpt lat="32.864589691" lon="35.238178253">
  <ele>222.559814</ele>
  <time>2011-09-02T05:48:44Z</time>
  <speed>3.140000</speed>
</trkpt>
<trkpt lat="32.864582062" lon="35.238212585">
  <ele>222.622314</ele>
  <time>2011-09-02T05:48:45Z</time>
  <speed>3.160000</speed>
</trkpt>
<trkpt lat="32.864570618" lon="35.238281250">
  <ele>223.290283</ele>
  <time>2011-09-02T05:48:47Z</time>
  <speed>3.290000</speed>
</trkpt>
<trkpt lat="32.864562988" lon="35.238323212">
  <ele>224.016846</ele>
  <time>2011-09-02T05:48:48Z</time>
  <speed>3.120000</speed>
</trkpt>
<trkpt lat="32.864555359" lon="35.238361359">
  <ele>224.032471</ele>
  <time>2011-09-02T05:48:49Z</time>
  <speed>3.330000</speed>
</trkpt>
<trkpt lat="32.864540100" lon="35.238391876">
  <ele>224.387939</ele>
  <time>2011-09-02T05:48:50Z</time>
  <speed>3.090000</speed>
</trkpt>
<trkpt lat="32.864528656" lon="35.238426208">
  <ele>223.649658</ele>
  <time>2011-09-02T05:48:51Z</time>
  <speed>3.270000</speed>
</trkpt>
<trkpt lat="32.864521027" lon="35.238460541">
  <ele>223.012939</ele>
  <time>2011-09-02T05:48:52Z</time>
  <speed>3.290000</speed>
</trkpt>
<trkpt lat="32.864513397" lon="35.238494873">
  <ele>222.278564</ele>
  <time>2011-09-02T05:48:53Z</time>
  <speed>3.350000</speed>
</trkpt>
<trkpt lat="32.864509583" lon="35.238529205">
  <ele>221.481689</ele>
  <time>2011-09-02T05:48:54Z</time>
  <speed>3.070000</speed>
</trkpt>
<trkpt lat="32.864509583" lon="35.238563538">
  <ele>221.977783</ele>
  <time>2011-09-02T05:48:55Z</time>
  <speed>3.180000</speed>
</trkpt>
<trkpt lat="32.864505768" lon="35.238597870">
  <ele>222.747314</ele>
  <time>2011-09-02T05:48:56Z</time>
  <speed>2.730000</speed>
</trkpt>
<trkpt lat="32.864498138" lon="35.238662720">
  <ele>223.427002</ele>
  <time>2011-09-02T05:48:58Z</time>
  <speed>3.070000</speed>
</trkpt>
<trkpt lat="32.864501953" lon="35.238697052">
  <ele>223.083252</ele>
  <time>2011-09-02T05:48:59Z</time>
  <speed>3.100000</speed>
</trkpt>
<trkpt lat="32.864494324" lon="35.238731384">
  <ele>223.344971</ele>
  <time>2011-09-02T05:49:00Z</time>
  <speed>2.850000</speed>
</trkpt>
<trkpt lat="32.864494324" lon="35.238788605">
  <ele>222.755127</ele>
  <time>2011-09-02T05:49:02Z</time>
  <speed>3.000000</speed>
</trkpt>
<trkpt lat="32.864494324" lon="35.238822937">
  <ele>222.313721</ele>
  <time>2011-09-02T05:49:03Z</time>
  <speed>2.850000</speed>
</trkpt>
<trkpt lat="32.864498138" lon="35.238880157">
  <ele>221.813721</ele>
  <time>2011-09-02T05:49:05Z</time>
  <speed>2.910000</speed>
</trkpt>
<trkpt lat="32.864505768" lon="35.238945007">
  <ele>222.579346</ele>
  <time>2011-09-02T05:49:07Z</time>
  <speed>2.980000</speed>
</trkpt>
<trkpt lat="32.864509583" lon="35.238975525">
  <ele>222.610596</ele>
  <time>2011-09-02T05:49:08Z</time>
  <speed>3.020000</speed>
</trkpt>
<trkpt lat="32.864513397" lon="35.239013672">
  <ele>222.505127</ele>
  <time>2011-09-02T05:49:09Z</time>
  <speed>2.850000</speed>
</trkpt>
<trkpt lat="32.864521027" lon="35.239044189">
  <ele>222.528564</ele>
  <time>2011-09-02T05:49:10Z</time>
  <speed>2.980000</speed>
</trkpt>
<trkpt lat="32.864517212" lon="35.239101410">
  <ele>222.458252</ele>
  <time>2011-09-02T05:49:12Z</time>
  <speed>2.770000</speed>
</trkpt>
<trkpt lat="32.864521027" lon="35.239151001">
  <ele>220.966064</ele>
  <time>2011-09-02T05:49:14Z</time>
  <speed>2.740000</speed>
</trkpt>
<trkpt lat="32.864521027" lon="35.239185333">
  <ele>221.259033</ele>
  <time>2011-09-02T05:49:15Z</time>
  <speed>3.030000</speed>
</trkpt>
<trkpt lat="32.864528656" lon="35.239215851">
  <ele>221.196533</ele>
  <time>2011-09-02T05:49:16Z</time>
  <speed>3.060000</speed>
</trkpt>
<trkpt lat="32.864536285" lon="35.239253998">
  <ele>221.493408</ele>
  <time>2011-09-02T05:49:17Z</time>
  <speed>3.100000</speed>
</trkpt>
<trkpt lat="32.864536285" lon="35.239284515">
  <ele>221.575439</ele>
  <time>2011-09-02T05:49:18Z</time>
  <speed>3.310000</speed>
</trkpt>
<trkpt lat="32.864540100" lon="35.239326477">
  <ele>221.723877</ele>
  <time>2011-09-02T05:49:19Z</time>
  <speed>3.190000</speed>
</trkpt>
<trkpt lat="32.864543915" lon="35.239356995">
  <ele>222.055908</ele>
  <time>2011-09-02T05:49:20Z</time>
  <speed>3.300000</speed>
</trkpt>
<trkpt lat="32.864547729" lon="35.239391327">
  <ele>222.044189</ele>
  <time>2011-09-02T05:49:21Z</time>
  <speed>3.190000</speed>
</trkpt>
<trkpt lat="32.864551544" lon="35.239425659">
  <ele>222.376221</ele>
  <time>2011-09-02T05:49:22Z</time>
  <speed>3.220000</speed>
</trkpt>
<trkpt lat="32.864540100" lon="35.239490509">
  <ele>223.200439</ele>
  <time>2011-09-02T05:49:24Z</time>
  <speed>3.250000</speed>
</trkpt>
<trkpt lat="32.864528656" lon="35.239528656">
  <ele>223.298096</ele>
  <time>2011-09-02T05:49:25Z</time>
  <speed>3.300000</speed>
</trkpt>
<trkpt lat="32.864513397" lon="35.239555359">
  <ele>223.067627</ele>
  <time>2011-09-02T05:49:26Z</time>
  <speed>3.320000</speed>
</trkpt>
<trkpt lat="32.864498138" lon="35.239589691">
  <ele>223.743408</ele>
  <time>2011-09-02T05:49:27Z</time>
  <speed>3.310000</speed>
</trkpt>
<trkpt lat="32.864482880" lon="35.239616394">
  <ele>223.833252</ele>
  <time>2011-09-02T05:49:28Z</time>
  <speed>3.230000</speed>
</trkpt>
<trkpt lat="32.864463806" lon="35.239643097">
  <ele>225.149658</ele>
  <time>2011-09-02T05:49:29Z</time>
  <speed>3.130000</speed>
</trkpt>
<trkpt lat="32.864448547" lon="35.239669800">
  <ele>225.126221</ele>
  <time>2011-09-02T05:49:30Z</time>
  <speed>3.240000</speed>
</trkpt>
<trkpt lat="32.864421844" lon="35.239727020">
  <ele>225.489502</ele>
  <time>2011-09-02T05:49:32Z</time>
  <speed>3.050000</speed>
</trkpt>
<trkpt lat="32.864418030" lon="35.239772797">
  <ele>226.317627</ele>
  <time>2011-09-02T05:49:33Z</time>
  <speed>3.300000</speed>
</trkpt>
<trkpt lat="32.864406586" lon="35.239803314">
  <ele>227.040283</ele>
  <time>2011-09-02T05:49:34Z</time>
  <speed>3.340000</speed>
</trkpt>
<trkpt lat="32.864391327" lon="35.239833832">
  <ele>227.305908</ele>
  <time>2011-09-02T05:49:35Z</time>
  <speed>3.590000</speed>
</trkpt>
<trkpt lat="32.864376068" lon="35.239871979">
  <ele>227.423096</ele>
  <time>2011-09-02T05:49:36Z</time>
  <speed>3.590000</speed>
</trkpt>
<trkpt lat="32.864360809" lon="35.239902496">
  <ele>227.844971</ele>
  <time>2011-09-02T05:49:37Z</time>
  <speed>3.560000</speed>
</trkpt>
<trkpt lat="32.864349365" lon="35.239933014">
  <ele>227.298096</ele>
  <time>2011-09-02T05:49:38Z</time>
  <speed>3.450000</speed>
</trkpt>
<trkpt lat="32.864341736" lon="35.239963531">
  <ele>227.204346</ele>
  <time>2011-09-02T05:49:39Z</time>
  <speed>3.360000</speed>
</trkpt>
<trkpt lat="32.864326477" lon="35.240001678">
  <ele>227.321533</ele>
  <time>2011-09-02T05:49:40Z</time>
  <speed>3.260000</speed>
</trkpt>
<trkpt lat="32.864318848" lon="35.240036011">
  <ele>226.747314</ele>
  <time>2011-09-02T05:49:41Z</time>
  <speed>3.370000</speed>
</trkpt>
<trkpt lat="32.864307404" lon="35.240066528">
  <ele>227.110596</ele>
  <time>2011-09-02T05:49:42Z</time>
  <speed>3.220000</speed>
</trkpt>
<trkpt lat="32.864303589" lon="35.240100861">
  <ele>226.813721</ele>
  <time>2011-09-02T05:49:43Z</time>
  <speed>3.410000</speed>
</trkpt>
<trkpt lat="32.864288330" lon="35.240165710">
  <ele>227.927002</ele>
  <time>2011-09-02T05:49:45Z</time>
  <speed>3.440000</speed>
</trkpt>
<trkpt lat="32.864276886" lon="35.240203857">
  <ele>228.579346</ele>
  <time>2011-09-02T05:49:46Z</time>
  <speed>3.550000</speed>
</trkpt>
<trkpt lat="32.864261627" lon="35.240234375">
  <ele>228.477783</ele>
  <time>2011-09-02T05:49:47Z</time>
  <speed>3.400000</speed>
</trkpt>
<trkpt lat="32.864250183" lon="35.240272522">
  <ele>229.012939</ele>
  <time>2011-09-02T05:49:48Z</time>
  <speed>3.350000</speed>
</trkpt>
<trkpt lat="32.864246368" lon="35.240303040">
  <ele>228.919189</ele>
  <time>2011-09-02T05:49:49Z</time>
  <speed>3.220000</speed>
</trkpt>
<trkpt lat="32.864231110" lon="35.240341187">
  <ele>228.786377</ele>
  <time>2011-09-02T05:49:50Z</time>
  <speed>3.310000</speed>
</trkpt>
<trkpt lat="32.864219666" lon="35.240371704">
  <ele>229.399658</ele>
  <time>2011-09-02T05:49:51Z</time>
  <speed>3.050000</speed>
</trkpt>
<trkpt lat="32.864204407" lon="35.240398407">
  <ele>229.907471</ele>
  <time>2011-09-02T05:49:52Z</time>
  <speed>2.720000</speed>
</trkpt>
<trkpt lat="32.864185333" lon="35.240455627">
  <ele>230.844971</ele>
  <time>2011-09-02T05:49:54Z</time>
  <speed>2.920000</speed>
</trkpt>
<trkpt lat="32.864173889" lon="35.240486145">
  <ele>231.493408</ele>
  <time>2011-09-02T05:49:55Z</time>
  <speed>3.070000</speed>
</trkpt>
<trkpt lat="32.864166260" lon="35.240516663">
  <ele>232.669189</ele>
  <time>2011-09-02T05:49:56Z</time>
  <speed>3.090000</speed>
</trkpt>
<trkpt lat="32.864162445" lon="35.240550995">
  <ele>232.481689</ele>
  <time>2011-09-02T05:49:57Z</time>
  <speed>3.230000</speed>
</trkpt>
<trkpt lat="32.864158630" lon="35.240581512">
  <ele>232.223877</ele>
  <time>2011-09-02T05:49:58Z</time>
  <speed>3.490000</speed>
</trkpt>
<trkpt lat="32.864151001" lon="35.240619659">
  <ele>232.005127</ele>
  <time>2011-09-02T05:49:59Z</time>
  <speed>3.800000</speed>
</trkpt>
<trkpt lat="32.864139557" lon="35.240661621">
  <ele>231.489502</ele>
  <time>2011-09-02T05:50:00Z</time>
  <speed>3.910000</speed>
</trkpt>
<trkpt lat="32.864124298" lon="35.240703583">
  <ele>230.802002</ele>
  <time>2011-09-02T05:50:01Z</time>
  <speed>3.990000</speed>
</trkpt>
<trkpt lat="32.864112854" lon="35.240734100">
  <ele>230.552002</ele>
  <time>2011-09-02T05:50:02Z</time>
  <speed>3.270000</speed>
</trkpt>
<trkpt lat="32.864082336" lon="35.240787506">
  <ele>230.266846</ele>
  <time>2011-09-02T05:50:04Z</time>
  <speed>2.680000</speed>
</trkpt>
<trkpt lat="32.864063263" lon="35.240833282">
  <ele>230.653564</ele>
  <time>2011-09-02T05:50:06Z</time>
  <speed>1.650000</speed>
</trkpt>
<trkpt lat="32.864059448" lon="35.240886688">
  <ele>230.868408</ele>
  <time>2011-09-02T05:50:09Z</time>
  <speed>1.750000</speed>
</trkpt>
<trkpt lat="32.864078522" lon="35.240924835">
  <ele>231.489502</ele>
  <time>2011-09-02T05:50:11Z</time>
  <speed>1.320000</speed>
</trkpt>
<trkpt lat="32.864116669" lon="35.240921021">
  <ele>231.563721</ele>
  <time>2011-09-02T05:50:13Z</time>
  <speed>1.620000</speed>
</trkpt>
<trkpt lat="32.864154816" lon="35.240905762">
  <ele>230.165283</ele>
  <time>2011-09-02T05:50:15Z</time>
  <speed>2.130000</speed>
</trkpt>
<trkpt lat="32.864185333" lon="35.240898132">
  <ele>230.165283</ele>
  <time>2011-09-02T05:50:16Z</time>
  <speed>1.720000</speed>
</trkpt>
<trkpt lat="32.864208221" lon="35.240875244">
  <ele>229.458252</ele>
  <time>2011-09-02T05:50:17Z</time>
  <speed>2.080000</speed>
</trkpt>
<trkpt lat="32.864234924" lon="35.240859985">
  <ele>229.231689</ele>
  <time>2011-09-02T05:50:18Z</time>
  <speed>2.180000</speed>
</trkpt>
<trkpt lat="32.864269257" lon="35.240818024">
  <ele>228.876221</ele>
  <time>2011-09-02T05:50:20Z</time>
  <speed>2.250000</speed>
</trkpt>
<trkpt lat="32.864295959" lon="35.240779877">
  <ele>228.684814</ele>
  <time>2011-09-02T05:50:22Z</time>
  <speed>2.400000</speed>
</trkpt>
<trkpt lat="32.864322662" lon="35.240737915">
  <ele>228.802002</ele>
  <time>2011-09-02T05:50:24Z</time>
  <speed>2.750000</speed>
</trkpt>
<trkpt lat="32.864349365" lon="35.240680695">
  <ele>228.579346</ele>
  <time>2011-09-02T05:50:26Z</time>
  <speed>2.900000</speed>
</trkpt>
<trkpt lat="32.864364624" lon="35.240653992">
  <ele>228.528564</ele>
  <time>2011-09-02T05:50:27Z</time>
  <speed>2.680000</speed>
</trkpt>
<trkpt lat="32.864379883" lon="35.240604401">
  <ele>227.684814</ele>
  <time>2011-09-02T05:50:29Z</time>
  <speed>2.590000</speed>
</trkpt>
<trkpt lat="32.864395142" lon="35.240573883">
  <ele>227.216064</ele>
  <time>2011-09-02T05:50:30Z</time>
  <speed>2.530000</speed>
</trkpt>
<trkpt lat="32.864421844" lon="35.240528107">
  <ele>226.837158</ele>
  <time>2011-09-02T05:50:32Z</time>
  <speed>2.680000</speed>
</trkpt>
<trkpt lat="32.864433289" lon="35.240493774">
  <ele>227.364502</ele>
  <time>2011-09-02T05:50:33Z</time>
  <speed>2.920000</speed>
</trkpt>
<trkpt lat="32.864456177" lon="35.240444183">
  <ele>227.309814</ele>
  <time>2011-09-02T05:50:35Z</time>
  <speed>2.640000</speed>
</trkpt>
<trkpt lat="32.864479065" lon="35.240394592">
  <ele>227.704346</ele>
  <time>2011-09-02T05:50:37Z</time>
  <speed>2.620000</speed>
</trkpt>
<trkpt lat="32.864505768" lon="35.240341187">
  <ele>228.458252</ele>
  <time>2011-09-02T05:50:39Z</time>
  <speed>2.680000</speed>
</trkpt>
<trkpt lat="32.864517212" lon="35.240306854">
  <ele>228.977783</ele>
  <time>2011-09-02T05:50:40Z</time>
  <speed>2.690000</speed>
</trkpt>
<trkpt lat="32.864543915" lon="35.240264893">
  <ele>229.094971</ele>
  <time>2011-09-02T05:50:42Z</time>
  <speed>2.690000</speed>
</trkpt>
<trkpt lat="32.864570618" lon="35.240211487">
  <ele>229.001221</ele>
  <time>2011-09-02T05:50:44Z</time>
  <speed>2.910000</speed>
</trkpt>
<trkpt lat="32.864589691" lon="35.240180969">
  <ele>228.583252</ele>
  <time>2011-09-02T05:50:45Z</time>
  <speed>2.690000</speed>
</trkpt>
<trkpt lat="32.864604950" lon="35.240150452">
  <ele>228.419189</ele>
  <time>2011-09-02T05:50:46Z</time>
  <speed>2.700000</speed>
</trkpt>
<trkpt lat="32.864635468" lon="35.240108490">
  <ele>228.052002</ele>
  <time>2011-09-02T05:50:48Z</time>
  <speed>2.740000</speed>
</trkpt>
<trkpt lat="32.864662170" lon="35.240058899">
  <ele>228.110596</ele>
  <time>2011-09-02T05:50:50Z</time>
  <speed>2.790000</speed>
</trkpt>
<trkpt lat="32.864692688" lon="35.240005493">
  <ele>228.512939</ele>
  <time>2011-09-02T05:50:52Z</time>
  <speed>2.940000</speed>
</trkpt>
<trkpt lat="32.864707947" lon="35.239974976">
  <ele>229.251221</ele>
  <time>2011-09-02T05:50:53Z</time>
  <speed>3.240000</speed>
</trkpt>
<trkpt lat="32.864727020" lon="35.239952087">
  <ele>228.966064</ele>
  <time>2011-09-02T05:50:54Z</time>
  <speed>3.170000</speed>
</trkpt>
<trkpt lat="32.864742279" lon="35.239921570">
  <ele>229.223877</ele>
  <time>2011-09-02T05:50:55Z</time>
  <speed>3.170000</speed>
</trkpt>
<trkpt lat="32.864757538" lon="35.239894867">
  <ele>229.278564</ele>
  <time>2011-09-02T05:50:56Z</time>
  <speed>3.130000</speed>
</trkpt>
<trkpt lat="32.864795685" lon="35.239852905">
  <ele>229.657471</ele>
  <time>2011-09-02T05:50:58Z</time>
  <speed>2.920000</speed>
</trkpt>
<trkpt lat="32.864810944" lon="35.239818573">
  <ele>230.048096</ele>
  <time>2011-09-02T05:50:59Z</time>
  <speed>2.990000</speed>
</trkpt>
<trkpt lat="32.864830017" lon="35.239788055">
  <ele>230.020752</ele>
  <time>2011-09-02T05:51:00Z</time>
  <speed>3.230000</speed>
</trkpt>
<trkpt lat="32.864845276" lon="35.239757538">
  <ele>230.083252</ele>
  <time>2011-09-02T05:51:01Z</time>
  <speed>3.160000</speed>
</trkpt>
<trkpt lat="32.864875793" lon="35.239704132">
  <ele>230.173096</ele>
  <time>2011-09-02T05:51:03Z</time>
  <speed>3.220000</speed>
</trkpt>
<trkpt lat="32.864898682" lon="35.239673615">
  <ele>230.208252</ele>
  <time>2011-09-02T05:51:04Z</time>
  <speed>3.570000</speed>
</trkpt>
<trkpt lat="32.864921570" lon="35.239646912">
  <ele>230.587158</ele>
  <time>2011-09-02T05:51:05Z</time>
  <speed>3.760000</speed>
</trkpt>
<trkpt lat="32.864944458" lon="35.239616394">
  <ele>230.868408</ele>
  <time>2011-09-02T05:51:06Z</time>
  <speed>3.860000</speed>
</trkpt>
<trkpt lat="32.864967346" lon="35.239585876">
  <ele>231.079346</ele>
  <time>2011-09-02T05:51:07Z</time>
  <speed>3.810000</speed>
</trkpt>
<trkpt lat="32.864990234" lon="35.239551544">
  <ele>231.145752</ele>
  <time>2011-09-02T05:51:08Z</time>
  <speed>3.580000</speed>
</trkpt>
<trkpt lat="32.865013123" lon="35.239528656">
  <ele>231.059814</ele>
  <time>2011-09-02T05:51:09Z</time>
  <speed>3.420000</speed>
</trkpt>
<trkpt lat="32.865032196" lon="35.239501953">
  <ele>230.837158</ele>
  <time>2011-09-02T05:51:10Z</time>
  <speed>3.130000</speed>
</trkpt>
<trkpt lat="32.865070343" lon="35.239463806">
  <ele>230.755127</ele>
  <time>2011-09-02T05:51:12Z</time>
  <speed>2.950000</speed>
</trkpt>
<trkpt lat="32.865085602" lon="35.239437103">
  <ele>230.762939</ele>
  <time>2011-09-02T05:51:13Z</time>
  <speed>2.980000</speed>
</trkpt>
<trkpt lat="32.865104675" lon="35.239414215">
  <ele>230.755127</ele>
  <time>2011-09-02T05:51:14Z</time>
  <speed>2.930000</speed>
</trkpt>
<trkpt lat="32.865123749" lon="35.239391327">
  <ele>231.259033</ele>
  <time>2011-09-02T05:51:15Z</time>
  <speed>2.610000</speed>
</trkpt>
<trkpt lat="32.865161896" lon="35.239356995">
  <ele>231.884033</ele>
  <time>2011-09-02T05:51:17Z</time>
  <speed>2.730000</speed>
</trkpt>
<trkpt lat="32.865203857" lon="35.239326477">
  <ele>232.540283</ele>
  <time>2011-09-02T05:51:19Z</time>
  <speed>2.360000</speed>
</trkpt>
<trkpt lat="32.865245819" lon="35.239307404">
  <ele>234.544189</ele>
  <time>2011-09-02T05:51:21Z</time>
  <speed>2.560000</speed>
</trkpt>
<trkpt lat="32.865287781" lon="35.239303589">
  <ele>236.813721</ele>
  <time>2011-09-02T05:51:23Z</time>
  <speed>2.490000</speed>
</trkpt>
<trkpt lat="32.865333557" lon="35.239292145">
  <ele>237.716064</ele>
  <time>2011-09-02T05:51:25Z</time>
  <speed>2.320000</speed>
</trkpt>
<trkpt lat="32.865371704" lon="35.239288330">
  <ele>238.583252</ele>
  <time>2011-09-02T05:51:27Z</time>
  <speed>2.270000</speed>
</trkpt>
<trkpt lat="32.865413666" lon="35.239292145">
  <ele>240.454346</ele>
  <time>2011-09-02T05:51:29Z</time>
  <speed>2.390000</speed>
</trkpt>
<trkpt lat="32.865451813" lon="35.239299774">
  <ele>242.055908</ele>
  <time>2011-09-02T05:51:31Z</time>
  <speed>2.480000</speed>
</trkpt>
<trkpt lat="32.865497589" lon="35.239322662">
  <ele>242.122314</ele>
  <time>2011-09-02T05:51:33Z</time>
  <speed>2.730000</speed>
</trkpt>
<trkpt lat="32.865547180" lon="35.239360809">
  <ele>241.782471</ele>
  <time>2011-09-02T05:51:35Z</time>
  <speed>2.940000</speed>
</trkpt>
<trkpt lat="32.865570068" lon="35.239379883">
  <ele>241.856689</ele>
  <time>2011-09-02T05:51:36Z</time>
  <speed>2.960000</speed>
</trkpt>
<trkpt lat="32.865612030" lon="35.239418030">
  <ele>241.868408</ele>
  <time>2011-09-02T05:51:38Z</time>
  <speed>2.830000</speed>
</trkpt>
<trkpt lat="32.865638733" lon="35.239429474">
  <ele>242.137939</ele>
  <time>2011-09-02T05:51:39Z</time>
  <speed>3.080000</speed>
</trkpt>
<trkpt lat="32.865665436" lon="35.239444733">
  <ele>241.716064</ele>
  <time>2011-09-02T05:51:40Z</time>
  <speed>2.920000</speed>
</trkpt>
<trkpt lat="32.865707397" lon="35.239482880">
  <ele>241.794189</ele>
  <time>2011-09-02T05:51:42Z</time>
  <speed>2.650000</speed>
</trkpt>
<trkpt lat="32.865753174" lon="35.239513397">
  <ele>241.610596</ele>
  <time>2011-09-02T05:51:44Z</time>
  <speed>2.880000</speed>
</trkpt>
<trkpt lat="32.865776062" lon="35.239536285">
  <ele>241.637939</ele>
  <time>2011-09-02T05:51:45Z</time>
  <speed>2.880000</speed>
</trkpt>
<trkpt lat="32.865821838" lon="35.239570618">
  <ele>241.114502</ele>
  <time>2011-09-02T05:51:47Z</time>
  <speed>3.030000</speed>
</trkpt>
<trkpt lat="32.865863800" lon="35.239601135">
  <ele>241.028564</ele>
  <time>2011-09-02T05:51:49Z</time>
  <speed>2.960000</speed>
</trkpt>
<trkpt lat="32.865886688" lon="35.239624023">
  <ele>240.829346</ele>
  <time>2011-09-02T05:51:50Z</time>
  <speed>2.920000</speed>
</trkpt>
<trkpt lat="32.865905762" lon="35.239646912">
  <ele>239.923096</ele>
  <time>2011-09-02T05:51:51Z</time>
  <speed>3.070000</speed>
</trkpt>
<trkpt lat="32.865924835" lon="35.239669800">
  <ele>239.524658</ele>
  <time>2011-09-02T05:51:52Z</time>
  <speed>2.910000</speed>
</trkpt>
<trkpt lat="32.865936279" lon="35.239700317">
  <ele>238.837158</ele>
  <time>2011-09-02T05:51:53Z</time>
  <speed>2.940000</speed>
</trkpt>
<trkpt lat="32.865936279" lon="35.239761353">
  <ele>239.059814</ele>
  <time>2011-09-02T05:51:55Z</time>
  <speed>2.570000</speed>
</trkpt>
<trkpt lat="32.865928650" lon="35.239795685">
  <ele>239.294189</ele>
  <time>2011-09-02T05:51:56Z</time>
  <speed>2.800000</speed>
</trkpt>
<trkpt lat="32.865894318" lon="35.239841461">
  <ele>240.059814</ele>
  <time>2011-09-02T05:51:58Z</time>
  <speed>2.640000</speed>
</trkpt>
<trkpt lat="32.865871429" lon="35.239891052">
  <ele>240.618408</ele>
  <time>2011-09-02T05:52:00Z</time>
  <speed>2.620000</speed>
</trkpt>
<trkpt lat="32.865856171" lon="35.239925385">
  <ele>241.509033</ele>
  <time>2011-09-02T05:52:01Z</time>
  <speed>2.990000</speed>
</trkpt>
<trkpt lat="32.865833282" lon="35.239986420">
  <ele>242.274658</ele>
  <time>2011-09-02T05:52:03Z</time>
  <speed>3.130000</speed>
</trkpt>
<trkpt lat="32.865825653" lon="35.240016937">
  <ele>243.528564</ele>
  <time>2011-09-02T05:52:04Z</time>
  <speed>2.610000</speed>
</trkpt>
<trkpt lat="32.865814209" lon="35.240055084">
  <ele>244.423096</ele>
  <time>2011-09-02T05:52:05Z</time>
  <speed>2.810000</speed>
</trkpt>
<trkpt lat="32.865810394" lon="35.240089417">
  <ele>244.852783</ele>
  <time>2011-09-02T05:52:06Z</time>
  <speed>2.700000</speed>
</trkpt>
<trkpt lat="32.865802765" lon="35.240142822">
  <ele>245.212158</ele>
  <time>2011-09-02T05:52:08Z</time>
  <speed>2.620000</speed>
</trkpt>
<trkpt lat="32.865798950" lon="35.240177155">
  <ele>245.266846</ele>
  <time>2011-09-02T05:52:09Z</time>
  <speed>2.320000</speed>
</trkpt>
<trkpt lat="32.865787506" lon="35.240226746">
  <ele>245.731689</ele>
  <time>2011-09-02T05:52:11Z</time>
  <speed>2.280000</speed>
</trkpt>
<trkpt lat="32.865772247" lon="35.240272522">
  <ele>247.887939</ele>
  <time>2011-09-02T05:52:13Z</time>
  <speed>2.410000</speed>
</trkpt>
<trkpt lat="32.865764618" lon="35.240325928">
  <ele>247.516846</ele>
  <time>2011-09-02T05:52:15Z</time>
  <speed>2.410000</speed>
</trkpt>
<trkpt lat="32.865745544" lon="35.240371704">
  <ele>248.231689</ele>
  <time>2011-09-02T05:52:17Z</time>
  <speed>2.350000</speed>
</trkpt>
<trkpt lat="32.865730286" lon="35.240421295">
  <ele>247.524658</ele>
  <time>2011-09-02T05:52:19Z</time>
  <speed>2.380000</speed>
</trkpt>
<trkpt lat="32.865718842" lon="35.240478516">
  <ele>249.094971</ele>
  <time>2011-09-02T05:52:21Z</time>
  <speed>2.330000</speed>
</trkpt>
<trkpt lat="32.865699768" lon="35.240531921">
  <ele>248.989502</ele>
  <time>2011-09-02T05:52:23Z</time>
  <speed>2.800000</speed>
</trkpt>
<trkpt lat="32.865676880" lon="35.240589142">
  <ele>250.048096</ele>
  <time>2011-09-02T05:52:25Z</time>
  <speed>2.810000</speed>
</trkpt>
<trkpt lat="32.865665436" lon="35.240642548">
  <ele>249.427002</ele>
  <time>2011-09-02T05:52:27Z</time>
  <speed>2.560000</speed>
</trkpt>
<trkpt lat="32.865650177" lon="35.240688324">
  <ele>249.411377</ele>
  <time>2011-09-02T05:52:29Z</time>
  <speed>2.730000</speed>
</trkpt>
<trkpt lat="32.865638733" lon="35.240745544">
  <ele>249.860596</ele>
  <time>2011-09-02T05:52:31Z</time>
  <speed>2.620000</speed>
</trkpt>
<trkpt lat="32.865619659" lon="35.240798950">
  <ele>250.216064</ele>
  <time>2011-09-02T05:52:33Z</time>
  <speed>2.540000</speed>
</trkpt>
<trkpt lat="32.865600586" lon="35.240848541">
  <ele>249.637939</ele>
  <time>2011-09-02T05:52:35Z</time>
  <speed>2.280000</speed>
</trkpt>
<trkpt lat="32.865581512" lon="35.240898132">
  <ele>249.884033</ele>
  <time>2011-09-02T05:52:37Z</time>
  <speed>2.630000</speed>
</trkpt>
<trkpt lat="32.865570068" lon="35.240932465">
  <ele>250.856689</ele>
  <time>2011-09-02T05:52:38Z</time>
  <speed>2.840000</speed>
</trkpt>
<trkpt lat="32.865547180" lon="35.240989685">
  <ele>251.606689</ele>
  <time>2011-09-02T05:52:40Z</time>
  <speed>2.810000</speed>
</trkpt>
<trkpt lat="32.865520477" lon="35.241039276">
  <ele>253.762939</ele>
  <time>2011-09-02T05:52:42Z</time>
  <speed>2.490000</speed>
</trkpt>
<trkpt lat="32.865505219" lon="35.241096497">
  <ele>254.469971</ele>
  <time>2011-09-02T05:52:44Z</time>
  <speed>2.970000</speed>
</trkpt>
<trkpt lat="32.865493774" lon="35.241130829">
  <ele>254.481689</ele>
  <time>2011-09-02T05:52:45Z</time>
  <speed>2.860000</speed>
</trkpt>
<trkpt lat="32.865467072" lon="35.241184235">
  <ele>255.743408</ele>
  <time>2011-09-02T05:52:47Z</time>
  <speed>3.210000</speed>
</trkpt>
<trkpt lat="32.865455627" lon="35.241218567">
  <ele>256.143066</ele>
  <time>2011-09-02T05:52:48Z</time>
  <speed>3.180000</speed>
</trkpt>
<trkpt lat="32.865440369" lon="35.241249084">
  <ele>255.969971</ele>
  <time>2011-09-02T05:52:49Z</time>
  <speed>3.300000</speed>
</trkpt>
<trkpt lat="32.865425110" lon="35.241279602">
  <ele>255.677002</ele>
  <time>2011-09-02T05:52:50Z</time>
  <speed>3.340000</speed>
</trkpt>
<trkpt lat="32.865409851" lon="35.241310120">
  <ele>255.587158</ele>
  <time>2011-09-02T05:52:51Z</time>
  <speed>3.710000</speed>
</trkpt>
<trkpt lat="32.865394592" lon="35.241340637">
  <ele>255.130127</ele>
  <time>2011-09-02T05:52:52Z</time>
  <speed>3.800000</speed>
</trkpt>
<trkpt lat="32.865383148" lon="35.241378784">
  <ele>255.415283</ele>
  <time>2011-09-02T05:52:53Z</time>
  <speed>3.760000</speed>
</trkpt>
<trkpt lat="32.865364075" lon="35.241413116">
  <ele>255.583252</ele>
  <time>2011-09-02T05:52:54Z</time>
  <speed>3.740000</speed>
</trkpt>
<trkpt lat="32.865348816" lon="35.241443634">
  <ele>255.282471</ele>
  <time>2011-09-02T05:52:55Z</time>
  <speed>3.640000</speed>
</trkpt>
<trkpt lat="32.865337372" lon="35.241474152">
  <ele>255.645752</ele>
  <time>2011-09-02T05:52:56Z</time>
  <speed>3.390000</speed>
</trkpt>
<trkpt lat="32.865318298" lon="35.241500854">
  <ele>255.966064</ele>
  <time>2011-09-02T05:52:57Z</time>
  <speed>3.660000</speed>
</trkpt>
<trkpt lat="32.865299225" lon="35.241531372">
  <ele>255.942627</ele>
  <time>2011-09-02T05:52:58Z</time>
  <speed>3.130000</speed>
</trkpt>
<trkpt lat="32.865283966" lon="35.241561890">
  <ele>256.213379</ele>
  <time>2011-09-02T05:52:59Z</time>
  <speed>3.220000</speed>
</trkpt>
<trkpt lat="32.865268707" lon="35.241596222">
  <ele>256.479004</ele>
  <time>2011-09-02T05:53:00Z</time>
  <speed>3.120000</speed>
</trkpt>
<trkpt lat="32.865257263" lon="35.241626740">
  <ele>256.518066</ele>
  <time>2011-09-02T05:53:01Z</time>
  <speed>2.900000</speed>
</trkpt>
<trkpt lat="32.865245819" lon="35.241703033">
  <ele>257.471191</ele>
  <time>2011-09-02T05:53:03Z</time>
  <speed>2.890000</speed>
</trkpt>
<trkpt lat="32.865234375" lon="35.241741180">
  <ele>257.869629</ele>
  <time>2011-09-02T05:53:04Z</time>
  <speed>3.290000</speed>
</trkpt>
<trkpt lat="32.865222931" lon="35.241771698">
  <ele>257.658691</ele>
  <time>2011-09-02T05:53:05Z</time>
  <speed>3.200000</speed>
</trkpt>
<trkpt lat="32.865215302" lon="35.241806030">
  <ele>257.377441</ele>
  <time>2011-09-02T05:53:06Z</time>
  <speed>2.670000</speed>
</trkpt>
<trkpt lat="32.865200043" lon="35.241859436">
  <ele>256.775879</ele>
  <time>2011-09-02T05:53:08Z</time>
  <speed>2.630000</speed>
</trkpt>
<trkpt lat="32.865188599" lon="35.241909027">
  <ele>255.930908</ele>
  <time>2011-09-02T05:53:10Z</time>
  <speed>2.190000</speed>
</trkpt>
<trkpt lat="32.865180969" lon="35.241950989">
  <ele>255.692627</ele>
  <time>2011-09-02T05:53:12Z</time>
  <speed>2.560000</speed>
</trkpt>
<trkpt lat="32.865169525" lon="35.242008209">
  <ele>257.729004</ele>
  <time>2011-09-02T05:53:14Z</time>
  <speed>2.310000</speed>
</trkpt>
<trkpt lat="32.865158081" lon="35.242057800">
  <ele>258.260254</ele>
  <time>2011-09-02T05:53:16Z</time>
  <speed>2.510000</speed>
</trkpt>
<trkpt lat="32.865150452" lon="35.242118835">
  <ele>258.564941</ele>
  <time>2011-09-02T05:53:18Z</time>
  <speed>2.350000</speed>
</trkpt>
<trkpt lat="32.865135193" lon="35.242168427">
  <ele>259.518066</ele>
  <time>2011-09-02T05:53:20Z</time>
  <speed>2.440000</speed>
</trkpt>
<trkpt lat="32.865123749" lon="35.242221832">
  <ele>260.135254</ele>
  <time>2011-09-02T05:53:22Z</time>
  <speed>2.260000</speed>
</trkpt>
<trkpt lat="32.865116119" lon="35.242267609">
  <ele>261.150879</ele>
  <time>2011-09-02T05:53:24Z</time>
  <speed>2.420000</speed>
</trkpt>
<trkpt lat="32.865108490" lon="35.242313385">
  <ele>261.705566</ele>
  <time>2011-09-02T05:53:26Z</time>
  <speed>2.380000</speed>
</trkpt>
<trkpt lat="32.865108490" lon="35.242362976">
  <ele>262.354004</ele>
  <time>2011-09-02T05:53:28Z</time>
  <speed>2.240000</speed>
</trkpt>
<trkpt lat="32.865108490" lon="35.242412567">
  <ele>263.127441</ele>
  <time>2011-09-02T05:53:30Z</time>
  <speed>2.370000</speed>
</trkpt>
<trkpt lat="32.865116119" lon="35.242465973">
  <ele>263.744629</ele>
  <time>2011-09-02T05:53:32Z</time>
  <speed>2.170000</speed>
</trkpt>
<trkpt lat="32.865127563" lon="35.242515564">
  <ele>263.486816</ele>
  <time>2011-09-02T05:53:34Z</time>
  <speed>2.030000</speed>
</trkpt>
<trkpt lat="32.865154266" lon="35.242553711">
  <ele>263.244629</ele>
  <time>2011-09-02T05:53:36Z</time>
  <speed>2.150000</speed>
</trkpt>
<trkpt lat="32.865173340" lon="35.242595673">
  <ele>261.932129</ele>
  <time>2011-09-02T05:53:38Z</time>
  <speed>2.170000</speed>
</trkpt>
<trkpt lat="32.865177155" lon="35.242633820">
  <ele>261.338379</ele>
  <time>2011-09-02T05:53:40Z</time>
  <speed>2.190000</speed>
</trkpt>
<trkpt lat="32.865180969" lon="35.242679596">
  <ele>260.127441</ele>
  <time>2011-09-02T05:53:42Z</time>
  <speed>2.300000</speed>
</trkpt>
<trkpt lat="32.865196228" lon="35.242713928">
  <ele>259.525879</ele>
  <time>2011-09-02T05:53:44Z</time>
  <speed>1.670000</speed>
</trkpt>
<trkpt lat="32.865207672" lon="35.242755890">
  <ele>259.143066</ele>
  <time>2011-09-02T05:53:46Z</time>
  <speed>1.950000</speed>
</trkpt>
<trkpt lat="32.865219116" lon="35.242797852">
  <ele>259.752441</ele>
  <time>2011-09-02T05:53:48Z</time>
  <speed>2.180000</speed>
</trkpt>
<trkpt lat="32.865238190" lon="35.242847443">
  <ele>260.682129</ele>
  <time>2011-09-02T05:53:50Z</time>
  <speed>2.230000</speed>
</trkpt>
<trkpt lat="32.865249634" lon="35.242893219">
  <ele>261.393066</ele>
  <time>2011-09-02T05:53:52Z</time>
  <speed>2.050000</speed>
</trkpt>
<trkpt lat="32.865257263" lon="35.242935181">
  <ele>261.916504</ele>
  <time>2011-09-02T05:53:54Z</time>
  <speed>2.130000</speed>
</trkpt>
<trkpt lat="32.865272522" lon="35.242973328">
  <ele>261.268066</ele>
  <time>2011-09-02T05:53:56Z</time>
  <speed>2.220000</speed>
</trkpt>
<trkpt lat="32.865299225" lon="35.243022919">
  <ele>261.525879</ele>
  <time>2011-09-02T05:53:58Z</time>
  <speed>2.420000</speed>
</trkpt>
<trkpt lat="32.865306854" lon="35.243080139">
  <ele>261.611816</ele>
  <time>2011-09-02T05:54:00Z</time>
  <speed>2.900000</speed>
</trkpt>
<trkpt lat="32.865325928" lon="35.243141174">
  <ele>261.619629</ele>
  <time>2011-09-02T05:54:02Z</time>
  <speed>3.790000</speed>
</trkpt>
<trkpt lat="32.865341187" lon="35.243183136">
  <ele>261.361816</ele>
  <time>2011-09-02T05:54:03Z</time>
  <speed>4.290000</speed>
</trkpt>
<trkpt lat="32.865360260" lon="35.243228912">
  <ele>261.205566</ele>
  <time>2011-09-02T05:54:04Z</time>
  <speed>4.940000</speed>
</trkpt>
<trkpt lat="32.865375519" lon="35.243270874">
  <ele>261.049316</ele>
  <time>2011-09-02T05:54:05Z</time>
  <speed>4.880000</speed>
</trkpt>
<trkpt lat="32.865394592" lon="35.243316650">
  <ele>261.744629</ele>
  <time>2011-09-02T05:54:06Z</time>
  <speed>4.740000</speed>
</trkpt>
<trkpt lat="32.865409851" lon="35.243362427">
  <ele>261.979004</ele>
  <time>2011-09-02T05:54:07Z</time>
  <speed>4.470000</speed>
</trkpt>
<trkpt lat="32.865417480" lon="35.243404388">
  <ele>262.064941</ele>
  <time>2011-09-02T05:54:08Z</time>
  <speed>4.110000</speed>
</trkpt>
<trkpt lat="32.865432739" lon="35.243446350">
  <ele>261.877441</ele>
  <time>2011-09-02T05:54:09Z</time>
  <speed>4.300000</speed>
</trkpt>
<trkpt lat="32.865444183" lon="35.243495941">
  <ele>261.760254</ele>
  <time>2011-09-02T05:54:10Z</time>
  <speed>4.470000</speed>
</trkpt>
<trkpt lat="32.865459442" lon="35.243545532">
  <ele>261.275879</ele>
  <time>2011-09-02T05:54:11Z</time>
  <speed>4.890000</speed>
</trkpt>
<trkpt lat="32.865470886" lon="35.243598938">
  <ele>261.010254</ele>
  <time>2011-09-02T05:54:12Z</time>
  <speed>5.210000</speed>
</trkpt>
<trkpt lat="32.865470886" lon="35.243659973">
  <ele>260.658691</ele>
  <time>2011-09-02T05:54:13Z</time>
  <speed>5.050000</speed>
</trkpt>
<trkpt lat="32.865474701" lon="35.243721008">
  <ele>260.432129</ele>
  <time>2011-09-02T05:54:14Z</time>
  <speed>5.250000</speed>
</trkpt>
<trkpt lat="32.865474701" lon="35.243770599">
  <ele>260.275879</ele>
  <time>2011-09-02T05:54:15Z</time>
  <speed>4.260000</speed>
</trkpt>
<trkpt lat="32.865474701" lon="35.243816376">
  <ele>260.080566</ele>
  <time>2011-09-02T05:54:16Z</time>
  <speed>4.050000</speed>
</trkpt>
<trkpt lat="32.865467072" lon="35.243858337">
  <ele>259.674316</ele>
  <time>2011-09-02T05:54:17Z</time>
  <speed>3.840000</speed>
</trkpt>
<trkpt lat="32.865463257" lon="35.243911743">
  <ele>259.354004</ele>
  <time>2011-09-02T05:54:18Z</time>
  <speed>3.820000</speed>
</trkpt>
<trkpt lat="32.865451813" lon="35.243949890">
  <ele>258.486816</ele>
  <time>2011-09-02T05:54:19Z</time>
  <speed>3.430000</speed>
</trkpt>
<trkpt lat="32.865455627" lon="35.243984222">
  <ele>258.572754</ele>
  <time>2011-09-02T05:54:20Z</time>
  <speed>3.020000</speed>
</trkpt>
<trkpt lat="32.865451813" lon="35.244026184">
  <ele>257.994629</ele>
  <time>2011-09-02T05:54:21Z</time>
  <speed>2.950000</speed>
</trkpt>
<trkpt lat="32.865447998" lon="35.244087219">
  <ele>257.658691</ele>
  <time>2011-09-02T05:54:23Z</time>
  <speed>2.550000</speed>
</trkpt>
<trkpt lat="32.865428925" lon="35.244140625">
  <ele>257.049316</ele>
  <time>2011-09-02T05:54:25Z</time>
  <speed>3.030000</speed>
</trkpt>
<trkpt lat="32.865394592" lon="35.244194031">
  <ele>257.658691</ele>
  <time>2011-09-02T05:54:27Z</time>
  <speed>2.790000</speed>
</trkpt>
<trkpt lat="32.865364075" lon="35.244255066">
  <ele>258.080566</ele>
  <time>2011-09-02T05:54:29Z</time>
  <speed>3.290000</speed>
</trkpt>
<trkpt lat="32.865348816" lon="35.244327545">
  <ele>259.252441</ele>
  <time>2011-09-02T05:54:31Z</time>
  <speed>3.580000</speed>
</trkpt>
<trkpt lat="32.865341187" lon="35.244377136">
  <ele>260.283691</ele>
  <time>2011-09-02T05:54:32Z</time>
  <speed>3.830000</speed>
</trkpt>
<trkpt lat="32.865333557" lon="35.244434357">
  <ele>260.564941</ele>
  <time>2011-09-02T05:54:33Z</time>
  <speed>4.410000</speed>
</trkpt>
<trkpt lat="32.865337372" lon="35.244483948">
  <ele>260.752441</ele>
  <time>2011-09-02T05:54:34Z</time>
  <speed>4.730000</speed>
</trkpt>
<trkpt lat="32.865352631" lon="35.244541168">
  <ele>261.697754</ele>
  <time>2011-09-02T05:54:35Z</time>
  <speed>5.010000</speed>
</trkpt>
<trkpt lat="32.865356445" lon="35.244598389">
  <ele>261.518066</ele>
  <time>2011-09-02T05:54:36Z</time>
  <speed>4.960000</speed>
</trkpt>
<trkpt lat="32.865367889" lon="35.244647980">
  <ele>261.510254</ele>
  <time>2011-09-02T05:54:37Z</time>
  <speed>4.090000</speed>
</trkpt>
<trkpt lat="32.865379333" lon="35.244686127">
  <ele>261.689941</ele>
  <time>2011-09-02T05:54:38Z</time>
  <speed>3.230000</speed>
</trkpt>
<trkpt lat="32.865394592" lon="35.244724274">
  <ele>261.174316</ele>
  <time>2011-09-02T05:54:39Z</time>
  <speed>3.280000</speed>
</trkpt>
<trkpt lat="32.865413666" lon="35.244789124">
  <ele>260.010254</ele>
  <time>2011-09-02T05:54:41Z</time>
  <speed>2.490000</speed>
</trkpt>
<trkpt lat="32.865425110" lon="35.244819641">
  <ele>260.189941</ele>
  <time>2011-09-02T05:54:42Z</time>
  <speed>2.880000</speed>
</trkpt>
<trkpt lat="32.865444183" lon="35.244857788">
  <ele>260.713379</ele>
  <time>2011-09-02T05:54:43Z</time>
  <speed>2.800000</speed>
</trkpt>
<trkpt lat="32.865470886" lon="35.244888306">
  <ele>261.400879</ele>
  <time>2011-09-02T05:54:44Z</time>
  <speed>3.080000</speed>
</trkpt>
<trkpt lat="32.865497589" lon="35.244918823">
  <ele>261.713379</ele>
  <time>2011-09-02T05:54:45Z</time>
  <speed>3.100000</speed>
</trkpt>
<trkpt lat="32.865543365" lon="35.244945526">
  <ele>262.768066</ele>
  <time>2011-09-02T05:54:46Z</time>
  <speed>2.410000</speed>
</trkpt>
<trkpt lat="32.865573883" lon="35.244956970">
  <ele>262.799316</ele>
  <time>2011-09-02T05:54:47Z</time>
  <speed>1.740000</speed>
</trkpt>
<trkpt lat="32.865604401" lon="35.244979858">
  <ele>263.572754</ele>
  <time>2011-09-02T05:54:49Z</time>
  <speed>1.190000</speed>
</trkpt>
<trkpt lat="32.865646362" lon="35.244968414">
  <ele>262.369629</ele>
  <time>2011-09-02T05:54:52Z</time>
  <speed>1.230000</speed>
</trkpt>
<trkpt lat="32.865676880" lon="35.244968414">
  <ele>262.791504</ele>
  <time>2011-09-02T05:54:56Z</time>
  <speed>0.110000</speed>
</trkpt>
<trkpt lat="32.865676880" lon="35.244934082">
  <ele>263.057129</ele>
  <time>2011-09-02T05:56:18Z</time>
  <speed>0.010000</speed>
</trkpt>
<trkpt lat="32.865730286" lon="35.244945526">
  <ele>263.127441</ele>
  <time>2011-09-02T05:56:33Z</time>
  <speed>3.520000</speed>
</trkpt>
<trkpt lat="32.865768433" lon="35.244941711">
  <ele>262.830566</ele>
  <time>2011-09-02T05:56:34Z</time>
  <speed>4.130000</speed>
</trkpt>
<trkpt lat="32.865814209" lon="35.244949341">
  <ele>262.854004</ele>
  <time>2011-09-02T05:56:35Z</time>
  <speed>5.360000</speed>
</trkpt>
<trkpt lat="32.865867615" lon="35.244983673">
  <ele>262.080566</ele>
  <time>2011-09-02T05:56:36Z</time>
  <speed>6.020000</speed>
</trkpt>
<trkpt lat="32.865921021" lon="35.245021820">
  <ele>261.135254</ele>
  <time>2011-09-02T05:56:37Z</time>
  <speed>6.780000</speed>
</trkpt>
<trkpt lat="32.865959167" lon="35.245063782">
  <ele>260.354004</ele>
  <time>2011-09-02T05:56:38Z</time>
  <speed>4.940000</speed>
</trkpt>
<trkpt lat="32.865970612" lon="35.245098114">
  <ele>260.502441</ele>
  <time>2011-09-02T05:56:39Z</time>
  <speed>2.800000</speed>
</trkpt>
<trkpt lat="32.865982056" lon="35.245140076">
  <ele>261.291504</ele>
  <time>2011-09-02T05:56:41Z</time>
  <speed>1.530000</speed>
</trkpt>
<trkpt lat="32.866016388" lon="35.245166779">
  <ele>260.885254</ele>
  <time>2011-09-02T05:56:42Z</time>
  <speed>2.220000</speed>
</trkpt>
<trkpt lat="32.866020203" lon="35.245223999">
  <ele>261.393066</ele>
  <time>2011-09-02T05:56:44Z</time>
  <speed>2.310000</speed>
</trkpt>
<trkpt lat="32.866024017" lon="35.245273590">
  <ele>262.002441</ele>
  <time>2011-09-02T05:56:46Z</time>
  <speed>2.050000</speed>
</trkpt>
<trkpt lat="32.866035461" lon="35.245323181">
  <ele>262.010254</ele>
  <time>2011-09-02T05:56:48Z</time>
  <speed>1.660000</speed>
</trkpt>
<trkpt lat="32.866062164" lon="35.245365143">
  <ele>262.260254</ele>
  <time>2011-09-02T05:56:50Z</time>
  <speed>1.720000</speed>
</trkpt>
<trkpt lat="32.866081238" lon="35.245407104">
  <ele>262.752441</ele>
  <time>2011-09-02T05:56:52Z</time>
  <speed>1.920000</speed>
</trkpt>
<trkpt lat="32.866119385" lon="35.245429993">
  <ele>263.299316</ele>
  <time>2011-09-02T05:56:53Z</time>
  <speed>2.010000</speed>
</trkpt>
<trkpt lat="32.866146088" lon="35.245468140">
  <ele>263.885254</ele>
  <time>2011-09-02T05:56:55Z</time>
  <speed>2.020000</speed>
</trkpt>
<trkpt lat="32.866161346" lon="35.245510101">
  <ele>264.643066</ele>
  <time>2011-09-02T05:56:57Z</time>
  <speed>1.720000</speed>
</trkpt>
<trkpt lat="32.866172791" lon="35.245544434">
  <ele>265.697754</ele>
  <time>2011-09-02T05:56:59Z</time>
  <speed>1.210000</speed>
</trkpt>
<trkpt lat="32.866176605" lon="35.245582581">
  <ele>268.564941</ele>
  <time>2011-09-02T05:57:01Z</time>
  <speed>1.510000</speed>
</trkpt>
<trkpt lat="32.866184235" lon="35.245616913">
  <ele>269.111816</ele>
  <time>2011-09-02T05:57:03Z</time>
  <speed>1.670000</speed>
</trkpt>
<trkpt lat="32.866188049" lon="35.245647430">
  <ele>270.002441</ele>
  <time>2011-09-02T05:57:05Z</time>
  <speed>1.490000</speed>
</trkpt>
<trkpt lat="32.866210938" lon="35.245685577">
  <ele>270.361816</ele>
  <time>2011-09-02T05:57:07Z</time>
  <speed>1.470000</speed>
</trkpt>
<trkpt lat="32.866218567" lon="35.245719910">
  <ele>271.221191</ele>
  <time>2011-09-02T05:57:09Z</time>
  <speed>1.560000</speed>
</trkpt>
<trkpt lat="32.866249084" lon="35.245754242">
  <ele>271.830566</ele>
  <time>2011-09-02T05:57:11Z</time>
  <speed>1.340000</speed>
</trkpt>
<trkpt lat="32.866252899" lon="35.245780945">
  <ele>273.268066</ele>
  <time>2011-09-02T05:57:13Z</time>
  <speed>1.130000</speed>
</trkpt>
<trkpt lat="32.866271973" lon="35.245811462">
  <ele>274.291504</ele>
  <time>2011-09-02T05:57:15Z</time>
  <speed>1.110000</speed>
</trkpt>
<trkpt lat="32.866291046" lon="35.245849609">
  <ele>274.432129</ele>
  <time>2011-09-02T05:57:17Z</time>
  <speed>1.060000</speed>
</trkpt>
<trkpt lat="32.866302490" lon="35.245883942">
  <ele>274.799316</ele>
  <time>2011-09-02T05:57:20Z</time>
  <speed>0.730000</speed>
</trkpt>
<trkpt lat="32.866325378" lon="35.245906830">
  <ele>274.229004</ele>
  <time>2011-09-02T05:57:22Z</time>
  <speed>0.980000</speed>
</trkpt>
<trkpt lat="32.866348267" lon="35.245937347">
  <ele>275.088379</ele>
  <time>2011-09-02T05:57:24Z</time>
  <speed>1.000000</speed>
</trkpt>
<trkpt lat="32.866371155" lon="35.245967865">
  <ele>275.510254</ele>
  <time>2011-09-02T05:57:27Z</time>
  <speed>0.800000</speed>
</trkpt>
<trkpt lat="32.866386414" lon="35.246006012">
  <ele>275.549316</ele>
  <time>2011-09-02T05:57:30Z</time>
  <speed>0.860000</speed>
</trkpt>
<trkpt lat="32.866409302" lon="35.246047974">
  <ele>276.666504</ele>
  <time>2011-09-02T05:57:33Z</time>
  <speed>0.830000</speed>
</trkpt>
<trkpt lat="32.866424561" lon="35.246082306">
  <ele>277.197754</ele>
  <time>2011-09-02T05:57:37Z</time>
  <speed>1.090000</speed>
</trkpt>
<trkpt lat="32.866447449" lon="35.246120453">
  <ele>278.338379</ele>
  <time>2011-09-02T05:57:40Z</time>
  <speed>1.130000</speed>
</trkpt>
<trkpt lat="32.866470337" lon="35.246147156">
  <ele>278.736816</ele>
  <time>2011-09-02T05:57:43Z</time>
  <speed>1.000000</speed>
</trkpt>
<trkpt lat="32.866493225" lon="35.246185303">
  <ele>278.713379</ele>
  <time>2011-09-02T05:57:46Z</time>
  <speed>1.440000</speed>
</trkpt>
<trkpt lat="32.866508484" lon="35.246215820">
  <ele>278.752441</ele>
  <time>2011-09-02T05:57:48Z</time>
  <speed>0.970000</speed>
</trkpt>
<trkpt lat="32.866527557" lon="35.246234894">
  <ele>278.979004</ele>
  <time>2011-09-02T05:57:50Z</time>
  <speed>1.070000</speed>
</trkpt>
<trkpt lat="32.866554260" lon="35.246265411">
  <ele>279.260254</ele>
  <time>2011-09-02T05:57:53Z</time>
  <speed>0.940000</speed>
</trkpt>
<trkpt lat="32.866584778" lon="35.246280670">
  <ele>279.971191</ele>
  <time>2011-09-02T05:57:56Z</time>
  <speed>0.960000</speed>
</trkpt>
<trkpt lat="32.866603851" lon="35.246307373">
  <ele>281.244629</ele>
  <time>2011-09-02T05:57:59Z</time>
  <speed>1.050000</speed>
</trkpt>
<trkpt lat="32.866641998" lon="35.246330261">
  <ele>282.057129</ele>
  <time>2011-09-02T05:58:01Z</time>
  <speed>0.660000</speed>
</trkpt>
<trkpt lat="32.866630554" lon="35.246372223">
  <ele>282.260254</ele>
  <time>2011-09-02T05:58:05Z</time>
  <speed>1.620000</speed>
</trkpt>
<trkpt lat="32.866603851" lon="35.246391296">
  <ele>282.822754</ele>
  <time>2011-09-02T05:58:07Z</time>
  <speed>1.030000</speed>
</trkpt>
<trkpt lat="32.866577148" lon="35.246421814">
  <ele>283.893066</ele>
  <time>2011-09-02T05:58:09Z</time>
  <speed>1.880000</speed>
</trkpt>
<trkpt lat="32.866558075" lon="35.246456146">
  <ele>283.979004</ele>
  <time>2011-09-02T05:58:11Z</time>
  <speed>1.470000</speed>
</trkpt>
<trkpt lat="32.866539001" lon="35.246486664">
  <ele>284.744629</ele>
  <time>2011-09-02T05:58:13Z</time>
  <speed>1.660000</speed>
</trkpt>
<trkpt lat="32.866535187" lon="35.246524811">
  <ele>284.002441</ele>
  <time>2011-09-02T05:58:16Z</time>
  <speed>0.830000</speed>
</trkpt>
<trkpt lat="32.866539001" lon="35.246562958">
  <ele>284.025879</ele>
  <time>2011-09-02T05:58:18Z</time>
  <speed>1.190000</speed>
</trkpt>
<trkpt lat="32.866542816" lon="35.246604919">
  <ele>283.205566</ele>
  <time>2011-09-02T05:58:21Z</time>
  <speed>1.090000</speed>
</trkpt>
<trkpt lat="32.866558075" lon="35.246631622">
  <ele>283.182129</ele>
  <time>2011-09-02T05:58:23Z</time>
  <speed>1.120000</speed>
</trkpt>
<trkpt lat="32.866558075" lon="35.246677399">
  <ele>283.033691</ele>
  <time>2011-09-02T05:58:26Z</time>
  <speed>1.150000</speed>
</trkpt>
<trkpt lat="32.866561890" lon="35.246719360">
  <ele>283.033691</ele>
  <time>2011-09-02T05:58:29Z</time>
  <speed>1.340000</speed>
</trkpt>
<trkpt lat="32.866569519" lon="35.246753693">
  <ele>284.330566</ele>
  <time>2011-09-02T05:58:31Z</time>
  <speed>1.280000</speed>
</trkpt>
<trkpt lat="32.866588593" lon="35.246791840">
  <ele>284.314941</ele>
  <time>2011-09-02T05:58:34Z</time>
  <speed>0.770000</speed>
</trkpt>
<trkpt lat="32.866603851" lon="35.246822357">
  <ele>284.877441</ele>
  <time>2011-09-02T05:58:36Z</time>
  <speed>1.230000</speed>
</trkpt>
<trkpt lat="32.866619110" lon="35.246849060">
  <ele>284.830566</ele>
  <time>2011-09-02T05:58:38Z</time>
  <speed>1.050000</speed>
</trkpt>
<trkpt lat="32.866638184" lon="35.246875763">
  <ele>285.291504</ele>
  <time>2011-09-02T05:58:40Z</time>
  <speed>1.530000</speed>
</trkpt>
<trkpt lat="32.866649628" lon="35.246921539">
  <ele>286.119629</ele>
  <time>2011-09-02T05:58:43Z</time>
  <speed>0.920000</speed>
</trkpt>
<trkpt lat="32.866691589" lon="35.246932983">
  <ele>286.486816</ele>
  <time>2011-09-02T05:58:47Z</time>
  <speed>1.110000</speed>
</trkpt>
<trkpt lat="32.866714478" lon="35.246952057">
  <ele>286.760254</ele>
  <time>2011-09-02T05:58:49Z</time>
  <speed>1.730000</speed>
</trkpt>
<trkpt lat="32.866752625" lon="35.246971130">
  <ele>286.377441</ele>
  <time>2011-09-02T05:58:52Z</time>
  <speed>1.220000</speed>
</trkpt>
<trkpt lat="32.866771698" lon="35.247016907">
  <ele>286.729004</ele>
  <time>2011-09-02T05:58:55Z</time>
  <speed>1.330000</speed>
</trkpt>
<trkpt lat="32.866790771" lon="35.247047424">
  <ele>286.041504</ele>
  <time>2011-09-02T05:58:57Z</time>
  <speed>1.730000</speed>
</trkpt>
<trkpt lat="32.866802216" lon="35.247081757">
  <ele>287.049316</ele>
  <time>2011-09-02T05:58:59Z</time>
  <speed>1.580000</speed>
</trkpt>
<trkpt lat="32.866802216" lon="35.247116089">
  <ele>288.049316</ele>
  <time>2011-09-02T05:59:01Z</time>
  <speed>1.620000</speed>
</trkpt>
<trkpt lat="32.866790771" lon="35.247146606">
  <ele>288.283691</ele>
  <time>2011-09-02T05:59:03Z</time>
  <speed>1.200000</speed>
</trkpt>
<trkpt lat="32.866775513" lon="35.247177124">
  <ele>288.838379</ele>
  <time>2011-09-02T05:59:06Z</time>
  <speed>1.350000</speed>
</trkpt>
<trkpt lat="32.866760254" lon="35.247207642">
  <ele>288.822754</ele>
  <time>2011-09-02T05:59:08Z</time>
  <speed>1.450000</speed>
</trkpt>
<trkpt lat="32.866748810" lon="35.247253418">
  <ele>289.596191</ele>
  <time>2011-09-02T05:59:11Z</time>
  <speed>0.950000</speed>
</trkpt>
<trkpt lat="32.866722107" lon="35.247280121">
  <ele>291.205566</ele>
  <time>2011-09-02T05:59:14Z</time>
  <speed>1.000000</speed>
</trkpt>
<trkpt lat="32.866718292" lon="35.247322083">
  <ele>291.908691</ele>
  <time>2011-09-02T05:59:17Z</time>
  <speed>1.350000</speed>
</trkpt>
<trkpt lat="32.866718292" lon="35.247356415">
  <ele>292.713379</ele>
  <time>2011-09-02T05:59:19Z</time>
  <speed>1.420000</speed>
</trkpt>
<trkpt lat="32.866729736" lon="35.247398376">
  <ele>293.064941</ele>
  <time>2011-09-02T05:59:22Z</time>
  <speed>1.530000</speed>
</trkpt>
<trkpt lat="32.866714478" lon="35.247444153">
  <ele>292.986816</ele>
  <time>2011-09-02T05:59:25Z</time>
  <speed>1.430000</speed>
</trkpt>
<trkpt lat="32.866710663" lon="35.247482300">
  <ele>294.080566</ele>
  <time>2011-09-02T05:59:27Z</time>
  <speed>1.300000</speed>
</trkpt>
<trkpt lat="32.866725922" lon="35.247524261">
  <ele>294.150879</ele>
  <time>2011-09-02T05:59:29Z</time>
  <speed>1.240000</speed>
</trkpt>
<trkpt lat="32.866725922" lon="35.247558594">
  <ele>295.041504</ele>
  <time>2011-09-02T05:59:31Z</time>
  <speed>1.330000</speed>
</trkpt>
<trkpt lat="32.866714478" lon="35.247592926">
  <ele>295.869629</ele>
  <time>2011-09-02T05:59:34Z</time>
  <speed>1.180000</speed>
</trkpt>
<trkpt lat="32.866710663" lon="35.247623444">
  <ele>296.463379</ele>
  <time>2011-09-02T05:59:36Z</time>
  <speed>1.360000</speed>
</trkpt>
<trkpt lat="32.866687775" lon="35.247650146">
  <ele>297.408691</ele>
  <time>2011-09-02T05:59:39Z</time>
  <speed>1.190000</speed>
</trkpt>
<trkpt lat="32.866676331" lon="35.247680664">
  <ele>297.955566</ele>
  <time>2011-09-02T05:59:42Z</time>
  <speed>1.020000</speed>
</trkpt>
<trkpt lat="32.866661072" lon="35.247711182">
  <ele>299.166504</ele>
  <time>2011-09-02T05:59:45Z</time>
  <speed>1.210000</speed>
</trkpt>
<trkpt lat="32.866661072" lon="35.247756958">
  <ele>299.127441</ele>
  <time>2011-09-02T05:59:48Z</time>
  <speed>1.050000</speed>
</trkpt>
<trkpt lat="32.866645813" lon="35.247795105">
  <ele>298.588379</ele>
  <time>2011-09-02T05:59:51Z</time>
  <speed>1.330000</speed>
</trkpt>
<trkpt lat="32.866645813" lon="35.247829437">
  <ele>298.182129</ele>
  <time>2011-09-02T05:59:53Z</time>
  <speed>1.480000</speed>
</trkpt>
<trkpt lat="32.866638184" lon="35.247863770">
  <ele>298.104004</ele>
  <time>2011-09-02T05:59:55Z</time>
  <speed>1.520000</speed>
</trkpt>
<trkpt lat="32.866638184" lon="35.247898102">
  <ele>297.572754</ele>
  <time>2011-09-02T05:59:57Z</time>
  <speed>1.330000</speed>
</trkpt>
<trkpt lat="32.866622925" lon="35.247936249">
  <ele>297.729004</ele>
  <time>2011-09-02T06:00:00Z</time>
  <speed>1.090000</speed>
</trkpt>
<trkpt lat="32.866603851" lon="35.247974396">
  <ele>297.854004</ele>
  <time>2011-09-02T06:00:03Z</time>
  <speed>1.510000</speed>
</trkpt>
<trkpt lat="32.866584778" lon="35.248004913">
  <ele>298.229004</ele>
  <time>2011-09-02T06:00:05Z</time>
  <speed>1.450000</speed>
</trkpt>
<trkpt lat="32.866565704" lon="35.248035431">
  <ele>299.932129</ele>
  <time>2011-09-02T06:00:07Z</time>
  <speed>1.260000</speed>
</trkpt>
<trkpt lat="32.866542816" lon="35.248046875">
  <ele>301.174316</ele>
  <time>2011-09-02T06:00:10Z</time>
  <speed>1.110000</speed>
</trkpt>
<trkpt lat="32.866512299" lon="35.248058319">
  <ele>302.854004</ele>
  <time>2011-09-02T06:00:12Z</time>
  <speed>1.180000</speed>
</trkpt>
<trkpt lat="32.866500854" lon="35.248096466">
  <ele>303.479004</ele>
  <time>2011-09-02T06:00:15Z</time>
  <speed>1.580000</speed>
</trkpt>
<trkpt lat="32.866474152" lon="35.248123169">
  <ele>303.838379</ele>
  <time>2011-09-02T06:00:17Z</time>
  <speed>1.730000</speed>
</trkpt>
<trkpt lat="32.866436005" lon="35.248123169">
  <ele>302.705566</ele>
  <time>2011-09-02T06:00:19Z</time>
  <speed>1.560000</speed>
</trkpt>
<trkpt lat="32.866409302" lon="35.248149872">
  <ele>302.299316</ele>
  <time>2011-09-02T06:00:21Z</time>
  <speed>2.080000</speed>
</trkpt>
<trkpt lat="32.866367340" lon="35.248176575">
  <ele>302.221191</ele>
  <time>2011-09-02T06:00:23Z</time>
  <speed>2.830000</speed>
</trkpt>
<trkpt lat="32.866313934" lon="35.248195648">
  <ele>302.096191</ele>
  <time>2011-09-02T06:00:25Z</time>
  <speed>3.480000</speed>
</trkpt>
<trkpt lat="32.866283417" lon="35.248207092">
  <ele>301.377441</ele>
  <time>2011-09-02T06:00:26Z</time>
  <speed>3.810000</speed>
</trkpt>
<trkpt lat="32.866249084" lon="35.248226166">
  <ele>301.346191</ele>
  <time>2011-09-02T06:00:27Z</time>
  <speed>3.870000</speed>
</trkpt>
<trkpt lat="32.866214752" lon="35.248249054">
  <ele>301.408691</ele>
  <time>2011-09-02T06:00:28Z</time>
  <speed>4.080000</speed>
</trkpt>
<trkpt lat="32.866180420" lon="35.248260498">
  <ele>301.471191</ele>
  <time>2011-09-02T06:00:29Z</time>
  <speed>3.900000</speed>
</trkpt>
<trkpt lat="32.866142273" lon="35.248275757">
  <ele>301.143066</ele>
  <time>2011-09-02T06:00:30Z</time>
  <speed>3.790000</speed>
</trkpt>
<trkpt lat="32.866111755" lon="35.248306274">
  <ele>300.775879</ele>
  <time>2011-09-02T06:00:31Z</time>
  <speed>3.630000</speed>
</trkpt>
<trkpt lat="32.866085052" lon="35.248332977">
  <ele>300.963379</ele>
  <time>2011-09-02T06:00:32Z</time>
  <speed>2.720000</speed>
</trkpt>
<trkpt lat="32.866073608" lon="35.248367310">
  <ele>301.104004</ele>
  <time>2011-09-02T06:00:33Z</time>
  <speed>2.790000</speed>
</trkpt>
<trkpt lat="32.866054535" lon="35.248409271">
  <ele>301.479004</ele>
  <time>2011-09-02T06:00:34Z</time>
  <speed>2.310000</speed>
</trkpt>
<trkpt lat="32.866035461" lon="35.248458862">
  <ele>302.775879</ele>
  <time>2011-09-02T06:00:36Z</time>
  <speed>2.080000</speed>
</trkpt>
<trkpt lat="32.866039276" lon="35.248504639">
  <ele>303.127441</ele>
  <time>2011-09-02T06:00:38Z</time>
  <speed>2.240000</speed>
</trkpt>
<trkpt lat="32.866039276" lon="35.248546600">
  <ele>303.291504</ele>
  <time>2011-09-02T06:00:40Z</time>
  <speed>1.830000</speed>
</trkpt>
<trkpt lat="32.866043091" lon="35.248588562">
  <ele>304.525879</ele>
  <time>2011-09-02T06:00:43Z</time>
  <speed>1.340000</speed>
</trkpt>
<trkpt lat="32.866035461" lon="35.248630524">
  <ele>305.518066</ele>
  <time>2011-09-02T06:00:46Z</time>
  <speed>1.360000</speed>
</trkpt>
<trkpt lat="32.866012573" lon="35.248661041">
  <ele>306.604004</ele>
  <time>2011-09-02T06:00:49Z</time>
  <speed>1.610000</speed>
</trkpt>
<trkpt lat="32.865982056" lon="35.248676300">
  <ele>306.721191</ele>
  <time>2011-09-02T06:00:51Z</time>
  <speed>1.720000</speed>
</trkpt>
<trkpt lat="32.865943909" lon="35.248683929">
  <ele>306.221191</ele>
  <time>2011-09-02T06:00:53Z</time>
  <speed>1.840000</speed>
</trkpt>
<trkpt lat="32.865909576" lon="35.248695374">
  <ele>306.533691</ele>
  <time>2011-09-02T06:00:55Z</time>
  <speed>1.690000</speed>
</trkpt>
<trkpt lat="32.865875244" lon="35.248703003">
  <ele>307.463379</ele>
  <time>2011-09-02T06:00:57Z</time>
  <speed>1.640000</speed>
</trkpt>
<trkpt lat="32.865840912" lon="35.248699188">
  <ele>306.604004</ele>
  <time>2011-09-02T06:00:59Z</time>
  <speed>1.630000</speed>
</trkpt>
<trkpt lat="32.865798950" lon="35.248714447">
  <ele>307.963379</ele>
  <time>2011-09-02T06:01:02Z</time>
  <speed>1.620000</speed>
</trkpt>
<trkpt lat="32.865764618" lon="35.248725891">
  <ele>308.541504</ele>
  <time>2011-09-02T06:01:05Z</time>
  <speed>1.510000</speed>
</trkpt>
<trkpt lat="32.865741730" lon="35.248725891">
  <ele>310.236816</ele>
  <time>2011-09-02T06:01:07Z</time>
  <speed>1.330000</speed>
</trkpt>
<trkpt lat="32.865703583" lon="35.248725891">
  <ele>311.018066</ele>
  <time>2011-09-02T06:01:10Z</time>
  <speed>1.120000</speed>
</trkpt>
<trkpt lat="32.865665436" lon="35.248744965">
  <ele>312.432129</ele>
  <time>2011-09-02T06:01:13Z</time>
  <speed>1.440000</speed>
</trkpt>
<trkpt lat="32.865634918" lon="35.248741150">
  <ele>313.479004</ele>
  <time>2011-09-02T06:01:15Z</time>
  <speed>1.270000</speed>
</trkpt>
<trkpt lat="32.865596771" lon="35.248756409">
  <ele>315.158691</ele>
  <time>2011-09-02T06:01:18Z</time>
  <speed>1.530000</speed>
</trkpt>
<trkpt lat="32.865570068" lon="35.248760223">
  <ele>315.666504</ele>
  <time>2011-09-02T06:01:20Z</time>
  <speed>1.460000</speed>
</trkpt>
<trkpt lat="32.865539551" lon="35.248764038">
  <ele>316.455566</ele>
  <time>2011-09-02T06:01:22Z</time>
  <speed>1.440000</speed>
</trkpt>
<trkpt lat="32.865516663" lon="35.248794556">
  <ele>316.947754</ele>
  <time>2011-09-02T06:01:24Z</time>
  <speed>1.520000</speed>
</trkpt>
<trkpt lat="32.865489960" lon="35.248790741">
  <ele>317.283691</ele>
  <time>2011-09-02T06:01:26Z</time>
  <speed>1.360000</speed>
</trkpt>
<trkpt lat="32.865459442" lon="35.248790741">
  <ele>317.627441</ele>
  <time>2011-09-02T06:01:29Z</time>
  <speed>1.360000</speed>
</trkpt>
<trkpt lat="32.865428925" lon="35.248809814">
  <ele>316.744629</ele>
  <time>2011-09-02T06:01:32Z</time>
  <speed>1.510000</speed>
</trkpt>
<trkpt lat="32.865402222" lon="35.248828888">
  <ele>316.705566</ele>
  <time>2011-09-02T06:01:34Z</time>
  <speed>1.680000</speed>
</trkpt>
<trkpt lat="32.865371704" lon="35.248844147">
  <ele>316.869629</ele>
  <time>2011-09-02T06:01:36Z</time>
  <speed>1.840000</speed>
</trkpt>
<trkpt lat="32.865333557" lon="35.248828888">
  <ele>317.400879</ele>
  <time>2011-09-02T06:01:39Z</time>
  <speed>1.480000</speed>
</trkpt>
<trkpt lat="32.865299225" lon="35.248828888">
  <ele>318.650879</ele>
  <time>2011-09-02T06:01:41Z</time>
  <speed>1.430000</speed>
</trkpt>
<trkpt lat="32.865261078" lon="35.248825073">
  <ele>319.471191</ele>
  <time>2011-09-02T06:01:44Z</time>
  <speed>1.300000</speed>
</trkpt>
<trkpt lat="32.865226746" lon="35.248840332">
  <ele>318.689941</ele>
  <time>2011-09-02T06:01:47Z</time>
  <speed>1.400000</speed>
</trkpt>
<trkpt lat="32.865200043" lon="35.248847961">
  <ele>318.619629</ele>
  <time>2011-09-02T06:01:49Z</time>
  <speed>1.380000</speed>
</trkpt>
<trkpt lat="32.865165710" lon="35.248844147">
  <ele>319.252441</ele>
  <time>2011-09-02T06:01:52Z</time>
  <speed>1.350000</speed>
</trkpt>
<trkpt lat="32.865131378" lon="35.248821259">
  <ele>320.080566</ele>
  <time>2011-09-02T06:01:55Z</time>
  <speed>1.210000</speed>
</trkpt>
<trkpt lat="32.865104675" lon="35.248802185">
  <ele>321.471191</ele>
  <time>2011-09-02T06:01:57Z</time>
  <speed>1.300000</speed>
</trkpt>
<trkpt lat="32.865066528" lon="35.248813629">
  <ele>321.705566</ele>
  <time>2011-09-02T06:02:00Z</time>
  <speed>1.280000</speed>
</trkpt>
<trkpt lat="32.865036011" lon="35.248802185">
  <ele>321.072754</ele>
  <time>2011-09-02T06:02:02Z</time>
  <speed>1.380000</speed>
</trkpt>
<trkpt lat="32.865005493" lon="35.248817444">
  <ele>320.307129</ele>
  <time>2011-09-02T06:02:05Z</time>
  <speed>1.300000</speed>
</trkpt>
<trkpt lat="32.864967346" lon="35.248817444">
  <ele>320.385254</ele>
  <time>2011-09-02T06:02:08Z</time>
  <speed>1.270000</speed>
</trkpt>
<trkpt lat="32.864933014" lon="35.248813629">
  <ele>320.744629</ele>
  <time>2011-09-02T06:02:11Z</time>
  <speed>1.000000</speed>
</trkpt>
<trkpt lat="32.864910126" lon="35.248832703">
  <ele>321.049316</ele>
  <time>2011-09-02T06:02:13Z</time>
  <speed>1.420000</speed>
</trkpt>
<trkpt lat="32.864875793" lon="35.248844147">
  <ele>321.471191</ele>
  <time>2011-09-02T06:02:16Z</time>
  <speed>1.310000</speed>
</trkpt>
<trkpt lat="32.864845276" lon="35.248844147">
  <ele>321.596191</ele>
  <time>2011-09-02T06:02:19Z</time>
  <speed>1.080000</speed>
</trkpt>
<trkpt lat="32.864826202" lon="35.248867035">
  <ele>321.697754</ele>
  <time>2011-09-02T06:02:21Z</time>
  <speed>1.330000</speed>
</trkpt>
<trkpt lat="32.864799500" lon="35.248886108">
  <ele>320.963379</ele>
  <time>2011-09-02T06:02:23Z</time>
  <speed>1.230000</speed>
</trkpt>
<trkpt lat="32.864765167" lon="35.248886108">
  <ele>321.939941</ele>
  <time>2011-09-02T06:02:25Z</time>
  <speed>1.510000</speed>
</trkpt>
<trkpt lat="32.864730835" lon="35.248897552">
  <ele>320.721191</ele>
  <time>2011-09-02T06:02:28Z</time>
  <speed>1.610000</speed>
</trkpt>
<trkpt lat="32.864704132" lon="35.248920441">
  <ele>320.572754</ele>
  <time>2011-09-02T06:02:30Z</time>
  <speed>1.480000</speed>
</trkpt>
<trkpt lat="32.864669800" lon="35.248928070">
  <ele>320.447754</ele>
  <time>2011-09-02T06:02:33Z</time>
  <speed>1.460000</speed>
</trkpt>
<trkpt lat="32.864643097" lon="35.248935699">
  <ele>321.010254</ele>
  <time>2011-09-02T06:02:35Z</time>
  <speed>1.780000</speed>
</trkpt>
<trkpt lat="32.864604950" lon="35.248954773">
  <ele>320.291504</ele>
  <time>2011-09-02T06:02:38Z</time>
  <speed>1.630000</speed>
</trkpt>
<trkpt lat="32.864574432" lon="35.248970032">
  <ele>320.979004</ele>
  <time>2011-09-02T06:02:40Z</time>
  <speed>1.830000</speed>
</trkpt>
<trkpt lat="32.864547729" lon="35.248977661">
  <ele>321.127441</ele>
  <time>2011-09-02T06:02:42Z</time>
  <speed>1.700000</speed>
</trkpt>
<trkpt lat="32.864517212" lon="35.248989105">
  <ele>321.400879</ele>
  <time>2011-09-02T06:02:44Z</time>
  <speed>1.900000</speed>
</trkpt>
<trkpt lat="32.864479065" lon="35.249000549">
  <ele>321.018066</ele>
  <time>2011-09-02T06:02:46Z</time>
  <speed>2.230000</speed>
</trkpt>
<trkpt lat="32.864433289" lon="35.249004364">
  <ele>320.025879</ele>
  <time>2011-09-02T06:02:48Z</time>
  <speed>2.870000</speed>
</trkpt>
<trkpt lat="32.864406586" lon="35.249008179">
  <ele>320.104004</ele>
  <time>2011-09-02T06:02:49Z</time>
  <speed>3.010000</speed>
</trkpt>
<trkpt lat="32.864383698" lon="35.249019623">
  <ele>317.963379</ele>
  <time>2011-09-02T06:02:50Z</time>
  <speed>3.090000</speed>
</trkpt>
<trkpt lat="32.864356995" lon="35.249027252">
  <ele>317.479004</ele>
  <time>2011-09-02T06:02:51Z</time>
  <speed>3.140000</speed>
</trkpt>
<trkpt lat="32.864330292" lon="35.249034882">
  <ele>317.018066</ele>
  <time>2011-09-02T06:02:52Z</time>
  <speed>3.130000</speed>
</trkpt>
<trkpt lat="32.864303589" lon="35.249042511">
  <ele>317.150879</ele>
  <time>2011-09-02T06:02:53Z</time>
  <speed>2.990000</speed>
</trkpt>
<trkpt lat="32.864273071" lon="35.249042511">
  <ele>317.127441</ele>
  <time>2011-09-02T06:02:54Z</time>
  <speed>2.890000</speed>
</trkpt>
<trkpt lat="32.864223480" lon="35.249053955">
  <ele>316.096191</ele>
  <time>2011-09-02T06:02:56Z</time>
  <speed>2.230000</speed>
</trkpt>
<trkpt lat="32.864189148" lon="35.249057770">
  <ele>315.775879</ele>
  <time>2011-09-02T06:02:58Z</time>
  <speed>1.880000</speed>
</trkpt>
<trkpt lat="32.864158630" lon="35.249065399">
  <ele>315.377441</ele>
  <time>2011-09-02T06:03:00Z</time>
  <speed>1.710000</speed>
</trkpt>
<trkpt lat="32.864124298" lon="35.249084473">
  <ele>315.104004</ele>
  <time>2011-09-02T06:03:02Z</time>
  <speed>2.170000</speed>
</trkpt>
<trkpt lat="32.864093781" lon="35.249103546">
  <ele>314.229004</ele>
  <time>2011-09-02T06:03:04Z</time>
  <speed>1.860000</speed>
</trkpt>
<trkpt lat="32.864112854" lon="35.249134064">
  <ele>313.432129</ele>
  <time>2011-09-02T06:03:08Z</time>
  <speed>1.050000</speed>
</trkpt>
<trkpt lat="32.864143372" lon="35.249126434">
  <ele>312.244629</ele>
  <time>2011-09-02T06:03:11Z</time>
  <speed>0.670000</speed>
</trkpt>
<trkpt lat="32.864173889" lon="35.249118805">
  <ele>312.439941</ele>
  <time>2011-09-02T06:03:15Z</time>
  <speed>0.710000</speed>
</trkpt>
<trkpt lat="32.864200592" lon="35.249111176">
  <ele>312.463379</ele>
  <time>2011-09-02T06:03:22Z</time>
  <speed>0.160000</speed>
</trkpt>
<trkpt lat="32.864227295" lon="35.249099731">
  <ele>312.486816</ele>
  <time>2011-09-02T06:03:38Z</time>
  <speed>0.100000</speed>
</trkpt>
<trkpt lat="32.864253998" lon="35.249107361">
  <ele>314.213379</ele>
  <time>2011-09-02T06:03:49Z</time>
  <speed>0.390000</speed>
</trkpt>
<trkpt lat="32.864234924" lon="35.249080658">
  <ele>314.955566</ele>
  <time>2011-09-02T06:03:57Z</time>
  <speed>0.070000</speed>
</trkpt>
<trkpt lat="32.864219666" lon="35.249053955">
  <ele>314.064941</ele>
  <time>2011-09-02T06:04:15Z</time>
</trkpt>
<trkpt lat="32.864196777" lon="35.249073029">
  <ele>313.471191</ele>
  <time>2011-09-02T06:07:02Z</time>
  <speed>1.130000</speed>
</trkpt>
<trkpt lat="32.864162445" lon="35.249092102">
  <ele>313.588379</ele>
  <time>2011-09-02T06:07:04Z</time>
  <speed>2.160000</speed>
</trkpt>
<trkpt lat="32.864120483" lon="35.249107361">
  <ele>313.814941</ele>
  <time>2011-09-02T06:07:06Z</time>
  <speed>2.380000</speed>
</trkpt>
<trkpt lat="32.864097595" lon="35.249126434">
  <ele>313.736816</ele>
  <time>2011-09-02T06:07:07Z</time>
  <speed>2.950000</speed>
</trkpt>
<trkpt lat="32.864070892" lon="35.249145508">
  <ele>313.721191</ele>
  <time>2011-09-02T06:07:08Z</time>
  <speed>3.260000</speed>
</trkpt>
<trkpt lat="32.864032745" lon="35.249164581">
  <ele>313.682129</ele>
  <time>2011-09-02T06:07:09Z</time>
  <speed>3.480000</speed>
</trkpt>
<trkpt lat="32.864002228" lon="35.249187469">
  <ele>313.705566</ele>
  <time>2011-09-02T06:07:10Z</time>
  <speed>3.830000</speed>
</trkpt>
<trkpt lat="32.863964081" lon="35.249206543">
  <ele>313.588379</ele>
  <time>2011-09-02T06:07:11Z</time>
  <speed>4.310000</speed>
</trkpt>
<trkpt lat="32.863925934" lon="35.249233246">
  <ele>313.494629</ele>
  <time>2011-09-02T06:07:12Z</time>
  <speed>4.730000</speed>
</trkpt>
<trkpt lat="32.863887787" lon="35.249252319">
  <ele>313.705566</ele>
  <time>2011-09-02T06:07:13Z</time>
  <speed>4.010000</speed>
</trkpt>
<trkpt lat="32.863857269" lon="35.249271393">
  <ele>313.330566</ele>
  <time>2011-09-02T06:07:14Z</time>
  <speed>3.500000</speed>
</trkpt>
<trkpt lat="32.863822937" lon="35.249286652">
  <ele>313.189941</ele>
  <time>2011-09-02T06:07:15Z</time>
  <speed>3.290000</speed>
</trkpt>
<trkpt lat="32.863796234" lon="35.249301910">
  <ele>313.393066</ele>
  <time>2011-09-02T06:07:16Z</time>
  <speed>2.770000</speed>
</trkpt>
<trkpt lat="32.863769531" lon="35.249309540">
  <ele>312.830566</ele>
  <time>2011-09-02T06:07:17Z</time>
  <speed>2.180000</speed>
</trkpt>
<trkpt lat="32.863731384" lon="35.249313354">
  <ele>312.939941</ele>
  <time>2011-09-02T06:07:19Z</time>
  <speed>1.790000</speed>
</trkpt>
<trkpt lat="32.863704681" lon="35.249317169">
  <ele>312.674316</ele>
  <time>2011-09-02T06:07:23Z</time>
  <speed>0.200000</speed>
</trkpt>
<trkpt lat="32.863739014" lon="35.249305725">
  <ele>312.033691</ele>
  <time>2011-09-02T06:07:51Z</time>
  <speed>0.650000</speed>
</trkpt>
<trkpt lat="32.863773346" lon="35.249298096">
  <ele>311.971191</ele>
  <time>2011-09-02T06:07:53Z</time>
  <speed>1.700000</speed>
</trkpt>
<trkpt lat="32.863815308" lon="35.249282837">
  <ele>311.314941</ele>
  <time>2011-09-02T06:07:55Z</time>
  <speed>2.210000</speed>
</trkpt>
<trkpt lat="32.863853455" lon="35.249263763">
  <ele>311.400879</ele>
  <time>2011-09-02T06:07:57Z</time>
  <speed>2.020000</speed>
</trkpt>
<trkpt lat="32.863899231" lon="35.249240875">
  <ele>311.119629</ele>
  <time>2011-09-02T06:07:59Z</time>
  <speed>2.230000</speed>
</trkpt>
<trkpt lat="32.863929749" lon="35.249237061">
  <ele>311.346191</ele>
  <time>2011-09-02T06:08:00Z</time>
  <speed>2.550000</speed>
</trkpt>
<trkpt lat="32.863975525" lon="35.249217987">
  <ele>310.947754</ele>
  <time>2011-09-02T06:08:02Z</time>
  <speed>1.990000</speed>
</trkpt>
<trkpt lat="32.864009857" lon="35.249202728">
  <ele>310.721191</ele>
  <time>2011-09-02T06:08:04Z</time>
  <speed>1.610000</speed>
</trkpt>
<trkpt lat="32.864044189" lon="35.249191284">
  <ele>310.627441</ele>
  <time>2011-09-02T06:08:06Z</time>
  <speed>1.750000</speed>
</trkpt>
<trkpt lat="32.864078522" lon="35.249168396">
  <ele>310.213379</ele>
  <time>2011-09-02T06:08:08Z</time>
  <speed>1.920000</speed>
</trkpt>
<trkpt lat="32.864109039" lon="35.249153137">
  <ele>309.877441</ele>
  <time>2011-09-02T06:08:10Z</time>
  <speed>1.840000</speed>
</trkpt>
<trkpt lat="32.864147186" lon="35.249149323">
  <ele>309.838379</ele>
  <time>2011-09-02T06:08:12Z</time>
  <speed>2.180000</speed>
</trkpt>
<trkpt lat="32.864173889" lon="35.249134064">
  <ele>310.158691</ele>
  <time>2011-09-02T06:08:14Z</time>
  <speed>0.930000</speed>
</trkpt>
<trkpt lat="32.864200592" lon="35.249134064">
  <ele>309.494629</ele>
  <time>2011-09-02T06:08:17Z</time>
  <speed>0.680000</speed>
</trkpt>
<trkpt lat="32.864223480" lon="35.249114990">
  <ele>310.525879</ele>
  <time>2011-09-02T06:08:20Z</time>
  <speed>0.940000</speed>
</trkpt>
<trkpt lat="32.864253998" lon="35.249095917">
  <ele>310.346191</ele>
  <time>2011-09-02T06:08:23Z</time>
  <speed>1.230000</speed>
</trkpt>
<trkpt lat="32.864284515" lon="35.249073029">
  <ele>312.205566</ele>
  <time>2011-09-02T06:08:25Z</time>
  <speed>1.270000</speed>
</trkpt>
<trkpt lat="32.864311218" lon="35.249057770">
  <ele>312.197754</ele>
  <time>2011-09-02T06:08:28Z</time>
  <speed>1.000000</speed>
</trkpt>
<trkpt lat="32.864341736" lon="35.249042511">
  <ele>312.799316</ele>
  <time>2011-09-02T06:08:32Z</time>
  <speed>0.780000</speed>
</trkpt>
<trkpt lat="32.864364624" lon="35.249023438">
  <ele>313.963379</ele>
  <time>2011-09-02T06:08:37Z</time>
  <speed>1.190000</speed>
</trkpt>
<trkpt lat="32.864391327" lon="35.248992920">
  <ele>313.010254</ele>
  <time>2011-09-02T06:08:39Z</time>
  <speed>2.020000</speed>
</trkpt>
<trkpt lat="32.864402771" lon="35.248966217">
  <ele>312.986816</ele>
  <time>2011-09-02T06:08:40Z</time>
  <speed>3.110000</speed>
</trkpt>
<trkpt lat="32.864437103" lon="35.248924255">
  <ele>312.338379</ele>
  <time>2011-09-02T06:08:41Z</time>
  <speed>4.130000</speed>
</trkpt>
<trkpt lat="32.864471436" lon="35.248893738">
  <ele>311.838379</ele>
  <time>2011-09-02T06:08:42Z</time>
  <speed>4.550000</speed>
</trkpt>
<trkpt lat="32.864505768" lon="35.248855591">
  <ele>311.150879</ele>
  <time>2011-09-02T06:08:43Z</time>
  <speed>4.420000</speed>
</trkpt>
<trkpt lat="32.864532471" lon="35.248813629">
  <ele>310.619629</ele>
  <time>2011-09-02T06:08:44Z</time>
  <speed>4.670000</speed>
</trkpt>
<trkpt lat="32.864551544" lon="35.248767853">
  <ele>310.080566</ele>
  <time>2011-09-02T06:08:45Z</time>
  <speed>4.840000</speed>
</trkpt>
<trkpt lat="32.864574432" lon="35.248722076">
  <ele>310.564941</ele>
  <time>2011-09-02T06:08:46Z</time>
  <speed>3.770000</speed>
</trkpt>
<trkpt lat="32.864612579" lon="35.248706818">
  <ele>309.869629</ele>
  <time>2011-09-02T06:08:47Z</time>
  <speed>3.950000</speed>
</trkpt>
<trkpt lat="32.864650726" lon="35.248691559">
  <ele>309.807129</ele>
  <time>2011-09-02T06:08:48Z</time>
  <speed>3.830000</speed>
</trkpt>
<trkpt lat="32.864677429" lon="35.248668671">
  <ele>309.338379</ele>
  <time>2011-09-02T06:08:49Z</time>
  <speed>3.990000</speed>
</trkpt>
<trkpt lat="32.864692688" lon="35.248645782">
  <ele>308.408691</ele>
  <time>2011-09-02T06:08:50Z</time>
  <speed>3.380000</speed>
</trkpt>
<trkpt lat="32.864692688" lon="35.248607635">
  <ele>307.705566</ele>
  <time>2011-09-02T06:08:51Z</time>
  <speed>3.370000</speed>
</trkpt>
<trkpt lat="32.864673615" lon="35.248565674">
  <ele>307.463379</ele>
  <time>2011-09-02T06:08:52Z</time>
  <speed>3.150000</speed>
</trkpt>
<trkpt lat="32.864635468" lon="35.248554230">
  <ele>307.135254</ele>
  <time>2011-09-02T06:08:53Z</time>
  <speed>3.690000</speed>
</trkpt>
<trkpt lat="32.864601135" lon="35.248554230">
  <ele>306.697754</ele>
  <time>2011-09-02T06:08:54Z</time>
  <speed>2.970000</speed>
</trkpt>
<trkpt lat="32.864570618" lon="35.248561859">
  <ele>305.744629</ele>
  <time>2011-09-02T06:08:55Z</time>
  <speed>3.550000</speed>
</trkpt>
<trkpt lat="32.864543915" lon="35.248577118">
  <ele>305.205566</ele>
  <time>2011-09-02T06:08:56Z</time>
  <speed>3.250000</speed>
</trkpt>
<trkpt lat="32.864509583" lon="35.248592377">
  <ele>304.768066</ele>
  <time>2011-09-02T06:08:57Z</time>
  <speed>3.910000</speed>
</trkpt>
<trkpt lat="32.864475250" lon="35.248600006">
  <ele>304.166504</ele>
  <time>2011-09-02T06:08:58Z</time>
  <speed>3.300000</speed>
</trkpt>
<trkpt lat="32.864448547" lon="35.248603821">
  <ele>303.502441</ele>
  <time>2011-09-02T06:08:59Z</time>
  <speed>2.200000</speed>
</trkpt>
<trkpt lat="32.864433289" lon="35.248573303">
  <ele>301.385254</ele>
  <time>2011-09-02T06:09:01Z</time>
  <speed>1.820000</speed>
</trkpt>
<trkpt lat="32.864482880" lon="35.248550415">
  <ele>300.291504</ele>
  <time>2011-09-02T06:09:03Z</time>
  <speed>3.620000</speed>
</trkpt>
<trkpt lat="32.864517212" lon="35.248527527">
  <ele>299.549316</ele>
  <time>2011-09-02T06:09:04Z</time>
  <speed>4.050000</speed>
</trkpt>
<trkpt lat="32.864551544" lon="35.248508453">
  <ele>298.854004</ele>
  <time>2011-09-02T06:09:05Z</time>
  <speed>4.210000</speed>
</trkpt>
<trkpt lat="32.864597321" lon="35.248458862">
  <ele>300.057129</ele>
  <time>2011-09-02T06:09:06Z</time>
  <speed>5.010000</speed>
</trkpt>
<trkpt lat="32.864643097" lon="35.248455048">
  <ele>300.033691</ele>
  <time>2011-09-02T06:09:07Z</time>
  <speed>4.850000</speed>
</trkpt>
<trkpt lat="32.864692688" lon="35.248466492">
  <ele>300.236816</ele>
  <time>2011-09-02T06:09:08Z</time>
  <speed>4.560000</speed>
</trkpt>
<trkpt lat="32.864727020" lon="35.248466492">
  <ele>300.002441</ele>
  <time>2011-09-02T06:09:09Z</time>
  <speed>3.440000</speed>
</trkpt>
<trkpt lat="32.864757538" lon="35.248455048">
  <ele>299.783691</ele>
  <time>2011-09-02T06:09:10Z</time>
  <speed>2.330000</speed>
</trkpt>
<trkpt lat="32.864768982" lon="35.248394012">
  <ele>298.775879</ele>
  <time>2011-09-02T06:09:12Z</time>
  <speed>2.610000</speed>
</trkpt>
<trkpt lat="32.864768982" lon="35.248355865">
  <ele>298.369629</ele>
  <time>2011-09-02T06:09:13Z</time>
  <speed>2.260000</speed>
</trkpt>
<trkpt lat="32.864746094" lon="35.248321533">
  <ele>297.424316</ele>
  <time>2011-09-02T06:09:15Z</time>
  <speed>1.680000</speed>
</trkpt>
<trkpt lat="32.864738464" lon="35.248271942">
  <ele>296.752441</ele>
  <time>2011-09-02T06:09:17Z</time>
  <speed>2.290000</speed>
</trkpt>
<trkpt lat="32.864723206" lon="35.248229980">
  <ele>295.822754</ele>
  <time>2011-09-02T06:09:19Z</time>
  <speed>1.470000</speed>
</trkpt>
<trkpt lat="32.864719391" lon="35.248195648">
  <ele>294.580566</ele>
  <time>2011-09-02T06:09:21Z</time>
  <speed>1.600000</speed>
</trkpt>
<trkpt lat="32.864700317" lon="35.248161316">
  <ele>293.119629</ele>
  <time>2011-09-02T06:09:23Z</time>
  <speed>2.050000</speed>
</trkpt>
<trkpt lat="32.864669800" lon="35.248130798">
  <ele>292.072754</ele>
  <time>2011-09-02T06:09:25Z</time>
  <speed>1.950000</speed>
</trkpt>
<trkpt lat="32.864631653" lon="35.248092651">
  <ele>291.369629</ele>
  <time>2011-09-02T06:09:27Z</time>
  <speed>2.250000</speed>
</trkpt>
<trkpt lat="32.864601135" lon="35.248054504">
  <ele>291.971191</ele>
  <time>2011-09-02T06:09:28Z</time>
  <speed>2.200000</speed>
</trkpt>
<trkpt lat="32.864574432" lon="35.248046875">
  <ele>291.650879</ele>
  <time>2011-09-02T06:09:29Z</time>
  <speed>3.150000</speed>
</trkpt>
<trkpt lat="32.864540100" lon="35.248035431">
  <ele>291.283691</ele>
  <time>2011-09-02T06:09:30Z</time>
  <speed>4.070000</speed>
</trkpt>
<trkpt lat="32.864505768" lon="35.248012543">
  <ele>291.189941</ele>
  <time>2011-09-02T06:09:31Z</time>
  <speed>4.030000</speed>
</trkpt>
<trkpt lat="32.864475250" lon="35.247985840">
  <ele>290.502441</ele>
  <time>2011-09-02T06:09:32Z</time>
  <speed>3.830000</speed>
</trkpt>
<trkpt lat="32.864452362" lon="35.247959137">
  <ele>290.346191</ele>
  <time>2011-09-02T06:09:33Z</time>
  <speed>3.190000</speed>
</trkpt>
<trkpt lat="32.864406586" lon="35.247928619">
  <ele>289.783691</ele>
  <time>2011-09-02T06:09:35Z</time>
  <speed>2.680000</speed>
</trkpt>
<trkpt lat="32.864379883" lon="35.247913361">
  <ele>289.760254</ele>
  <time>2011-09-02T06:09:36Z</time>
  <speed>3.040000</speed>
</trkpt>
<trkpt lat="32.864353180" lon="35.247901917">
  <ele>289.330566</ele>
  <time>2011-09-02T06:09:37Z</time>
  <speed>3.180000</speed>
</trkpt>
<trkpt lat="32.864315033" lon="35.247894287">
  <ele>289.025879</ele>
  <time>2011-09-02T06:09:38Z</time>
  <speed>4.300000</speed>
</trkpt>
<trkpt lat="32.864273071" lon="35.247894287">
  <ele>288.682129</ele>
  <time>2011-09-02T06:09:39Z</time>
  <speed>4.520000</speed>
</trkpt>
<trkpt lat="32.864215851" lon="35.247905731">
  <ele>287.893066</ele>
  <time>2011-09-02T06:09:40Z</time>
  <speed>4.940000</speed>
</trkpt>
<trkpt lat="32.864170074" lon="35.247894287">
  <ele>287.205566</ele>
  <time>2011-09-02T06:09:41Z</time>
  <speed>5.180000</speed>
</trkpt>
<trkpt lat="32.864120483" lon="35.247882843">
  <ele>286.768066</ele>
  <time>2011-09-02T06:09:42Z</time>
  <speed>4.880000</speed>
</trkpt>
<trkpt lat="32.864070892" lon="35.247875214">
  <ele>286.307129</ele>
  <time>2011-09-02T06:09:43Z</time>
  <speed>5.390000</speed>
</trkpt>
<trkpt lat="32.864017487" lon="35.247867584">
  <ele>285.783691</ele>
  <time>2011-09-02T06:09:44Z</time>
  <speed>5.070000</speed>
</trkpt>
<trkpt lat="32.863960266" lon="35.247867584">
  <ele>285.268066</ele>
  <time>2011-09-02T06:09:45Z</time>
  <speed>5.690000</speed>
</trkpt>
<trkpt lat="32.863906860" lon="35.247852325">
  <ele>284.619629</ele>
  <time>2011-09-02T06:09:46Z</time>
  <speed>5.220000</speed>
</trkpt>
<trkpt lat="32.863845825" lon="35.247833252">
  <ele>284.088379</ele>
  <time>2011-09-02T06:09:47Z</time>
  <speed>4.770000</speed>
</trkpt>
<trkpt lat="32.863826752" lon="35.247795105">
  <ele>282.955566</ele>
  <time>2011-09-02T06:09:48Z</time>
  <speed>4.680000</speed>
</trkpt>
<trkpt lat="32.863811493" lon="35.247760773">
  <ele>281.838379</ele>
  <time>2011-09-02T06:09:49Z</time>
  <speed>4.500000</speed>
</trkpt>
<trkpt lat="32.863780975" lon="35.247714996">
  <ele>281.135254</ele>
  <time>2011-09-02T06:09:50Z</time>
  <speed>5.090000</speed>
</trkpt>
<trkpt lat="32.863765717" lon="35.247665405">
  <ele>280.143066</ele>
  <time>2011-09-02T06:09:51Z</time>
  <speed>5.480000</speed>
</trkpt>
<trkpt lat="32.863750458" lon="35.247623444">
  <ele>279.494629</ele>
  <time>2011-09-02T06:09:52Z</time>
  <speed>4.600000</speed>
</trkpt>
<trkpt lat="32.863735199" lon="35.247589111">
  <ele>278.791504</ele>
  <time>2011-09-02T06:09:53Z</time>
  <speed>2.620000</speed>
</trkpt>
<trkpt lat="32.863727570" lon="35.247558594">
  <ele>277.197754</ele>
  <time>2011-09-02T06:09:54Z</time>
  <speed>2.500000</speed>
</trkpt>
<trkpt lat="32.863735199" lon="35.247512817">
  <ele>276.236816</ele>
  <time>2011-09-02T06:09:55Z</time>
  <speed>4.410000</speed>
</trkpt>
<trkpt lat="32.863739014" lon="35.247459412">
  <ele>275.635254</ele>
  <time>2011-09-02T06:09:56Z</time>
  <speed>5.060000</speed>
</trkpt>
<trkpt lat="32.863758087" lon="35.247394562">
  <ele>274.580566</ele>
  <time>2011-09-02T06:09:57Z</time>
  <speed>5.620000</speed>
</trkpt>
<trkpt lat="32.863784790" lon="35.247333527">
  <ele>273.697754</ele>
  <time>2011-09-02T06:09:58Z</time>
  <speed>5.360000</speed>
</trkpt>
<trkpt lat="32.863807678" lon="35.247283936">
  <ele>272.814941</ele>
  <time>2011-09-02T06:09:59Z</time>
  <speed>5.280000</speed>
</trkpt>
<trkpt lat="32.863822937" lon="35.247215271">
  <ele>271.744629</ele>
  <time>2011-09-02T06:10:00Z</time>
  <speed>6.260000</speed>
</trkpt>
<trkpt lat="32.863826752" lon="35.247135162">
  <ele>271.182129</ele>
  <time>2011-09-02T06:10:01Z</time>
  <speed>6.560000</speed>
</trkpt>
<trkpt lat="32.863857269" lon="35.247066498">
  <ele>270.760254</ele>
  <time>2011-09-02T06:10:02Z</time>
  <speed>7.720000</speed>
</trkpt>
<trkpt lat="32.863906860" lon="35.247009277">
  <ele>269.549316</ele>
  <time>2011-09-02T06:10:03Z</time>
  <speed>6.940000</speed>
</trkpt>
<trkpt lat="32.863960266" lon="35.246982574">
  <ele>269.025879</ele>
  <time>2011-09-02T06:10:04Z</time>
  <speed>5.730000</speed>
</trkpt>
<trkpt lat="32.864006042" lon="35.246963501">
  <ele>268.439941</ele>
  <time>2011-09-02T06:10:05Z</time>
  <speed>5.240000</speed>
</trkpt>
<trkpt lat="32.864044189" lon="35.246944427">
  <ele>267.729004</ele>
  <time>2011-09-02T06:10:06Z</time>
  <speed>3.940000</speed>
</trkpt>
<trkpt lat="32.864051819" lon="35.246913910">
  <ele>266.643066</ele>
  <time>2011-09-02T06:10:08Z</time>
  <speed>1.400000</speed>
</trkpt>
<trkpt lat="32.864028931" lon="35.246894836">
  <ele>265.518066</ele>
  <time>2011-09-02T06:10:09Z</time>
  <speed>2.690000</speed>
</trkpt>
<trkpt lat="32.864002228" lon="35.246849060">
  <ele>263.783691</ele>
  <time>2011-09-02T06:10:11Z</time>
  <speed>2.760000</speed>
</trkpt>
<trkpt lat="32.864002228" lon="35.246791840">
  <ele>262.174316</ele>
  <time>2011-09-02T06:10:13Z</time>
  <speed>3.570000</speed>
</trkpt>
<trkpt lat="32.864021301" lon="35.246761322">
  <ele>261.166504</ele>
  <time>2011-09-02T06:10:14Z</time>
  <speed>3.110000</speed>
</trkpt>
<trkpt lat="32.864051819" lon="35.246730804">
  <ele>259.955566</ele>
  <time>2011-09-02T06:10:15Z</time>
  <speed>4.710000</speed>
</trkpt>
<trkpt lat="32.864086151" lon="35.246704102">
  <ele>258.908691</ele>
  <time>2011-09-02T06:10:16Z</time>
  <speed>4.060000</speed>
</trkpt>
<trkpt lat="32.864120483" lon="35.246669769">
  <ele>257.799316</ele>
  <time>2011-09-02T06:10:17Z</time>
  <speed>4.800000</speed>
</trkpt>
<trkpt lat="32.864154816" lon="35.246620178">
  <ele>258.314941</ele>
  <time>2011-09-02T06:10:18Z</time>
  <speed>4.490000</speed>
</trkpt>
<trkpt lat="32.864200592" lon="35.246612549">
  <ele>257.377441</ele>
  <time>2011-09-02T06:10:19Z</time>
  <speed>4.130000</speed>
</trkpt>
<trkpt lat="32.864238739" lon="35.246608734">
  <ele>256.588379</ele>
  <time>2011-09-02T06:10:20Z</time>
  <speed>4.070000</speed>
</trkpt>
<trkpt lat="32.864280701" lon="35.246593475">
  <ele>255.618408</ele>
  <time>2011-09-02T06:10:21Z</time>
  <speed>4.060000</speed>
</trkpt>
<trkpt lat="32.864334106" lon="35.246578217">
  <ele>253.868408</ele>
  <time>2011-09-02T06:10:22Z</time>
  <speed>5.500000</speed>
</trkpt>
<trkpt lat="32.864387512" lon="35.246555328">
  <ele>252.434814</ele>
  <time>2011-09-02T06:10:23Z</time>
  <speed>5.800000</speed>
</trkpt>
<trkpt lat="32.864463806" lon="35.246540070">
  <ele>252.028564</ele>
  <time>2011-09-02T06:10:24Z</time>
  <speed>5.480000</speed>
</trkpt>
<trkpt lat="32.864521027" lon="35.246517181">
  <ele>250.313721</ele>
  <time>2011-09-02T06:10:25Z</time>
  <speed>5.060000</speed>
</trkpt>
<trkpt lat="32.864547729" lon="35.246486664">
  <ele>248.376221</ele>
  <time>2011-09-02T06:10:26Z</time>
  <speed>2.130000</speed>
</trkpt>
<trkpt lat="32.864559174" lon="35.246452332">
  <ele>247.942627</ele>
  <time>2011-09-02T06:10:27Z</time>
  <speed>1.220000</speed>
</trkpt>
<trkpt lat="32.864536285" lon="35.246421814">
  <ele>247.450439</ele>
  <time>2011-09-02T06:10:28Z</time>
  <speed>3.040000</speed>
</trkpt>
<trkpt lat="32.864498138" lon="35.246395111">
  <ele>245.954346</ele>
  <time>2011-09-02T06:10:29Z</time>
  <speed>3.660000</speed>
</trkpt>
<trkpt lat="32.864467621" lon="35.246364594">
  <ele>244.766846</ele>
  <time>2011-09-02T06:10:30Z</time>
  <speed>3.340000</speed>
</trkpt>
<trkpt lat="32.864440918" lon="35.246330261">
  <ele>243.700439</ele>
  <time>2011-09-02T06:10:31Z</time>
  <speed>4.460000</speed>
</trkpt>
<trkpt lat="32.864410400" lon="35.246295929">
  <ele>242.770752</ele>
  <time>2011-09-02T06:10:32Z</time>
  <speed>4.200000</speed>
</trkpt>
<trkpt lat="32.864372253" lon="35.246250153">
  <ele>241.563721</ele>
  <time>2011-09-02T06:10:33Z</time>
  <speed>4.540000</speed>
</trkpt>
<trkpt lat="32.864334106" lon="35.246208191">
  <ele>240.114502</ele>
  <time>2011-09-02T06:10:34Z</time>
  <speed>5.150000</speed>
</trkpt>
<trkpt lat="32.864292145" lon="35.246173859">
  <ele>238.907471</ele>
  <time>2011-09-02T06:10:35Z</time>
  <speed>5.160000</speed>
</trkpt>
<trkpt lat="32.864238739" lon="35.246124268">
  <ele>239.235596</ele>
  <time>2011-09-02T06:10:36Z</time>
  <speed>4.340000</speed>
</trkpt>
<trkpt lat="32.864204407" lon="35.246097565">
  <ele>238.692627</ele>
  <time>2011-09-02T06:10:37Z</time>
  <speed>3.380000</speed>
</trkpt>
<trkpt lat="32.864185333" lon="35.246067047">
  <ele>238.005127</ele>
  <time>2011-09-02T06:10:38Z</time>
  <speed>3.360000</speed>
</trkpt>
<trkpt lat="32.864154816" lon="35.246044159">
  <ele>237.415283</ele>
  <time>2011-09-02T06:10:39Z</time>
  <speed>4.670000</speed>
</trkpt>
<trkpt lat="32.864112854" lon="35.246013641">
  <ele>236.352783</ele>
  <time>2011-09-02T06:10:40Z</time>
  <speed>4.920000</speed>
</trkpt>
<trkpt lat="32.864070892" lon="35.245967865">
  <ele>235.434814</ele>
  <time>2011-09-02T06:10:41Z</time>
  <speed>4.750000</speed>
</trkpt>
<trkpt lat="32.864040375" lon="35.245929718">
  <ele>234.669189</ele>
  <time>2011-09-02T06:10:42Z</time>
  <speed>4.760000</speed>
</trkpt>
<trkpt lat="32.864013672" lon="35.245895386">
  <ele>234.028564</ele>
  <time>2011-09-02T06:10:43Z</time>
  <speed>4.480000</speed>
</trkpt>
<trkpt lat="32.863998413" lon="35.245853424">
  <ele>233.012939</ele>
  <time>2011-09-02T06:10:44Z</time>
  <speed>4.370000</speed>
</trkpt>
<trkpt lat="32.863975525" lon="35.245800018">
  <ele>232.188721</ele>
  <time>2011-09-02T06:10:45Z</time>
  <speed>4.830000</speed>
</trkpt>
<trkpt lat="32.863945007" lon="35.245758057">
  <ele>231.594971</ele>
  <time>2011-09-02T06:10:46Z</time>
  <speed>4.860000</speed>
</trkpt>
<trkpt lat="32.863929749" lon="35.245719910">
  <ele>230.473877</ele>
  <time>2011-09-02T06:10:48Z</time>
  <speed>2.440000</speed>
</trkpt>
<trkpt lat="32.863945007" lon="35.245681763">
  <ele>228.887939</ele>
  <time>2011-09-02T06:10:49Z</time>
  <speed>4.250000</speed>
</trkpt>
<trkpt lat="32.863941193" lon="35.245632172">
  <ele>227.798096</ele>
  <time>2011-09-02T06:10:50Z</time>
  <speed>3.270000</speed>
</trkpt>
<trkpt lat="32.863918304" lon="35.245555878">
  <ele>226.278564</ele>
  <time>2011-09-02T06:10:52Z</time>
  <speed>3.230000</speed>
</trkpt>
<trkpt lat="32.863887787" lon="35.245517731">
  <ele>225.481689</ele>
  <time>2011-09-02T06:10:53Z</time>
  <speed>3.820000</speed>
</trkpt>
<trkpt lat="32.863857269" lon="35.245471954">
  <ele>224.630127</ele>
  <time>2011-09-02T06:10:54Z</time>
  <speed>4.050000</speed>
</trkpt>
<trkpt lat="32.863830566" lon="35.245433807">
  <ele>223.817627</ele>
  <time>2011-09-02T06:10:55Z</time>
  <speed>3.870000</speed>
</trkpt>
<trkpt lat="32.863800049" lon="35.245410919">
  <ele>223.087158</ele>
  <time>2011-09-02T06:10:56Z</time>
  <speed>3.820000</speed>
</trkpt>
<trkpt lat="32.863754272" lon="35.245388031">
  <ele>222.262939</ele>
  <time>2011-09-02T06:10:57Z</time>
  <speed>3.400000</speed>
</trkpt>
<trkpt lat="32.863735199" lon="35.245357513">
  <ele>221.231689</ele>
  <time>2011-09-02T06:10:58Z</time>
  <speed>3.360000</speed>
</trkpt>
<trkpt lat="32.863723755" lon="35.245323181">
  <ele>220.290283</ele>
  <time>2011-09-02T06:10:59Z</time>
  <speed>2.890000</speed>
</trkpt>
<trkpt lat="32.863712311" lon="35.245277405">
  <ele>218.719971</ele>
  <time>2011-09-02T06:11:00Z</time>
  <speed>3.570000</speed>
</trkpt>
<trkpt lat="32.863716125" lon="35.245212555">
  <ele>217.895752</ele>
  <time>2011-09-02T06:11:01Z</time>
  <speed>3.620000</speed>
</trkpt>
<trkpt lat="32.863693237" lon="35.245174408">
  <ele>216.309814</ele>
  <time>2011-09-02T06:11:03Z</time>
  <speed>2.440000</speed>
</trkpt>
<trkpt lat="32.863651276" lon="35.245147705">
  <ele>214.755127</ele>
  <time>2011-09-02T06:11:05Z</time>
  <speed>1.480000</speed>
</trkpt>
<trkpt lat="32.863620758" lon="35.245117188">
  <ele>213.180908</ele>
  <time>2011-09-02T06:11:07Z</time>
  <speed>2.630000</speed>
</trkpt>
<trkpt lat="32.863578796" lon="35.245113373">
  <ele>212.805908</ele>
  <time>2011-09-02T06:11:08Z</time>
  <speed>2.450000</speed>
</trkpt>
<trkpt lat="32.863536835" lon="35.245090485">
  <ele>211.716064</ele>
  <time>2011-09-02T06:11:10Z</time>
  <speed>2.340000</speed>
</trkpt>
<trkpt lat="32.863510132" lon="35.245059967">
  <ele>211.118408</ele>
  <time>2011-09-02T06:11:11Z</time>
  <speed>2.580000</speed>
</trkpt>
<trkpt lat="32.863491058" lon="35.245029449">
  <ele>210.481689</ele>
  <time>2011-09-02T06:11:12Z</time>
  <speed>2.720000</speed>
</trkpt>
<trkpt lat="32.863464355" lon="35.245006561">
  <ele>209.942627</ele>
  <time>2011-09-02T06:11:13Z</time>
  <speed>2.450000</speed>
</trkpt>
<trkpt lat="32.863445282" lon="35.244983673">
  <ele>209.079346</ele>
  <time>2011-09-02T06:11:14Z</time>
  <speed>3.030000</speed>
</trkpt>
<trkpt lat="32.863384247" lon="35.244903564">
  <ele>211.442627</ele>
  <time>2011-09-02T06:11:15Z</time>
  <speed>3.190000</speed>
</trkpt>
<trkpt lat="32.863342285" lon="35.244865417">
  <ele>211.719971</ele>
  <time>2011-09-02T06:11:16Z</time>
  <speed>3.340000</speed>
</trkpt>
<trkpt lat="32.863311768" lon="35.244842529">
  <ele>210.923096</ele>
  <time>2011-09-02T06:11:17Z</time>
  <speed>3.170000</speed>
</trkpt>
<trkpt lat="32.863285065" lon="35.244812012">
  <ele>210.262939</ele>
  <time>2011-09-02T06:11:18Z</time>
  <speed>3.240000</speed>
</trkpt>
<trkpt lat="32.863265991" lon="35.244785309">
  <ele>209.497314</ele>
  <time>2011-09-02T06:11:19Z</time>
  <speed>3.060000</speed>
</trkpt>
<trkpt lat="32.863243103" lon="35.244750977">
  <ele>208.270752</ele>
  <time>2011-09-02T06:11:20Z</time>
  <speed>3.790000</speed>
</trkpt>
<trkpt lat="32.863227844" lon="35.244716644">
  <ele>207.532471</ele>
  <time>2011-09-02T06:11:21Z</time>
  <speed>3.480000</speed>
</trkpt>
<trkpt lat="32.863201141" lon="35.244678497">
  <ele>206.755127</ele>
  <time>2011-09-02T06:11:22Z</time>
  <speed>4.130000</speed>
</trkpt>
<trkpt lat="32.863155365" lon="35.244640350">
  <ele>205.825439</ele>
  <time>2011-09-02T06:11:23Z</time>
  <speed>5.430000</speed>
</trkpt>
<trkpt lat="32.863109589" lon="35.244602203">
  <ele>205.153564</ele>
  <time>2011-09-02T06:11:24Z</time>
  <speed>6.030000</speed>
</trkpt>
<trkpt lat="32.863056183" lon="35.244560242">
  <ele>204.274658</ele>
  <time>2011-09-02T06:11:25Z</time>
  <speed>6.140000</speed>
</trkpt>
<trkpt lat="32.863010406" lon="35.244514465">
  <ele>203.469971</ele>
  <time>2011-09-02T06:11:26Z</time>
  <speed>5.970000</speed>
</trkpt>
<trkpt lat="32.862960815" lon="35.244499207">
  <ele>202.907471</ele>
  <time>2011-09-02T06:11:27Z</time>
  <speed>4.710000</speed>
</trkpt>
<trkpt lat="32.862918854" lon="35.244495392">
  <ele>202.446533</ele>
  <time>2011-09-02T06:11:28Z</time>
  <speed>3.910000</speed>
</trkpt>
<trkpt lat="32.862876892" lon="35.244487762">
  <ele>201.653564</ele>
  <time>2011-09-02T06:11:29Z</time>
  <speed>2.910000</speed>
</trkpt>
<trkpt lat="32.862838745" lon="35.244476318">
  <ele>201.005127</ele>
  <time>2011-09-02T06:11:30Z</time>
  <speed>3.310000</speed>
</trkpt>
<trkpt lat="32.862804413" lon="35.244449615">
  <ele>200.274658</ele>
  <time>2011-09-02T06:11:31Z</time>
  <speed>3.060000</speed>
</trkpt>
<trkpt lat="32.862777710" lon="35.244419098">
  <ele>198.802002</ele>
  <time>2011-09-02T06:11:32Z</time>
  <speed>4.060000</speed>
</trkpt>
<trkpt lat="32.862709045" lon="35.244422913">
  <ele>196.751221</ele>
  <time>2011-09-02T06:11:33Z</time>
  <speed>4.780000</speed>
</trkpt>
<trkpt lat="32.862674713" lon="35.244422913">
  <ele>195.946533</ele>
  <time>2011-09-02T06:11:34Z</time>
  <speed>3.040000</speed>
</trkpt>
<trkpt lat="32.862632751" lon="35.244384766">
  <ele>195.137939</ele>
  <time>2011-09-02T06:11:36Z</time>
  <speed>1.090000</speed>
</trkpt>
<trkpt lat="32.862606049" lon="35.244388580">
  <ele>194.325439</ele>
  <time>2011-09-02T06:11:38Z</time>
  <speed>0.320000</speed>
</trkpt>
<trkpt lat="32.862594604" lon="35.244365692">
  <ele>196.091064</ele>
  <time>2011-09-02T06:12:22Z</time>
  <speed>0.080000</speed>
</trkpt>
<trkpt lat="32.862613678" lon="35.244346619">
  <ele>197.485596</ele>
  <time>2011-09-02T06:13:44Z</time>
  <speed>0.190000</speed>
</trkpt>
<trkpt lat="32.862594604" lon="35.244358063">
  <ele>199.598877</ele>
  <time>2011-09-02T06:14:13Z</time>
  <speed>0.210000</speed>
</trkpt>
<trkpt lat="32.862571716" lon="35.244373322">
  <ele>200.973877</ele>
  <time>2011-09-02T06:14:26Z</time>
  <speed>0.240000</speed>
</trkpt>
<trkpt lat="32.862564087" lon="35.244403839">
  <ele>202.313721</ele>
  <time>2011-09-02T06:14:36Z</time>
  <speed>0.210000</speed>
</trkpt>
<trkpt lat="32.862548828" lon="35.244422913">
  <ele>204.598877</ele>
  <time>2011-09-02T06:14:51Z</time>
  <speed>0.140000</speed>
</trkpt>
<trkpt lat="32.862545013" lon="35.244426727">
  <ele>207.524658</ele>
  <time>2011-09-02T06:15:07Z</time>
  <speed>0.080000</speed>
</trkpt>
<trkpt lat="32.862537384" lon="35.244422913">
  <ele>210.497314</ele>
  <time>2011-09-02T06:15:23Z</time>
  <speed>0.060000</speed>
</trkpt>
<trkpt lat="32.862533569" lon="35.244434357">
  <ele>213.372314</ele>
  <time>2011-09-02T06:15:38Z</time>
  <speed>0.130000</speed>
</trkpt>
<trkpt lat="32.862529755" lon="35.244457245">
  <ele>215.825439</ele>
  <time>2011-09-02T06:15:49Z</time>
  <speed>0.180000</speed>
</trkpt>
<trkpt lat="32.862529755" lon="35.244461060">
  <ele>218.903564</ele>
  <time>2011-09-02T06:16:01Z</time>
  <speed>0.050000</speed>
</trkpt>
<trkpt lat="32.862525940" lon="35.244461060">
  <ele>222.012939</ele>
  <time>2011-09-02T06:16:11Z</time>
  <speed>0.040000</speed>
</trkpt>
<trkpt lat="32.862525940" lon="35.244464874">
  <ele>225.067627</ele>
  <time>2011-09-02T06:16:22Z</time>
  <speed>0.030000</speed>
</trkpt>
<trkpt lat="32.862518311" lon="35.244468689">
  <ele>228.259033</ele>
  <time>2011-09-02T06:16:32Z</time>
  <speed>0.050000</speed>
</trkpt>
<trkpt lat="32.862529755" lon="35.244453430">
  <ele>230.805908</ele>
  <time>2011-09-02T06:16:47Z</time>
  <speed>0.200000</speed>
</trkpt>
<trkpt lat="32.862541199" lon="35.244426727">
  <ele>232.020752</ele>
  <time>2011-09-02T06:17:00Z</time>
  <speed>0.280000</speed>
</trkpt>
<trkpt lat="32.862560272" lon="35.244396210">
  <ele>232.532471</ele>
  <time>2011-09-02T06:17:04Z</time>
  <speed>0.340000</speed>
</trkpt>
<trkpt lat="32.862583160" lon="35.244369507">
  <ele>232.751221</ele>
  <time>2011-09-02T06:17:07Z</time>
  <speed>0.420000</speed>
</trkpt>
<trkpt lat="32.862609863" lon="35.244354248">
  <ele>232.907471</ele>
  <time>2011-09-02T06:17:10Z</time>
  <speed>0.450000</speed>
</trkpt>
<trkpt lat="32.862606049" lon="35.244293213">
  <ele>233.368408</ele>
  <time>2011-09-02T06:17:14Z</time>
  <speed>0.440000</speed>
</trkpt>
<trkpt lat="32.862602234" lon="35.244258881">
  <ele>233.712158</ele>
  <time>2011-09-02T06:17:17Z</time>
  <speed>0.420000</speed>
</trkpt>
<trkpt lat="32.862636566" lon="35.244255066">
  <ele>234.520752</ele>
  <time>2011-09-02T06:17:21Z</time>
  <speed>0.390000</speed>
</trkpt>
<trkpt lat="32.862636566" lon="35.244277954">
  <ele>236.626221</ele>
  <time>2011-09-02T06:17:35Z</time>
  <speed>0.200000</speed>
</trkpt>
<trkpt lat="32.862625122" lon="35.244304657">
  <ele>237.680908</ele>
  <time>2011-09-02T06:17:55Z</time>
  <speed>0.330000</speed>
</trkpt>
<trkpt lat="32.862617493" lon="35.244331360">
  <ele>239.024658</ele>
  <time>2011-09-02T06:18:16Z</time>
  <speed>0.060000</speed>
</trkpt>
<trkpt lat="32.862644196" lon="35.244323730">
  <ele>240.387939</ele>
  <time>2011-09-02T06:18:32Z</time>
  <speed>0.260000</speed>
</trkpt>
<trkpt lat="32.862659454" lon="35.244297028">
  <ele>241.298096</ele>
  <time>2011-09-02T06:18:43Z</time>
  <speed>0.310000</speed>
</trkpt>
<trkpt lat="32.862678528" lon="35.244300842">
  <ele>243.446533</ele>
  <time>2011-09-02T06:19:08Z</time>
  <speed>0.070000</speed>
</trkpt>
<trkpt lat="32.862659454" lon="35.244300842">
  <ele>245.630127</ele>
  <time>2011-09-02T06:19:34Z</time>
  <speed>0.340000</speed>
</trkpt>
<trkpt lat="32.862583160" lon="35.244262695">
  <ele>245.352783</ele>
  <time>2011-09-02T06:19:35Z</time>
  <speed>0.380000</speed>
</trkpt>
<trkpt lat="32.862545013" lon="35.244239807">
  <ele>245.282471</ele>
  <time>2011-09-02T06:19:36Z</time>
  <speed>0.370000</speed>
</trkpt>
<trkpt lat="32.862514496" lon="35.244228363">
  <ele>245.079346</ele>
  <time>2011-09-02T06:19:39Z</time>
  <speed>0.360000</speed>
</trkpt>
<trkpt lat="32.862491608" lon="35.244205475">
  <ele>245.352783</ele>
  <time>2011-09-02T06:19:43Z</time>
  <speed>0.380000</speed>
</trkpt>
<trkpt lat="32.862445831" lon="35.244182587">
  <ele>244.321533</ele>
  <time>2011-09-02T06:19:46Z</time>
  <speed>0.840000</speed>
</trkpt>
<trkpt lat="32.862419128" lon="35.244171143">
  <ele>243.716064</ele>
  <time>2011-09-02T06:19:47Z</time>
  <speed>1.460000</speed>
</trkpt>
<trkpt lat="32.862388611" lon="35.244144440">
  <ele>243.333252</ele>
  <time>2011-09-02T06:19:48Z</time>
  <speed>2.020000</speed>
</trkpt>
<trkpt lat="32.862361908" lon="35.244129181">
  <ele>242.973877</ele>
  <time>2011-09-02T06:19:49Z</time>
  <speed>2.480000</speed>
</trkpt>
<trkpt lat="32.862323761" lon="35.244113922">
  <ele>242.559814</ele>
  <time>2011-09-02T06:19:50Z</time>
  <speed>3.000000</speed>
</trkpt>
<trkpt lat="32.862281799" lon="35.244087219">
  <ele>242.063721</ele>
  <time>2011-09-02T06:19:51Z</time>
  <speed>3.250000</speed>
</trkpt>
<trkpt lat="32.862247467" lon="35.244052887">
  <ele>241.657471</ele>
  <time>2011-09-02T06:19:52Z</time>
  <speed>3.510000</speed>
</trkpt>
<trkpt lat="32.862220764" lon="35.244033813">
  <ele>241.473877</ele>
  <time>2011-09-02T06:19:53Z</time>
  <speed>3.110000</speed>
</trkpt>
<trkpt lat="32.862167358" lon="35.244003296">
  <ele>239.618408</ele>
  <time>2011-09-02T06:19:55Z</time>
  <speed>2.790000</speed>
</trkpt>
<trkpt lat="32.862136841" lon="35.243972778">
  <ele>238.973877</ele>
  <time>2011-09-02T06:19:56Z</time>
  <speed>2.950000</speed>
</trkpt>
<trkpt lat="32.862106323" lon="35.243942261">
  <ele>238.427002</ele>
  <time>2011-09-02T06:19:57Z</time>
  <speed>2.560000</speed>
</trkpt>
<trkpt lat="32.862045288" lon="35.243892670">
  <ele>237.114502</ele>
  <time>2011-09-02T06:19:59Z</time>
  <speed>4.270000</speed>
</trkpt>
<trkpt lat="32.861968994" lon="35.243873596">
  <ele>235.173096</ele>
  <time>2011-09-02T06:20:00Z</time>
  <speed>5.610000</speed>
</trkpt>
<trkpt lat="32.861904144" lon="35.243873596">
  <ele>234.102783</ele>
  <time>2011-09-02T06:20:01Z</time>
  <speed>5.470000</speed>
</trkpt>
<trkpt lat="32.861850739" lon="35.243862152">
  <ele>232.661377</ele>
  <time>2011-09-02T06:20:02Z</time>
  <speed>5.200000</speed>
</trkpt>
<trkpt lat="32.861797333" lon="35.243850708">
  <ele>231.262939</ele>
  <time>2011-09-02T06:20:03Z</time>
  <speed>4.350000</speed>
</trkpt>
<trkpt lat="32.861763000" lon="35.243835449">
  <ele>230.579346</ele>
  <time>2011-09-02T06:20:04Z</time>
  <speed>3.390000</speed>
</trkpt>
<trkpt lat="32.861724854" lon="35.243816376">
  <ele>228.919189</ele>
  <time>2011-09-02T06:20:05Z</time>
  <speed>3.890000</speed>
</trkpt>
<trkpt lat="32.861679077" lon="35.243785858">
  <ele>227.634033</ele>
  <time>2011-09-02T06:20:06Z</time>
  <speed>5.480000</speed>
</trkpt>
<trkpt lat="32.861637115" lon="35.243743896">
  <ele>226.700439</ele>
  <time>2011-09-02T06:20:07Z</time>
  <speed>5.670000</speed>
</trkpt>
<trkpt lat="32.861587524" lon="35.243701935">
  <ele>225.333252</ele>
  <time>2011-09-02T06:20:08Z</time>
  <speed>6.140000</speed>
</trkpt>
<trkpt lat="32.861553192" lon="35.243682861">
  <ele>222.505127</ele>
  <time>2011-09-02T06:20:09Z</time>
  <speed>5.720000</speed>
</trkpt>
<trkpt lat="32.861511230" lon="35.243671417">
  <ele>218.407471</ele>
  <time>2011-09-02T06:20:10Z</time>
  <speed>5.700000</speed>
</trkpt>
<trkpt lat="32.861473083" lon="35.243656158">
  <ele>216.989502</ele>
  <time>2011-09-02T06:20:11Z</time>
  <speed>4.870000</speed>
</trkpt>
<trkpt lat="32.861434937" lon="35.243637085">
  <ele>215.387939</ele>
  <time>2011-09-02T06:20:12Z</time>
  <speed>3.730000</speed>
</trkpt>
<trkpt lat="32.861412048" lon="35.243621826">
  <ele>214.134033</ele>
  <time>2011-09-02T06:20:13Z</time>
  <speed>3.430000</speed>
</trkpt>
<trkpt lat="32.861377716" lon="35.243606567">
  <ele>212.856689</ele>
  <time>2011-09-02T06:20:14Z</time>
  <speed>3.970000</speed>
</trkpt>
<trkpt lat="32.861351013" lon="35.243595123">
  <ele>210.278564</ele>
  <time>2011-09-02T06:20:15Z</time>
  <speed>4.620000</speed>
</trkpt>
<trkpt lat="32.861316681" lon="35.243576050">
  <ele>208.579346</ele>
  <time>2011-09-02T06:20:16Z</time>
  <speed>4.220000</speed>
</trkpt>
<trkpt lat="32.861278534" lon="35.243556976">
  <ele>206.798096</ele>
  <time>2011-09-02T06:20:17Z</time>
  <speed>4.870000</speed>
</trkpt>
<trkpt lat="32.861236572" lon="35.243526459">
  <ele>205.372314</ele>
  <time>2011-09-02T06:20:18Z</time>
  <speed>4.670000</speed>
</trkpt>
<trkpt lat="32.861194611" lon="35.243499756">
  <ele>203.630127</ele>
  <time>2011-09-02T06:20:19Z</time>
  <speed>4.980000</speed>
</trkpt>
<trkpt lat="32.861156464" lon="35.243469238">
  <ele>202.649658</ele>
  <time>2011-09-02T06:20:20Z</time>
  <speed>4.500000</speed>
</trkpt>
<trkpt lat="32.861114502" lon="35.243423462">
  <ele>202.364502</ele>
  <time>2011-09-02T06:20:21Z</time>
  <speed>5.360000</speed>
</trkpt>
<trkpt lat="32.861095428" lon="35.243370056">
  <ele>200.423096</ele>
  <time>2011-09-02T06:20:22Z</time>
  <speed>5.260000</speed>
</trkpt>
<trkpt lat="32.861072540" lon="35.243312836">
  <ele>198.915283</ele>
  <time>2011-09-02T06:20:23Z</time>
  <speed>5.210000</speed>
</trkpt>
<trkpt lat="32.861061096" lon="35.243255615">
  <ele>197.669189</ele>
  <time>2011-09-02T06:20:24Z</time>
  <speed>4.840000</speed>
</trkpt>
<trkpt lat="32.861057281" lon="35.243209839">
  <ele>196.704346</ele>
  <time>2011-09-02T06:20:25Z</time>
  <speed>4.200000</speed>
</trkpt>
<trkpt lat="32.861068726" lon="35.243156433">
  <ele>195.302002</ele>
  <time>2011-09-02T06:20:26Z</time>
  <speed>3.430000</speed>
</trkpt>
<trkpt lat="32.861072540" lon="35.243110657">
  <ele>195.262939</ele>
  <time>2011-09-02T06:20:27Z</time>
  <speed>3.190000</speed>
</trkpt>
<trkpt lat="32.861083984" lon="35.243076324">
  <ele>194.571533</ele>
  <time>2011-09-02T06:20:28Z</time>
  <speed>2.630000</speed>
</trkpt>
<trkpt lat="32.861095428" lon="35.243045807">
  <ele>193.739502</ele>
  <time>2011-09-02T06:20:29Z</time>
  <speed>2.110000</speed>
</trkpt>
<trkpt lat="32.861106873" lon="35.243003845">
  <ele>191.188721</ele>
  <time>2011-09-02T06:20:31Z</time>
  <speed>1.230000</speed>
</trkpt>
<trkpt lat="32.861103058" lon="35.242961884">
  <ele>190.255127</ele>
  <time>2011-09-02T06:20:33Z</time>
  <speed>1.800000</speed>
</trkpt>
<trkpt lat="32.861091614" lon="35.242919922">
  <ele>190.149658</ele>
  <time>2011-09-02T06:20:35Z</time>
  <speed>1.700000</speed>
</trkpt>
<trkpt lat="32.861080170" lon="35.242881775">
  <ele>189.700439</ele>
  <time>2011-09-02T06:20:37Z</time>
  <speed>1.690000</speed>
</trkpt>
<trkpt lat="32.861068726" lon="35.242835999">
  <ele>190.591064</ele>
  <time>2011-09-02T06:20:39Z</time>
  <speed>2.050000</speed>
</trkpt>
<trkpt lat="32.861053467" lon="35.242801666">
  <ele>191.563721</ele>
  <time>2011-09-02T06:20:41Z</time>
  <speed>1.650000</speed>
</trkpt>
<trkpt lat="32.861022949" lon="35.242774963">
  <ele>192.524658</ele>
  <time>2011-09-02T06:20:43Z</time>
  <speed>1.750000</speed>
</trkpt>
<trkpt lat="32.861003876" lon="35.242740631">
  <ele>192.966064</ele>
  <time>2011-09-02T06:20:45Z</time>
  <speed>1.470000</speed>
</trkpt>
<trkpt lat="32.860988617" lon="35.242713928">
  <ele>193.192627</ele>
  <time>2011-09-02T06:20:47Z</time>
  <speed>1.760000</speed>
</trkpt>
<trkpt lat="32.860958099" lon="35.242683411">
  <ele>193.505127</ele>
  <time>2011-09-02T06:20:49Z</time>
  <speed>1.550000</speed>
</trkpt>
<trkpt lat="32.860935211" lon="35.242649078">
  <ele>194.442627</ele>
  <time>2011-09-02T06:20:51Z</time>
  <speed>1.740000</speed>
</trkpt>
<trkpt lat="32.860908508" lon="35.242622375">
  <ele>194.747314</ele>
  <time>2011-09-02T06:20:53Z</time>
  <speed>1.890000</speed>
</trkpt>
<trkpt lat="32.860881805" lon="35.242591858">
  <ele>194.661377</ele>
  <time>2011-09-02T06:20:55Z</time>
  <speed>1.940000</speed>
</trkpt>
<trkpt lat="32.860851288" lon="35.242565155">
  <ele>195.071533</ele>
  <time>2011-09-02T06:20:57Z</time>
  <speed>2.220000</speed>
</trkpt>
<trkpt lat="32.860824585" lon="35.242542267">
  <ele>195.485596</ele>
  <time>2011-09-02T06:20:59Z</time>
  <speed>1.740000</speed>
</trkpt>
<trkpt lat="32.860797882" lon="35.242504120">
  <ele>195.786377</ele>
  <time>2011-09-02T06:21:02Z</time>
  <speed>1.700000</speed>
</trkpt>
<trkpt lat="32.860774994" lon="35.242477417">
  <ele>195.833252</ele>
  <time>2011-09-02T06:21:04Z</time>
  <speed>1.510000</speed>
</trkpt>
<trkpt lat="32.860752106" lon="35.242443085">
  <ele>195.524658</ele>
  <time>2011-09-02T06:21:06Z</time>
  <speed>1.790000</speed>
</trkpt>
<trkpt lat="32.860744476" lon="35.242408752">
  <ele>195.067627</ele>
  <time>2011-09-02T06:21:08Z</time>
  <speed>1.710000</speed>
</trkpt>
<trkpt lat="32.860725403" lon="35.242374420">
  <ele>195.950439</ele>
  <time>2011-09-02T06:21:10Z</time>
  <speed>1.600000</speed>
</trkpt>
<trkpt lat="32.860713959" lon="35.242340088">
  <ele>195.145752</ele>
  <time>2011-09-02T06:21:12Z</time>
  <speed>1.660000</speed>
</trkpt>
<trkpt lat="32.860702515" lon="35.242305756">
  <ele>195.231689</ele>
  <time>2011-09-02T06:21:14Z</time>
  <speed>1.670000</speed>
</trkpt>
<trkpt lat="32.860679626" lon="35.242263794">
  <ele>195.657471</ele>
  <time>2011-09-02T06:21:16Z</time>
  <speed>1.720000</speed>
</trkpt>
<trkpt lat="32.860664368" lon="35.242225647">
  <ele>196.141846</ele>
  <time>2011-09-02T06:21:18Z</time>
  <speed>1.900000</speed>
</trkpt>
<trkpt lat="32.860641479" lon="35.242195129">
  <ele>197.075439</ele>
  <time>2011-09-02T06:21:20Z</time>
  <speed>1.760000</speed>
</trkpt>
<trkpt lat="32.860633850" lon="35.242153168">
  <ele>197.563721</ele>
  <time>2011-09-02T06:21:22Z</time>
  <speed>2.090000</speed>
</trkpt>
<trkpt lat="32.860618591" lon="35.242107391">
  <ele>197.833252</ele>
  <time>2011-09-02T06:21:24Z</time>
  <speed>2.240000</speed>
</trkpt>
<trkpt lat="32.860603333" lon="35.242065430">
  <ele>197.841064</ele>
  <time>2011-09-02T06:21:26Z</time>
  <speed>1.980000</speed>
</trkpt>
<trkpt lat="32.860591888" lon="35.242031097">
  <ele>198.165283</ele>
  <time>2011-09-02T06:21:28Z</time>
  <speed>2.050000</speed>
</trkpt>
<trkpt lat="32.860599518" lon="35.241981506">
  <ele>197.661377</ele>
  <time>2011-09-02T06:21:30Z</time>
  <speed>2.370000</speed>
</trkpt>
<trkpt lat="32.860603333" lon="35.241931915">
  <ele>198.157471</ele>
  <time>2011-09-02T06:21:32Z</time>
  <speed>1.860000</speed>
</trkpt>
<trkpt lat="32.860614777" lon="35.241889954">
  <ele>198.290283</ele>
  <time>2011-09-02T06:21:34Z</time>
  <speed>2.200000</speed>
</trkpt>
<trkpt lat="32.860610962" lon="35.241844177">
  <ele>198.180908</ele>
  <time>2011-09-02T06:21:36Z</time>
  <speed>2.030000</speed>
</trkpt>
<trkpt lat="32.860610962" lon="35.241802216">
  <ele>198.196533</ele>
  <time>2011-09-02T06:21:38Z</time>
  <speed>1.390000</speed>
</trkpt>
<trkpt lat="32.860618591" lon="35.241756439">
  <ele>198.032471</ele>
  <time>2011-09-02T06:21:40Z</time>
  <speed>1.900000</speed>
</trkpt>
<trkpt lat="32.860622406" lon="35.241718292">
  <ele>197.477783</ele>
  <time>2011-09-02T06:21:42Z</time>
  <speed>1.940000</speed>
</trkpt>
<trkpt lat="32.860630035" lon="35.241672516">
  <ele>196.946533</ele>
  <time>2011-09-02T06:21:44Z</time>
  <speed>1.880000</speed>
</trkpt>
<trkpt lat="32.860645294" lon="35.241634369">
  <ele>197.009033</ele>
  <time>2011-09-02T06:21:46Z</time>
  <speed>1.920000</speed>
</trkpt>
<trkpt lat="32.860664368" lon="35.241592407">
  <ele>197.223877</ele>
  <time>2011-09-02T06:21:48Z</time>
  <speed>1.920000</speed>
</trkpt>
<trkpt lat="32.860683441" lon="35.241558075">
  <ele>197.407471</ele>
  <time>2011-09-02T06:21:50Z</time>
  <speed>2.130000</speed>
</trkpt>
<trkpt lat="32.860698700" lon="35.241512299">
  <ele>197.544189</ele>
  <time>2011-09-02T06:21:52Z</time>
  <speed>2.280000</speed>
</trkpt>
<trkpt lat="32.860713959" lon="35.241470337">
  <ele>197.962158</ele>
  <time>2011-09-02T06:21:54Z</time>
  <speed>2.140000</speed>
</trkpt>
<trkpt lat="32.860736847" lon="35.241432190">
  <ele>198.505127</ele>
  <time>2011-09-02T06:21:56Z</time>
  <speed>1.920000</speed>
</trkpt>
<trkpt lat="32.860752106" lon="35.241390228">
  <ele>198.540283</ele>
  <time>2011-09-02T06:21:58Z</time>
  <speed>1.960000</speed>
</trkpt>
<trkpt lat="32.860771179" lon="35.241352081">
  <ele>198.630127</ele>
  <time>2011-09-02T06:22:00Z</time>
  <speed>1.970000</speed>
</trkpt>
<trkpt lat="32.860790253" lon="35.241310120">
  <ele>198.622314</ele>
  <time>2011-09-02T06:22:03Z</time>
  <speed>2.000000</speed>
</trkpt>
<trkpt lat="32.860809326" lon="35.241279602">
  <ele>199.087158</ele>
  <time>2011-09-02T06:22:05Z</time>
  <speed>2.260000</speed>
</trkpt>
<trkpt lat="32.860843658" lon="35.241245270">
  <ele>199.149658</ele>
  <time>2011-09-02T06:22:07Z</time>
  <speed>2.390000</speed>
</trkpt>
<trkpt lat="32.860877991" lon="35.241203308">
  <ele>199.083252</ele>
  <time>2011-09-02T06:22:09Z</time>
  <speed>2.830000</speed>
</trkpt>
<trkpt lat="32.860908508" lon="35.241161346">
  <ele>198.634033</ele>
  <time>2011-09-02T06:22:11Z</time>
  <speed>2.800000</speed>
</trkpt>
<trkpt lat="32.860950470" lon="35.241138458">
  <ele>198.360596</ele>
  <time>2011-09-02T06:22:13Z</time>
  <speed>2.720000</speed>
</trkpt>
<trkpt lat="32.860988617" lon="35.241100311">
  <ele>198.696533</ele>
  <time>2011-09-02T06:22:15Z</time>
  <speed>2.910000</speed>
</trkpt>
<trkpt lat="32.861007690" lon="35.241077423">
  <ele>198.790283</ele>
  <time>2011-09-02T06:22:16Z</time>
  <speed>2.840000</speed>
</trkpt>
<trkpt lat="32.861053467" lon="35.241054535">
  <ele>197.876221</ele>
  <time>2011-09-02T06:22:18Z</time>
  <speed>3.120000</speed>
</trkpt>
<trkpt lat="32.861080170" lon="35.241039276">
  <ele>197.993408</ele>
  <time>2011-09-02T06:22:19Z</time>
  <speed>3.190000</speed>
</trkpt>
<trkpt lat="32.861106873" lon="35.241020203">
  <ele>198.079346</ele>
  <time>2011-09-02T06:22:20Z</time>
  <speed>3.130000</speed>
</trkpt>
<trkpt lat="32.861129761" lon="35.240997314">
  <ele>198.024658</ele>
  <time>2011-09-02T06:22:21Z</time>
  <speed>3.350000</speed>
</trkpt>
<trkpt lat="32.861156464" lon="35.240974426">
  <ele>197.696533</ele>
  <time>2011-09-02T06:22:22Z</time>
  <speed>3.240000</speed>
</trkpt>
<trkpt lat="32.861179352" lon="35.240959167">
  <ele>197.868408</ele>
  <time>2011-09-02T06:22:23Z</time>
  <speed>3.190000</speed>
</trkpt>
<trkpt lat="32.861209869" lon="35.240959167">
  <ele>197.407471</ele>
  <time>2011-09-02T06:22:24Z</time>
  <speed>3.470000</speed>
</trkpt>
<trkpt lat="32.861236572" lon="35.240947723">
  <ele>197.009033</ele>
  <time>2011-09-02T06:22:25Z</time>
  <speed>3.270000</speed>
</trkpt>
<trkpt lat="32.861267090" lon="35.240928650">
  <ele>197.419189</ele>
  <time>2011-09-02T06:22:26Z</time>
  <speed>3.310000</speed>
</trkpt>
<trkpt lat="32.861289978" lon="35.240913391">
  <ele>197.098877</ele>
  <time>2011-09-02T06:22:27Z</time>
  <speed>3.300000</speed>
</trkpt>
<trkpt lat="32.861316681" lon="35.240905762">
  <ele>197.091064</ele>
  <time>2011-09-02T06:22:28Z</time>
  <speed>3.370000</speed>
</trkpt>
<trkpt lat="32.861351013" lon="35.240901947">
  <ele>197.411377</ele>
  <time>2011-09-02T06:22:29Z</time>
  <speed>3.460000</speed>
</trkpt>
<trkpt lat="32.861381531" lon="35.240890503">
  <ele>197.712158</ele>
  <time>2011-09-02T06:22:30Z</time>
  <speed>3.340000</speed>
</trkpt>
<trkpt lat="32.861412048" lon="35.240879059">
  <ele>198.173096</ele>
  <time>2011-09-02T06:22:31Z</time>
  <speed>3.710000</speed>
</trkpt>
<trkpt lat="32.861446381" lon="35.240863800">
  <ele>198.864502</ele>
  <time>2011-09-02T06:22:32Z</time>
  <speed>3.510000</speed>
</trkpt>
<trkpt lat="32.861480713" lon="35.240856171">
  <ele>198.782471</ele>
  <time>2011-09-02T06:22:33Z</time>
  <speed>3.500000</speed>
</trkpt>
<trkpt lat="32.861507416" lon="35.240844727">
  <ele>199.024658</ele>
  <time>2011-09-02T06:22:34Z</time>
  <speed>2.800000</speed>
</trkpt>
<trkpt lat="32.861553192" lon="35.240837097">
  <ele>199.430908</ele>
  <time>2011-09-02T06:22:36Z</time>
  <speed>2.380000</speed>
</trkpt>
<trkpt lat="32.861591339" lon="35.240829468">
  <ele>200.212158</ele>
  <time>2011-09-02T06:22:38Z</time>
  <speed>1.920000</speed>
</trkpt>
<trkpt lat="32.861621857" lon="35.240818024">
  <ele>200.501221</ele>
  <time>2011-09-02T06:22:40Z</time>
  <speed>1.670000</speed>
</trkpt>
<trkpt lat="32.861663818" lon="35.240814209">
  <ele>202.395752</ele>
  <time>2011-09-02T06:22:42Z</time>
  <speed>1.910000</speed>
</trkpt>
<trkpt lat="32.861698151" lon="35.240810394">
  <ele>202.571533</ele>
  <time>2011-09-02T06:22:44Z</time>
  <speed>2.240000</speed>
</trkpt>
<trkpt lat="32.861743927" lon="35.240818024">
  <ele>202.313721</ele>
  <time>2011-09-02T06:22:46Z</time>
  <speed>2.100000</speed>
</trkpt>
<trkpt lat="32.861774445" lon="35.240818024">
  <ele>202.680908</ele>
  <time>2011-09-02T06:22:48Z</time>
  <speed>1.930000</speed>
</trkpt>
<trkpt lat="32.861816406" lon="35.240818024">
  <ele>202.352783</ele>
  <time>2011-09-02T06:22:50Z</time>
  <speed>1.730000</speed>
</trkpt>
<trkpt lat="32.861850739" lon="35.240810394">
  <ele>204.044189</ele>
  <time>2011-09-02T06:22:52Z</time>
  <speed>1.780000</speed>
</trkpt>
<trkpt lat="32.861892700" lon="35.240806580">
  <ele>204.329346</ele>
  <time>2011-09-02T06:22:54Z</time>
  <speed>1.970000</speed>
</trkpt>
<trkpt lat="32.861923218" lon="35.240810394">
  <ele>202.739502</ele>
  <time>2011-09-02T06:22:56Z</time>
  <speed>1.740000</speed>
</trkpt>
<trkpt lat="32.861961365" lon="35.240783691">
  <ele>207.473877</ele>
  <time>2011-09-02T06:22:58Z</time>
  <speed>1.890000</speed>
</trkpt>
<trkpt lat="32.861984253" lon="35.240764618">
  <ele>210.110596</ele>
  <time>2011-09-02T06:22:59Z</time>
  <speed>2.210000</speed>
</trkpt>
<trkpt lat="32.862010956" lon="35.240756989">
  <ele>211.641846</ele>
  <time>2011-09-02T06:23:00Z</time>
  <speed>1.980000</speed>
</trkpt>
<trkpt lat="32.862045288" lon="35.240745544">
  <ele>214.747314</ele>
  <time>2011-09-02T06:23:02Z</time>
  <speed>2.160000</speed>
</trkpt>
<trkpt lat="32.862094879" lon="35.240753174">
  <ele>215.290283</ele>
  <time>2011-09-02T06:23:04Z</time>
  <speed>2.220000</speed>
</trkpt>
<trkpt lat="32.862136841" lon="35.240756989">
  <ele>216.591064</ele>
  <time>2011-09-02T06:23:06Z</time>
  <speed>2.000000</speed>
</trkpt>
<trkpt lat="32.862171173" lon="35.240760803">
  <ele>216.528564</ele>
  <time>2011-09-02T06:23:08Z</time>
  <speed>1.970000</speed>
</trkpt>
<trkpt lat="32.862213135" lon="35.240772247">
  <ele>217.165283</ele>
  <time>2011-09-02T06:23:10Z</time>
  <speed>2.110000</speed>
</trkpt>
<trkpt lat="32.862243652" lon="35.240783691">
  <ele>217.821533</ele>
  <time>2011-09-02T06:23:12Z</time>
  <speed>1.810000</speed>
</trkpt>
<trkpt lat="32.862277985" lon="35.240787506">
  <ele>219.802002</ele>
  <time>2011-09-02T06:23:14Z</time>
  <speed>2.140000</speed>
</trkpt>
<trkpt lat="32.862316132" lon="35.240798950">
  <ele>219.786377</ele>
  <time>2011-09-02T06:23:17Z</time>
  <speed>1.960000</speed>
</trkpt>
<trkpt lat="32.862350464" lon="35.240810394">
  <ele>219.692627</ele>
  <time>2011-09-02T06:23:19Z</time>
  <speed>1.840000</speed>
</trkpt>
<trkpt lat="32.862388611" lon="35.240814209">
  <ele>221.309814</ele>
  <time>2011-09-02T06:23:21Z</time>
  <speed>1.800000</speed>
</trkpt>
<trkpt lat="32.862426758" lon="35.240829468">
  <ele>221.579346</ele>
  <time>2011-09-02T06:23:23Z</time>
  <speed>1.980000</speed>
</trkpt>
<trkpt lat="32.862453461" lon="35.240833282">
  <ele>222.973877</ele>
  <time>2011-09-02T06:23:25Z</time>
  <speed>1.680000</speed>
</trkpt>
<trkpt lat="32.862480164" lon="35.240840912">
  <ele>222.876221</ele>
  <time>2011-09-02T06:23:27Z</time>
  <speed>1.930000</speed>
</trkpt>
<trkpt lat="32.862518311" lon="35.240840912">
  <ele>223.028564</ele>
  <time>2011-09-02T06:23:29Z</time>
  <speed>1.980000</speed>
</trkpt>
<trkpt lat="32.862552643" lon="35.240856171">
  <ele>222.790283</ele>
  <time>2011-09-02T06:23:31Z</time>
  <speed>2.020000</speed>
</trkpt>
<trkpt lat="32.862590790" lon="35.240856171">
  <ele>223.833252</ele>
  <time>2011-09-02T06:23:33Z</time>
  <speed>1.470000</speed>
</trkpt>
<trkpt lat="32.862613678" lon="35.240871429">
  <ele>223.934814</ele>
  <time>2011-09-02T06:23:35Z</time>
  <speed>1.800000</speed>
</trkpt>
<trkpt lat="32.862644196" lon="35.240879059">
  <ele>223.719971</ele>
  <time>2011-09-02T06:23:37Z</time>
  <speed>1.820000</speed>
</trkpt>
<trkpt lat="32.862686157" lon="35.240890503">
  <ele>225.278564</ele>
  <time>2011-09-02T06:23:39Z</time>
  <speed>1.940000</speed>
</trkpt>
<trkpt lat="32.862716675" lon="35.240913391">
  <ele>225.805908</ele>
  <time>2011-09-02T06:23:41Z</time>
  <speed>2.010000</speed>
</trkpt>
<trkpt lat="32.862751007" lon="35.240928650">
  <ele>226.137939</ele>
  <time>2011-09-02T06:23:43Z</time>
  <speed>1.690000</speed>
</trkpt>
<trkpt lat="32.862792969" lon="35.240947723">
  <ele>225.895752</ele>
  <time>2011-09-02T06:23:45Z</time>
  <speed>1.970000</speed>
</trkpt>
<trkpt lat="32.862815857" lon="35.240966797">
  <ele>225.731689</ele>
  <time>2011-09-02T06:23:47Z</time>
  <speed>2.160000</speed>
</trkpt>
<trkpt lat="32.862854004" lon="35.240974426">
  <ele>224.954346</ele>
  <time>2011-09-02T06:23:49Z</time>
  <speed>1.910000</speed>
</trkpt>
<trkpt lat="32.862884521" lon="35.240997314">
  <ele>224.427002</ele>
  <time>2011-09-02T06:23:51Z</time>
  <speed>1.890000</speed>
</trkpt>
<trkpt lat="32.862918854" lon="35.241008759">
  <ele>225.067627</ele>
  <time>2011-09-02T06:23:53Z</time>
  <speed>1.810000</speed>
</trkpt>
<trkpt lat="32.862953186" lon="35.241024017">
  <ele>223.993408</ele>
  <time>2011-09-02T06:23:55Z</time>
  <speed>1.950000</speed>
</trkpt>
<trkpt lat="32.862987518" lon="35.241039276">
  <ele>223.677002</ele>
  <time>2011-09-02T06:23:57Z</time>
  <speed>1.850000</speed>
</trkpt>
<trkpt lat="32.863018036" lon="35.241054535">
  <ele>223.071533</ele>
  <time>2011-09-02T06:23:59Z</time>
  <speed>1.800000</speed>
</trkpt>
<trkpt lat="32.863048553" lon="35.241054535">
  <ele>224.028564</ele>
  <time>2011-09-02T06:24:01Z</time>
  <speed>1.540000</speed>
</trkpt>
<trkpt lat="32.863086700" lon="35.241062164">
  <ele>224.606689</ele>
  <time>2011-09-02T06:24:03Z</time>
  <speed>1.710000</speed>
</trkpt>
<trkpt lat="32.863117218" lon="35.241073608">
  <ele>223.778564</ele>
  <time>2011-09-02T06:24:05Z</time>
  <speed>2.030000</speed>
</trkpt>
<trkpt lat="32.863147736" lon="35.241081238">
  <ele>223.337158</ele>
  <time>2011-09-02T06:24:07Z</time>
  <speed>1.780000</speed>
</trkpt>
<trkpt lat="32.863178253" lon="35.241085052">
  <ele>223.028564</ele>
  <time>2011-09-02T06:24:09Z</time>
  <speed>1.920000</speed>
</trkpt>
<trkpt lat="32.863212585" lon="35.241092682">
  <ele>222.630127</ele>
  <time>2011-09-02T06:24:11Z</time>
  <speed>1.720000</speed>
</trkpt>
<trkpt lat="32.863243103" lon="35.241085052">
  <ele>222.063721</ele>
  <time>2011-09-02T06:24:13Z</time>
  <speed>1.710000</speed>
</trkpt>
<trkpt lat="32.863281250" lon="35.241077423">
  <ele>222.079346</ele>
  <time>2011-09-02T06:24:15Z</time>
  <speed>1.630000</speed>
</trkpt>
<trkpt lat="32.863311768" lon="35.241065979">
  <ele>222.911377</ele>
  <time>2011-09-02T06:24:17Z</time>
  <speed>1.670000</speed>
</trkpt>
<trkpt lat="32.863342285" lon="35.241058350">
  <ele>222.048096</ele>
  <time>2011-09-02T06:24:19Z</time>
  <speed>1.860000</speed>
</trkpt>
<trkpt lat="32.863376617" lon="35.241054535">
  <ele>221.887939</ele>
  <time>2011-09-02T06:24:21Z</time>
  <speed>1.850000</speed>
</trkpt>
<trkpt lat="32.863407135" lon="35.241035461">
  <ele>221.848877</ele>
  <time>2011-09-02T06:24:23Z</time>
  <speed>1.410000</speed>
</trkpt>
<trkpt lat="32.863445282" lon="35.241027832">
  <ele>219.860596</ele>
  <time>2011-09-02T06:24:26Z</time>
  <speed>1.640000</speed>
</trkpt>
<trkpt lat="32.863471985" lon="35.241024017">
  <ele>219.348877</ele>
  <time>2011-09-02T06:24:28Z</time>
  <speed>1.790000</speed>
</trkpt>
<trkpt lat="32.863506317" lon="35.241012573">
  <ele>219.356689</ele>
  <time>2011-09-02T06:24:30Z</time>
  <speed>2.020000</speed>
</trkpt>
<trkpt lat="32.863540649" lon="35.240997314">
  <ele>218.997314</ele>
  <time>2011-09-02T06:24:32Z</time>
  <speed>2.220000</speed>
</trkpt>
<trkpt lat="32.863586426" lon="35.240985870">
  <ele>219.067627</ele>
  <time>2011-09-02T06:24:34Z</time>
  <speed>2.270000</speed>
</trkpt>
<trkpt lat="32.863628387" lon="35.240966797">
  <ele>219.309814</ele>
  <time>2011-09-02T06:24:36Z</time>
  <speed>2.200000</speed>
</trkpt>
<trkpt lat="32.863666534" lon="35.240951538">
  <ele>220.055908</ele>
  <time>2011-09-02T06:24:38Z</time>
  <speed>2.160000</speed>
</trkpt>
<trkpt lat="32.863712311" lon="35.240936279">
  <ele>219.989502</ele>
  <time>2011-09-02T06:24:40Z</time>
  <speed>2.770000</speed>
</trkpt>
<trkpt lat="32.863739014" lon="35.240932465">
  <ele>219.891846</ele>
  <time>2011-09-02T06:24:41Z</time>
  <speed>3.050000</speed>
</trkpt>
<trkpt lat="32.863769531" lon="35.240924835">
  <ele>219.216064</ele>
  <time>2011-09-02T06:24:42Z</time>
  <speed>3.230000</speed>
</trkpt>
<trkpt lat="32.863826752" lon="35.240909576">
  <ele>218.497314</ele>
  <time>2011-09-02T06:24:44Z</time>
  <speed>3.520000</speed>
</trkpt>
<trkpt lat="32.863853455" lon="35.240894318">
  <ele>218.454346</ele>
  <time>2011-09-02T06:24:45Z</time>
  <speed>3.260000</speed>
</trkpt>
<trkpt lat="32.863880157" lon="35.240882874">
  <ele>218.270752</ele>
  <time>2011-09-02T06:24:46Z</time>
  <speed>3.250000</speed>
</trkpt>
<trkpt lat="32.863910675" lon="35.240871429">
  <ele>218.216064</ele>
  <time>2011-09-02T06:24:47Z</time>
  <speed>3.430000</speed>
</trkpt>
<trkpt lat="32.863941193" lon="35.240856171">
  <ele>217.712158</ele>
  <time>2011-09-02T06:24:48Z</time>
  <speed>3.460000</speed>
</trkpt>
<trkpt lat="32.863967896" lon="35.240840912">
  <ele>217.630127</ele>
  <time>2011-09-02T06:24:49Z</time>
  <speed>3.060000</speed>
</trkpt>
<trkpt lat="32.863990784" lon="35.240825653">
  <ele>217.731689</ele>
  <time>2011-09-02T06:24:50Z</time>
  <speed>2.610000</speed>
</trkpt>
<trkpt lat="32.864040375" lon="35.240802765">
  <ele>217.509033</ele>
  <time>2011-09-02T06:24:52Z</time>
  <speed>2.180000</speed>
</trkpt>
<trkpt lat="32.864070892" lon="35.240772247">
  <ele>217.192627</ele>
  <time>2011-09-02T06:24:54Z</time>
  <speed>2.000000</speed>
</trkpt>
<trkpt lat="32.864105225" lon="35.240760803">
  <ele>217.333252</ele>
  <time>2011-09-02T06:24:56Z</time>
  <speed>1.960000</speed>
</trkpt>
<trkpt lat="32.864135742" lon="35.240764618">
  <ele>217.688721</ele>
  <time>2011-09-02T06:24:58Z</time>
  <speed>1.880000</speed>
</trkpt>
<trkpt lat="32.864158630" lon="35.240756989">
  <ele>219.813721</ele>
  <time>2011-09-02T06:24:59Z</time>
  <speed>2.050000</speed>
</trkpt>
<trkpt lat="32.864185333" lon="35.240802765">
  <ele>220.352783</ele>
  <time>2011-09-02T06:25:01Z</time>
  <speed>1.470000</speed>
</trkpt>
<trkpt lat="32.864185333" lon="35.240844727">
  <ele>221.962158</ele>
  <time>2011-09-02T06:25:04Z</time>
  <speed>1.700000</speed>
</trkpt>
<trkpt lat="32.864158630" lon="35.240863800">
  <ele>222.653564</ele>
  <time>2011-09-02T06:25:07Z</time>
  <speed>1.540000</speed>
</trkpt>
<trkpt lat="32.864154816" lon="35.240901947">
  <ele>224.184814</ele>
  <time>2011-09-02T06:25:09Z</time>
  <speed>1.300000</speed>
</trkpt>
<trkpt lat="32.864189148" lon="35.240917206">
  <ele>224.286377</ele>
  <time>2011-09-02T06:25:11Z</time>
  <speed>1.250000</speed>
</trkpt>
<trkpt lat="32.864215851" lon="35.240917206">
  <ele>224.903564</ele>
  <time>2011-09-02T06:25:14Z</time>
  <speed>1.900000</speed>
</trkpt>
<trkpt lat="32.864242554" lon="35.240901947">
  <ele>224.645752</ele>
  <time>2011-09-02T06:25:16Z</time>
  <speed>1.390000</speed>
</trkpt>
<trkpt lat="32.864269257" lon="35.240879059">
  <ele>225.368408</ele>
  <time>2011-09-02T06:25:18Z</time>
  <speed>1.930000</speed>
</trkpt>
<trkpt lat="32.864295959" lon="35.240844727">
  <ele>225.497314</ele>
  <time>2011-09-02T06:25:20Z</time>
  <speed>1.860000</speed>
</trkpt>
<trkpt lat="32.864311218" lon="35.240810394">
  <ele>224.985596</ele>
  <time>2011-09-02T06:25:22Z</time>
  <speed>1.830000</speed>
</trkpt>
<trkpt lat="32.864315033" lon="35.240768433">
  <ele>226.356689</ele>
  <time>2011-09-02T06:25:23Z</time>
  <speed>1.810000</speed>
</trkpt>
<trkpt lat="32.864334106" lon="35.240741730">
  <ele>226.544189</ele>
  <time>2011-09-02T06:25:25Z</time>
  <speed>1.660000</speed>
</trkpt>
<trkpt lat="32.864353180" lon="35.240711212">
  <ele>226.231689</ele>
  <time>2011-09-02T06:25:27Z</time>
  <speed>1.970000</speed>
</trkpt>
<trkpt lat="32.864372253" lon="35.240673065">
  <ele>226.704346</ele>
  <time>2011-09-02T06:25:29Z</time>
  <speed>1.880000</speed>
</trkpt>
<trkpt lat="32.864379883" lon="35.240615845">
  <ele>227.766846</ele>
  <time>2011-09-02T06:25:31Z</time>
  <speed>1.860000</speed>
</trkpt>
<trkpt lat="32.864395142" lon="35.240573883">
  <ele>227.942627</ele>
  <time>2011-09-02T06:25:33Z</time>
  <speed>1.720000</speed>
</trkpt>
<trkpt lat="32.864406586" lon="35.240531921">
  <ele>228.219971</ele>
  <time>2011-09-02T06:25:35Z</time>
  <speed>2.190000</speed>
</trkpt>
<trkpt lat="32.864421844" lon="35.240501404">
  <ele>228.446533</ele>
  <time>2011-09-02T06:25:37Z</time>
  <speed>1.610000</speed>
</trkpt>
<trkpt lat="32.864437103" lon="35.240467072">
  <ele>228.684814</ele>
  <time>2011-09-02T06:25:39Z</time>
  <speed>1.950000</speed>
</trkpt>
<trkpt lat="32.864456177" lon="35.240436554">
  <ele>228.981689</ele>
  <time>2011-09-02T06:25:41Z</time>
  <speed>1.950000</speed>
</trkpt>
<trkpt lat="32.864471436" lon="35.240398407">
  <ele>229.122314</ele>
  <time>2011-09-02T06:25:43Z</time>
  <speed>1.960000</speed>
</trkpt>
<trkpt lat="32.864482880" lon="35.240367889">
  <ele>229.372314</ele>
  <time>2011-09-02T06:25:45Z</time>
  <speed>1.680000</speed>
</trkpt>
<trkpt lat="32.864505768" lon="35.240333557">
  <ele>229.555908</ele>
  <time>2011-09-02T06:25:47Z</time>
  <speed>2.110000</speed>
</trkpt>
<trkpt lat="32.864521027" lon="35.240291595">
  <ele>229.493408</ele>
  <time>2011-09-02T06:25:49Z</time>
  <speed>2.060000</speed>
</trkpt>
<trkpt lat="32.864543915" lon="35.240253448">
  <ele>229.298096</ele>
  <time>2011-09-02T06:25:51Z</time>
  <speed>2.450000</speed>
</trkpt>
<trkpt lat="32.864570618" lon="35.240215302">
  <ele>229.719971</ele>
  <time>2011-09-02T06:25:53Z</time>
  <speed>2.230000</speed>
</trkpt>
<trkpt lat="32.864593506" lon="35.240180969">
  <ele>228.899658</ele>
  <time>2011-09-02T06:25:55Z</time>
  <speed>2.350000</speed>
</trkpt>
<trkpt lat="32.864624023" lon="35.240139008">
  <ele>228.872314</ele>
  <time>2011-09-02T06:25:57Z</time>
  <speed>2.290000</speed>
</trkpt>
<trkpt lat="32.864650726" lon="35.240093231">
  <ele>228.887939</ele>
  <time>2011-09-02T06:25:59Z</time>
  <speed>2.480000</speed>
</trkpt>
<trkpt lat="32.864673615" lon="35.240043640">
  <ele>228.946533</ele>
  <time>2011-09-02T06:26:01Z</time>
  <speed>2.410000</speed>
</trkpt>
<trkpt lat="32.864704132" lon="35.240005493">
  <ele>228.071533</ele>
  <time>2011-09-02T06:26:03Z</time>
  <speed>2.470000</speed>
</trkpt>
<trkpt lat="32.864715576" lon="35.239974976">
  <ele>228.262939</ele>
  <time>2011-09-02T06:26:04Z</time>
  <speed>2.570000</speed>
</trkpt>
<trkpt lat="32.864746094" lon="35.239936829">
  <ele>228.286377</ele>
  <time>2011-09-02T06:26:06Z</time>
  <speed>2.450000</speed>
</trkpt>
<trkpt lat="32.864776611" lon="35.239894867">
  <ele>228.177002</ele>
  <time>2011-09-02T06:26:08Z</time>
  <speed>2.620000</speed>
</trkpt>
<trkpt lat="32.864810944" lon="35.239852905">
  <ele>228.450439</ele>
  <time>2011-09-02T06:26:10Z</time>
  <speed>2.420000</speed>
</trkpt>
<trkpt lat="32.864826202" lon="35.239826202">
  <ele>228.930908</ele>
  <time>2011-09-02T06:26:11Z</time>
  <speed>2.340000</speed>
</trkpt>
<trkpt lat="32.864849091" lon="35.239784241">
  <ele>229.169189</ele>
  <time>2011-09-02T06:26:13Z</time>
  <speed>2.350000</speed>
</trkpt>
<trkpt lat="32.864883423" lon="35.239757538">
  <ele>229.329346</ele>
  <time>2011-09-02T06:26:15Z</time>
  <speed>2.470000</speed>
</trkpt>
<trkpt lat="32.864917755" lon="35.239715576">
  <ele>229.180908</ele>
  <time>2011-09-02T06:26:17Z</time>
  <speed>2.750000</speed>
</trkpt>
<trkpt lat="32.864933014" lon="35.239685059">
  <ele>229.512939</ele>
  <time>2011-09-02T06:26:18Z</time>
  <speed>3.060000</speed>
</trkpt>
<trkpt lat="32.864967346" lon="35.239635468">
  <ele>229.364502</ele>
  <time>2011-09-02T06:26:20Z</time>
  <speed>3.120000</speed>
</trkpt>
<trkpt lat="32.864986420" lon="35.239612579">
  <ele>229.122314</ele>
  <time>2011-09-02T06:26:21Z</time>
  <speed>3.110000</speed>
</trkpt>
<trkpt lat="32.865020752" lon="35.239574432">
  <ele>228.770752</ele>
  <time>2011-09-02T06:26:23Z</time>
  <speed>2.820000</speed>
</trkpt>
<trkpt lat="32.865051270" lon="35.239536285">
  <ele>228.403564</ele>
  <time>2011-09-02T06:26:25Z</time>
  <speed>2.660000</speed>
</trkpt>
<trkpt lat="32.865089417" lon="35.239494324">
  <ele>228.376221</ele>
  <time>2011-09-02T06:26:27Z</time>
  <speed>2.350000</speed>
</trkpt>
<trkpt lat="32.865123749" lon="35.239467621">
  <ele>228.403564</ele>
  <time>2011-09-02T06:26:29Z</time>
  <speed>2.370000</speed>
</trkpt>
<trkpt lat="32.865150452" lon="35.239452362">
  <ele>228.509033</ele>
  <time>2011-09-02T06:26:30Z</time>
  <speed>2.520000</speed>
</trkpt>
<trkpt lat="32.865180969" lon="35.239421844">
  <ele>228.157471</ele>
  <time>2011-09-02T06:26:32Z</time>
  <speed>2.150000</speed>
</trkpt>
<trkpt lat="32.865215302" lon="35.239395142">
  <ele>228.645752</ele>
  <time>2011-09-02T06:26:34Z</time>
  <speed>2.450000</speed>
</trkpt>
<trkpt lat="32.865257263" lon="35.239364624">
  <ele>228.567627</ele>
  <time>2011-09-02T06:26:36Z</time>
  <speed>2.240000</speed>
</trkpt>
<trkpt lat="32.865291595" lon="35.239353180">
  <ele>228.805908</ele>
  <time>2011-09-02T06:26:38Z</time>
  <speed>1.980000</speed>
</trkpt>
<trkpt lat="32.865322113" lon="35.239330292">
  <ele>229.239502</ele>
  <time>2011-09-02T06:26:40Z</time>
  <speed>2.010000</speed>
</trkpt>
<trkpt lat="32.865360260" lon="35.239307404">
  <ele>230.028564</ele>
  <time>2011-09-02T06:26:42Z</time>
  <speed>2.080000</speed>
</trkpt>
<trkpt lat="32.865379333" lon="35.239292145">
  <ele>231.243408</ele>
  <time>2011-09-02T06:26:43Z</time>
  <speed>1.970000</speed>
</trkpt>
<trkpt lat="32.865417480" lon="35.239288330">
  <ele>233.102783</ele>
  <time>2011-09-02T06:26:46Z</time>
  <speed>2.120000</speed>
</trkpt>
<trkpt lat="32.865455627" lon="35.239295959">
  <ele>233.614502</ele>
  <time>2011-09-02T06:26:48Z</time>
  <speed>2.060000</speed>
</trkpt>
<trkpt lat="32.865493774" lon="35.239299774">
  <ele>235.509033</ele>
  <time>2011-09-02T06:26:50Z</time>
  <speed>2.080000</speed>
</trkpt>
<trkpt lat="32.865531921" lon="35.239318848">
  <ele>235.841064</ele>
  <time>2011-09-02T06:26:52Z</time>
  <speed>2.360000</speed>
</trkpt>
<trkpt lat="32.865570068" lon="35.239337921">
  <ele>236.126221</ele>
  <time>2011-09-02T06:26:54Z</time>
  <speed>2.270000</speed>
</trkpt>
<trkpt lat="32.865612030" lon="35.239356995">
  <ele>236.497314</ele>
  <time>2011-09-02T06:26:56Z</time>
  <speed>2.380000</speed>
</trkpt>
<trkpt lat="32.865638733" lon="35.239379883">
  <ele>236.391846</ele>
  <time>2011-09-02T06:26:58Z</time>
  <speed>2.190000</speed>
</trkpt>
<trkpt lat="32.865680695" lon="35.239406586">
  <ele>236.204346</ele>
  <time>2011-09-02T06:27:00Z</time>
  <speed>2.330000</speed>
</trkpt>
<trkpt lat="32.865707397" lon="35.239440918">
  <ele>236.571533</ele>
  <time>2011-09-02T06:27:02Z</time>
  <speed>2.350000</speed>
</trkpt>
<trkpt lat="32.865749359" lon="35.239467621">
  <ele>236.880127</ele>
  <time>2011-09-02T06:27:04Z</time>
  <speed>2.350000</speed>
</trkpt>
<trkpt lat="32.865787506" lon="35.239490509">
  <ele>238.235596</ele>
  <time>2011-09-02T06:27:06Z</time>
  <speed>2.380000</speed>
</trkpt>
<trkpt lat="32.865818024" lon="35.239521027">
  <ele>237.223877</ele>
  <time>2011-09-02T06:27:08Z</time>
  <speed>2.340000</speed>
</trkpt>
<trkpt lat="32.865840912" lon="35.239540100">
  <ele>237.833252</ele>
  <time>2011-09-02T06:27:09Z</time>
  <speed>2.230000</speed>
</trkpt>
<trkpt lat="32.865867615" lon="35.239566803">
  <ele>237.735596</ele>
  <time>2011-09-02T06:27:11Z</time>
  <speed>2.330000</speed>
</trkpt>
<trkpt lat="32.865901947" lon="35.239601135">
  <ele>236.751221</ele>
  <time>2011-09-02T06:27:13Z</time>
  <speed>2.520000</speed>
</trkpt>
<trkpt lat="32.865928650" lon="35.239643097">
  <ele>236.466064</ele>
  <time>2011-09-02T06:27:15Z</time>
  <speed>2.260000</speed>
</trkpt>
<trkpt lat="32.865951538" lon="35.239692688">
  <ele>236.219971</ele>
  <time>2011-09-02T06:27:17Z</time>
  <speed>2.360000</speed>
</trkpt>
<trkpt lat="32.865951538" lon="35.239753723">
  <ele>236.821533</ele>
  <time>2011-09-02T06:27:19Z</time>
  <speed>2.400000</speed>
</trkpt>
<trkpt lat="32.865940094" lon="35.239807129">
  <ele>237.798096</ele>
  <time>2011-09-02T06:27:21Z</time>
  <speed>2.330000</speed>
</trkpt>
<trkpt lat="32.865924835" lon="35.239860535">
  <ele>239.126221</ele>
  <time>2011-09-02T06:27:23Z</time>
  <speed>2.370000</speed>
</trkpt>
<trkpt lat="32.865905762" lon="35.239910126">
  <ele>239.895752</ele>
  <time>2011-09-02T06:27:25Z</time>
  <speed>2.590000</speed>
</trkpt>
<trkpt lat="32.865886688" lon="35.239952087">
  <ele>240.630127</ele>
  <time>2011-09-02T06:27:27Z</time>
  <speed>2.350000</speed>
</trkpt>
<trkpt lat="32.865859985" lon="35.239994049">
  <ele>240.962158</ele>
  <time>2011-09-02T06:27:29Z</time>
  <speed>2.390000</speed>
</trkpt>
<trkpt lat="32.865844727" lon="35.240036011">
  <ele>243.079346</ele>
  <time>2011-09-02T06:27:31Z</time>
  <speed>2.340000</speed>
</trkpt>
<trkpt lat="32.865818024" lon="35.240058899">
  <ele>241.430908</ele>
  <time>2011-09-02T06:27:33Z</time>
  <speed>2.020000</speed>
</trkpt>
<trkpt lat="32.865810394" lon="35.240100861">
  <ele>242.208252</ele>
  <time>2011-09-02T06:27:35Z</time>
  <speed>2.150000</speed>
</trkpt>
<trkpt lat="32.865798950" lon="35.240139008">
  <ele>242.723877</ele>
  <time>2011-09-02T06:27:37Z</time>
  <speed>1.840000</speed>
</trkpt>
<trkpt lat="32.865795135" lon="35.240188599">
  <ele>243.755127</ele>
  <time>2011-09-02T06:27:39Z</time>
  <speed>2.070000</speed>
</trkpt>
<trkpt lat="32.865779877" lon="35.240226746">
  <ele>244.884033</ele>
  <time>2011-09-02T06:27:41Z</time>
  <speed>2.080000</speed>
</trkpt>
<trkpt lat="32.865768433" lon="35.240264893">
  <ele>245.329346</ele>
  <time>2011-09-02T06:27:43Z</time>
  <speed>2.090000</speed>
</trkpt>
<trkpt lat="32.865753174" lon="35.240314484">
  <ele>246.028564</ele>
  <time>2011-09-02T06:27:45Z</time>
  <speed>2.100000</speed>
</trkpt>
<trkpt lat="32.865737915" lon="35.240348816">
  <ele>246.438721</ele>
  <time>2011-09-02T06:27:47Z</time>
  <speed>2.200000</speed>
</trkpt>
<trkpt lat="32.865737915" lon="35.240394592">
  <ele>247.450439</ele>
  <time>2011-09-02T06:27:49Z</time>
  <speed>1.820000</speed>
</trkpt>
<trkpt lat="32.865726471" lon="35.240432739">
  <ele>247.817627</ele>
  <time>2011-09-02T06:27:51Z</time>
  <speed>2.050000</speed>
</trkpt>
<trkpt lat="32.865718842" lon="35.240478516">
  <ele>247.993408</ele>
  <time>2011-09-02T06:27:53Z</time>
  <speed>1.810000</speed>
</trkpt>
<trkpt lat="32.865703583" lon="35.240516663">
  <ele>248.466064</ele>
  <time>2011-09-02T06:27:55Z</time>
  <speed>1.880000</speed>
</trkpt>
<trkpt lat="32.865703583" lon="35.240566254">
  <ele>248.829346</ele>
  <time>2011-09-02T06:27:57Z</time>
  <speed>2.010000</speed>
</trkpt>
<trkpt lat="32.865688324" lon="35.240608215">
  <ele>248.555908</ele>
  <time>2011-09-02T06:27:59Z</time>
  <speed>2.260000</speed>
</trkpt>
<trkpt lat="32.865676880" lon="35.240653992">
  <ele>249.309814</ele>
  <time>2011-09-02T06:28:01Z</time>
  <speed>2.160000</speed>
</trkpt>
<trkpt lat="32.865665436" lon="35.240692139">
  <ele>249.688721</ele>
  <time>2011-09-02T06:28:03Z</time>
  <speed>2.180000</speed>
</trkpt>
<trkpt lat="32.865650177" lon="35.240734100">
  <ele>250.087158</ele>
  <time>2011-09-02T06:28:05Z</time>
  <speed>2.090000</speed>
</trkpt>
<trkpt lat="32.865638733" lon="35.240768433">
  <ele>250.239502</ele>
  <time>2011-09-02T06:28:07Z</time>
  <speed>2.060000</speed>
</trkpt>
<trkpt lat="32.865631104" lon="35.240802765">
  <ele>250.395752</ele>
  <time>2011-09-02T06:28:09Z</time>
  <speed>2.170000</speed>
</trkpt>
<trkpt lat="32.865615845" lon="35.240840912">
  <ele>250.798096</ele>
  <time>2011-09-02T06:28:11Z</time>
  <speed>2.120000</speed>
</trkpt>
<trkpt lat="32.865600586" lon="35.240879059">
  <ele>251.294189</ele>
  <time>2011-09-02T06:28:13Z</time>
  <speed>2.060000</speed>
</trkpt>
<trkpt lat="32.865589142" lon="35.240928650">
  <ele>251.559814</ele>
  <time>2011-09-02T06:28:15Z</time>
  <speed>2.220000</speed>
</trkpt>
<trkpt lat="32.865570068" lon="35.240978241">
  <ele>251.692627</ele>
  <time>2011-09-02T06:28:17Z</time>
  <speed>2.580000</speed>
</trkpt>
<trkpt lat="32.865554810" lon="35.241035461">
  <ele>252.329346</ele>
  <time>2011-09-02T06:28:19Z</time>
  <speed>2.560000</speed>
</trkpt>
<trkpt lat="32.865531921" lon="35.241085052">
  <ele>252.212158</ele>
  <time>2011-09-02T06:28:21Z</time>
  <speed>2.530000</speed>
</trkpt>
<trkpt lat="32.865512848" lon="35.241130829">
  <ele>252.614502</ele>
  <time>2011-09-02T06:28:23Z</time>
  <speed>2.440000</speed>
</trkpt>
<trkpt lat="32.865493774" lon="35.241176605">
  <ele>252.712158</ele>
  <time>2011-09-02T06:28:25Z</time>
  <speed>2.500000</speed>
</trkpt>
<trkpt lat="32.865478516" lon="35.241226196">
  <ele>252.653564</ele>
  <time>2011-09-02T06:28:27Z</time>
  <speed>2.440000</speed>
</trkpt>
<trkpt lat="32.865451813" lon="35.241283417">
  <ele>252.919189</ele>
  <time>2011-09-02T06:28:29Z</time>
  <speed>2.820000</speed>
</trkpt>
<trkpt lat="32.865432739" lon="35.241336823">
  <ele>251.993408</ele>
  <time>2011-09-02T06:28:31Z</time>
  <speed>2.780000</speed>
</trkpt>
<trkpt lat="32.865425110" lon="35.241367340">
  <ele>251.837158</ele>
  <time>2011-09-02T06:28:32Z</time>
  <speed>2.710000</speed>
</trkpt>
<trkpt lat="32.865398407" lon="35.241416931">
  <ele>250.876221</ele>
  <time>2011-09-02T06:28:34Z</time>
  <speed>2.600000</speed>
</trkpt>
<trkpt lat="32.865379333" lon="35.241470337">
  <ele>251.532471</ele>
  <time>2011-09-02T06:28:36Z</time>
  <speed>3.060000</speed>
</trkpt>
<trkpt lat="32.865356445" lon="35.241523743">
  <ele>251.329346</ele>
  <time>2011-09-02T06:28:38Z</time>
  <speed>2.830000</speed>
</trkpt>
<trkpt lat="32.865333557" lon="35.241569519">
  <ele>250.856689</ele>
  <time>2011-09-02T06:28:40Z</time>
  <speed>2.500000</speed>
</trkpt>
<trkpt lat="32.865310669" lon="35.241619110">
  <ele>251.098877</ele>
  <time>2011-09-02T06:28:42Z</time>
  <speed>2.600000</speed>
</trkpt>
<trkpt lat="32.865287781" lon="35.241664886">
  <ele>252.149658</ele>
  <time>2011-09-02T06:28:44Z</time>
  <speed>2.470000</speed>
</trkpt>
<trkpt lat="32.865272522" lon="35.241714478">
  <ele>252.325439</ele>
  <time>2011-09-02T06:28:46Z</time>
  <speed>2.410000</speed>
</trkpt>
<trkpt lat="32.865242004" lon="35.241756439">
  <ele>252.462158</ele>
  <time>2011-09-02T06:28:48Z</time>
  <speed>2.370000</speed>
</trkpt>
<trkpt lat="32.865230560" lon="35.241802216">
  <ele>252.403564</ele>
  <time>2011-09-02T06:28:50Z</time>
  <speed>2.270000</speed>
</trkpt>
<trkpt lat="32.865211487" lon="35.241847992">
  <ele>252.583252</ele>
  <time>2011-09-02T06:28:52Z</time>
  <speed>2.300000</speed>
</trkpt>
<trkpt lat="32.865200043" lon="35.241886139">
  <ele>252.884033</ele>
  <time>2011-09-02T06:28:54Z</time>
  <speed>2.140000</speed>
</trkpt>
<trkpt lat="32.865203857" lon="35.241939545">
  <ele>254.317627</ele>
  <time>2011-09-02T06:28:56Z</time>
  <speed>1.950000</speed>
</trkpt>
<trkpt lat="32.865200043" lon="35.241996765">
  <ele>256.729004</ele>
  <time>2011-09-02T06:28:58Z</time>
  <speed>1.960000</speed>
</trkpt>
<trkpt lat="32.865196228" lon="35.242050171">
  <ele>258.150879</ele>
  <time>2011-09-02T06:29:00Z</time>
  <speed>2.010000</speed>
</trkpt>
<trkpt lat="32.865180969" lon="35.242092133">
  <ele>258.650879</ele>
  <time>2011-09-02T06:29:02Z</time>
  <speed>1.820000</speed>
</trkpt>
<trkpt lat="32.865169525" lon="35.242130280">
  <ele>258.330566</ele>
  <time>2011-09-02T06:29:04Z</time>
  <speed>1.940000</speed>
</trkpt>
<trkpt lat="32.865161896" lon="35.242172241">
  <ele>258.838379</ele>
  <time>2011-09-02T06:29:06Z</time>
  <speed>1.840000</speed>
</trkpt>
<trkpt lat="32.865161896" lon="35.242225647">
  <ele>260.400879</ele>
  <time>2011-09-02T06:29:08Z</time>
  <speed>1.910000</speed>
</trkpt>
<trkpt lat="32.865154266" lon="35.242267609">
  <ele>260.721191</ele>
  <time>2011-09-02T06:29:10Z</time>
  <speed>2.060000</speed>
</trkpt>
<trkpt lat="32.865139008" lon="35.242298126">
  <ele>260.346191</ele>
  <time>2011-09-02T06:29:12Z</time>
  <speed>1.590000</speed>
</trkpt>
<trkpt lat="32.865135193" lon="35.242343903">
  <ele>259.900879</ele>
  <time>2011-09-02T06:29:14Z</time>
  <speed>1.680000</speed>
</trkpt>
<trkpt lat="32.865135193" lon="35.242385864">
  <ele>258.885254</ele>
  <time>2011-09-02T06:29:16Z</time>
  <speed>1.610000</speed>
</trkpt>
<trkpt lat="32.865131378" lon="35.242424011">
  <ele>258.221191</ele>
  <time>2011-09-02T06:29:18Z</time>
  <speed>1.370000</speed>
</trkpt>
<trkpt lat="32.865135193" lon="35.242462158">
  <ele>257.682129</ele>
  <time>2011-09-02T06:29:20Z</time>
  <speed>1.770000</speed>
</trkpt>
<trkpt lat="32.865150452" lon="35.242500305">
  <ele>258.182129</ele>
  <time>2011-09-02T06:29:22Z</time>
  <speed>1.630000</speed>
</trkpt>
<trkpt lat="32.865165710" lon="35.242527008">
  <ele>257.846191</ele>
  <time>2011-09-02T06:29:24Z</time>
  <speed>1.670000</speed>
</trkpt>
<trkpt lat="32.865177155" lon="35.242561340">
  <ele>258.494629</ele>
  <time>2011-09-02T06:29:26Z</time>
  <speed>1.770000</speed>
</trkpt>
<trkpt lat="32.865188599" lon="35.242595673">
  <ele>258.885254</ele>
  <time>2011-09-02T06:29:29Z</time>
  <speed>1.420000</speed>
</trkpt>
<trkpt lat="32.865188599" lon="35.242637634">
  <ele>258.627441</ele>
  <time>2011-09-02T06:29:32Z</time>
  <speed>1.650000</speed>
</trkpt>
<trkpt lat="32.865196228" lon="35.242679596">
  <ele>260.182129</ele>
  <time>2011-09-02T06:29:35Z</time>
  <speed>1.370000</speed>
</trkpt>
<trkpt lat="32.865211487" lon="35.242717743">
  <ele>261.455566</ele>
  <time>2011-09-02T06:29:38Z</time>
  <speed>1.510000</speed>
</trkpt>
<trkpt lat="32.865219116" lon="35.242767334">
  <ele>262.861816</ele>
  <time>2011-09-02T06:29:41Z</time>
  <speed>1.580000</speed>
</trkpt>
<trkpt lat="32.865242004" lon="35.242794037">
  <ele>263.580566</ele>
  <time>2011-09-02T06:29:43Z</time>
  <speed>1.650000</speed>
</trkpt>
<trkpt lat="32.865249634" lon="35.242832184">
  <ele>264.463379</ele>
  <time>2011-09-02T06:29:45Z</time>
  <speed>1.830000</speed>
</trkpt>
<trkpt lat="32.865268707" lon="35.242874146">
  <ele>264.838379</ele>
  <time>2011-09-02T06:29:47Z</time>
  <speed>1.480000</speed>
</trkpt>
<trkpt lat="32.865276337" lon="35.242904663">
  <ele>264.947754</ele>
  <time>2011-09-02T06:29:49Z</time>
  <speed>1.790000</speed>
</trkpt>
<trkpt lat="32.865299225" lon="35.242950439">
  <ele>266.057129</ele>
  <time>2011-09-02T06:29:51Z</time>
  <speed>1.830000</speed>
</trkpt>
<trkpt lat="32.865310669" lon="35.242992401">
  <ele>266.182129</ele>
  <time>2011-09-02T06:29:53Z</time>
  <speed>2.120000</speed>
</trkpt>
<trkpt lat="32.865333557" lon="35.243038177">
  <ele>266.549316</ele>
  <time>2011-09-02T06:29:55Z</time>
  <speed>2.080000</speed>
</trkpt>
<trkpt lat="32.865345001" lon="35.243080139">
  <ele>266.752441</ele>
  <time>2011-09-02T06:29:57Z</time>
  <speed>2.120000</speed>
</trkpt>
<trkpt lat="32.865364075" lon="35.243133545">
  <ele>266.760254</ele>
  <time>2011-09-02T06:29:59Z</time>
  <speed>2.840000</speed>
</trkpt>
<trkpt lat="32.865371704" lon="35.243164063">
  <ele>266.604004</ele>
  <time>2011-09-02T06:30:00Z</time>
  <speed>3.090000</speed>
</trkpt>
<trkpt lat="32.865379333" lon="35.243202209">
  <ele>266.682129</ele>
  <time>2011-09-02T06:30:01Z</time>
  <speed>3.340000</speed>
</trkpt>
<trkpt lat="32.865390778" lon="35.243236542">
  <ele>266.939941</ele>
  <time>2011-09-02T06:30:02Z</time>
  <speed>3.240000</speed>
</trkpt>
<trkpt lat="32.865406036" lon="35.243274689">
  <ele>267.018066</ele>
  <time>2011-09-02T06:30:03Z</time>
  <speed>3.550000</speed>
</trkpt>
<trkpt lat="32.865417480" lon="35.243316650">
  <ele>267.354004</ele>
  <time>2011-09-02T06:30:04Z</time>
  <speed>3.500000</speed>
</trkpt>
<trkpt lat="32.865425110" lon="35.243354797">
  <ele>266.885254</ele>
  <time>2011-09-02T06:30:05Z</time>
  <speed>3.300000</speed>
</trkpt>
<trkpt lat="32.865432739" lon="35.243412018">
  <ele>266.924316</ele>
  <time>2011-09-02T06:30:07Z</time>
  <speed>2.950000</speed>
</trkpt>
<trkpt lat="32.865436554" lon="35.243446350">
  <ele>267.213379</ele>
  <time>2011-09-02T06:30:08Z</time>
  <speed>2.470000</speed>
</trkpt>
<trkpt lat="32.865444183" lon="35.243499756">
  <ele>266.791504</ele>
  <time>2011-09-02T06:30:10Z</time>
  <speed>2.310000</speed>
</trkpt>
<trkpt lat="32.865451813" lon="35.243530273">
  <ele>267.158691</ele>
  <time>2011-09-02T06:30:11Z</time>
  <speed>2.750000</speed>
</trkpt>
<trkpt lat="32.865463257" lon="35.243568420">
  <ele>266.885254</ele>
  <time>2011-09-02T06:30:12Z</time>
  <speed>3.440000</speed>
</trkpt>
<trkpt lat="32.865467072" lon="35.243610382">
  <ele>265.854004</ele>
  <time>2011-09-02T06:30:13Z</time>
  <speed>4.040000</speed>
</trkpt>
<trkpt lat="32.865470886" lon="35.243652344">
  <ele>264.932129</ele>
  <time>2011-09-02T06:30:14Z</time>
  <speed>3.830000</speed>
</trkpt>
<trkpt lat="32.865478516" lon="35.243698120">
  <ele>264.979004</ele>
  <time>2011-09-02T06:30:15Z</time>
  <speed>3.930000</speed>
</trkpt>
<trkpt lat="32.865478516" lon="35.243743896">
  <ele>264.752441</ele>
  <time>2011-09-02T06:30:16Z</time>
  <speed>3.610000</speed>
</trkpt>
<trkpt lat="32.865478516" lon="35.243789673">
  <ele>264.408691</ele>
  <time>2011-09-02T06:30:17Z</time>
  <speed>3.210000</speed>
</trkpt>
<trkpt lat="32.865478516" lon="35.243831635">
  <ele>264.518066</ele>
  <time>2011-09-02T06:30:18Z</time>
  <speed>3.210000</speed>
</trkpt>
<trkpt lat="32.865474701" lon="35.243881226">
  <ele>265.189941</ele>
  <time>2011-09-02T06:30:19Z</time>
  <speed>2.770000</speed>
</trkpt>
<trkpt lat="32.865474701" lon="35.243942261">
  <ele>264.119629</ele>
  <time>2011-09-02T06:30:21Z</time>
  <speed>2.290000</speed>
</trkpt>
<trkpt lat="32.865474701" lon="35.243991852">
  <ele>263.721191</ele>
  <time>2011-09-02T06:30:23Z</time>
  <speed>2.250000</speed>
</trkpt>
<trkpt lat="32.865474701" lon="35.244052887">
  <ele>263.260254</ele>
  <time>2011-09-02T06:30:25Z</time>
  <speed>2.970000</speed>
</trkpt>
<trkpt lat="32.865467072" lon="35.244106293">
  <ele>262.627441</ele>
  <time>2011-09-02T06:30:27Z</time>
  <speed>2.680000</speed>
</trkpt>
<trkpt lat="32.865455627" lon="35.244159698">
  <ele>262.447754</ele>
  <time>2011-09-02T06:30:29Z</time>
  <speed>2.830000</speed>
</trkpt>
<trkpt lat="32.865440369" lon="35.244205475">
  <ele>263.213379</ele>
  <time>2011-09-02T06:30:31Z</time>
  <speed>2.960000</speed>
</trkpt>
<trkpt lat="32.865432739" lon="35.244239807">
  <ele>262.783691</ele>
  <time>2011-09-02T06:30:32Z</time>
  <speed>3.510000</speed>
</trkpt>
<trkpt lat="32.865421295" lon="35.244274139">
  <ele>262.736816</ele>
  <time>2011-09-02T06:30:33Z</time>
  <speed>3.650000</speed>
</trkpt>
<trkpt lat="32.865402222" lon="35.244308472">
  <ele>262.400879</ele>
  <time>2011-09-02T06:30:34Z</time>
  <speed>3.700000</speed>
</trkpt>
<trkpt lat="32.865394592" lon="35.244342804">
  <ele>262.104004</ele>
  <time>2011-09-02T06:30:35Z</time>
  <speed>3.550000</speed>
</trkpt>
<trkpt lat="32.865394592" lon="35.244384766">
  <ele>261.971191</ele>
  <time>2011-09-02T06:30:36Z</time>
  <speed>3.990000</speed>
</trkpt>
<trkpt lat="32.865386963" lon="35.244426727">
  <ele>261.604004</ele>
  <time>2011-09-02T06:30:37Z</time>
  <speed>4.210000</speed>
</trkpt>
<trkpt lat="32.865371704" lon="35.244472504">
  <ele>262.268066</ele>
  <time>2011-09-02T06:30:38Z</time>
  <speed>4.390000</speed>
</trkpt>
<trkpt lat="32.865379333" lon="35.244522095">
  <ele>262.682129</ele>
  <time>2011-09-02T06:30:39Z</time>
  <speed>4.930000</speed>
</trkpt>
<trkpt lat="32.865386963" lon="35.244575500">
  <ele>262.268066</ele>
  <time>2011-09-02T06:30:40Z</time>
  <speed>4.530000</speed>
</trkpt>
<trkpt lat="32.865402222" lon="35.244621277">
  <ele>262.377441</ele>
  <time>2011-09-02T06:30:41Z</time>
  <speed>4.790000</speed>
</trkpt>
<trkpt lat="32.865421295" lon="35.244659424">
  <ele>262.760254</ele>
  <time>2011-09-02T06:30:42Z</time>
  <speed>4.050000</speed>
</trkpt>
<trkpt lat="32.865436554" lon="35.244697571">
  <ele>263.182129</ele>
  <time>2011-09-02T06:30:43Z</time>
  <speed>3.790000</speed>
</trkpt>
<trkpt lat="32.865455627" lon="35.244735718">
  <ele>263.205566</ele>
  <time>2011-09-02T06:30:44Z</time>
  <speed>4.000000</speed>
</trkpt>
<trkpt lat="32.865478516" lon="35.244773865">
  <ele>263.424316</ele>
  <time>2011-09-02T06:30:45Z</time>
  <speed>3.680000</speed>
</trkpt>
<trkpt lat="32.865501404" lon="35.244800568">
  <ele>263.158691</ele>
  <time>2011-09-02T06:30:46Z</time>
  <speed>3.810000</speed>
</trkpt>
<trkpt lat="32.865524292" lon="35.244831085">
  <ele>262.986816</ele>
  <time>2011-09-02T06:30:47Z</time>
  <speed>3.950000</speed>
</trkpt>
<trkpt lat="32.865554810" lon="35.244857788">
  <ele>262.682129</ele>
  <time>2011-09-02T06:30:48Z</time>
  <speed>4.220000</speed>
</trkpt>
<trkpt lat="32.865573883" lon="35.244888306">
  <ele>262.682129</ele>
  <time>2011-09-02T06:30:49Z</time>
  <speed>3.900000</speed>
</trkpt>
<trkpt lat="32.865600586" lon="35.244907379">
  <ele>262.197754</ele>
  <time>2011-09-02T06:30:50Z</time>
  <speed>3.530000</speed>
</trkpt>
<trkpt lat="32.865631104" lon="35.244926453">
  <ele>261.947754</ele>
  <time>2011-09-02T06:30:51Z</time>
  <speed>3.790000</speed>
</trkpt>
<trkpt lat="32.865669250" lon="35.244934082">
  <ele>261.486816</ele>
  <time>2011-09-02T06:30:52Z</time>
  <speed>4.440000</speed>
</trkpt>
<trkpt lat="32.865711212" lon="35.244953156">
  <ele>261.705566</ele>
  <time>2011-09-02T06:30:53Z</time>
  <speed>4.750000</speed>
</trkpt>
<trkpt lat="32.865764618" lon="35.244953156">
  <ele>261.299316</ele>
  <time>2011-09-02T06:30:54Z</time>
  <speed>5.080000</speed>
</trkpt>
<trkpt lat="32.865814209" lon="35.244972229">
  <ele>261.088379</ele>
  <time>2011-09-02T06:30:55Z</time>
  <speed>6.410000</speed>
</trkpt>
<trkpt lat="32.865875244" lon="35.244991302">
  <ele>261.354004</ele>
  <time>2011-09-02T06:30:56Z</time>
  <speed>6.720000</speed>
</trkpt>
<trkpt lat="32.865932465" lon="35.245018005">
  <ele>260.588379</ele>
  <time>2011-09-02T06:30:57Z</time>
  <speed>6.160000</speed>
</trkpt>
<trkpt lat="32.865985870" lon="35.245040894">
  <ele>260.088379</ele>
  <time>2011-09-02T06:30:58Z</time>
  <speed>5.960000</speed>
</trkpt>
<trkpt lat="32.866031647" lon="35.245075226">
  <ele>258.611816</ele>
  <time>2011-09-02T06:30:59Z</time>
  <speed>5.060000</speed>
</trkpt>
<trkpt lat="32.866069794" lon="35.245105743">
  <ele>258.369629</ele>
  <time>2011-09-02T06:31:00Z</time>
  <speed>4.260000</speed>
</trkpt>
<trkpt lat="32.866081238" lon="35.245147705">
  <ele>258.525879</ele>
  <time>2011-09-02T06:31:01Z</time>
  <speed>2.920000</speed>
</trkpt>
<trkpt lat="32.866092682" lon="35.245193481">
  <ele>258.314941</ele>
  <time>2011-09-02T06:31:03Z</time>
  <speed>1.850000</speed>
</trkpt>
<trkpt lat="32.866088867" lon="35.245223999">
  <ele>258.041504</ele>
  <time>2011-09-02T06:31:05Z</time>
  <speed>1.840000</speed>
</trkpt>
<trkpt lat="32.866081238" lon="35.245269775">
  <ele>257.643066</ele>
  <time>2011-09-02T06:31:07Z</time>
  <speed>1.870000</speed>
</trkpt>
<trkpt lat="32.866092682" lon="35.245311737">
  <ele>257.729004</ele>
  <time>2011-09-02T06:31:09Z</time>
  <speed>1.870000</speed>
</trkpt>
<trkpt lat="32.866100311" lon="35.245357513">
  <ele>257.572754</ele>
  <time>2011-09-02T06:31:11Z</time>
  <speed>1.980000</speed>
</trkpt>
<trkpt lat="32.866107941" lon="35.245403290">
  <ele>257.244629</ele>
  <time>2011-09-02T06:31:13Z</time>
  <speed>1.880000</speed>
</trkpt>
<trkpt lat="32.866130829" lon="35.245441437">
  <ele>257.799316</ele>
  <time>2011-09-02T06:31:16Z</time>
  <speed>1.690000</speed>
</trkpt>
<trkpt lat="32.866146088" lon="35.245479584">
  <ele>256.908691</ele>
  <time>2011-09-02T06:31:18Z</time>
  <speed>2.020000</speed>
</trkpt>
<trkpt lat="32.866168976" lon="35.245525360">
  <ele>257.830566</ele>
  <time>2011-09-02T06:31:20Z</time>
  <speed>2.080000</speed>
</trkpt>
<trkpt lat="32.866180420" lon="35.245571136">
  <ele>258.611816</ele>
  <time>2011-09-02T06:31:22Z</time>
  <speed>1.500000</speed>
</trkpt>
<trkpt lat="32.866195679" lon="35.245620728">
  <ele>259.643066</ele>
  <time>2011-09-02T06:31:24Z</time>
  <speed>1.740000</speed>
</trkpt>
<trkpt lat="32.866195679" lon="35.245655060">
  <ele>260.439941</ele>
  <time>2011-09-02T06:31:27Z</time>
  <speed>1.390000</speed>
</trkpt>
<trkpt lat="32.866214752" lon="35.245697021">
  <ele>260.494629</ele>
  <time>2011-09-02T06:31:29Z</time>
  <speed>1.630000</speed>
</trkpt>
<trkpt lat="32.866226196" lon="35.245727539">
  <ele>260.174316</ele>
  <time>2011-09-02T06:31:31Z</time>
  <speed>1.360000</speed>
</trkpt>
<trkpt lat="32.866245270" lon="35.245765686">
  <ele>260.729004</ele>
  <time>2011-09-02T06:31:33Z</time>
  <speed>1.460000</speed>
</trkpt>
<trkpt lat="32.866264343" lon="35.245792389">
  <ele>260.752441</ele>
  <time>2011-09-02T06:31:35Z</time>
  <speed>1.250000</speed>
</trkpt>
<trkpt lat="32.866283417" lon="35.245819092">
  <ele>260.525879</ele>
  <time>2011-09-02T06:31:37Z</time>
  <speed>1.230000</speed>
</trkpt>
<trkpt lat="32.866302490" lon="35.245845795">
  <ele>260.768066</ele>
  <time>2011-09-02T06:31:40Z</time>
  <speed>1.300000</speed>
</trkpt>
<trkpt lat="32.866329193" lon="35.245861053">
  <ele>261.166504</ele>
  <time>2011-09-02T06:31:42Z</time>
  <speed>1.150000</speed>
</trkpt>
<trkpt lat="32.866355896" lon="35.245895386">
  <ele>261.572754</ele>
  <time>2011-09-02T06:31:44Z</time>
  <speed>1.300000</speed>
</trkpt>
<trkpt lat="32.866378784" lon="35.245922089">
  <ele>263.939941</ele>
  <time>2011-09-02T06:31:45Z</time>
  <speed>1.060000</speed>
</trkpt>
<trkpt lat="32.866394043" lon="35.245960236">
  <ele>263.533691</ele>
  <time>2011-09-02T06:31:48Z</time>
  <speed>1.220000</speed>
</trkpt>
<trkpt lat="32.866401672" lon="35.245994568">
  <ele>264.010254</ele>
  <time>2011-09-02T06:31:50Z</time>
  <speed>1.310000</speed>
</trkpt>
<trkpt lat="32.866424561" lon="35.246032715">
  <ele>264.807129</ele>
  <time>2011-09-02T06:31:53Z</time>
  <speed>1.210000</speed>
</trkpt>
<trkpt lat="32.866409302" lon="35.246067047">
  <ele>265.760254</ele>
  <time>2011-09-02T06:31:55Z</time>
  <speed>1.020000</speed>
</trkpt>
<trkpt lat="32.866428375" lon="35.246109009">
  <ele>266.588379</ele>
  <time>2011-09-02T06:31:58Z</time>
  <speed>1.540000</speed>
</trkpt>
<trkpt lat="32.866455078" lon="35.246135712">
  <ele>267.971191</ele>
  <time>2011-09-02T06:32:01Z</time>
  <speed>1.050000</speed>
</trkpt>
<trkpt lat="32.866485596" lon="35.246158600">
  <ele>269.760254</ele>
  <time>2011-09-02T06:32:03Z</time>
  <speed>1.320000</speed>
</trkpt>
<trkpt lat="32.866508484" lon="35.246181488">
  <ele>270.604004</ele>
  <time>2011-09-02T06:32:05Z</time>
  <speed>1.150000</speed>
</trkpt>
<trkpt lat="32.866539001" lon="35.246212006">
  <ele>273.010254</ele>
  <time>2011-09-02T06:32:07Z</time>
  <speed>1.580000</speed>
</trkpt>
<trkpt lat="32.866554260" lon="35.246242523">
  <ele>275.424316</ele>
  <time>2011-09-02T06:32:10Z</time>
  <speed>1.690000</speed>
</trkpt>
<trkpt lat="32.866577148" lon="35.246269226">
  <ele>276.322754</ele>
  <time>2011-09-02T06:32:12Z</time>
  <speed>1.790000</speed>
</trkpt>
<trkpt lat="32.866607666" lon="35.246295929">
  <ele>276.408691</ele>
  <time>2011-09-02T06:32:14Z</time>
  <speed>1.850000</speed>
</trkpt>
<trkpt lat="32.866641998" lon="35.246303558">
  <ele>277.213379</ele>
  <time>2011-09-02T06:32:16Z</time>
  <speed>2.030000</speed>
</trkpt>
<trkpt lat="32.866680145" lon="35.246315002">
  <ele>278.838379</ele>
  <time>2011-09-02T06:32:18Z</time>
  <speed>1.640000</speed>
</trkpt>
<trkpt lat="32.866672516" lon="35.246360779">
  <ele>279.416504</ele>
  <time>2011-09-02T06:32:21Z</time>
  <speed>1.810000</speed>
</trkpt>
<trkpt lat="32.866649628" lon="35.246398926">
  <ele>279.080566</ele>
  <time>2011-09-02T06:32:23Z</time>
  <speed>1.710000</speed>
</trkpt>
<trkpt lat="32.866626740" lon="35.246433258">
  <ele>279.455566</ele>
  <time>2011-09-02T06:32:25Z</time>
  <speed>1.460000</speed>
</trkpt>
<trkpt lat="32.866611481" lon="35.246475220">
  <ele>279.244629</ele>
  <time>2011-09-02T06:32:27Z</time>
  <speed>1.820000</speed>
</trkpt>
<trkpt lat="32.866600037" lon="35.246528625">
  <ele>279.885254</ele>
  <time>2011-09-02T06:32:29Z</time>
  <speed>1.550000</speed>
</trkpt>
<trkpt lat="32.866584778" lon="35.246559143">
  <ele>280.330566</ele>
  <time>2011-09-02T06:32:31Z</time>
  <speed>1.070000</speed>
</trkpt>
<trkpt lat="32.866592407" lon="35.246597290">
  <ele>280.846191</ele>
  <time>2011-09-02T06:32:33Z</time>
  <speed>1.450000</speed>
</trkpt>
<trkpt lat="32.866592407" lon="35.246631622">
  <ele>280.869629</ele>
  <time>2011-09-02T06:32:35Z</time>
  <speed>1.370000</speed>
</trkpt>
<trkpt lat="32.866600037" lon="35.246665955">
  <ele>282.049316</ele>
  <time>2011-09-02T06:32:38Z</time>
  <speed>1.380000</speed>
</trkpt>
<trkpt lat="32.866611481" lon="35.246704102">
  <ele>282.596191</ele>
  <time>2011-09-02T06:32:40Z</time>
  <speed>1.510000</speed>
</trkpt>
<trkpt lat="32.866626740" lon="35.246734619">
  <ele>282.932129</ele>
  <time>2011-09-02T06:32:42Z</time>
  <speed>1.740000</speed>
</trkpt>
<trkpt lat="32.866634369" lon="35.246772766">
  <ele>283.416504</ele>
  <time>2011-09-02T06:32:44Z</time>
  <speed>1.410000</speed>
</trkpt>
<trkpt lat="32.866630554" lon="35.246810913">
  <ele>283.963379</ele>
  <time>2011-09-02T06:32:47Z</time>
  <speed>1.240000</speed>
</trkpt>
<trkpt lat="32.866615295" lon="35.246841431">
  <ele>284.275879</ele>
  <time>2011-09-02T06:32:49Z</time>
  <speed>1.300000</speed>
</trkpt>
<trkpt lat="32.866626740" lon="35.246879578">
  <ele>285.213379</ele>
  <time>2011-09-02T06:32:54Z</time>
  <speed>1.180000</speed>
</trkpt>
<trkpt lat="32.866653442" lon="35.246910095">
  <ele>285.955566</ele>
  <time>2011-09-02T06:32:57Z</time>
  <speed>1.820000</speed>
</trkpt>
<trkpt lat="32.866680145" lon="35.246921539">
  <ele>286.346191</ele>
  <time>2011-09-02T06:32:58Z</time>
  <speed>1.220000</speed>
</trkpt>
<trkpt lat="32.866706848" lon="35.246948242">
  <ele>286.400879</ele>
  <time>2011-09-02T06:33:00Z</time>
  <speed>1.540000</speed>
</trkpt>
<trkpt lat="32.866737366" lon="35.246967316">
  <ele>286.205566</ele>
  <time>2011-09-02T06:33:02Z</time>
  <speed>1.550000</speed>
</trkpt>
<trkpt lat="32.866764069" lon="35.247001648">
  <ele>285.330566</ele>
  <time>2011-09-02T06:33:04Z</time>
  <speed>1.650000</speed>
</trkpt>
<trkpt lat="32.866790771" lon="35.247028351">
  <ele>285.057129</ele>
  <time>2011-09-02T06:33:06Z</time>
  <speed>1.390000</speed>
</trkpt>
<trkpt lat="32.866809845" lon="35.247066498">
  <ele>285.393066</ele>
  <time>2011-09-02T06:33:09Z</time>
  <speed>1.640000</speed>
</trkpt>
<trkpt lat="32.866813660" lon="35.247104645">
  <ele>285.736816</ele>
  <time>2011-09-02T06:33:11Z</time>
  <speed>1.910000</speed>
</trkpt>
<trkpt lat="32.866817474" lon="35.247142792">
  <ele>286.564941</ele>
  <time>2011-09-02T06:33:13Z</time>
  <speed>1.680000</speed>
</trkpt>
<trkpt lat="32.866809845" lon="35.247173309">
  <ele>286.900879</ele>
  <time>2011-09-02T06:33:15Z</time>
  <speed>1.650000</speed>
</trkpt>
<trkpt lat="32.866790771" lon="35.247203827">
  <ele>287.189941</ele>
  <time>2011-09-02T06:33:17Z</time>
  <speed>1.680000</speed>
</trkpt>
<trkpt lat="32.866771698" lon="35.247238159">
  <ele>287.346191</ele>
  <time>2011-09-02T06:33:20Z</time>
  <speed>1.240000</speed>
</trkpt>
<trkpt lat="32.866756439" lon="35.247268677">
  <ele>289.002441</ele>
  <time>2011-09-02T06:33:23Z</time>
  <speed>1.280000</speed>
</trkpt>
<trkpt lat="32.866748810" lon="35.247306824">
  <ele>289.518066</ele>
  <time>2011-09-02T06:33:25Z</time>
  <speed>1.710000</speed>
</trkpt>
<trkpt lat="32.866752625" lon="35.247352600">
  <ele>288.877441</ele>
  <time>2011-09-02T06:33:27Z</time>
  <speed>1.640000</speed>
</trkpt>
<trkpt lat="32.866752625" lon="35.247398376">
  <ele>288.018066</ele>
  <time>2011-09-02T06:33:29Z</time>
  <speed>1.530000</speed>
</trkpt>
<trkpt lat="32.866748810" lon="35.247440338">
  <ele>288.338379</ele>
  <time>2011-09-02T06:33:31Z</time>
  <speed>1.680000</speed>
</trkpt>
<trkpt lat="32.866744995" lon="35.247470856">
  <ele>288.791504</ele>
  <time>2011-09-02T06:33:33Z</time>
  <speed>1.180000</speed>
</trkpt>
<trkpt lat="32.866733551" lon="35.247509003">
  <ele>289.143066</ele>
  <time>2011-09-02T06:33:36Z</time>
  <speed>1.520000</speed>
</trkpt>
<trkpt lat="32.866737366" lon="35.247550964">
  <ele>289.783691</ele>
  <time>2011-09-02T06:33:38Z</time>
  <speed>1.380000</speed>
</trkpt>
<trkpt lat="32.866729736" lon="35.247581482">
  <ele>289.682129</ele>
  <time>2011-09-02T06:33:40Z</time>
  <speed>1.120000</speed>
</trkpt>
<trkpt lat="32.866722107" lon="35.247631073">
  <ele>291.525879</ele>
  <time>2011-09-02T06:33:43Z</time>
  <speed>1.180000</speed>
</trkpt>
<trkpt lat="32.866722107" lon="35.247665405">
  <ele>292.182129</ele>
  <time>2011-09-02T06:33:45Z</time>
  <speed>1.560000</speed>
</trkpt>
<trkpt lat="32.866710663" lon="35.247703552">
  <ele>293.072754</ele>
  <time>2011-09-02T06:33:48Z</time>
  <speed>1.160000</speed>
</trkpt>
<trkpt lat="32.866714478" lon="35.247737885">
  <ele>293.588379</ele>
  <time>2011-09-02T06:33:50Z</time>
  <speed>1.230000</speed>
</trkpt>
<trkpt lat="32.866695404" lon="35.247779846">
  <ele>294.564941</ele>
  <time>2011-09-02T06:33:53Z</time>
  <speed>1.310000</speed>
</trkpt>
<trkpt lat="32.866699219" lon="35.247810364">
  <ele>294.510254</ele>
  <time>2011-09-02T06:33:55Z</time>
  <speed>1.210000</speed>
</trkpt>
<trkpt lat="32.866703033" lon="35.247856140">
  <ele>296.150879</ele>
  <time>2011-09-02T06:33:57Z</time>
  <speed>1.440000</speed>
</trkpt>
<trkpt lat="32.866710663" lon="35.247901917">
  <ele>296.354004</ele>
  <time>2011-09-02T06:33:59Z</time>
  <speed>1.680000</speed>
</trkpt>
<trkpt lat="32.866714478" lon="35.247940063">
  <ele>295.963379</ele>
  <time>2011-09-02T06:34:01Z</time>
  <speed>2.010000</speed>
</trkpt>
<trkpt lat="32.866687775" lon="35.247936249">
  <ele>298.479004</ele>
  <time>2011-09-02T06:34:03Z</time>
  <speed>1.290000</speed>
</trkpt>
<trkpt lat="32.866668701" lon="35.247955322">
  <ele>299.502441</ele>
  <time>2011-09-02T06:34:05Z</time>
  <speed>1.570000</speed>
</trkpt>
<trkpt lat="32.866649628" lon="35.247985840">
  <ele>299.346191</ele>
  <time>2011-09-02T06:34:07Z</time>
  <speed>1.370000</speed>
</trkpt>
<trkpt lat="32.866634369" lon="35.248020172">
  <ele>298.658691</ele>
  <time>2011-09-02T06:34:09Z</time>
  <speed>1.230000</speed>
</trkpt>
<trkpt lat="32.866607666" lon="35.248046875">
  <ele>298.604004</ele>
  <time>2011-09-02T06:34:12Z</time>
  <speed>1.250000</speed>
</trkpt>
<trkpt lat="32.866580963" lon="35.248065948">
  <ele>299.369629</ele>
  <time>2011-09-02T06:34:15Z</time>
  <speed>1.070000</speed>
</trkpt>
<trkpt lat="32.866550446" lon="35.248069763">
  <ele>298.033691</ele>
  <time>2011-09-02T06:34:17Z</time>
  <speed>0.930000</speed>
</trkpt>
<trkpt lat="32.866519928" lon="35.248088837">
  <ele>298.643066</ele>
  <time>2011-09-02T06:34:21Z</time>
  <speed>1.230000</speed>
</trkpt>
<trkpt lat="32.866500854" lon="35.248134613">
  <ele>298.275879</ele>
  <time>2011-09-02T06:34:24Z</time>
  <speed>1.270000</speed>
</trkpt>
<trkpt lat="32.866477966" lon="35.248157501">
  <ele>299.096191</ele>
  <time>2011-09-02T06:34:27Z</time>
  <speed>1.110000</speed>
</trkpt>
<trkpt lat="32.866455078" lon="35.248176575">
  <ele>300.166504</ele>
  <time>2011-09-02T06:34:29Z</time>
  <speed>1.010000</speed>
</trkpt>
<trkpt lat="32.866424561" lon="35.248184204">
  <ele>300.166504</ele>
  <time>2011-09-02T06:34:32Z</time>
  <speed>0.860000</speed>
</trkpt>
<trkpt lat="32.866397858" lon="35.248180389">
  <ele>300.377441</ele>
  <time>2011-09-02T06:34:34Z</time>
  <speed>0.380000</speed>
</trkpt>
<trkpt lat="32.866394043" lon="35.248214722">
  <ele>300.010254</ele>
  <time>2011-09-02T06:35:58Z</time>
  <speed>0.170000</speed>
</trkpt>
<trkpt lat="32.866371155" lon="35.248233795">
  <ele>300.002441</ele>
  <time>2011-09-02T06:36:18Z</time>
  <speed>0.110000</speed>
</trkpt>
<trkpt lat="32.866348267" lon="35.248249054">
  <ele>301.260254</ele>
  <time>2011-09-02T06:36:36Z</time>
  <speed>0.150000</speed>
</trkpt>
<trkpt lat="32.866325378" lon="35.248249054">
  <ele>302.322754</ele>
  <time>2011-09-02T06:36:54Z</time>
  <speed>0.160000</speed>
</trkpt>
<trkpt lat="32.866298676" lon="35.248237610">
  <ele>301.088379</ele>
  <time>2011-09-02T06:38:37Z</time>
  <speed>0.070000</speed>
</trkpt>
<trkpt lat="32.866291046" lon="35.248229980">
  <ele>298.057129</ele>
  <time>2011-09-02T06:38:41Z</time>
  <speed>0.080000</speed>
</trkpt>
<trkpt lat="32.866275787" lon="35.248245239">
  <ele>295.861816</ele>
  <time>2011-09-02T06:38:55Z</time>
</trkpt>
<trkpt lat="32.866256714" lon="35.248268127">
  <ele>296.674316</ele>
  <time>2011-09-02T06:38:58Z</time>
</trkpt>
<trkpt lat="32.866230011" lon="35.248287201">
  <ele>296.838379</ele>
  <time>2011-09-02T06:39:01Z</time>
</trkpt>
<trkpt lat="32.866191864" lon="35.248302460">
  <ele>296.354004</ele>
  <time>2011-09-02T06:39:07Z</time>
</trkpt>
<trkpt lat="32.866165161" lon="35.248317719">
  <ele>295.166504</ele>
  <time>2011-09-02T06:39:09Z</time>
</trkpt>
<trkpt lat="32.866134644" lon="35.248340607">
  <ele>293.322754</ele>
  <time>2011-09-02T06:39:11Z</time>
</trkpt>
<trkpt lat="32.866195679" lon="35.248260498">
  <ele>293.174316</ele>
  <time>2011-09-02T06:41:09Z</time>
  <speed>0.390000</speed>
</trkpt>
<trkpt lat="32.866287231" lon="35.248233795">
  <ele>293.299316</ele>
  <time>2011-09-02T06:41:10Z</time>
  <speed>0.310000</speed>
</trkpt>
<trkpt lat="32.866333008" lon="35.248195648">
  <ele>293.541504</ele>
  <time>2011-09-02T06:41:11Z</time>
  <speed>0.300000</speed>
</trkpt>
<trkpt lat="32.866374969" lon="35.248184204">
  <ele>293.775879</ele>
  <time>2011-09-02T06:41:12Z</time>
  <speed>0.370000</speed>
</trkpt>
<trkpt lat="32.866401672" lon="35.248172760">
  <ele>294.135254</ele>
  <time>2011-09-02T06:41:14Z</time>
  <speed>0.380000</speed>
</trkpt>
<trkpt lat="32.866424561" lon="35.248138428">
  <ele>294.721191</ele>
  <time>2011-09-02T06:41:21Z</time>
  <speed>1.030000</speed>
</trkpt>
<trkpt lat="32.866443634" lon="35.248100281">
  <ele>294.830566</ele>
  <time>2011-09-02T06:41:24Z</time>
  <speed>1.140000</speed>
</trkpt>
<trkpt lat="32.866458893" lon="35.248050690">
  <ele>294.807129</ele>
  <time>2011-09-02T06:41:26Z</time>
  <speed>2.940000</speed>
</trkpt>
<trkpt lat="32.866477966" lon="35.248001099">
  <ele>294.979004</ele>
  <time>2011-09-02T06:41:27Z</time>
  <speed>3.430000</speed>
</trkpt>
<trkpt lat="32.866489410" lon="35.247951508">
  <ele>294.971191</ele>
  <time>2011-09-02T06:41:28Z</time>
  <speed>3.940000</speed>
</trkpt>
<trkpt lat="32.866481781" lon="35.247898102">
  <ele>294.861816</ele>
  <time>2011-09-02T06:41:29Z</time>
  <speed>4.830000</speed>
</trkpt>
<trkpt lat="32.866477966" lon="35.247840881">
  <ele>294.713379</ele>
  <time>2011-09-02T06:41:30Z</time>
  <speed>4.030000</speed>
</trkpt>
<trkpt lat="32.866470337" lon="35.247795105">
  <ele>294.557129</ele>
  <time>2011-09-02T06:41:31Z</time>
  <speed>3.750000</speed>
</trkpt>
<trkpt lat="32.866466522" lon="35.247756958">
  <ele>294.041504</ele>
  <time>2011-09-02T06:41:32Z</time>
  <speed>2.810000</speed>
</trkpt>
<trkpt lat="32.866481781" lon="35.247718811">
  <ele>293.439941</ele>
  <time>2011-09-02T06:41:34Z</time>
  <speed>0.440000</speed>
</trkpt>
<trkpt lat="32.866485596" lon="35.247684479">
  <ele>292.830566</ele>
  <time>2011-09-02T06:41:40Z</time>
  <speed>0.600000</speed>
</trkpt>
<trkpt lat="32.866462708" lon="35.247631073">
  <ele>292.627441</ele>
  <time>2011-09-02T06:41:43Z</time>
  <speed>0.930000</speed>
</trkpt>
<trkpt lat="32.866443634" lon="35.247604370">
  <ele>292.385254</ele>
  <time>2011-09-02T06:41:45Z</time>
  <speed>1.420000</speed>
</trkpt>
<trkpt lat="32.866420746" lon="35.247566223">
  <ele>292.150879</ele>
  <time>2011-09-02T06:41:48Z</time>
  <speed>1.820000</speed>
</trkpt>
<trkpt lat="32.866401672" lon="35.247531891">
  <ele>291.924316</ele>
  <time>2011-09-02T06:41:50Z</time>
  <speed>1.880000</speed>
</trkpt>
<trkpt lat="32.866409302" lon="35.247482300">
  <ele>291.400879</ele>
  <time>2011-09-02T06:41:52Z</time>
  <speed>2.160000</speed>
</trkpt>
<trkpt lat="32.866420746" lon="35.247432709">
  <ele>290.744629</ele>
  <time>2011-09-02T06:41:54Z</time>
  <speed>2.050000</speed>
</trkpt>
<trkpt lat="32.866397858" lon="35.247379303">
  <ele>290.361816</ele>
  <time>2011-09-02T06:41:56Z</time>
  <speed>1.830000</speed>
</trkpt>
<trkpt lat="32.866378784" lon="35.247333527">
  <ele>289.689941</ele>
  <time>2011-09-02T06:41:58Z</time>
  <speed>1.900000</speed>
</trkpt>
<trkpt lat="32.866374969" lon="35.247299194">
  <ele>288.650879</ele>
  <time>2011-09-02T06:42:00Z</time>
  <speed>1.870000</speed>
</trkpt>
<trkpt lat="32.866382599" lon="35.247253418">
  <ele>287.775879</ele>
  <time>2011-09-02T06:42:02Z</time>
  <speed>3.250000</speed>
</trkpt>
<trkpt lat="32.866409302" lon="35.247215271">
  <ele>287.072754</ele>
  <time>2011-09-02T06:42:03Z</time>
  <speed>3.510000</speed>
</trkpt>
<trkpt lat="32.866439819" lon="35.247188568">
  <ele>286.549316</ele>
  <time>2011-09-02T06:42:04Z</time>
  <speed>4.010000</speed>
</trkpt>
<trkpt lat="32.866477966" lon="35.247177124">
  <ele>286.221191</ele>
  <time>2011-09-02T06:42:05Z</time>
  <speed>4.150000</speed>
</trkpt>
<trkpt lat="32.866519928" lon="35.247161865">
  <ele>285.807129</ele>
  <time>2011-09-02T06:42:06Z</time>
  <speed>4.320000</speed>
</trkpt>
<trkpt lat="32.866539001" lon="35.247142792">
  <ele>285.096191</ele>
  <time>2011-09-02T06:42:07Z</time>
  <speed>2.690000</speed>
</trkpt>
<trkpt lat="32.866561890" lon="35.247097015">
  <ele>284.955566</ele>
  <time>2011-09-02T06:42:08Z</time>
  <speed>3.620000</speed>
</trkpt>
<trkpt lat="32.866580963" lon="35.247051239">
  <ele>284.932129</ele>
  <time>2011-09-02T06:42:09Z</time>
  <speed>4.190000</speed>
</trkpt>
<trkpt lat="32.866580963" lon="35.246997833">
  <ele>284.346191</ele>
  <time>2011-09-02T06:42:10Z</time>
  <speed>4.260000</speed>
</trkpt>
<trkpt lat="32.866580963" lon="35.246940613">
  <ele>283.252441</ele>
  <time>2011-09-02T06:42:11Z</time>
  <speed>4.980000</speed>
</trkpt>
<trkpt lat="32.866577148" lon="35.246871948">
  <ele>282.557129</ele>
  <time>2011-09-02T06:42:12Z</time>
  <speed>5.920000</speed>
</trkpt>
<trkpt lat="32.866573334" lon="35.246807098">
  <ele>281.260254</ele>
  <time>2011-09-02T06:42:13Z</time>
  <speed>5.850000</speed>
</trkpt>
<trkpt lat="32.866573334" lon="35.246749878">
  <ele>280.533691</ele>
  <time>2011-09-02T06:42:14Z</time>
  <speed>5.510000</speed>
</trkpt>
<trkpt lat="32.866558075" lon="35.246688843">
  <ele>279.635254</ele>
  <time>2011-09-02T06:42:15Z</time>
  <speed>4.700000</speed>
</trkpt>
<trkpt lat="32.866531372" lon="35.246635437">
  <ele>277.924316</ele>
  <time>2011-09-02T06:42:16Z</time>
  <speed>4.280000</speed>
</trkpt>
<trkpt lat="32.866508484" lon="35.246547699">
  <ele>278.064941</ele>
  <time>2011-09-02T06:42:17Z</time>
  <speed>4.090000</speed>
</trkpt>
<trkpt lat="32.866481781" lon="35.246486664">
  <ele>277.783691</ele>
  <time>2011-09-02T06:42:18Z</time>
  <speed>4.790000</speed>
</trkpt>
<trkpt lat="32.866458893" lon="35.246440887">
  <ele>276.900879</ele>
  <time>2011-09-02T06:42:19Z</time>
  <speed>5.300000</speed>
</trkpt>
<trkpt lat="32.866420746" lon="35.246379852">
  <ele>276.314941</ele>
  <time>2011-09-02T06:42:20Z</time>
  <speed>6.470000</speed>
</trkpt>
<trkpt lat="32.866386414" lon="35.246322632">
  <ele>275.877441</ele>
  <time>2011-09-02T06:42:21Z</time>
  <speed>5.780000</speed>
</trkpt>
<trkpt lat="32.866344452" lon="35.246280670">
  <ele>275.197754</ele>
  <time>2011-09-02T06:42:22Z</time>
  <speed>5.110000</speed>
</trkpt>
<trkpt lat="32.866306305" lon="35.246231079">
  <ele>275.666504</ele>
  <time>2011-09-02T06:42:23Z</time>
  <speed>3.700000</speed>
</trkpt>
<trkpt lat="32.866291046" lon="35.246196747">
  <ele>275.057129</ele>
  <time>2011-09-02T06:42:24Z</time>
  <speed>3.570000</speed>
</trkpt>
<trkpt lat="32.866256714" lon="35.246177673">
  <ele>275.479004</ele>
  <time>2011-09-02T06:42:25Z</time>
  <speed>3.210000</speed>
</trkpt>
<trkpt lat="32.866210938" lon="35.246135712">
  <ele>274.721191</ele>
  <time>2011-09-02T06:42:27Z</time>
  <speed>3.260000</speed>
</trkpt>
<trkpt lat="32.866184235" lon="35.246112823">
  <ele>274.213379</ele>
  <time>2011-09-02T06:42:28Z</time>
  <speed>3.360000</speed>
</trkpt>
<trkpt lat="32.866168976" lon="35.246074677">
  <ele>273.947754</ele>
  <time>2011-09-02T06:42:29Z</time>
  <speed>3.700000</speed>
</trkpt>
<trkpt lat="32.866146088" lon="35.246032715">
  <ele>272.166504</ele>
  <time>2011-09-02T06:42:30Z</time>
  <speed>4.520000</speed>
</trkpt>
<trkpt lat="32.866130829" lon="35.245990753">
  <ele>271.135254</ele>
  <time>2011-09-02T06:42:31Z</time>
  <speed>4.640000</speed>
</trkpt>
<trkpt lat="32.866111755" lon="35.245948792">
  <ele>269.916504</ele>
  <time>2011-09-02T06:42:32Z</time>
  <speed>3.700000</speed>
</trkpt>
<trkpt lat="32.866100311" lon="35.245887756">
  <ele>269.713379</ele>
  <time>2011-09-02T06:42:33Z</time>
  <speed>4.280000</speed>
</trkpt>
<trkpt lat="32.866085052" lon="35.245834351">
  <ele>269.252441</ele>
  <time>2011-09-02T06:42:34Z</time>
  <speed>4.180000</speed>
</trkpt>
<trkpt lat="32.866069794" lon="35.245796204">
  <ele>268.674316</ele>
  <time>2011-09-02T06:42:35Z</time>
  <speed>3.180000</speed>
</trkpt>
<trkpt lat="32.866050720" lon="35.245765686">
  <ele>268.080566</ele>
  <time>2011-09-02T06:42:36Z</time>
  <speed>3.530000</speed>
</trkpt>
<trkpt lat="32.866031647" lon="35.245735168">
  <ele>267.564941</ele>
  <time>2011-09-02T06:42:37Z</time>
  <speed>3.390000</speed>
</trkpt>
<trkpt lat="32.866027832" lon="35.245700836">
  <ele>266.572754</ele>
  <time>2011-09-02T06:42:38Z</time>
  <speed>2.730000</speed>
</trkpt>
<trkpt lat="32.866043091" lon="35.245647430">
  <ele>265.385254</ele>
  <time>2011-09-02T06:42:40Z</time>
  <speed>2.410000</speed>
</trkpt>
<trkpt lat="32.866046906" lon="35.245597839">
  <ele>265.229004</ele>
  <time>2011-09-02T06:42:41Z</time>
  <speed>2.780000</speed>
</trkpt>
<trkpt lat="32.866039276" lon="35.245563507">
  <ele>264.369629</ele>
  <time>2011-09-02T06:42:42Z</time>
  <speed>2.620000</speed>
</trkpt>
<trkpt lat="32.866001129" lon="35.245517731">
  <ele>263.877441</ele>
  <time>2011-09-02T06:42:44Z</time>
  <speed>2.170000</speed>
</trkpt>
<trkpt lat="32.865978241" lon="35.245502472">
  <ele>263.158691</ele>
  <time>2011-09-02T06:42:45Z</time>
  <speed>2.460000</speed>
</trkpt>
<trkpt lat="32.865951538" lon="35.245479584">
  <ele>262.307129</ele>
  <time>2011-09-02T06:42:46Z</time>
  <speed>2.140000</speed>
</trkpt>
<trkpt lat="32.865909576" lon="35.245429993">
  <ele>261.713379</ele>
  <time>2011-09-02T06:42:48Z</time>
  <speed>3.270000</speed>
</trkpt>
<trkpt lat="32.865871429" lon="35.245403290">
  <ele>261.807129</ele>
  <time>2011-09-02T06:42:49Z</time>
  <speed>3.940000</speed>
</trkpt>
<trkpt lat="32.865837097" lon="35.245384216">
  <ele>260.807129</ele>
  <time>2011-09-02T06:42:50Z</time>
  <speed>3.830000</speed>
</trkpt>
<trkpt lat="32.865791321" lon="35.245353699">
  <ele>259.924316</ele>
  <time>2011-09-02T06:42:51Z</time>
  <speed>4.110000</speed>
</trkpt>
<trkpt lat="32.865768433" lon="35.245323181">
  <ele>259.283691</ele>
  <time>2011-09-02T06:42:52Z</time>
  <speed>3.820000</speed>
</trkpt>
<trkpt lat="32.865737915" lon="35.245296478">
  <ele>258.877441</ele>
  <time>2011-09-02T06:42:53Z</time>
  <speed>3.180000</speed>
</trkpt>
<trkpt lat="32.865711212" lon="35.245269775">
  <ele>258.682129</ele>
  <time>2011-09-02T06:42:54Z</time>
  <speed>2.640000</speed>
</trkpt>
<trkpt lat="32.865684509" lon="35.245231628">
  <ele>259.580566</ele>
  <time>2011-09-02T06:42:55Z</time>
  <speed>2.520000</speed>
</trkpt>
<trkpt lat="32.865653992" lon="35.245189667">
  <ele>260.932129</ele>
  <time>2011-09-02T06:42:56Z</time>
  <speed>2.720000</speed>
</trkpt>
<trkpt lat="32.865634918" lon="35.245143890">
  <ele>261.729004</ele>
  <time>2011-09-02T06:42:58Z</time>
  <speed>2.330000</speed>
</trkpt>
<trkpt lat="32.865638733" lon="35.245094299">
  <ele>262.057129</ele>
  <time>2011-09-02T06:43:00Z</time>
  <speed>1.760000</speed>
</trkpt>
<trkpt lat="32.865653992" lon="35.245056152">
  <ele>262.885254</ele>
  <time>2011-09-02T06:43:02Z</time>
  <speed>1.150000</speed>
</trkpt>
<trkpt lat="32.865642548" lon="35.245025635">
  <ele>263.783691</ele>
  <time>2011-09-02T06:43:03Z</time>
  <speed>1.120000</speed>
</trkpt>
<trkpt lat="32.865615845" lon="35.245025635">
  <ele>263.869629</ele>
  <time>2011-09-02T06:43:07Z</time>
  <speed>0.940000</speed>
</trkpt>
<trkpt lat="32.865589142" lon="35.245014191">
  <ele>263.619629</ele>
  <time>2011-09-02T06:43:12Z</time>
  <speed>0.980000</speed>
</trkpt>
<trkpt lat="32.865558624" lon="35.244987488">
  <ele>263.736816</ele>
  <time>2011-09-02T06:43:14Z</time>
  <speed>2.270000</speed>
</trkpt>
<trkpt lat="32.865535736" lon="35.244972229">
  <ele>263.354004</ele>
  <time>2011-09-02T06:43:15Z</time>
  <speed>2.640000</speed>
</trkpt>
<trkpt lat="32.865501404" lon="35.244949341">
  <ele>263.166504</ele>
  <time>2011-09-02T06:43:16Z</time>
  <speed>3.230000</speed>
</trkpt>
<trkpt lat="32.865470886" lon="35.244926453">
  <ele>262.947754</ele>
  <time>2011-09-02T06:43:17Z</time>
  <speed>3.360000</speed>
</trkpt>
<trkpt lat="32.865440369" lon="35.244907379">
  <ele>262.799316</ele>
  <time>2011-09-02T06:43:18Z</time>
  <speed>3.280000</speed>
</trkpt>
<trkpt lat="32.865406036" lon="35.244888306">
  <ele>262.166504</ele>
  <time>2011-09-02T06:43:19Z</time>
  <speed>3.360000</speed>
</trkpt>
<trkpt lat="32.865364075" lon="35.244869232">
  <ele>262.213379</ele>
  <time>2011-09-02T06:43:20Z</time>
  <speed>3.660000</speed>
</trkpt>
<trkpt lat="32.865337372" lon="35.244842529">
  <ele>262.111816</ele>
  <time>2011-09-02T06:43:21Z</time>
  <speed>3.890000</speed>
</trkpt>
<trkpt lat="32.865299225" lon="35.244819641">
  <ele>261.260254</ele>
  <time>2011-09-02T06:43:22Z</time>
  <speed>3.890000</speed>
</trkpt>
<trkpt lat="32.865261078" lon="35.244789124">
  <ele>260.783691</ele>
  <time>2011-09-02T06:43:23Z</time>
  <speed>4.200000</speed>
</trkpt>
<trkpt lat="32.865234375" lon="35.244754791">
  <ele>260.432129</ele>
  <time>2011-09-02T06:43:24Z</time>
  <speed>4.040000</speed>
</trkpt>
<trkpt lat="32.865211487" lon="35.244716644">
  <ele>260.135254</ele>
  <time>2011-09-02T06:43:25Z</time>
  <speed>4.200000</speed>
</trkpt>
<trkpt lat="32.865188599" lon="35.244674683">
  <ele>259.705566</ele>
  <time>2011-09-02T06:43:26Z</time>
  <speed>4.390000</speed>
</trkpt>
<trkpt lat="32.865158081" lon="35.244625092">
  <ele>260.189941</ele>
  <time>2011-09-02T06:43:27Z</time>
  <speed>4.720000</speed>
</trkpt>
<trkpt lat="32.865142822" lon="35.244579315">
  <ele>259.783691</ele>
  <time>2011-09-02T06:43:28Z</time>
  <speed>3.820000</speed>
</trkpt>
<trkpt lat="32.865131378" lon="35.244541168">
  <ele>259.557129</ele>
  <time>2011-09-02T06:43:29Z</time>
  <speed>3.580000</speed>
</trkpt>
<trkpt lat="32.865119934" lon="35.244503021">
  <ele>259.518066</ele>
  <time>2011-09-02T06:43:30Z</time>
  <speed>3.680000</speed>
</trkpt>
<trkpt lat="32.865116119" lon="35.244461060">
  <ele>258.971191</ele>
  <time>2011-09-02T06:43:31Z</time>
  <speed>3.410000</speed>
</trkpt>
<trkpt lat="32.865119934" lon="35.244422913">
  <ele>258.682129</ele>
  <time>2011-09-02T06:43:32Z</time>
  <speed>2.810000</speed>
</trkpt>
<trkpt lat="32.865131378" lon="35.244396210">
  <ele>258.424316</ele>
  <time>2011-09-02T06:43:33Z</time>
  <speed>2.670000</speed>
</trkpt>
<trkpt lat="32.865161896" lon="35.244358063">
  <ele>257.588379</ele>
  <time>2011-09-02T06:43:35Z</time>
  <speed>2.910000</speed>
</trkpt>
<trkpt lat="32.865184784" lon="35.244331360">
  <ele>256.838379</ele>
  <time>2011-09-02T06:43:36Z</time>
  <speed>3.240000</speed>
</trkpt>
<trkpt lat="32.865219116" lon="35.244293213">
  <ele>257.150879</ele>
  <time>2011-09-02T06:43:38Z</time>
  <speed>2.830000</speed>
</trkpt>
<trkpt lat="32.865238190" lon="35.244243622">
  <ele>257.197754</ele>
  <time>2011-09-02T06:43:40Z</time>
  <speed>1.870000</speed>
</trkpt>
<trkpt lat="32.865219116" lon="35.244182587">
  <ele>256.736816</ele>
  <time>2011-09-02T06:43:42Z</time>
  <speed>2.220000</speed>
</trkpt>
<trkpt lat="32.865207672" lon="35.244125366">
  <ele>258.221191</ele>
  <time>2011-09-02T06:43:43Z</time>
  <speed>3.070000</speed>
</trkpt>
<trkpt lat="32.865200043" lon="35.244091034">
  <ele>258.400879</ele>
  <time>2011-09-02T06:43:44Z</time>
  <speed>2.650000</speed>
</trkpt>
<trkpt lat="32.865196228" lon="35.244060516">
  <ele>258.572754</ele>
  <time>2011-09-02T06:43:45Z</time>
  <speed>2.480000</speed>
</trkpt>
<trkpt lat="32.865180969" lon="35.244003296">
  <ele>258.627441</ele>
  <time>2011-09-02T06:43:47Z</time>
  <speed>2.910000</speed>
</trkpt>
<trkpt lat="32.865180969" lon="35.243968964">
  <ele>259.143066</ele>
  <time>2011-09-02T06:43:48Z</time>
  <speed>2.890000</speed>
</trkpt>
<trkpt lat="32.865177155" lon="35.243919373">
  <ele>259.932129</ele>
  <time>2011-09-02T06:43:49Z</time>
  <speed>3.080000</speed>
</trkpt>
<trkpt lat="32.865184784" lon="35.243881226">
  <ele>260.525879</ele>
  <time>2011-09-02T06:43:50Z</time>
  <speed>3.200000</speed>
</trkpt>
<trkpt lat="32.865196228" lon="35.243843079">
  <ele>260.650879</ele>
  <time>2011-09-02T06:43:51Z</time>
  <speed>3.050000</speed>
</trkpt>
<trkpt lat="32.865196228" lon="35.243797302">
  <ele>261.049316</ele>
  <time>2011-09-02T06:43:52Z</time>
  <speed>2.980000</speed>
</trkpt>
<trkpt lat="32.865188599" lon="35.243762970">
  <ele>261.580566</ele>
  <time>2011-09-02T06:43:53Z</time>
  <speed>3.040000</speed>
</trkpt>
<trkpt lat="32.865165710" lon="35.243701935">
  <ele>261.205566</ele>
  <time>2011-09-02T06:43:55Z</time>
  <speed>3.020000</speed>
</trkpt>
<trkpt lat="32.865158081" lon="35.243644714">
  <ele>261.455566</ele>
  <time>2011-09-02T06:43:57Z</time>
  <speed>2.370000</speed>
</trkpt>
<trkpt lat="32.865184784" lon="35.243606567">
  <ele>262.018066</ele>
  <time>2011-09-02T06:43:59Z</time>
  <speed>2.850000</speed>
</trkpt>
<trkpt lat="32.865242004" lon="35.243583679">
  <ele>261.744629</ele>
  <time>2011-09-02T06:44:01Z</time>
  <speed>3.220000</speed>
</trkpt>
<trkpt lat="32.865264893" lon="35.243568420">
  <ele>261.619629</ele>
  <time>2011-09-02T06:44:02Z</time>
  <speed>2.470000</speed>
</trkpt>
<trkpt lat="32.865272522" lon="35.243495941">
  <ele>264.432129</ele>
  <time>2011-09-02T06:44:03Z</time>
  <speed>2.290000</speed>
</trkpt>
<trkpt lat="32.865283966" lon="35.243438721">
  <ele>265.463379</ele>
  <time>2011-09-02T06:44:05Z</time>
  <speed>2.740000</speed>
</trkpt>
<trkpt lat="32.865283966" lon="35.243400574">
  <ele>265.314941</ele>
  <time>2011-09-02T06:44:06Z</time>
  <speed>3.510000</speed>
</trkpt>
<trkpt lat="32.865280151" lon="35.243354797">
  <ele>265.158691</ele>
  <time>2011-09-02T06:44:07Z</time>
  <speed>3.590000</speed>
</trkpt>
<trkpt lat="32.865280151" lon="35.243316650">
  <ele>265.361816</ele>
  <time>2011-09-02T06:44:08Z</time>
  <speed>3.220000</speed>
</trkpt>
<trkpt lat="32.865264893" lon="35.243278503">
  <ele>265.393066</ele>
  <time>2011-09-02T06:44:09Z</time>
  <speed>3.730000</speed>
</trkpt>
<trkpt lat="32.865249634" lon="35.243236542">
  <ele>265.439941</ele>
  <time>2011-09-02T06:44:10Z</time>
  <speed>3.680000</speed>
</trkpt>
<trkpt lat="32.865219116" lon="35.243198395">
  <ele>266.502441</ele>
  <time>2011-09-02T06:44:11Z</time>
  <speed>3.380000</speed>
</trkpt>
<trkpt lat="32.865192413" lon="35.243175507">
  <ele>266.752441</ele>
  <time>2011-09-02T06:44:12Z</time>
  <speed>2.920000</speed>
</trkpt>
<trkpt lat="32.865146637" lon="35.243141174">
  <ele>267.275879</ele>
  <time>2011-09-02T06:44:14Z</time>
  <speed>2.600000</speed>
</trkpt>
<trkpt lat="32.865119934" lon="35.243095398">
  <ele>268.010254</ele>
  <time>2011-09-02T06:44:16Z</time>
  <speed>2.310000</speed>
</trkpt>
<trkpt lat="32.865081787" lon="35.243064880">
  <ele>267.650879</ele>
  <time>2011-09-02T06:44:18Z</time>
  <speed>2.490000</speed>
</trkpt>
<trkpt lat="32.865051270" lon="35.243011475">
  <ele>267.064941</ele>
  <time>2011-09-02T06:44:20Z</time>
  <speed>3.040000</speed>
</trkpt>
<trkpt lat="32.865036011" lon="35.242980957">
  <ele>266.736816</ele>
  <time>2011-09-02T06:44:21Z</time>
  <speed>3.050000</speed>
</trkpt>
<trkpt lat="32.865020752" lon="35.242950439">
  <ele>267.166504</ele>
  <time>2011-09-02T06:44:22Z</time>
  <speed>2.940000</speed>
</trkpt>
<trkpt lat="32.865001678" lon="35.242916107">
  <ele>267.057129</ele>
  <time>2011-09-02T06:44:23Z</time>
  <speed>3.160000</speed>
</trkpt>
<trkpt lat="32.864986420" lon="35.242885590">
  <ele>266.533691</ele>
  <time>2011-09-02T06:44:24Z</time>
  <speed>3.470000</speed>
</trkpt>
<trkpt lat="32.864974976" lon="35.242847443">
  <ele>265.658691</ele>
  <time>2011-09-02T06:44:25Z</time>
  <speed>3.700000</speed>
</trkpt>
<trkpt lat="32.864955902" lon="35.242805481">
  <ele>264.963379</ele>
  <time>2011-09-02T06:44:26Z</time>
  <speed>3.720000</speed>
</trkpt>
<trkpt lat="32.864933014" lon="35.242778778">
  <ele>264.729004</ele>
  <time>2011-09-02T06:44:27Z</time>
  <speed>3.450000</speed>
</trkpt>
<trkpt lat="32.864913940" lon="35.242752075">
  <ele>264.166504</ele>
  <time>2011-09-02T06:44:28Z</time>
  <speed>3.320000</speed>
</trkpt>
<trkpt lat="32.864879608" lon="35.242721558">
  <ele>263.682129</ele>
  <time>2011-09-02T06:44:29Z</time>
  <speed>3.570000</speed>
</trkpt>
<trkpt lat="32.864864349" lon="35.242675781">
  <ele>263.033691</ele>
  <time>2011-09-02T06:44:31Z</time>
  <speed>2.380000</speed>
</trkpt>
<trkpt lat="32.864856720" lon="35.242637634">
  <ele>263.033691</ele>
  <time>2011-09-02T06:44:32Z</time>
  <speed>2.810000</speed>
</trkpt>
<trkpt lat="32.864856720" lon="35.242576599">
  <ele>262.971191</ele>
  <time>2011-09-02T06:44:34Z</time>
  <speed>3.190000</speed>
</trkpt>
<trkpt lat="32.864852905" lon="35.242542267">
  <ele>262.346191</ele>
  <time>2011-09-02T06:44:35Z</time>
  <speed>3.520000</speed>
</trkpt>
<trkpt lat="32.864856720" lon="35.242500305">
  <ele>261.705566</ele>
  <time>2011-09-02T06:44:36Z</time>
  <speed>3.650000</speed>
</trkpt>
<trkpt lat="32.864864349" lon="35.242462158">
  <ele>261.158691</ele>
  <time>2011-09-02T06:44:37Z</time>
  <speed>3.580000</speed>
</trkpt>
<trkpt lat="32.864868164" lon="35.242424011">
  <ele>260.041504</ele>
  <time>2011-09-02T06:44:38Z</time>
  <speed>3.600000</speed>
</trkpt>
<trkpt lat="32.864868164" lon="35.242366791">
  <ele>259.088379</ele>
  <time>2011-09-02T06:44:40Z</time>
  <speed>1.840000</speed>
</trkpt>
<trkpt lat="32.864887238" lon="35.242321014">
  <ele>257.885254</ele>
  <time>2011-09-02T06:44:42Z</time>
  <speed>2.570000</speed>
</trkpt>
<trkpt lat="32.864883423" lon="35.242256165">
  <ele>256.689941</ele>
  <time>2011-09-02T06:44:44Z</time>
  <speed>2.870000</speed>
</trkpt>
<trkpt lat="32.864875793" lon="35.242218018">
  <ele>256.549316</ele>
  <time>2011-09-02T06:44:45Z</time>
  <speed>3.050000</speed>
</trkpt>
<trkpt lat="32.864879608" lon="35.242183685">
  <ele>255.884033</ele>
  <time>2011-09-02T06:44:46Z</time>
  <speed>2.890000</speed>
</trkpt>
<trkpt lat="32.864879608" lon="35.242126465">
  <ele>254.583252</ele>
  <time>2011-09-02T06:44:48Z</time>
  <speed>2.480000</speed>
</trkpt>
<trkpt lat="32.864887238" lon="35.242088318">
  <ele>253.516846</ele>
  <time>2011-09-02T06:44:49Z</time>
  <speed>3.250000</speed>
</trkpt>
<trkpt lat="32.864887238" lon="35.242053986">
  <ele>252.739502</ele>
  <time>2011-09-02T06:44:50Z</time>
  <speed>2.850000</speed>
</trkpt>
<trkpt lat="32.864894867" lon="35.242023468">
  <ele>252.430908</ele>
  <time>2011-09-02T06:44:51Z</time>
  <speed>2.760000</speed>
</trkpt>
<trkpt lat="32.864910126" lon="35.241992950">
  <ele>251.805908</ele>
  <time>2011-09-02T06:44:52Z</time>
  <speed>3.130000</speed>
</trkpt>
<trkpt lat="32.864925385" lon="35.241954803">
  <ele>251.137939</ele>
  <time>2011-09-02T06:44:53Z</time>
  <speed>3.400000</speed>
</trkpt>
<trkpt lat="32.864940643" lon="35.241920471">
  <ele>250.575439</ele>
  <time>2011-09-02T06:44:54Z</time>
  <speed>2.970000</speed>
</trkpt>
<trkpt lat="32.864933014" lon="35.241878510">
  <ele>250.880127</ele>
  <time>2011-09-02T06:44:55Z</time>
  <speed>2.140000</speed>
</trkpt>
<trkpt lat="32.864883423" lon="35.241847992">
  <ele>248.536377</ele>
  <time>2011-09-02T06:44:57Z</time>
  <speed>3.250000</speed>
</trkpt>
<trkpt lat="32.864852905" lon="35.241832733">
  <ele>247.677002</ele>
  <time>2011-09-02T06:44:58Z</time>
  <speed>2.980000</speed>
</trkpt>
<trkpt lat="32.864830017" lon="35.241779327">
  <ele>245.403564</ele>
  <time>2011-09-02T06:45:00Z</time>
  <speed>3.030000</speed>
</trkpt>
<trkpt lat="32.864833832" lon="35.241744995">
  <ele>244.005127</ele>
  <time>2011-09-02T06:45:01Z</time>
  <speed>3.110000</speed>
</trkpt>
<trkpt lat="32.864860535" lon="35.241703033">
  <ele>242.630127</ele>
  <time>2011-09-02T06:45:03Z</time>
  <speed>2.880000</speed>
</trkpt>
<trkpt lat="32.864887238" lon="35.241683960">
  <ele>242.177002</ele>
  <time>2011-09-02T06:45:04Z</time>
  <speed>2.820000</speed>
</trkpt>
<trkpt lat="32.864910126" lon="35.241657257">
  <ele>241.821533</ele>
  <time>2011-09-02T06:45:05Z</time>
  <speed>2.540000</speed>
</trkpt>
<trkpt lat="32.864929199" lon="35.241600037">
  <ele>241.188721</ele>
  <time>2011-09-02T06:45:07Z</time>
  <speed>2.440000</speed>
</trkpt>
<trkpt lat="32.864917755" lon="35.241550446">
  <ele>239.380127</ele>
  <time>2011-09-02T06:45:09Z</time>
  <speed>2.210000</speed>
</trkpt>
<trkpt lat="32.864902496" lon="35.241493225">
  <ele>238.505127</ele>
  <time>2011-09-02T06:45:11Z</time>
  <speed>2.700000</speed>
</trkpt>
<trkpt lat="32.864891052" lon="35.241447449">
  <ele>238.122314</ele>
  <time>2011-09-02T06:45:12Z</time>
  <speed>3.600000</speed>
</trkpt>
<trkpt lat="32.864871979" lon="35.241409302">
  <ele>237.993408</ele>
  <time>2011-09-02T06:45:13Z</time>
  <speed>3.340000</speed>
</trkpt>
<trkpt lat="32.864849091" lon="35.241374969">
  <ele>237.466064</ele>
  <time>2011-09-02T06:45:14Z</time>
  <speed>3.730000</speed>
</trkpt>
<trkpt lat="32.864826202" lon="35.241344452">
  <ele>236.278564</ele>
  <time>2011-09-02T06:45:15Z</time>
  <speed>3.690000</speed>
</trkpt>
<trkpt lat="32.864807129" lon="35.241306305">
  <ele>235.540283</ele>
  <time>2011-09-02T06:45:16Z</time>
  <speed>4.020000</speed>
</trkpt>
<trkpt lat="32.864784241" lon="35.241268158">
  <ele>234.524658</ele>
  <time>2011-09-02T06:45:17Z</time>
  <speed>3.670000</speed>
</trkpt>
<trkpt lat="32.864757538" lon="35.241241455">
  <ele>233.969971</ele>
  <time>2011-09-02T06:45:18Z</time>
  <speed>2.850000</speed>
</trkpt>
<trkpt lat="32.864734650" lon="35.241222382">
  <ele>233.259033</ele>
  <time>2011-09-02T06:45:19Z</time>
  <speed>2.540000</speed>
</trkpt>
<trkpt lat="32.864711761" lon="35.241180420">
  <ele>233.536377</ele>
  <time>2011-09-02T06:45:20Z</time>
  <speed>2.980000</speed>
</trkpt>
<trkpt lat="32.864692688" lon="35.241149902">
  <ele>233.262939</ele>
  <time>2011-09-02T06:45:21Z</time>
  <speed>3.660000</speed>
</trkpt>
<trkpt lat="32.864662170" lon="35.241107941">
  <ele>233.399658</ele>
  <time>2011-09-02T06:45:22Z</time>
  <speed>3.730000</speed>
</trkpt>
<trkpt lat="32.864631653" lon="35.241081238">
  <ele>233.325439</ele>
  <time>2011-09-02T06:45:23Z</time>
  <speed>3.170000</speed>
</trkpt>
<trkpt lat="32.864585876" lon="35.241050720">
  <ele>232.673096</ele>
  <time>2011-09-02T06:45:25Z</time>
  <speed>3.240000</speed>
</trkpt>
<trkpt lat="32.864555359" lon="35.241035461">
  <ele>232.848877</ele>
  <time>2011-09-02T06:45:26Z</time>
  <speed>3.450000</speed>
</trkpt>
<trkpt lat="32.864517212" lon="35.241031647">
  <ele>232.235596</ele>
  <time>2011-09-02T06:45:27Z</time>
  <speed>3.870000</speed>
</trkpt>
<trkpt lat="32.864486694" lon="35.241024017">
  <ele>231.356689</ele>
  <time>2011-09-02T06:45:28Z</time>
  <speed>3.410000</speed>
</trkpt>
<trkpt lat="32.864437103" lon="35.241008759">
  <ele>232.102783</ele>
  <time>2011-09-02T06:45:29Z</time>
  <speed>3.910000</speed>
</trkpt>
<trkpt lat="32.864398956" lon="35.240993500">
  <ele>232.106689</ele>
  <time>2011-09-02T06:45:30Z</time>
  <speed>4.440000</speed>
</trkpt>
<trkpt lat="32.864349365" lon="35.240982056">
  <ele>231.485596</ele>
  <time>2011-09-02T06:45:31Z</time>
  <speed>4.930000</speed>
</trkpt>
<trkpt lat="32.864303589" lon="35.240959167">
  <ele>231.302002</ele>
  <time>2011-09-02T06:45:32Z</time>
  <speed>4.870000</speed>
</trkpt>
<trkpt lat="32.864257813" lon="35.240936279">
  <ele>231.052002</ele>
  <time>2011-09-02T06:45:33Z</time>
  <speed>4.930000</speed>
</trkpt>
<trkpt lat="32.864231110" lon="35.240909576">
  <ele>230.071533</ele>
  <time>2011-09-02T06:45:34Z</time>
  <speed>3.100000</speed>
</trkpt>
<trkpt lat="32.864196777" lon="35.240894318">
  <ele>229.602783</ele>
  <time>2011-09-02T06:45:35Z</time>
  <speed>3.590000</speed>
</trkpt>
<trkpt lat="32.864162445" lon="35.240882874">
  <ele>228.618408</ele>
  <time>2011-09-02T06:45:36Z</time>
  <speed>3.070000</speed>
</trkpt>
<trkpt lat="32.864131927" lon="35.240879059">
  <ele>227.548096</ele>
  <time>2011-09-02T06:45:37Z</time>
  <speed>2.650000</speed>
</trkpt>
<trkpt lat="32.864109039" lon="35.240894318">
  <ele>227.344971</ele>
  <time>2011-09-02T06:45:38Z</time>
  <speed>2.150000</speed>
</trkpt>
<trkpt lat="32.864070892" lon="35.240909576">
  <ele>227.411377</ele>
  <time>2011-09-02T06:45:39Z</time>
  <speed>2.810000</speed>
</trkpt>
<trkpt lat="32.864093781" lon="35.240928650">
  <ele>227.512939</ele>
  <time>2011-09-02T06:45:47Z</time>
  <speed>0.240000</speed>
</trkpt>
<trkpt lat="32.864089966" lon="35.240905762">
  <ele>229.208252</ele>
  <time>2011-09-02T06:51:26Z</time>
</trkpt>
<trkpt lat="32.864078522" lon="35.240875244">
  <ele>230.009033</ele>
  <time>2011-09-02T06:51:59Z</time>
  <speed>0.120000</speed>
</trkpt>
<trkpt lat="32.864067078" lon="35.240848541">
  <ele>230.544189</ele>
  <time>2011-09-02T06:52:23Z</time>
  <speed>0.150000</speed>
</trkpt>
<trkpt lat="32.864082336" lon="35.240867615">
  <ele>232.341064</ele>
  <time>2011-09-02T06:52:57Z</time>
  <speed>0.210000</speed>
</trkpt>
<trkpt lat="32.864078522" lon="35.240898132">
  <ele>233.438721</ele>
  <time>2011-09-02T06:53:08Z</time>
  <speed>0.200000</speed>
</trkpt>
<trkpt lat="32.864059448" lon="35.240924835">
  <ele>234.657471</ele>
  <time>2011-09-02T06:53:15Z</time>
  <speed>0.380000</speed>
</trkpt>
<trkpt lat="32.864040375" lon="35.240951538">
  <ele>234.755127</ele>
  <time>2011-09-02T06:53:17Z</time>
  <speed>0.530000</speed>
</trkpt>
<trkpt lat="32.864013672" lon="35.240997314">
  <ele>234.938721</ele>
  <time>2011-09-02T06:53:19Z</time>
  <speed>1.600000</speed>
</trkpt>
<trkpt lat="32.863983154" lon="35.241050720">
  <ele>234.805908</ele>
  <time>2011-09-02T06:53:21Z</time>
  <speed>2.330000</speed>
</trkpt>
<trkpt lat="32.863952637" lon="35.241092682">
  <ele>235.071533</ele>
  <time>2011-09-02T06:53:23Z</time>
  <speed>2.180000</speed>
</trkpt>
<trkpt lat="32.863929749" lon="35.241115570">
  <ele>234.887939</ele>
  <time>2011-09-02T06:53:24Z</time>
  <speed>2.120000</speed>
</trkpt>
<trkpt lat="32.863899231" lon="35.241157532">
  <ele>234.802002</ele>
  <time>2011-09-02T06:53:26Z</time>
  <speed>2.270000</speed>
</trkpt>
<trkpt lat="32.863864899" lon="35.241184235">
  <ele>234.626221</ele>
  <time>2011-09-02T06:53:28Z</time>
  <speed>2.780000</speed>
</trkpt>
<trkpt lat="32.863842010" lon="35.241203308">
  <ele>234.403564</ele>
  <time>2011-09-02T06:53:29Z</time>
  <speed>2.420000</speed>
</trkpt>
<trkpt lat="32.863815308" lon="35.241214752">
  <ele>234.489502</ele>
  <time>2011-09-02T06:53:30Z</time>
  <speed>2.370000</speed>
</trkpt>
<trkpt lat="32.863777161" lon="35.241241455">
  <ele>234.165283</ele>
  <time>2011-09-02T06:53:32Z</time>
  <speed>2.570000</speed>
</trkpt>
<trkpt lat="32.863727570" lon="35.241271973">
  <ele>233.680908</ele>
  <time>2011-09-02T06:53:34Z</time>
  <speed>3.150000</speed>
</trkpt>
<trkpt lat="32.863681793" lon="35.241291046">
  <ele>233.317627</ele>
  <time>2011-09-02T06:53:36Z</time>
  <speed>2.290000</speed>
</trkpt>
<trkpt lat="32.863636017" lon="35.241302490">
  <ele>233.274658</ele>
  <time>2011-09-02T06:53:38Z</time>
  <speed>2.210000</speed>
</trkpt>
<trkpt lat="32.863594055" lon="35.241321564">
  <ele>233.255127</ele>
  <time>2011-09-02T06:53:40Z</time>
  <speed>1.900000</speed>
</trkpt>
<trkpt lat="32.863544464" lon="35.241329193">
  <ele>232.528564</ele>
  <time>2011-09-02T06:53:42Z</time>
  <speed>1.790000</speed>
</trkpt>
<trkpt lat="32.863502502" lon="35.241348267">
  <ele>233.352783</ele>
  <time>2011-09-02T06:53:44Z</time>
  <speed>2.010000</speed>
</trkpt>
<trkpt lat="32.863475800" lon="35.241355896">
  <ele>233.028564</ele>
  <time>2011-09-02T06:53:45Z</time>
  <speed>1.960000</speed>
</trkpt>
<trkpt lat="32.863437653" lon="35.241367340">
  <ele>233.364502</ele>
  <time>2011-09-02T06:53:47Z</time>
  <speed>1.270000</speed>
</trkpt>
<trkpt lat="32.863399506" lon="35.241390228">
  <ele>233.520752</ele>
  <time>2011-09-02T06:53:49Z</time>
  <speed>1.690000</speed>
</trkpt>
<trkpt lat="32.863353729" lon="35.241394043">
  <ele>233.692627</ele>
  <time>2011-09-02T06:53:52Z</time>
  <speed>1.530000</speed>
</trkpt>
<trkpt lat="32.863292694" lon="35.241397858">
  <ele>235.376221</ele>
  <time>2011-09-02T06:53:54Z</time>
  <speed>1.700000</speed>
</trkpt>
<trkpt lat="32.863262177" lon="35.241405487">
  <ele>236.255127</ele>
  <time>2011-09-02T06:53:56Z</time>
  <speed>1.680000</speed>
</trkpt>
<trkpt lat="32.863235474" lon="35.241416931">
  <ele>236.786377</ele>
  <time>2011-09-02T06:53:57Z</time>
  <speed>1.460000</speed>
</trkpt>
<trkpt lat="32.863201141" lon="35.241432190">
  <ele>237.505127</ele>
  <time>2011-09-02T06:53:59Z</time>
  <speed>1.390000</speed>
</trkpt>
<trkpt lat="32.863166809" lon="35.241451263">
  <ele>238.427002</ele>
  <time>2011-09-02T06:54:00Z</time>
  <speed>2.190000</speed>
</trkpt>
<trkpt lat="32.863128662" lon="35.241466522">
  <ele>239.052002</ele>
  <time>2011-09-02T06:54:01Z</time>
  <speed>2.200000</speed>
</trkpt>
<trkpt lat="32.863086700" lon="35.241489410">
  <ele>238.677002</ele>
  <time>2011-09-02T06:54:03Z</time>
  <speed>2.150000</speed>
</trkpt>
<trkpt lat="32.863048553" lon="35.241523743">
  <ele>239.231689</ele>
  <time>2011-09-02T06:54:05Z</time>
  <speed>2.190000</speed>
</trkpt>
<trkpt lat="32.863018036" lon="35.241542816">
  <ele>238.747314</ele>
  <time>2011-09-02T06:54:06Z</time>
  <speed>2.470000</speed>
</trkpt>
<trkpt lat="32.862976074" lon="35.241565704">
  <ele>238.552002</ele>
  <time>2011-09-02T06:54:08Z</time>
  <speed>2.080000</speed>
</trkpt>
<trkpt lat="32.862941742" lon="35.241584778">
  <ele>238.786377</ele>
  <time>2011-09-02T06:54:10Z</time>
  <speed>2.390000</speed>
</trkpt>
<trkpt lat="32.862895966" lon="35.241600037">
  <ele>238.407471</ele>
  <time>2011-09-02T06:54:12Z</time>
  <speed>2.240000</speed>
</trkpt>
<trkpt lat="32.862873077" lon="35.241630554">
  <ele>238.700439</ele>
  <time>2011-09-02T06:54:14Z</time>
  <speed>1.930000</speed>
</trkpt>
<trkpt lat="32.862842560" lon="35.241653442">
  <ele>239.852783</ele>
  <time>2011-09-02T06:54:16Z</time>
  <speed>2.390000</speed>
</trkpt>
<trkpt lat="32.862842560" lon="35.241699219">
  <ele>239.868408</ele>
  <time>2011-09-02T06:54:19Z</time>
  <speed>2.690000</speed>
</trkpt>
<trkpt lat="32.862834930" lon="35.241752625">
  <ele>240.094971</ele>
  <time>2011-09-02T06:54:21Z</time>
  <speed>2.370000</speed>
</trkpt>
<trkpt lat="32.862823486" lon="35.241794586">
  <ele>240.716064</ele>
  <time>2011-09-02T06:54:23Z</time>
  <speed>2.540000</speed>
</trkpt>
<trkpt lat="32.862808228" lon="35.241855621">
  <ele>240.876221</ele>
  <time>2011-09-02T06:54:25Z</time>
  <speed>2.470000</speed>
</trkpt>
<trkpt lat="32.862789154" lon="35.241901398">
  <ele>242.665283</ele>
  <time>2011-09-02T06:54:26Z</time>
  <speed>2.500000</speed>
</trkpt>
<trkpt lat="32.862777710" lon="35.241939545">
  <ele>243.634033</ele>
  <time>2011-09-02T06:54:27Z</time>
  <speed>2.240000</speed>
</trkpt>
<trkpt lat="32.862770081" lon="35.241996765">
  <ele>245.704346</ele>
  <time>2011-09-02T06:54:29Z</time>
  <speed>2.580000</speed>
</trkpt>
<trkpt lat="32.862766266" lon="35.242031097">
  <ele>246.302002</ele>
  <time>2011-09-02T06:54:30Z</time>
  <speed>2.750000</speed>
</trkpt>
<trkpt lat="32.862773895" lon="35.242092133">
  <ele>247.430908</ele>
  <time>2011-09-02T06:54:32Z</time>
  <speed>2.570000</speed>
</trkpt>
<trkpt lat="32.862777710" lon="35.242122650">
  <ele>247.868408</ele>
  <time>2011-09-02T06:54:33Z</time>
  <speed>2.590000</speed>
</trkpt>
<trkpt lat="32.862785339" lon="35.242156982">
  <ele>247.923096</ele>
  <time>2011-09-02T06:54:34Z</time>
  <speed>2.470000</speed>
</trkpt>
<trkpt lat="32.862804413" lon="35.242210388">
  <ele>248.313721</ele>
  <time>2011-09-02T06:54:36Z</time>
  <speed>2.330000</speed>
</trkpt>
<trkpt lat="32.862831116" lon="35.242256165">
  <ele>248.567627</ele>
  <time>2011-09-02T06:54:38Z</time>
  <speed>2.510000</speed>
</trkpt>
<trkpt lat="32.862850189" lon="35.242279053">
  <ele>248.278564</ele>
  <time>2011-09-02T06:54:39Z</time>
  <speed>2.670000</speed>
</trkpt>
<trkpt lat="32.862876892" lon="35.242321014">
  <ele>247.708252</ele>
  <time>2011-09-02T06:54:41Z</time>
  <speed>2.570000</speed>
</trkpt>
<trkpt lat="32.862907410" lon="35.242362976">
  <ele>247.911377</ele>
  <time>2011-09-02T06:54:43Z</time>
  <speed>2.750000</speed>
</trkpt>
<trkpt lat="32.862953186" lon="35.242401123">
  <ele>249.661377</ele>
  <time>2011-09-02T06:54:45Z</time>
  <speed>2.870000</speed>
</trkpt>
<trkpt lat="32.862987518" lon="35.242443085">
  <ele>250.751221</ele>
  <time>2011-09-02T06:54:47Z</time>
  <speed>2.930000</speed>
</trkpt>
<trkpt lat="32.863006592" lon="35.242469788">
  <ele>251.395752</ele>
  <time>2011-09-02T06:54:48Z</time>
  <speed>2.820000</speed>
</trkpt>
<trkpt lat="32.863021851" lon="35.242492676">
  <ele>252.130127</ele>
  <time>2011-09-02T06:54:49Z</time>
  <speed>2.910000</speed>
</trkpt>
<trkpt lat="32.863052368" lon="35.242546082">
  <ele>252.591064</ele>
  <time>2011-09-02T06:54:51Z</time>
  <speed>3.050000</speed>
</trkpt>
<trkpt lat="32.863071442" lon="35.242568970">
  <ele>252.848877</ele>
  <time>2011-09-02T06:54:52Z</time>
  <speed>2.980000</speed>
</trkpt>
<trkpt lat="32.863094330" lon="35.242595673">
  <ele>252.848877</ele>
  <time>2011-09-02T06:54:53Z</time>
  <speed>2.810000</speed>
</trkpt>
<trkpt lat="32.863113403" lon="35.242618561">
  <ele>252.805908</ele>
  <time>2011-09-02T06:54:54Z</time>
  <speed>2.940000</speed>
</trkpt>
<trkpt lat="32.863136292" lon="35.242645264">
  <ele>252.860596</ele>
  <time>2011-09-02T06:54:55Z</time>
  <speed>3.080000</speed>
</trkpt>
<trkpt lat="32.863155365" lon="35.242671967">
  <ele>252.798096</ele>
  <time>2011-09-02T06:54:56Z</time>
  <speed>3.030000</speed>
</trkpt>
<trkpt lat="32.863174438" lon="35.242698669">
  <ele>253.032471</ele>
  <time>2011-09-02T06:54:57Z</time>
  <speed>2.760000</speed>
</trkpt>
<trkpt lat="32.863212585" lon="35.242752075">
  <ele>252.665283</ele>
  <time>2011-09-02T06:54:59Z</time>
  <speed>3.070000</speed>
</trkpt>
<trkpt lat="32.863235474" lon="35.242778778">
  <ele>252.684814</ele>
  <time>2011-09-02T06:55:00Z</time>
  <speed>3.310000</speed>
</trkpt>
<trkpt lat="32.863250732" lon="35.242805481">
  <ele>252.626221</ele>
  <time>2011-09-02T06:55:01Z</time>
  <speed>3.070000</speed>
</trkpt>
<trkpt lat="32.863273621" lon="35.242835999">
  <ele>252.559814</ele>
  <time>2011-09-02T06:55:02Z</time>
  <speed>3.310000</speed>
</trkpt>
<trkpt lat="32.863292694" lon="35.242862701">
  <ele>252.270752</ele>
  <time>2011-09-02T06:55:03Z</time>
  <speed>3.180000</speed>
</trkpt>
<trkpt lat="32.863327026" lon="35.242904663">
  <ele>250.626221</ele>
  <time>2011-09-02T06:55:05Z</time>
  <speed>3.400000</speed>
</trkpt>
<trkpt lat="32.863349915" lon="35.242931366">
  <ele>250.083252</ele>
  <time>2011-09-02T06:55:06Z</time>
  <speed>3.430000</speed>
</trkpt>
<trkpt lat="32.863376617" lon="35.242950439">
  <ele>249.903564</ele>
  <time>2011-09-02T06:55:07Z</time>
  <speed>3.510000</speed>
</trkpt>
<trkpt lat="32.863403320" lon="35.242973328">
  <ele>249.622314</ele>
  <time>2011-09-02T06:55:08Z</time>
  <speed>3.520000</speed>
</trkpt>
<trkpt lat="32.863430023" lon="35.242996216">
  <ele>249.266846</ele>
  <time>2011-09-02T06:55:09Z</time>
  <speed>3.450000</speed>
</trkpt>
<trkpt lat="32.863452911" lon="35.243022919">
  <ele>249.141846</ele>
  <time>2011-09-02T06:55:10Z</time>
  <speed>3.530000</speed>
</trkpt>
<trkpt lat="32.863475800" lon="35.243041992">
  <ele>248.489502</ele>
  <time>2011-09-02T06:55:11Z</time>
  <speed>3.350000</speed>
</trkpt>
<trkpt lat="32.863498688" lon="35.243064880">
  <ele>247.864502</ele>
  <time>2011-09-02T06:55:12Z</time>
  <speed>3.230000</speed>
</trkpt>
<trkpt lat="32.863533020" lon="35.243114471">
  <ele>245.969971</ele>
  <time>2011-09-02T06:55:14Z</time>
  <speed>3.690000</speed>
</trkpt>
<trkpt lat="32.863555908" lon="35.243137360">
  <ele>245.169189</ele>
  <time>2011-09-02T06:55:15Z</time>
  <speed>3.800000</speed>
</trkpt>
<trkpt lat="32.863578796" lon="35.243164063">
  <ele>244.833252</ele>
  <time>2011-09-02T06:55:16Z</time>
  <speed>3.950000</speed>
</trkpt>
<trkpt lat="32.863609314" lon="35.243194580">
  <ele>244.782471</ele>
  <time>2011-09-02T06:55:17Z</time>
  <speed>3.820000</speed>
</trkpt>
<trkpt lat="32.863636017" lon="35.243225098">
  <ele>244.899658</ele>
  <time>2011-09-02T06:55:18Z</time>
  <speed>3.840000</speed>
</trkpt>
<trkpt lat="32.863658905" lon="35.243255615">
  <ele>245.411377</ele>
  <time>2011-09-02T06:55:19Z</time>
  <speed>3.500000</speed>
</trkpt>
<trkpt lat="32.863685608" lon="35.243282318">
  <ele>244.567627</ele>
  <time>2011-09-02T06:55:20Z</time>
  <speed>3.410000</speed>
</trkpt>
<trkpt lat="32.863708496" lon="35.243309021">
  <ele>244.485596</ele>
  <time>2011-09-02T06:55:21Z</time>
  <speed>3.520000</speed>
</trkpt>
<trkpt lat="32.863731384" lon="35.243343353">
  <ele>244.329346</ele>
  <time>2011-09-02T06:55:22Z</time>
  <speed>3.740000</speed>
</trkpt>
<trkpt lat="32.863754272" lon="35.243373871">
  <ele>244.731689</ele>
  <time>2011-09-02T06:55:23Z</time>
  <speed>3.510000</speed>
</trkpt>
<trkpt lat="32.863773346" lon="35.243404388">
  <ele>244.919189</ele>
  <time>2011-09-02T06:55:24Z</time>
  <speed>3.300000</speed>
</trkpt>
<trkpt lat="32.863788605" lon="35.243434906">
  <ele>245.173096</ele>
  <time>2011-09-02T06:55:25Z</time>
  <speed>3.270000</speed>
</trkpt>
<trkpt lat="32.863807678" lon="35.243473053">
  <ele>244.977783</ele>
  <time>2011-09-02T06:55:26Z</time>
  <speed>3.330000</speed>
</trkpt>
<trkpt lat="32.863819122" lon="35.243503571">
  <ele>245.001221</ele>
  <time>2011-09-02T06:55:27Z</time>
  <speed>3.380000</speed>
</trkpt>
<trkpt lat="32.863838196" lon="35.243534088">
  <ele>244.969971</ele>
  <time>2011-09-02T06:55:28Z</time>
  <speed>3.570000</speed>
</trkpt>
<trkpt lat="32.863853455" lon="35.243576050">
  <ele>245.634033</ele>
  <time>2011-09-02T06:55:29Z</time>
  <speed>3.770000</speed>
</trkpt>
<trkpt lat="32.863868713" lon="35.243614197">
  <ele>245.923096</ele>
  <time>2011-09-02T06:55:30Z</time>
  <speed>3.900000</speed>
</trkpt>
<trkpt lat="32.863883972" lon="35.243656158">
  <ele>246.575439</ele>
  <time>2011-09-02T06:55:31Z</time>
  <speed>3.730000</speed>
</trkpt>
<trkpt lat="32.863899231" lon="35.243690491">
  <ele>247.126221</ele>
  <time>2011-09-02T06:55:32Z</time>
  <speed>3.760000</speed>
</trkpt>
<trkpt lat="32.863918304" lon="35.243717194">
  <ele>247.208252</ele>
  <time>2011-09-02T06:55:33Z</time>
  <speed>3.660000</speed>
</trkpt>
<trkpt lat="32.863937378" lon="35.243751526">
  <ele>247.247314</ele>
  <time>2011-09-02T06:55:34Z</time>
  <speed>3.720000</speed>
</trkpt>
<trkpt lat="32.863952637" lon="35.243785858">
  <ele>247.305908</ele>
  <time>2011-09-02T06:55:35Z</time>
  <speed>3.840000</speed>
</trkpt>
<trkpt lat="32.863971710" lon="35.243824005">
  <ele>247.290283</ele>
  <time>2011-09-02T06:55:36Z</time>
  <speed>3.900000</speed>
</trkpt>
<trkpt lat="32.863990784" lon="35.243858337">
  <ele>247.356689</ele>
  <time>2011-09-02T06:55:37Z</time>
  <speed>3.770000</speed>
</trkpt>
<trkpt lat="32.864006042" lon="35.243900299">
  <ele>247.766846</ele>
  <time>2011-09-02T06:55:38Z</time>
  <speed>3.800000</speed>
</trkpt>
<trkpt lat="32.864017487" lon="35.243942261">
  <ele>248.626221</ele>
  <time>2011-09-02T06:55:39Z</time>
  <speed>3.730000</speed>
</trkpt>
<trkpt lat="32.864032745" lon="35.243976593">
  <ele>248.454346</ele>
  <time>2011-09-02T06:55:40Z</time>
  <speed>3.610000</speed>
</trkpt>
<trkpt lat="32.864048004" lon="35.244010925">
  <ele>248.661377</ele>
  <time>2011-09-02T06:55:41Z</time>
  <speed>3.440000</speed>
</trkpt>
<trkpt lat="32.864059448" lon="35.244045258">
  <ele>248.337158</ele>
  <time>2011-09-02T06:55:42Z</time>
  <speed>3.670000</speed>
</trkpt>
<trkpt lat="32.864074707" lon="35.244083405">
  <ele>247.872314</ele>
  <time>2011-09-02T06:55:43Z</time>
  <speed>3.370000</speed>
</trkpt>
<trkpt lat="32.864086151" lon="35.244117737">
  <ele>248.016846</ele>
  <time>2011-09-02T06:55:44Z</time>
  <speed>3.530000</speed>
</trkpt>
<trkpt lat="32.864097595" lon="35.244152069">
  <ele>247.880127</ele>
  <time>2011-09-02T06:55:45Z</time>
  <speed>3.320000</speed>
</trkpt>
<trkpt lat="32.864112854" lon="35.244182587">
  <ele>248.325439</ele>
  <time>2011-09-02T06:55:46Z</time>
  <speed>3.270000</speed>
</trkpt>
<trkpt lat="32.864131927" lon="35.244243622">
  <ele>247.411377</ele>
  <time>2011-09-02T06:55:48Z</time>
  <speed>3.420000</speed>
</trkpt>
<trkpt lat="32.864139557" lon="35.244277954">
  <ele>246.907471</ele>
  <time>2011-09-02T06:55:49Z</time>
  <speed>3.370000</speed>
</trkpt>
<trkpt lat="32.864151001" lon="35.244308472">
  <ele>245.942627</ele>
  <time>2011-09-02T06:55:50Z</time>
  <speed>3.510000</speed>
</trkpt>
<trkpt lat="32.864166260" lon="35.244346619">
  <ele>245.719971</ele>
  <time>2011-09-02T06:55:51Z</time>
  <speed>3.380000</speed>
</trkpt>
<trkpt lat="32.864185333" lon="35.244384766">
  <ele>245.313721</ele>
  <time>2011-09-02T06:55:52Z</time>
  <speed>3.690000</speed>
</trkpt>
<trkpt lat="32.864196777" lon="35.244415283">
  <ele>245.251221</ele>
  <time>2011-09-02T06:55:53Z</time>
  <speed>3.480000</speed>
</trkpt>
<trkpt lat="32.864215851" lon="35.244453430">
  <ele>244.716064</ele>
  <time>2011-09-02T06:55:54Z</time>
  <speed>3.560000</speed>
</trkpt>
<trkpt lat="32.864227295" lon="35.244483948">
  <ele>244.344971</ele>
  <time>2011-09-02T06:55:55Z</time>
  <speed>3.460000</speed>
</trkpt>
<trkpt lat="32.864242554" lon="35.244514465">
  <ele>244.384033</ele>
  <time>2011-09-02T06:55:56Z</time>
  <speed>3.680000</speed>
</trkpt>
<trkpt lat="32.864261627" lon="35.244548798">
  <ele>244.052002</ele>
  <time>2011-09-02T06:55:57Z</time>
  <speed>3.540000</speed>
</trkpt>
<trkpt lat="32.864276886" lon="35.244583130">
  <ele>243.536377</ele>
  <time>2011-09-02T06:55:58Z</time>
  <speed>3.730000</speed>
</trkpt>
<trkpt lat="32.864288330" lon="35.244625092">
  <ele>242.934814</ele>
  <time>2011-09-02T06:55:59Z</time>
  <speed>3.690000</speed>
</trkpt>
<trkpt lat="32.864303589" lon="35.244670868">
  <ele>242.505127</ele>
  <time>2011-09-02T06:56:00Z</time>
  <speed>3.970000</speed>
</trkpt>
<trkpt lat="32.864315033" lon="35.244709015">
  <ele>242.481689</ele>
  <time>2011-09-02T06:56:01Z</time>
  <speed>3.960000</speed>
</trkpt>
<trkpt lat="32.864334106" lon="35.244739532">
  <ele>242.294189</ele>
  <time>2011-09-02T06:56:02Z</time>
  <speed>3.900000</speed>
</trkpt>
<trkpt lat="32.864353180" lon="35.244773865">
  <ele>242.137939</ele>
  <time>2011-09-02T06:56:03Z</time>
  <speed>3.930000</speed>
</trkpt>
<trkpt lat="32.864376068" lon="35.244808197">
  <ele>242.052002</ele>
  <time>2011-09-02T06:56:04Z</time>
  <speed>3.790000</speed>
</trkpt>
<trkpt lat="32.864402771" lon="35.244842529">
  <ele>241.934814</ele>
  <time>2011-09-02T06:56:05Z</time>
  <speed>3.530000</speed>
</trkpt>
<trkpt lat="32.864418030" lon="35.244880676">
  <ele>241.782471</ele>
  <time>2011-09-02T06:56:06Z</time>
  <speed>3.290000</speed>
</trkpt>
<trkpt lat="32.864433289" lon="35.244911194">
  <ele>241.497314</ele>
  <time>2011-09-02T06:56:07Z</time>
  <speed>3.120000</speed>
</trkpt>
<trkpt lat="32.864444733" lon="35.244941711">
  <ele>241.083252</ele>
  <time>2011-09-02T06:56:08Z</time>
  <speed>3.150000</speed>
</trkpt>
<trkpt lat="32.864452362" lon="35.244976044">
  <ele>240.466064</ele>
  <time>2011-09-02T06:56:09Z</time>
  <speed>3.150000</speed>
</trkpt>
<trkpt lat="32.864463806" lon="35.245006561">
  <ele>239.884033</ele>
  <time>2011-09-02T06:56:10Z</time>
  <speed>3.240000</speed>
</trkpt>
<trkpt lat="32.864475250" lon="35.245033264">
  <ele>238.579346</ele>
  <time>2011-09-02T06:56:11Z</time>
  <speed>3.210000</speed>
</trkpt>
<trkpt lat="32.864498138" lon="35.245094299">
  <ele>238.149658</ele>
  <time>2011-09-02T06:56:13Z</time>
  <speed>3.190000</speed>
</trkpt>
<trkpt lat="32.864513397" lon="35.245124817">
  <ele>237.973877</ele>
  <time>2011-09-02T06:56:14Z</time>
  <speed>3.120000</speed>
</trkpt>
<trkpt lat="32.864521027" lon="35.245162964">
  <ele>237.739502</ele>
  <time>2011-09-02T06:56:15Z</time>
  <speed>3.010000</speed>
</trkpt>
<trkpt lat="32.864532471" lon="35.245197296">
  <ele>237.419189</ele>
  <time>2011-09-02T06:56:16Z</time>
  <speed>3.270000</speed>
</trkpt>
<trkpt lat="32.864540100" lon="35.245231628">
  <ele>237.286377</ele>
  <time>2011-09-02T06:56:17Z</time>
  <speed>3.070000</speed>
</trkpt>
<trkpt lat="32.864547729" lon="35.245269775">
  <ele>236.809814</ele>
  <time>2011-09-02T06:56:18Z</time>
  <speed>3.500000</speed>
</trkpt>
<trkpt lat="32.864555359" lon="35.245307922">
  <ele>236.782471</ele>
  <time>2011-09-02T06:56:19Z</time>
  <speed>3.440000</speed>
</trkpt>
<trkpt lat="32.864566803" lon="35.245342255">
  <ele>236.563721</ele>
  <time>2011-09-02T06:56:20Z</time>
  <speed>3.330000</speed>
</trkpt>
<trkpt lat="32.864578247" lon="35.245376587">
  <ele>236.364502</ele>
  <time>2011-09-02T06:56:21Z</time>
  <speed>3.630000</speed>
</trkpt>
<trkpt lat="32.864593506" lon="35.245410919">
  <ele>235.860596</ele>
  <time>2011-09-02T06:56:22Z</time>
  <speed>3.720000</speed>
</trkpt>
<trkpt lat="32.864608765" lon="35.245456696">
  <ele>236.196533</ele>
  <time>2011-09-02T06:56:23Z</time>
  <speed>3.600000</speed>
</trkpt>
<trkpt lat="32.864627838" lon="35.245494843">
  <ele>236.247314</ele>
  <time>2011-09-02T06:56:24Z</time>
  <speed>3.430000</speed>
</trkpt>
<trkpt lat="32.864643097" lon="35.245525360">
  <ele>235.868408</ele>
  <time>2011-09-02T06:56:25Z</time>
  <speed>2.950000</speed>
</trkpt>
<trkpt lat="32.864654541" lon="35.245555878">
  <ele>235.727783</ele>
  <time>2011-09-02T06:56:26Z</time>
  <speed>2.690000</speed>
</trkpt>
<trkpt lat="32.864673615" lon="35.245605469">
  <ele>235.079346</ele>
  <time>2011-09-02T06:56:28Z</time>
  <speed>2.410000</speed>
</trkpt>
<trkpt lat="32.864707947" lon="35.245651245">
  <ele>234.739502</ele>
  <time>2011-09-02T06:56:30Z</time>
  <speed>2.470000</speed>
</trkpt>
<trkpt lat="32.864727020" lon="35.245681763">
  <ele>235.184814</ele>
  <time>2011-09-02T06:56:31Z</time>
  <speed>2.330000</speed>
</trkpt>
<trkpt lat="32.864757538" lon="35.245723724">
  <ele>235.067627</ele>
  <time>2011-09-02T06:56:33Z</time>
  <speed>2.510000</speed>
</trkpt>
<trkpt lat="32.864795685" lon="35.245777130">
  <ele>234.505127</ele>
  <time>2011-09-02T06:56:35Z</time>
  <speed>2.950000</speed>
</trkpt>
<trkpt lat="32.864814758" lon="35.245803833">
  <ele>234.309814</ele>
  <time>2011-09-02T06:56:36Z</time>
  <speed>2.790000</speed>
</trkpt>
<trkpt lat="32.864841461" lon="35.245830536">
  <ele>234.177002</ele>
  <time>2011-09-02T06:56:37Z</time>
  <speed>2.860000</speed>
</trkpt>
<trkpt lat="32.864864349" lon="35.245880127">
  <ele>233.985596</ele>
  <time>2011-09-02T06:56:39Z</time>
  <speed>2.740000</speed>
</trkpt>
<trkpt lat="32.864864349" lon="35.245914459">
  <ele>234.134033</ele>
  <time>2011-09-02T06:56:40Z</time>
  <speed>2.710000</speed>
</trkpt>
<trkpt lat="32.864845276" lon="35.245960236">
  <ele>234.966064</ele>
  <time>2011-09-02T06:56:42Z</time>
  <speed>2.650000</speed>
</trkpt>
<trkpt lat="32.864833832" lon="35.245990753">
  <ele>234.723877</ele>
  <time>2011-09-02T06:56:43Z</time>
  <speed>2.770000</speed>
</trkpt>
<trkpt lat="32.864795685" lon="35.246032715">
  <ele>234.227783</ele>
  <time>2011-09-02T06:56:45Z</time>
  <speed>2.440000</speed>
</trkpt>
<trkpt lat="32.864772797" lon="35.246070862">
  <ele>234.184814</ele>
  <time>2011-09-02T06:56:47Z</time>
  <speed>1.740000</speed>
</trkpt>
<trkpt lat="32.864746094" lon="35.246089935">
  <ele>233.329346</ele>
  <time>2011-09-02T06:56:49Z</time>
  <speed>1.520000</speed>
</trkpt>
<trkpt lat="32.864681244" lon="35.246109009">
  <ele>232.833252</ele>
  <time>2011-09-02T06:56:51Z</time>
  <speed>2.820000</speed>
</trkpt>
<trkpt lat="32.864643097" lon="35.246128082">
  <ele>232.751221</ele>
  <time>2011-09-02T06:56:53Z</time>
  <speed>2.130000</speed>
</trkpt>
<trkpt lat="32.864612579" lon="35.246143341">
  <ele>232.844971</ele>
  <time>2011-09-02T06:56:54Z</time>
  <speed>2.050000</speed>
</trkpt>
<trkpt lat="32.864566803" lon="35.246154785">
  <ele>232.395752</ele>
  <time>2011-09-02T06:56:56Z</time>
  <speed>1.980000</speed>
</trkpt>
<trkpt lat="32.864540100" lon="35.246162415">
  <ele>232.290283</ele>
  <time>2011-09-02T06:56:57Z</time>
  <speed>2.030000</speed>
</trkpt>
<trkpt lat="32.864471436" lon="35.246181488">
  <ele>233.067627</ele>
  <time>2011-09-02T06:56:58Z</time>
  <speed>3.460000</speed>
</trkpt>
<trkpt lat="32.864429474" lon="35.246196747">
  <ele>233.114502</ele>
  <time>2011-09-02T06:56:59Z</time>
  <speed>2.800000</speed>
</trkpt>
<trkpt lat="32.864391327" lon="35.246200562">
  <ele>233.012939</ele>
  <time>2011-09-02T06:57:00Z</time>
  <speed>2.970000</speed>
</trkpt>
<trkpt lat="32.864334106" lon="35.246208191">
  <ele>232.009033</ele>
  <time>2011-09-02T06:57:02Z</time>
  <speed>2.820000</speed>
</trkpt>
<trkpt lat="32.864273071" lon="35.246192932">
  <ele>231.954346</ele>
  <time>2011-09-02T06:57:04Z</time>
  <speed>2.780000</speed>
</trkpt>
<trkpt lat="32.864242554" lon="35.246185303">
  <ele>232.208252</ele>
  <time>2011-09-02T06:57:05Z</time>
  <speed>2.980000</speed>
</trkpt>
<trkpt lat="32.864208221" lon="35.246181488">
  <ele>232.028564</ele>
  <time>2011-09-02T06:57:06Z</time>
  <speed>2.940000</speed>
</trkpt>
<trkpt lat="32.864181519" lon="35.246177673">
  <ele>232.106689</ele>
  <time>2011-09-02T06:57:07Z</time>
  <speed>2.930000</speed>
</trkpt>
<trkpt lat="32.864151001" lon="35.246173859">
  <ele>231.575439</ele>
  <time>2011-09-02T06:57:08Z</time>
  <speed>2.910000</speed>
</trkpt>
<trkpt lat="32.864124298" lon="35.246162415">
  <ele>231.231689</ele>
  <time>2011-09-02T06:57:09Z</time>
  <speed>3.180000</speed>
</trkpt>
<trkpt lat="32.864086151" lon="35.246158600">
  <ele>231.837158</ele>
  <time>2011-09-02T06:57:10Z</time>
  <speed>2.940000</speed>
</trkpt>
<trkpt lat="32.864055634" lon="35.246150970">
  <ele>231.743408</ele>
  <time>2011-09-02T06:57:11Z</time>
  <speed>2.790000</speed>
</trkpt>
<trkpt lat="32.864025116" lon="35.246143341">
  <ele>231.762939</ele>
  <time>2011-09-02T06:57:12Z</time>
  <speed>2.580000</speed>
</trkpt>
<trkpt lat="32.863990784" lon="35.246128082">
  <ele>232.040283</ele>
  <time>2011-09-02T06:57:13Z</time>
  <speed>2.830000</speed>
</trkpt>
<trkpt lat="32.863964081" lon="35.246120453">
  <ele>232.427002</ele>
  <time>2011-09-02T06:57:14Z</time>
  <speed>3.090000</speed>
</trkpt>
<trkpt lat="32.863941193" lon="35.246093750">
  <ele>232.829346</ele>
  <time>2011-09-02T06:57:15Z</time>
  <speed>3.040000</speed>
</trkpt>
<trkpt lat="32.863910675" lon="35.246074677">
  <ele>232.841064</ele>
  <time>2011-09-02T06:57:16Z</time>
  <speed>3.070000</speed>
</trkpt>
<trkpt lat="32.863880157" lon="35.246063232">
  <ele>233.544189</ele>
  <time>2011-09-02T06:57:17Z</time>
  <speed>2.880000</speed>
</trkpt>
<trkpt lat="32.863849640" lon="35.246051788">
  <ele>234.016846</ele>
  <time>2011-09-02T06:57:18Z</time>
  <speed>2.920000</speed>
</trkpt>
<trkpt lat="32.863819122" lon="35.246032715">
  <ele>234.337158</ele>
  <time>2011-09-02T06:57:19Z</time>
  <speed>3.020000</speed>
</trkpt>
<trkpt lat="32.863788605" lon="35.246021271">
  <ele>235.048096</ele>
  <time>2011-09-02T06:57:20Z</time>
  <speed>3.100000</speed>
</trkpt>
<trkpt lat="32.863761902" lon="35.246006012">
  <ele>235.243408</ele>
  <time>2011-09-02T06:57:21Z</time>
  <speed>3.310000</speed>
</trkpt>
<trkpt lat="32.863731384" lon="35.245990753">
  <ele>235.302002</ele>
  <time>2011-09-02T06:57:22Z</time>
  <speed>3.130000</speed>
</trkpt>
<trkpt lat="32.863704681" lon="35.245975494">
  <ele>235.438721</ele>
  <time>2011-09-02T06:57:23Z</time>
  <speed>3.060000</speed>
</trkpt>
<trkpt lat="32.863655090" lon="35.245952606">
  <ele>236.204346</ele>
  <time>2011-09-02T06:57:25Z</time>
  <speed>2.660000</speed>
</trkpt>
<trkpt lat="32.863628387" lon="35.245937347">
  <ele>236.204346</ele>
  <time>2011-09-02T06:57:26Z</time>
  <speed>2.760000</speed>
</trkpt>
<trkpt lat="32.863582611" lon="35.245918274">
  <ele>236.259033</ele>
  <time>2011-09-02T06:57:28Z</time>
  <speed>3.210000</speed>
</trkpt>
<trkpt lat="32.863540649" lon="35.245899200">
  <ele>237.122314</ele>
  <time>2011-09-02T06:57:29Z</time>
  <speed>3.290000</speed>
</trkpt>
<trkpt lat="32.863506317" lon="35.245891571">
  <ele>237.512939</ele>
  <time>2011-09-02T06:57:30Z</time>
  <speed>3.200000</speed>
</trkpt>
<trkpt lat="32.863471985" lon="35.245883942">
  <ele>238.302002</ele>
  <time>2011-09-02T06:57:31Z</time>
  <speed>3.140000</speed>
</trkpt>
<trkpt lat="32.863441467" lon="35.245876312">
  <ele>238.653564</ele>
  <time>2011-09-02T06:57:32Z</time>
  <speed>2.970000</speed>
</trkpt>
<trkpt lat="32.863388062" lon="35.245883942">
  <ele>238.360596</ele>
  <time>2011-09-02T06:57:34Z</time>
  <speed>2.470000</speed>
</trkpt>
<trkpt lat="32.863342285" lon="35.245880127">
  <ele>239.688721</ele>
  <time>2011-09-02T06:57:36Z</time>
  <speed>2.210000</speed>
</trkpt>
<trkpt lat="32.863319397" lon="35.245872498">
  <ele>241.501221</ele>
  <time>2011-09-02T06:57:37Z</time>
  <speed>2.670000</speed>
</trkpt>
<trkpt lat="32.863288879" lon="35.245864868">
  <ele>242.317627</ele>
  <time>2011-09-02T06:57:38Z</time>
  <speed>3.140000</speed>
</trkpt>
<trkpt lat="32.863258362" lon="35.245868683">
  <ele>242.735596</ele>
  <time>2011-09-02T06:57:39Z</time>
  <speed>3.150000</speed>
</trkpt>
<trkpt lat="32.863227844" lon="35.245876312">
  <ele>243.208252</ele>
  <time>2011-09-02T06:57:40Z</time>
  <speed>3.030000</speed>
</trkpt>
<trkpt lat="32.863189697" lon="35.245880127">
  <ele>244.321533</ele>
  <time>2011-09-02T06:57:41Z</time>
  <speed>3.090000</speed>
</trkpt>
<trkpt lat="32.863159180" lon="35.245891571">
  <ele>244.813721</ele>
  <time>2011-09-02T06:57:42Z</time>
  <speed>2.590000</speed>
</trkpt>
<trkpt lat="32.863117218" lon="35.245903015">
  <ele>244.884033</ele>
  <time>2011-09-02T06:57:44Z</time>
  <speed>1.880000</speed>
</trkpt>
<trkpt lat="32.863063812" lon="35.245914459">
  <ele>245.266846</ele>
  <time>2011-09-02T06:57:46Z</time>
  <speed>2.980000</speed>
</trkpt>
<trkpt lat="32.863029480" lon="35.245937347">
  <ele>245.462158</ele>
  <time>2011-09-02T06:57:47Z</time>
  <speed>3.350000</speed>
</trkpt>
<trkpt lat="32.863002777" lon="35.245952606">
  <ele>245.493408</ele>
  <time>2011-09-02T06:57:48Z</time>
  <speed>3.070000</speed>
</trkpt>
<trkpt lat="32.862976074" lon="35.245964050">
  <ele>246.020752</ele>
  <time>2011-09-02T06:57:49Z</time>
  <speed>2.500000</speed>
</trkpt>
<trkpt lat="32.862937927" lon="35.245994568">
  <ele>246.915283</ele>
  <time>2011-09-02T06:57:51Z</time>
  <speed>2.310000</speed>
</trkpt>
<trkpt lat="32.862907410" lon="35.246013641">
  <ele>246.262939</ele>
  <time>2011-09-02T06:57:53Z</time>
  <speed>0.750000</speed>
</trkpt>
<trkpt lat="32.862888336" lon="35.246032715">
  <ele>245.450439</ele>
  <time>2011-09-02T06:58:09Z</time>
  <speed>0.120000</speed>
</trkpt>
<trkpt lat="32.862869263" lon="35.245990753">
  <ele>247.532471</ele>
  <time>2011-09-02T07:00:32Z</time>
  <speed>2.370000</speed>
</trkpt>
<trkpt lat="32.862854004" lon="35.245956421">
  <ele>247.540283</ele>
  <time>2011-09-02T07:00:33Z</time>
  <speed>3.220000</speed>
</trkpt>
<trkpt lat="32.862854004" lon="35.245925903">
  <ele>247.321533</ele>
  <time>2011-09-02T07:00:34Z</time>
  <speed>2.570000</speed>
</trkpt>
<trkpt lat="32.862831116" lon="35.245868683">
  <ele>247.219971</ele>
  <time>2011-09-02T07:00:36Z</time>
  <speed>2.930000</speed>
</trkpt>
<trkpt lat="32.862819672" lon="35.245834351">
  <ele>247.298096</ele>
  <time>2011-09-02T07:00:37Z</time>
  <speed>2.680000</speed>
</trkpt>
<trkpt lat="32.862789154" lon="35.245796204">
  <ele>247.450439</ele>
  <time>2011-09-02T07:00:39Z</time>
  <speed>1.960000</speed>
</trkpt>
<trkpt lat="32.862754822" lon="35.245758057">
  <ele>247.923096</ele>
  <time>2011-09-02T07:00:41Z</time>
  <speed>2.090000</speed>
</trkpt>
<trkpt lat="32.862739563" lon="35.245723724">
  <ele>248.012939</ele>
  <time>2011-09-02T07:00:43Z</time>
  <speed>1.320000</speed>
</trkpt>
<trkpt lat="32.862712860" lon="35.245697021">
  <ele>248.032471</ele>
  <time>2011-09-02T07:00:45Z</time>
  <speed>1.610000</speed>
</trkpt>
<trkpt lat="32.862731934" lon="35.245647430">
  <ele>247.985596</ele>
  <time>2011-09-02T07:00:48Z</time>
  <speed>2.450000</speed>
</trkpt>
<trkpt lat="32.862754822" lon="35.245624542">
  <ele>247.712158</ele>
  <time>2011-09-02T07:00:49Z</time>
  <speed>2.520000</speed>
</trkpt>
<trkpt lat="32.862739563" lon="35.245586395">
  <ele>247.602783</ele>
  <time>2011-09-02T07:00:52Z</time>
  <speed>0.760000</speed>
</trkpt>
<trkpt lat="32.862716675" lon="35.245548248">
  <ele>247.532471</ele>
  <time>2011-09-02T07:00:54Z</time>
  <speed>0.660000</speed>
</trkpt>
<trkpt lat="32.862747192" lon="35.245513916">
  <ele>246.848877</ele>
  <time>2011-09-02T07:00:57Z</time>
  <speed>1.770000</speed>
</trkpt>
<trkpt lat="32.862751007" lon="35.245452881">
  <ele>247.028564</ele>
  <time>2011-09-02T07:00:58Z</time>
  <speed>2.030000</speed>
</trkpt>
<trkpt lat="32.862735748" lon="35.245422363">
  <ele>247.184814</ele>
  <time>2011-09-02T07:00:59Z</time>
  <speed>1.840000</speed>
</trkpt>
<trkpt lat="32.862712860" lon="35.245380402">
  <ele>247.044189</ele>
  <time>2011-09-02T07:01:01Z</time>
  <speed>1.460000</speed>
</trkpt>
<trkpt lat="32.862670898" lon="35.245338440">
  <ele>246.493408</ele>
  <time>2011-09-02T07:01:03Z</time>
  <speed>1.270000</speed>
</trkpt>
<trkpt lat="32.862663269" lon="35.245304108">
  <ele>246.532471</ele>
  <time>2011-09-02T07:01:04Z</time>
  <speed>1.570000</speed>
</trkpt>
<trkpt lat="32.862651825" lon="35.245258331">
  <ele>246.704346</ele>
  <time>2011-09-02T07:01:05Z</time>
  <speed>1.810000</speed>
</trkpt>
<trkpt lat="32.862632751" lon="35.245227814">
  <ele>246.509033</ele>
  <time>2011-09-02T07:01:06Z</time>
  <speed>1.160000</speed>
</trkpt>
<trkpt lat="32.862575531" lon="35.245170593">
  <ele>246.747314</ele>
  <time>2011-09-02T07:01:09Z</time>
  <speed>1.990000</speed>
</trkpt>
<trkpt lat="32.862545013" lon="35.245109558">
  <ele>246.930908</ele>
  <time>2011-09-02T07:01:10Z</time>
  <speed>2.630000</speed>
</trkpt>
<trkpt lat="32.862510681" lon="35.245075226">
  <ele>247.290283</ele>
  <time>2011-09-02T07:01:11Z</time>
  <speed>2.430000</speed>
</trkpt>
<trkpt lat="32.862468719" lon="35.245052338">
  <ele>246.848877</ele>
  <time>2011-09-02T07:01:12Z</time>
  <speed>1.940000</speed>
</trkpt>
<trkpt lat="32.862407684" lon="35.245025635">
  <ele>245.036377</ele>
  <time>2011-09-02T07:01:13Z</time>
  <speed>1.300000</speed>
</trkpt>
<trkpt lat="32.862373352" lon="35.244998932">
  <ele>244.997314</ele>
  <time>2011-09-02T07:01:14Z</time>
  <speed>2.320000</speed>
</trkpt>
<trkpt lat="32.862342834" lon="35.244987488">
  <ele>243.509033</ele>
  <time>2011-09-02T07:01:15Z</time>
  <speed>1.610000</speed>
</trkpt>
<trkpt lat="32.862331390" lon="35.245014191">
  <ele>241.329346</ele>
  <time>2011-09-02T07:01:26Z</time>
  <speed>0.370000</speed>
</trkpt>
<trkpt lat="32.862316132" lon="35.245037079">
  <ele>240.313721</ele>
  <time>2011-09-02T07:01:45Z</time>
  <speed>0.940000</speed>
</trkpt>
<trkpt lat="32.862281799" lon="35.245014191">
  <ele>239.634033</ele>
  <time>2011-09-02T07:01:48Z</time>
  <speed>0.990000</speed>
</trkpt>
<trkpt lat="32.862289429" lon="35.244979858">
  <ele>239.454346</ele>
  <time>2011-09-02T07:01:51Z</time>
  <speed>0.920000</speed>
</trkpt>
<trkpt lat="32.862277985" lon="35.244937897">
  <ele>238.907471</ele>
  <time>2011-09-02T07:01:54Z</time>
  <speed>1.260000</speed>
</trkpt>
<trkpt lat="32.862258911" lon="35.244907379">
  <ele>238.739502</ele>
  <time>2011-09-02T07:01:56Z</time>
  <speed>1.340000</speed>
</trkpt>
<trkpt lat="32.862224579" lon="35.244876862">
  <ele>238.598877</ele>
  <time>2011-09-02T07:01:58Z</time>
  <speed>1.460000</speed>
</trkpt>
<trkpt lat="32.862209320" lon="35.244850159">
  <ele>238.552002</ele>
  <time>2011-09-02T07:02:00Z</time>
  <speed>1.540000</speed>
</trkpt>
<trkpt lat="32.862220764" lon="35.244808197">
  <ele>237.317627</ele>
  <time>2011-09-02T07:02:02Z</time>
  <speed>1.470000</speed>
</trkpt>
<trkpt lat="32.862216949" lon="35.244766235">
  <ele>237.364502</ele>
  <time>2011-09-02T07:02:05Z</time>
  <speed>0.880000</speed>
</trkpt>
<trkpt lat="32.862289429" lon="35.244747162">
  <ele>236.337158</ele>
  <time>2011-09-02T07:02:09Z</time>
  <speed>3.180000</speed>
</trkpt>
<trkpt lat="32.862293243" lon="35.244682312">
  <ele>236.130127</ele>
  <time>2011-09-02T07:02:11Z</time>
  <speed>2.210000</speed>
</trkpt>
<trkpt lat="32.862277985" lon="35.244640350">
  <ele>236.192627</ele>
  <time>2011-09-02T07:02:12Z</time>
  <speed>3.190000</speed>
</trkpt>
<trkpt lat="32.862262726" lon="35.244590759">
  <ele>235.969971</ele>
  <time>2011-09-02T07:02:13Z</time>
  <speed>3.520000</speed>
</trkpt>
<trkpt lat="32.862262726" lon="35.244552612">
  <ele>235.805908</ele>
  <time>2011-09-02T07:02:14Z</time>
  <speed>3.970000</speed>
</trkpt>
<trkpt lat="32.862258911" lon="35.244491577">
  <ele>235.774658</ele>
  <time>2011-09-02T07:02:15Z</time>
  <speed>5.060000</speed>
</trkpt>
<trkpt lat="32.862262726" lon="35.244415283">
  <ele>235.821533</ele>
  <time>2011-09-02T07:02:16Z</time>
  <speed>5.460000</speed>
</trkpt>
<trkpt lat="32.862277985" lon="35.244350433">
  <ele>235.895752</ele>
  <time>2011-09-02T07:02:17Z</time>
  <speed>5.280000</speed>
</trkpt>
<trkpt lat="32.862289429" lon="35.244293213">
  <ele>235.927002</ele>
  <time>2011-09-02T07:02:18Z</time>
  <speed>4.820000</speed>
</trkpt>
<trkpt lat="32.862274170" lon="35.244213104">
  <ele>235.895752</ele>
  <time>2011-09-02T07:02:19Z</time>
  <speed>4.770000</speed>
</trkpt>
<trkpt lat="32.862266541" lon="35.244140625">
  <ele>235.903564</ele>
  <time>2011-09-02T07:02:20Z</time>
  <speed>4.090000</speed>
</trkpt>
<trkpt lat="32.862266541" lon="35.244087219">
  <ele>235.762939</ele>
  <time>2011-09-02T07:02:21Z</time>
  <speed>3.890000</speed>
</trkpt>
<trkpt lat="32.862277985" lon="35.244049072">
  <ele>235.723877</ele>
  <time>2011-09-02T07:02:22Z</time>
  <speed>2.880000</speed>
</trkpt>
<trkpt lat="32.862285614" lon="35.244010925">
  <ele>235.583252</ele>
  <time>2011-09-02T07:02:24Z</time>
  <speed>0.870000</speed>
</trkpt>
<trkpt lat="32.862258911" lon="35.244003296">
  <ele>235.219971</ele>
  <time>2011-09-02T07:03:08Z</time>
  <speed>0.020000</speed>
</trkpt>
<trkpt lat="32.862232208" lon="35.244018555">
  <ele>234.946533</ele>
  <time>2011-09-02T07:03:39Z</time>
  <speed>0.210000</speed>
</trkpt>
<trkpt lat="32.862205505" lon="35.244029999">
  <ele>234.891846</ele>
  <time>2011-09-02T07:03:54Z</time>
  <speed>0.170000</speed>
</trkpt>
<trkpt lat="32.862205505" lon="35.243984222">
  <ele>234.235596</ele>
  <time>2011-09-02T07:04:34Z</time>
  <speed>1.670000</speed>
</trkpt>
<trkpt lat="32.862182617" lon="35.243938446">
  <ele>232.536377</ele>
  <time>2011-09-02T07:04:35Z</time>
  <speed>1.650000</speed>
</trkpt>
<trkpt lat="32.862205505" lon="35.243915558">
  <ele>231.829346</ele>
  <time>2011-09-02T07:04:37Z</time>
  <speed>1.880000</speed>
</trkpt>
<trkpt lat="32.862209320" lon="35.243888855">
  <ele>230.520752</ele>
  <time>2011-09-02T07:04:39Z</time>
  <speed>2.380000</speed>
</trkpt>
<trkpt lat="32.862247467" lon="35.243900299">
  <ele>230.567627</ele>
  <time>2011-09-02T07:04:41Z</time>
  <speed>1.980000</speed>
</trkpt>
<trkpt lat="32.862277985" lon="35.243907928">
  <ele>230.235596</ele>
  <time>2011-09-02T07:04:43Z</time>
  <speed>1.900000</speed>
</trkpt>
<trkpt lat="32.862300873" lon="35.243923187">
  <ele>230.200439</ele>
  <time>2011-09-02T07:04:45Z</time>
  <speed>1.630000</speed>
</trkpt>
<trkpt lat="32.862331390" lon="35.243927002">
  <ele>229.708252</ele>
  <time>2011-09-02T07:04:51Z</time>
  <speed>1.280000</speed>
</trkpt>
<trkpt lat="32.862361908" lon="35.243934631">
  <ele>229.419189</ele>
  <time>2011-09-02T07:04:54Z</time>
  <speed>1.440000</speed>
</trkpt>
<trkpt lat="32.862388611" lon="35.243938446">
  <ele>229.598877</ele>
  <time>2011-09-02T07:04:56Z</time>
  <speed>1.540000</speed>
</trkpt>
<trkpt lat="32.862415314" lon="35.243957520">
  <ele>229.567627</ele>
  <time>2011-09-02T07:04:58Z</time>
  <speed>1.480000</speed>
</trkpt>
<trkpt lat="32.862449646" lon="35.243976593">
  <ele>229.614502</ele>
  <time>2011-09-02T07:05:00Z</time>
  <speed>1.570000</speed>
</trkpt>
<trkpt lat="32.862480164" lon="35.243976593">
  <ele>229.509033</ele>
  <time>2011-09-02T07:05:04Z</time>
  <speed>1.280000</speed>
</trkpt>
<trkpt lat="32.862510681" lon="35.243980408">
  <ele>229.563721</ele>
  <time>2011-09-02T07:05:06Z</time>
  <speed>1.100000</speed>
</trkpt>
<trkpt lat="32.862548828" lon="35.243999481">
  <ele>230.169189</ele>
  <time>2011-09-02T07:05:09Z</time>
  <speed>1.410000</speed>
</trkpt>
<trkpt lat="32.862583160" lon="35.244014740">
  <ele>230.302002</ele>
  <time>2011-09-02T07:05:11Z</time>
  <speed>1.780000</speed>
</trkpt>
<trkpt lat="32.862606049" lon="35.244029999">
  <ele>230.407471</ele>
  <time>2011-09-02T07:05:13Z</time>
  <speed>1.370000</speed>
</trkpt>
<trkpt lat="32.862636566" lon="35.244049072">
  <ele>230.520752</ele>
  <time>2011-09-02T07:05:16Z</time>
  <speed>1.550000</speed>
</trkpt>
<trkpt lat="32.862659454" lon="35.244060516">
  <ele>231.184814</ele>
  <time>2011-09-02T07:05:18Z</time>
  <speed>1.570000</speed>
</trkpt>
<trkpt lat="32.862693787" lon="35.244075775">
  <ele>231.762939</ele>
  <time>2011-09-02T07:05:20Z</time>
  <speed>1.530000</speed>
</trkpt>
<trkpt lat="32.862724304" lon="35.244087219">
  <ele>231.134033</ele>
  <time>2011-09-02T07:05:23Z</time>
  <speed>1.390000</speed>
</trkpt>
<trkpt lat="32.862747192" lon="35.244106293">
  <ele>230.927002</ele>
  <time>2011-09-02T07:05:25Z</time>
  <speed>1.720000</speed>
</trkpt>
<trkpt lat="32.862781525" lon="35.244121552">
  <ele>231.114502</ele>
  <time>2011-09-02T07:05:27Z</time>
  <speed>1.690000</speed>
</trkpt>
<trkpt lat="32.862808228" lon="35.244136810">
  <ele>231.286377</ele>
  <time>2011-09-02T07:05:29Z</time>
  <speed>1.820000</speed>
</trkpt>
<trkpt lat="32.862838745" lon="35.244136810">
  <ele>230.837158</ele>
  <time>2011-09-02T07:05:32Z</time>
  <speed>1.350000</speed>
</trkpt>
<trkpt lat="32.862869263" lon="35.244152069">
  <ele>231.298096</ele>
  <time>2011-09-02T07:05:35Z</time>
  <speed>1.360000</speed>
</trkpt>
<trkpt lat="32.862907410" lon="35.244155884">
  <ele>230.669189</ele>
  <time>2011-09-02T07:05:37Z</time>
  <speed>1.970000</speed>
</trkpt>
<trkpt lat="32.862899780" lon="35.244190216">
  <ele>227.966064</ele>
  <time>2011-09-02T07:05:38Z</time>
  <speed>1.440000</speed>
</trkpt>
<trkpt lat="32.862926483" lon="35.244213104">
  <ele>227.610596</ele>
  <time>2011-09-02T07:05:40Z</time>
  <speed>1.590000</speed>
</trkpt>
<trkpt lat="32.862953186" lon="35.244232178">
  <ele>227.669189</ele>
  <time>2011-09-02T07:05:42Z</time>
  <speed>1.710000</speed>
</trkpt>
<trkpt lat="32.862987518" lon="35.244251251">
  <ele>227.528564</ele>
  <time>2011-09-02T07:05:44Z</time>
  <speed>2.240000</speed>
</trkpt>
<trkpt lat="32.863033295" lon="35.244285583">
  <ele>228.044189</ele>
  <time>2011-09-02T07:05:47Z</time>
  <speed>1.720000</speed>
</trkpt>
<trkpt lat="32.863063812" lon="35.244304657">
  <ele>228.708252</ele>
  <time>2011-09-02T07:05:49Z</time>
  <speed>1.600000</speed>
</trkpt>
<trkpt lat="32.863124847" lon="35.244323730">
  <ele>229.243408</ele>
  <time>2011-09-02T07:05:52Z</time>
  <speed>1.720000</speed>
</trkpt>
<trkpt lat="32.863155365" lon="35.244358063">
  <ele>229.075439</ele>
  <time>2011-09-02T07:05:55Z</time>
  <speed>2.030000</speed>
</trkpt>
<trkpt lat="32.863178253" lon="35.244380951">
  <ele>229.606689</ele>
  <time>2011-09-02T07:05:57Z</time>
  <speed>1.880000</speed>
</trkpt>
<trkpt lat="32.863216400" lon="35.244400024">
  <ele>230.442627</ele>
  <time>2011-09-02T07:05:59Z</time>
  <speed>1.790000</speed>
</trkpt>
<trkpt lat="32.863239288" lon="35.244422913">
  <ele>231.114502</ele>
  <time>2011-09-02T07:06:01Z</time>
  <speed>1.720000</speed>
</trkpt>
<trkpt lat="32.863277435" lon="35.244441986">
  <ele>231.423096</ele>
  <time>2011-09-02T07:06:03Z</time>
  <speed>2.090000</speed>
</trkpt>
<trkpt lat="32.863315582" lon="35.244472504">
  <ele>232.122314</ele>
  <time>2011-09-02T07:06:05Z</time>
  <speed>2.360000</speed>
</trkpt>
<trkpt lat="32.863342285" lon="35.244495392">
  <ele>232.415283</ele>
  <time>2011-09-02T07:06:07Z</time>
  <speed>1.900000</speed>
</trkpt>
<trkpt lat="32.863349915" lon="35.244537354">
  <ele>232.645752</ele>
  <time>2011-09-02T07:06:09Z</time>
  <speed>1.960000</speed>
</trkpt>
<trkpt lat="32.863372803" lon="35.244564056">
  <ele>232.989502</ele>
  <time>2011-09-02T07:06:11Z</time>
  <speed>1.670000</speed>
</trkpt>
<trkpt lat="32.863391876" lon="35.244586945">
  <ele>233.735596</ele>
  <time>2011-09-02T07:06:13Z</time>
  <speed>1.620000</speed>
</trkpt>
<trkpt lat="32.863414764" lon="35.244598389">
  <ele>234.192627</ele>
  <time>2011-09-02T07:06:15Z</time>
  <speed>1.480000</speed>
</trkpt>
<trkpt lat="32.863449097" lon="35.244613647">
  <ele>234.739502</ele>
  <time>2011-09-02T07:06:17Z</time>
  <speed>1.920000</speed>
</trkpt>
<trkpt lat="32.863464355" lon="35.244647980">
  <ele>235.177002</ele>
  <time>2011-09-02T07:06:19Z</time>
  <speed>1.830000</speed>
</trkpt>
<trkpt lat="32.863494873" lon="35.244674683">
  <ele>235.634033</ele>
  <time>2011-09-02T07:06:21Z</time>
  <speed>1.860000</speed>
</trkpt>
<trkpt lat="32.863521576" lon="35.244701385">
  <ele>236.118408</ele>
  <time>2011-09-02T07:06:23Z</time>
  <speed>1.870000</speed>
</trkpt>
<trkpt lat="32.863559723" lon="35.244720459">
  <ele>236.403564</ele>
  <time>2011-09-02T07:06:25Z</time>
  <speed>1.820000</speed>
</trkpt>
<trkpt lat="32.863594055" lon="35.244739532">
  <ele>236.985596</ele>
  <time>2011-09-02T07:06:27Z</time>
  <speed>1.810000</speed>
</trkpt>
<trkpt lat="32.863609314" lon="35.244773865">
  <ele>237.684814</ele>
  <time>2011-09-02T07:06:29Z</time>
  <speed>1.980000</speed>
</trkpt>
<trkpt lat="32.863632202" lon="35.244796753">
  <ele>238.294189</ele>
  <time>2011-09-02T07:06:31Z</time>
  <speed>1.890000</speed>
</trkpt>
<trkpt lat="32.863647461" lon="35.244838715">
  <ele>239.442627</ele>
  <time>2011-09-02T07:06:33Z</time>
  <speed>1.960000</speed>
</trkpt>
<trkpt lat="32.863674164" lon="35.244861603">
  <ele>240.134033</ele>
  <time>2011-09-02T07:06:35Z</time>
  <speed>1.870000</speed>
</trkpt>
<trkpt lat="32.863693237" lon="35.244892120">
  <ele>241.009033</ele>
  <time>2011-09-02T07:06:37Z</time>
  <speed>1.810000</speed>
</trkpt>
<trkpt lat="32.863716125" lon="35.244918823">
  <ele>241.618408</ele>
  <time>2011-09-02T07:06:39Z</time>
  <speed>2.110000</speed>
</trkpt>
<trkpt lat="32.863746643" lon="35.244941711">
  <ele>242.356689</ele>
  <time>2011-09-02T07:06:41Z</time>
  <speed>1.690000</speed>
</trkpt>
<trkpt lat="32.863780975" lon="35.244960785">
  <ele>243.329346</ele>
  <time>2011-09-02T07:06:43Z</time>
  <speed>1.940000</speed>
</trkpt>
<trkpt lat="32.863807678" lon="35.244987488">
  <ele>244.583252</ele>
  <time>2011-09-02T07:06:46Z</time>
  <speed>1.590000</speed>
</trkpt>
<trkpt lat="32.863834381" lon="35.245014191">
  <ele>245.708252</ele>
  <time>2011-09-02T07:06:48Z</time>
  <speed>2.160000</speed>
</trkpt>
<trkpt lat="32.863864899" lon="35.245040894">
  <ele>246.630127</ele>
  <time>2011-09-02T07:06:50Z</time>
  <speed>2.140000</speed>
</trkpt>
<trkpt lat="32.863895416" lon="35.245067596">
  <ele>247.567627</ele>
  <time>2011-09-02T07:06:52Z</time>
  <speed>2.130000</speed>
</trkpt>
<trkpt lat="32.863933563" lon="35.245090485">
  <ele>248.579346</ele>
  <time>2011-09-02T07:06:54Z</time>
  <speed>1.970000</speed>
</trkpt>
<trkpt lat="32.863952637" lon="35.245124817">
  <ele>249.270752</ele>
  <time>2011-09-02T07:06:56Z</time>
  <speed>1.710000</speed>
</trkpt>
<trkpt lat="32.863979340" lon="35.245155334">
  <ele>250.153564</ele>
  <time>2011-09-02T07:06:58Z</time>
  <speed>2.100000</speed>
</trkpt>
<trkpt lat="32.864002228" lon="35.245185852">
  <ele>250.637939</ele>
  <time>2011-09-02T07:07:00Z</time>
  <speed>1.840000</speed>
</trkpt>
<trkpt lat="32.864025116" lon="35.245220184">
  <ele>251.536377</ele>
  <time>2011-09-02T07:07:02Z</time>
  <speed>1.760000</speed>
</trkpt>
<trkpt lat="32.864051819" lon="35.245246887">
  <ele>252.430908</ele>
  <time>2011-09-02T07:07:04Z</time>
  <speed>1.980000</speed>
</trkpt>
<trkpt lat="32.864074707" lon="35.245269775">
  <ele>253.844971</ele>
  <time>2011-09-02T07:07:06Z</time>
  <speed>1.850000</speed>
</trkpt>
<trkpt lat="32.864101410" lon="35.245292664">
  <ele>254.364502</ele>
  <time>2011-09-02T07:07:08Z</time>
  <speed>1.610000</speed>
</trkpt>
<trkpt lat="32.864124298" lon="35.245311737">
  <ele>255.282471</ele>
  <time>2011-09-02T07:07:10Z</time>
  <speed>1.850000</speed>
</trkpt>
<trkpt lat="32.864147186" lon="35.245334625">
  <ele>255.977783</ele>
  <time>2011-09-02T07:07:12Z</time>
  <speed>1.540000</speed>
</trkpt>
<trkpt lat="32.864173889" lon="35.245349884">
  <ele>256.908691</ele>
  <time>2011-09-02T07:07:14Z</time>
  <speed>1.780000</speed>
</trkpt>
<trkpt lat="32.864204407" lon="35.245368958">
  <ele>257.854004</ele>
  <time>2011-09-02T07:07:16Z</time>
  <speed>1.960000</speed>
</trkpt>
<trkpt lat="32.864219666" lon="35.245399475">
  <ele>258.119629</ele>
  <time>2011-09-02T07:07:18Z</time>
  <speed>1.800000</speed>
</trkpt>
<trkpt lat="32.864238739" lon="35.245433807">
  <ele>259.182129</ele>
  <time>2011-09-02T07:07:20Z</time>
  <speed>2.090000</speed>
</trkpt>
<trkpt lat="32.864273071" lon="35.245445251">
  <ele>259.932129</ele>
  <time>2011-09-02T07:07:22Z</time>
  <speed>1.700000</speed>
</trkpt>
<trkpt lat="32.864299774" lon="35.245464325">
  <ele>261.033691</ele>
  <time>2011-09-02T07:07:24Z</time>
  <speed>1.510000</speed>
</trkpt>
<trkpt lat="32.864322662" lon="35.245487213">
  <ele>261.877441</ele>
  <time>2011-09-02T07:07:26Z</time>
  <speed>1.670000</speed>
</trkpt>
<trkpt lat="32.864345551" lon="35.245513916">
  <ele>263.119629</ele>
  <time>2011-09-02T07:07:28Z</time>
  <speed>1.490000</speed>
</trkpt>
<trkpt lat="32.864356995" lon="35.245552063">
  <ele>264.361816</ele>
  <time>2011-09-02T07:07:30Z</time>
  <speed>1.500000</speed>
</trkpt>
<trkpt lat="32.864376068" lon="35.245574951">
  <ele>265.322754</ele>
  <time>2011-09-02T07:07:32Z</time>
  <speed>1.500000</speed>
</trkpt>
<trkpt lat="32.864383698" lon="35.245616913">
  <ele>266.619629</ele>
  <time>2011-09-02T07:07:35Z</time>
  <speed>1.390000</speed>
</trkpt>
<trkpt lat="32.864398956" lon="35.245639801">
  <ele>267.627441</ele>
  <time>2011-09-02T07:07:37Z</time>
  <speed>1.510000</speed>
</trkpt>
<trkpt lat="32.864410400" lon="35.245677948">
  <ele>268.393066</ele>
  <time>2011-09-02T07:07:39Z</time>
  <speed>1.460000</speed>
</trkpt>
<trkpt lat="32.864433289" lon="35.245700836">
  <ele>269.221191</ele>
  <time>2011-09-02T07:07:41Z</time>
  <speed>1.460000</speed>
</trkpt>
<trkpt lat="32.864452362" lon="35.245727539">
  <ele>270.072754</ele>
  <time>2011-09-02T07:07:43Z</time>
  <speed>1.780000</speed>
</trkpt>
<trkpt lat="32.864471436" lon="35.245754242">
  <ele>270.791504</ele>
  <time>2011-09-02T07:07:45Z</time>
  <speed>1.910000</speed>
</trkpt>
<trkpt lat="32.864490509" lon="35.245784760">
  <ele>271.705566</ele>
  <time>2011-09-02T07:07:47Z</time>
  <speed>1.570000</speed>
</trkpt>
<trkpt lat="32.864521027" lon="35.245796204">
  <ele>270.189941</ele>
  <time>2011-09-02T07:07:50Z</time>
  <speed>1.200000</speed>
</trkpt>
<trkpt lat="32.864536285" lon="35.245830536">
  <ele>270.533691</ele>
  <time>2011-09-02T07:07:52Z</time>
  <speed>1.470000</speed>
</trkpt>
<trkpt lat="32.864559174" lon="35.245849609">
  <ele>270.611816</ele>
  <time>2011-09-02T07:07:54Z</time>
  <speed>1.390000</speed>
</trkpt>
<trkpt lat="32.864582062" lon="35.245868683">
  <ele>271.064941</ele>
  <time>2011-09-02T07:07:56Z</time>
  <speed>1.650000</speed>
</trkpt>
<trkpt lat="32.864616394" lon="35.245883942">
  <ele>269.705566</ele>
  <time>2011-09-02T07:07:58Z</time>
  <speed>2.430000</speed>
</trkpt>
<trkpt lat="32.864650726" lon="35.245891571">
  <ele>270.111816</ele>
  <time>2011-09-02T07:08:00Z</time>
  <speed>1.390000</speed>
</trkpt>
<trkpt lat="32.864681244" lon="35.245910645">
  <ele>270.877441</ele>
  <time>2011-09-02T07:08:03Z</time>
  <speed>1.320000</speed>
</trkpt>
<trkpt lat="32.864707947" lon="35.245925903">
  <ele>271.963379</ele>
  <time>2011-09-02T07:08:06Z</time>
  <speed>1.090000</speed>
</trkpt>
<trkpt lat="32.864734650" lon="35.245948792">
  <ele>273.689941</ele>
  <time>2011-09-02T07:08:08Z</time>
  <speed>1.410000</speed>
</trkpt>
<trkpt lat="32.864765167" lon="35.245964050">
  <ele>274.916504</ele>
  <time>2011-09-02T07:08:11Z</time>
  <speed>1.520000</speed>
</trkpt>
<trkpt lat="32.864803314" lon="35.245956421">
  <ele>276.869629</ele>
  <time>2011-09-02T07:08:13Z</time>
  <speed>1.760000</speed>
</trkpt>
<trkpt lat="32.864833832" lon="35.245952606">
  <ele>275.900879</ele>
  <time>2011-09-02T07:08:15Z</time>
  <speed>1.760000</speed>
</trkpt>
<trkpt lat="32.864864349" lon="35.245960236">
  <ele>276.549316</ele>
  <time>2011-09-02T07:08:17Z</time>
  <speed>1.650000</speed>
</trkpt>
<trkpt lat="32.864906311" lon="35.245944977">
  <ele>277.291504</ele>
  <time>2011-09-02T07:08:19Z</time>
  <speed>2.000000</speed>
</trkpt>
<trkpt lat="32.864936829" lon="35.245941162">
  <ele>277.604004</ele>
  <time>2011-09-02T07:08:21Z</time>
  <speed>1.780000</speed>
</trkpt>
<trkpt lat="32.864936829" lon="35.245933533">
  <ele>273.729004</ele>
  <time>2011-09-02T07:08:24Z</time>
  <speed>1.190000</speed>
</trkpt>
<trkpt lat="32.864936829" lon="35.245956421">
  <ele>270.291504</ele>
  <time>2011-09-02T07:08:26Z</time>
  <speed>0.950000</speed>
</trkpt>
<trkpt lat="32.864929199" lon="35.245990753">
  <ele>266.627441</ele>
  <time>2011-09-02T07:08:28Z</time>
  <speed>0.810000</speed>
</trkpt>
<trkpt lat="32.864910126" lon="35.246013641">
  <ele>264.494629</ele>
  <time>2011-09-02T07:08:30Z</time>
  <speed>0.590000</speed>
</trkpt>
<trkpt lat="32.864887238" lon="35.246040344">
  <ele>263.619629</ele>
  <time>2011-09-02T07:08:32Z</time>
  <speed>0.860000</speed>
</trkpt>
<trkpt lat="32.864864349" lon="35.246067047">
  <ele>263.729004</ele>
  <time>2011-09-02T07:08:35Z</time>
  <speed>0.940000</speed>
</trkpt>
<trkpt lat="32.864837646" lon="35.246082306">
  <ele>263.135254</ele>
  <time>2011-09-02T07:08:38Z</time>
  <speed>0.990000</speed>
</trkpt>
<trkpt lat="32.864810944" lon="35.246082306">
  <ele>262.705566</ele>
  <time>2011-09-02T07:08:40Z</time>
  <speed>1.000000</speed>
</trkpt>
<trkpt lat="32.864780426" lon="35.246105194">
  <ele>262.502441</ele>
  <time>2011-09-02T07:08:43Z</time>
  <speed>0.920000</speed>
</trkpt>
<trkpt lat="32.864753723" lon="35.246120453">
  <ele>261.877441</ele>
  <time>2011-09-02T07:08:45Z</time>
  <speed>0.970000</speed>
</trkpt>
<trkpt lat="32.864723206" lon="35.246131897">
  <ele>261.744629</ele>
  <time>2011-09-02T07:08:48Z</time>
  <speed>1.120000</speed>
</trkpt>
<trkpt lat="32.864696503" lon="35.246135712">
  <ele>261.393066</ele>
  <time>2011-09-02T07:08:50Z</time>
  <speed>1.050000</speed>
</trkpt>
<trkpt lat="32.864665985" lon="35.246158600">
  <ele>261.064941</ele>
  <time>2011-09-02T07:08:52Z</time>
  <speed>1.450000</speed>
</trkpt>
<trkpt lat="32.864627838" lon="35.246177673">
  <ele>261.541504</ele>
  <time>2011-09-02T07:08:54Z</time>
  <speed>1.520000</speed>
</trkpt>
<trkpt lat="32.864597321" lon="35.246185303">
  <ele>261.385254</ele>
  <time>2011-09-02T07:08:56Z</time>
  <speed>1.010000</speed>
</trkpt>
<trkpt lat="32.864570618" lon="35.246181488">
  <ele>261.111816</ele>
  <time>2011-09-02T07:08:58Z</time>
  <speed>1.630000</speed>
</trkpt>
<trkpt lat="32.864521027" lon="35.246189117">
  <ele>261.408691</ele>
  <time>2011-09-02T07:09:00Z</time>
  <speed>1.370000</speed>
</trkpt>
<trkpt lat="32.864482880" lon="35.246196747">
  <ele>261.369629</ele>
  <time>2011-09-02T07:09:03Z</time>
  <speed>0.880000</speed>
</trkpt>
<trkpt lat="32.864433289" lon="35.246196747">
  <ele>261.018066</ele>
  <time>2011-09-02T07:09:06Z</time>
  <speed>1.500000</speed>
</trkpt>
<trkpt lat="32.864398956" lon="35.246196747">
  <ele>260.916504</ele>
  <time>2011-09-02T07:09:08Z</time>
  <speed>1.310000</speed>
</trkpt>
<trkpt lat="32.864353180" lon="35.246189117">
  <ele>259.963379</ele>
  <time>2011-09-02T07:09:11Z</time>
  <speed>1.410000</speed>
</trkpt>
<trkpt lat="32.864322662" lon="35.246189117">
  <ele>259.385254</ele>
  <time>2011-09-02T07:09:13Z</time>
  <speed>2.130000</speed>
</trkpt>
<trkpt lat="32.864273071" lon="35.246177673">
  <ele>258.971191</ele>
  <time>2011-09-02T07:09:15Z</time>
  <speed>1.500000</speed>
</trkpt>
<trkpt lat="32.864234924" lon="35.246166229">
  <ele>258.822754</ele>
  <time>2011-09-02T07:09:17Z</time>
  <speed>2.100000</speed>
</trkpt>
<trkpt lat="32.864189148" lon="35.246143341">
  <ele>258.291504</ele>
  <time>2011-09-02T07:09:19Z</time>
  <speed>1.720000</speed>
</trkpt>
<trkpt lat="32.864147186" lon="35.246139526">
  <ele>258.127441</ele>
  <time>2011-09-02T07:09:21Z</time>
  <speed>1.870000</speed>
</trkpt>
<trkpt lat="32.864109039" lon="35.246124268">
  <ele>257.885254</ele>
  <time>2011-09-02T07:09:23Z</time>
  <speed>2.540000</speed>
</trkpt>
<trkpt lat="32.864059448" lon="35.246105194">
  <ele>257.814941</ele>
  <time>2011-09-02T07:09:25Z</time>
  <speed>2.890000</speed>
</trkpt>
<trkpt lat="32.864032745" lon="35.246089935">
  <ele>257.627441</ele>
  <time>2011-09-02T07:09:26Z</time>
  <speed>2.950000</speed>
</trkpt>
<trkpt lat="32.863979340" lon="35.246078491">
  <ele>257.408691</ele>
  <time>2011-09-02T07:09:28Z</time>
  <speed>2.630000</speed>
</trkpt>
<trkpt lat="32.863937378" lon="35.246063232">
  <ele>257.697754</ele>
  <time>2011-09-02T07:09:29Z</time>
  <speed>3.000000</speed>
</trkpt>
<trkpt lat="32.863876343" lon="35.246032715">
  <ele>257.158691</ele>
  <time>2011-09-02T07:09:31Z</time>
  <speed>3.170000</speed>
</trkpt>
<trkpt lat="32.863826752" lon="35.245998383">
  <ele>257.119629</ele>
  <time>2011-09-02T07:09:33Z</time>
  <speed>2.660000</speed>
</trkpt>
<trkpt lat="32.863780975" lon="35.245971680">
  <ele>256.674316</ele>
  <time>2011-09-02T07:09:35Z</time>
  <speed>3.220000</speed>
</trkpt>
<trkpt lat="32.863739014" lon="35.245937347">
  <ele>256.643066</ele>
  <time>2011-09-02T07:09:37Z</time>
  <speed>2.770000</speed>
</trkpt>
<trkpt lat="32.863716125" lon="35.245925903">
  <ele>256.385254</ele>
  <time>2011-09-02T07:09:38Z</time>
  <speed>3.470000</speed>
</trkpt>
<trkpt lat="32.863689423" lon="35.245910645">
  <ele>256.244629</ele>
  <time>2011-09-02T07:09:39Z</time>
  <speed>3.680000</speed>
</trkpt>
<trkpt lat="32.863658905" lon="35.245883942">
  <ele>256.104004</ele>
  <time>2011-09-02T07:09:40Z</time>
  <speed>3.460000</speed>
</trkpt>
<trkpt lat="32.863624573" lon="35.245864868">
  <ele>256.221191</ele>
  <time>2011-09-02T07:09:41Z</time>
  <speed>3.160000</speed>
</trkpt>
<trkpt lat="32.863578796" lon="35.245853424">
  <ele>255.934814</ele>
  <time>2011-09-02T07:09:43Z</time>
  <speed>3.110000</speed>
</trkpt>
<trkpt lat="32.863552094" lon="35.245838165">
  <ele>255.782471</ele>
  <time>2011-09-02T07:09:44Z</time>
  <speed>2.940000</speed>
</trkpt>
<trkpt lat="32.863498688" lon="35.245838165">
  <ele>256.697754</ele>
  <time>2011-09-02T07:09:45Z</time>
  <speed>3.500000</speed>
</trkpt>
<trkpt lat="32.863441467" lon="35.245830536">
  <ele>256.283691</ele>
  <time>2011-09-02T07:09:47Z</time>
  <speed>3.620000</speed>
</trkpt>
<trkpt lat="32.863410950" lon="35.245830536">
  <ele>256.064941</ele>
  <time>2011-09-02T07:09:48Z</time>
  <speed>2.950000</speed>
</trkpt>
<trkpt lat="32.863384247" lon="35.245830536">
  <ele>255.817627</ele>
  <time>2011-09-02T07:09:49Z</time>
  <speed>2.820000</speed>
</trkpt>
<trkpt lat="32.863361359" lon="35.245845795">
  <ele>254.747314</ele>
  <time>2011-09-02T07:09:50Z</time>
  <speed>2.560000</speed>
</trkpt>
<trkpt lat="32.863327026" lon="35.245857239">
  <ele>253.825439</ele>
  <time>2011-09-02T07:09:51Z</time>
  <speed>3.300000</speed>
</trkpt>
<trkpt lat="32.863273621" lon="35.245864868">
  <ele>254.153564</ele>
  <time>2011-09-02T07:09:53Z</time>
  <speed>3.140000</speed>
</trkpt>
<trkpt lat="32.863243103" lon="35.245872498">
  <ele>254.028564</ele>
  <time>2011-09-02T07:09:54Z</time>
  <speed>3.110000</speed>
</trkpt>
<trkpt lat="32.863216400" lon="35.245887756">
  <ele>254.403564</ele>
  <time>2011-09-02T07:09:55Z</time>
  <speed>3.580000</speed>
</trkpt>
<trkpt lat="32.863178253" lon="35.245895386">
  <ele>254.075439</ele>
  <time>2011-09-02T07:09:56Z</time>
  <speed>3.480000</speed>
</trkpt>
<trkpt lat="32.863147736" lon="35.245899200">
  <ele>253.997314</ele>
  <time>2011-09-02T07:09:57Z</time>
  <speed>2.800000</speed>
</trkpt>
<trkpt lat="32.863121033" lon="35.245906830">
  <ele>254.020752</ele>
  <time>2011-09-02T07:09:58Z</time>
  <speed>2.720000</speed>
</trkpt>
<trkpt lat="32.863094330" lon="35.245925903">
  <ele>253.259033</ele>
  <time>2011-09-02T07:09:59Z</time>
  <speed>3.610000</speed>
</trkpt>
<trkpt lat="32.863071442" lon="35.245944977">
  <ele>254.290283</ele>
  <time>2011-09-02T07:10:00Z</time>
  <speed>3.260000</speed>
</trkpt>
<trkpt lat="32.863029480" lon="35.245967865">
  <ele>254.341064</ele>
  <time>2011-09-02T07:10:01Z</time>
  <speed>3.510000</speed>
</trkpt>
<trkpt lat="32.862972260" lon="35.245986938">
  <ele>254.430908</ele>
  <time>2011-09-02T07:10:02Z</time>
  <speed>3.550000</speed>
</trkpt>
<trkpt lat="32.862949371" lon="35.246013641">
  <ele>254.430908</ele>
  <time>2011-09-02T07:10:03Z</time>
  <speed>3.530000</speed>
</trkpt>
<trkpt lat="32.862926483" lon="35.246028900">
  <ele>255.352783</ele>
  <time>2011-09-02T07:10:04Z</time>
  <speed>3.270000</speed>
</trkpt>
<trkpt lat="32.862895966" lon="35.246063232">
  <ele>256.150879</ele>
  <time>2011-09-02T07:10:05Z</time>
  <speed>3.450000</speed>
</trkpt>
<trkpt lat="32.862869263" lon="35.246086121">
  <ele>256.119629</ele>
  <time>2011-09-02T07:10:06Z</time>
  <speed>3.560000</speed>
</trkpt>
<trkpt lat="32.862846375" lon="35.246105194">
  <ele>256.135254</ele>
  <time>2011-09-02T07:10:07Z</time>
  <speed>3.220000</speed>
</trkpt>
<trkpt lat="32.862812042" lon="35.246135712">
  <ele>256.799316</ele>
  <time>2011-09-02T07:10:08Z</time>
  <speed>3.530000</speed>
</trkpt>
<trkpt lat="32.862789154" lon="35.246158600">
  <ele>257.025879</ele>
  <time>2011-09-02T07:10:09Z</time>
  <speed>3.290000</speed>
</trkpt>
<trkpt lat="32.862781525" lon="35.246192932">
  <ele>257.518066</ele>
  <time>2011-09-02T07:10:10Z</time>
  <speed>3.380000</speed>
</trkpt>
<trkpt lat="32.862754822" lon="35.246223450">
  <ele>257.400879</ele>
  <time>2011-09-02T07:10:11Z</time>
  <speed>3.540000</speed>
</trkpt>
<trkpt lat="32.862735748" lon="35.246250153">
  <ele>257.377441</ele>
  <time>2011-09-02T07:10:12Z</time>
  <speed>3.030000</speed>
</trkpt>
<trkpt lat="32.862720490" lon="35.246284485">
  <ele>257.127441</ele>
  <time>2011-09-02T07:10:13Z</time>
  <speed>3.010000</speed>
</trkpt>
<trkpt lat="32.862705231" lon="35.246330261">
  <ele>257.205566</ele>
  <time>2011-09-02T07:10:14Z</time>
  <speed>3.480000</speed>
</trkpt>
<trkpt lat="32.862689972" lon="35.246372223">
  <ele>257.479004</ele>
  <time>2011-09-02T07:10:15Z</time>
  <speed>3.510000</speed>
</trkpt>
<trkpt lat="32.862678528" lon="35.246406555">
  <ele>257.291504</ele>
  <time>2011-09-02T07:10:16Z</time>
  <speed>3.450000</speed>
</trkpt>
<trkpt lat="32.862678528" lon="35.246444702">
  <ele>257.635254</ele>
  <time>2011-09-02T07:10:17Z</time>
  <speed>3.370000</speed>
</trkpt>
<trkpt lat="32.862686157" lon="35.246498108">
  <ele>258.854004</ele>
  <time>2011-09-02T07:10:18Z</time>
  <speed>3.480000</speed>
</trkpt>
<trkpt lat="32.862682343" lon="35.246536255">
  <ele>259.119629</ele>
  <time>2011-09-02T07:10:19Z</time>
  <speed>3.580000</speed>
</trkpt>
<trkpt lat="32.862678528" lon="35.246578217">
  <ele>258.650879</ele>
  <time>2011-09-02T07:10:20Z</time>
  <speed>3.660000</speed>
</trkpt>
<trkpt lat="32.862674713" lon="35.246623993">
  <ele>258.338379</ele>
  <time>2011-09-02T07:10:21Z</time>
  <speed>4.000000</speed>
</trkpt>
<trkpt lat="32.862667084" lon="35.246669769">
  <ele>257.611816</ele>
  <time>2011-09-02T07:10:22Z</time>
  <speed>3.940000</speed>
</trkpt>
<trkpt lat="32.862659454" lon="35.246707916">
  <ele>257.447754</ele>
  <time>2011-09-02T07:10:23Z</time>
  <speed>3.830000</speed>
</trkpt>
<trkpt lat="32.862651825" lon="35.246749878">
  <ele>257.064941</ele>
  <time>2011-09-02T07:10:24Z</time>
  <speed>3.740000</speed>
</trkpt>
<trkpt lat="32.862640381" lon="35.246788025">
  <ele>256.572754</ele>
  <time>2011-09-02T07:10:25Z</time>
  <speed>3.610000</speed>
</trkpt>
<trkpt lat="32.862628937" lon="35.246829987">
  <ele>256.150879</ele>
  <time>2011-09-02T07:10:26Z</time>
  <speed>4.070000</speed>
</trkpt>
<trkpt lat="32.862613678" lon="35.246868134">
  <ele>255.844971</ele>
  <time>2011-09-02T07:10:27Z</time>
  <speed>3.810000</speed>
</trkpt>
<trkpt lat="32.862590790" lon="35.246894836">
  <ele>255.333252</ele>
  <time>2011-09-02T07:10:28Z</time>
  <speed>3.840000</speed>
</trkpt>
<trkpt lat="32.862564087" lon="35.246932983">
  <ele>254.716064</ele>
  <time>2011-09-02T07:10:29Z</time>
  <speed>4.000000</speed>
</trkpt>
<trkpt lat="32.862537384" lon="35.246971130">
  <ele>255.098877</ele>
  <time>2011-09-02T07:10:30Z</time>
  <speed>4.050000</speed>
</trkpt>
<trkpt lat="32.862510681" lon="35.246990204">
  <ele>255.427002</ele>
  <time>2011-09-02T07:10:31Z</time>
  <speed>3.950000</speed>
</trkpt>
<trkpt lat="32.862480164" lon="35.247024536">
  <ele>256.182129</ele>
  <time>2011-09-02T07:10:32Z</time>
  <speed>4.290000</speed>
</trkpt>
<trkpt lat="32.862449646" lon="35.247051239">
  <ele>256.041504</ele>
  <time>2011-09-02T07:10:33Z</time>
  <speed>3.950000</speed>
</trkpt>
<trkpt lat="32.862419128" lon="35.247074127">
  <ele>256.033691</ele>
  <time>2011-09-02T07:10:34Z</time>
  <speed>3.870000</speed>
</trkpt>
<trkpt lat="32.862373352" lon="35.247089386">
  <ele>255.645752</ele>
  <time>2011-09-02T07:10:35Z</time>
  <speed>4.090000</speed>
</trkpt>
<trkpt lat="32.862350464" lon="35.247116089">
  <ele>255.497314</ele>
  <time>2011-09-02T07:10:36Z</time>
  <speed>3.600000</speed>
</trkpt>
<trkpt lat="32.862319946" lon="35.247138977">
  <ele>255.477783</ele>
  <time>2011-09-02T07:10:37Z</time>
  <speed>3.640000</speed>
</trkpt>
<trkpt lat="32.862285614" lon="35.247161865">
  <ele>255.196533</ele>
  <time>2011-09-02T07:10:38Z</time>
  <speed>3.780000</speed>
</trkpt>
<trkpt lat="32.862262726" lon="35.247184753">
  <ele>255.001221</ele>
  <time>2011-09-02T07:10:39Z</time>
  <speed>3.760000</speed>
</trkpt>
<trkpt lat="32.862224579" lon="35.247211456">
  <ele>255.001221</ele>
  <time>2011-09-02T07:10:40Z</time>
  <speed>4.080000</speed>
</trkpt>
<trkpt lat="32.862197876" lon="35.247230530">
  <ele>255.024658</ele>
  <time>2011-09-02T07:10:41Z</time>
  <speed>3.780000</speed>
</trkpt>
<trkpt lat="32.862174988" lon="35.247276306">
  <ele>255.594971</ele>
  <time>2011-09-02T07:10:42Z</time>
  <speed>3.520000</speed>
</trkpt>
<trkpt lat="32.862163544" lon="35.247318268">
  <ele>255.454346</ele>
  <time>2011-09-02T07:10:43Z</time>
  <speed>3.760000</speed>
</trkpt>
<trkpt lat="32.862144470" lon="35.247352600">
  <ele>255.434814</ele>
  <time>2011-09-02T07:10:44Z</time>
  <speed>3.860000</speed>
</trkpt>
<trkpt lat="32.862125397" lon="35.247394562">
  <ele>255.661377</ele>
  <time>2011-09-02T07:10:45Z</time>
  <speed>3.970000</speed>
</trkpt>
<trkpt lat="32.862106323" lon="35.247428894">
  <ele>256.104004</ele>
  <time>2011-09-02T07:10:46Z</time>
  <speed>4.000000</speed>
</trkpt>
<trkpt lat="32.862087250" lon="35.247470856">
  <ele>256.486816</ele>
  <time>2011-09-02T07:10:47Z</time>
  <speed>3.910000</speed>
</trkpt>
<trkpt lat="32.862071991" lon="35.247509003">
  <ele>256.533691</ele>
  <time>2011-09-02T07:10:48Z</time>
  <speed>3.750000</speed>
</trkpt>
<trkpt lat="32.862056732" lon="35.247535706">
  <ele>256.932129</ele>
  <time>2011-09-02T07:10:49Z</time>
  <speed>3.510000</speed>
</trkpt>
<trkpt lat="32.862041473" lon="35.247577667">
  <ele>256.502441</ele>
  <time>2011-09-02T07:10:50Z</time>
  <speed>3.830000</speed>
</trkpt>
<trkpt lat="32.862018585" lon="35.247612000">
  <ele>256.510254</ele>
  <time>2011-09-02T07:10:51Z</time>
  <speed>3.930000</speed>
</trkpt>
<trkpt lat="32.861995697" lon="35.247642517">
  <ele>256.330566</ele>
  <time>2011-09-02T07:10:52Z</time>
  <speed>3.750000</speed>
</trkpt>
<trkpt lat="32.861988068" lon="35.247680664">
  <ele>256.877441</ele>
  <time>2011-09-02T07:10:53Z</time>
  <speed>3.900000</speed>
</trkpt>
<trkpt lat="32.861976624" lon="35.247726440">
  <ele>256.783691</ele>
  <time>2011-09-02T07:10:54Z</time>
  <speed>4.100000</speed>
</trkpt>
<trkpt lat="32.861961365" lon="35.247764587">
  <ele>257.150879</ele>
  <time>2011-09-02T07:10:55Z</time>
  <speed>4.000000</speed>
</trkpt>
<trkpt lat="32.861946106" lon="35.247810364">
  <ele>257.416504</ele>
  <time>2011-09-02T07:10:56Z</time>
  <speed>4.060000</speed>
</trkpt>
<trkpt lat="32.861923218" lon="35.247848511">
  <ele>257.393066</ele>
  <time>2011-09-02T07:10:57Z</time>
  <speed>4.120000</speed>
</trkpt>
<trkpt lat="32.861904144" lon="35.247890472">
  <ele>256.760254</ele>
  <time>2011-09-02T07:10:58Z</time>
  <speed>4.070000</speed>
</trkpt>
<trkpt lat="32.861892700" lon="35.247928619">
  <ele>256.510254</ele>
  <time>2011-09-02T07:10:59Z</time>
  <speed>3.900000</speed>
</trkpt>
<trkpt lat="32.861896515" lon="35.247966766">
  <ele>256.877441</ele>
  <time>2011-09-02T07:11:00Z</time>
  <speed>3.680000</speed>
</trkpt>
<trkpt lat="32.861896515" lon="35.248012543">
  <ele>256.705566</ele>
  <time>2011-09-02T07:11:01Z</time>
  <speed>3.990000</speed>
</trkpt>
<trkpt lat="32.861888885" lon="35.248062134">
  <ele>256.236816</ele>
  <time>2011-09-02T07:11:02Z</time>
  <speed>4.070000</speed>
</trkpt>
<trkpt lat="32.861881256" lon="35.248104095">
  <ele>256.088379</ele>
  <time>2011-09-02T07:11:03Z</time>
  <speed>3.980000</speed>
</trkpt>
<trkpt lat="32.861877441" lon="35.248146057">
  <ele>255.981689</ele>
  <time>2011-09-02T07:11:04Z</time>
  <speed>3.590000</speed>
</trkpt>
<trkpt lat="32.861865997" lon="35.248180389">
  <ele>255.727783</ele>
  <time>2011-09-02T07:11:05Z</time>
  <speed>3.290000</speed>
</trkpt>
<trkpt lat="32.861850739" lon="35.248214722">
  <ele>255.505127</ele>
  <time>2011-09-02T07:11:06Z</time>
  <speed>3.110000</speed>
</trkpt>
<trkpt lat="32.861831665" lon="35.248241425">
  <ele>255.415283</ele>
  <time>2011-09-02T07:11:07Z</time>
  <speed>2.790000</speed>
</trkpt>
<trkpt lat="32.861801147" lon="35.248252869">
  <ele>255.216064</ele>
  <time>2011-09-02T07:11:08Z</time>
  <speed>3.190000</speed>
</trkpt>
<trkpt lat="32.861755371" lon="35.248252869">
  <ele>255.196533</ele>
  <time>2011-09-02T07:11:09Z</time>
  <speed>3.760000</speed>
</trkpt>
<trkpt lat="32.861721039" lon="35.248252869">
  <ele>255.059814</ele>
  <time>2011-09-02T07:11:10Z</time>
  <speed>2.820000</speed>
</trkpt>
<trkpt lat="32.861690521" lon="35.248256683">
  <ele>254.614502</ele>
  <time>2011-09-02T07:11:11Z</time>
  <speed>3.120000</speed>
</trkpt>
<trkpt lat="32.861648560" lon="35.248260498">
  <ele>254.009033</ele>
  <time>2011-09-02T07:11:12Z</time>
  <speed>3.460000</speed>
</trkpt>
<trkpt lat="32.861587524" lon="35.248233795">
  <ele>253.184814</ele>
  <time>2011-09-02T07:11:14Z</time>
  <speed>3.360000</speed>
</trkpt>
<trkpt lat="32.861564636" lon="35.248218536">
  <ele>253.075439</ele>
  <time>2011-09-02T07:11:15Z</time>
  <speed>3.370000</speed>
</trkpt>
<trkpt lat="32.861530304" lon="35.248203278">
  <ele>252.395752</ele>
  <time>2011-09-02T07:11:16Z</time>
  <speed>3.200000</speed>
</trkpt>
<trkpt lat="32.861511230" lon="35.248180389">
  <ele>252.317627</ele>
  <time>2011-09-02T07:11:17Z</time>
  <speed>3.380000</speed>
</trkpt>
<trkpt lat="32.861492157" lon="35.248153687">
  <ele>252.270752</ele>
  <time>2011-09-02T07:11:18Z</time>
  <speed>3.450000</speed>
</trkpt>
<trkpt lat="32.861473083" lon="35.248134613">
  <ele>251.993408</ele>
  <time>2011-09-02T07:11:19Z</time>
  <speed>3.350000</speed>
</trkpt>
<trkpt lat="32.861434937" lon="35.248104095">
  <ele>251.782471</ele>
  <time>2011-09-02T07:11:20Z</time>
  <speed>2.970000</speed>
</trkpt>
<trkpt lat="32.861415863" lon="35.248077393">
  <ele>252.005127</ele>
  <time>2011-09-02T07:11:21Z</time>
  <speed>3.680000</speed>
</trkpt>
<trkpt lat="32.861392975" lon="35.248050690">
  <ele>252.302002</ele>
  <time>2011-09-02T07:11:22Z</time>
  <speed>3.900000</speed>
</trkpt>
<trkpt lat="32.861366272" lon="35.248023987">
  <ele>252.341064</ele>
  <time>2011-09-02T07:11:23Z</time>
  <speed>3.820000</speed>
</trkpt>
<trkpt lat="32.861339569" lon="35.247989655">
  <ele>253.399658</ele>
  <time>2011-09-02T07:11:24Z</time>
  <speed>3.910000</speed>
</trkpt>
<trkpt lat="32.861309052" lon="35.247959137">
  <ele>254.141846</ele>
  <time>2011-09-02T07:11:25Z</time>
  <speed>4.010000</speed>
</trkpt>
<trkpt lat="32.861278534" lon="35.247920990">
  <ele>254.262939</ele>
  <time>2011-09-02T07:11:26Z</time>
  <speed>3.710000</speed>
</trkpt>
<trkpt lat="32.861251831" lon="35.247890472">
  <ele>254.677002</ele>
  <time>2011-09-02T07:11:27Z</time>
  <speed>3.610000</speed>
</trkpt>
<trkpt lat="32.861225128" lon="35.247859955">
  <ele>254.989502</ele>
  <time>2011-09-02T07:11:28Z</time>
  <speed>3.710000</speed>
</trkpt>
<trkpt lat="32.861198425" lon="35.247840881">
  <ele>254.934814</ele>
  <time>2011-09-02T07:11:29Z</time>
  <speed>3.700000</speed>
</trkpt>
<trkpt lat="32.861171722" lon="35.247814178">
  <ele>255.118408</ele>
  <time>2011-09-02T07:11:30Z</time>
  <speed>4.010000</speed>
</trkpt>
<trkpt lat="32.861148834" lon="35.247779846">
  <ele>255.317627</ele>
  <time>2011-09-02T07:11:31Z</time>
  <speed>4.080000</speed>
</trkpt>
<trkpt lat="32.861122131" lon="35.247753143">
  <ele>255.727783</ele>
  <time>2011-09-02T07:11:32Z</time>
  <speed>4.080000</speed>
</trkpt>
<trkpt lat="32.861099243" lon="35.247730255">
  <ele>255.622314</ele>
  <time>2011-09-02T07:11:33Z</time>
  <speed>3.880000</speed>
</trkpt>
<trkpt lat="32.861080170" lon="35.247707367">
  <ele>255.462158</ele>
  <time>2011-09-02T07:11:34Z</time>
  <speed>3.650000</speed>
</trkpt>
<trkpt lat="32.861049652" lon="35.247661591">
  <ele>256.221191</ele>
  <time>2011-09-02T07:11:36Z</time>
  <speed>3.610000</speed>
</trkpt>
<trkpt lat="32.861022949" lon="35.247638702">
  <ele>257.088379</ele>
  <time>2011-09-02T07:11:37Z</time>
  <speed>3.220000</speed>
</trkpt>
<trkpt lat="32.861003876" lon="35.247615814">
  <ele>257.197754</ele>
  <time>2011-09-02T07:11:38Z</time>
  <speed>3.480000</speed>
</trkpt>
<trkpt lat="32.860965729" lon="35.247570038">
  <ele>257.682129</ele>
  <time>2011-09-02T07:11:40Z</time>
  <speed>3.640000</speed>
</trkpt>
<trkpt lat="32.860939026" lon="35.247554779">
  <ele>257.291504</ele>
  <time>2011-09-02T07:11:41Z</time>
  <speed>3.190000</speed>
</trkpt>
<trkpt lat="32.860904694" lon="35.247524261">
  <ele>257.385254</ele>
  <time>2011-09-02T07:11:43Z</time>
  <speed>3.350000</speed>
</trkpt>
<trkpt lat="32.860881805" lon="35.247505188">
  <ele>257.713379</ele>
  <time>2011-09-02T07:11:44Z</time>
  <speed>3.300000</speed>
</trkpt>
<trkpt lat="32.860851288" lon="35.247486115">
  <ele>257.025879</ele>
  <time>2011-09-02T07:11:45Z</time>
  <speed>3.780000</speed>
</trkpt>
<trkpt lat="32.860828400" lon="35.247470856">
  <ele>257.104004</ele>
  <time>2011-09-02T07:11:46Z</time>
  <speed>3.590000</speed>
</trkpt>
<trkpt lat="32.860794067" lon="35.247455597">
  <ele>257.400879</ele>
  <time>2011-09-02T07:11:47Z</time>
  <speed>3.650000</speed>
</trkpt>
<trkpt lat="32.860755920" lon="35.247440338">
  <ele>257.166504</ele>
  <time>2011-09-02T07:11:48Z</time>
  <speed>3.320000</speed>
</trkpt>
<trkpt lat="32.860725403" lon="35.247432709">
  <ele>257.189941</ele>
  <time>2011-09-02T07:11:49Z</time>
  <speed>3.210000</speed>
</trkpt>
<trkpt lat="32.860698700" lon="35.247417450">
  <ele>257.174316</ele>
  <time>2011-09-02T07:11:50Z</time>
  <speed>3.310000</speed>
</trkpt>
<trkpt lat="32.860668182" lon="35.247406006">
  <ele>257.369629</ele>
  <time>2011-09-02T07:11:51Z</time>
  <speed>3.080000</speed>
</trkpt>
<trkpt lat="32.860637665" lon="35.247398376">
  <ele>257.518066</ele>
  <time>2011-09-02T07:11:52Z</time>
  <speed>3.070000</speed>
</trkpt>
<trkpt lat="32.860584259" lon="35.247394562">
  <ele>257.971191</ele>
  <time>2011-09-02T07:11:54Z</time>
  <speed>2.970000</speed>
</trkpt>
<trkpt lat="32.860534668" lon="35.247379303">
  <ele>258.002441</ele>
  <time>2011-09-02T07:11:56Z</time>
  <speed>3.130000</speed>
</trkpt>
<trkpt lat="32.860504150" lon="35.247371674">
  <ele>258.080566</ele>
  <time>2011-09-02T07:11:57Z</time>
  <speed>3.190000</speed>
</trkpt>
<trkpt lat="32.860477448" lon="35.247360229">
  <ele>257.986816</ele>
  <time>2011-09-02T07:11:58Z</time>
  <speed>2.790000</speed>
</trkpt>
<trkpt lat="32.860424042" lon="35.247344971">
  <ele>258.338379</ele>
  <time>2011-09-02T07:12:00Z</time>
  <speed>3.020000</speed>
</trkpt>
<trkpt lat="32.860401154" lon="35.247329712">
  <ele>258.010254</ele>
  <time>2011-09-02T07:12:01Z</time>
  <speed>2.650000</speed>
</trkpt>
<trkpt lat="32.860374451" lon="35.247322083">
  <ele>258.330566</ele>
  <time>2011-09-02T07:12:02Z</time>
  <speed>2.740000</speed>
</trkpt>
<trkpt lat="32.860343933" lon="35.247318268">
  <ele>258.900879</ele>
  <time>2011-09-02T07:12:03Z</time>
  <speed>2.500000</speed>
</trkpt>
<trkpt lat="32.860313416" lon="35.247310638">
  <ele>259.182129</ele>
  <time>2011-09-02T07:12:04Z</time>
  <speed>2.870000</speed>
</trkpt>
<trkpt lat="32.860282898" lon="35.247303009">
  <ele>259.400879</ele>
  <time>2011-09-02T07:12:05Z</time>
  <speed>2.770000</speed>
</trkpt>
<trkpt lat="32.860252380" lon="35.247299194">
  <ele>259.752441</ele>
  <time>2011-09-02T07:12:06Z</time>
  <speed>2.190000</speed>
</trkpt>
<trkpt lat="32.860198975" lon="35.247306824">
  <ele>260.479004</ele>
  <time>2011-09-02T07:12:08Z</time>
  <speed>2.210000</speed>
</trkpt>
<trkpt lat="32.860137939" lon="35.247318268">
  <ele>261.682129</ele>
  <time>2011-09-02T07:12:09Z</time>
  <speed>3.120000</speed>
</trkpt>
<trkpt lat="32.860115051" lon="35.247314453">
  <ele>262.900879</ele>
  <time>2011-09-02T07:12:10Z</time>
  <speed>2.770000</speed>
</trkpt>
<trkpt lat="32.860076904" lon="35.247318268">
  <ele>264.213379</ele>
  <time>2011-09-02T07:12:12Z</time>
  <speed>1.750000</speed>
</trkpt>
<trkpt lat="32.860034943" lon="35.247329712">
  <ele>264.104004</ele>
  <time>2011-09-02T07:12:14Z</time>
  <speed>2.190000</speed>
</trkpt>
<trkpt lat="32.859992981" lon="35.247337341">
  <ele>263.557129</ele>
  <time>2011-09-02T07:12:15Z</time>
  <speed>2.790000</speed>
</trkpt>
<trkpt lat="32.859947205" lon="35.247344971">
  <ele>263.486816</ele>
  <time>2011-09-02T07:12:17Z</time>
  <speed>2.640000</speed>
</trkpt>
<trkpt lat="32.859905243" lon="35.247364044">
  <ele>263.416504</ele>
  <time>2011-09-02T07:12:19Z</time>
  <speed>2.180000</speed>
</trkpt>
<trkpt lat="32.859878540" lon="35.247371674">
  <ele>263.377441</ele>
  <time>2011-09-02T07:12:21Z</time>
  <speed>1.240000</speed>
</trkpt>
<trkpt lat="32.859844208" lon="35.247375488">
  <ele>263.049316</ele>
  <time>2011-09-02T07:12:24Z</time>
  <speed>1.580000</speed>
</trkpt>
<trkpt lat="32.859817505" lon="35.247379303">
  <ele>263.158691</ele>
  <time>2011-09-02T07:12:25Z</time>
  <speed>2.110000</speed>
</trkpt>
<trkpt lat="32.859790802" lon="35.247383118">
  <ele>263.424316</ele>
  <time>2011-09-02T07:12:26Z</time>
  <speed>1.930000</speed>
</trkpt>
<trkpt lat="32.859748840" lon="35.247383118">
  <ele>263.564941</ele>
  <time>2011-09-02T07:12:28Z</time>
  <speed>1.660000</speed>
</trkpt>
<trkpt lat="32.859722137" lon="35.247383118">
  <ele>263.814941</ele>
  <time>2011-09-02T07:12:29Z</time>
  <speed>2.080000</speed>
</trkpt>
<trkpt lat="32.859691620" lon="35.247386932">
  <ele>263.893066</ele>
  <time>2011-09-02T07:12:31Z</time>
  <speed>1.220000</speed>
</trkpt>
<trkpt lat="32.859661102" lon="35.247386932">
  <ele>264.041504</ele>
  <time>2011-09-02T07:12:33Z</time>
  <speed>1.510000</speed>
</trkpt>
<trkpt lat="32.859622955" lon="35.247386932">
  <ele>264.963379</ele>
  <time>2011-09-02T07:12:36Z</time>
  <speed>1.420000</speed>
</trkpt>
<trkpt lat="32.859584808" lon="35.247383118">
  <ele>266.150879</ele>
  <time>2011-09-02T07:12:39Z</time>
  <speed>0.290000</speed>
</trkpt>
<trkpt lat="32.859565735" lon="35.247360229">
  <ele>266.041504</ele>
  <time>2011-09-02T07:12:49Z</time>
  <speed>0.300000</speed>
</trkpt>
<trkpt lat="32.859539032" lon="35.247352600">
  <ele>266.096191</ele>
  <time>2011-09-02T07:13:00Z</time>
  <speed>0.100000</speed>
</trkpt>
<trkpt lat="32.859512329" lon="35.247348785">
  <ele>266.135254</ele>
  <time>2011-09-02T07:13:14Z</time>
  <speed>0.130000</speed>
</trkpt>
<trkpt lat="32.859485626" lon="35.247341156">
  <ele>266.275879</ele>
  <time>2011-09-02T07:13:38Z</time>
  <speed>0.130000</speed>
</trkpt>
<trkpt lat="32.859455109" lon="35.247344971">
  <ele>267.096191</ele>
  <time>2011-09-02T07:15:05Z</time>
  <speed>0.710000</speed>
</trkpt>
<trkpt lat="32.859424591" lon="35.247352600">
  <ele>267.205566</ele>
  <time>2011-09-02T07:15:09Z</time>
  <speed>0.820000</speed>
</trkpt>
<trkpt lat="32.859401703" lon="35.247333527">
  <ele>267.611816</ele>
  <time>2011-09-02T07:15:12Z</time>
  <speed>1.130000</speed>
</trkpt>
<trkpt lat="32.859371185" lon="35.247318268">
  <ele>267.971191</ele>
  <time>2011-09-02T07:15:14Z</time>
  <speed>1.220000</speed>
</trkpt>
<trkpt lat="32.859336853" lon="35.247314453">
  <ele>268.518066</ele>
  <time>2011-09-02T07:15:16Z</time>
  <speed>1.240000</speed>
</trkpt>
<trkpt lat="32.859298706" lon="35.247314453">
  <ele>268.924316</ele>
  <time>2011-09-02T07:15:18Z</time>
  <speed>1.270000</speed>
</trkpt>
<trkpt lat="32.859264374" lon="35.247318268">
  <ele>269.283691</ele>
  <time>2011-09-02T07:15:21Z</time>
  <speed>1.050000</speed>
</trkpt>
<trkpt lat="32.859241486" lon="35.247352600">
  <ele>269.604004</ele>
  <time>2011-09-02T07:15:24Z</time>
  <speed>1.140000</speed>
</trkpt>
<trkpt lat="32.859275818" lon="35.247394562">
  <ele>270.033691</ele>
  <time>2011-09-02T07:15:25Z</time>
  <speed>1.270000</speed>
</trkpt>
<trkpt lat="32.859264374" lon="35.247425079">
  <ele>270.721191</ele>
  <time>2011-09-02T07:15:26Z</time>
  <speed>1.360000</speed>
</trkpt>
<trkpt lat="32.859249115" lon="35.247478485">
  <ele>271.502441</ele>
  <time>2011-09-02T07:15:28Z</time>
  <speed>1.460000</speed>
</trkpt>
<trkpt lat="32.859272003" lon="35.247516632">
  <ele>271.846191</ele>
  <time>2011-09-02T07:15:30Z</time>
  <speed>1.320000</speed>
</trkpt>
<trkpt lat="32.859279633" lon="35.247554779">
  <ele>272.229004</ele>
  <time>2011-09-02T07:15:32Z</time>
  <speed>1.550000</speed>
</trkpt>
<trkpt lat="32.859268188" lon="35.247585297">
  <ele>272.229004</ele>
  <time>2011-09-02T07:15:34Z</time>
  <speed>1.360000</speed>
</trkpt>
<trkpt lat="32.859252930" lon="35.247619629">
  <ele>272.650879</ele>
  <time>2011-09-02T07:15:37Z</time>
  <speed>1.240000</speed>
</trkpt>
<trkpt lat="32.859222412" lon="35.247623444">
  <ele>272.916504</ele>
  <time>2011-09-02T07:15:39Z</time>
  <speed>1.320000</speed>
</trkpt>
<trkpt lat="32.859191895" lon="35.247615814">
  <ele>272.939941</ele>
  <time>2011-09-02T07:15:40Z</time>
  <speed>1.070000</speed>
</trkpt>
<trkpt lat="32.859172821" lon="35.247585297">
  <ele>273.049316</ele>
  <time>2011-09-02T07:15:43Z</time>
  <speed>1.210000</speed>
</trkpt>
<trkpt lat="32.859146118" lon="35.247550964">
  <ele>273.361816</ele>
  <time>2011-09-02T07:15:45Z</time>
  <speed>1.220000</speed>
</trkpt>
<trkpt lat="32.859115601" lon="35.247535706">
  <ele>273.721191</ele>
  <time>2011-09-02T07:15:47Z</time>
  <speed>2.160000</speed>
</trkpt>
<trkpt lat="32.859088898" lon="35.247524261">
  <ele>273.838379</ele>
  <time>2011-09-02T07:15:48Z</time>
  <speed>1.930000</speed>
</trkpt>
<trkpt lat="32.859058380" lon="35.247516632">
  <ele>274.002441</ele>
  <time>2011-09-02T07:15:49Z</time>
  <speed>1.480000</speed>
</trkpt>
<trkpt lat="32.859031677" lon="35.247520447">
  <ele>274.025879</ele>
  <time>2011-09-02T07:15:51Z</time>
  <speed>1.330000</speed>
</trkpt>
<trkpt lat="32.859008789" lon="35.247535706">
  <ele>274.455566</ele>
  <time>2011-09-02T07:15:54Z</time>
  <speed>0.760000</speed>
</trkpt>
<trkpt lat="32.858985901" lon="35.247554779">
  <ele>275.330566</ele>
  <time>2011-09-02T07:15:57Z</time>
  <speed>1.040000</speed>
</trkpt>
<trkpt lat="32.858959198" lon="35.247573853">
  <ele>275.744629</ele>
  <time>2011-09-02T07:16:00Z</time>
  <speed>0.970000</speed>
</trkpt>
<trkpt lat="32.858932495" lon="35.247592926">
  <ele>276.252441</ele>
  <time>2011-09-02T07:16:03Z</time>
  <speed>0.950000</speed>
</trkpt>
<trkpt lat="32.858909607" lon="35.247615814">
  <ele>276.799316</ele>
  <time>2011-09-02T07:16:06Z</time>
  <speed>0.880000</speed>
</trkpt>
<trkpt lat="32.858886719" lon="35.247642517">
  <ele>277.041504</ele>
  <time>2011-09-02T07:16:10Z</time>
  <speed>0.890000</speed>
</trkpt>
<trkpt lat="32.858871460" lon="35.247673035">
  <ele>277.400879</ele>
  <time>2011-09-02T07:16:14Z</time>
  <speed>0.700000</speed>
</trkpt>
<trkpt lat="32.858848572" lon="35.247692108">
  <ele>277.447754</ele>
  <time>2011-09-02T07:16:17Z</time>
  <speed>0.840000</speed>
</trkpt>
<trkpt lat="32.858821869" lon="35.247722626">
  <ele>277.025879</ele>
  <time>2011-09-02T07:16:20Z</time>
  <speed>0.790000</speed>
</trkpt>
<trkpt lat="32.858791351" lon="35.247741699">
  <ele>276.502441</ele>
  <time>2011-09-02T07:16:22Z</time>
  <speed>0.920000</speed>
</trkpt>
<trkpt lat="32.858753204" lon="35.247741699">
  <ele>276.330566</ele>
  <time>2011-09-02T07:16:23Z</time>
  <speed>1.060000</speed>
</trkpt>
<trkpt lat="32.858745575" lon="35.247779846">
  <ele>275.689941</ele>
  <time>2011-09-02T07:16:25Z</time>
  <speed>1.040000</speed>
</trkpt>
<trkpt lat="32.858726501" lon="35.247806549">
  <ele>275.439941</ele>
  <time>2011-09-02T07:16:28Z</time>
  <speed>0.920000</speed>
</trkpt>
<trkpt lat="32.858699799" lon="35.247806549">
  <ele>275.174316</ele>
  <time>2011-09-02T07:16:29Z</time>
  <speed>0.930000</speed>
</trkpt>
<trkpt lat="32.858673096" lon="35.247817993">
  <ele>275.018066</ele>
  <time>2011-09-02T07:16:31Z</time>
  <speed>0.850000</speed>
</trkpt>
<trkpt lat="32.858680725" lon="35.247852325">
  <ele>274.807129</ele>
  <time>2011-09-02T07:16:33Z</time>
  <speed>0.810000</speed>
</trkpt>
<trkpt lat="32.858650208" lon="35.247875214">
  <ele>274.674316</ele>
  <time>2011-09-02T07:16:36Z</time>
  <speed>1.020000</speed>
</trkpt>
<trkpt lat="32.858619690" lon="35.247898102">
  <ele>274.346191</ele>
  <time>2011-09-02T07:16:39Z</time>
  <speed>1.180000</speed>
</trkpt>
<trkpt lat="32.858585358" lon="35.247909546">
  <ele>274.127441</ele>
  <time>2011-09-02T07:16:41Z</time>
  <speed>1.440000</speed>
</trkpt>
<trkpt lat="32.858547211" lon="35.247909546">
  <ele>273.885254</ele>
  <time>2011-09-02T07:16:42Z</time>
  <speed>1.490000</speed>
</trkpt>
<trkpt lat="32.858512878" lon="35.247917175">
  <ele>273.932129</ele>
  <time>2011-09-02T07:16:44Z</time>
  <speed>1.780000</speed>
</trkpt>
<trkpt lat="32.858470917" lon="35.247943878">
  <ele>273.674316</ele>
  <time>2011-09-02T07:16:47Z</time>
  <speed>1.390000</speed>
</trkpt>
<trkpt lat="32.858455658" lon="35.247978210">
  <ele>273.400879</ele>
  <time>2011-09-02T07:16:48Z</time>
  <speed>1.300000</speed>
</trkpt>
<trkpt lat="32.858436584" lon="35.248001099">
  <ele>273.221191</ele>
  <time>2011-09-02T07:16:49Z</time>
  <speed>1.410000</speed>
</trkpt>
<trkpt lat="32.858413696" lon="35.248054504">
  <ele>273.166504</ele>
  <time>2011-09-02T07:16:51Z</time>
  <speed>1.610000</speed>
</trkpt>
<trkpt lat="32.858383179" lon="35.248130798">
  <ele>272.564941</ele>
  <time>2011-09-02T07:16:53Z</time>
  <speed>1.470000</speed>
</trkpt>
<trkpt lat="32.858383179" lon="35.248165131">
  <ele>272.643066</ele>
  <time>2011-09-02T07:16:54Z</time>
  <speed>1.700000</speed>
</trkpt>
<trkpt lat="32.858375549" lon="35.248207092">
  <ele>273.994629</ele>
  <time>2011-09-02T07:16:56Z</time>
  <speed>1.280000</speed>
</trkpt>
<trkpt lat="32.858364105" lon="35.248245239">
  <ele>274.119629</ele>
  <time>2011-09-02T07:16:58Z</time>
  <speed>1.000000</speed>
</trkpt>
<trkpt lat="32.858345032" lon="35.248279572">
  <ele>273.986816</ele>
  <time>2011-09-02T07:17:00Z</time>
  <speed>1.080000</speed>
</trkpt>
<trkpt lat="32.858322144" lon="35.248298645">
  <ele>273.814941</ele>
  <time>2011-09-02T07:17:01Z</time>
  <speed>1.400000</speed>
</trkpt>
<trkpt lat="32.858303070" lon="35.248344421">
  <ele>275.150879</ele>
  <time>2011-09-02T07:17:03Z</time>
  <speed>1.320000</speed>
</trkpt>
<trkpt lat="32.858303070" lon="35.248374939">
  <ele>276.229004</ele>
  <time>2011-09-02T07:17:05Z</time>
  <speed>1.670000</speed>
</trkpt>
<trkpt lat="32.858299255" lon="35.248416901">
  <ele>277.166504</ele>
  <time>2011-09-02T07:17:07Z</time>
  <speed>1.430000</speed>
</trkpt>
<trkpt lat="32.858310699" lon="35.248455048">
  <ele>277.533691</ele>
  <time>2011-09-02T07:17:08Z</time>
  <speed>1.730000</speed>
</trkpt>
<trkpt lat="32.858303070" lon="35.248485565">
  <ele>277.721191</ele>
  <time>2011-09-02T07:17:09Z</time>
  <speed>1.670000</speed>
</trkpt>
<trkpt lat="32.858310699" lon="35.248554230">
  <ele>278.713379</ele>
  <time>2011-09-02T07:17:11Z</time>
  <speed>1.850000</speed>
</trkpt>
<trkpt lat="32.858299255" lon="35.248603821">
  <ele>278.854004</ele>
  <time>2011-09-02T07:17:13Z</time>
  <speed>2.480000</speed>
</trkpt>
<trkpt lat="32.858280182" lon="35.248703003">
  <ele>280.666504</ele>
  <time>2011-09-02T07:17:15Z</time>
  <speed>2.220000</speed>
</trkpt>
<trkpt lat="32.858287811" lon="35.248748779">
  <ele>281.689941</ele>
  <time>2011-09-02T07:17:16Z</time>
  <speed>2.360000</speed>
</trkpt>
<trkpt lat="32.858283997" lon="35.248794556">
  <ele>282.861816</ele>
  <time>2011-09-02T07:17:17Z</time>
  <speed>2.020000</speed>
</trkpt>
<trkpt lat="32.858287811" lon="35.248832703">
  <ele>283.369629</ele>
  <time>2011-09-02T07:17:19Z</time>
  <speed>1.470000</speed>
</trkpt>
<trkpt lat="32.858303070" lon="35.248882294">
  <ele>285.002441</ele>
  <time>2011-09-02T07:17:21Z</time>
  <speed>1.680000</speed>
</trkpt>
<trkpt lat="32.858325958" lon="35.248920441">
  <ele>285.611816</ele>
  <time>2011-09-02T07:17:23Z</time>
  <speed>2.130000</speed>
</trkpt>
<trkpt lat="32.858352661" lon="35.248973846">
  <ele>285.416504</ele>
  <time>2011-09-02T07:17:25Z</time>
  <speed>2.090000</speed>
</trkpt>
<trkpt lat="32.858375549" lon="35.249015808">
  <ele>285.057129</ele>
  <time>2011-09-02T07:17:27Z</time>
  <speed>1.820000</speed>
</trkpt>
<trkpt lat="32.858375549" lon="35.249080658">
  <ele>284.721191</ele>
  <time>2011-09-02T07:17:29Z</time>
  <speed>2.320000</speed>
</trkpt>
<trkpt lat="32.858379364" lon="35.249130249">
  <ele>284.049316</ele>
  <time>2011-09-02T07:17:31Z</time>
  <speed>2.120000</speed>
</trkpt>
<trkpt lat="32.858386993" lon="35.249176025">
  <ele>283.525879</ele>
  <time>2011-09-02T07:17:33Z</time>
  <speed>1.910000</speed>
</trkpt>
<trkpt lat="32.858421326" lon="35.249217987">
  <ele>283.744629</ele>
  <time>2011-09-02T07:17:35Z</time>
  <speed>2.210000</speed>
</trkpt>
<trkpt lat="32.858459473" lon="35.249256134">
  <ele>283.283691</ele>
  <time>2011-09-02T07:17:37Z</time>
  <speed>2.400000</speed>
</trkpt>
<trkpt lat="32.858486176" lon="35.249305725">
  <ele>283.424316</ele>
  <time>2011-09-02T07:17:39Z</time>
  <speed>2.270000</speed>
</trkpt>
<trkpt lat="32.858497620" lon="35.249351501">
  <ele>284.791504</ele>
  <time>2011-09-02T07:17:40Z</time>
  <speed>2.360000</speed>
</trkpt>
<trkpt lat="32.858509064" lon="35.249382019">
  <ele>285.033691</ele>
  <time>2011-09-02T07:17:41Z</time>
  <speed>2.250000</speed>
</trkpt>
<trkpt lat="32.858531952" lon="35.249401093">
  <ele>285.299316</ele>
  <time>2011-09-02T07:17:42Z</time>
  <speed>2.330000</speed>
</trkpt>
<trkpt lat="32.858558655" lon="35.249416351">
  <ele>285.361816</ele>
  <time>2011-09-02T07:17:43Z</time>
  <speed>2.290000</speed>
</trkpt>
<trkpt lat="32.858581543" lon="35.249435425">
  <ele>285.580566</ele>
  <time>2011-09-02T07:17:44Z</time>
  <speed>2.090000</speed>
</trkpt>
<trkpt lat="32.858619690" lon="35.249469757">
  <ele>285.689941</ele>
  <time>2011-09-02T07:17:46Z</time>
  <speed>1.980000</speed>
</trkpt>
<trkpt lat="32.858680725" lon="35.249492645">
  <ele>285.385254</ele>
  <time>2011-09-02T07:17:48Z</time>
  <speed>2.540000</speed>
</trkpt>
<trkpt lat="32.858737946" lon="35.249511719">
  <ele>285.486816</ele>
  <time>2011-09-02T07:17:50Z</time>
  <speed>2.420000</speed>
</trkpt>
<trkpt lat="32.858783722" lon="35.249523163">
  <ele>285.799316</ele>
  <time>2011-09-02T07:17:52Z</time>
  <speed>2.290000</speed>
</trkpt>
<trkpt lat="32.858810425" lon="35.249530792">
  <ele>286.877441</ele>
  <time>2011-09-02T07:17:53Z</time>
  <speed>2.030000</speed>
</trkpt>
<trkpt lat="32.858844757" lon="35.249534607">
  <ele>287.127441</ele>
  <time>2011-09-02T07:17:55Z</time>
  <speed>2.210000</speed>
</trkpt>
<trkpt lat="32.858875275" lon="35.249557495">
  <ele>288.174316</ele>
  <time>2011-09-02T07:17:57Z</time>
  <speed>1.550000</speed>
</trkpt>
<trkpt lat="32.858901978" lon="35.249568939">
  <ele>287.479004</ele>
  <time>2011-09-02T07:17:58Z</time>
  <speed>1.560000</speed>
</trkpt>
<trkpt lat="32.858936310" lon="35.249580383">
  <ele>287.025879</ele>
  <time>2011-09-02T07:18:00Z</time>
  <speed>1.620000</speed>
</trkpt>
<trkpt lat="32.858974457" lon="35.249603271">
  <ele>288.041504</ele>
  <time>2011-09-02T07:18:02Z</time>
  <speed>2.040000</speed>
</trkpt>
<trkpt lat="32.859008789" lon="35.249614716">
  <ele>287.814941</ele>
  <time>2011-09-02T07:18:04Z</time>
  <speed>1.550000</speed>
</trkpt>
<trkpt lat="32.859046936" lon="35.249629974">
  <ele>289.143066</ele>
  <time>2011-09-02T07:18:06Z</time>
  <speed>1.830000</speed>
</trkpt>
<trkpt lat="32.859092712" lon="35.249637604">
  <ele>288.799316</ele>
  <time>2011-09-02T07:18:08Z</time>
  <speed>1.600000</speed>
</trkpt>
<trkpt lat="32.859142303" lon="35.249649048">
  <ele>290.182129</ele>
  <time>2011-09-02T07:18:10Z</time>
  <speed>2.060000</speed>
</trkpt>
<trkpt lat="32.859176636" lon="35.249652863">
  <ele>291.275879</ele>
  <time>2011-09-02T07:18:12Z</time>
  <speed>1.920000</speed>
</trkpt>
<trkpt lat="32.859210968" lon="35.249668121">
  <ele>293.018066</ele>
  <time>2011-09-02T07:18:14Z</time>
  <speed>2.130000</speed>
</trkpt>
<trkpt lat="32.859241486" lon="35.249671936">
  <ele>293.924316</ele>
  <time>2011-09-02T07:18:16Z</time>
  <speed>1.730000</speed>
</trkpt>
<trkpt lat="32.859283447" lon="35.249660492">
  <ele>294.580566</ele>
  <time>2011-09-02T07:18:19Z</time>
  <speed>1.640000</speed>
</trkpt>
<trkpt lat="32.859325409" lon="35.249671936">
  <ele>294.072754</ele>
  <time>2011-09-02T07:18:21Z</time>
  <speed>1.020000</speed>
</trkpt>
<trkpt lat="32.859363556" lon="35.249668121">
  <ele>295.486816</ele>
  <time>2011-09-02T07:18:24Z</time>
  <speed>1.030000</speed>
</trkpt>
<trkpt lat="32.859397888" lon="35.249683380">
  <ele>296.479004</ele>
  <time>2011-09-02T07:18:26Z</time>
  <speed>1.590000</speed>
</trkpt>
<trkpt lat="32.859432220" lon="35.249694824">
  <ele>296.604004</ele>
  <time>2011-09-02T07:18:28Z</time>
  <speed>1.600000</speed>
</trkpt>
<trkpt lat="32.859485626" lon="35.249706268">
  <ele>298.775879</ele>
  <time>2011-09-02T07:18:30Z</time>
  <speed>1.760000</speed>
</trkpt>
<trkpt lat="32.859512329" lon="35.249710083">
  <ele>299.854004</ele>
  <time>2011-09-02T07:18:31Z</time>
  <speed>1.700000</speed>
</trkpt>
<trkpt lat="32.859516144" lon="35.249736786">
  <ele>298.596191</ele>
  <time>2011-09-02T07:18:33Z</time>
  <speed>1.370000</speed>
</trkpt>
<trkpt lat="32.859550476" lon="35.249755859">
  <ele>299.260254</ele>
  <time>2011-09-02T07:18:35Z</time>
  <speed>2.090000</speed>
</trkpt>
<trkpt lat="32.859580994" lon="35.249790192">
  <ele>299.088379</ele>
  <time>2011-09-02T07:18:37Z</time>
  <speed>1.870000</speed>
</trkpt>
<trkpt lat="32.859611511" lon="35.249813080">
  <ele>299.283691</ele>
  <time>2011-09-02T07:18:39Z</time>
  <speed>1.580000</speed>
</trkpt>
<trkpt lat="32.859642029" lon="35.249843597">
  <ele>300.494629</ele>
  <time>2011-09-02T07:18:41Z</time>
  <speed>2.220000</speed>
</trkpt>
<trkpt lat="32.859680176" lon="35.249862671">
  <ele>300.689941</ele>
  <time>2011-09-02T07:18:43Z</time>
  <speed>1.950000</speed>
</trkpt>
<trkpt lat="32.859703064" lon="35.249877930">
  <ele>300.674316</ele>
  <time>2011-09-02T07:18:45Z</time>
  <speed>1.780000</speed>
</trkpt>
<trkpt lat="32.859741211" lon="35.249897003">
  <ele>301.619629</ele>
  <time>2011-09-02T07:18:47Z</time>
  <speed>1.640000</speed>
</trkpt>
<trkpt lat="32.859779358" lon="35.249912262">
  <ele>301.127441</ele>
  <time>2011-09-02T07:18:49Z</time>
  <speed>2.280000</speed>
</trkpt>
<trkpt lat="32.859817505" lon="35.249950409">
  <ele>301.299316</ele>
  <time>2011-09-02T07:18:51Z</time>
  <speed>2.600000</speed>
</trkpt>
<trkpt lat="32.859859467" lon="35.249969482">
  <ele>301.010254</ele>
  <time>2011-09-02T07:18:53Z</time>
  <speed>2.480000</speed>
</trkpt>
<trkpt lat="32.859893799" lon="35.249977112">
  <ele>301.369629</ele>
  <time>2011-09-02T07:18:54Z</time>
  <speed>1.840000</speed>
</trkpt>
<trkpt lat="32.859920502" lon="35.249996185">
  <ele>301.158691</ele>
  <time>2011-09-02T07:18:56Z</time>
  <speed>2.170000</speed>
</trkpt>
<trkpt lat="32.859962463" lon="35.250015259">
  <ele>301.104004</ele>
  <time>2011-09-02T07:18:58Z</time>
  <speed>2.160000</speed>
</trkpt>
<trkpt lat="32.859989166" lon="35.250022888">
  <ele>300.799316</ele>
  <time>2011-09-02T07:18:59Z</time>
  <speed>2.250000</speed>
</trkpt>
<trkpt lat="32.860008240" lon="35.250049591">
  <ele>301.088379</ele>
  <time>2011-09-02T07:19:00Z</time>
  <speed>1.780000</speed>
</trkpt>
<trkpt lat="32.860050201" lon="35.250064850">
  <ele>300.135254</ele>
  <time>2011-09-02T07:19:02Z</time>
  <speed>1.820000</speed>
</trkpt>
<trkpt lat="32.860080719" lon="35.250087738">
  <ele>300.127441</ele>
  <time>2011-09-02T07:19:04Z</time>
  <speed>2.030000</speed>
</trkpt>
<trkpt lat="32.860115051" lon="35.250102997">
  <ele>299.463379</ele>
  <time>2011-09-02T07:19:06Z</time>
  <speed>1.720000</speed>
</trkpt>
<trkpt lat="32.860141754" lon="35.250118256">
  <ele>299.908691</ele>
  <time>2011-09-02T07:19:08Z</time>
  <speed>1.220000</speed>
</trkpt>
<trkpt lat="32.860172272" lon="35.250129700">
  <ele>299.596191</ele>
  <time>2011-09-02T07:19:09Z</time>
  <speed>1.670000</speed>
</trkpt>
<trkpt lat="32.860198975" lon="35.250160217">
  <ele>299.400879</ele>
  <time>2011-09-02T07:19:11Z</time>
  <speed>2.030000</speed>
</trkpt>
<trkpt lat="32.860233307" lon="35.250183105">
  <ele>299.354004</ele>
  <time>2011-09-02T07:19:13Z</time>
  <speed>1.970000</speed>
</trkpt>
<trkpt lat="32.860256195" lon="35.250205994">
  <ele>299.275879</ele>
  <time>2011-09-02T07:19:15Z</time>
  <speed>1.860000</speed>
</trkpt>
<trkpt lat="32.860275269" lon="35.250240326">
  <ele>298.439941</ele>
  <time>2011-09-02T07:19:17Z</time>
  <speed>1.770000</speed>
</trkpt>
<trkpt lat="32.860305786" lon="35.250274658">
  <ele>298.268066</ele>
  <time>2011-09-02T07:19:19Z</time>
  <speed>1.810000</speed>
</trkpt>
<trkpt lat="32.860332489" lon="35.250297546">
  <ele>298.135254</ele>
  <time>2011-09-02T07:19:21Z</time>
  <speed>1.530000</speed>
</trkpt>
<trkpt lat="32.860363007" lon="35.250328064">
  <ele>298.674316</ele>
  <time>2011-09-02T07:19:23Z</time>
  <speed>1.770000</speed>
</trkpt>
<trkpt lat="32.860378265" lon="35.250358582">
  <ele>298.494629</ele>
  <time>2011-09-02T07:19:25Z</time>
  <speed>2.000000</speed>
</trkpt>
<trkpt lat="32.860397339" lon="35.250385284">
  <ele>298.611816</ele>
  <time>2011-09-02T07:19:26Z</time>
  <speed>2.210000</speed>
</trkpt>
<trkpt lat="32.860424042" lon="35.250434875">
  <ele>299.643066</ele>
  <time>2011-09-02T07:19:28Z</time>
  <speed>2.150000</speed>
</trkpt>
<trkpt lat="32.860420227" lon="35.250476837">
  <ele>300.025879</ele>
  <time>2011-09-02T07:19:29Z</time>
  <speed>2.500000</speed>
</trkpt>
<trkpt lat="32.860420227" lon="35.250534058">
  <ele>300.268066</ele>
  <time>2011-09-02T07:19:31Z</time>
  <speed>1.970000</speed>
</trkpt>
<trkpt lat="32.860424042" lon="35.250591278">
  <ele>300.377441</ele>
  <time>2011-09-02T07:19:33Z</time>
  <speed>2.090000</speed>
</trkpt>
<trkpt lat="32.860416412" lon="35.250629425">
  <ele>300.939941</ele>
  <time>2011-09-02T07:19:34Z</time>
  <speed>2.120000</speed>
</trkpt>
<trkpt lat="32.860439301" lon="35.250652313">
  <ele>301.729004</ele>
  <time>2011-09-02T07:19:35Z</time>
  <speed>1.990000</speed>
</trkpt>
<trkpt lat="32.860443115" lon="35.250686646">
  <ele>301.627441</ele>
  <time>2011-09-02T07:19:36Z</time>
  <speed>2.130000</speed>
</trkpt>
<trkpt lat="32.860462189" lon="35.250740051">
  <ele>302.049316</ele>
  <time>2011-09-02T07:19:38Z</time>
  <speed>2.010000</speed>
</trkpt>
<trkpt lat="32.860473633" lon="35.250774384">
  <ele>302.854004</ele>
  <time>2011-09-02T07:19:40Z</time>
  <speed>1.590000</speed>
</trkpt>
<trkpt lat="32.860504150" lon="35.250808716">
  <ele>304.096191</ele>
  <time>2011-09-02T07:19:42Z</time>
  <speed>1.990000</speed>
</trkpt>
<trkpt lat="32.860515594" lon="35.250839233">
  <ele>304.689941</ele>
  <time>2011-09-02T07:19:43Z</time>
  <speed>2.000000</speed>
</trkpt>
<trkpt lat="32.860553741" lon="35.250865936">
  <ele>305.143066</ele>
  <time>2011-09-02T07:19:45Z</time>
  <speed>1.990000</speed>
</trkpt>
<trkpt lat="32.860576630" lon="35.250888824">
  <ele>306.299316</ele>
  <time>2011-09-02T07:19:47Z</time>
  <speed>1.340000</speed>
</trkpt>
<trkpt lat="32.860591888" lon="35.250919342">
  <ele>305.760254</ele>
  <time>2011-09-02T07:19:49Z</time>
  <speed>1.990000</speed>
</trkpt>
<trkpt lat="32.860584259" lon="35.250949860">
  <ele>306.572754</ele>
  <time>2011-09-02T07:19:51Z</time>
  <speed>1.420000</speed>
</trkpt>
<trkpt lat="32.860580444" lon="35.250980377">
  <ele>308.041504</ele>
  <time>2011-09-02T07:19:53Z</time>
  <speed>1.050000</speed>
</trkpt>
<trkpt lat="32.860572815" lon="35.251018524">
  <ele>307.650879</ele>
  <time>2011-09-02T07:19:55Z</time>
  <speed>1.970000</speed>
</trkpt>
<trkpt lat="32.860565186" lon="35.251056671">
  <ele>307.525879</ele>
  <time>2011-09-02T07:19:57Z</time>
  <speed>1.210000</speed>
</trkpt>
<trkpt lat="32.860534668" lon="35.251064301">
  <ele>306.971191</ele>
  <time>2011-09-02T07:20:00Z</time>
  <speed>1.100000</speed>
</trkpt>
<trkpt lat="32.860542297" lon="35.251094818">
  <ele>308.080566</ele>
  <time>2011-09-02T07:20:51Z</time>
  <speed>0.030000</speed>
</trkpt>
<trkpt lat="32.860561371" lon="35.251106262">
  <ele>310.455566</ele>
  <time>2011-09-02T07:22:02Z</time>
  <speed>1.220000</speed>
</trkpt>
<trkpt lat="32.860584259" lon="35.251136780">
  <ele>311.166504</ele>
  <time>2011-09-02T07:22:04Z</time>
  <speed>1.440000</speed>
</trkpt>
<trkpt lat="32.860603333" lon="35.251167297">
  <ele>311.150879</ele>
  <time>2011-09-02T07:22:06Z</time>
  <speed>1.550000</speed>
</trkpt>
<trkpt lat="32.860641479" lon="35.251182556">
  <ele>311.658691</ele>
  <time>2011-09-02T07:22:08Z</time>
  <speed>1.930000</speed>
</trkpt>
<trkpt lat="32.860675812" lon="35.251178741">
  <ele>311.541504</ele>
  <time>2011-09-02T07:22:10Z</time>
  <speed>1.830000</speed>
</trkpt>
<trkpt lat="32.860694885" lon="35.251152039">
  <ele>310.877441</ele>
  <time>2011-09-02T07:22:13Z</time>
  <speed>0.930000</speed>
</trkpt>
<trkpt lat="32.860679626" lon="35.251125336">
  <ele>309.736816</ele>
  <time>2011-09-02T07:22:15Z</time>
  <speed>0.890000</speed>
</trkpt>
<trkpt lat="32.860652924" lon="35.251117706">
  <ele>308.432129</ele>
  <time>2011-09-02T07:22:17Z</time>
  <speed>1.070000</speed>
</trkpt>
<trkpt lat="32.860603333" lon="35.251113892">
  <ele>308.689941</ele>
  <time>2011-09-02T07:22:44Z</time>
  <speed>0.980000</speed>
</trkpt>
<trkpt lat="32.860572815" lon="35.251106262">
  <ele>308.830566</ele>
  <time>2011-09-02T07:22:45Z</time>
  <speed>2.400000</speed>
</trkpt>
<trkpt lat="32.860538483" lon="35.251102448">
  <ele>309.143066</ele>
  <time>2011-09-02T07:22:46Z</time>
  <speed>3.870000</speed>
</trkpt>
<trkpt lat="32.860507965" lon="35.251102448">
  <ele>309.127441</ele>
  <time>2011-09-02T07:22:47Z</time>
  <speed>4.070000</speed>
</trkpt>
<trkpt lat="32.860469818" lon="35.251098633">
  <ele>309.135254</ele>
  <time>2011-09-02T07:22:48Z</time>
  <speed>3.270000</speed>
</trkpt>
<trkpt lat="32.860431671" lon="35.251098633">
  <ele>309.111816</ele>
  <time>2011-09-02T07:22:49Z</time>
  <speed>3.900000</speed>
</trkpt>
<trkpt lat="32.860393524" lon="35.251110077">
  <ele>308.908691</ele>
  <time>2011-09-02T07:22:50Z</time>
  <speed>4.360000</speed>
</trkpt>
<trkpt lat="32.860343933" lon="35.251110077">
  <ele>308.604004</ele>
  <time>2011-09-02T07:22:51Z</time>
  <speed>5.280000</speed>
</trkpt>
<trkpt lat="32.860282898" lon="35.251106262">
  <ele>308.049316</ele>
  <time>2011-09-02T07:22:52Z</time>
  <speed>6.100000</speed>
</trkpt>
<trkpt lat="32.860202789" lon="35.251129150">
  <ele>306.705566</ele>
  <time>2011-09-02T07:22:53Z</time>
  <speed>8.880000</speed>
</trkpt>
<trkpt lat="32.860137939" lon="35.251159668">
  <ele>305.807129</ele>
  <time>2011-09-02T07:22:54Z</time>
  <speed>7.690000</speed>
</trkpt>
<trkpt lat="32.860088348" lon="35.251171112">
  <ele>305.104004</ele>
  <time>2011-09-02T07:22:55Z</time>
  <speed>5.600000</speed>
</trkpt>
<trkpt lat="32.860038757" lon="35.251167297">
  <ele>304.557129</ele>
  <time>2011-09-02T07:22:56Z</time>
  <speed>5.040000</speed>
</trkpt>
<trkpt lat="32.859996796" lon="35.251174927">
  <ele>303.791504</ele>
  <time>2011-09-02T07:22:57Z</time>
  <speed>4.200000</speed>
</trkpt>
<trkpt lat="32.859970093" lon="35.251194000">
  <ele>302.760254</ele>
  <time>2011-09-02T07:22:58Z</time>
  <speed>3.060000</speed>
</trkpt>
<trkpt lat="32.859951019" lon="35.251228333">
  <ele>301.971191</ele>
  <time>2011-09-02T07:22:59Z</time>
  <speed>3.460000</speed>
</trkpt>
<trkpt lat="32.859939575" lon="35.251266479">
  <ele>301.096191</ele>
  <time>2011-09-02T07:23:00Z</time>
  <speed>3.130000</speed>
</trkpt>
<trkpt lat="32.859935760" lon="35.251304626">
  <ele>300.455566</ele>
  <time>2011-09-02T07:23:01Z</time>
  <speed>3.540000</speed>
</trkpt>
<trkpt lat="32.859924316" lon="35.251365662">
  <ele>298.979004</ele>
  <time>2011-09-02T07:23:02Z</time>
  <speed>4.620000</speed>
</trkpt>
<trkpt lat="32.859886169" lon="35.251426697">
  <ele>298.057129</ele>
  <time>2011-09-02T07:23:03Z</time>
  <speed>4.180000</speed>
</trkpt>
<trkpt lat="32.859901428" lon="35.251483917">
  <ele>296.564941</ele>
  <time>2011-09-02T07:23:04Z</time>
  <speed>2.690000</speed>
</trkpt>
<trkpt lat="32.859855652" lon="35.251480103">
  <ele>295.275879</ele>
  <time>2011-09-02T07:23:06Z</time>
  <speed>3.310000</speed>
</trkpt>
<trkpt lat="32.859832764" lon="35.251419067">
  <ele>295.424316</ele>
  <time>2011-09-02T07:23:08Z</time>
  <speed>3.880000</speed>
</trkpt>
<trkpt lat="32.859851837" lon="35.251380920">
  <ele>294.314941</ele>
  <time>2011-09-02T07:23:09Z</time>
  <speed>4.040000</speed>
</trkpt>
<trkpt lat="32.859851837" lon="35.251331329">
  <ele>293.916504</ele>
  <time>2011-09-02T07:23:10Z</time>
  <speed>3.960000</speed>
</trkpt>
<trkpt lat="32.859851837" lon="35.251289368">
  <ele>293.143066</ele>
  <time>2011-09-02T07:23:11Z</time>
  <speed>3.740000</speed>
</trkpt>
<trkpt lat="32.859821320" lon="35.251255035">
  <ele>292.830566</ele>
  <time>2011-09-02T07:23:12Z</time>
  <speed>3.660000</speed>
</trkpt>
<trkpt lat="32.859828949" lon="35.251209259">
  <ele>291.275879</ele>
  <time>2011-09-02T07:23:13Z</time>
  <speed>4.140000</speed>
</trkpt>
<trkpt lat="32.859821320" lon="35.251167297">
  <ele>291.229004</ele>
  <time>2011-09-02T07:23:14Z</time>
  <speed>4.050000</speed>
</trkpt>
<trkpt lat="32.859798431" lon="35.251125336">
  <ele>290.057129</ele>
  <time>2011-09-02T07:23:15Z</time>
  <speed>3.850000</speed>
</trkpt>
<trkpt lat="32.859764099" lon="35.251094818">
  <ele>288.916504</ele>
  <time>2011-09-02T07:23:16Z</time>
  <speed>4.100000</speed>
</trkpt>
<trkpt lat="32.859725952" lon="35.251075745">
  <ele>288.854004</ele>
  <time>2011-09-02T07:23:17Z</time>
  <speed>2.730000</speed>
</trkpt>
<trkpt lat="32.859680176" lon="35.251113892">
  <ele>287.846191</ele>
  <time>2011-09-02T07:23:19Z</time>
  <speed>3.100000</speed>
</trkpt>
<trkpt lat="32.859657288" lon="35.251159668">
  <ele>287.033691</ele>
  <time>2011-09-02T07:23:20Z</time>
  <speed>4.570000</speed>
</trkpt>
<trkpt lat="32.859638214" lon="35.251201630">
  <ele>286.619629</ele>
  <time>2011-09-02T07:23:21Z</time>
  <speed>4.270000</speed>
</trkpt>
<trkpt lat="32.859634399" lon="35.251251221">
  <ele>286.096191</ele>
  <time>2011-09-02T07:23:22Z</time>
  <speed>4.510000</speed>
</trkpt>
<trkpt lat="32.859630585" lon="35.251308441">
  <ele>285.666504</ele>
  <time>2011-09-02T07:23:23Z</time>
  <speed>5.000000</speed>
</trkpt>
<trkpt lat="32.859638214" lon="35.251369476">
  <ele>284.760254</ele>
  <time>2011-09-02T07:23:24Z</time>
  <speed>5.300000</speed>
</trkpt>
<trkpt lat="32.859653473" lon="35.251422882">
  <ele>284.322754</ele>
  <time>2011-09-02T07:23:25Z</time>
  <speed>5.280000</speed>
</trkpt>
<trkpt lat="32.859683990" lon="35.251483917">
  <ele>283.682129</ele>
  <time>2011-09-02T07:23:26Z</time>
  <speed>5.600000</speed>
</trkpt>
<trkpt lat="32.859710693" lon="35.251529694">
  <ele>282.971191</ele>
  <time>2011-09-02T07:23:27Z</time>
  <speed>5.210000</speed>
</trkpt>
<trkpt lat="32.859741211" lon="35.251575470">
  <ele>282.479004</ele>
  <time>2011-09-02T07:23:28Z</time>
  <speed>4.990000</speed>
</trkpt>
<trkpt lat="32.859775543" lon="35.251628876">
  <ele>281.854004</ele>
  <time>2011-09-02T07:23:29Z</time>
  <speed>4.650000</speed>
</trkpt>
<trkpt lat="32.859802246" lon="35.251689911">
  <ele>281.768066</ele>
  <time>2011-09-02T07:23:30Z</time>
  <speed>4.310000</speed>
</trkpt>
<trkpt lat="32.859825134" lon="35.251724243">
  <ele>280.877441</ele>
  <time>2011-09-02T07:23:31Z</time>
  <speed>3.900000</speed>
</trkpt>
<trkpt lat="32.859859467" lon="35.251754761">
  <ele>280.689941</ele>
  <time>2011-09-02T07:23:32Z</time>
  <speed>3.620000</speed>
</trkpt>
<trkpt lat="32.859889984" lon="35.251781464">
  <ele>280.541504</ele>
  <time>2011-09-02T07:23:33Z</time>
  <speed>3.390000</speed>
</trkpt>
<trkpt lat="32.859920502" lon="35.251804352">
  <ele>280.166504</ele>
  <time>2011-09-02T07:23:34Z</time>
  <speed>3.680000</speed>
</trkpt>
<trkpt lat="32.859958649" lon="35.251827240">
  <ele>279.986816</ele>
  <time>2011-09-02T07:23:35Z</time>
  <speed>4.260000</speed>
</trkpt>
<trkpt lat="32.859981537" lon="35.251865387">
  <ele>280.900879</ele>
  <time>2011-09-02T07:23:36Z</time>
  <speed>4.150000</speed>
</trkpt>
<trkpt lat="32.860012054" lon="35.251892090">
  <ele>281.424316</ele>
  <time>2011-09-02T07:23:37Z</time>
  <speed>4.260000</speed>
</trkpt>
<trkpt lat="32.860050201" lon="35.251914978">
  <ele>281.439941</ele>
  <time>2011-09-02T07:23:38Z</time>
  <speed>3.870000</speed>
</trkpt>
<trkpt lat="32.860084534" lon="35.251930237">
  <ele>281.432129</ele>
  <time>2011-09-02T07:23:39Z</time>
  <speed>3.610000</speed>
</trkpt>
<trkpt lat="32.860122681" lon="35.251941681">
  <ele>281.408691</ele>
  <time>2011-09-02T07:23:40Z</time>
  <speed>3.200000</speed>
</trkpt>
<trkpt lat="32.860160828" lon="35.251953125">
  <ele>281.604004</ele>
  <time>2011-09-02T07:23:41Z</time>
  <speed>3.300000</speed>
</trkpt>
<trkpt lat="32.860191345" lon="35.251968384">
  <ele>281.838379</ele>
  <time>2011-09-02T07:23:42Z</time>
  <speed>3.280000</speed>
</trkpt>
<trkpt lat="32.860229492" lon="35.251979828">
  <ele>281.525879</ele>
  <time>2011-09-02T07:23:43Z</time>
  <speed>3.590000</speed>
</trkpt>
<trkpt lat="32.860263824" lon="35.251991272">
  <ele>281.549316</ele>
  <time>2011-09-02T07:23:44Z</time>
  <speed>3.270000</speed>
</trkpt>
<trkpt lat="32.860294342" lon="35.252010345">
  <ele>281.689941</ele>
  <time>2011-09-02T07:23:45Z</time>
  <speed>3.390000</speed>
</trkpt>
<trkpt lat="32.860324860" lon="35.252025604">
  <ele>281.354004</ele>
  <time>2011-09-02T07:23:46Z</time>
  <speed>3.320000</speed>
</trkpt>
<trkpt lat="32.860359192" lon="35.252044678">
  <ele>281.471191</ele>
  <time>2011-09-02T07:23:47Z</time>
  <speed>3.600000</speed>
</trkpt>
<trkpt lat="32.860393524" lon="35.252071381">
  <ele>282.721191</ele>
  <time>2011-09-02T07:23:48Z</time>
  <speed>3.640000</speed>
</trkpt>
<trkpt lat="32.860424042" lon="35.252082825">
  <ele>282.814941</ele>
  <time>2011-09-02T07:23:49Z</time>
  <speed>3.310000</speed>
</trkpt>
<trkpt lat="32.860458374" lon="35.252094269">
  <ele>283.338379</ele>
  <time>2011-09-02T07:23:50Z</time>
  <speed>3.080000</speed>
</trkpt>
<trkpt lat="32.860492706" lon="35.252101898">
  <ele>283.971191</ele>
  <time>2011-09-02T07:23:51Z</time>
  <speed>2.690000</speed>
</trkpt>
<trkpt lat="32.860549927" lon="35.252113342">
  <ele>283.471191</ele>
  <time>2011-09-02T07:23:53Z</time>
  <speed>2.870000</speed>
</trkpt>
<trkpt lat="32.860591888" lon="35.252140045">
  <ele>284.447754</ele>
  <time>2011-09-02T07:23:55Z</time>
  <speed>2.350000</speed>
</trkpt>
<trkpt lat="32.860618591" lon="35.252132416">
  <ele>284.611816</ele>
  <time>2011-09-02T07:23:56Z</time>
  <speed>2.400000</speed>
</trkpt>
<trkpt lat="32.860660553" lon="35.252132416">
  <ele>285.189941</ele>
  <time>2011-09-02T07:23:58Z</time>
  <speed>2.160000</speed>
</trkpt>
<trkpt lat="32.860702515" lon="35.252132416">
  <ele>286.846191</ele>
  <time>2011-09-02T07:24:00Z</time>
  <speed>2.140000</speed>
</trkpt>
<trkpt lat="32.860752106" lon="35.252140045">
  <ele>288.314941</ele>
  <time>2011-09-02T07:24:02Z</time>
  <speed>2.410000</speed>
</trkpt>
<trkpt lat="32.860797882" lon="35.252143860">
  <ele>288.650879</ele>
  <time>2011-09-02T07:24:04Z</time>
  <speed>2.240000</speed>
</trkpt>
<trkpt lat="32.860843658" lon="35.252151489">
  <ele>289.963379</ele>
  <time>2011-09-02T07:24:06Z</time>
  <speed>2.220000</speed>
</trkpt>
<trkpt lat="32.860870361" lon="35.252155304">
  <ele>291.111816</ele>
  <time>2011-09-02T07:24:07Z</time>
  <speed>2.190000</speed>
</trkpt>
<trkpt lat="32.860908508" lon="35.252162933">
  <ele>291.830566</ele>
  <time>2011-09-02T07:24:09Z</time>
  <speed>1.980000</speed>
</trkpt>
<trkpt lat="32.860954285" lon="35.252162933">
  <ele>291.893066</ele>
  <time>2011-09-02T07:24:11Z</time>
  <speed>2.070000</speed>
</trkpt>
<trkpt lat="32.861007690" lon="35.252155304">
  <ele>295.346191</ele>
  <time>2011-09-02T07:24:13Z</time>
  <speed>2.200000</speed>
</trkpt>
<trkpt lat="32.861068726" lon="35.252159119">
  <ele>297.127441</ele>
  <time>2011-09-02T07:24:15Z</time>
  <speed>2.200000</speed>
</trkpt>
<trkpt lat="32.861110687" lon="35.252155304">
  <ele>298.393066</ele>
  <time>2011-09-02T07:24:17Z</time>
  <speed>2.400000</speed>
</trkpt>
<trkpt lat="32.861156464" lon="35.252166748">
  <ele>300.166504</ele>
  <time>2011-09-02T07:24:19Z</time>
  <speed>1.910000</speed>
</trkpt>
<trkpt lat="32.861198425" lon="35.252151489">
  <ele>301.479004</ele>
  <time>2011-09-02T07:24:21Z</time>
  <speed>1.920000</speed>
</trkpt>
<trkpt lat="32.861248016" lon="35.252136230">
  <ele>301.838379</ele>
  <time>2011-09-02T07:24:23Z</time>
  <speed>2.390000</speed>
</trkpt>
<trkpt lat="32.861274719" lon="35.252132416">
  <ele>303.119629</ele>
  <time>2011-09-02T07:24:24Z</time>
  <speed>2.030000</speed>
</trkpt>
<trkpt lat="32.861309052" lon="35.252120972">
  <ele>305.338379</ele>
  <time>2011-09-02T07:24:25Z</time>
  <speed>2.500000</speed>
</trkpt>
<trkpt lat="32.861358643" lon="35.252117157">
  <ele>306.260254</ele>
  <time>2011-09-02T07:24:27Z</time>
  <speed>2.370000</speed>
</trkpt>
<trkpt lat="32.861404419" lon="35.252113342">
  <ele>308.111816</ele>
  <time>2011-09-02T07:24:29Z</time>
  <speed>2.490000</speed>
</trkpt>
<trkpt lat="32.861450195" lon="35.252101898">
  <ele>309.018066</ele>
  <time>2011-09-02T07:24:31Z</time>
  <speed>2.480000</speed>
</trkpt>
<trkpt lat="32.861492157" lon="35.252086639">
  <ele>309.025879</ele>
  <time>2011-09-02T07:24:33Z</time>
  <speed>2.380000</speed>
</trkpt>
<trkpt lat="32.861522675" lon="35.252086639">
  <ele>310.525879</ele>
  <time>2011-09-02T07:24:34Z</time>
  <speed>2.590000</speed>
</trkpt>
<trkpt lat="32.861576080" lon="35.252071381">
  <ele>312.713379</ele>
  <time>2011-09-02T07:24:36Z</time>
  <speed>2.690000</speed>
</trkpt>
<trkpt lat="32.861602783" lon="35.252059937">
  <ele>313.369629</ele>
  <time>2011-09-02T07:24:37Z</time>
  <speed>2.390000</speed>
</trkpt>
<trkpt lat="32.861633301" lon="35.252029419">
  <ele>314.814941</ele>
  <time>2011-09-02T07:24:39Z</time>
  <speed>1.710000</speed>
</trkpt>
<trkpt lat="32.861660004" lon="35.252017975">
  <ele>314.830566</ele>
  <time>2011-09-02T07:24:40Z</time>
  <speed>2.450000</speed>
</trkpt>
<trkpt lat="32.861686707" lon="35.251995087">
  <ele>313.916504</ele>
  <time>2011-09-02T07:24:42Z</time>
  <speed>2.190000</speed>
</trkpt>
<trkpt lat="32.861713409" lon="35.251983643">
  <ele>313.580566</ele>
  <time>2011-09-02T07:24:43Z</time>
  <speed>2.460000</speed>
</trkpt>
<trkpt lat="32.861747742" lon="35.251953125">
  <ele>313.760254</ele>
  <time>2011-09-02T07:24:45Z</time>
  <speed>2.270000</speed>
</trkpt>
<trkpt lat="32.861782074" lon="35.251918793">
  <ele>313.182129</ele>
  <time>2011-09-02T07:24:47Z</time>
  <speed>2.010000</speed>
</trkpt>
<trkpt lat="32.861812592" lon="35.251903534">
  <ele>313.354004</ele>
  <time>2011-09-02T07:24:49Z</time>
  <speed>1.650000</speed>
</trkpt>
<trkpt lat="32.861827850" lon="35.251922607">
  <ele>311.549316</ele>
  <time>2011-09-02T07:24:51Z</time>
  <speed>1.690000</speed>
</trkpt>
<trkpt lat="32.861854553" lon="35.251964569">
  <ele>310.166504</ele>
  <time>2011-09-02T07:24:53Z</time>
  <speed>3.110000</speed>
</trkpt>
<trkpt lat="32.861865997" lon="35.252002716">
  <ele>309.205566</ele>
  <time>2011-09-02T07:24:54Z</time>
  <speed>4.060000</speed>
</trkpt>
<trkpt lat="32.861877441" lon="35.252075195">
  <ele>307.307129</ele>
  <time>2011-09-02T07:24:55Z</time>
  <speed>6.110000</speed>
</trkpt>
<trkpt lat="32.861892700" lon="35.252159119">
  <ele>305.494629</ele>
  <time>2011-09-02T07:24:56Z</time>
  <speed>6.750000</speed>
</trkpt>
<trkpt lat="32.861904144" lon="35.252231598">
  <ele>304.979004</ele>
  <time>2011-09-02T07:24:57Z</time>
  <speed>6.830000</speed>
</trkpt>
<trkpt lat="32.861911774" lon="35.252315521">
  <ele>304.174316</ele>
  <time>2011-09-02T07:24:58Z</time>
  <speed>7.180000</speed>
</trkpt>
<trkpt lat="32.861915588" lon="35.252391815">
  <ele>303.791504</ele>
  <time>2011-09-02T07:24:59Z</time>
  <speed>7.130000</speed>
</trkpt>
<trkpt lat="32.861915588" lon="35.252502441">
  <ele>304.025879</ele>
  <time>2011-09-02T07:25:00Z</time>
  <speed>7.710000</speed>
</trkpt>
<trkpt lat="32.861904144" lon="35.252582550">
  <ele>303.744629</ele>
  <time>2011-09-02T07:25:01Z</time>
  <speed>7.530000</speed>
</trkpt>
<trkpt lat="32.861888885" lon="35.252685547">
  <ele>304.838379</ele>
  <time>2011-09-02T07:25:02Z</time>
  <speed>7.620000</speed>
</trkpt>
<trkpt lat="32.861869812" lon="35.252761841">
  <ele>304.549316</ele>
  <time>2011-09-02T07:25:03Z</time>
  <speed>6.920000</speed>
</trkpt>
<trkpt lat="32.861850739" lon="35.252830505">
  <ele>304.604004</ele>
  <time>2011-09-02T07:25:04Z</time>
  <speed>6.420000</speed>
</trkpt>
<trkpt lat="32.861820221" lon="35.252891541">
  <ele>304.486816</ele>
  <time>2011-09-02T07:25:05Z</time>
  <speed>6.540000</speed>
</trkpt>
<trkpt lat="32.861789703" lon="35.252948761">
  <ele>304.354004</ele>
  <time>2011-09-02T07:25:06Z</time>
  <speed>6.260000</speed>
</trkpt>
<trkpt lat="32.861759186" lon="35.253005981">
  <ele>304.275879</ele>
  <time>2011-09-02T07:25:07Z</time>
  <speed>6.210000</speed>
</trkpt>
<trkpt lat="32.861724854" lon="35.253063202">
  <ele>303.947754</ele>
  <time>2011-09-02T07:25:08Z</time>
  <speed>6.040000</speed>
</trkpt>
<trkpt lat="32.861694336" lon="35.253112793">
  <ele>303.729004</ele>
  <time>2011-09-02T07:25:09Z</time>
  <speed>5.330000</speed>
</trkpt>
<trkpt lat="32.861663818" lon="35.253158569">
  <ele>303.111816</ele>
  <time>2011-09-02T07:25:10Z</time>
  <speed>5.320000</speed>
</trkpt>
<trkpt lat="32.861629486" lon="35.253204346">
  <ele>302.932129</ele>
  <time>2011-09-02T07:25:11Z</time>
  <speed>5.250000</speed>
</trkpt>
<trkpt lat="32.861602783" lon="35.253242493">
  <ele>302.627441</ele>
  <time>2011-09-02T07:25:12Z</time>
  <speed>4.990000</speed>
</trkpt>
<trkpt lat="32.861568451" lon="35.253280640">
  <ele>302.244629</ele>
  <time>2011-09-02T07:25:13Z</time>
  <speed>4.900000</speed>
</trkpt>
<trkpt lat="32.861518860" lon="35.253314972">
  <ele>301.166504</ele>
  <time>2011-09-02T07:25:14Z</time>
  <speed>4.870000</speed>
</trkpt>
<trkpt lat="32.861484528" lon="35.253353119">
  <ele>300.752441</ele>
  <time>2011-09-02T07:25:15Z</time>
  <speed>5.130000</speed>
</trkpt>
<trkpt lat="32.861450195" lon="35.253383636">
  <ele>299.447754</ele>
  <time>2011-09-02T07:25:16Z</time>
  <speed>4.800000</speed>
</trkpt>
<trkpt lat="32.861412048" lon="35.253421783">
  <ele>298.666504</ele>
  <time>2011-09-02T07:25:17Z</time>
  <speed>5.350000</speed>
</trkpt>
<trkpt lat="32.861351013" lon="35.253456116">
  <ele>298.111816</ele>
  <time>2011-09-02T07:25:18Z</time>
  <speed>6.260000</speed>
</trkpt>
<trkpt lat="32.861301422" lon="35.253482819">
  <ele>296.635254</ele>
  <time>2011-09-02T07:25:19Z</time>
  <speed>6.400000</speed>
</trkpt>
<trkpt lat="32.861255646" lon="35.253520966">
  <ele>295.830566</ele>
  <time>2011-09-02T07:25:20Z</time>
  <speed>6.660000</speed>
</trkpt>
<trkpt lat="32.861194611" lon="35.253559113">
  <ele>295.494629</ele>
  <time>2011-09-02T07:25:21Z</time>
  <speed>7.100000</speed>
</trkpt>
<trkpt lat="32.861137390" lon="35.253589630">
  <ele>294.564941</ele>
  <time>2011-09-02T07:25:22Z</time>
  <speed>7.290000</speed>
</trkpt>
<trkpt lat="32.861064911" lon="35.253612518">
  <ele>294.166504</ele>
  <time>2011-09-02T07:25:23Z</time>
  <speed>7.580000</speed>
</trkpt>
<trkpt lat="32.861000061" lon="35.253631592">
  <ele>293.549316</ele>
  <time>2011-09-02T07:25:24Z</time>
  <speed>7.410000</speed>
</trkpt>
<trkpt lat="32.860935211" lon="35.253654480">
  <ele>292.932129</ele>
  <time>2011-09-02T07:25:25Z</time>
  <speed>7.610000</speed>
</trkpt>
<trkpt lat="32.860851288" lon="35.253673553">
  <ele>292.174316</ele>
  <time>2011-09-02T07:25:26Z</time>
  <speed>7.700000</speed>
</trkpt>
<trkpt lat="32.860778809" lon="35.253692627">
  <ele>291.393066</ele>
  <time>2011-09-02T07:25:27Z</time>
  <speed>7.450000</speed>
</trkpt>
<trkpt lat="32.860710144" lon="35.253715515">
  <ele>290.854004</ele>
  <time>2011-09-02T07:25:28Z</time>
  <speed>7.240000</speed>
</trkpt>
<trkpt lat="32.860645294" lon="35.253742218">
  <ele>290.260254</ele>
  <time>2011-09-02T07:25:29Z</time>
  <speed>7.830000</speed>
</trkpt>
<trkpt lat="32.860553741" lon="35.253772736">
  <ele>290.283691</ele>
  <time>2011-09-02T07:25:30Z</time>
  <speed>6.330000</speed>
</trkpt>
<trkpt lat="32.860507965" lon="35.253829956">
  <ele>289.525879</ele>
  <time>2011-09-02T07:25:31Z</time>
  <speed>6.620000</speed>
</trkpt>
<trkpt lat="32.860466003" lon="35.253887177">
  <ele>288.791504</ele>
  <time>2011-09-02T07:25:32Z</time>
  <speed>6.280000</speed>
</trkpt>
<trkpt lat="32.860401154" lon="35.253963470">
  <ele>288.447754</ele>
  <time>2011-09-02T07:25:33Z</time>
  <speed>5.900000</speed>
</trkpt>
<trkpt lat="32.860374451" lon="35.254016876">
  <ele>287.830566</ele>
  <time>2011-09-02T07:25:34Z</time>
  <speed>5.190000</speed>
</trkpt>
<trkpt lat="32.860343933" lon="35.254058838">
  <ele>287.354004</ele>
  <time>2011-09-02T07:25:35Z</time>
  <speed>4.750000</speed>
</trkpt>
<trkpt lat="32.860321045" lon="35.254096985">
  <ele>287.111816</ele>
  <time>2011-09-02T07:25:36Z</time>
  <speed>4.240000</speed>
</trkpt>
<trkpt lat="32.860294342" lon="35.254138947">
  <ele>286.861816</ele>
  <time>2011-09-02T07:25:37Z</time>
  <speed>3.600000</speed>
</trkpt>
<trkpt lat="32.860286713" lon="35.254169464">
  <ele>287.041504</ele>
  <time>2011-09-02T07:25:38Z</time>
  <speed>3.340000</speed>
</trkpt>
<trkpt lat="32.860267639" lon="35.254203796">
  <ele>287.283691</ele>
  <time>2011-09-02T07:25:39Z</time>
  <speed>2.850000</speed>
</trkpt>
<trkpt lat="32.860256195" lon="35.254234314">
  <ele>287.049316</ele>
  <time>2011-09-02T07:25:40Z</time>
  <speed>2.680000</speed>
</trkpt>
<trkpt lat="32.860240936" lon="35.254280090">
  <ele>287.932129</ele>
  <time>2011-09-02T07:25:41Z</time>
  <speed>2.730000</speed>
</trkpt>
<trkpt lat="32.860221863" lon="35.254341125">
  <ele>288.932129</ele>
  <time>2011-09-02T07:25:43Z</time>
  <speed>2.570000</speed>
</trkpt>
<trkpt lat="32.860214233" lon="35.254379272">
  <ele>289.072754</ele>
  <time>2011-09-02T07:25:44Z</time>
  <speed>2.600000</speed>
</trkpt>
<trkpt lat="32.860195160" lon="35.254428864">
  <ele>289.541504</ele>
  <time>2011-09-02T07:25:46Z</time>
  <speed>2.340000</speed>
</trkpt>
<trkpt lat="32.860172272" lon="35.254478455">
  <ele>290.932129</ele>
  <time>2011-09-02T07:25:48Z</time>
  <speed>2.350000</speed>
</trkpt>
<trkpt lat="32.860157013" lon="35.254520416">
  <ele>291.541504</ele>
  <time>2011-09-02T07:25:50Z</time>
  <speed>2.080000</speed>
</trkpt>
<trkpt lat="32.860137939" lon="35.254554749">
  <ele>292.400879</ele>
  <time>2011-09-02T07:25:51Z</time>
  <speed>1.620000</speed>
</trkpt>
<trkpt lat="32.860115051" lon="35.254596710">
  <ele>293.260254</ele>
  <time>2011-09-02T07:25:53Z</time>
  <speed>2.210000</speed>
</trkpt>
<trkpt lat="32.860092163" lon="35.254642487">
  <ele>293.814941</ele>
  <time>2011-09-02T07:25:55Z</time>
  <speed>2.350000</speed>
</trkpt>
<trkpt lat="32.860076904" lon="35.254688263">
  <ele>294.643066</ele>
  <time>2011-09-02T07:25:57Z</time>
  <speed>1.880000</speed>
</trkpt>
<trkpt lat="32.860061646" lon="35.254726410">
  <ele>295.400879</ele>
  <time>2011-09-02T07:25:59Z</time>
  <speed>1.900000</speed>
</trkpt>
<trkpt lat="32.860046387" lon="35.254756927">
  <ele>296.775879</ele>
  <time>2011-09-02T07:26:01Z</time>
  <speed>2.110000</speed>
</trkpt>
<trkpt lat="32.860038757" lon="35.254795074">
  <ele>296.729004</ele>
  <time>2011-09-02T07:26:03Z</time>
  <speed>1.640000</speed>
</trkpt>
<trkpt lat="32.860015869" lon="35.254833221">
  <ele>296.846191</ele>
  <time>2011-09-02T07:26:05Z</time>
  <speed>1.940000</speed>
</trkpt>
<trkpt lat="32.859996796" lon="35.254875183">
  <ele>297.572754</ele>
  <time>2011-09-02T07:26:07Z</time>
  <speed>2.290000</speed>
</trkpt>
<trkpt lat="32.859977722" lon="35.254917145">
  <ele>297.791504</ele>
  <time>2011-09-02T07:26:09Z</time>
  <speed>2.500000</speed>
</trkpt>
<trkpt lat="32.859954834" lon="35.254951477">
  <ele>297.174316</ele>
  <time>2011-09-02T07:26:11Z</time>
  <speed>2.220000</speed>
</trkpt>
<trkpt lat="32.859943390" lon="35.255008698">
  <ele>296.955566</ele>
  <time>2011-09-02T07:26:13Z</time>
  <speed>2.700000</speed>
</trkpt>
<trkpt lat="32.859939575" lon="35.255069733">
  <ele>296.471191</ele>
  <time>2011-09-02T07:26:15Z</time>
  <speed>2.790000</speed>
</trkpt>
<trkpt lat="32.859931946" lon="35.255119324">
  <ele>296.666504</ele>
  <time>2011-09-02T07:26:17Z</time>
  <speed>2.250000</speed>
</trkpt>
<trkpt lat="32.859912872" lon="35.255165100">
  <ele>297.213379</ele>
  <time>2011-09-02T07:26:19Z</time>
  <speed>2.220000</speed>
</trkpt>
<trkpt lat="32.859912872" lon="35.255210876">
  <ele>297.400879</ele>
  <time>2011-09-02T07:26:21Z</time>
  <speed>2.090000</speed>
</trkpt>
<trkpt lat="32.859909058" lon="35.255252838">
  <ele>298.127441</ele>
  <time>2011-09-02T07:26:23Z</time>
  <speed>1.800000</speed>
</trkpt>
<trkpt lat="32.859901428" lon="35.255287170">
  <ele>297.557129</ele>
  <time>2011-09-02T07:26:25Z</time>
  <speed>1.860000</speed>
</trkpt>
<trkpt lat="32.859897614" lon="35.255336761">
  <ele>297.877441</ele>
  <time>2011-09-02T07:26:27Z</time>
  <speed>2.270000</speed>
</trkpt>
<trkpt lat="32.859897614" lon="35.255386353">
  <ele>298.143066</ele>
  <time>2011-09-02T07:26:29Z</time>
  <speed>2.400000</speed>
</trkpt>
<trkpt lat="32.859897614" lon="35.255439758">
  <ele>298.291504</ele>
  <time>2011-09-02T07:26:31Z</time>
  <speed>2.450000</speed>
</trkpt>
<trkpt lat="32.859905243" lon="35.255489349">
  <ele>298.658691</ele>
  <time>2011-09-02T07:26:33Z</time>
  <speed>2.490000</speed>
</trkpt>
<trkpt lat="32.859905243" lon="35.255519867">
  <ele>298.502441</ele>
  <time>2011-09-02T07:26:34Z</time>
  <speed>2.420000</speed>
</trkpt>
<trkpt lat="32.859909058" lon="35.255573273">
  <ele>298.986816</ele>
  <time>2011-09-02T07:26:36Z</time>
  <speed>2.400000</speed>
</trkpt>
<trkpt lat="32.859916687" lon="35.255626678">
  <ele>299.400879</ele>
  <time>2011-09-02T07:26:38Z</time>
  <speed>2.180000</speed>
</trkpt>
<trkpt lat="32.859920502" lon="35.255672455">
  <ele>299.564941</ele>
  <time>2011-09-02T07:26:40Z</time>
  <speed>2.250000</speed>
</trkpt>
<trkpt lat="32.859924316" lon="35.255718231">
  <ele>300.291504</ele>
  <time>2011-09-02T07:26:42Z</time>
  <speed>2.310000</speed>
</trkpt>
<trkpt lat="32.859928131" lon="35.255760193">
  <ele>300.697754</ele>
  <time>2011-09-02T07:26:44Z</time>
  <speed>2.320000</speed>
</trkpt>
<trkpt lat="32.859931946" lon="35.255809784">
  <ele>300.635254</ele>
  <time>2011-09-02T07:26:46Z</time>
  <speed>2.100000</speed>
</trkpt>
<trkpt lat="32.859943390" lon="35.255851746">
  <ele>300.736816</ele>
  <time>2011-09-02T07:26:48Z</time>
  <speed>2.110000</speed>
</trkpt>
<trkpt lat="32.859947205" lon="35.255897522">
  <ele>300.971191</ele>
  <time>2011-09-02T07:26:50Z</time>
  <speed>2.140000</speed>
</trkpt>
<trkpt lat="32.859958649" lon="35.255950928">
  <ele>301.322754</ele>
  <time>2011-09-02T07:26:52Z</time>
  <speed>2.130000</speed>
</trkpt>
<trkpt lat="32.859962463" lon="35.255989075">
  <ele>301.361816</ele>
  <time>2011-09-02T07:26:54Z</time>
  <speed>1.950000</speed>
</trkpt>
<trkpt lat="32.859966278" lon="35.256031036">
  <ele>301.158691</ele>
  <time>2011-09-02T07:26:56Z</time>
  <speed>2.180000</speed>
</trkpt>
<trkpt lat="32.859966278" lon="35.256072998">
  <ele>300.283691</ele>
  <time>2011-09-02T07:26:58Z</time>
  <speed>2.300000</speed>
</trkpt>
<trkpt lat="32.859970093" lon="35.256122589">
  <ele>300.611816</ele>
  <time>2011-09-02T07:27:00Z</time>
  <speed>2.290000</speed>
</trkpt>
<trkpt lat="32.859973907" lon="35.256183624">
  <ele>300.533691</ele>
  <time>2011-09-02T07:27:02Z</time>
  <speed>2.320000</speed>
</trkpt>
<trkpt lat="32.859981537" lon="35.256233215">
  <ele>300.408691</ele>
  <time>2011-09-02T07:27:04Z</time>
  <speed>2.430000</speed>
</trkpt>
<trkpt lat="32.859996796" lon="35.256286621">
  <ele>300.854004</ele>
  <time>2011-09-02T07:27:06Z</time>
  <speed>2.500000</speed>
</trkpt>
<trkpt lat="32.860019684" lon="35.256340027">
  <ele>300.721191</ele>
  <time>2011-09-02T07:27:08Z</time>
  <speed>2.910000</speed>
</trkpt>
<trkpt lat="32.860034943" lon="35.256397247">
  <ele>300.479004</ele>
  <time>2011-09-02T07:27:10Z</time>
  <speed>3.280000</speed>
</trkpt>
<trkpt lat="32.860042572" lon="35.256427765">
  <ele>300.416504</ele>
  <time>2011-09-02T07:27:11Z</time>
  <speed>3.270000</speed>
</trkpt>
<trkpt lat="32.860034943" lon="35.256473541">
  <ele>300.658691</ele>
  <time>2011-09-02T07:27:12Z</time>
  <speed>3.480000</speed>
</trkpt>
<trkpt lat="32.860038757" lon="35.256519318">
  <ele>300.479004</ele>
  <time>2011-09-02T07:27:13Z</time>
  <speed>3.690000</speed>
</trkpt>
<trkpt lat="32.860050201" lon="35.256549835">
  <ele>300.721191</ele>
  <time>2011-09-02T07:27:14Z</time>
  <speed>3.640000</speed>
</trkpt>
<trkpt lat="32.860061646" lon="35.256587982">
  <ele>300.291504</ele>
  <time>2011-09-02T07:27:15Z</time>
  <speed>3.800000</speed>
</trkpt>
<trkpt lat="32.860069275" lon="35.256626129">
  <ele>300.189941</ele>
  <time>2011-09-02T07:27:16Z</time>
  <speed>3.920000</speed>
</trkpt>
<trkpt lat="32.860076904" lon="35.256668091">
  <ele>300.252441</ele>
  <time>2011-09-02T07:27:17Z</time>
  <speed>4.300000</speed>
</trkpt>
<trkpt lat="32.860092163" lon="35.256713867">
  <ele>300.025879</ele>
  <time>2011-09-02T07:27:18Z</time>
  <speed>4.730000</speed>
</trkpt>
<trkpt lat="32.860111237" lon="35.256759644">
  <ele>300.018066</ele>
  <time>2011-09-02T07:27:19Z</time>
  <speed>4.840000</speed>
</trkpt>
<trkpt lat="32.860126495" lon="35.256809235">
  <ele>299.807129</ele>
  <time>2011-09-02T07:27:20Z</time>
  <speed>4.900000</speed>
</trkpt>
<trkpt lat="32.860149384" lon="35.256858826">
  <ele>299.650879</ele>
  <time>2011-09-02T07:27:21Z</time>
  <speed>5.340000</speed>
</trkpt>
<trkpt lat="32.860172272" lon="35.256908417">
  <ele>299.557129</ele>
  <time>2011-09-02T07:27:22Z</time>
  <speed>5.660000</speed>
</trkpt>
<trkpt lat="32.860206604" lon="35.256961823">
  <ele>299.479004</ele>
  <time>2011-09-02T07:27:23Z</time>
  <speed>5.890000</speed>
</trkpt>
<trkpt lat="32.860240936" lon="35.257011414">
  <ele>299.104004</ele>
  <time>2011-09-02T07:27:24Z</time>
  <speed>6.050000</speed>
</trkpt>
<trkpt lat="32.860275269" lon="35.257061005">
  <ele>299.854004</ele>
  <time>2011-09-02T07:27:25Z</time>
  <speed>6.100000</speed>
</trkpt>
<trkpt lat="32.860317230" lon="35.257099152">
  <ele>300.455566</ele>
  <time>2011-09-02T07:27:26Z</time>
  <speed>5.960000</speed>
</trkpt>
<trkpt lat="32.860359192" lon="35.257141113">
  <ele>300.658691</ele>
  <time>2011-09-02T07:27:27Z</time>
  <speed>5.730000</speed>
</trkpt>
<trkpt lat="32.860401154" lon="35.257171631">
  <ele>300.916504</ele>
  <time>2011-09-02T07:27:28Z</time>
  <speed>5.220000</speed>
</trkpt>
<trkpt lat="32.860446930" lon="35.257194519">
  <ele>300.869629</ele>
  <time>2011-09-02T07:27:29Z</time>
  <speed>4.880000</speed>
</trkpt>
<trkpt lat="32.860496521" lon="35.257209778">
  <ele>301.361816</ele>
  <time>2011-09-02T07:27:30Z</time>
  <speed>4.900000</speed>
</trkpt>
<trkpt lat="32.860542297" lon="35.257217407">
  <ele>301.494629</ele>
  <time>2011-09-02T07:27:31Z</time>
  <speed>4.790000</speed>
</trkpt>
<trkpt lat="32.860588074" lon="35.257225037">
  <ele>301.752441</ele>
  <time>2011-09-02T07:27:32Z</time>
  <speed>4.340000</speed>
</trkpt>
<trkpt lat="32.860626221" lon="35.257232666">
  <ele>301.463379</ele>
  <time>2011-09-02T07:27:33Z</time>
  <speed>4.280000</speed>
</trkpt>
<trkpt lat="32.860668182" lon="35.257251740">
  <ele>302.299316</ele>
  <time>2011-09-02T07:27:34Z</time>
  <speed>3.660000</speed>
</trkpt>
<trkpt lat="32.860702515" lon="35.257266998">
  <ele>302.939941</ele>
  <time>2011-09-02T07:27:35Z</time>
  <speed>3.410000</speed>
</trkpt>
<trkpt lat="32.860736847" lon="35.257282257">
  <ele>303.049316</ele>
  <time>2011-09-02T07:27:36Z</time>
  <speed>3.080000</speed>
</trkpt>
<trkpt lat="32.860763550" lon="35.257289886">
  <ele>303.057129</ele>
  <time>2011-09-02T07:27:37Z</time>
  <speed>2.550000</speed>
</trkpt>
<trkpt lat="32.860809326" lon="35.257301331">
  <ele>303.541504</ele>
  <time>2011-09-02T07:27:39Z</time>
  <speed>2.620000</speed>
</trkpt>
<trkpt lat="32.860855103" lon="35.257312775">
  <ele>304.002441</ele>
  <time>2011-09-02T07:27:41Z</time>
  <speed>2.490000</speed>
</trkpt>
<trkpt lat="32.860900879" lon="35.257335663">
  <ele>304.564941</ele>
  <time>2011-09-02T07:27:43Z</time>
  <speed>2.440000</speed>
</trkpt>
<trkpt lat="32.860942841" lon="35.257347107">
  <ele>305.275879</ele>
  <time>2011-09-02T07:27:45Z</time>
  <speed>2.180000</speed>
</trkpt>
<trkpt lat="32.860988617" lon="35.257343292">
  <ele>305.979004</ele>
  <time>2011-09-02T07:27:47Z</time>
  <speed>2.670000</speed>
</trkpt>
<trkpt lat="32.861030579" lon="35.257347107">
  <ele>305.635254</ele>
  <time>2011-09-02T07:27:49Z</time>
  <speed>2.670000</speed>
</trkpt>
<trkpt lat="32.861057281" lon="35.257343292">
  <ele>307.088379</ele>
  <time>2011-09-02T07:27:50Z</time>
  <speed>2.370000</speed>
</trkpt>
<trkpt lat="32.861083984" lon="35.257335663">
  <ele>307.682129</ele>
  <time>2011-09-02T07:27:51Z</time>
  <speed>2.410000</speed>
</trkpt>
<trkpt lat="32.861129761" lon="35.257335663">
  <ele>308.689941</ele>
  <time>2011-09-02T07:27:53Z</time>
  <speed>2.660000</speed>
</trkpt>
<trkpt lat="32.861148834" lon="35.257354736">
  <ele>306.697754</ele>
  <time>2011-09-02T07:27:55Z</time>
  <speed>2.370000</speed>
</trkpt>
<trkpt lat="32.861171722" lon="35.257396698">
  <ele>307.143066</ele>
  <time>2011-09-02T07:27:57Z</time>
  <speed>2.190000</speed>
</trkpt>
<trkpt lat="32.861202240" lon="35.257438660">
  <ele>306.432129</ele>
  <time>2011-09-02T07:27:59Z</time>
  <speed>2.970000</speed>
</trkpt>
<trkpt lat="32.861213684" lon="35.257472992">
  <ele>305.744629</ele>
  <time>2011-09-02T07:28:00Z</time>
  <speed>3.290000</speed>
</trkpt>
<trkpt lat="32.861221313" lon="35.257507324">
  <ele>305.369629</ele>
  <time>2011-09-02T07:28:01Z</time>
  <speed>3.980000</speed>
</trkpt>
<trkpt lat="32.861240387" lon="35.257553101">
  <ele>304.846191</ele>
  <time>2011-09-02T07:28:02Z</time>
  <speed>4.980000</speed>
</trkpt>
<trkpt lat="32.861244202" lon="35.257610321">
  <ele>304.314941</ele>
  <time>2011-09-02T07:28:03Z</time>
  <speed>5.980000</speed>
</trkpt>
<trkpt lat="32.861240387" lon="35.257678986">
  <ele>303.229004</ele>
  <time>2011-09-02T07:28:04Z</time>
  <speed>6.490000</speed>
</trkpt>
<trkpt lat="32.861221313" lon="35.257747650">
  <ele>302.057129</ele>
  <time>2011-09-02T07:28:05Z</time>
  <speed>6.420000</speed>
</trkpt>
<trkpt lat="32.861194611" lon="35.257820129">
  <ele>301.072754</ele>
  <time>2011-09-02T07:28:06Z</time>
  <speed>6.900000</speed>
</trkpt>
<trkpt lat="32.861156464" lon="35.257884979">
  <ele>300.494629</ele>
  <time>2011-09-02T07:28:07Z</time>
  <speed>6.910000</speed>
</trkpt>
<trkpt lat="32.861118317" lon="35.257946014">
  <ele>299.838379</ele>
  <time>2011-09-02T07:28:08Z</time>
  <speed>6.600000</speed>
</trkpt>
<trkpt lat="32.861076355" lon="35.257999420">
  <ele>300.143066</ele>
  <time>2011-09-02T07:28:09Z</time>
  <speed>6.500000</speed>
</trkpt>
<trkpt lat="32.861034393" lon="35.258045197">
  <ele>299.182129</ele>
  <time>2011-09-02T07:28:10Z</time>
  <speed>6.450000</speed>
</trkpt>
<trkpt lat="32.860984802" lon="35.258071899">
  <ele>298.643066</ele>
  <time>2011-09-02T07:28:11Z</time>
  <speed>6.110000</speed>
</trkpt>
<trkpt lat="32.860935211" lon="35.258079529">
  <ele>297.705566</ele>
  <time>2011-09-02T07:28:12Z</time>
  <speed>4.840000</speed>
</trkpt>
<trkpt lat="32.860893250" lon="35.258087158">
  <ele>296.744629</ele>
  <time>2011-09-02T07:28:13Z</time>
  <speed>3.640000</speed>
</trkpt>
<trkpt lat="32.860855103" lon="35.258087158">
  <ele>296.916504</ele>
  <time>2011-09-02T07:28:15Z</time>
  <speed>1.040000</speed>
</trkpt>
<trkpt lat="32.860820770" lon="35.258094788">
  <ele>296.096191</ele>
  <time>2011-09-02T07:28:18Z</time>
  <speed>0.330000</speed>
</trkpt>
<trkpt lat="32.860816956" lon="35.258071899">
  <ele>298.830566</ele>
  <time>2011-09-02T07:28:33Z</time>
  <speed>0.030000</speed>
</trkpt>
<trkpt lat="32.860794067" lon="35.258075714">
  <ele>299.947754</ele>
  <time>2011-09-02T07:28:39Z</time>
  <speed>0.030000</speed>
</trkpt>
</trkseg>
</trk>
</gpx>
